<?xml version="1.0" encoding="UTF-8"?>
<gpx version="1.1" creator="https://www.youtrack.es" xsi:schemaLocation="http://www.topografix.com/GPX/1/1 http://www.topografix.com/GPX/1/1/gpx.xsd http://www.garmin.com/xmlschemas/GpxExtensions/v3 http://www.garmin.com/xmlschemas/GpxExtensionsv3.xsd http://www.garmin.com/xmlschemas/TrackPointExtension/v1 http://www.garmin.com/xmlschemas/TrackPointExtensionv1.xsd" xmlns:gpxtpx="http://www.garmin.com/xmlschemas/TrackPointExtension/v1" xmlns:gpxx="http://www.garmin.com/xmlschemas/GpxExtensions/v3" xmlns:xsi="http://www.w3.org/2001/XMLSchema-instance">
  <metadata>
    <author>
      <name>Ferran Jambert</name>
      <email id="fjambert" domain="gmail.com"/>
    </author>
    <link href="https://www.youtrack.es">
      <text>YouTrack.es</text>
    </link>
    <time>2026-05-08T20:54:20Z</time>
  </metadata>
  <trk>
    <src>https://www.youtrack.es</src>
    <link href="https://www.youtrack.es/ruta/3725-la-farga-torello">
      <text>YouTrack.es</text>
    </link>
    <trkseg>
      <trkpt lat="42.196015" lon="2.194818">
        <ele>695.535</ele>
        <time>2017-11-28T10:38:41Z</time>
      </trkpt>
      <trkpt lat="42.196126" lon="2.194878">
        <ele>676.986</ele>
        <time>2017-11-28T10:38:44Z</time>
      </trkpt>
      <trkpt lat="42.196081" lon="2.194863">
        <ele>677.014</ele>
        <time>2017-11-28T10:38:44Z</time>
      </trkpt>
      <trkpt lat="42.196036" lon="2.194872">
        <ele>677.608</ele>
        <time>2017-11-28T10:38:52Z</time>
      </trkpt>
      <trkpt lat="42.195988" lon="2.194883">
        <ele>675.925</ele>
        <time>2017-11-28T10:40:23Z</time>
      </trkpt>
      <trkpt lat="42.195945" lon="2.194916">
        <ele>676.554</ele>
        <time>2017-11-28T10:40:28Z</time>
      </trkpt>
      <trkpt lat="42.195905" lon="2.194949">
        <ele>676.585</ele>
        <time>2017-11-28T10:40:32Z</time>
      </trkpt>
      <trkpt lat="42.195869" lon="2.194986">
        <ele>676.589</ele>
        <time>2017-11-28T10:40:36Z</time>
      </trkpt>
      <trkpt lat="42.195830" lon="2.195032">
        <ele>676.045</ele>
        <time>2017-11-28T10:40:41Z</time>
      </trkpt>
      <trkpt lat="42.195780" lon="2.195047">
        <ele>676.294</ele>
        <time>2017-11-28T10:40:46Z</time>
      </trkpt>
      <trkpt lat="42.195747" lon="2.195111">
        <ele>676.480</ele>
        <time>2017-11-28T10:41:23Z</time>
      </trkpt>
      <trkpt lat="42.195698" lon="2.195159">
        <ele>677.157</ele>
        <time>2017-11-28T10:41:27Z</time>
      </trkpt>
      <trkpt lat="42.195657" lon="2.195214">
        <ele>676.092</ele>
        <time>2017-11-28T10:41:31Z</time>
      </trkpt>
      <trkpt lat="42.195613" lon="2.195258">
        <ele>676.373</ele>
        <time>2017-11-28T10:41:35Z</time>
      </trkpt>
      <trkpt lat="42.195567" lon="2.195304">
        <ele>676.420</ele>
        <time>2017-11-28T10:41:39Z</time>
      </trkpt>
      <trkpt lat="42.195520" lon="2.195356">
        <ele>676.608</ele>
        <time>2017-11-28T10:41:43Z</time>
      </trkpt>
      <trkpt lat="42.195484" lon="2.195396">
        <ele>676.911</ele>
        <time>2017-11-28T10:41:46Z</time>
      </trkpt>
      <trkpt lat="42.195443" lon="2.195442">
        <ele>676.430</ele>
        <time>2017-11-28T10:41:50Z</time>
      </trkpt>
      <trkpt lat="42.195403" lon="2.195486">
        <ele>676.651</ele>
        <time>2017-11-28T10:41:54Z</time>
      </trkpt>
      <trkpt lat="42.195362" lon="2.195532">
        <ele>676.555</ele>
        <time>2017-11-28T10:41:58Z</time>
      </trkpt>
      <trkpt lat="42.195323" lon="2.195578">
        <ele>676.261</ele>
        <time>2017-11-28T10:42:02Z</time>
      </trkpt>
      <trkpt lat="42.195288" lon="2.195630">
        <ele>676.640</ele>
        <time>2017-11-28T10:42:06Z</time>
      </trkpt>
      <trkpt lat="42.195252" lon="2.195675">
        <ele>676.726</ele>
        <time>2017-11-28T10:42:10Z</time>
      </trkpt>
      <trkpt lat="42.195216" lon="2.195723">
        <ele>676.853</ele>
        <time>2017-11-28T10:42:14Z</time>
      </trkpt>
      <trkpt lat="42.195176" lon="2.195762">
        <ele>676.615</ele>
        <time>2017-11-28T10:42:18Z</time>
      </trkpt>
      <trkpt lat="42.195137" lon="2.195795">
        <ele>676.565</ele>
        <time>2017-11-28T10:42:22Z</time>
      </trkpt>
      <trkpt lat="42.195090" lon="2.195837">
        <ele>676.511</ele>
        <time>2017-11-28T10:42:27Z</time>
      </trkpt>
      <trkpt lat="42.195054" lon="2.195876">
        <ele>676.508</ele>
        <time>2017-11-28T10:42:31Z</time>
      </trkpt>
      <trkpt lat="42.195018" lon="2.195913">
        <ele>676.543</ele>
        <time>2017-11-28T10:42:35Z</time>
      </trkpt>
      <trkpt lat="42.194981" lon="2.195948">
        <ele>676.162</ele>
        <time>2017-11-28T10:42:39Z</time>
      </trkpt>
      <trkpt lat="42.194941" lon="2.195979">
        <ele>676.193</ele>
        <time>2017-11-28T10:42:43Z</time>
      </trkpt>
      <trkpt lat="42.194904" lon="2.196013">
        <ele>676.457</ele>
        <time>2017-11-28T10:42:47Z</time>
      </trkpt>
      <trkpt lat="42.194870" lon="2.196055">
        <ele>676.223</ele>
        <time>2017-11-28T10:42:51Z</time>
      </trkpt>
      <trkpt lat="42.194835" lon="2.196096">
        <ele>676.232</ele>
        <time>2017-11-28T10:42:55Z</time>
      </trkpt>
      <trkpt lat="42.194791" lon="2.196131">
        <ele>676.388</ele>
        <time>2017-11-28T10:42:59Z</time>
      </trkpt>
      <trkpt lat="42.194750" lon="2.196166">
        <ele>676.565</ele>
        <time>2017-11-28T10:43:03Z</time>
      </trkpt>
      <trkpt lat="42.194709" lon="2.196204">
        <ele>676.632</ele>
        <time>2017-11-28T10:43:07Z</time>
      </trkpt>
      <trkpt lat="42.194664" lon="2.196250">
        <ele>676.992</ele>
        <time>2017-11-28T10:43:12Z</time>
      </trkpt>
      <trkpt lat="42.194627" lon="2.196299">
        <ele>676.811</ele>
        <time>2017-11-28T10:43:16Z</time>
      </trkpt>
      <trkpt lat="42.194583" lon="2.196343">
        <ele>676.508</ele>
        <time>2017-11-28T10:43:21Z</time>
      </trkpt>
      <trkpt lat="42.194536" lon="2.196376">
        <ele>676.835</ele>
        <time>2017-11-28T10:43:26Z</time>
      </trkpt>
      <trkpt lat="42.194502" lon="2.196417">
        <ele>676.724</ele>
        <time>2017-11-28T10:43:30Z</time>
      </trkpt>
      <trkpt lat="42.194471" lon="2.196470">
        <ele>676.725</ele>
        <time>2017-11-28T10:43:34Z</time>
      </trkpt>
      <trkpt lat="42.194441" lon="2.196517">
        <ele>676.859</ele>
        <time>2017-11-28T10:43:38Z</time>
      </trkpt>
      <trkpt lat="42.194409" lon="2.196560">
        <ele>676.615</ele>
        <time>2017-11-28T10:43:42Z</time>
      </trkpt>
      <trkpt lat="42.194369" lon="2.196608">
        <ele>676.434</ele>
        <time>2017-11-28T10:43:47Z</time>
      </trkpt>
      <trkpt lat="42.194328" lon="2.196648">
        <ele>676.230</ele>
        <time>2017-11-28T10:43:51Z</time>
      </trkpt>
      <trkpt lat="42.194283" lon="2.196681">
        <ele>676.337</ele>
        <time>2017-11-28T10:43:55Z</time>
      </trkpt>
      <trkpt lat="42.194239" lon="2.196699">
        <ele>676.313</ele>
        <time>2017-11-28T10:43:59Z</time>
      </trkpt>
      <trkpt lat="42.194194" lon="2.196701">
        <ele>676.043</ele>
        <time>2017-11-28T10:44:03Z</time>
      </trkpt>
      <trkpt lat="42.194141" lon="2.196697">
        <ele>675.907</ele>
        <time>2017-11-28T10:44:07Z</time>
      </trkpt>
      <trkpt lat="42.194091" lon="2.196689">
        <ele>675.708</ele>
        <time>2017-11-28T10:44:11Z</time>
      </trkpt>
      <trkpt lat="42.194039" lon="2.196679">
        <ele>675.543</ele>
        <time>2017-11-28T10:44:15Z</time>
      </trkpt>
      <trkpt lat="42.193984" lon="2.196678">
        <ele>675.532</ele>
        <time>2017-11-28T10:44:19Z</time>
      </trkpt>
      <trkpt lat="42.193934" lon="2.196685">
        <ele>675.543</ele>
        <time>2017-11-28T10:44:23Z</time>
      </trkpt>
      <trkpt lat="42.193882" lon="2.196698">
        <ele>675.937</ele>
        <time>2017-11-28T10:44:27Z</time>
      </trkpt>
      <trkpt lat="42.193831" lon="2.196713">
        <ele>676.313</ele>
        <time>2017-11-28T10:44:31Z</time>
      </trkpt>
      <trkpt lat="42.193785" lon="2.196717">
        <ele>676.152</ele>
        <time>2017-11-28T10:44:35Z</time>
      </trkpt>
      <trkpt lat="42.193735" lon="2.196713">
        <ele>675.868</ele>
        <time>2017-11-28T10:44:39Z</time>
      </trkpt>
      <trkpt lat="42.193689" lon="2.196710">
        <ele>675.775</ele>
        <time>2017-11-28T10:44:43Z</time>
      </trkpt>
      <trkpt lat="42.193642" lon="2.196706">
        <ele>675.491</ele>
        <time>2017-11-28T10:44:47Z</time>
      </trkpt>
      <trkpt lat="42.193592" lon="2.196701">
        <ele>675.381</ele>
        <time>2017-11-28T10:44:51Z</time>
      </trkpt>
      <trkpt lat="42.193538" lon="2.196696">
        <ele>674.919</ele>
        <time>2017-11-28T10:44:56Z</time>
      </trkpt>
      <trkpt lat="42.193492" lon="2.196685">
        <ele>675.008</ele>
        <time>2017-11-28T10:45:00Z</time>
      </trkpt>
      <trkpt lat="42.193447" lon="2.196662">
        <ele>674.741</ele>
        <time>2017-11-28T10:45:04Z</time>
      </trkpt>
      <trkpt lat="42.193400" lon="2.196646">
        <ele>675.270</ele>
        <time>2017-11-28T10:45:08Z</time>
      </trkpt>
      <trkpt lat="42.193353" lon="2.196644">
        <ele>674.851</ele>
        <time>2017-11-28T10:45:13Z</time>
      </trkpt>
      <trkpt lat="42.193308" lon="2.196647">
        <ele>674.835</ele>
        <time>2017-11-28T10:45:25Z</time>
      </trkpt>
      <trkpt lat="42.193261" lon="2.196633">
        <ele>674.841</ele>
        <time>2017-11-28T10:45:38Z</time>
      </trkpt>
      <trkpt lat="42.193215" lon="2.196614">
        <ele>673.930</ele>
        <time>2017-11-28T10:45:46Z</time>
      </trkpt>
      <trkpt lat="42.193170" lon="2.196595">
        <ele>672.526</ele>
        <time>2017-11-28T10:45:55Z</time>
      </trkpt>
      <trkpt lat="42.193124" lon="2.196581">
        <ele>671.713</ele>
        <time>2017-11-28T10:46:00Z</time>
      </trkpt>
      <trkpt lat="42.193068" lon="2.196592">
        <ele>671.979</ele>
        <time>2017-11-28T10:46:04Z</time>
      </trkpt>
      <trkpt lat="42.193018" lon="2.196604">
        <ele>671.305</ele>
        <time>2017-11-28T10:46:08Z</time>
      </trkpt>
      <trkpt lat="42.192969" lon="2.196625">
        <ele>671.925</ele>
        <time>2017-11-28T10:46:12Z</time>
      </trkpt>
      <trkpt lat="42.192918" lon="2.196657">
        <ele>672.608</ele>
        <time>2017-11-28T10:46:17Z</time>
      </trkpt>
      <trkpt lat="42.192875" lon="2.196681">
        <ele>672.449</ele>
        <time>2017-11-28T10:46:22Z</time>
      </trkpt>
      <trkpt lat="42.192827" lon="2.196663">
        <ele>672.168</ele>
        <time>2017-11-28T10:46:29Z</time>
      </trkpt>
      <trkpt lat="42.192783" lon="2.196675">
        <ele>671.389</ele>
        <time>2017-11-28T10:46:34Z</time>
      </trkpt>
      <trkpt lat="42.192730" lon="2.196695">
        <ele>671.753</ele>
        <time>2017-11-28T10:46:39Z</time>
      </trkpt>
      <trkpt lat="42.192684" lon="2.196721">
        <ele>672.249</ele>
        <time>2017-11-28T10:46:43Z</time>
      </trkpt>
      <trkpt lat="42.192636" lon="2.196748">
        <ele>672.958</ele>
        <time>2017-11-28T10:46:48Z</time>
      </trkpt>
      <trkpt lat="42.192612" lon="2.196802">
        <ele>672.144</ele>
        <time>2017-11-28T10:46:56Z</time>
      </trkpt>
      <trkpt lat="42.192573" lon="2.196844">
        <ele>671.911</ele>
        <time>2017-11-28T10:47:01Z</time>
      </trkpt>
      <trkpt lat="42.192525" lon="2.196866">
        <ele>671.955</ele>
        <time>2017-11-28T10:47:05Z</time>
      </trkpt>
      <trkpt lat="42.192477" lon="2.196893">
        <ele>672.107</ele>
        <time>2017-11-28T10:47:09Z</time>
      </trkpt>
      <trkpt lat="42.192429" lon="2.196913">
        <ele>672.017</ele>
        <time>2017-11-28T10:47:14Z</time>
      </trkpt>
      <trkpt lat="42.192384" lon="2.196925">
        <ele>672.108</ele>
        <time>2017-11-28T10:47:18Z</time>
      </trkpt>
      <trkpt lat="42.192331" lon="2.196948">
        <ele>672.777</ele>
        <time>2017-11-28T10:47:22Z</time>
      </trkpt>
      <trkpt lat="42.192280" lon="2.196977">
        <ele>672.916</ele>
        <time>2017-11-28T10:47:26Z</time>
      </trkpt>
      <trkpt lat="42.192233" lon="2.197004">
        <ele>673.477</ele>
        <time>2017-11-28T10:47:30Z</time>
      </trkpt>
      <trkpt lat="42.192185" lon="2.197018">
        <ele>673.671</ele>
        <time>2017-11-28T10:47:34Z</time>
      </trkpt>
      <trkpt lat="42.192135" lon="2.197042">
        <ele>673.987</ele>
        <time>2017-11-28T10:47:38Z</time>
      </trkpt>
      <trkpt lat="42.192083" lon="2.197075">
        <ele>673.756</ele>
        <time>2017-11-28T10:47:42Z</time>
      </trkpt>
      <trkpt lat="42.192039" lon="2.197101">
        <ele>673.292</ele>
        <time>2017-11-28T10:47:46Z</time>
      </trkpt>
      <trkpt lat="42.191992" lon="2.197120">
        <ele>673.469</ele>
        <time>2017-11-28T10:47:50Z</time>
      </trkpt>
      <trkpt lat="42.191944" lon="2.197149">
        <ele>673.514</ele>
        <time>2017-11-28T10:47:54Z</time>
      </trkpt>
      <trkpt lat="42.191894" lon="2.197174">
        <ele>674.354</ele>
        <time>2017-11-28T10:47:58Z</time>
      </trkpt>
      <trkpt lat="42.191850" lon="2.197211">
        <ele>674.809</ele>
        <time>2017-11-28T10:48:03Z</time>
      </trkpt>
      <trkpt lat="42.191800" lon="2.197236">
        <ele>674.608</ele>
        <time>2017-11-28T10:48:08Z</time>
      </trkpt>
      <trkpt lat="42.191752" lon="2.197262">
        <ele>674.313</ele>
        <time>2017-11-28T10:48:13Z</time>
      </trkpt>
      <trkpt lat="42.191712" lon="2.197293">
        <ele>674.152</ele>
        <time>2017-11-28T10:48:17Z</time>
      </trkpt>
      <trkpt lat="42.191672" lon="2.197332">
        <ele>673.683</ele>
        <time>2017-11-28T10:48:22Z</time>
      </trkpt>
      <trkpt lat="42.191630" lon="2.197364">
        <ele>673.837</ele>
        <time>2017-11-28T10:48:26Z</time>
      </trkpt>
      <trkpt lat="42.191590" lon="2.197399">
        <ele>672.913</ele>
        <time>2017-11-28T10:48:30Z</time>
      </trkpt>
      <trkpt lat="42.191539" lon="2.197437">
        <ele>672.152</ele>
        <time>2017-11-28T10:48:35Z</time>
      </trkpt>
      <trkpt lat="42.191493" lon="2.197475">
        <ele>671.838</ele>
        <time>2017-11-28T10:48:39Z</time>
      </trkpt>
      <trkpt lat="42.191444" lon="2.197504">
        <ele>672.175</ele>
        <time>2017-11-28T10:48:43Z</time>
      </trkpt>
      <trkpt lat="42.191395" lon="2.197538">
        <ele>672.373</ele>
        <time>2017-11-28T10:48:47Z</time>
      </trkpt>
      <trkpt lat="42.191357" lon="2.197575">
        <ele>672.085</ele>
        <time>2017-11-28T10:48:51Z</time>
      </trkpt>
      <trkpt lat="42.191317" lon="2.197611">
        <ele>672.813</ele>
        <time>2017-11-28T10:48:56Z</time>
      </trkpt>
      <trkpt lat="42.191271" lon="2.197623">
        <ele>673.208</ele>
        <time>2017-11-28T10:48:59Z</time>
      </trkpt>
      <trkpt lat="42.191220" lon="2.197637">
        <ele>673.889</ele>
        <time>2017-11-28T10:49:03Z</time>
      </trkpt>
      <trkpt lat="42.191173" lon="2.197655">
        <ele>673.728</ele>
        <time>2017-11-28T10:49:07Z</time>
      </trkpt>
      <trkpt lat="42.191118" lon="2.197671">
        <ele>674.179</ele>
        <time>2017-11-28T10:49:13Z</time>
      </trkpt>
      <trkpt lat="42.191076" lon="2.197695">
        <ele>674.113</ele>
        <time>2017-11-28T10:49:17Z</time>
      </trkpt>
      <trkpt lat="42.191028" lon="2.197727">
        <ele>674.859</ele>
        <time>2017-11-28T10:49:21Z</time>
      </trkpt>
      <trkpt lat="42.190977" lon="2.197732">
        <ele>674.418</ele>
        <time>2017-11-28T10:49:25Z</time>
      </trkpt>
      <trkpt lat="42.190923" lon="2.197752">
        <ele>674.274</ele>
        <time>2017-11-28T10:49:29Z</time>
      </trkpt>
      <trkpt lat="42.190879" lon="2.197769">
        <ele>674.691</ele>
        <time>2017-11-28T10:49:32Z</time>
      </trkpt>
      <trkpt lat="42.190832" lon="2.197778">
        <ele>675.127</ele>
        <time>2017-11-28T10:49:36Z</time>
      </trkpt>
      <trkpt lat="42.190788" lon="2.197803">
        <ele>675.068</ele>
        <time>2017-11-28T10:49:40Z</time>
      </trkpt>
      <trkpt lat="42.190796" lon="2.197866">
        <ele>673.314</ele>
        <time>2017-11-28T10:49:45Z</time>
      </trkpt>
      <trkpt lat="42.190785" lon="2.197805">
        <ele>671.608</ele>
        <time>2017-11-28T10:50:04Z</time>
      </trkpt>
      <trkpt lat="42.190761" lon="2.197732">
        <ele>671.014</ele>
        <time>2017-11-28T10:50:09Z</time>
      </trkpt>
      <trkpt lat="42.190743" lon="2.197657">
        <ele>669.823</ele>
        <time>2017-11-28T10:50:13Z</time>
      </trkpt>
      <trkpt lat="42.190724" lon="2.197601">
        <ele>670.094</ele>
        <time>2017-11-28T10:50:30Z</time>
      </trkpt>
      <trkpt lat="42.190706" lon="2.197538">
        <ele>669.928</ele>
        <time>2017-11-28T10:50:35Z</time>
      </trkpt>
      <trkpt lat="42.190744" lon="2.197505">
        <ele>668.314</ele>
        <time>2017-11-28T10:50:45Z</time>
      </trkpt>
      <trkpt lat="42.190743" lon="2.197428">
        <ele>668.593</ele>
        <time>2017-11-28T10:51:00Z</time>
      </trkpt>
      <trkpt lat="42.190727" lon="2.197361">
        <ele>669.159</ele>
        <time>2017-11-28T10:51:04Z</time>
      </trkpt>
      <trkpt lat="42.190712" lon="2.197299">
        <ele>668.856</ele>
        <time>2017-11-28T10:51:08Z</time>
      </trkpt>
      <trkpt lat="42.190696" lon="2.197233">
        <ele>669.045</ele>
        <time>2017-11-28T10:51:13Z</time>
      </trkpt>
      <trkpt lat="42.190673" lon="2.197167">
        <ele>668.947</ele>
        <time>2017-11-28T10:51:17Z</time>
      </trkpt>
      <trkpt lat="42.190650" lon="2.197100">
        <ele>669.011</ele>
        <time>2017-11-28T10:51:21Z</time>
      </trkpt>
      <trkpt lat="42.190624" lon="2.197031">
        <ele>669.408</ele>
        <time>2017-11-28T10:51:25Z</time>
      </trkpt>
      <trkpt lat="42.190598" lon="2.196963">
        <ele>669.946</ele>
        <time>2017-11-28T10:51:29Z</time>
      </trkpt>
      <trkpt lat="42.190571" lon="2.196893">
        <ele>670.255</ele>
        <time>2017-11-28T10:51:33Z</time>
      </trkpt>
      <trkpt lat="42.190547" lon="2.196836">
        <ele>670.396</ele>
        <time>2017-11-28T10:51:37Z</time>
      </trkpt>
      <trkpt lat="42.190527" lon="2.196769">
        <ele>670.130</ele>
        <time>2017-11-28T10:51:41Z</time>
      </trkpt>
      <trkpt lat="42.190506" lon="2.196703">
        <ele>670.746</ele>
        <time>2017-11-28T10:51:45Z</time>
      </trkpt>
      <trkpt lat="42.190478" lon="2.196639">
        <ele>671.075</ele>
        <time>2017-11-28T10:51:50Z</time>
      </trkpt>
      <trkpt lat="42.190457" lon="2.196577">
        <ele>671.151</ele>
        <time>2017-11-28T10:51:54Z</time>
      </trkpt>
      <trkpt lat="42.190432" lon="2.196524">
        <ele>670.958</ele>
        <time>2017-11-28T10:51:59Z</time>
      </trkpt>
      <trkpt lat="42.190388" lon="2.196510">
        <ele>670.947</ele>
        <time>2017-11-28T10:52:02Z</time>
      </trkpt>
      <trkpt lat="42.190343" lon="2.196507">
        <ele>671.129</ele>
        <time>2017-11-28T10:52:05Z</time>
      </trkpt>
      <trkpt lat="42.190301" lon="2.196468">
        <ele>671.321</ele>
        <time>2017-11-28T10:52:12Z</time>
      </trkpt>
      <trkpt lat="42.190282" lon="2.196411">
        <ele>670.808</ele>
        <time>2017-11-28T10:52:16Z</time>
      </trkpt>
      <trkpt lat="42.190273" lon="2.196351">
        <ele>670.566</ele>
        <time>2017-11-28T10:52:20Z</time>
      </trkpt>
      <trkpt lat="42.190257" lon="2.196280">
        <ele>670.545</ele>
        <time>2017-11-28T10:52:25Z</time>
      </trkpt>
      <trkpt lat="42.190242" lon="2.196223">
        <ele>670.996</ele>
        <time>2017-11-28T10:52:30Z</time>
      </trkpt>
      <trkpt lat="42.190224" lon="2.196154">
        <ele>671.140</ele>
        <time>2017-11-28T10:52:35Z</time>
      </trkpt>
      <trkpt lat="42.190211" lon="2.196087">
        <ele>671.476</ele>
        <time>2017-11-28T10:52:39Z</time>
      </trkpt>
      <trkpt lat="42.190198" lon="2.196017">
        <ele>671.775</ele>
        <time>2017-11-28T10:52:44Z</time>
      </trkpt>
      <trkpt lat="42.190176" lon="2.195946">
        <ele>672.431</ele>
        <time>2017-11-28T10:52:48Z</time>
      </trkpt>
      <trkpt lat="42.190126" lon="2.195917">
        <ele>672.428</ele>
        <time>2017-11-28T10:52:54Z</time>
      </trkpt>
      <trkpt lat="42.190072" lon="2.195931">
        <ele>672.565</ele>
        <time>2017-11-28T10:52:58Z</time>
      </trkpt>
      <trkpt lat="42.190022" lon="2.195943">
        <ele>672.168</ele>
        <time>2017-11-28T10:53:02Z</time>
      </trkpt>
      <trkpt lat="42.189968" lon="2.195951">
        <ele>672.214</ele>
        <time>2017-11-28T10:53:06Z</time>
      </trkpt>
      <trkpt lat="42.189914" lon="2.195958">
        <ele>672.108</ele>
        <time>2017-11-28T10:53:10Z</time>
      </trkpt>
      <trkpt lat="42.189862" lon="2.195962">
        <ele>672.918</ele>
        <time>2017-11-28T10:53:14Z</time>
      </trkpt>
      <trkpt lat="42.189817" lon="2.195981">
        <ele>673.597</ele>
        <time>2017-11-28T10:53:18Z</time>
      </trkpt>
      <trkpt lat="42.189764" lon="2.195984">
        <ele>674.558</ele>
        <time>2017-11-28T10:53:22Z</time>
      </trkpt>
      <trkpt lat="42.189717" lon="2.196000">
        <ele>674.682</ele>
        <time>2017-11-28T10:53:26Z</time>
      </trkpt>
      <trkpt lat="42.189671" lon="2.196016">
        <ele>675.918</ele>
        <time>2017-11-28T10:53:30Z</time>
      </trkpt>
      <trkpt lat="42.189622" lon="2.196022">
        <ele>676.197</ele>
        <time>2017-11-28T10:53:34Z</time>
      </trkpt>
      <trkpt lat="42.189570" lon="2.196029">
        <ele>677.283</ele>
        <time>2017-11-28T10:53:38Z</time>
      </trkpt>
      <trkpt lat="42.189521" lon="2.196038">
        <ele>678.070</ele>
        <time>2017-11-28T10:53:42Z</time>
      </trkpt>
      <trkpt lat="42.189472" lon="2.196040">
        <ele>678.145</ele>
        <time>2017-11-28T10:53:46Z</time>
      </trkpt>
      <trkpt lat="42.189418" lon="2.196044">
        <ele>678.147</ele>
        <time>2017-11-28T10:53:50Z</time>
      </trkpt>
      <trkpt lat="42.189366" lon="2.196051">
        <ele>678.611</ele>
        <time>2017-11-28T10:53:54Z</time>
      </trkpt>
      <trkpt lat="42.189311" lon="2.196056">
        <ele>678.408</ele>
        <time>2017-11-28T10:53:58Z</time>
      </trkpt>
      <trkpt lat="42.189254" lon="2.196061">
        <ele>678.416</ele>
        <time>2017-11-28T10:54:02Z</time>
      </trkpt>
      <trkpt lat="42.189199" lon="2.196067">
        <ele>678.525</ele>
        <time>2017-11-28T10:54:06Z</time>
      </trkpt>
      <trkpt lat="42.189146" lon="2.196075">
        <ele>678.926</ele>
        <time>2017-11-28T10:54:10Z</time>
      </trkpt>
      <trkpt lat="42.189097" lon="2.196093">
        <ele>678.550</ele>
        <time>2017-11-28T10:54:14Z</time>
      </trkpt>
      <trkpt lat="42.189050" lon="2.196112">
        <ele>678.976</ele>
        <time>2017-11-28T10:54:18Z</time>
      </trkpt>
      <trkpt lat="42.188995" lon="2.196130">
        <ele>678.595</ele>
        <time>2017-11-28T10:54:23Z</time>
      </trkpt>
      <trkpt lat="42.188948" lon="2.196151">
        <ele>678.561</ele>
        <time>2017-11-28T10:54:27Z</time>
      </trkpt>
      <trkpt lat="42.188903" lon="2.196172">
        <ele>678.068</ele>
        <time>2017-11-28T10:54:31Z</time>
      </trkpt>
      <trkpt lat="42.188854" lon="2.196185">
        <ele>677.688</ele>
        <time>2017-11-28T10:54:35Z</time>
      </trkpt>
      <trkpt lat="42.188807" lon="2.196196">
        <ele>677.224</ele>
        <time>2017-11-28T10:54:39Z</time>
      </trkpt>
      <trkpt lat="42.188763" lon="2.196216">
        <ele>676.626</ele>
        <time>2017-11-28T10:54:43Z</time>
      </trkpt>
      <trkpt lat="42.188710" lon="2.196240">
        <ele>675.208</ele>
        <time>2017-11-28T10:54:48Z</time>
      </trkpt>
      <trkpt lat="42.188665" lon="2.196260">
        <ele>674.940</ele>
        <time>2017-11-28T10:54:52Z</time>
      </trkpt>
      <trkpt lat="42.188621" lon="2.196288">
        <ele>674.689</ele>
        <time>2017-11-28T10:54:56Z</time>
      </trkpt>
      <trkpt lat="42.188570" lon="2.196300">
        <ele>675.110</ele>
        <time>2017-11-28T10:55:00Z</time>
      </trkpt>
      <trkpt lat="42.188522" lon="2.196314">
        <ele>674.664</ele>
        <time>2017-11-28T10:55:04Z</time>
      </trkpt>
      <trkpt lat="42.188474" lon="2.196329">
        <ele>674.540</ele>
        <time>2017-11-28T10:55:08Z</time>
      </trkpt>
      <trkpt lat="42.188420" lon="2.196335">
        <ele>675.249</ele>
        <time>2017-11-28T10:55:12Z</time>
      </trkpt>
      <trkpt lat="42.188371" lon="2.196342">
        <ele>675.465</ele>
        <time>2017-11-28T10:55:16Z</time>
      </trkpt>
      <trkpt lat="42.188322" lon="2.196368">
        <ele>675.642</ele>
        <time>2017-11-28T10:55:20Z</time>
      </trkpt>
      <trkpt lat="42.188277" lon="2.196390">
        <ele>675.739</ele>
        <time>2017-11-28T10:55:24Z</time>
      </trkpt>
      <trkpt lat="42.188225" lon="2.196414">
        <ele>676.101</ele>
        <time>2017-11-28T10:55:28Z</time>
      </trkpt>
      <trkpt lat="42.188175" lon="2.196438">
        <ele>677.121</ele>
        <time>2017-11-28T10:55:32Z</time>
      </trkpt>
      <trkpt lat="42.188129" lon="2.196471">
        <ele>676.808</ele>
        <time>2017-11-28T10:55:36Z</time>
      </trkpt>
      <trkpt lat="42.188086" lon="2.196507">
        <ele>676.325</ele>
        <time>2017-11-28T10:55:40Z</time>
      </trkpt>
      <trkpt lat="42.188041" lon="2.196545">
        <ele>675.364</ele>
        <time>2017-11-28T10:55:44Z</time>
      </trkpt>
      <trkpt lat="42.187994" lon="2.196575">
        <ele>676.115</ele>
        <time>2017-11-28T10:55:48Z</time>
      </trkpt>
      <trkpt lat="42.187947" lon="2.196601">
        <ele>676.759</ele>
        <time>2017-11-28T10:55:52Z</time>
      </trkpt>
      <trkpt lat="42.187903" lon="2.196630">
        <ele>675.885</ele>
        <time>2017-11-28T10:55:56Z</time>
      </trkpt>
      <trkpt lat="42.187857" lon="2.196663">
        <ele>675.744</ele>
        <time>2017-11-28T10:56:00Z</time>
      </trkpt>
      <trkpt lat="42.187815" lon="2.196701">
        <ele>675.560</ele>
        <time>2017-11-28T10:56:04Z</time>
      </trkpt>
      <trkpt lat="42.187775" lon="2.196743">
        <ele>675.367</ele>
        <time>2017-11-28T10:56:08Z</time>
      </trkpt>
      <trkpt lat="42.187734" lon="2.196782">
        <ele>674.759</ele>
        <time>2017-11-28T10:56:12Z</time>
      </trkpt>
      <trkpt lat="42.187693" lon="2.196820">
        <ele>674.403</ele>
        <time>2017-11-28T10:56:16Z</time>
      </trkpt>
      <trkpt lat="42.187644" lon="2.196846">
        <ele>675.123</ele>
        <time>2017-11-28T10:56:20Z</time>
      </trkpt>
      <trkpt lat="42.187595" lon="2.196866">
        <ele>674.708</ele>
        <time>2017-11-28T10:56:24Z</time>
      </trkpt>
      <trkpt lat="42.187547" lon="2.196889">
        <ele>674.417</ele>
        <time>2017-11-28T10:56:28Z</time>
      </trkpt>
      <trkpt lat="42.187501" lon="2.196918">
        <ele>674.676</ele>
        <time>2017-11-28T10:56:32Z</time>
      </trkpt>
      <trkpt lat="42.187456" lon="2.196953">
        <ele>675.187</ele>
        <time>2017-11-28T10:56:36Z</time>
      </trkpt>
      <trkpt lat="42.187420" lon="2.196992">
        <ele>674.651</ele>
        <time>2017-11-28T10:56:40Z</time>
      </trkpt>
      <trkpt lat="42.187374" lon="2.197021">
        <ele>674.987</ele>
        <time>2017-11-28T10:56:44Z</time>
      </trkpt>
      <trkpt lat="42.187332" lon="2.197054">
        <ele>674.686</ele>
        <time>2017-11-28T10:56:48Z</time>
      </trkpt>
      <trkpt lat="42.187289" lon="2.197089">
        <ele>674.852</ele>
        <time>2017-11-28T10:56:52Z</time>
      </trkpt>
      <trkpt lat="42.187243" lon="2.197121">
        <ele>674.559</ele>
        <time>2017-11-28T10:56:56Z</time>
      </trkpt>
      <trkpt lat="42.187196" lon="2.197151">
        <ele>674.126</ele>
        <time>2017-11-28T10:57:00Z</time>
      </trkpt>
      <trkpt lat="42.187154" lon="2.197179">
        <ele>674.147</ele>
        <time>2017-11-28T10:57:04Z</time>
      </trkpt>
      <trkpt lat="42.187102" lon="2.197195">
        <ele>674.311</ele>
        <time>2017-11-28T10:57:09Z</time>
      </trkpt>
      <trkpt lat="42.187055" lon="2.197206">
        <ele>674.308</ele>
        <time>2017-11-28T10:57:13Z</time>
      </trkpt>
      <trkpt lat="42.187010" lon="2.197224">
        <ele>674.944</ele>
        <time>2017-11-28T10:57:17Z</time>
      </trkpt>
      <trkpt lat="42.186961" lon="2.197231">
        <ele>674.913</ele>
        <time>2017-11-28T10:57:21Z</time>
      </trkpt>
      <trkpt lat="42.186913" lon="2.197238">
        <ele>675.554</ele>
        <time>2017-11-28T10:57:25Z</time>
      </trkpt>
      <trkpt lat="42.186868" lon="2.197219">
        <ele>675.548</ele>
        <time>2017-11-28T10:57:29Z</time>
      </trkpt>
      <trkpt lat="42.186820" lon="2.197188">
        <ele>674.684</ele>
        <time>2017-11-28T10:57:34Z</time>
      </trkpt>
      <trkpt lat="42.186795" lon="2.197130">
        <ele>674.063</ele>
        <time>2017-11-28T10:57:40Z</time>
      </trkpt>
      <trkpt lat="42.186797" lon="2.197059">
        <ele>673.949</ele>
        <time>2017-11-28T10:57:46Z</time>
      </trkpt>
      <trkpt lat="42.186798" lon="2.196998">
        <ele>673.676</ele>
        <time>2017-11-28T10:57:50Z</time>
      </trkpt>
      <trkpt lat="42.186802" lon="2.196926">
        <ele>673.567</ele>
        <time>2017-11-28T10:57:54Z</time>
      </trkpt>
      <trkpt lat="42.186807" lon="2.196864">
        <ele>673.381</ele>
        <time>2017-11-28T10:57:58Z</time>
      </trkpt>
      <trkpt lat="42.186807" lon="2.196802">
        <ele>673.519</ele>
        <time>2017-11-28T10:58:02Z</time>
      </trkpt>
      <trkpt lat="42.186776" lon="2.196754">
        <ele>673.508</ele>
        <time>2017-11-28T10:58:06Z</time>
      </trkpt>
      <trkpt lat="42.186721" lon="2.196740">
        <ele>673.048</ele>
        <time>2017-11-28T10:58:10Z</time>
      </trkpt>
      <trkpt lat="42.186662" lon="2.196733">
        <ele>673.267</ele>
        <time>2017-11-28T10:58:14Z</time>
      </trkpt>
      <trkpt lat="42.186607" lon="2.196736">
        <ele>673.488</ele>
        <time>2017-11-28T10:58:18Z</time>
      </trkpt>
      <trkpt lat="42.186551" lon="2.196739">
        <ele>674.032</ele>
        <time>2017-11-28T10:58:22Z</time>
      </trkpt>
      <trkpt lat="42.186501" lon="2.196734">
        <ele>673.968</ele>
        <time>2017-11-28T10:58:26Z</time>
      </trkpt>
      <trkpt lat="42.186448" lon="2.196725">
        <ele>674.217</ele>
        <time>2017-11-28T10:58:30Z</time>
      </trkpt>
      <trkpt lat="42.186394" lon="2.196713">
        <ele>674.243</ele>
        <time>2017-11-28T10:58:34Z</time>
      </trkpt>
      <trkpt lat="42.186349" lon="2.196697">
        <ele>673.990</ele>
        <time>2017-11-28T10:58:38Z</time>
      </trkpt>
      <trkpt lat="42.186305" lon="2.196680">
        <ele>673.846</ele>
        <time>2017-11-28T10:58:42Z</time>
      </trkpt>
      <trkpt lat="42.186253" lon="2.196662">
        <ele>673.388</ele>
        <time>2017-11-28T10:58:48Z</time>
      </trkpt>
      <trkpt lat="42.186208" lon="2.196662">
        <ele>672.416</ele>
        <time>2017-11-28T10:59:10Z</time>
      </trkpt>
      <trkpt lat="42.186156" lon="2.196657">
        <ele>673.408</ele>
        <time>2017-11-28T10:59:14Z</time>
      </trkpt>
      <trkpt lat="42.186099" lon="2.196648">
        <ele>673.496</ele>
        <time>2017-11-28T10:59:18Z</time>
      </trkpt>
      <trkpt lat="42.186043" lon="2.196624">
        <ele>673.775</ele>
        <time>2017-11-28T10:59:22Z</time>
      </trkpt>
      <trkpt lat="42.185990" lon="2.196602">
        <ele>674.586</ele>
        <time>2017-11-28T10:59:26Z</time>
      </trkpt>
      <trkpt lat="42.185935" lon="2.196565">
        <ele>675.680</ele>
        <time>2017-11-28T10:59:30Z</time>
      </trkpt>
      <trkpt lat="42.185886" lon="2.196540">
        <ele>674.526</ele>
        <time>2017-11-28T10:59:34Z</time>
      </trkpt>
      <trkpt lat="42.185842" lon="2.196527">
        <ele>674.965</ele>
        <time>2017-11-28T10:59:38Z</time>
      </trkpt>
      <trkpt lat="42.185790" lon="2.196505">
        <ele>674.991</ele>
        <time>2017-11-28T10:59:42Z</time>
      </trkpt>
      <trkpt lat="42.185738" lon="2.196480">
        <ele>675.228</ele>
        <time>2017-11-28T10:59:46Z</time>
      </trkpt>
      <trkpt lat="42.185683" lon="2.196461">
        <ele>674.789</ele>
        <time>2017-11-28T10:59:51Z</time>
      </trkpt>
      <trkpt lat="42.185636" lon="2.196443">
        <ele>674.906</ele>
        <time>2017-11-28T10:59:55Z</time>
      </trkpt>
      <trkpt lat="42.185590" lon="2.196431">
        <ele>673.726</ele>
        <time>2017-11-28T10:59:59Z</time>
      </trkpt>
      <trkpt lat="42.185541" lon="2.196415">
        <ele>674.308</ele>
        <time>2017-11-28T11:00:03Z</time>
      </trkpt>
      <trkpt lat="42.185492" lon="2.196396">
        <ele>674.730</ele>
        <time>2017-11-28T11:00:07Z</time>
      </trkpt>
      <trkpt lat="42.185446" lon="2.196383">
        <ele>674.819</ele>
        <time>2017-11-28T11:00:11Z</time>
      </trkpt>
      <trkpt lat="42.185394" lon="2.196368">
        <ele>674.510</ele>
        <time>2017-11-28T11:00:16Z</time>
      </trkpt>
      <trkpt lat="42.185338" lon="2.196359">
        <ele>674.464</ele>
        <time>2017-11-28T11:00:21Z</time>
      </trkpt>
      <trkpt lat="42.185292" lon="2.196357">
        <ele>674.970</ele>
        <time>2017-11-28T11:00:25Z</time>
      </trkpt>
      <trkpt lat="42.185247" lon="2.196348">
        <ele>674.349</ele>
        <time>2017-11-28T11:00:29Z</time>
      </trkpt>
      <trkpt lat="42.185192" lon="2.196328">
        <ele>673.855</ele>
        <time>2017-11-28T11:00:34Z</time>
      </trkpt>
      <trkpt lat="42.185142" lon="2.196303">
        <ele>674.112</ele>
        <time>2017-11-28T11:00:38Z</time>
      </trkpt>
      <trkpt lat="42.185097" lon="2.196291">
        <ele>673.585</ele>
        <time>2017-11-28T11:00:42Z</time>
      </trkpt>
      <trkpt lat="42.185047" lon="2.196278">
        <ele>673.689</ele>
        <time>2017-11-28T11:00:46Z</time>
      </trkpt>
      <trkpt lat="42.184997" lon="2.196256">
        <ele>673.717</ele>
        <time>2017-11-28T11:00:50Z</time>
      </trkpt>
      <trkpt lat="42.184949" lon="2.196240">
        <ele>673.808</ele>
        <time>2017-11-28T11:00:54Z</time>
      </trkpt>
      <trkpt lat="42.184903" lon="2.196237">
        <ele>673.570</ele>
        <time>2017-11-28T11:00:58Z</time>
      </trkpt>
      <trkpt lat="42.184857" lon="2.196233">
        <ele>674.019</ele>
        <time>2017-11-28T11:01:02Z</time>
      </trkpt>
      <trkpt lat="42.184808" lon="2.196225">
        <ele>673.670</ele>
        <time>2017-11-28T11:01:06Z</time>
      </trkpt>
      <trkpt lat="42.184759" lon="2.196207">
        <ele>673.274</ele>
        <time>2017-11-28T11:01:10Z</time>
      </trkpt>
      <trkpt lat="42.184709" lon="2.196185">
        <ele>673.120</ele>
        <time>2017-11-28T11:01:14Z</time>
      </trkpt>
      <trkpt lat="42.184658" lon="2.196161">
        <ele>673.299</ele>
        <time>2017-11-28T11:01:18Z</time>
      </trkpt>
      <trkpt lat="42.184614" lon="2.196143">
        <ele>672.955</ele>
        <time>2017-11-28T11:01:22Z</time>
      </trkpt>
      <trkpt lat="42.184568" lon="2.196126">
        <ele>673.552</ele>
        <time>2017-11-28T11:01:26Z</time>
      </trkpt>
      <trkpt lat="42.184518" lon="2.196111">
        <ele>673.391</ele>
        <time>2017-11-28T11:01:30Z</time>
      </trkpt>
      <trkpt lat="42.184465" lon="2.196094">
        <ele>673.781</ele>
        <time>2017-11-28T11:01:34Z</time>
      </trkpt>
      <trkpt lat="42.184413" lon="2.196079">
        <ele>674.219</ele>
        <time>2017-11-28T11:01:38Z</time>
      </trkpt>
      <trkpt lat="42.184366" lon="2.196069">
        <ele>673.808</ele>
        <time>2017-11-28T11:01:42Z</time>
      </trkpt>
      <trkpt lat="42.184316" lon="2.196056">
        <ele>673.721</ele>
        <time>2017-11-28T11:01:46Z</time>
      </trkpt>
      <trkpt lat="42.184266" lon="2.196034">
        <ele>673.940</ele>
        <time>2017-11-28T11:01:50Z</time>
      </trkpt>
      <trkpt lat="42.184220" lon="2.196010">
        <ele>674.061</ele>
        <time>2017-11-28T11:01:54Z</time>
      </trkpt>
      <trkpt lat="42.184172" lon="2.195976">
        <ele>673.615</ele>
        <time>2017-11-28T11:01:58Z</time>
      </trkpt>
      <trkpt lat="42.184124" lon="2.195958">
        <ele>672.941</ele>
        <time>2017-11-28T11:02:02Z</time>
      </trkpt>
      <trkpt lat="42.184077" lon="2.195939">
        <ele>672.820</ele>
        <time>2017-11-28T11:02:06Z</time>
      </trkpt>
      <trkpt lat="42.184023" lon="2.195939">
        <ele>673.056</ele>
        <time>2017-11-28T11:02:10Z</time>
      </trkpt>
      <trkpt lat="42.183971" lon="2.195958">
        <ele>673.393</ele>
        <time>2017-11-28T11:02:14Z</time>
      </trkpt>
      <trkpt lat="42.183921" lon="2.195992">
        <ele>673.022</ele>
        <time>2017-11-28T11:02:18Z</time>
      </trkpt>
      <trkpt lat="42.183873" lon="2.196010">
        <ele>672.662</ele>
        <time>2017-11-28T11:02:22Z</time>
      </trkpt>
      <trkpt lat="42.183822" lon="2.196005">
        <ele>672.308</ele>
        <time>2017-11-28T11:02:26Z</time>
      </trkpt>
      <trkpt lat="42.183776" lon="2.195989">
        <ele>672.308</ele>
        <time>2017-11-28T11:02:30Z</time>
      </trkpt>
      <trkpt lat="42.183724" lon="2.195961">
        <ele>671.794</ele>
        <time>2017-11-28T11:02:35Z</time>
      </trkpt>
      <trkpt lat="42.183671" lon="2.195944">
        <ele>672.623</ele>
        <time>2017-11-28T11:02:40Z</time>
      </trkpt>
      <trkpt lat="42.183626" lon="2.195940">
        <ele>672.644</ele>
        <time>2017-11-28T11:02:44Z</time>
      </trkpt>
      <trkpt lat="42.183581" lon="2.195921">
        <ele>672.128</ele>
        <time>2017-11-28T11:02:48Z</time>
      </trkpt>
      <trkpt lat="42.183528" lon="2.195908">
        <ele>672.024</ele>
        <time>2017-11-28T11:02:53Z</time>
      </trkpt>
      <trkpt lat="42.183477" lon="2.195884">
        <ele>672.673</ele>
        <time>2017-11-28T11:02:57Z</time>
      </trkpt>
      <trkpt lat="42.183424" lon="2.195860">
        <ele>672.029</ele>
        <time>2017-11-28T11:03:01Z</time>
      </trkpt>
      <trkpt lat="42.183376" lon="2.195836">
        <ele>671.916</ele>
        <time>2017-11-28T11:03:05Z</time>
      </trkpt>
      <trkpt lat="42.183330" lon="2.195824">
        <ele>671.249</ele>
        <time>2017-11-28T11:03:09Z</time>
      </trkpt>
      <trkpt lat="42.183280" lon="2.195805">
        <ele>671.402</ele>
        <time>2017-11-28T11:03:13Z</time>
      </trkpt>
      <trkpt lat="42.183234" lon="2.195797">
        <ele>671.022</ele>
        <time>2017-11-28T11:03:17Z</time>
      </trkpt>
      <trkpt lat="42.183187" lon="2.195782">
        <ele>671.308</ele>
        <time>2017-11-28T11:03:21Z</time>
      </trkpt>
      <trkpt lat="42.183137" lon="2.195750">
        <ele>672.256</ele>
        <time>2017-11-28T11:03:25Z</time>
      </trkpt>
      <trkpt lat="42.183088" lon="2.195729">
        <ele>672.445</ele>
        <time>2017-11-28T11:03:29Z</time>
      </trkpt>
      <trkpt lat="42.183041" lon="2.195706">
        <ele>672.296</ele>
        <time>2017-11-28T11:03:33Z</time>
      </trkpt>
      <trkpt lat="42.182986" lon="2.195701">
        <ele>671.020</ele>
        <time>2017-11-28T11:03:38Z</time>
      </trkpt>
      <trkpt lat="42.182935" lon="2.195681">
        <ele>670.846</ele>
        <time>2017-11-28T11:03:42Z</time>
      </trkpt>
      <trkpt lat="42.182888" lon="2.195677">
        <ele>670.955</ele>
        <time>2017-11-28T11:03:46Z</time>
      </trkpt>
      <trkpt lat="42.182840" lon="2.195671">
        <ele>671.031</ele>
        <time>2017-11-28T11:03:50Z</time>
      </trkpt>
      <trkpt lat="42.182792" lon="2.195665">
        <ele>671.348</ele>
        <time>2017-11-28T11:03:54Z</time>
      </trkpt>
      <trkpt lat="42.182742" lon="2.195650">
        <ele>671.112</ele>
        <time>2017-11-28T11:03:58Z</time>
      </trkpt>
      <trkpt lat="42.182696" lon="2.195647">
        <ele>671.032</ele>
        <time>2017-11-28T11:04:02Z</time>
      </trkpt>
      <trkpt lat="42.182647" lon="2.195627">
        <ele>671.005</ele>
        <time>2017-11-28T11:04:06Z</time>
      </trkpt>
      <trkpt lat="42.182594" lon="2.195604">
        <ele>669.708</ele>
        <time>2017-11-28T11:04:11Z</time>
      </trkpt>
      <trkpt lat="42.182548" lon="2.195579">
        <ele>669.523</ele>
        <time>2017-11-28T11:04:15Z</time>
      </trkpt>
      <trkpt lat="42.182497" lon="2.195548">
        <ele>669.432</ele>
        <time>2017-11-28T11:04:20Z</time>
      </trkpt>
      <trkpt lat="42.182450" lon="2.195523">
        <ele>669.053</ele>
        <time>2017-11-28T11:04:24Z</time>
      </trkpt>
      <trkpt lat="42.182400" lon="2.195500">
        <ele>668.747</ele>
        <time>2017-11-28T11:04:28Z</time>
      </trkpt>
      <trkpt lat="42.182351" lon="2.195471">
        <ele>668.893</ele>
        <time>2017-11-28T11:04:32Z</time>
      </trkpt>
      <trkpt lat="42.182306" lon="2.195447">
        <ele>669.082</ele>
        <time>2017-11-28T11:04:36Z</time>
      </trkpt>
      <trkpt lat="42.182261" lon="2.195422">
        <ele>669.198</ele>
        <time>2017-11-28T11:04:40Z</time>
      </trkpt>
      <trkpt lat="42.182217" lon="2.195396">
        <ele>668.875</ele>
        <time>2017-11-28T11:04:44Z</time>
      </trkpt>
      <trkpt lat="42.182172" lon="2.195363">
        <ele>669.211</ele>
        <time>2017-11-28T11:04:48Z</time>
      </trkpt>
      <trkpt lat="42.182126" lon="2.195338">
        <ele>669.521</ele>
        <time>2017-11-28T11:04:52Z</time>
      </trkpt>
      <trkpt lat="42.182082" lon="2.195316">
        <ele>668.703</ele>
        <time>2017-11-28T11:04:56Z</time>
      </trkpt>
      <trkpt lat="42.182040" lon="2.195289">
        <ele>668.508</ele>
        <time>2017-11-28T11:05:00Z</time>
      </trkpt>
      <trkpt lat="42.182000" lon="2.195250">
        <ele>668.383</ele>
        <time>2017-11-28T11:05:04Z</time>
      </trkpt>
      <trkpt lat="42.181958" lon="2.195215">
        <ele>668.122</ele>
        <time>2017-11-28T11:05:08Z</time>
      </trkpt>
      <trkpt lat="42.181912" lon="2.195183">
        <ele>668.213</ele>
        <time>2017-11-28T11:05:12Z</time>
      </trkpt>
      <trkpt lat="42.181862" lon="2.195169">
        <ele>668.597</ele>
        <time>2017-11-28T11:05:16Z</time>
      </trkpt>
      <trkpt lat="42.181813" lon="2.195157">
        <ele>668.853</ele>
        <time>2017-11-28T11:05:20Z</time>
      </trkpt>
      <trkpt lat="42.181763" lon="2.195154">
        <ele>668.652</ele>
        <time>2017-11-28T11:05:24Z</time>
      </trkpt>
      <trkpt lat="42.181714" lon="2.195137">
        <ele>668.738</ele>
        <time>2017-11-28T11:05:28Z</time>
      </trkpt>
      <trkpt lat="42.181663" lon="2.195120">
        <ele>669.315</ele>
        <time>2017-11-28T11:05:32Z</time>
      </trkpt>
      <trkpt lat="42.181613" lon="2.195100">
        <ele>669.375</ele>
        <time>2017-11-28T11:05:36Z</time>
      </trkpt>
      <trkpt lat="42.181561" lon="2.195081">
        <ele>669.428</ele>
        <time>2017-11-28T11:05:40Z</time>
      </trkpt>
      <trkpt lat="42.181511" lon="2.195062">
        <ele>669.020</ele>
        <time>2017-11-28T11:05:44Z</time>
      </trkpt>
      <trkpt lat="42.181461" lon="2.195053">
        <ele>668.808</ele>
        <time>2017-11-28T11:05:48Z</time>
      </trkpt>
      <trkpt lat="42.181414" lon="2.195046">
        <ele>668.839</ele>
        <time>2017-11-28T11:05:52Z</time>
      </trkpt>
      <trkpt lat="42.181369" lon="2.195038">
        <ele>668.588</ele>
        <time>2017-11-28T11:05:56Z</time>
      </trkpt>
      <trkpt lat="42.181319" lon="2.195020">
        <ele>667.959</ele>
        <time>2017-11-28T11:06:00Z</time>
      </trkpt>
      <trkpt lat="42.181268" lon="2.195007">
        <ele>668.113</ele>
        <time>2017-11-28T11:06:04Z</time>
      </trkpt>
      <trkpt lat="42.181218" lon="2.194994">
        <ele>668.439</ele>
        <time>2017-11-28T11:06:08Z</time>
      </trkpt>
      <trkpt lat="42.181170" lon="2.194981">
        <ele>668.048</ele>
        <time>2017-11-28T11:06:12Z</time>
      </trkpt>
      <trkpt lat="42.181121" lon="2.194965">
        <ele>668.834</ele>
        <time>2017-11-28T11:06:16Z</time>
      </trkpt>
      <trkpt lat="42.181071" lon="2.194943">
        <ele>668.311</ele>
        <time>2017-11-28T11:06:20Z</time>
      </trkpt>
      <trkpt lat="42.181023" lon="2.194917">
        <ele>668.469</ele>
        <time>2017-11-28T11:06:24Z</time>
      </trkpt>
      <trkpt lat="42.180974" lon="2.194902">
        <ele>668.704</ele>
        <time>2017-11-28T11:06:28Z</time>
      </trkpt>
      <trkpt lat="42.180928" lon="2.194898">
        <ele>668.324</ele>
        <time>2017-11-28T11:06:32Z</time>
      </trkpt>
      <trkpt lat="42.180879" lon="2.194907">
        <ele>667.108</ele>
        <time>2017-11-28T11:06:37Z</time>
      </trkpt>
      <trkpt lat="42.180825" lon="2.194905">
        <ele>666.648</ele>
        <time>2017-11-28T11:06:42Z</time>
      </trkpt>
      <trkpt lat="42.180780" lon="2.194896">
        <ele>666.497</ele>
        <time>2017-11-28T11:06:46Z</time>
      </trkpt>
      <trkpt lat="42.180731" lon="2.194887">
        <ele>666.618</ele>
        <time>2017-11-28T11:06:50Z</time>
      </trkpt>
      <trkpt lat="42.180677" lon="2.194871">
        <ele>666.352</ele>
        <time>2017-11-28T11:06:54Z</time>
      </trkpt>
      <trkpt lat="42.180626" lon="2.194857">
        <ele>666.238</ele>
        <time>2017-11-28T11:06:58Z</time>
      </trkpt>
      <trkpt lat="42.180575" lon="2.194851">
        <ele>665.727</ele>
        <time>2017-11-28T11:07:02Z</time>
      </trkpt>
      <trkpt lat="42.180521" lon="2.194838">
        <ele>665.923</ele>
        <time>2017-11-28T11:07:06Z</time>
      </trkpt>
      <trkpt lat="42.180472" lon="2.194838">
        <ele>665.180</ele>
        <time>2017-11-28T11:07:10Z</time>
      </trkpt>
      <trkpt lat="42.180420" lon="2.194820">
        <ele>665.331</ele>
        <time>2017-11-28T11:07:14Z</time>
      </trkpt>
      <trkpt lat="42.180371" lon="2.194808">
        <ele>665.061</ele>
        <time>2017-11-28T11:07:18Z</time>
      </trkpt>
      <trkpt lat="42.180324" lon="2.194795">
        <ele>664.507</ele>
        <time>2017-11-28T11:07:22Z</time>
      </trkpt>
      <trkpt lat="42.180274" lon="2.194790">
        <ele>664.708</ele>
        <time>2017-11-28T11:07:26Z</time>
      </trkpt>
      <trkpt lat="42.180222" lon="2.194780">
        <ele>665.085</ele>
        <time>2017-11-28T11:07:30Z</time>
      </trkpt>
      <trkpt lat="42.180170" lon="2.194770">
        <ele>665.094</ele>
        <time>2017-11-28T11:07:34Z</time>
      </trkpt>
      <trkpt lat="42.180119" lon="2.194755">
        <ele>665.425</ele>
        <time>2017-11-28T11:07:38Z</time>
      </trkpt>
      <trkpt lat="42.180068" lon="2.194742">
        <ele>665.549</ele>
        <time>2017-11-28T11:07:42Z</time>
      </trkpt>
      <trkpt lat="42.180016" lon="2.194728">
        <ele>665.575</ele>
        <time>2017-11-28T11:07:46Z</time>
      </trkpt>
      <trkpt lat="42.179969" lon="2.194717">
        <ele>665.764</ele>
        <time>2017-11-28T11:07:50Z</time>
      </trkpt>
      <trkpt lat="42.179920" lon="2.194706">
        <ele>666.280</ele>
        <time>2017-11-28T11:07:54Z</time>
      </trkpt>
      <trkpt lat="42.179869" lon="2.194689">
        <ele>666.427</ele>
        <time>2017-11-28T11:07:58Z</time>
      </trkpt>
      <trkpt lat="42.179817" lon="2.194676">
        <ele>666.796</ele>
        <time>2017-11-28T11:08:02Z</time>
      </trkpt>
      <trkpt lat="42.179766" lon="2.194665">
        <ele>667.531</ele>
        <time>2017-11-28T11:08:06Z</time>
      </trkpt>
      <trkpt lat="42.179711" lon="2.194656">
        <ele>667.324</ele>
        <time>2017-11-28T11:08:10Z</time>
      </trkpt>
      <trkpt lat="42.179658" lon="2.194646">
        <ele>667.108</ele>
        <time>2017-11-28T11:08:14Z</time>
      </trkpt>
      <trkpt lat="42.179605" lon="2.194636">
        <ele>666.631</ele>
        <time>2017-11-28T11:08:18Z</time>
      </trkpt>
      <trkpt lat="42.179554" lon="2.194626">
        <ele>666.410</ele>
        <time>2017-11-28T11:08:22Z</time>
      </trkpt>
      <trkpt lat="42.179508" lon="2.194631">
        <ele>665.351</ele>
        <time>2017-11-28T11:08:26Z</time>
      </trkpt>
      <trkpt lat="42.179461" lon="2.194627">
        <ele>664.935</ele>
        <time>2017-11-28T11:08:30Z</time>
      </trkpt>
      <trkpt lat="42.179412" lon="2.194610">
        <ele>664.531</ele>
        <time>2017-11-28T11:08:34Z</time>
      </trkpt>
      <trkpt lat="42.179360" lon="2.194594">
        <ele>665.230</ele>
        <time>2017-11-28T11:08:38Z</time>
      </trkpt>
      <trkpt lat="42.179308" lon="2.194580">
        <ele>665.026</ele>
        <time>2017-11-28T11:08:42Z</time>
      </trkpt>
      <trkpt lat="42.179256" lon="2.194563">
        <ele>664.963</ele>
        <time>2017-11-28T11:08:46Z</time>
      </trkpt>
      <trkpt lat="42.179206" lon="2.194555">
        <ele>664.927</ele>
        <time>2017-11-28T11:08:50Z</time>
      </trkpt>
      <trkpt lat="42.179158" lon="2.194541">
        <ele>664.268</ele>
        <time>2017-11-28T11:08:54Z</time>
      </trkpt>
      <trkpt lat="42.179109" lon="2.194537">
        <ele>663.914</ele>
        <time>2017-11-28T11:08:58Z</time>
      </trkpt>
      <trkpt lat="42.179060" lon="2.194530">
        <ele>663.308</ele>
        <time>2017-11-28T11:09:02Z</time>
      </trkpt>
      <trkpt lat="42.179012" lon="2.194523">
        <ele>663.274</ele>
        <time>2017-11-28T11:09:06Z</time>
      </trkpt>
      <trkpt lat="42.178961" lon="2.194518">
        <ele>663.083</ele>
        <time>2017-11-28T11:09:10Z</time>
      </trkpt>
      <trkpt lat="42.178912" lon="2.194517">
        <ele>663.084</ele>
        <time>2017-11-28T11:09:14Z</time>
      </trkpt>
      <trkpt lat="42.178863" lon="2.194506">
        <ele>662.948</ele>
        <time>2017-11-28T11:09:18Z</time>
      </trkpt>
      <trkpt lat="42.178815" lon="2.194496">
        <ele>663.264</ele>
        <time>2017-11-28T11:09:22Z</time>
      </trkpt>
      <trkpt lat="42.178762" lon="2.194480">
        <ele>663.073</ele>
        <time>2017-11-28T11:09:26Z</time>
      </trkpt>
      <trkpt lat="42.178711" lon="2.194461">
        <ele>663.139</ele>
        <time>2017-11-28T11:09:30Z</time>
      </trkpt>
      <trkpt lat="42.178661" lon="2.194445">
        <ele>663.276</ele>
        <time>2017-11-28T11:09:34Z</time>
      </trkpt>
      <trkpt lat="42.178613" lon="2.194429">
        <ele>662.971</ele>
        <time>2017-11-28T11:09:38Z</time>
      </trkpt>
      <trkpt lat="42.178562" lon="2.194409">
        <ele>662.941</ele>
        <time>2017-11-28T11:09:42Z</time>
      </trkpt>
      <trkpt lat="42.178514" lon="2.194393">
        <ele>662.915</ele>
        <time>2017-11-28T11:09:46Z</time>
      </trkpt>
      <trkpt lat="42.178464" lon="2.194373">
        <ele>662.508</ele>
        <time>2017-11-28T11:09:50Z</time>
      </trkpt>
      <trkpt lat="42.178412" lon="2.194365">
        <ele>662.179</ele>
        <time>2017-11-28T11:09:54Z</time>
      </trkpt>
      <trkpt lat="42.178366" lon="2.194350">
        <ele>662.938</ele>
        <time>2017-11-28T11:09:58Z</time>
      </trkpt>
      <trkpt lat="42.178314" lon="2.194329">
        <ele>663.619</ele>
        <time>2017-11-28T11:10:02Z</time>
      </trkpt>
      <trkpt lat="42.178268" lon="2.194326">
        <ele>663.583</ele>
        <time>2017-11-28T11:10:06Z</time>
      </trkpt>
      <trkpt lat="42.178223" lon="2.194336">
        <ele>664.319</ele>
        <time>2017-11-28T11:10:10Z</time>
      </trkpt>
      <trkpt lat="42.178177" lon="2.194331">
        <ele>664.468</ele>
        <time>2017-11-28T11:10:14Z</time>
      </trkpt>
      <trkpt lat="42.178123" lon="2.194316">
        <ele>665.414</ele>
        <time>2017-11-28T11:10:18Z</time>
      </trkpt>
      <trkpt lat="42.178063" lon="2.194316">
        <ele>665.511</ele>
        <time>2017-11-28T11:10:22Z</time>
      </trkpt>
      <trkpt lat="42.178012" lon="2.194320">
        <ele>665.161</ele>
        <time>2017-11-28T11:10:26Z</time>
      </trkpt>
      <trkpt lat="42.177958" lon="2.194331">
        <ele>665.421</ele>
        <time>2017-11-28T11:10:30Z</time>
      </trkpt>
      <trkpt lat="42.177912" lon="2.194332">
        <ele>664.513</ele>
        <time>2017-11-28T11:10:34Z</time>
      </trkpt>
      <trkpt lat="42.177864" lon="2.194319">
        <ele>664.608</ele>
        <time>2017-11-28T11:10:38Z</time>
      </trkpt>
      <trkpt lat="42.177810" lon="2.194301">
        <ele>664.638</ele>
        <time>2017-11-28T11:10:43Z</time>
      </trkpt>
      <trkpt lat="42.177763" lon="2.194296">
        <ele>664.567</ele>
        <time>2017-11-28T11:10:48Z</time>
      </trkpt>
      <trkpt lat="42.177717" lon="2.194287">
        <ele>661.888</ele>
        <time>2017-11-28T11:11:05Z</time>
      </trkpt>
      <trkpt lat="42.177674" lon="2.194270">
        <ele>662.662</ele>
        <time>2017-11-28T11:11:18Z</time>
      </trkpt>
      <trkpt lat="42.177626" lon="2.194259">
        <ele>662.418</ele>
        <time>2017-11-28T11:11:22Z</time>
      </trkpt>
      <trkpt lat="42.177578" lon="2.194257">
        <ele>663.257</ele>
        <time>2017-11-28T11:11:26Z</time>
      </trkpt>
      <trkpt lat="42.177521" lon="2.194251">
        <ele>663.463</ele>
        <time>2017-11-28T11:11:30Z</time>
      </trkpt>
      <trkpt lat="42.177475" lon="2.194242">
        <ele>664.450</ele>
        <time>2017-11-28T11:11:33Z</time>
      </trkpt>
      <trkpt lat="42.177427" lon="2.194235">
        <ele>663.953</ele>
        <time>2017-11-28T11:11:36Z</time>
      </trkpt>
      <trkpt lat="42.177374" lon="2.194248">
        <ele>664.504</ele>
        <time>2017-11-28T11:11:40Z</time>
      </trkpt>
      <trkpt lat="42.177319" lon="2.194236">
        <ele>665.314</ele>
        <time>2017-11-28T11:11:44Z</time>
      </trkpt>
      <trkpt lat="42.177259" lon="2.194244">
        <ele>665.108</ele>
        <time>2017-11-28T11:11:48Z</time>
      </trkpt>
      <trkpt lat="42.177213" lon="2.194242">
        <ele>665.427</ele>
        <time>2017-11-28T11:11:51Z</time>
      </trkpt>
      <trkpt lat="42.177154" lon="2.194239">
        <ele>664.756</ele>
        <time>2017-11-28T11:11:55Z</time>
      </trkpt>
      <trkpt lat="42.177108" lon="2.194239">
        <ele>664.437</ele>
        <time>2017-11-28T11:11:58Z</time>
      </trkpt>
      <trkpt lat="42.177059" lon="2.194226">
        <ele>663.841</ele>
        <time>2017-11-28T11:12:01Z</time>
      </trkpt>
      <trkpt lat="42.177001" lon="2.194214">
        <ele>663.227</ele>
        <time>2017-11-28T11:12:05Z</time>
      </trkpt>
      <trkpt lat="42.176946" lon="2.194190">
        <ele>662.236</ele>
        <time>2017-11-28T11:12:09Z</time>
      </trkpt>
      <trkpt lat="42.176896" lon="2.194158">
        <ele>662.922</ele>
        <time>2017-11-28T11:12:13Z</time>
      </trkpt>
      <trkpt lat="42.176849" lon="2.194132">
        <ele>663.159</ele>
        <time>2017-11-28T11:12:17Z</time>
      </trkpt>
      <trkpt lat="42.176795" lon="2.194111">
        <ele>662.411</ele>
        <time>2017-11-28T11:12:21Z</time>
      </trkpt>
      <trkpt lat="42.176740" lon="2.194105">
        <ele>662.221</ele>
        <time>2017-11-28T11:12:25Z</time>
      </trkpt>
      <trkpt lat="42.176685" lon="2.194094">
        <ele>662.103</ele>
        <time>2017-11-28T11:12:29Z</time>
      </trkpt>
      <trkpt lat="42.176636" lon="2.194069">
        <ele>661.908</ele>
        <time>2017-11-28T11:12:33Z</time>
      </trkpt>
      <trkpt lat="42.176591" lon="2.194048">
        <ele>661.653</ele>
        <time>2017-11-28T11:12:37Z</time>
      </trkpt>
      <trkpt lat="42.176536" lon="2.194029">
        <ele>661.182</ele>
        <time>2017-11-28T11:12:42Z</time>
      </trkpt>
      <trkpt lat="42.176489" lon="2.194001">
        <ele>661.483</ele>
        <time>2017-11-28T11:12:46Z</time>
      </trkpt>
      <trkpt lat="42.176440" lon="2.193972">
        <ele>661.237</ele>
        <time>2017-11-28T11:12:50Z</time>
      </trkpt>
      <trkpt lat="42.176403" lon="2.193931">
        <ele>661.273</ele>
        <time>2017-11-28T11:12:53Z</time>
      </trkpt>
      <trkpt lat="42.176364" lon="2.193895">
        <ele>660.612</ele>
        <time>2017-11-28T11:12:57Z</time>
      </trkpt>
      <trkpt lat="42.176319" lon="2.193858">
        <ele>659.068</ele>
        <time>2017-11-28T11:13:01Z</time>
      </trkpt>
      <trkpt lat="42.176282" lon="2.193806">
        <ele>659.045</ele>
        <time>2017-11-28T11:13:05Z</time>
      </trkpt>
      <trkpt lat="42.176243" lon="2.193764">
        <ele>659.249</ele>
        <time>2017-11-28T11:13:09Z</time>
      </trkpt>
      <trkpt lat="42.176207" lon="2.193724">
        <ele>659.002</ele>
        <time>2017-11-28T11:13:12Z</time>
      </trkpt>
      <trkpt lat="42.176165" lon="2.193678">
        <ele>658.722</ele>
        <time>2017-11-28T11:13:16Z</time>
      </trkpt>
      <trkpt lat="42.176130" lon="2.193639">
        <ele>658.708</ele>
        <time>2017-11-28T11:13:20Z</time>
      </trkpt>
      <trkpt lat="42.176088" lon="2.193617">
        <ele>658.396</ele>
        <time>2017-11-28T11:13:24Z</time>
      </trkpt>
      <trkpt lat="42.176041" lon="2.193587">
        <ele>658.685</ele>
        <time>2017-11-28T11:13:28Z</time>
      </trkpt>
      <trkpt lat="42.175996" lon="2.193566">
        <ele>658.856</ele>
        <time>2017-11-28T11:13:31Z</time>
      </trkpt>
      <trkpt lat="42.175939" lon="2.193548">
        <ele>659.180</ele>
        <time>2017-11-28T11:13:35Z</time>
      </trkpt>
      <trkpt lat="42.175894" lon="2.193517">
        <ele>659.326</ele>
        <time>2017-11-28T11:13:39Z</time>
      </trkpt>
      <trkpt lat="42.175840" lon="2.193491">
        <ele>659.935</ele>
        <time>2017-11-28T11:13:43Z</time>
      </trkpt>
      <trkpt lat="42.175785" lon="2.193474">
        <ele>660.011</ele>
        <time>2017-11-28T11:13:47Z</time>
      </trkpt>
      <trkpt lat="42.175734" lon="2.193456">
        <ele>659.738</ele>
        <time>2017-11-28T11:13:51Z</time>
      </trkpt>
      <trkpt lat="42.175679" lon="2.193443">
        <ele>660.581</ele>
        <time>2017-11-28T11:14:06Z</time>
      </trkpt>
      <trkpt lat="42.175631" lon="2.193415">
        <ele>659.561</ele>
        <time>2017-11-28T11:14:13Z</time>
      </trkpt>
      <trkpt lat="42.175582" lon="2.193402">
        <ele>658.117</ele>
        <time>2017-11-28T11:14:18Z</time>
      </trkpt>
      <trkpt lat="42.175537" lon="2.193386">
        <ele>656.908</ele>
        <time>2017-11-28T11:14:22Z</time>
      </trkpt>
      <trkpt lat="42.175486" lon="2.193368">
        <ele>657.640</ele>
        <time>2017-11-28T11:14:27Z</time>
      </trkpt>
      <trkpt lat="42.175438" lon="2.193343">
        <ele>658.369</ele>
        <time>2017-11-28T11:14:31Z</time>
      </trkpt>
      <trkpt lat="42.175394" lon="2.193322">
        <ele>658.730</ele>
        <time>2017-11-28T11:14:35Z</time>
      </trkpt>
      <trkpt lat="42.175341" lon="2.193296">
        <ele>658.684</ele>
        <time>2017-11-28T11:14:39Z</time>
      </trkpt>
      <trkpt lat="42.175290" lon="2.193274">
        <ele>659.080</ele>
        <time>2017-11-28T11:14:43Z</time>
      </trkpt>
      <trkpt lat="42.175238" lon="2.193248">
        <ele>659.169</ele>
        <time>2017-11-28T11:14:47Z</time>
      </trkpt>
      <trkpt lat="42.175184" lon="2.193229">
        <ele>658.985</ele>
        <time>2017-11-28T11:14:51Z</time>
      </trkpt>
      <trkpt lat="42.175138" lon="2.193211">
        <ele>659.212</ele>
        <time>2017-11-28T11:14:54Z</time>
      </trkpt>
      <trkpt lat="42.175089" lon="2.193204">
        <ele>659.462</ele>
        <time>2017-11-28T11:14:58Z</time>
      </trkpt>
      <trkpt lat="42.175038" lon="2.193196">
        <ele>659.483</ele>
        <time>2017-11-28T11:15:02Z</time>
      </trkpt>
      <trkpt lat="42.174987" lon="2.193186">
        <ele>659.911</ele>
        <time>2017-11-28T11:15:06Z</time>
      </trkpt>
      <trkpt lat="42.174937" lon="2.193176">
        <ele>659.808</ele>
        <time>2017-11-28T11:15:10Z</time>
      </trkpt>
      <trkpt lat="42.174883" lon="2.193167">
        <ele>660.588</ele>
        <time>2017-11-28T11:15:14Z</time>
      </trkpt>
      <trkpt lat="42.174825" lon="2.193152">
        <ele>659.917</ele>
        <time>2017-11-28T11:15:18Z</time>
      </trkpt>
      <trkpt lat="42.174780" lon="2.193144">
        <ele>660.198</ele>
        <time>2017-11-28T11:15:21Z</time>
      </trkpt>
      <trkpt lat="42.174723" lon="2.193145">
        <ele>659.982</ele>
        <time>2017-11-28T11:15:25Z</time>
      </trkpt>
      <trkpt lat="42.174668" lon="2.193137">
        <ele>660.328</ele>
        <time>2017-11-28T11:15:29Z</time>
      </trkpt>
      <trkpt lat="42.174618" lon="2.193132">
        <ele>659.817</ele>
        <time>2017-11-28T11:15:33Z</time>
      </trkpt>
      <trkpt lat="42.174564" lon="2.193129">
        <ele>660.013</ele>
        <time>2017-11-28T11:15:37Z</time>
      </trkpt>
      <trkpt lat="42.174516" lon="2.193125">
        <ele>661.460</ele>
        <time>2017-11-28T11:15:41Z</time>
      </trkpt>
      <trkpt lat="42.174470" lon="2.193128">
        <ele>661.778</ele>
        <time>2017-11-28T11:15:45Z</time>
      </trkpt>
      <trkpt lat="42.174416" lon="2.193127">
        <ele>661.833</ele>
        <time>2017-11-28T11:15:49Z</time>
      </trkpt>
      <trkpt lat="42.174369" lon="2.193128">
        <ele>660.926</ele>
        <time>2017-11-28T11:15:53Z</time>
      </trkpt>
      <trkpt lat="42.174317" lon="2.193136">
        <ele>660.708</ele>
        <time>2017-11-28T11:15:58Z</time>
      </trkpt>
      <trkpt lat="42.174271" lon="2.193134">
        <ele>661.439</ele>
        <time>2017-11-28T11:16:02Z</time>
      </trkpt>
      <trkpt lat="42.174215" lon="2.193124">
        <ele>660.998</ele>
        <time>2017-11-28T11:16:06Z</time>
      </trkpt>
      <trkpt lat="42.174163" lon="2.193126">
        <ele>659.869</ele>
        <time>2017-11-28T11:16:10Z</time>
      </trkpt>
      <trkpt lat="42.174106" lon="2.193129">
        <ele>659.413</ele>
        <time>2017-11-28T11:16:14Z</time>
      </trkpt>
      <trkpt lat="42.174052" lon="2.193110">
        <ele>659.479</ele>
        <time>2017-11-28T11:16:18Z</time>
      </trkpt>
      <trkpt lat="42.173998" lon="2.193109">
        <ele>659.158</ele>
        <time>2017-11-28T11:16:22Z</time>
      </trkpt>
      <trkpt lat="42.173942" lon="2.193117">
        <ele>658.914</ele>
        <time>2017-11-28T11:16:27Z</time>
      </trkpt>
      <trkpt lat="42.173891" lon="2.193114">
        <ele>659.361</ele>
        <time>2017-11-28T11:16:31Z</time>
      </trkpt>
      <trkpt lat="42.173844" lon="2.193088">
        <ele>659.319</ele>
        <time>2017-11-28T11:16:35Z</time>
      </trkpt>
      <trkpt lat="42.173793" lon="2.193068">
        <ele>659.209</ele>
        <time>2017-11-28T11:16:40Z</time>
      </trkpt>
      <trkpt lat="42.173744" lon="2.193071">
        <ele>658.319</ele>
        <time>2017-11-28T11:16:44Z</time>
      </trkpt>
      <trkpt lat="42.173693" lon="2.193078">
        <ele>658.408</ele>
        <time>2017-11-28T11:16:48Z</time>
      </trkpt>
      <trkpt lat="42.173639" lon="2.193068">
        <ele>658.193</ele>
        <time>2017-11-28T11:16:52Z</time>
      </trkpt>
      <trkpt lat="42.173581" lon="2.193064">
        <ele>658.522</ele>
        <time>2017-11-28T11:16:57Z</time>
      </trkpt>
      <trkpt lat="42.173535" lon="2.193041">
        <ele>657.953</ele>
        <time>2017-11-28T11:17:01Z</time>
      </trkpt>
      <trkpt lat="42.173478" lon="2.193034">
        <ele>658.547</ele>
        <time>2017-11-28T11:17:05Z</time>
      </trkpt>
      <trkpt lat="42.173421" lon="2.193027">
        <ele>658.523</ele>
        <time>2017-11-28T11:17:09Z</time>
      </trkpt>
      <trkpt lat="42.173370" lon="2.193028">
        <ele>658.362</ele>
        <time>2017-11-28T11:17:13Z</time>
      </trkpt>
      <trkpt lat="42.173315" lon="2.193023">
        <ele>659.588</ele>
        <time>2017-11-28T11:17:17Z</time>
      </trkpt>
      <trkpt lat="42.173262" lon="2.193015">
        <ele>660.975</ele>
        <time>2017-11-28T11:17:21Z</time>
      </trkpt>
      <trkpt lat="42.173211" lon="2.193019">
        <ele>660.819</ele>
        <time>2017-11-28T11:17:26Z</time>
      </trkpt>
      <trkpt lat="42.173164" lon="2.193006">
        <ele>660.809</ele>
        <time>2017-11-28T11:17:31Z</time>
      </trkpt>
      <trkpt lat="42.173112" lon="2.193009">
        <ele>660.719</ele>
        <time>2017-11-28T11:17:36Z</time>
      </trkpt>
      <trkpt lat="42.173066" lon="2.193014">
        <ele>661.608</ele>
        <time>2017-11-28T11:17:41Z</time>
      </trkpt>
      <trkpt lat="42.173020" lon="2.193012">
        <ele>661.293</ele>
        <time>2017-11-28T11:17:45Z</time>
      </trkpt>
      <trkpt lat="42.172964" lon="2.193009">
        <ele>660.692</ele>
        <time>2017-11-28T11:17:49Z</time>
      </trkpt>
      <trkpt lat="42.172912" lon="2.193016">
        <ele>660.843</ele>
        <time>2017-11-28T11:17:53Z</time>
      </trkpt>
      <trkpt lat="42.172854" lon="2.193022">
        <ele>661.347</ele>
        <time>2017-11-28T11:17:57Z</time>
      </trkpt>
      <trkpt lat="42.172798" lon="2.193022">
        <ele>661.053</ele>
        <time>2017-11-28T11:18:01Z</time>
      </trkpt>
      <trkpt lat="42.172739" lon="2.193027">
        <ele>660.252</ele>
        <time>2017-11-28T11:18:05Z</time>
      </trkpt>
      <trkpt lat="42.172682" lon="2.193032">
        <ele>660.978</ele>
        <time>2017-11-28T11:18:09Z</time>
      </trkpt>
      <trkpt lat="42.172627" lon="2.193051">
        <ele>661.635</ele>
        <time>2017-11-28T11:18:13Z</time>
      </trkpt>
      <trkpt lat="42.172579" lon="2.193072">
        <ele>661.011</ele>
        <time>2017-11-28T11:18:17Z</time>
      </trkpt>
      <trkpt lat="42.172528" lon="2.193102">
        <ele>661.721</ele>
        <time>2017-11-28T11:18:21Z</time>
      </trkpt>
      <trkpt lat="42.172474" lon="2.193129">
        <ele>662.203</ele>
        <time>2017-11-28T11:18:25Z</time>
      </trkpt>
      <trkpt lat="42.172424" lon="2.193158">
        <ele>662.508</ele>
        <time>2017-11-28T11:18:29Z</time>
      </trkpt>
      <trkpt lat="42.172382" lon="2.193182">
        <ele>663.653</ele>
        <time>2017-11-28T11:18:33Z</time>
      </trkpt>
      <trkpt lat="42.172337" lon="2.193206">
        <ele>664.812</ele>
        <time>2017-11-28T11:18:37Z</time>
      </trkpt>
      <trkpt lat="42.172291" lon="2.193244">
        <ele>665.663</ele>
        <time>2017-11-28T11:18:41Z</time>
      </trkpt>
      <trkpt lat="42.172255" lon="2.193286">
        <ele>665.697</ele>
        <time>2017-11-28T11:18:45Z</time>
      </trkpt>
      <trkpt lat="42.172214" lon="2.193335">
        <ele>666.323</ele>
        <time>2017-11-28T11:18:50Z</time>
      </trkpt>
      <trkpt lat="42.172180" lon="2.193375">
        <ele>667.162</ele>
        <time>2017-11-28T11:18:54Z</time>
      </trkpt>
      <trkpt lat="42.172142" lon="2.193411">
        <ele>668.848</ele>
        <time>2017-11-28T11:18:58Z</time>
      </trkpt>
      <trkpt lat="42.172096" lon="2.193441">
        <ele>668.285</ele>
        <time>2017-11-28T11:19:03Z</time>
      </trkpt>
      <trkpt lat="42.172059" lon="2.193486">
        <ele>667.969</ele>
        <time>2017-11-28T11:19:07Z</time>
      </trkpt>
      <trkpt lat="42.172027" lon="2.193534">
        <ele>667.604</ele>
        <time>2017-11-28T11:19:11Z</time>
      </trkpt>
      <trkpt lat="42.171985" lon="2.193580">
        <ele>665.524</ele>
        <time>2017-11-28T11:19:16Z</time>
      </trkpt>
      <trkpt lat="42.171955" lon="2.193633">
        <ele>664.508</ele>
        <time>2017-11-28T11:19:20Z</time>
      </trkpt>
      <trkpt lat="42.171943" lon="2.193692">
        <ele>663.298</ele>
        <time>2017-11-28T11:19:24Z</time>
      </trkpt>
      <trkpt lat="42.171946" lon="2.193757">
        <ele>661.577</ele>
        <time>2017-11-28T11:19:28Z</time>
      </trkpt>
      <trkpt lat="42.171975" lon="2.193809">
        <ele>660.358</ele>
        <time>2017-11-28T11:19:31Z</time>
      </trkpt>
      <trkpt lat="42.172016" lon="2.193857">
        <ele>658.242</ele>
        <time>2017-11-28T11:19:35Z</time>
      </trkpt>
      <trkpt lat="42.172047" lon="2.193906">
        <ele>657.088</ele>
        <time>2017-11-28T11:19:45Z</time>
      </trkpt>
      <trkpt lat="42.172071" lon="2.193959">
        <ele>654.827</ele>
        <time>2017-11-28T11:19:49Z</time>
      </trkpt>
      <trkpt lat="42.172094" lon="2.194031">
        <ele>653.153</ele>
        <time>2017-11-28T11:19:53Z</time>
      </trkpt>
      <trkpt lat="42.172120" lon="2.194089">
        <ele>653.140</ele>
        <time>2017-11-28T11:19:56Z</time>
      </trkpt>
      <trkpt lat="42.172147" lon="2.194145">
        <ele>652.853</ele>
        <time>2017-11-28T11:19:59Z</time>
      </trkpt>
      <trkpt lat="42.172179" lon="2.194213">
        <ele>652.104</ele>
        <time>2017-11-28T11:20:03Z</time>
      </trkpt>
      <trkpt lat="42.172213" lon="2.194280">
        <ele>652.714</ele>
        <time>2017-11-28T11:20:07Z</time>
      </trkpt>
      <trkpt lat="42.172251" lon="2.194336">
        <ele>651.908</ele>
        <time>2017-11-28T11:20:11Z</time>
      </trkpt>
      <trkpt lat="42.172282" lon="2.194387">
        <ele>651.117</ele>
        <time>2017-11-28T11:20:15Z</time>
      </trkpt>
      <trkpt lat="42.172314" lon="2.194441">
        <ele>652.276</ele>
        <time>2017-11-28T11:20:19Z</time>
      </trkpt>
      <trkpt lat="42.172316" lon="2.194515">
        <ele>652.067</ele>
        <time>2017-11-28T11:20:23Z</time>
      </trkpt>
      <trkpt lat="42.172300" lon="2.194573">
        <ele>653.281</ele>
        <time>2017-11-28T11:20:27Z</time>
      </trkpt>
      <trkpt lat="42.172260" lon="2.194623">
        <ele>655.067</ele>
        <time>2017-11-28T11:20:32Z</time>
      </trkpt>
      <trkpt lat="42.172216" lon="2.194657">
        <ele>654.676</ele>
        <time>2017-11-28T11:20:37Z</time>
      </trkpt>
      <trkpt lat="42.172182" lon="2.194703">
        <ele>655.622</ele>
        <time>2017-11-28T11:20:41Z</time>
      </trkpt>
      <trkpt lat="42.172126" lon="2.194739">
        <ele>656.029</ele>
        <time>2017-11-28T11:20:45Z</time>
      </trkpt>
      <trkpt lat="42.172080" lon="2.194780">
        <ele>656.488</ele>
        <time>2017-11-28T11:20:48Z</time>
      </trkpt>
      <trkpt lat="42.172036" lon="2.194818">
        <ele>656.824</ele>
        <time>2017-11-28T11:20:52Z</time>
      </trkpt>
      <trkpt lat="42.171994" lon="2.194845">
        <ele>656.426</ele>
        <time>2017-11-28T11:20:55Z</time>
      </trkpt>
      <trkpt lat="42.171951" lon="2.194871">
        <ele>656.708</ele>
        <time>2017-11-28T11:21:09Z</time>
      </trkpt>
      <trkpt lat="42.171997" lon="2.194872">
        <ele>657.220</ele>
        <time>2017-11-28T11:21:16Z</time>
      </trkpt>
      <trkpt lat="42.171975" lon="2.194929">
        <ele>658.799</ele>
        <time>2017-11-28T11:21:29Z</time>
      </trkpt>
      <trkpt lat="42.172021" lon="2.194930">
        <ele>658.680</ele>
        <time>2017-11-28T11:21:35Z</time>
      </trkpt>
      <trkpt lat="42.172069" lon="2.194918">
        <ele>658.714</ele>
        <time>2017-11-28T11:21:41Z</time>
      </trkpt>
      <trkpt lat="42.172096" lon="2.194970">
        <ele>657.440</ele>
        <time>2017-11-28T11:21:45Z</time>
      </trkpt>
      <trkpt lat="42.172119" lon="2.195036">
        <ele>657.139</ele>
        <time>2017-11-28T11:21:49Z</time>
      </trkpt>
      <trkpt lat="42.172149" lon="2.195093">
        <ele>657.075</ele>
        <time>2017-11-28T11:21:53Z</time>
      </trkpt>
      <trkpt lat="42.172179" lon="2.195151">
        <ele>657.732</ele>
        <time>2017-11-28T11:22:04Z</time>
      </trkpt>
      <trkpt lat="42.172220" lon="2.195197">
        <ele>658.232</ele>
        <time>2017-11-28T11:22:11Z</time>
      </trkpt>
      <trkpt lat="42.172260" lon="2.195250">
        <ele>659.092</ele>
        <time>2017-11-28T11:22:15Z</time>
      </trkpt>
      <trkpt lat="42.172301" lon="2.195294">
        <ele>659.111</ele>
        <time>2017-11-28T11:22:19Z</time>
      </trkpt>
      <trkpt lat="42.172347" lon="2.195324">
        <ele>660.108</ele>
        <time>2017-11-28T11:22:23Z</time>
      </trkpt>
      <trkpt lat="42.172398" lon="2.195346">
        <ele>659.825</ele>
        <time>2017-11-28T11:22:27Z</time>
      </trkpt>
      <trkpt lat="42.172453" lon="2.195344">
        <ele>658.974</ele>
        <time>2017-11-28T11:22:31Z</time>
      </trkpt>
      <trkpt lat="42.172498" lon="2.195329">
        <ele>658.555</ele>
        <time>2017-11-28T11:22:34Z</time>
      </trkpt>
      <trkpt lat="42.172548" lon="2.195306">
        <ele>658.159</ele>
        <time>2017-11-28T11:22:38Z</time>
      </trkpt>
      <trkpt lat="42.172599" lon="2.195282">
        <ele>658.365</ele>
        <time>2017-11-28T11:22:42Z</time>
      </trkpt>
      <trkpt lat="42.172652" lon="2.195282">
        <ele>658.544</ele>
        <time>2017-11-28T11:22:47Z</time>
      </trkpt>
      <trkpt lat="42.172701" lon="2.195299">
        <ele>658.210</ele>
        <time>2017-11-28T11:22:52Z</time>
      </trkpt>
      <trkpt lat="42.172743" lon="2.195336">
        <ele>658.497</ele>
        <time>2017-11-28T11:22:57Z</time>
      </trkpt>
      <trkpt lat="42.172780" lon="2.195372">
        <ele>659.067</ele>
        <time>2017-11-28T11:23:01Z</time>
      </trkpt>
      <trkpt lat="42.172822" lon="2.195435">
        <ele>659.581</ele>
        <time>2017-11-28T11:23:06Z</time>
      </trkpt>
      <trkpt lat="42.172864" lon="2.195464">
        <ele>659.419</ele>
        <time>2017-11-28T11:23:12Z</time>
      </trkpt>
      <trkpt lat="42.172900" lon="2.195523">
        <ele>660.308</ele>
        <time>2017-11-28T11:23:17Z</time>
      </trkpt>
      <trkpt lat="42.172919" lon="2.195580">
        <ele>660.968</ele>
        <time>2017-11-28T11:23:21Z</time>
      </trkpt>
      <trkpt lat="42.172927" lon="2.195656">
        <ele>661.657</ele>
        <time>2017-11-28T11:23:25Z</time>
      </trkpt>
      <trkpt lat="42.172918" lon="2.195719">
        <ele>662.648</ele>
        <time>2017-11-28T11:23:29Z</time>
      </trkpt>
      <trkpt lat="42.172898" lon="2.195780">
        <ele>663.122</ele>
        <time>2017-11-28T11:23:34Z</time>
      </trkpt>
      <trkpt lat="42.172869" lon="2.195841">
        <ele>664.538</ele>
        <time>2017-11-28T11:23:40Z</time>
      </trkpt>
      <trkpt lat="42.172837" lon="2.195901">
        <ele>664.417</ele>
        <time>2017-11-28T11:23:45Z</time>
      </trkpt>
      <trkpt lat="42.172803" lon="2.195957">
        <ele>664.633</ele>
        <time>2017-11-28T11:23:49Z</time>
      </trkpt>
      <trkpt lat="42.172773" lon="2.196010">
        <ele>665.420</ele>
        <time>2017-11-28T11:23:53Z</time>
      </trkpt>
      <trkpt lat="42.172755" lon="2.196073">
        <ele>665.375</ele>
        <time>2017-11-28T11:24:00Z</time>
      </trkpt>
      <trkpt lat="42.172721" lon="2.196115">
        <ele>664.628</ele>
        <time>2017-11-28T11:24:05Z</time>
      </trkpt>
      <trkpt lat="42.172723" lon="2.196054">
        <ele>665.120</ele>
        <time>2017-11-28T11:24:19Z</time>
      </trkpt>
      <trkpt lat="42.172712" lon="2.195991">
        <ele>664.508</ele>
        <time>2017-11-28T11:24:23Z</time>
      </trkpt>
      <trkpt lat="42.172676" lon="2.195951">
        <ele>663.949</ele>
        <time>2017-11-28T11:24:27Z</time>
      </trkpt>
      <trkpt lat="42.172627" lon="2.195932">
        <ele>663.998</ele>
        <time>2017-11-28T11:24:31Z</time>
      </trkpt>
      <trkpt lat="42.172574" lon="2.195951">
        <ele>664.029</ele>
        <time>2017-11-28T11:24:35Z</time>
      </trkpt>
      <trkpt lat="42.172532" lon="2.195985">
        <ele>663.813</ele>
        <time>2017-11-28T11:24:39Z</time>
      </trkpt>
      <trkpt lat="42.172488" lon="2.196035">
        <ele>663.069</ele>
        <time>2017-11-28T11:24:43Z</time>
      </trkpt>
      <trkpt lat="42.172447" lon="2.196086">
        <ele>663.318</ele>
        <time>2017-11-28T11:24:47Z</time>
      </trkpt>
      <trkpt lat="42.172405" lon="2.196138">
        <ele>663.824</ele>
        <time>2017-11-28T11:24:51Z</time>
      </trkpt>
      <trkpt lat="42.172368" lon="2.196179">
        <ele>664.171</ele>
        <time>2017-11-28T11:24:55Z</time>
      </trkpt>
      <trkpt lat="42.172337" lon="2.196228">
        <ele>663.694</ele>
        <time>2017-11-28T11:24:59Z</time>
      </trkpt>
      <trkpt lat="42.172304" lon="2.196277">
        <ele>664.857</ele>
        <time>2017-11-28T11:25:03Z</time>
      </trkpt>
      <trkpt lat="42.172272" lon="2.196339">
        <ele>664.322</ele>
        <time>2017-11-28T11:25:08Z</time>
      </trkpt>
      <trkpt lat="42.172240" lon="2.196388">
        <ele>664.908</ele>
        <time>2017-11-28T11:25:12Z</time>
      </trkpt>
      <trkpt lat="42.172201" lon="2.196439">
        <ele>665.611</ele>
        <time>2017-11-28T11:25:16Z</time>
      </trkpt>
      <trkpt lat="42.172164" lon="2.196492">
        <ele>666.060</ele>
        <time>2017-11-28T11:25:20Z</time>
      </trkpt>
      <trkpt lat="42.172129" lon="2.196544">
        <ele>666.421</ele>
        <time>2017-11-28T11:25:24Z</time>
      </trkpt>
      <trkpt lat="42.172097" lon="2.196607">
        <ele>665.455</ele>
        <time>2017-11-28T11:25:28Z</time>
      </trkpt>
      <trkpt lat="42.172066" lon="2.196660">
        <ele>665.111</ele>
        <time>2017-11-28T11:25:32Z</time>
      </trkpt>
      <trkpt lat="42.172030" lon="2.196713">
        <ele>664.620</ele>
        <time>2017-11-28T11:25:36Z</time>
      </trkpt>
      <trkpt lat="42.171994" lon="2.196760">
        <ele>665.856</ele>
        <time>2017-11-28T11:25:40Z</time>
      </trkpt>
      <trkpt lat="42.171959" lon="2.196800">
        <ele>666.873</ele>
        <time>2017-11-28T11:25:44Z</time>
      </trkpt>
      <trkpt lat="42.171922" lon="2.196856">
        <ele>666.494</ele>
        <time>2017-11-28T11:25:49Z</time>
      </trkpt>
      <trkpt lat="42.171884" lon="2.196900">
        <ele>666.657</ele>
        <time>2017-11-28T11:25:53Z</time>
      </trkpt>
      <trkpt lat="42.171847" lon="2.196943">
        <ele>666.722</ele>
        <time>2017-11-28T11:25:57Z</time>
      </trkpt>
      <trkpt lat="42.171817" lon="2.197003">
        <ele>666.208</ele>
        <time>2017-11-28T11:26:02Z</time>
      </trkpt>
      <trkpt lat="42.171786" lon="2.197049">
        <ele>666.591</ele>
        <time>2017-11-28T11:26:06Z</time>
      </trkpt>
      <trkpt lat="42.171750" lon="2.197104">
        <ele>667.060</ele>
        <time>2017-11-28T11:26:11Z</time>
      </trkpt>
      <trkpt lat="42.171723" lon="2.197156">
        <ele>667.041</ele>
        <time>2017-11-28T11:26:15Z</time>
      </trkpt>
      <trkpt lat="42.171687" lon="2.197199">
        <ele>667.765</ele>
        <time>2017-11-28T11:26:19Z</time>
      </trkpt>
      <trkpt lat="42.171646" lon="2.197225">
        <ele>667.681</ele>
        <time>2017-11-28T11:26:23Z</time>
      </trkpt>
      <trkpt lat="42.171595" lon="2.197236">
        <ele>667.550</ele>
        <time>2017-11-28T11:26:27Z</time>
      </trkpt>
      <trkpt lat="42.171541" lon="2.197227">
        <ele>668.126</ele>
        <time>2017-11-28T11:26:31Z</time>
      </trkpt>
      <trkpt lat="42.171491" lon="2.197236">
        <ele>667.953</ele>
        <time>2017-11-28T11:26:35Z</time>
      </trkpt>
      <trkpt lat="42.171446" lon="2.197275">
        <ele>668.471</ele>
        <time>2017-11-28T11:26:39Z</time>
      </trkpt>
      <trkpt lat="42.171407" lon="2.197322">
        <ele>670.341</ele>
        <time>2017-11-28T11:26:43Z</time>
      </trkpt>
      <trkpt lat="42.171376" lon="2.197371">
        <ele>671.415</ele>
        <time>2017-11-28T11:26:47Z</time>
      </trkpt>
      <trkpt lat="42.171345" lon="2.197424">
        <ele>671.408</ele>
        <time>2017-11-28T11:26:51Z</time>
      </trkpt>
      <trkpt lat="42.171312" lon="2.197474">
        <ele>671.499</ele>
        <time>2017-11-28T11:26:55Z</time>
      </trkpt>
      <trkpt lat="42.171279" lon="2.197539">
        <ele>670.748</ele>
        <time>2017-11-28T11:27:00Z</time>
      </trkpt>
      <trkpt lat="42.171255" lon="2.197592">
        <ele>669.379</ele>
        <time>2017-11-28T11:27:03Z</time>
      </trkpt>
      <trkpt lat="42.171220" lon="2.197638">
        <ele>668.933</ele>
        <time>2017-11-28T11:27:08Z</time>
      </trkpt>
      <trkpt lat="42.171189" lon="2.197690">
        <ele>667.759</ele>
        <time>2017-11-28T11:27:14Z</time>
      </trkpt>
      <trkpt lat="42.171158" lon="2.197735">
        <ele>667.638</ele>
        <time>2017-11-28T11:27:19Z</time>
      </trkpt>
      <trkpt lat="42.171115" lon="2.197773">
        <ele>667.734</ele>
        <time>2017-11-28T11:27:23Z</time>
      </trkpt>
      <trkpt lat="42.171062" lon="2.197809">
        <ele>667.751</ele>
        <time>2017-11-28T11:27:27Z</time>
      </trkpt>
      <trkpt lat="42.171015" lon="2.197848">
        <ele>668.343</ele>
        <time>2017-11-28T11:27:31Z</time>
      </trkpt>
      <trkpt lat="42.170973" lon="2.197875">
        <ele>668.664</ele>
        <time>2017-11-28T11:27:35Z</time>
      </trkpt>
      <trkpt lat="42.170934" lon="2.197915">
        <ele>669.410</ele>
        <time>2017-11-28T11:27:40Z</time>
      </trkpt>
      <trkpt lat="42.170875" lon="2.197922">
        <ele>670.108</ele>
        <time>2017-11-28T11:27:48Z</time>
      </trkpt>
      <trkpt lat="42.170825" lon="2.197923">
        <ele>669.946</ele>
        <time>2017-11-28T11:27:52Z</time>
      </trkpt>
      <trkpt lat="42.170817" lon="2.198016">
        <ele>669.855</ele>
        <time>2017-11-28T11:27:59Z</time>
      </trkpt>
      <trkpt lat="42.170780" lon="2.198065">
        <ele>669.436</ele>
        <time>2017-11-28T11:28:02Z</time>
      </trkpt>
      <trkpt lat="42.170734" lon="2.198107">
        <ele>668.450</ele>
        <time>2017-11-28T11:28:05Z</time>
      </trkpt>
      <trkpt lat="42.170675" lon="2.198128">
        <ele>668.086</ele>
        <time>2017-11-28T11:28:09Z</time>
      </trkpt>
      <trkpt lat="42.170623" lon="2.198153">
        <ele>668.565</ele>
        <time>2017-11-28T11:28:12Z</time>
      </trkpt>
      <trkpt lat="42.170561" lon="2.198165">
        <ele>670.171</ele>
        <time>2017-11-28T11:28:16Z</time>
      </trkpt>
      <trkpt lat="42.170513" lon="2.198171">
        <ele>669.948</ele>
        <time>2017-11-28T11:28:19Z</time>
      </trkpt>
      <trkpt lat="42.170467" lon="2.198175">
        <ele>670.612</ele>
        <time>2017-11-28T11:28:22Z</time>
      </trkpt>
      <trkpt lat="42.170422" lon="2.198186">
        <ele>670.532</ele>
        <time>2017-11-28T11:28:25Z</time>
      </trkpt>
      <trkpt lat="42.170375" lon="2.198205">
        <ele>669.605</ele>
        <time>2017-11-28T11:28:29Z</time>
      </trkpt>
      <trkpt lat="42.170323" lon="2.198230">
        <ele>668.708</ele>
        <time>2017-11-28T11:28:33Z</time>
      </trkpt>
      <trkpt lat="42.170279" lon="2.198248">
        <ele>668.583</ele>
        <time>2017-11-28T11:28:36Z</time>
      </trkpt>
      <trkpt lat="42.170231" lon="2.198276">
        <ele>667.852</ele>
        <time>2017-11-28T11:28:40Z</time>
      </trkpt>
      <trkpt lat="42.170186" lon="2.198303">
        <ele>666.033</ele>
        <time>2017-11-28T11:28:44Z</time>
      </trkpt>
      <trkpt lat="42.170144" lon="2.198337">
        <ele>664.987</ele>
        <time>2017-11-28T11:28:48Z</time>
      </trkpt>
      <trkpt lat="42.170103" lon="2.198363">
        <ele>664.163</ele>
        <time>2017-11-28T11:28:52Z</time>
      </trkpt>
      <trkpt lat="42.170057" lon="2.198396">
        <ele>662.182</ele>
        <time>2017-11-28T11:28:56Z</time>
      </trkpt>
      <trkpt lat="42.170009" lon="2.198424">
        <ele>661.778</ele>
        <time>2017-11-28T11:29:00Z</time>
      </trkpt>
      <trkpt lat="42.169964" lon="2.198459">
        <ele>661.495</ele>
        <time>2017-11-28T11:29:04Z</time>
      </trkpt>
      <trkpt lat="42.169928" lon="2.198503">
        <ele>660.666</ele>
        <time>2017-11-28T11:29:08Z</time>
      </trkpt>
      <trkpt lat="42.169901" lon="2.198558">
        <ele>659.629</ele>
        <time>2017-11-28T11:29:13Z</time>
      </trkpt>
      <trkpt lat="42.169872" lon="2.198618">
        <ele>659.021</ele>
        <time>2017-11-28T11:29:17Z</time>
      </trkpt>
      <trkpt lat="42.169832" lon="2.198664">
        <ele>658.908</ele>
        <time>2017-11-28T11:29:21Z</time>
      </trkpt>
      <trkpt lat="42.169793" lon="2.198718">
        <ele>658.588</ele>
        <time>2017-11-28T11:29:25Z</time>
      </trkpt>
      <trkpt lat="42.169751" lon="2.198761">
        <ele>658.237</ele>
        <time>2017-11-28T11:29:29Z</time>
      </trkpt>
      <trkpt lat="42.169712" lon="2.198806">
        <ele>657.718</ele>
        <time>2017-11-28T11:29:33Z</time>
      </trkpt>
      <trkpt lat="42.169676" lon="2.198846">
        <ele>656.642</ele>
        <time>2017-11-28T11:29:36Z</time>
      </trkpt>
      <trkpt lat="42.169645" lon="2.198891">
        <ele>655.538</ele>
        <time>2017-11-28T11:29:40Z</time>
      </trkpt>
      <trkpt lat="42.169609" lon="2.198933">
        <ele>654.997</ele>
        <time>2017-11-28T11:29:44Z</time>
      </trkpt>
      <trkpt lat="42.169571" lon="2.198984">
        <ele>654.133</ele>
        <time>2017-11-28T11:29:49Z</time>
      </trkpt>
      <trkpt lat="42.169544" lon="2.199035">
        <ele>653.130</ele>
        <time>2017-11-28T11:29:54Z</time>
      </trkpt>
      <trkpt lat="42.169514" lon="2.199085">
        <ele>652.968</ele>
        <time>2017-11-28T11:29:59Z</time>
      </trkpt>
      <trkpt lat="42.169488" lon="2.199143">
        <ele>651.842</ele>
        <time>2017-11-28T11:30:03Z</time>
      </trkpt>
      <trkpt lat="42.169470" lon="2.199209">
        <ele>650.326</ele>
        <time>2017-11-28T11:30:07Z</time>
      </trkpt>
      <trkpt lat="42.169446" lon="2.199262">
        <ele>650.208</ele>
        <time>2017-11-28T11:30:10Z</time>
      </trkpt>
      <trkpt lat="42.169408" lon="2.199303">
        <ele>650.828</ele>
        <time>2017-11-28T11:30:14Z</time>
      </trkpt>
      <trkpt lat="42.169370" lon="2.199357">
        <ele>649.437</ele>
        <time>2017-11-28T11:30:19Z</time>
      </trkpt>
      <trkpt lat="42.169328" lon="2.199414">
        <ele>648.938</ele>
        <time>2017-11-28T11:30:24Z</time>
      </trkpt>
      <trkpt lat="42.169297" lon="2.199466">
        <ele>648.012</ele>
        <time>2017-11-28T11:30:28Z</time>
      </trkpt>
      <trkpt lat="42.169261" lon="2.199527">
        <ele>646.848</ele>
        <time>2017-11-28T11:30:33Z</time>
      </trkpt>
      <trkpt lat="42.169228" lon="2.199575">
        <ele>646.587</ele>
        <time>2017-11-28T11:30:38Z</time>
      </trkpt>
      <trkpt lat="42.169191" lon="2.199621">
        <ele>646.223</ele>
        <time>2017-11-28T11:30:42Z</time>
      </trkpt>
      <trkpt lat="42.169159" lon="2.199668">
        <ele>646.230</ele>
        <time>2017-11-28T11:30:46Z</time>
      </trkpt>
      <trkpt lat="42.169125" lon="2.199719">
        <ele>646.029</ele>
        <time>2017-11-28T11:30:50Z</time>
      </trkpt>
      <trkpt lat="42.169085" lon="2.199764">
        <ele>647.300</ele>
        <time>2017-11-28T11:30:54Z</time>
      </trkpt>
      <trkpt lat="42.169046" lon="2.199809">
        <ele>646.720</ele>
        <time>2017-11-28T11:30:57Z</time>
      </trkpt>
      <trkpt lat="42.169011" lon="2.199850">
        <ele>647.708</ele>
        <time>2017-11-28T11:31:01Z</time>
      </trkpt>
      <trkpt lat="42.168975" lon="2.199898">
        <ele>647.714</ele>
        <time>2017-11-28T11:31:05Z</time>
      </trkpt>
      <trkpt lat="42.168941" lon="2.199942">
        <ele>647.973</ele>
        <time>2017-11-28T11:31:08Z</time>
      </trkpt>
      <trkpt lat="42.168901" lon="2.199994">
        <ele>647.594</ele>
        <time>2017-11-28T11:31:12Z</time>
      </trkpt>
      <trkpt lat="42.168864" lon="2.200035">
        <ele>647.918</ele>
        <time>2017-11-28T11:31:16Z</time>
      </trkpt>
      <trkpt lat="42.168825" lon="2.200078">
        <ele>647.964</ele>
        <time>2017-11-28T11:31:20Z</time>
      </trkpt>
      <trkpt lat="42.168781" lon="2.200123">
        <ele>648.233</ele>
        <time>2017-11-28T11:31:24Z</time>
      </trkpt>
      <trkpt lat="42.168746" lon="2.200163">
        <ele>648.059</ele>
        <time>2017-11-28T11:31:28Z</time>
      </trkpt>
      <trkpt lat="42.168713" lon="2.200205">
        <ele>651.136</ele>
        <time>2017-11-28T11:31:32Z</time>
      </trkpt>
      <trkpt lat="42.168678" lon="2.200253">
        <ele>651.392</ele>
        <time>2017-11-28T11:31:37Z</time>
      </trkpt>
      <trkpt lat="42.168650" lon="2.200307">
        <ele>651.473</ele>
        <time>2017-11-28T11:31:42Z</time>
      </trkpt>
      <trkpt lat="42.168618" lon="2.200352">
        <ele>651.420</ele>
        <time>2017-11-28T11:31:48Z</time>
      </trkpt>
      <trkpt lat="42.168582" lon="2.200403">
        <ele>651.408</ele>
        <time>2017-11-28T11:31:52Z</time>
      </trkpt>
      <trkpt lat="42.168551" lon="2.200450">
        <ele>651.551</ele>
        <time>2017-11-28T11:31:56Z</time>
      </trkpt>
      <trkpt lat="42.168513" lon="2.200483">
        <ele>651.670</ele>
        <time>2017-11-28T11:32:01Z</time>
      </trkpt>
      <trkpt lat="42.168470" lon="2.200527">
        <ele>651.361</ele>
        <time>2017-11-28T11:32:06Z</time>
      </trkpt>
      <trkpt lat="42.168424" lon="2.200581">
        <ele>651.455</ele>
        <time>2017-11-28T11:32:10Z</time>
      </trkpt>
      <trkpt lat="42.168388" lon="2.200627">
        <ele>651.491</ele>
        <time>2017-11-28T11:32:14Z</time>
      </trkpt>
      <trkpt lat="42.168358" lon="2.200678">
        <ele>651.440</ele>
        <time>2017-11-28T11:32:17Z</time>
      </trkpt>
      <trkpt lat="42.168311" lon="2.200722">
        <ele>651.196</ele>
        <time>2017-11-28T11:32:21Z</time>
      </trkpt>
      <trkpt lat="42.168278" lon="2.200767">
        <ele>650.553</ele>
        <time>2017-11-28T11:32:24Z</time>
      </trkpt>
      <trkpt lat="42.168228" lon="2.200805">
        <ele>650.244</ele>
        <time>2017-11-28T11:32:28Z</time>
      </trkpt>
      <trkpt lat="42.168186" lon="2.200835">
        <ele>649.205</ele>
        <time>2017-11-28T11:32:32Z</time>
      </trkpt>
      <trkpt lat="42.168144" lon="2.200861">
        <ele>649.215</ele>
        <time>2017-11-28T11:32:36Z</time>
      </trkpt>
      <trkpt lat="42.168103" lon="2.200904">
        <ele>649.108</ele>
        <time>2017-11-28T11:32:40Z</time>
      </trkpt>
      <trkpt lat="42.168059" lon="2.200937">
        <ele>649.016</ele>
        <time>2017-11-28T11:32:44Z</time>
      </trkpt>
      <trkpt lat="42.168011" lon="2.200979">
        <ele>650.115</ele>
        <time>2017-11-28T11:32:49Z</time>
      </trkpt>
      <trkpt lat="42.167958" lon="2.201015">
        <ele>650.586</ele>
        <time>2017-11-28T11:32:53Z</time>
      </trkpt>
      <trkpt lat="42.167907" lon="2.201038">
        <ele>650.960</ele>
        <time>2017-11-28T11:32:58Z</time>
      </trkpt>
      <trkpt lat="42.167865" lon="2.201064">
        <ele>650.426</ele>
        <time>2017-11-28T11:33:02Z</time>
      </trkpt>
      <trkpt lat="42.167813" lon="2.201087">
        <ele>650.275</ele>
        <time>2017-11-28T11:33:06Z</time>
      </trkpt>
      <trkpt lat="42.167763" lon="2.201102">
        <ele>651.361</ele>
        <time>2017-11-28T11:33:10Z</time>
      </trkpt>
      <trkpt lat="42.167712" lon="2.201119">
        <ele>651.768</ele>
        <time>2017-11-28T11:33:15Z</time>
      </trkpt>
      <trkpt lat="42.167657" lon="2.201136">
        <ele>651.724</ele>
        <time>2017-11-28T11:33:19Z</time>
      </trkpt>
      <trkpt lat="42.167603" lon="2.201154">
        <ele>652.404</ele>
        <time>2017-11-28T11:33:24Z</time>
      </trkpt>
      <trkpt lat="42.167546" lon="2.201147">
        <ele>652.714</ele>
        <time>2017-11-28T11:33:28Z</time>
      </trkpt>
      <trkpt lat="42.167487" lon="2.201124">
        <ele>652.608</ele>
        <time>2017-11-28T11:33:33Z</time>
      </trkpt>
      <trkpt lat="42.167444" lon="2.201143">
        <ele>651.914</ele>
        <time>2017-11-28T11:33:37Z</time>
      </trkpt>
      <trkpt lat="42.167392" lon="2.201169">
        <ele>652.123</ele>
        <time>2017-11-28T11:33:41Z</time>
      </trkpt>
      <trkpt lat="42.167340" lon="2.201188">
        <ele>651.674</ele>
        <time>2017-11-28T11:33:45Z</time>
      </trkpt>
      <trkpt lat="42.167294" lon="2.201197">
        <ele>652.068</ele>
        <time>2017-11-28T11:33:49Z</time>
      </trkpt>
      <trkpt lat="42.167248" lon="2.201191">
        <ele>652.984</ele>
        <time>2017-11-28T11:34:00Z</time>
      </trkpt>
      <trkpt lat="42.167198" lon="2.201225">
        <ele>652.593</ele>
        <time>2017-11-28T11:34:05Z</time>
      </trkpt>
      <trkpt lat="42.167144" lon="2.201247">
        <ele>652.719</ele>
        <time>2017-11-28T11:34:09Z</time>
      </trkpt>
      <trkpt lat="42.167090" lon="2.201261">
        <ele>653.266</ele>
        <time>2017-11-28T11:34:13Z</time>
      </trkpt>
      <trkpt lat="42.167037" lon="2.201273">
        <ele>653.465</ele>
        <time>2017-11-28T11:34:17Z</time>
      </trkpt>
      <trkpt lat="42.166988" lon="2.201300">
        <ele>654.168</ele>
        <time>2017-11-28T11:34:21Z</time>
      </trkpt>
      <trkpt lat="42.166941" lon="2.201316">
        <ele>654.214</ele>
        <time>2017-11-28T11:34:25Z</time>
      </trkpt>
      <trkpt lat="42.166889" lon="2.201320">
        <ele>654.708</ele>
        <time>2017-11-28T11:34:29Z</time>
      </trkpt>
      <trkpt lat="42.166839" lon="2.201327">
        <ele>654.648</ele>
        <time>2017-11-28T11:34:33Z</time>
      </trkpt>
      <trkpt lat="42.166788" lon="2.201330">
        <ele>655.337</ele>
        <time>2017-11-28T11:34:37Z</time>
      </trkpt>
      <trkpt lat="42.166731" lon="2.201323">
        <ele>655.978</ele>
        <time>2017-11-28T11:34:41Z</time>
      </trkpt>
      <trkpt lat="42.166678" lon="2.201331">
        <ele>656.392</ele>
        <time>2017-11-28T11:34:45Z</time>
      </trkpt>
      <trkpt lat="42.166632" lon="2.201348">
        <ele>656.148</ele>
        <time>2017-11-28T11:34:49Z</time>
      </trkpt>
      <trkpt lat="42.166587" lon="2.201373">
        <ele>656.617</ele>
        <time>2017-11-28T11:34:53Z</time>
      </trkpt>
      <trkpt lat="42.166537" lon="2.201386">
        <ele>656.523</ele>
        <time>2017-11-28T11:34:57Z</time>
      </trkpt>
      <trkpt lat="42.166483" lon="2.201404">
        <ele>656.480</ele>
        <time>2017-11-28T11:35:02Z</time>
      </trkpt>
      <trkpt lat="42.166433" lon="2.201427">
        <ele>657.575</ele>
        <time>2017-11-28T11:35:07Z</time>
      </trkpt>
      <trkpt lat="42.166386" lon="2.201435">
        <ele>657.728</ele>
        <time>2017-11-28T11:35:12Z</time>
      </trkpt>
      <trkpt lat="42.166331" lon="2.201441">
        <ele>657.820</ele>
        <time>2017-11-28T11:35:17Z</time>
      </trkpt>
      <trkpt lat="42.166282" lon="2.201459">
        <ele>658.308</ele>
        <time>2017-11-28T11:35:21Z</time>
      </trkpt>
      <trkpt lat="42.166228" lon="2.201469">
        <ele>658.399</ele>
        <time>2017-11-28T11:35:25Z</time>
      </trkpt>
      <trkpt lat="42.166176" lon="2.201481">
        <ele>659.088</ele>
        <time>2017-11-28T11:35:29Z</time>
      </trkpt>
      <trkpt lat="42.166126" lon="2.201490">
        <ele>658.999</ele>
        <time>2017-11-28T11:35:33Z</time>
      </trkpt>
      <trkpt lat="42.166070" lon="2.201507">
        <ele>658.213</ele>
        <time>2017-11-28T11:35:38Z</time>
      </trkpt>
      <trkpt lat="42.166027" lon="2.201526">
        <ele>658.519</ele>
        <time>2017-11-28T11:35:42Z</time>
      </trkpt>
      <trkpt lat="42.165981" lon="2.201562">
        <ele>658.948</ele>
        <time>2017-11-28T11:35:47Z</time>
      </trkpt>
      <trkpt lat="42.165933" lon="2.201578">
        <ele>659.344</ele>
        <time>2017-11-28T11:35:52Z</time>
      </trkpt>
      <trkpt lat="42.165879" lon="2.201583">
        <ele>659.281</ele>
        <time>2017-11-28T11:35:57Z</time>
      </trkpt>
      <trkpt lat="42.165824" lon="2.201593">
        <ele>659.185</ele>
        <time>2017-11-28T11:36:02Z</time>
      </trkpt>
      <trkpt lat="42.165777" lon="2.201594">
        <ele>659.189</ele>
        <time>2017-11-28T11:36:06Z</time>
      </trkpt>
      <trkpt lat="42.165731" lon="2.201602">
        <ele>659.117</ele>
        <time>2017-11-28T11:36:10Z</time>
      </trkpt>
      <trkpt lat="42.165680" lon="2.201611">
        <ele>659.608</ele>
        <time>2017-11-28T11:36:14Z</time>
      </trkpt>
      <trkpt lat="42.165638" lon="2.201636">
        <ele>660.280</ele>
        <time>2017-11-28T11:36:18Z</time>
      </trkpt>
      <trkpt lat="42.165592" lon="2.201636">
        <ele>661.069</ele>
        <time>2017-11-28T11:36:22Z</time>
      </trkpt>
      <trkpt lat="42.165543" lon="2.201634">
        <ele>661.080</ele>
        <time>2017-11-28T11:36:26Z</time>
      </trkpt>
      <trkpt lat="42.165498" lon="2.201627">
        <ele>661.044</ele>
        <time>2017-11-28T11:36:30Z</time>
      </trkpt>
      <trkpt lat="42.165451" lon="2.201605">
        <ele>660.730</ele>
        <time>2017-11-28T11:36:34Z</time>
      </trkpt>
      <trkpt lat="42.165401" lon="2.201593">
        <ele>660.459</ele>
        <time>2017-11-28T11:36:38Z</time>
      </trkpt>
      <trkpt lat="42.165358" lon="2.201574">
        <ele>661.065</ele>
        <time>2017-11-28T11:36:41Z</time>
      </trkpt>
      <trkpt lat="42.165311" lon="2.201560">
        <ele>662.062</ele>
        <time>2017-11-28T11:36:44Z</time>
      </trkpt>
      <trkpt lat="42.165264" lon="2.201564">
        <ele>662.052</ele>
        <time>2017-11-28T11:36:48Z</time>
      </trkpt>
      <trkpt lat="42.165219" lon="2.201570">
        <ele>661.853</ele>
        <time>2017-11-28T11:36:52Z</time>
      </trkpt>
      <trkpt lat="42.165175" lon="2.201592">
        <ele>661.908</ele>
        <time>2017-11-28T11:36:56Z</time>
      </trkpt>
      <trkpt lat="42.165127" lon="2.201615">
        <ele>662.608</ele>
        <time>2017-11-28T11:37:01Z</time>
      </trkpt>
      <trkpt lat="42.165080" lon="2.201619">
        <ele>662.887</ele>
        <time>2017-11-28T11:37:05Z</time>
      </trkpt>
      <trkpt lat="42.165029" lon="2.201625">
        <ele>662.716</ele>
        <time>2017-11-28T11:37:09Z</time>
      </trkpt>
      <trkpt lat="42.164984" lon="2.201646">
        <ele>661.877</ele>
        <time>2017-11-28T11:37:13Z</time>
      </trkpt>
      <trkpt lat="42.164944" lon="2.201684">
        <ele>661.151</ele>
        <time>2017-11-28T11:37:17Z</time>
      </trkpt>
      <trkpt lat="42.164921" lon="2.201740">
        <ele>660.437</ele>
        <time>2017-11-28T11:37:21Z</time>
      </trkpt>
      <trkpt lat="42.164884" lon="2.201785">
        <ele>660.136</ele>
        <time>2017-11-28T11:37:26Z</time>
      </trkpt>
      <trkpt lat="42.164845" lon="2.201820">
        <ele>660.232</ele>
        <time>2017-11-28T11:37:31Z</time>
      </trkpt>
      <trkpt lat="42.164812" lon="2.201866">
        <ele>659.499</ele>
        <time>2017-11-28T11:37:36Z</time>
      </trkpt>
      <trkpt lat="42.164783" lon="2.201926">
        <ele>659.233</ele>
        <time>2017-11-28T11:37:40Z</time>
      </trkpt>
      <trkpt lat="42.164792" lon="2.201995">
        <ele>658.623</ele>
        <time>2017-11-28T11:37:44Z</time>
      </trkpt>
      <trkpt lat="42.164800" lon="2.202062">
        <ele>658.415</ele>
        <time>2017-11-28T11:37:49Z</time>
      </trkpt>
      <trkpt lat="42.164819" lon="2.202122">
        <ele>657.908</ele>
        <time>2017-11-28T11:37:54Z</time>
      </trkpt>
      <trkpt lat="42.164828" lon="2.202182">
        <ele>657.675</ele>
        <time>2017-11-28T11:37:58Z</time>
      </trkpt>
      <trkpt lat="42.164829" lon="2.202253">
        <ele>657.484</ele>
        <time>2017-11-28T11:38:02Z</time>
      </trkpt>
      <trkpt lat="42.164834" lon="2.202314">
        <ele>656.935</ele>
        <time>2017-11-28T11:38:06Z</time>
      </trkpt>
      <trkpt lat="42.164843" lon="2.202381">
        <ele>656.569</ele>
        <time>2017-11-28T11:38:11Z</time>
      </trkpt>
      <trkpt lat="42.164858" lon="2.202451">
        <ele>657.425</ele>
        <time>2017-11-28T11:38:16Z</time>
      </trkpt>
      <trkpt lat="42.164871" lon="2.202522">
        <ele>657.264</ele>
        <time>2017-11-28T11:38:21Z</time>
      </trkpt>
      <trkpt lat="42.164886" lon="2.202580">
        <ele>657.090</ele>
        <time>2017-11-28T11:38:25Z</time>
      </trkpt>
      <trkpt lat="42.164894" lon="2.202651">
        <ele>656.697</ele>
        <time>2017-11-28T11:38:30Z</time>
      </trkpt>
      <trkpt lat="42.164903" lon="2.202715">
        <ele>656.191</ele>
        <time>2017-11-28T11:38:34Z</time>
      </trkpt>
      <trkpt lat="42.164923" lon="2.202775">
        <ele>656.081</ele>
        <time>2017-11-28T11:38:38Z</time>
      </trkpt>
      <trkpt lat="42.164931" lon="2.202847">
        <ele>656.019</ele>
        <time>2017-11-28T11:38:42Z</time>
      </trkpt>
      <trkpt lat="42.164939" lon="2.202927">
        <ele>655.808</ele>
        <time>2017-11-28T11:38:46Z</time>
      </trkpt>
      <trkpt lat="42.164944" lon="2.202998">
        <ele>656.321</ele>
        <time>2017-11-28T11:38:50Z</time>
      </trkpt>
      <trkpt lat="42.164961" lon="2.203063">
        <ele>655.470</ele>
        <time>2017-11-28T11:38:55Z</time>
      </trkpt>
      <trkpt lat="42.164981" lon="2.203132">
        <ele>655.841</ele>
        <time>2017-11-28T11:39:00Z</time>
      </trkpt>
      <trkpt lat="42.165004" lon="2.203197">
        <ele>655.765</ele>
        <time>2017-11-28T11:39:05Z</time>
      </trkpt>
      <trkpt lat="42.165026" lon="2.203260">
        <ele>656.151</ele>
        <time>2017-11-28T11:39:11Z</time>
      </trkpt>
      <trkpt lat="42.165039" lon="2.203333">
        <ele>656.180</ele>
        <time>2017-11-28T11:39:16Z</time>
      </trkpt>
      <trkpt lat="42.165045" lon="2.203397">
        <ele>656.156</ele>
        <time>2017-11-28T11:39:21Z</time>
      </trkpt>
      <trkpt lat="42.165061" lon="2.203461">
        <ele>655.633</ele>
        <time>2017-11-28T11:39:26Z</time>
      </trkpt>
      <trkpt lat="42.165077" lon="2.203524">
        <ele>655.459</ele>
        <time>2017-11-28T11:39:30Z</time>
      </trkpt>
      <trkpt lat="42.165093" lon="2.203589">
        <ele>655.303</ele>
        <time>2017-11-28T11:39:34Z</time>
      </trkpt>
      <trkpt lat="42.165106" lon="2.203648">
        <ele>655.023</ele>
        <time>2017-11-28T11:39:38Z</time>
      </trkpt>
      <trkpt lat="42.165108" lon="2.203710">
        <ele>655.008</ele>
        <time>2017-11-28T11:39:42Z</time>
      </trkpt>
      <trkpt lat="42.165113" lon="2.203784">
        <ele>654.887</ele>
        <time>2017-11-28T11:39:46Z</time>
      </trkpt>
      <trkpt lat="42.165115" lon="2.203855">
        <ele>655.026</ele>
        <time>2017-11-28T11:39:50Z</time>
      </trkpt>
      <trkpt lat="42.165118" lon="2.203919">
        <ele>655.487</ele>
        <time>2017-11-28T11:39:55Z</time>
      </trkpt>
      <trkpt lat="42.165120" lon="2.203985">
        <ele>655.281</ele>
        <time>2017-11-28T11:39:59Z</time>
      </trkpt>
      <trkpt lat="42.165124" lon="2.204060">
        <ele>655.137</ele>
        <time>2017-11-28T11:40:03Z</time>
      </trkpt>
      <trkpt lat="42.165126" lon="2.204132">
        <ele>654.626</ele>
        <time>2017-11-28T11:40:07Z</time>
      </trkpt>
      <trkpt lat="42.165137" lon="2.204204">
        <ele>654.762</ele>
        <time>2017-11-28T11:40:11Z</time>
      </trkpt>
      <trkpt lat="42.165127" lon="2.204271">
        <ele>655.359</ele>
        <time>2017-11-28T11:40:18Z</time>
      </trkpt>
      <trkpt lat="42.165112" lon="2.204336">
        <ele>654.033</ele>
        <time>2017-11-28T11:40:24Z</time>
      </trkpt>
      <trkpt lat="42.165098" lon="2.204402">
        <ele>654.323</ele>
        <time>2017-11-28T11:40:34Z</time>
      </trkpt>
      <trkpt lat="42.165089" lon="2.204473">
        <ele>654.515</ele>
        <time>2017-11-28T11:40:40Z</time>
      </trkpt>
      <trkpt lat="42.165080" lon="2.204546">
        <ele>654.008</ele>
        <time>2017-11-28T11:40:46Z</time>
      </trkpt>
      <trkpt lat="42.165069" lon="2.204613">
        <ele>653.625</ele>
        <time>2017-11-28T11:40:50Z</time>
      </trkpt>
      <trkpt lat="42.165061" lon="2.204685">
        <ele>652.854</ele>
        <time>2017-11-28T11:40:57Z</time>
      </trkpt>
      <trkpt lat="42.165041" lon="2.204754">
        <ele>652.385</ele>
        <time>2017-11-28T11:41:02Z</time>
      </trkpt>
      <trkpt lat="42.165017" lon="2.204817">
        <ele>651.939</ele>
        <time>2017-11-28T11:41:06Z</time>
      </trkpt>
      <trkpt lat="42.164995" lon="2.204875">
        <ele>652.165</ele>
        <time>2017-11-28T11:41:10Z</time>
      </trkpt>
      <trkpt lat="42.164977" lon="2.204945">
        <ele>651.774</ele>
        <time>2017-11-28T11:41:15Z</time>
      </trkpt>
      <trkpt lat="42.164972" lon="2.205006">
        <ele>651.010</ele>
        <time>2017-11-28T11:41:19Z</time>
      </trkpt>
      <trkpt lat="42.164971" lon="2.205072">
        <ele>649.857</ele>
        <time>2017-11-28T11:41:23Z</time>
      </trkpt>
      <trkpt lat="42.164981" lon="2.205138">
        <ele>649.511</ele>
        <time>2017-11-28T11:41:28Z</time>
      </trkpt>
      <trkpt lat="42.164989" lon="2.205211">
        <ele>649.121</ele>
        <time>2017-11-28T11:41:33Z</time>
      </trkpt>
      <trkpt lat="42.164991" lon="2.205284">
        <ele>648.603</ele>
        <time>2017-11-28T11:41:37Z</time>
      </trkpt>
      <trkpt lat="42.164996" lon="2.205357">
        <ele>648.108</ele>
        <time>2017-11-28T11:41:43Z</time>
      </trkpt>
      <trkpt lat="42.164991" lon="2.205427">
        <ele>647.873</ele>
        <time>2017-11-28T11:41:47Z</time>
      </trkpt>
      <trkpt lat="42.164976" lon="2.205500">
        <ele>648.662</ele>
        <time>2017-11-28T11:41:51Z</time>
      </trkpt>
      <trkpt lat="42.164953" lon="2.205559">
        <ele>649.383</ele>
        <time>2017-11-28T11:41:55Z</time>
      </trkpt>
      <trkpt lat="42.164929" lon="2.205624">
        <ele>650.077</ele>
        <time>2017-11-28T11:42:00Z</time>
      </trkpt>
      <trkpt lat="42.164909" lon="2.205684">
        <ele>650.363</ele>
        <time>2017-11-28T11:42:05Z</time>
      </trkpt>
      <trkpt lat="42.164890" lon="2.205740">
        <ele>650.622</ele>
        <time>2017-11-28T11:42:09Z</time>
      </trkpt>
      <trkpt lat="42.164874" lon="2.205799">
        <ele>650.468</ele>
        <time>2017-11-28T11:42:13Z</time>
      </trkpt>
      <trkpt lat="42.164850" lon="2.205859">
        <ele>650.025</ele>
        <time>2017-11-28T11:42:18Z</time>
      </trkpt>
      <trkpt lat="42.164824" lon="2.205919">
        <ele>649.668</ele>
        <time>2017-11-28T11:42:22Z</time>
      </trkpt>
      <trkpt lat="42.164799" lon="2.205978">
        <ele>649.342</ele>
        <time>2017-11-28T11:42:26Z</time>
      </trkpt>
      <trkpt lat="42.164774" lon="2.206034">
        <ele>649.126</ele>
        <time>2017-11-28T11:42:31Z</time>
      </trkpt>
      <trkpt lat="42.164755" lon="2.206095">
        <ele>649.308</ele>
        <time>2017-11-28T11:42:35Z</time>
      </trkpt>
      <trkpt lat="42.164741" lon="2.206164">
        <ele>648.528</ele>
        <time>2017-11-28T11:42:40Z</time>
      </trkpt>
      <trkpt lat="42.164735" lon="2.206228">
        <ele>647.617</ele>
        <time>2017-11-28T11:42:45Z</time>
      </trkpt>
      <trkpt lat="42.164737" lon="2.206294">
        <ele>646.978</ele>
        <time>2017-11-28T11:42:49Z</time>
      </trkpt>
      <trkpt lat="42.164743" lon="2.206365">
        <ele>646.522</ele>
        <time>2017-11-28T11:42:54Z</time>
      </trkpt>
      <trkpt lat="42.164733" lon="2.206434">
        <ele>646.968</ele>
        <time>2017-11-28T11:42:57Z</time>
      </trkpt>
      <trkpt lat="42.164723" lon="2.206502">
        <ele>647.497</ele>
        <time>2017-11-28T11:43:02Z</time>
      </trkpt>
      <trkpt lat="42.164700" lon="2.206563">
        <ele>647.873</ele>
        <time>2017-11-28T11:43:06Z</time>
      </trkpt>
      <trkpt lat="42.164675" lon="2.206626">
        <ele>647.950</ele>
        <time>2017-11-28T11:43:10Z</time>
      </trkpt>
      <trkpt lat="42.164654" lon="2.206691">
        <ele>648.225</ele>
        <time>2017-11-28T11:43:15Z</time>
      </trkpt>
      <trkpt lat="42.164625" lon="2.206751">
        <ele>648.126</ele>
        <time>2017-11-28T11:43:19Z</time>
      </trkpt>
      <trkpt lat="42.164596" lon="2.206819">
        <ele>647.808</ele>
        <time>2017-11-28T11:43:24Z</time>
      </trkpt>
      <trkpt lat="42.164570" lon="2.206873">
        <ele>648.108</ele>
        <time>2017-11-28T11:43:28Z</time>
      </trkpt>
      <trkpt lat="42.164537" lon="2.206934">
        <ele>648.344</ele>
        <time>2017-11-28T11:43:32Z</time>
      </trkpt>
      <trkpt lat="42.164500" lon="2.206995">
        <ele>647.613</ele>
        <time>2017-11-28T11:43:36Z</time>
      </trkpt>
      <trkpt lat="42.164470" lon="2.207059">
        <ele>647.374</ele>
        <time>2017-11-28T11:43:41Z</time>
      </trkpt>
      <trkpt lat="42.164435" lon="2.207111">
        <ele>646.758</ele>
        <time>2017-11-28T11:43:45Z</time>
      </trkpt>
      <trkpt lat="42.164401" lon="2.207167">
        <ele>646.654</ele>
        <time>2017-11-28T11:43:51Z</time>
      </trkpt>
      <trkpt lat="42.164367" lon="2.207214">
        <ele>646.093</ele>
        <time>2017-11-28T11:43:56Z</time>
      </trkpt>
      <trkpt lat="42.164329" lon="2.207268">
        <ele>646.179</ele>
        <time>2017-11-28T11:44:01Z</time>
      </trkpt>
      <trkpt lat="42.164296" lon="2.207328">
        <ele>646.186</ele>
        <time>2017-11-28T11:44:05Z</time>
      </trkpt>
      <trkpt lat="42.164257" lon="2.207383">
        <ele>646.146</ele>
        <time>2017-11-28T11:44:10Z</time>
      </trkpt>
      <trkpt lat="42.164229" lon="2.207434">
        <ele>646.188</ele>
        <time>2017-11-28T11:44:14Z</time>
      </trkpt>
      <trkpt lat="42.164191" lon="2.207486">
        <ele>646.716</ele>
        <time>2017-11-28T11:44:20Z</time>
      </trkpt>
      <trkpt lat="42.164150" lon="2.207527">
        <ele>646.608</ele>
        <time>2017-11-28T11:44:24Z</time>
      </trkpt>
      <trkpt lat="42.164110" lon="2.207570">
        <ele>646.516</ele>
        <time>2017-11-28T11:44:28Z</time>
      </trkpt>
      <trkpt lat="42.164076" lon="2.207623">
        <ele>646.675</ele>
        <time>2017-11-28T11:44:33Z</time>
      </trkpt>
      <trkpt lat="42.164041" lon="2.207665">
        <ele>646.316</ele>
        <time>2017-11-28T11:44:37Z</time>
      </trkpt>
      <trkpt lat="42.163997" lon="2.207704">
        <ele>646.260</ele>
        <time>2017-11-28T11:44:41Z</time>
      </trkpt>
      <trkpt lat="42.163954" lon="2.207743">
        <ele>646.326</ele>
        <time>2017-11-28T11:44:44Z</time>
      </trkpt>
      <trkpt lat="42.163909" lon="2.207785">
        <ele>646.185</ele>
        <time>2017-11-28T11:44:48Z</time>
      </trkpt>
      <trkpt lat="42.163864" lon="2.207826">
        <ele>645.891</ele>
        <time>2017-11-28T11:44:52Z</time>
      </trkpt>
      <trkpt lat="42.163823" lon="2.207880">
        <ele>645.288</ele>
        <time>2017-11-28T11:44:56Z</time>
      </trkpt>
      <trkpt lat="42.163783" lon="2.207929">
        <ele>645.327</ele>
        <time>2017-11-28T11:45:00Z</time>
      </trkpt>
      <trkpt lat="42.163742" lon="2.207971">
        <ele>645.968</ele>
        <time>2017-11-28T11:45:04Z</time>
      </trkpt>
      <trkpt lat="42.163694" lon="2.208013">
        <ele>645.514</ele>
        <time>2017-11-28T11:45:08Z</time>
      </trkpt>
      <trkpt lat="42.163648" lon="2.208055">
        <ele>644.808</ele>
        <time>2017-11-28T11:45:12Z</time>
      </trkpt>
      <trkpt lat="42.163602" lon="2.208100">
        <ele>645.494</ele>
        <time>2017-11-28T11:45:17Z</time>
      </trkpt>
      <trkpt lat="42.163553" lon="2.208146">
        <ele>645.463</ele>
        <time>2017-11-28T11:45:21Z</time>
      </trkpt>
      <trkpt lat="42.163514" lon="2.208176">
        <ele>645.824</ele>
        <time>2017-11-28T11:45:25Z</time>
      </trkpt>
      <trkpt lat="42.163475" lon="2.208210">
        <ele>646.218</ele>
        <time>2017-11-28T11:45:29Z</time>
      </trkpt>
      <trkpt lat="42.163427" lon="2.208238">
        <ele>646.264</ele>
        <time>2017-11-28T11:45:33Z</time>
      </trkpt>
      <trkpt lat="42.163377" lon="2.208267">
        <ele>646.793</ele>
        <time>2017-11-28T11:45:38Z</time>
      </trkpt>
      <trkpt lat="42.163323" lon="2.208286">
        <ele>646.269</ele>
        <time>2017-11-28T11:45:43Z</time>
      </trkpt>
      <trkpt lat="42.163270" lon="2.208303">
        <ele>645.576</ele>
        <time>2017-11-28T11:45:47Z</time>
      </trkpt>
      <trkpt lat="42.163215" lon="2.208315">
        <ele>645.236</ele>
        <time>2017-11-28T11:45:51Z</time>
      </trkpt>
      <trkpt lat="42.163168" lon="2.208330">
        <ele>645.417</ele>
        <time>2017-11-28T11:45:55Z</time>
      </trkpt>
      <trkpt lat="42.163125" lon="2.208349">
        <ele>644.518</ele>
        <time>2017-11-28T11:45:59Z</time>
      </trkpt>
      <trkpt lat="42.163083" lon="2.208389">
        <ele>644.608</ele>
        <time>2017-11-28T11:46:03Z</time>
      </trkpt>
      <trkpt lat="42.163038" lon="2.208420">
        <ele>645.015</ele>
        <time>2017-11-28T11:46:07Z</time>
      </trkpt>
      <trkpt lat="42.162991" lon="2.208429">
        <ele>645.264</ele>
        <time>2017-11-28T11:46:10Z</time>
      </trkpt>
      <trkpt lat="42.162943" lon="2.208421">
        <ele>645.225</ele>
        <time>2017-11-28T11:46:13Z</time>
      </trkpt>
      <trkpt lat="42.162888" lon="2.208407">
        <ele>645.489</ele>
        <time>2017-11-28T11:46:17Z</time>
      </trkpt>
      <trkpt lat="42.162843" lon="2.208379">
        <ele>646.035</ele>
        <time>2017-11-28T11:46:21Z</time>
      </trkpt>
      <trkpt lat="42.162795" lon="2.208361">
        <ele>645.544</ele>
        <time>2017-11-28T11:46:26Z</time>
      </trkpt>
      <trkpt lat="42.162754" lon="2.208336">
        <ele>646.510</ele>
        <time>2017-11-28T11:46:39Z</time>
      </trkpt>
      <trkpt lat="42.162705" lon="2.208334">
        <ele>647.387</ele>
        <time>2017-11-28T11:46:47Z</time>
      </trkpt>
      <trkpt lat="42.162651" lon="2.208332">
        <ele>647.937</ele>
        <time>2017-11-28T11:46:53Z</time>
      </trkpt>
      <trkpt lat="42.162603" lon="2.208320">
        <ele>647.249</ele>
        <time>2017-11-28T11:46:57Z</time>
      </trkpt>
      <trkpt lat="42.162562" lon="2.208294">
        <ele>647.013</ele>
        <time>2017-11-28T11:47:00Z</time>
      </trkpt>
      <trkpt lat="42.162514" lon="2.208263">
        <ele>646.508</ele>
        <time>2017-11-28T11:47:04Z</time>
      </trkpt>
      <trkpt lat="42.162467" lon="2.208235">
        <ele>645.955</ele>
        <time>2017-11-28T11:47:08Z</time>
      </trkpt>
      <trkpt lat="42.162425" lon="2.208203">
        <ele>646.194</ele>
        <time>2017-11-28T11:47:11Z</time>
      </trkpt>
      <trkpt lat="42.162375" lon="2.208168">
        <ele>645.875</ele>
        <time>2017-11-28T11:47:15Z</time>
      </trkpt>
      <trkpt lat="42.162335" lon="2.208140">
        <ele>645.449</ele>
        <time>2017-11-28T11:47:19Z</time>
      </trkpt>
      <trkpt lat="42.162287" lon="2.208108">
        <ele>646.165</ele>
        <time>2017-11-28T11:47:24Z</time>
      </trkpt>
      <trkpt lat="42.162234" lon="2.208090">
        <ele>646.464</ele>
        <time>2017-11-28T11:47:29Z</time>
      </trkpt>
      <trkpt lat="42.162187" lon="2.208071">
        <ele>646.950</ele>
        <time>2017-11-28T11:47:33Z</time>
      </trkpt>
      <trkpt lat="42.162139" lon="2.208034">
        <ele>646.417</ele>
        <time>2017-11-28T11:47:37Z</time>
      </trkpt>
      <trkpt lat="42.162098" lon="2.208010">
        <ele>645.892</ele>
        <time>2017-11-28T11:47:41Z</time>
      </trkpt>
      <trkpt lat="42.162050" lon="2.207985">
        <ele>645.673</ele>
        <time>2017-11-28T11:47:45Z</time>
      </trkpt>
      <trkpt lat="42.161997" lon="2.207951">
        <ele>645.520</ele>
        <time>2017-11-28T11:47:49Z</time>
      </trkpt>
      <trkpt lat="42.161957" lon="2.207916">
        <ele>645.708</ele>
        <time>2017-11-28T11:47:53Z</time>
      </trkpt>
      <trkpt lat="42.161910" lon="2.207884">
        <ele>645.521</ele>
        <time>2017-11-28T11:47:57Z</time>
      </trkpt>
      <trkpt lat="42.161869" lon="2.207854">
        <ele>645.310</ele>
        <time>2017-11-28T11:48:01Z</time>
      </trkpt>
      <trkpt lat="42.161831" lon="2.207818">
        <ele>645.361</ele>
        <time>2017-11-28T11:48:04Z</time>
      </trkpt>
      <trkpt lat="42.161784" lon="2.207778">
        <ele>645.115</ele>
        <time>2017-11-28T11:48:08Z</time>
      </trkpt>
      <trkpt lat="42.161744" lon="2.207736">
        <ele>644.541</ele>
        <time>2017-11-28T11:48:12Z</time>
      </trkpt>
      <trkpt lat="42.161698" lon="2.207698">
        <ele>644.810</ele>
        <time>2017-11-28T11:48:17Z</time>
      </trkpt>
      <trkpt lat="42.161640" lon="2.207681">
        <ele>644.696</ele>
        <time>2017-11-28T11:48:22Z</time>
      </trkpt>
      <trkpt lat="42.161593" lon="2.207675">
        <ele>645.193</ele>
        <time>2017-11-28T11:48:27Z</time>
      </trkpt>
      <trkpt lat="42.161541" lon="2.207688">
        <ele>645.028</ele>
        <time>2017-11-28T11:48:33Z</time>
      </trkpt>
      <trkpt lat="42.161489" lon="2.207705">
        <ele>645.289</ele>
        <time>2017-11-28T11:48:38Z</time>
      </trkpt>
      <trkpt lat="42.161446" lon="2.207725">
        <ele>645.417</ele>
        <time>2017-11-28T11:48:43Z</time>
      </trkpt>
      <trkpt lat="42.161399" lon="2.207735">
        <ele>645.308</ele>
        <time>2017-11-28T11:48:48Z</time>
      </trkpt>
      <trkpt lat="42.161347" lon="2.207729">
        <ele>645.524</ele>
        <time>2017-11-28T11:48:53Z</time>
      </trkpt>
      <trkpt lat="42.161294" lon="2.207718">
        <ele>645.333</ele>
        <time>2017-11-28T11:48:57Z</time>
      </trkpt>
      <trkpt lat="42.161246" lon="2.207695">
        <ele>645.514</ele>
        <time>2017-11-28T11:49:01Z</time>
      </trkpt>
      <trkpt lat="42.161198" lon="2.207683">
        <ele>646.038</ele>
        <time>2017-11-28T11:49:05Z</time>
      </trkpt>
      <trkpt lat="42.161152" lon="2.207673">
        <ele>646.584</ele>
        <time>2017-11-28T11:49:09Z</time>
      </trkpt>
      <trkpt lat="42.161108" lon="2.207657">
        <ele>647.383</ele>
        <time>2017-11-28T11:49:13Z</time>
      </trkpt>
      <trkpt lat="42.161064" lon="2.207634">
        <ele>647.339</ele>
        <time>2017-11-28T11:49:17Z</time>
      </trkpt>
      <trkpt lat="42.161012" lon="2.207620">
        <ele>647.236</ele>
        <time>2017-11-28T11:49:21Z</time>
      </trkpt>
      <trkpt lat="42.160968" lon="2.207604">
        <ele>647.138</ele>
        <time>2017-11-28T11:49:24Z</time>
      </trkpt>
      <trkpt lat="42.160919" lon="2.207587">
        <ele>647.570</ele>
        <time>2017-11-28T11:49:28Z</time>
      </trkpt>
      <trkpt lat="42.160872" lon="2.207574">
        <ele>648.417</ele>
        <time>2017-11-28T11:49:33Z</time>
      </trkpt>
      <trkpt lat="42.160823" lon="2.207569">
        <ele>648.208</ele>
        <time>2017-11-28T11:49:37Z</time>
      </trkpt>
      <trkpt lat="42.160767" lon="2.207554">
        <ele>648.665</ele>
        <time>2017-11-28T11:49:41Z</time>
      </trkpt>
      <trkpt lat="42.160712" lon="2.207547">
        <ele>648.184</ele>
        <time>2017-11-28T11:49:46Z</time>
      </trkpt>
      <trkpt lat="42.160660" lon="2.207549">
        <ele>647.635</ele>
        <time>2017-11-28T11:49:51Z</time>
      </trkpt>
      <trkpt lat="42.160610" lon="2.207547">
        <ele>647.239</ele>
        <time>2017-11-28T11:49:55Z</time>
      </trkpt>
      <trkpt lat="42.160555" lon="2.207563">
        <ele>646.985</ele>
        <time>2017-11-28T11:50:00Z</time>
      </trkpt>
      <trkpt lat="42.160508" lon="2.207564">
        <ele>646.884</ele>
        <time>2017-11-28T11:50:04Z</time>
      </trkpt>
      <trkpt lat="42.160457" lon="2.207566">
        <ele>646.750</ele>
        <time>2017-11-28T11:50:09Z</time>
      </trkpt>
      <trkpt lat="42.160401" lon="2.207556">
        <ele>647.287</ele>
        <time>2017-11-28T11:50:13Z</time>
      </trkpt>
      <trkpt lat="42.160348" lon="2.207540">
        <ele>647.589</ele>
        <time>2017-11-28T11:50:17Z</time>
      </trkpt>
      <trkpt lat="42.160294" lon="2.207514">
        <ele>647.706</ele>
        <time>2017-11-28T11:50:21Z</time>
      </trkpt>
      <trkpt lat="42.160236" lon="2.207492">
        <ele>647.126</ele>
        <time>2017-11-28T11:50:25Z</time>
      </trkpt>
      <trkpt lat="42.160182" lon="2.207463">
        <ele>646.808</ele>
        <time>2017-11-28T11:50:29Z</time>
      </trkpt>
      <trkpt lat="42.160141" lon="2.207434">
        <ele>646.720</ele>
        <time>2017-11-28T11:50:32Z</time>
      </trkpt>
      <trkpt lat="42.160093" lon="2.207396">
        <ele>646.519</ele>
        <time>2017-11-28T11:50:36Z</time>
      </trkpt>
      <trkpt lat="42.160046" lon="2.207382">
        <ele>645.890</ele>
        <time>2017-11-28T11:50:40Z</time>
      </trkpt>
      <trkpt lat="42.159996" lon="2.207343">
        <ele>645.064</ele>
        <time>2017-11-28T11:50:45Z</time>
      </trkpt>
      <trkpt lat="42.159952" lon="2.207298">
        <ele>645.420</ele>
        <time>2017-11-28T11:50:49Z</time>
      </trkpt>
      <trkpt lat="42.159910" lon="2.207255">
        <ele>645.489</ele>
        <time>2017-11-28T11:50:52Z</time>
      </trkpt>
      <trkpt lat="42.159862" lon="2.207212">
        <ele>645.115</ele>
        <time>2017-11-28T11:50:56Z</time>
      </trkpt>
      <trkpt lat="42.159819" lon="2.207181">
        <ele>644.842</ele>
        <time>2017-11-28T11:50:59Z</time>
      </trkpt>
      <trkpt lat="42.159772" lon="2.207146">
        <ele>644.255</ele>
        <time>2017-11-28T11:51:03Z</time>
      </trkpt>
      <trkpt lat="42.159736" lon="2.207107">
        <ele>644.107</ele>
        <time>2017-11-28T11:51:07Z</time>
      </trkpt>
      <trkpt lat="42.159698" lon="2.207073">
        <ele>644.217</ele>
        <time>2017-11-28T11:51:11Z</time>
      </trkpt>
      <trkpt lat="42.159652" lon="2.207043">
        <ele>644.108</ele>
        <time>2017-11-28T11:51:14Z</time>
      </trkpt>
      <trkpt lat="42.159606" lon="2.207010">
        <ele>643.787</ele>
        <time>2017-11-28T11:51:18Z</time>
      </trkpt>
      <trkpt lat="42.159561" lon="2.206973">
        <ele>643.536</ele>
        <time>2017-11-28T11:51:22Z</time>
      </trkpt>
      <trkpt lat="42.159521" lon="2.206944">
        <ele>642.947</ele>
        <time>2017-11-28T11:51:25Z</time>
      </trkpt>
      <trkpt lat="42.159472" lon="2.206910">
        <ele>643.651</ele>
        <time>2017-11-28T11:51:29Z</time>
      </trkpt>
      <trkpt lat="42.159417" lon="2.206877">
        <ele>643.867</ele>
        <time>2017-11-28T11:51:33Z</time>
      </trkpt>
      <trkpt lat="42.159367" lon="2.206841">
        <ele>644.136</ele>
        <time>2017-11-28T11:51:37Z</time>
      </trkpt>
      <trkpt lat="42.159318" lon="2.206807">
        <ele>644.432</ele>
        <time>2017-11-28T11:51:41Z</time>
      </trkpt>
      <trkpt lat="42.159269" lon="2.206776">
        <ele>644.779</ele>
        <time>2017-11-28T11:51:46Z</time>
      </trkpt>
      <trkpt lat="42.159221" lon="2.206745">
        <ele>644.898</ele>
        <time>2017-11-28T11:51:50Z</time>
      </trkpt>
      <trkpt lat="42.159176" lon="2.206712">
        <ele>644.915</ele>
        <time>2017-11-28T11:51:54Z</time>
      </trkpt>
      <trkpt lat="42.159133" lon="2.206682">
        <ele>645.226</ele>
        <time>2017-11-28T11:51:58Z</time>
      </trkpt>
      <trkpt lat="42.159081" lon="2.206652">
        <ele>645.408</ele>
        <time>2017-11-28T11:52:02Z</time>
      </trkpt>
      <trkpt lat="42.159041" lon="2.206621">
        <ele>645.781</ele>
        <time>2017-11-28T11:52:06Z</time>
      </trkpt>
      <trkpt lat="42.158990" lon="2.206588">
        <ele>645.620</ele>
        <time>2017-11-28T11:52:11Z</time>
      </trkpt>
      <trkpt lat="42.158949" lon="2.206559">
        <ele>645.061</ele>
        <time>2017-11-28T11:52:20Z</time>
      </trkpt>
      <trkpt lat="42.158899" lon="2.206555">
        <ele>644.385</ele>
        <time>2017-11-28T11:52:32Z</time>
      </trkpt>
      <trkpt lat="42.158850" lon="2.206524">
        <ele>644.311</ele>
        <time>2017-11-28T11:52:38Z</time>
      </trkpt>
      <trkpt lat="42.158807" lon="2.206500">
        <ele>643.720</ele>
        <time>2017-11-28T11:52:44Z</time>
      </trkpt>
      <trkpt lat="42.158760" lon="2.206474">
        <ele>643.286</ele>
        <time>2017-11-28T11:52:50Z</time>
      </trkpt>
      <trkpt lat="42.158716" lon="2.206454">
        <ele>644.123</ele>
        <time>2017-11-28T11:52:55Z</time>
      </trkpt>
      <trkpt lat="42.158661" lon="2.206436">
        <ele>644.986</ele>
        <time>2017-11-28T11:53:01Z</time>
      </trkpt>
      <trkpt lat="42.158615" lon="2.206427">
        <ele>645.060</ele>
        <time>2017-11-28T11:53:05Z</time>
      </trkpt>
      <trkpt lat="42.158567" lon="2.206413">
        <ele>645.126</ele>
        <time>2017-11-28T11:53:10Z</time>
      </trkpt>
      <trkpt lat="42.158519" lon="2.206403">
        <ele>645.108</ele>
        <time>2017-11-28T11:53:14Z</time>
      </trkpt>
      <trkpt lat="42.158469" lon="2.206394">
        <ele>645.270</ele>
        <time>2017-11-28T11:53:18Z</time>
      </trkpt>
      <trkpt lat="42.158411" lon="2.206385">
        <ele>645.129</ele>
        <time>2017-11-28T11:53:22Z</time>
      </trkpt>
      <trkpt lat="42.158362" lon="2.206365">
        <ele>645.050</ele>
        <time>2017-11-28T11:53:27Z</time>
      </trkpt>
      <trkpt lat="42.158311" lon="2.206352">
        <ele>645.264</ele>
        <time>2017-11-28T11:53:31Z</time>
      </trkpt>
      <trkpt lat="42.158255" lon="2.206336">
        <ele>645.490</ele>
        <time>2017-11-28T11:53:36Z</time>
      </trkpt>
      <trkpt lat="42.158210" lon="2.206332">
        <ele>645.119</ele>
        <time>2017-11-28T11:53:41Z</time>
      </trkpt>
      <trkpt lat="42.158157" lon="2.206314">
        <ele>645.155</ele>
        <time>2017-11-28T11:53:46Z</time>
      </trkpt>
      <trkpt lat="42.158106" lon="2.206291">
        <ele>644.762</ele>
        <time>2017-11-28T11:53:50Z</time>
      </trkpt>
      <trkpt lat="42.158059" lon="2.206297">
        <ele>644.413</ele>
        <time>2017-11-28T11:53:55Z</time>
      </trkpt>
      <trkpt lat="42.158002" lon="2.206293">
        <ele>644.743</ele>
        <time>2017-11-28T11:54:00Z</time>
      </trkpt>
      <trkpt lat="42.157954" lon="2.206283">
        <ele>644.607</ele>
        <time>2017-11-28T11:54:04Z</time>
      </trkpt>
      <trkpt lat="42.157905" lon="2.206266">
        <ele>644.408</ele>
        <time>2017-11-28T11:54:08Z</time>
      </trkpt>
      <trkpt lat="42.157854" lon="2.206262">
        <ele>643.933</ele>
        <time>2017-11-28T11:54:12Z</time>
      </trkpt>
      <trkpt lat="42.157801" lon="2.206269">
        <ele>643.342</ele>
        <time>2017-11-28T11:54:16Z</time>
      </trkpt>
      <trkpt lat="42.157747" lon="2.206287">
        <ele>643.223</ele>
        <time>2017-11-28T11:54:20Z</time>
      </trkpt>
      <trkpt lat="42.157697" lon="2.206308">
        <ele>643.087</ele>
        <time>2017-11-28T11:54:24Z</time>
      </trkpt>
      <trkpt lat="42.157660" lon="2.206349">
        <ele>642.493</ele>
        <time>2017-11-28T11:54:31Z</time>
      </trkpt>
      <trkpt lat="42.157616" lon="2.206366">
        <ele>642.012</ele>
        <time>2017-11-28T11:54:35Z</time>
      </trkpt>
      <trkpt lat="42.157568" lon="2.206385">
        <ele>641.878</ele>
        <time>2017-11-28T11:54:41Z</time>
      </trkpt>
      <trkpt lat="42.157520" lon="2.206412">
        <ele>641.215</ele>
        <time>2017-11-28T11:54:48Z</time>
      </trkpt>
      <trkpt lat="42.157475" lon="2.206444">
        <ele>641.689</ele>
        <time>2017-11-28T11:54:53Z</time>
      </trkpt>
      <trkpt lat="42.157433" lon="2.206465">
        <ele>640.806</ele>
        <time>2017-11-28T11:54:57Z</time>
      </trkpt>
      <trkpt lat="42.157382" lon="2.206494">
        <ele>641.126</ele>
        <time>2017-11-28T11:55:03Z</time>
      </trkpt>
      <trkpt lat="42.157333" lon="2.206499">
        <ele>640.908</ele>
        <time>2017-11-28T11:55:07Z</time>
      </trkpt>
      <trkpt lat="42.157284" lon="2.206498">
        <ele>640.850</ele>
        <time>2017-11-28T11:55:12Z</time>
      </trkpt>
      <trkpt lat="42.157237" lon="2.206495">
        <ele>641.029</ele>
        <time>2017-11-28T11:55:16Z</time>
      </trkpt>
      <trkpt lat="42.157184" lon="2.206477">
        <ele>641.560</ele>
        <time>2017-11-28T11:55:21Z</time>
      </trkpt>
      <trkpt lat="42.157135" lon="2.206458">
        <ele>641.444</ele>
        <time>2017-11-28T11:55:25Z</time>
      </trkpt>
      <trkpt lat="42.157091" lon="2.206444">
        <ele>641.890</ele>
        <time>2017-11-28T11:55:28Z</time>
      </trkpt>
      <trkpt lat="42.157046" lon="2.206431">
        <ele>641.999</ele>
        <time>2017-11-28T11:55:31Z</time>
      </trkpt>
      <trkpt lat="42.156992" lon="2.206420">
        <ele>642.245</ele>
        <time>2017-11-28T11:55:35Z</time>
      </trkpt>
      <trkpt lat="42.156942" lon="2.206409">
        <ele>643.012</ele>
        <time>2017-11-28T11:55:39Z</time>
      </trkpt>
      <trkpt lat="42.156884" lon="2.206411">
        <ele>643.485</ele>
        <time>2017-11-28T11:55:43Z</time>
      </trkpt>
      <trkpt lat="42.156831" lon="2.206391">
        <ele>643.389</ele>
        <time>2017-11-28T11:55:47Z</time>
      </trkpt>
      <trkpt lat="42.156786" lon="2.206368">
        <ele>643.017</ele>
        <time>2017-11-28T11:55:50Z</time>
      </trkpt>
      <trkpt lat="42.156744" lon="2.206339">
        <ele>642.608</ele>
        <time>2017-11-28T11:55:53Z</time>
      </trkpt>
      <trkpt lat="42.156694" lon="2.206312">
        <ele>641.890</ele>
        <time>2017-11-28T11:55:57Z</time>
      </trkpt>
      <trkpt lat="42.156646" lon="2.206278">
        <ele>642.049</ele>
        <time>2017-11-28T11:56:01Z</time>
      </trkpt>
      <trkpt lat="42.156615" lon="2.206202">
        <ele>639.660</ele>
        <time>2017-11-28T11:56:14Z</time>
      </trkpt>
      <trkpt lat="42.156566" lon="2.206183">
        <ele>639.384</ele>
        <time>2017-11-28T11:56:19Z</time>
      </trkpt>
      <trkpt lat="42.156512" lon="2.206175">
        <ele>638.340</ele>
        <time>2017-11-28T11:56:23Z</time>
      </trkpt>
      <trkpt lat="42.156462" lon="2.206207">
        <ele>637.399</ele>
        <time>2017-11-28T11:56:28Z</time>
      </trkpt>
      <trkpt lat="42.156413" lon="2.206232">
        <ele>637.515</ele>
        <time>2017-11-28T11:56:32Z</time>
      </trkpt>
      <trkpt lat="42.156362" lon="2.206246">
        <ele>636.882</ele>
        <time>2017-11-28T11:56:37Z</time>
      </trkpt>
      <trkpt lat="42.156312" lon="2.206270">
        <ele>636.025</ele>
        <time>2017-11-28T11:56:42Z</time>
      </trkpt>
      <trkpt lat="42.156268" lon="2.206283">
        <ele>636.026</ele>
        <time>2017-11-28T11:56:46Z</time>
      </trkpt>
      <trkpt lat="42.156220" lon="2.206300">
        <ele>635.908</ele>
        <time>2017-11-28T11:56:50Z</time>
      </trkpt>
      <trkpt lat="42.156169" lon="2.206316">
        <ele>635.608</ele>
        <time>2017-11-28T11:56:54Z</time>
      </trkpt>
      <trkpt lat="42.156114" lon="2.206329">
        <ele>635.734</ele>
        <time>2017-11-28T11:56:58Z</time>
      </trkpt>
      <trkpt lat="42.156063" lon="2.206341">
        <ele>635.493</ele>
        <time>2017-11-28T11:57:02Z</time>
      </trkpt>
      <trkpt lat="42.156010" lon="2.206357">
        <ele>635.384</ele>
        <time>2017-11-28T11:57:06Z</time>
      </trkpt>
      <trkpt lat="42.155959" lon="2.206363">
        <ele>634.128</ele>
        <time>2017-11-28T11:57:10Z</time>
      </trkpt>
      <trkpt lat="42.155907" lon="2.206384">
        <ele>632.674</ele>
        <time>2017-11-28T11:57:14Z</time>
      </trkpt>
      <trkpt lat="42.155858" lon="2.206411">
        <ele>632.323</ele>
        <time>2017-11-28T11:57:18Z</time>
      </trkpt>
      <trkpt lat="42.155806" lon="2.206431">
        <ele>632.579</ele>
        <time>2017-11-28T11:57:22Z</time>
      </trkpt>
      <trkpt lat="42.155761" lon="2.206453">
        <ele>632.496</ele>
        <time>2017-11-28T11:57:26Z</time>
      </trkpt>
      <trkpt lat="42.155720" lon="2.206485">
        <ele>632.624</ele>
        <time>2017-11-28T11:57:30Z</time>
      </trkpt>
      <trkpt lat="42.155673" lon="2.206517">
        <ele>632.504</ele>
        <time>2017-11-28T11:57:34Z</time>
      </trkpt>
      <trkpt lat="42.155627" lon="2.206543">
        <ele>632.414</ele>
        <time>2017-11-28T11:57:38Z</time>
      </trkpt>
      <trkpt lat="42.155578" lon="2.206576">
        <ele>632.108</ele>
        <time>2017-11-28T11:57:42Z</time>
      </trkpt>
      <trkpt lat="42.155542" lon="2.206613">
        <ele>631.954</ele>
        <time>2017-11-28T11:57:46Z</time>
      </trkpt>
      <trkpt lat="42.155503" lon="2.206659">
        <ele>631.013</ele>
        <time>2017-11-28T11:57:50Z</time>
      </trkpt>
      <trkpt lat="42.155452" lon="2.206698">
        <ele>632.354</ele>
        <time>2017-11-28T11:57:54Z</time>
      </trkpt>
      <trkpt lat="42.155410" lon="2.206737">
        <ele>631.898</ele>
        <time>2017-11-28T11:57:58Z</time>
      </trkpt>
      <trkpt lat="42.155364" lon="2.206774">
        <ele>632.174</ele>
        <time>2017-11-28T11:58:02Z</time>
      </trkpt>
      <trkpt lat="42.155319" lon="2.206820">
        <ele>631.663</ele>
        <time>2017-11-28T11:58:06Z</time>
      </trkpt>
      <trkpt lat="42.155276" lon="2.206859">
        <ele>631.059</ele>
        <time>2017-11-28T11:58:10Z</time>
      </trkpt>
      <trkpt lat="42.155236" lon="2.206896">
        <ele>630.626</ele>
        <time>2017-11-28T11:58:14Z</time>
      </trkpt>
      <trkpt lat="42.155187" lon="2.206933">
        <ele>629.867</ele>
        <time>2017-11-28T11:58:18Z</time>
      </trkpt>
      <trkpt lat="42.155137" lon="2.206968">
        <ele>628.381</ele>
        <time>2017-11-28T11:58:22Z</time>
      </trkpt>
      <trkpt lat="42.155092" lon="2.207006">
        <ele>627.519</ele>
        <time>2017-11-28T11:58:27Z</time>
      </trkpt>
      <trkpt lat="42.155056" lon="2.207044">
        <ele>626.908</ele>
        <time>2017-11-28T11:58:31Z</time>
      </trkpt>
      <trkpt lat="42.155014" lon="2.207073">
        <ele>626.848</ele>
        <time>2017-11-28T11:58:35Z</time>
      </trkpt>
      <trkpt lat="42.154981" lon="2.207116">
        <ele>627.597</ele>
        <time>2017-11-28T11:58:39Z</time>
      </trkpt>
      <trkpt lat="42.154947" lon="2.207167">
        <ele>627.328</ele>
        <time>2017-11-28T11:58:44Z</time>
      </trkpt>
      <trkpt lat="42.154914" lon="2.207228">
        <ele>627.242</ele>
        <time>2017-11-28T11:58:49Z</time>
      </trkpt>
      <trkpt lat="42.154880" lon="2.207276">
        <ele>627.278</ele>
        <time>2017-11-28T11:58:53Z</time>
      </trkpt>
      <trkpt lat="42.154855" lon="2.207329">
        <ele>627.687</ele>
        <time>2017-11-28T11:58:57Z</time>
      </trkpt>
      <trkpt lat="42.154829" lon="2.207388">
        <ele>628.773</ele>
        <time>2017-11-28T11:59:01Z</time>
      </trkpt>
      <trkpt lat="42.154813" lon="2.207449">
        <ele>628.670</ele>
        <time>2017-11-28T11:59:06Z</time>
      </trkpt>
      <trkpt lat="42.154808" lon="2.207512">
        <ele>628.323</ele>
        <time>2017-11-28T11:59:10Z</time>
      </trkpt>
      <trkpt lat="42.154808" lon="2.207580">
        <ele>628.183</ele>
        <time>2017-11-28T11:59:14Z</time>
      </trkpt>
      <trkpt lat="42.154802" lon="2.207650">
        <ele>628.511</ele>
        <time>2017-11-28T11:59:19Z</time>
      </trkpt>
      <trkpt lat="42.154808" lon="2.207711">
        <ele>628.708</ele>
        <time>2017-11-28T11:59:23Z</time>
      </trkpt>
      <trkpt lat="42.154816" lon="2.207771">
        <ele>629.134</ele>
        <time>2017-11-28T11:59:27Z</time>
      </trkpt>
      <trkpt lat="42.154833" lon="2.207828">
        <ele>628.733</ele>
        <time>2017-11-28T11:59:31Z</time>
      </trkpt>
      <trkpt lat="42.154851" lon="2.207889">
        <ele>629.284</ele>
        <time>2017-11-28T11:59:36Z</time>
      </trkpt>
      <trkpt lat="42.154869" lon="2.207949">
        <ele>628.878</ele>
        <time>2017-11-28T11:59:40Z</time>
      </trkpt>
      <trkpt lat="42.154870" lon="2.208012">
        <ele>630.814</ele>
        <time>2017-11-28T11:59:45Z</time>
      </trkpt>
      <trkpt lat="42.154861" lon="2.208080">
        <ele>631.813</ele>
        <time>2017-11-28T11:59:50Z</time>
      </trkpt>
      <trkpt lat="42.154861" lon="2.208144">
        <ele>631.289</ele>
        <time>2017-11-28T11:59:55Z</time>
      </trkpt>
      <trkpt lat="42.154847" lon="2.208207">
        <ele>629.936</ele>
        <time>2017-11-28T11:59:59Z</time>
      </trkpt>
      <trkpt lat="42.154839" lon="2.208273">
        <ele>629.736</ele>
        <time>2017-11-28T12:00:03Z</time>
      </trkpt>
      <trkpt lat="42.154827" lon="2.208344">
        <ele>629.317</ele>
        <time>2017-11-28T12:00:07Z</time>
      </trkpt>
      <trkpt lat="42.154811" lon="2.208416">
        <ele>629.618</ele>
        <time>2017-11-28T12:00:11Z</time>
      </trkpt>
      <trkpt lat="42.154798" lon="2.208475">
        <ele>629.908</ele>
        <time>2017-11-28T12:00:15Z</time>
      </trkpt>
      <trkpt lat="42.154783" lon="2.208548">
        <ele>630.455</ele>
        <time>2017-11-28T12:00:19Z</time>
      </trkpt>
      <trkpt lat="42.154769" lon="2.208616">
        <ele>629.894</ele>
        <time>2017-11-28T12:00:23Z</time>
      </trkpt>
      <trkpt lat="42.154755" lon="2.208678">
        <ele>629.415</ele>
        <time>2017-11-28T12:00:27Z</time>
      </trkpt>
      <trkpt lat="42.154719" lon="2.208737">
        <ele>629.459</ele>
        <time>2017-11-28T12:00:31Z</time>
      </trkpt>
      <trkpt lat="42.154684" lon="2.208794">
        <ele>629.225</ele>
        <time>2017-11-28T12:00:35Z</time>
      </trkpt>
      <trkpt lat="42.154642" lon="2.208848">
        <ele>629.964</ele>
        <time>2017-11-28T12:00:39Z</time>
      </trkpt>
      <trkpt lat="42.154612" lon="2.208902">
        <ele>630.340</ele>
        <time>2017-11-28T12:00:42Z</time>
      </trkpt>
      <trkpt lat="42.154575" lon="2.208946">
        <ele>630.667</ele>
        <time>2017-11-28T12:00:46Z</time>
      </trkpt>
      <trkpt lat="42.154525" lon="2.208925">
        <ele>630.571</ele>
        <time>2017-11-28T12:00:51Z</time>
      </trkpt>
      <trkpt lat="42.154475" lon="2.208918">
        <ele>630.941</ele>
        <time>2017-11-28T12:00:55Z</time>
      </trkpt>
      <trkpt lat="42.154423" lon="2.208906">
        <ele>631.015</ele>
        <time>2017-11-28T12:01:00Z</time>
      </trkpt>
      <trkpt lat="42.154370" lon="2.208892">
        <ele>631.708</ele>
        <time>2017-11-28T12:01:05Z</time>
      </trkpt>
      <trkpt lat="42.154319" lon="2.208876">
        <ele>631.069</ele>
        <time>2017-11-28T12:01:20Z</time>
      </trkpt>
      <trkpt lat="42.154271" lon="2.208873">
        <ele>630.748</ele>
        <time>2017-11-28T12:01:25Z</time>
      </trkpt>
      <trkpt lat="42.154219" lon="2.208859">
        <ele>630.249</ele>
        <time>2017-11-28T12:01:37Z</time>
      </trkpt>
      <trkpt lat="42.154163" lon="2.208863">
        <ele>629.953</ele>
        <time>2017-11-28T12:01:42Z</time>
      </trkpt>
      <trkpt lat="42.154108" lon="2.208854">
        <ele>629.469</ele>
        <time>2017-11-28T12:01:47Z</time>
      </trkpt>
      <trkpt lat="42.154044" lon="2.208851">
        <ele>628.238</ele>
        <time>2017-11-28T12:01:59Z</time>
      </trkpt>
      <trkpt lat="42.153999" lon="2.208843">
        <ele>628.374</ele>
        <time>2017-11-28T12:02:09Z</time>
      </trkpt>
      <trkpt lat="42.153951" lon="2.208852">
        <ele>628.571</ele>
        <time>2017-11-28T12:02:15Z</time>
      </trkpt>
      <trkpt lat="42.153899" lon="2.208862">
        <ele>627.577</ele>
        <time>2017-11-28T12:02:30Z</time>
      </trkpt>
      <trkpt lat="42.153853" lon="2.208871">
        <ele>627.361</ele>
        <time>2017-11-28T12:02:34Z</time>
      </trkpt>
      <trkpt lat="42.153803" lon="2.208884">
        <ele>627.327</ele>
        <time>2017-11-28T12:02:39Z</time>
      </trkpt>
      <trkpt lat="42.153755" lon="2.208898">
        <ele>628.108</ele>
        <time>2017-11-28T12:02:44Z</time>
      </trkpt>
      <trkpt lat="42.153709" lon="2.208877">
        <ele>628.229</ele>
        <time>2017-11-28T12:02:50Z</time>
      </trkpt>
      <trkpt lat="42.153670" lon="2.208839">
        <ele>629.268</ele>
        <time>2017-11-28T12:02:55Z</time>
      </trkpt>
      <trkpt lat="42.153628" lon="2.208805">
        <ele>630.099</ele>
        <time>2017-11-28T12:03:00Z</time>
      </trkpt>
      <trkpt lat="42.153589" lon="2.208772">
        <ele>632.253</ele>
        <time>2017-11-28T12:03:05Z</time>
      </trkpt>
      <trkpt lat="42.153546" lon="2.208753">
        <ele>633.689</ele>
        <time>2017-11-28T12:03:10Z</time>
      </trkpt>
      <trkpt lat="42.153499" lon="2.208718">
        <ele>634.268</ele>
        <time>2017-11-28T12:03:15Z</time>
      </trkpt>
      <trkpt lat="42.153458" lon="2.208672">
        <ele>635.574</ele>
        <time>2017-11-28T12:03:20Z</time>
      </trkpt>
      <trkpt lat="42.153433" lon="2.208613">
        <ele>636.391</ele>
        <time>2017-11-28T12:03:25Z</time>
      </trkpt>
      <trkpt lat="42.153406" lon="2.208552">
        <ele>637.361</ele>
        <time>2017-11-28T12:03:31Z</time>
      </trkpt>
      <trkpt lat="42.153376" lon="2.208506">
        <ele>639.421</ele>
        <time>2017-11-28T12:03:35Z</time>
      </trkpt>
      <trkpt lat="42.153349" lon="2.208454">
        <ele>640.313</ele>
        <time>2017-11-28T12:03:40Z</time>
      </trkpt>
      <trkpt lat="42.153325" lon="2.208392">
        <ele>641.408</ele>
        <time>2017-11-28T12:03:46Z</time>
      </trkpt>
      <trkpt lat="42.153296" lon="2.208343">
        <ele>642.158</ele>
        <time>2017-11-28T12:03:51Z</time>
      </trkpt>
      <trkpt lat="42.153262" lon="2.208301">
        <ele>643.497</ele>
        <time>2017-11-28T12:03:55Z</time>
      </trkpt>
      <trkpt lat="42.153226" lon="2.208265">
        <ele>644.958</ele>
        <time>2017-11-28T12:04:00Z</time>
      </trkpt>
      <trkpt lat="42.153197" lon="2.208213">
        <ele>647.482</ele>
        <time>2017-11-28T12:04:08Z</time>
      </trkpt>
      <trkpt lat="42.153150" lon="2.208158">
        <ele>649.888</ele>
        <time>2017-11-28T12:04:23Z</time>
      </trkpt>
      <trkpt lat="42.153109" lon="2.208117">
        <ele>650.197</ele>
        <time>2017-11-28T12:04:53Z</time>
      </trkpt>
      <trkpt lat="42.153080" lon="2.208071">
        <ele>650.213</ele>
        <time>2017-11-28T12:04:58Z</time>
      </trkpt>
      <trkpt lat="42.153045" lon="2.208019">
        <ele>651.050</ele>
        <time>2017-11-28T12:05:03Z</time>
      </trkpt>
      <trkpt lat="42.153013" lon="2.207965">
        <ele>650.535</ele>
        <time>2017-11-28T12:05:07Z</time>
      </trkpt>
      <trkpt lat="42.152987" lon="2.207897">
        <ele>650.186</ele>
        <time>2017-11-28T12:05:11Z</time>
      </trkpt>
      <trkpt lat="42.152968" lon="2.207827">
        <ele>649.814</ele>
        <time>2017-11-28T12:05:15Z</time>
      </trkpt>
      <trkpt lat="42.152960" lon="2.207765">
        <ele>650.208</ele>
        <time>2017-11-28T12:05:19Z</time>
      </trkpt>
      <trkpt lat="42.152960" lon="2.207688">
        <ele>650.465</ele>
        <time>2017-11-28T12:05:24Z</time>
      </trkpt>
      <trkpt lat="42.152974" lon="2.207629">
        <ele>650.734</ele>
        <time>2017-11-28T12:05:28Z</time>
      </trkpt>
      <trkpt lat="42.152982" lon="2.207555">
        <ele>650.635</ele>
        <time>2017-11-28T12:05:32Z</time>
      </trkpt>
      <trkpt lat="42.152988" lon="2.207477">
        <ele>650.719</ele>
        <time>2017-11-28T12:05:36Z</time>
      </trkpt>
      <trkpt lat="42.152998" lon="2.207404">
        <ele>651.165</ele>
        <time>2017-11-28T12:05:40Z</time>
      </trkpt>
      <trkpt lat="42.153007" lon="2.207328">
        <ele>651.664</ele>
        <time>2017-11-28T12:05:45Z</time>
      </trkpt>
      <trkpt lat="42.153025" lon="2.207258">
        <ele>651.370</ele>
        <time>2017-11-28T12:05:50Z</time>
      </trkpt>
      <trkpt lat="42.153036" lon="2.207197">
        <ele>651.297</ele>
        <time>2017-11-28T12:05:54Z</time>
      </trkpt>
      <trkpt lat="42.153038" lon="2.207128">
        <ele>650.416</ele>
        <time>2017-11-28T12:05:58Z</time>
      </trkpt>
      <trkpt lat="42.153032" lon="2.207059">
        <ele>649.976</ele>
        <time>2017-11-28T12:06:02Z</time>
      </trkpt>
      <trkpt lat="42.153019" lon="2.207000">
        <ele>649.913</ele>
        <time>2017-11-28T12:06:06Z</time>
      </trkpt>
      <trkpt lat="42.153002" lon="2.206935">
        <ele>649.208</ele>
        <time>2017-11-28T12:06:11Z</time>
      </trkpt>
      <trkpt lat="42.152979" lon="2.206876">
        <ele>648.373</ele>
        <time>2017-11-28T12:06:15Z</time>
      </trkpt>
      <trkpt lat="42.152950" lon="2.206811">
        <ele>647.912</ele>
        <time>2017-11-28T12:06:20Z</time>
      </trkpt>
      <trkpt lat="42.152925" lon="2.206757">
        <ele>647.733</ele>
        <time>2017-11-28T12:06:24Z</time>
      </trkpt>
      <trkpt lat="42.152899" lon="2.206699">
        <ele>647.837</ele>
        <time>2017-11-28T12:06:28Z</time>
      </trkpt>
      <trkpt lat="42.152869" lon="2.206643">
        <ele>647.623</ele>
        <time>2017-11-28T12:06:33Z</time>
      </trkpt>
      <trkpt lat="42.152851" lon="2.206584">
        <ele>647.342</ele>
        <time>2017-11-28T12:06:37Z</time>
      </trkpt>
      <trkpt lat="42.152823" lon="2.206523">
        <ele>646.998</ele>
        <time>2017-11-28T12:06:41Z</time>
      </trkpt>
      <trkpt lat="42.152792" lon="2.206469">
        <ele>646.665</ele>
        <time>2017-11-28T12:06:45Z</time>
      </trkpt>
      <trkpt lat="42.152760" lon="2.206406">
        <ele>646.484</ele>
        <time>2017-11-28T12:06:50Z</time>
      </trkpt>
      <trkpt lat="42.152729" lon="2.206347">
        <ele>646.707</ele>
        <time>2017-11-28T12:06:54Z</time>
      </trkpt>
      <trkpt lat="42.152696" lon="2.206282">
        <ele>646.617</ele>
        <time>2017-11-28T12:06:58Z</time>
      </trkpt>
      <trkpt lat="42.152663" lon="2.206221">
        <ele>646.508</ele>
        <time>2017-11-28T12:07:02Z</time>
      </trkpt>
      <trkpt lat="42.152634" lon="2.206165">
        <ele>646.730</ele>
        <time>2017-11-28T12:07:06Z</time>
      </trkpt>
      <trkpt lat="42.152612" lon="2.206111">
        <ele>646.229</ele>
        <time>2017-11-28T12:07:10Z</time>
      </trkpt>
      <trkpt lat="42.152585" lon="2.206047">
        <ele>645.730</ele>
        <time>2017-11-28T12:07:15Z</time>
      </trkpt>
      <trkpt lat="42.152566" lon="2.205991">
        <ele>645.364</ele>
        <time>2017-11-28T12:07:19Z</time>
      </trkpt>
      <trkpt lat="42.152540" lon="2.205925">
        <ele>645.320</ele>
        <time>2017-11-28T12:07:23Z</time>
      </trkpt>
      <trkpt lat="42.152513" lon="2.205867">
        <ele>644.499</ele>
        <time>2017-11-28T12:07:28Z</time>
      </trkpt>
      <trkpt lat="42.152490" lon="2.205801">
        <ele>643.835</ele>
        <time>2017-11-28T12:07:33Z</time>
      </trkpt>
      <trkpt lat="42.152467" lon="2.205737">
        <ele>643.752</ele>
        <time>2017-11-28T12:07:37Z</time>
      </trkpt>
      <trkpt lat="42.152441" lon="2.205675">
        <ele>643.645</ele>
        <time>2017-11-28T12:07:41Z</time>
      </trkpt>
      <trkpt lat="42.152422" lon="2.205609">
        <ele>642.847</ele>
        <time>2017-11-28T12:07:45Z</time>
      </trkpt>
      <trkpt lat="42.152405" lon="2.205551">
        <ele>642.811</ele>
        <time>2017-11-28T12:07:48Z</time>
      </trkpt>
      <trkpt lat="42.152391" lon="2.205490">
        <ele>642.708</ele>
        <time>2017-11-28T12:07:51Z</time>
      </trkpt>
      <trkpt lat="42.152367" lon="2.205416">
        <ele>642.896</ele>
        <time>2017-11-28T12:07:55Z</time>
      </trkpt>
      <trkpt lat="42.152350" lon="2.205359">
        <ele>643.485</ele>
        <time>2017-11-28T12:07:58Z</time>
      </trkpt>
      <trkpt lat="42.152336" lon="2.205287">
        <ele>643.566</ele>
        <time>2017-11-28T12:08:02Z</time>
      </trkpt>
      <trkpt lat="42.152316" lon="2.205230">
        <ele>643.460</ele>
        <time>2017-11-28T12:08:06Z</time>
      </trkpt>
      <trkpt lat="42.152305" lon="2.205154">
        <ele>643.366</ele>
        <time>2017-11-28T12:08:10Z</time>
      </trkpt>
      <trkpt lat="42.152297" lon="2.205084">
        <ele>643.215</ele>
        <time>2017-11-28T12:08:14Z</time>
      </trkpt>
      <trkpt lat="42.152295" lon="2.205017">
        <ele>642.611</ele>
        <time>2017-11-28T12:08:18Z</time>
      </trkpt>
      <trkpt lat="42.152287" lon="2.204947">
        <ele>641.758</ele>
        <time>2017-11-28T12:08:22Z</time>
      </trkpt>
      <trkpt lat="42.152284" lon="2.204872">
        <ele>641.812</ele>
        <time>2017-11-28T12:08:26Z</time>
      </trkpt>
      <trkpt lat="42.152275" lon="2.204807">
        <ele>641.732</ele>
        <time>2017-11-28T12:08:30Z</time>
      </trkpt>
      <trkpt lat="42.152264" lon="2.204739">
        <ele>641.405</ele>
        <time>2017-11-28T12:08:34Z</time>
      </trkpt>
      <trkpt lat="42.152250" lon="2.204676">
        <ele>641.608</ele>
        <time>2017-11-28T12:08:38Z</time>
      </trkpt>
      <trkpt lat="42.152243" lon="2.204609">
        <ele>640.923</ele>
        <time>2017-11-28T12:08:43Z</time>
      </trkpt>
      <trkpt lat="42.152234" lon="2.204546">
        <ele>640.642</ele>
        <time>2017-11-28T12:08:48Z</time>
      </trkpt>
      <trkpt lat="42.152233" lon="2.204478">
        <ele>640.963</ele>
        <time>2017-11-28T12:08:52Z</time>
      </trkpt>
      <trkpt lat="42.152232" lon="2.204400">
        <ele>640.647</ele>
        <time>2017-11-28T12:08:56Z</time>
      </trkpt>
      <trkpt lat="42.152228" lon="2.204326">
        <ele>641.193</ele>
        <time>2017-11-28T12:09:00Z</time>
      </trkpt>
      <trkpt lat="42.152230" lon="2.204253">
        <ele>641.052</ele>
        <time>2017-11-28T12:09:04Z</time>
      </trkpt>
      <trkpt lat="42.152227" lon="2.204182">
        <ele>641.248</ele>
        <time>2017-11-28T12:09:08Z</time>
      </trkpt>
      <trkpt lat="42.152217" lon="2.204106">
        <ele>641.315</ele>
        <time>2017-11-28T12:09:12Z</time>
      </trkpt>
      <trkpt lat="42.152217" lon="2.204044">
        <ele>641.878</ele>
        <time>2017-11-28T12:09:16Z</time>
      </trkpt>
      <trkpt lat="42.152219" lon="2.203970">
        <ele>642.133</ele>
        <time>2017-11-28T12:09:20Z</time>
      </trkpt>
      <trkpt lat="42.152215" lon="2.203907">
        <ele>641.726</ele>
        <time>2017-11-28T12:09:24Z</time>
      </trkpt>
      <trkpt lat="42.152205" lon="2.203842">
        <ele>641.308</ele>
        <time>2017-11-28T12:09:28Z</time>
      </trkpt>
      <trkpt lat="42.152196" lon="2.203776">
        <ele>640.999</ele>
        <time>2017-11-28T12:09:32Z</time>
      </trkpt>
      <trkpt lat="42.152205" lon="2.203705">
        <ele>640.498</ele>
        <time>2017-11-28T12:09:36Z</time>
      </trkpt>
      <trkpt lat="42.152206" lon="2.203637">
        <ele>640.959</ele>
        <time>2017-11-28T12:09:40Z</time>
      </trkpt>
      <trkpt lat="42.152204" lon="2.203567">
        <ele>640.823</ele>
        <time>2017-11-28T12:09:44Z</time>
      </trkpt>
      <trkpt lat="42.152197" lon="2.203497">
        <ele>640.279</ele>
        <time>2017-11-28T12:09:48Z</time>
      </trkpt>
      <trkpt lat="42.152180" lon="2.203427">
        <ele>640.048</ele>
        <time>2017-11-28T12:09:52Z</time>
      </trkpt>
      <trkpt lat="42.152173" lon="2.203364">
        <ele>639.754</ele>
        <time>2017-11-28T12:09:56Z</time>
      </trkpt>
      <trkpt lat="42.152172" lon="2.203296">
        <ele>639.411</ele>
        <time>2017-11-28T12:10:00Z</time>
      </trkpt>
      <trkpt lat="42.152160" lon="2.203226">
        <ele>639.145</ele>
        <time>2017-11-28T12:10:04Z</time>
      </trkpt>
      <trkpt lat="42.152142" lon="2.203157">
        <ele>638.447</ele>
        <time>2017-11-28T12:10:08Z</time>
      </trkpt>
      <trkpt lat="42.152128" lon="2.203098">
        <ele>637.811</ele>
        <time>2017-11-28T12:10:12Z</time>
      </trkpt>
      <trkpt lat="42.152105" lon="2.203041">
        <ele>637.908</ele>
        <time>2017-11-28T12:10:16Z</time>
      </trkpt>
      <trkpt lat="42.152085" lon="2.202978">
        <ele>637.386</ele>
        <time>2017-11-28T12:10:21Z</time>
      </trkpt>
      <trkpt lat="42.152066" lon="2.202918">
        <ele>637.075</ele>
        <time>2017-11-28T12:10:25Z</time>
      </trkpt>
      <trkpt lat="42.152044" lon="2.202853">
        <ele>636.856</ele>
        <time>2017-11-28T12:10:29Z</time>
      </trkpt>
      <trkpt lat="42.152031" lon="2.202791">
        <ele>636.810</ele>
        <time>2017-11-28T12:10:32Z</time>
      </trkpt>
      <trkpt lat="42.152015" lon="2.202733">
        <ele>637.676</ele>
        <time>2017-11-28T12:10:35Z</time>
      </trkpt>
      <trkpt lat="42.151997" lon="2.202673">
        <ele>637.695</ele>
        <time>2017-11-28T12:10:38Z</time>
      </trkpt>
      <trkpt lat="42.151980" lon="2.202616">
        <ele>637.981</ele>
        <time>2017-11-28T12:10:41Z</time>
      </trkpt>
      <trkpt lat="42.151960" lon="2.202545">
        <ele>636.838</ele>
        <time>2017-11-28T12:10:45Z</time>
      </trkpt>
      <trkpt lat="42.151940" lon="2.202476">
        <ele>636.745</ele>
        <time>2017-11-28T12:10:49Z</time>
      </trkpt>
      <trkpt lat="42.151926" lon="2.202413">
        <ele>636.847</ele>
        <time>2017-11-28T12:10:53Z</time>
      </trkpt>
      <trkpt lat="42.151908" lon="2.202346">
        <ele>636.911</ele>
        <time>2017-11-28T12:10:57Z</time>
      </trkpt>
      <trkpt lat="42.151889" lon="2.202282">
        <ele>636.908</ele>
        <time>2017-11-28T12:11:01Z</time>
      </trkpt>
      <trkpt lat="42.151867" lon="2.202213">
        <ele>636.966</ele>
        <time>2017-11-28T12:11:06Z</time>
      </trkpt>
      <trkpt lat="42.151844" lon="2.202151">
        <ele>636.165</ele>
        <time>2017-11-28T12:11:11Z</time>
      </trkpt>
      <trkpt lat="42.151892" lon="2.202140">
        <ele>635.246</ele>
        <time>2017-11-28T12:11:18Z</time>
      </trkpt>
      <trkpt lat="42.151938" lon="2.202112">
        <ele>636.340</ele>
        <time>2017-11-28T12:11:23Z</time>
      </trkpt>
      <trkpt lat="42.151976" lon="2.202074">
        <ele>636.376</ele>
        <time>2017-11-28T12:11:28Z</time>
      </trkpt>
      <trkpt lat="42.152016" lon="2.202023">
        <ele>636.835</ele>
        <time>2017-11-28T12:11:33Z</time>
      </trkpt>
      <trkpt lat="42.152059" lon="2.201979">
        <ele>637.681</ele>
        <time>2017-11-28T12:11:38Z</time>
      </trkpt>
      <trkpt lat="42.152090" lon="2.201932">
        <ele>638.828</ele>
        <time>2017-11-28T12:11:43Z</time>
      </trkpt>
      <trkpt lat="42.152128" lon="2.201886">
        <ele>639.467</ele>
        <time>2017-11-28T12:11:48Z</time>
      </trkpt>
      <trkpt lat="42.152157" lon="2.201829">
        <ele>639.581</ele>
        <time>2017-11-28T12:11:54Z</time>
      </trkpt>
      <trkpt lat="42.152184" lon="2.201765">
        <ele>639.919</ele>
        <time>2017-11-28T12:12:04Z</time>
      </trkpt>
      <trkpt lat="42.152206" lon="2.201700">
        <ele>640.308</ele>
        <time>2017-11-28T12:12:09Z</time>
      </trkpt>
      <trkpt lat="42.152220" lon="2.201636">
        <ele>640.778</ele>
        <time>2017-11-28T12:12:13Z</time>
      </trkpt>
      <trkpt lat="42.152238" lon="2.201575">
        <ele>640.717</ele>
        <time>2017-11-28T12:12:18Z</time>
      </trkpt>
      <trkpt lat="42.152254" lon="2.201517">
        <ele>640.328</ele>
        <time>2017-11-28T12:12:22Z</time>
      </trkpt>
      <trkpt lat="42.152287" lon="2.201469">
        <ele>640.412</ele>
        <time>2017-11-28T12:12:26Z</time>
      </trkpt>
      <trkpt lat="42.152330" lon="2.201429">
        <ele>641.188</ele>
        <time>2017-11-28T12:12:30Z</time>
      </trkpt>
      <trkpt lat="42.152374" lon="2.201409">
        <ele>641.577</ele>
        <time>2017-11-28T12:12:34Z</time>
      </trkpt>
      <trkpt lat="42.152426" lon="2.201395">
        <ele>641.913</ele>
        <time>2017-11-28T12:12:38Z</time>
      </trkpt>
      <trkpt lat="42.152480" lon="2.201398">
        <ele>642.490</ele>
        <time>2017-11-28T12:12:44Z</time>
      </trkpt>
      <trkpt lat="42.152529" lon="2.201401">
        <ele>642.783</ele>
        <time>2017-11-28T12:12:50Z</time>
      </trkpt>
      <trkpt lat="42.152577" lon="2.201418">
        <ele>643.625</ele>
        <time>2017-11-28T12:12:56Z</time>
      </trkpt>
      <trkpt lat="42.152623" lon="2.201425">
        <ele>643.917</ele>
        <time>2017-11-28T12:13:02Z</time>
      </trkpt>
      <trkpt lat="42.152668" lon="2.201416">
        <ele>644.408</ele>
        <time>2017-11-28T12:13:08Z</time>
      </trkpt>
      <trkpt lat="42.152706" lon="2.201377">
        <ele>644.720</ele>
        <time>2017-11-28T12:13:12Z</time>
      </trkpt>
      <trkpt lat="42.152724" lon="2.201322">
        <ele>643.999</ele>
        <time>2017-11-28T12:13:15Z</time>
      </trkpt>
      <trkpt lat="42.152737" lon="2.201263">
        <ele>643.090</ele>
        <time>2017-11-28T12:13:18Z</time>
      </trkpt>
      <trkpt lat="42.152746" lon="2.201203">
        <ele>642.854</ele>
        <time>2017-11-28T12:13:21Z</time>
      </trkpt>
      <trkpt lat="42.152747" lon="2.201131">
        <ele>642.430</ele>
        <time>2017-11-28T12:13:25Z</time>
      </trkpt>
      <trkpt lat="42.152749" lon="2.201068">
        <ele>642.749</ele>
        <time>2017-11-28T12:13:28Z</time>
      </trkpt>
      <trkpt lat="42.152752" lon="2.200995">
        <ele>642.475</ele>
        <time>2017-11-28T12:13:32Z</time>
      </trkpt>
      <trkpt lat="42.152747" lon="2.200922">
        <ele>641.972</ele>
        <time>2017-11-28T12:13:36Z</time>
      </trkpt>
      <trkpt lat="42.152741" lon="2.200861">
        <ele>641.237</ele>
        <time>2017-11-28T12:13:39Z</time>
      </trkpt>
      <trkpt lat="42.152738" lon="2.200800">
        <ele>641.449</ele>
        <time>2017-11-28T12:13:42Z</time>
      </trkpt>
      <trkpt lat="42.152734" lon="2.200722">
        <ele>642.013</ele>
        <time>2017-11-28T12:13:46Z</time>
      </trkpt>
      <trkpt lat="42.152754" lon="2.200651">
        <ele>643.008</ele>
        <time>2017-11-28T12:13:51Z</time>
      </trkpt>
      <trkpt lat="42.152771" lon="2.200580">
        <ele>644.795</ele>
        <time>2017-11-28T12:13:56Z</time>
      </trkpt>
      <trkpt lat="42.152817" lon="2.200539">
        <ele>644.854</ele>
        <time>2017-11-28T12:14:00Z</time>
      </trkpt>
      <trkpt lat="42.152867" lon="2.200512">
        <ele>645.365</ele>
        <time>2017-11-28T12:14:04Z</time>
      </trkpt>
      <trkpt lat="42.152914" lon="2.200496">
        <ele>645.929</ele>
        <time>2017-11-28T12:14:08Z</time>
      </trkpt>
      <trkpt lat="42.152963" lon="2.200474">
        <ele>645.625</ele>
        <time>2017-11-28T12:14:12Z</time>
      </trkpt>
      <trkpt lat="42.153006" lon="2.200446">
        <ele>646.554</ele>
        <time>2017-11-28T12:14:20Z</time>
      </trkpt>
      <trkpt lat="42.153045" lon="2.200401">
        <ele>647.750</ele>
        <time>2017-11-28T12:14:25Z</time>
      </trkpt>
      <trkpt lat="42.153089" lon="2.200364">
        <ele>648.347</ele>
        <time>2017-11-28T12:14:29Z</time>
      </trkpt>
      <trkpt lat="42.153139" lon="2.200324">
        <ele>647.854</ele>
        <time>2017-11-28T12:14:34Z</time>
      </trkpt>
      <trkpt lat="42.153182" lon="2.200299">
        <ele>647.356</ele>
        <time>2017-11-28T12:14:37Z</time>
      </trkpt>
      <trkpt lat="42.153225" lon="2.200273">
        <ele>647.211</ele>
        <time>2017-11-28T12:14:44Z</time>
      </trkpt>
      <trkpt lat="42.153267" lon="2.200248">
        <ele>649.108</ele>
        <time>2017-11-28T12:14:49Z</time>
      </trkpt>
      <trkpt lat="42.153310" lon="2.200227">
        <ele>648.947</ele>
        <time>2017-11-28T12:14:54Z</time>
      </trkpt>
      <trkpt lat="42.153366" lon="2.200220">
        <ele>648.616</ele>
        <time>2017-11-28T12:14:59Z</time>
      </trkpt>
      <trkpt lat="42.153408" lon="2.200190">
        <ele>649.367</ele>
        <time>2017-11-28T12:15:03Z</time>
      </trkpt>
      <trkpt lat="42.153453" lon="2.200159">
        <ele>650.231</ele>
        <time>2017-11-28T12:15:08Z</time>
      </trkpt>
      <trkpt lat="42.153494" lon="2.200124">
        <ele>651.297</ele>
        <time>2017-11-28T12:15:12Z</time>
      </trkpt>
      <trkpt lat="42.153542" lon="2.200104">
        <ele>652.496</ele>
        <time>2017-11-28T12:15:16Z</time>
      </trkpt>
      <trkpt lat="42.153590" lon="2.200098">
        <ele>653.162</ele>
        <time>2017-11-28T12:15:20Z</time>
      </trkpt>
      <trkpt lat="42.153637" lon="2.200107">
        <ele>653.619</ele>
        <time>2017-11-28T12:15:25Z</time>
      </trkpt>
      <trkpt lat="42.153685" lon="2.200107">
        <ele>654.326</ele>
        <time>2017-11-28T12:15:29Z</time>
      </trkpt>
      <trkpt lat="42.153742" lon="2.200098">
        <ele>655.147</ele>
        <time>2017-11-28T12:15:34Z</time>
      </trkpt>
      <trkpt lat="42.153787" lon="2.200103">
        <ele>655.811</ele>
        <time>2017-11-28T12:15:38Z</time>
      </trkpt>
      <trkpt lat="42.153840" lon="2.200109">
        <ele>656.708</ele>
        <time>2017-11-28T12:15:43Z</time>
      </trkpt>
      <trkpt lat="42.153893" lon="2.200113">
        <ele>657.484</ele>
        <time>2017-11-28T12:15:47Z</time>
      </trkpt>
      <trkpt lat="42.153946" lon="2.200136">
        <ele>657.783</ele>
        <time>2017-11-28T12:15:51Z</time>
      </trkpt>
      <trkpt lat="42.153993" lon="2.200168">
        <ele>657.954</ele>
        <time>2017-11-28T12:15:55Z</time>
      </trkpt>
      <trkpt lat="42.154047" lon="2.200180">
        <ele>657.748</ele>
        <time>2017-11-28T12:15:59Z</time>
      </trkpt>
      <trkpt lat="42.154097" lon="2.200199">
        <ele>657.744</ele>
        <time>2017-11-28T12:16:03Z</time>
      </trkpt>
      <trkpt lat="42.154149" lon="2.200199">
        <ele>657.963</ele>
        <time>2017-11-28T12:16:07Z</time>
      </trkpt>
      <trkpt lat="42.154198" lon="2.200184">
        <ele>658.149</ele>
        <time>2017-11-28T12:16:11Z</time>
      </trkpt>
      <trkpt lat="42.154244" lon="2.200183">
        <ele>658.196</ele>
        <time>2017-11-28T12:16:16Z</time>
      </trkpt>
      <trkpt lat="42.154299" lon="2.200186">
        <ele>657.952</ele>
        <time>2017-11-28T12:16:21Z</time>
      </trkpt>
      <trkpt lat="42.154345" lon="2.200188">
        <ele>658.153</ele>
        <time>2017-11-28T12:16:25Z</time>
      </trkpt>
      <trkpt lat="42.154376" lon="2.200236">
        <ele>658.708</ele>
        <time>2017-11-28T12:16:29Z</time>
      </trkpt>
      <trkpt lat="42.154352" lon="2.200295">
        <ele>657.608</ele>
        <time>2017-11-28T12:16:33Z</time>
      </trkpt>
      <trkpt lat="42.154304" lon="2.200315">
        <ele>657.427</ele>
        <time>2017-11-28T12:16:36Z</time>
      </trkpt>
      <trkpt lat="42.154251" lon="2.200327">
        <ele>657.546</ele>
        <time>2017-11-28T12:16:39Z</time>
      </trkpt>
      <trkpt lat="42.154196" lon="2.200333">
        <ele>657.397</ele>
        <time>2017-11-28T12:16:43Z</time>
      </trkpt>
      <trkpt lat="42.154137" lon="2.200332">
        <ele>657.141</ele>
        <time>2017-11-28T12:16:47Z</time>
      </trkpt>
      <trkpt lat="42.154092" lon="2.200332">
        <ele>656.647</ele>
        <time>2017-11-28T12:16:51Z</time>
      </trkpt>
      <trkpt lat="42.154041" lon="2.200335">
        <ele>656.716</ele>
        <time>2017-11-28T12:16:55Z</time>
      </trkpt>
      <trkpt lat="42.153986" lon="2.200326">
        <ele>655.222</ele>
        <time>2017-11-28T12:17:00Z</time>
      </trkpt>
      <trkpt lat="42.153935" lon="2.200313">
        <ele>654.649</ele>
        <time>2017-11-28T12:17:04Z</time>
      </trkpt>
      <trkpt lat="42.153878" lon="2.200287">
        <ele>654.059</ele>
        <time>2017-11-28T12:17:08Z</time>
      </trkpt>
      <trkpt lat="42.153832" lon="2.200279">
        <ele>653.803</ele>
        <time>2017-11-28T12:17:11Z</time>
      </trkpt>
      <trkpt lat="42.153782" lon="2.200282">
        <ele>653.223</ele>
        <time>2017-11-28T12:17:15Z</time>
      </trkpt>
      <trkpt lat="42.153733" lon="2.200283">
        <ele>652.908</ele>
        <time>2017-11-28T12:17:19Z</time>
      </trkpt>
      <trkpt lat="42.153687" lon="2.200287">
        <ele>651.727</ele>
        <time>2017-11-28T12:17:23Z</time>
      </trkpt>
      <trkpt lat="42.153639" lon="2.200287">
        <ele>651.246</ele>
        <time>2017-11-28T12:17:27Z</time>
      </trkpt>
      <trkpt lat="42.153584" lon="2.200300">
        <ele>650.727</ele>
        <time>2017-11-28T12:17:32Z</time>
      </trkpt>
      <trkpt lat="42.153527" lon="2.200305">
        <ele>650.311</ele>
        <time>2017-11-28T12:17:36Z</time>
      </trkpt>
      <trkpt lat="42.153475" lon="2.200317">
        <ele>650.097</ele>
        <time>2017-11-28T12:17:40Z</time>
      </trkpt>
      <trkpt lat="42.153429" lon="2.200329">
        <ele>649.686</ele>
        <time>2017-11-28T12:17:43Z</time>
      </trkpt>
      <trkpt lat="42.153369" lon="2.200347">
        <ele>649.622</ele>
        <time>2017-11-28T12:17:47Z</time>
      </trkpt>
      <trkpt lat="42.153324" lon="2.200365">
        <ele>649.879</ele>
        <time>2017-11-28T12:17:50Z</time>
      </trkpt>
      <trkpt lat="42.153271" lon="2.200397">
        <ele>649.997</ele>
        <time>2017-11-28T12:17:54Z</time>
      </trkpt>
      <trkpt lat="42.153227" lon="2.200424">
        <ele>649.823</ele>
        <time>2017-11-28T12:17:57Z</time>
      </trkpt>
      <trkpt lat="42.153184" lon="2.200458">
        <ele>649.425</ele>
        <time>2017-11-28T12:18:01Z</time>
      </trkpt>
      <trkpt lat="42.153140" lon="2.200513">
        <ele>649.908</ele>
        <time>2017-11-28T12:18:06Z</time>
      </trkpt>
      <trkpt lat="42.153100" lon="2.200551">
        <ele>648.761</ele>
        <time>2017-11-28T12:18:09Z</time>
      </trkpt>
      <trkpt lat="42.153058" lon="2.200599">
        <ele>648.430</ele>
        <time>2017-11-28T12:18:13Z</time>
      </trkpt>
      <trkpt lat="42.153017" lon="2.200649">
        <ele>648.211</ele>
        <time>2017-11-28T12:18:17Z</time>
      </trkpt>
      <trkpt lat="42.152973" lon="2.200705">
        <ele>647.435</ele>
        <time>2017-11-28T12:18:22Z</time>
      </trkpt>
      <trkpt lat="42.152937" lon="2.200763">
        <ele>647.091</ele>
        <time>2017-11-28T12:18:26Z</time>
      </trkpt>
      <trkpt lat="42.152900" lon="2.200817">
        <ele>646.760</ele>
        <time>2017-11-28T12:18:30Z</time>
      </trkpt>
      <trkpt lat="42.152853" lon="2.200852">
        <ele>646.956</ele>
        <time>2017-11-28T12:18:35Z</time>
      </trkpt>
      <trkpt lat="42.152803" lon="2.200866">
        <ele>645.923</ele>
        <time>2017-11-28T12:18:40Z</time>
      </trkpt>
      <trkpt lat="42.152754" lon="2.200870">
        <ele>645.852</ele>
        <time>2017-11-28T12:18:44Z</time>
      </trkpt>
      <trkpt lat="42.152703" lon="2.200867">
        <ele>645.653</ele>
        <time>2017-11-28T12:18:48Z</time>
      </trkpt>
      <trkpt lat="42.152657" lon="2.200875">
        <ele>644.608</ele>
        <time>2017-11-28T12:18:53Z</time>
      </trkpt>
      <trkpt lat="42.152609" lon="2.200875">
        <ele>644.208</ele>
        <time>2017-11-28T12:18:57Z</time>
      </trkpt>
      <trkpt lat="42.152555" lon="2.200869">
        <ele>643.977</ele>
        <time>2017-11-28T12:19:01Z</time>
      </trkpt>
      <trkpt lat="42.152502" lon="2.200868">
        <ele>643.896</ele>
        <time>2017-11-28T12:19:05Z</time>
      </trkpt>
      <trkpt lat="42.152448" lon="2.200866">
        <ele>643.517</ele>
        <time>2017-11-28T12:19:10Z</time>
      </trkpt>
      <trkpt lat="42.152398" lon="2.200869">
        <ele>643.031</ele>
        <time>2017-11-28T12:19:14Z</time>
      </trkpt>
      <trkpt lat="42.152351" lon="2.200866">
        <ele>642.537</ele>
        <time>2017-11-28T12:19:19Z</time>
      </trkpt>
      <trkpt lat="42.152298" lon="2.200863">
        <ele>642.666</ele>
        <time>2017-11-28T12:19:23Z</time>
      </trkpt>
      <trkpt lat="42.152251" lon="2.200862">
        <ele>642.482</ele>
        <time>2017-11-28T12:19:26Z</time>
      </trkpt>
      <trkpt lat="42.152195" lon="2.200863">
        <ele>642.419</ele>
        <time>2017-11-28T12:19:30Z</time>
      </trkpt>
      <trkpt lat="42.152149" lon="2.200862">
        <ele>642.145</ele>
        <time>2017-11-28T12:19:33Z</time>
      </trkpt>
      <trkpt lat="42.152095" lon="2.200864">
        <ele>642.247</ele>
        <time>2017-11-28T12:19:36Z</time>
      </trkpt>
      <trkpt lat="42.152049" lon="2.200863">
        <ele>641.811</ele>
        <time>2017-11-28T12:19:39Z</time>
      </trkpt>
      <trkpt lat="42.151996" lon="2.200871">
        <ele>641.408</ele>
        <time>2017-11-28T12:19:43Z</time>
      </trkpt>
      <trkpt lat="42.151946" lon="2.200880">
        <ele>640.726</ele>
        <time>2017-11-28T12:19:47Z</time>
      </trkpt>
      <trkpt lat="42.151898" lon="2.200885">
        <ele>640.955</ele>
        <time>2017-11-28T12:19:51Z</time>
      </trkpt>
      <trkpt lat="42.151842" lon="2.200893">
        <ele>641.256</ele>
        <time>2017-11-28T12:19:55Z</time>
      </trkpt>
      <trkpt lat="42.151797" lon="2.200900">
        <ele>641.330</ele>
        <time>2017-11-28T12:19:58Z</time>
      </trkpt>
      <trkpt lat="42.151739" lon="2.200906">
        <ele>641.056</ele>
        <time>2017-11-28T12:20:02Z</time>
      </trkpt>
      <trkpt lat="42.151688" lon="2.200902">
        <ele>640.565</ele>
        <time>2017-11-28T12:20:06Z</time>
      </trkpt>
      <trkpt lat="42.151639" lon="2.200909">
        <ele>640.231</ele>
        <time>2017-11-28T12:20:10Z</time>
      </trkpt>
      <trkpt lat="42.151592" lon="2.200914">
        <ele>639.538</ele>
        <time>2017-11-28T12:20:15Z</time>
      </trkpt>
      <trkpt lat="42.151541" lon="2.200915">
        <ele>639.138</ele>
        <time>2017-11-28T12:20:19Z</time>
      </trkpt>
      <trkpt lat="42.151492" lon="2.200913">
        <ele>639.070</ele>
        <time>2017-11-28T12:20:23Z</time>
      </trkpt>
      <trkpt lat="42.151446" lon="2.200910">
        <ele>638.817</ele>
        <time>2017-11-28T12:20:27Z</time>
      </trkpt>
      <trkpt lat="42.151397" lon="2.200908">
        <ele>639.008</ele>
        <time>2017-11-28T12:20:31Z</time>
      </trkpt>
      <trkpt lat="42.151351" lon="2.200913">
        <ele>638.845</ele>
        <time>2017-11-28T12:20:34Z</time>
      </trkpt>
      <trkpt lat="42.151307" lon="2.200925">
        <ele>638.314</ele>
        <time>2017-11-28T12:20:37Z</time>
      </trkpt>
      <trkpt lat="42.151255" lon="2.200940">
        <ele>637.985</ele>
        <time>2017-11-28T12:20:41Z</time>
      </trkpt>
      <trkpt lat="42.151201" lon="2.200947">
        <ele>637.549</ele>
        <time>2017-11-28T12:20:45Z</time>
      </trkpt>
      <trkpt lat="42.151154" lon="2.200964">
        <ele>637.255</ele>
        <time>2017-11-28T12:20:49Z</time>
      </trkpt>
      <trkpt lat="42.151101" lon="2.200970">
        <ele>636.664</ele>
        <time>2017-11-28T12:20:54Z</time>
      </trkpt>
      <trkpt lat="42.151050" lon="2.200985">
        <ele>635.950</ele>
        <time>2017-11-28T12:20:58Z</time>
      </trkpt>
      <trkpt lat="42.151000" lon="2.200993">
        <ele>635.057</ele>
        <time>2017-11-28T12:21:02Z</time>
      </trkpt>
      <trkpt lat="42.150955" lon="2.201005">
        <ele>634.564</ele>
        <time>2017-11-28T12:21:06Z</time>
      </trkpt>
      <trkpt lat="42.150909" lon="2.201019">
        <ele>633.906</ele>
        <time>2017-11-28T12:21:10Z</time>
      </trkpt>
      <trkpt lat="42.150864" lon="2.201020">
        <ele>633.216</ele>
        <time>2017-11-28T12:21:14Z</time>
      </trkpt>
      <trkpt lat="42.150810" lon="2.201036">
        <ele>633.008</ele>
        <time>2017-11-28T12:21:18Z</time>
      </trkpt>
      <trkpt lat="42.150759" lon="2.201063">
        <ele>633.028</ele>
        <time>2017-11-28T12:21:22Z</time>
      </trkpt>
      <trkpt lat="42.150721" lon="2.201096">
        <ele>632.767</ele>
        <time>2017-11-28T12:21:25Z</time>
      </trkpt>
      <trkpt lat="42.150672" lon="2.201131">
        <ele>631.928</ele>
        <time>2017-11-28T12:21:29Z</time>
      </trkpt>
      <trkpt lat="42.150630" lon="2.201156">
        <ele>631.652</ele>
        <time>2017-11-28T12:21:32Z</time>
      </trkpt>
      <trkpt lat="42.150584" lon="2.201186">
        <ele>631.838</ele>
        <time>2017-11-28T12:21:36Z</time>
      </trkpt>
      <trkpt lat="42.150548" lon="2.201231">
        <ele>631.847</ele>
        <time>2017-11-28T12:21:39Z</time>
      </trkpt>
      <trkpt lat="42.150502" lon="2.201271">
        <ele>631.593</ele>
        <time>2017-11-28T12:21:43Z</time>
      </trkpt>
      <trkpt lat="42.150458" lon="2.201299">
        <ele>631.170</ele>
        <time>2017-11-28T12:21:46Z</time>
      </trkpt>
      <trkpt lat="42.150407" lon="2.201337">
        <ele>631.122</ele>
        <time>2017-11-28T12:21:50Z</time>
      </trkpt>
      <trkpt lat="42.150367" lon="2.201368">
        <ele>630.962</ele>
        <time>2017-11-28T12:21:53Z</time>
      </trkpt>
      <trkpt lat="42.150328" lon="2.201406">
        <ele>630.708</ele>
        <time>2017-11-28T12:21:56Z</time>
      </trkpt>
      <trkpt lat="42.150291" lon="2.201444">
        <ele>631.108</ele>
        <time>2017-11-28T12:21:59Z</time>
      </trkpt>
      <trkpt lat="42.150240" lon="2.201472">
        <ele>630.384</ele>
        <time>2017-11-28T12:22:03Z</time>
      </trkpt>
      <trkpt lat="42.150195" lon="2.201488">
        <ele>630.023</ele>
        <time>2017-11-28T12:22:07Z</time>
      </trkpt>
      <trkpt lat="42.150150" lon="2.201510">
        <ele>629.784</ele>
        <time>2017-11-28T12:22:11Z</time>
      </trkpt>
      <trkpt lat="42.150108" lon="2.201545">
        <ele>630.078</ele>
        <time>2017-11-28T12:22:15Z</time>
      </trkpt>
      <trkpt lat="42.150060" lon="2.201565">
        <ele>630.114</ele>
        <time>2017-11-28T12:22:19Z</time>
      </trkpt>
      <trkpt lat="42.150017" lon="2.201590">
        <ele>630.683</ele>
        <time>2017-11-28T12:22:23Z</time>
      </trkpt>
      <trkpt lat="42.149971" lon="2.201622">
        <ele>630.549</ele>
        <time>2017-11-28T12:22:28Z</time>
      </trkpt>
      <trkpt lat="42.149931" lon="2.201667">
        <ele>630.216</ele>
        <time>2017-11-28T12:22:32Z</time>
      </trkpt>
      <trkpt lat="42.149885" lon="2.201711">
        <ele>630.577</ele>
        <time>2017-11-28T12:22:36Z</time>
      </trkpt>
      <trkpt lat="42.149850" lon="2.201751">
        <ele>630.161</ele>
        <time>2017-11-28T12:22:39Z</time>
      </trkpt>
      <trkpt lat="42.149813" lon="2.201809">
        <ele>630.127</ele>
        <time>2017-11-28T12:22:43Z</time>
      </trkpt>
      <trkpt lat="42.149778" lon="2.201858">
        <ele>630.308</ele>
        <time>2017-11-28T12:22:47Z</time>
      </trkpt>
      <trkpt lat="42.149744" lon="2.201903">
        <ele>630.319</ele>
        <time>2017-11-28T12:22:51Z</time>
      </trkpt>
      <trkpt lat="42.149712" lon="2.201950">
        <ele>630.558</ele>
        <time>2017-11-28T12:22:54Z</time>
      </trkpt>
      <trkpt lat="42.149675" lon="2.201999">
        <ele>630.429</ele>
        <time>2017-11-28T12:22:58Z</time>
      </trkpt>
      <trkpt lat="42.149643" lon="2.202046">
        <ele>630.663</ele>
        <time>2017-11-28T12:23:02Z</time>
      </trkpt>
      <trkpt lat="42.149601" lon="2.202084">
        <ele>630.459</ele>
        <time>2017-11-28T12:23:06Z</time>
      </trkpt>
      <trkpt lat="42.149566" lon="2.202137">
        <ele>630.268</ele>
        <time>2017-11-28T12:23:11Z</time>
      </trkpt>
      <trkpt lat="42.149533" lon="2.202188">
        <ele>629.644</ele>
        <time>2017-11-28T12:23:15Z</time>
      </trkpt>
      <trkpt lat="42.149493" lon="2.202230">
        <ele>630.161</ele>
        <time>2017-11-28T12:23:19Z</time>
      </trkpt>
      <trkpt lat="42.149464" lon="2.202277">
        <ele>630.543</ele>
        <time>2017-11-28T12:23:23Z</time>
      </trkpt>
      <trkpt lat="42.149429" lon="2.202322">
        <ele>630.364</ele>
        <time>2017-11-28T12:23:27Z</time>
      </trkpt>
      <trkpt lat="42.149391" lon="2.202369">
        <ele>630.210</ele>
        <time>2017-11-28T12:23:31Z</time>
      </trkpt>
      <trkpt lat="42.149355" lon="2.202418">
        <ele>630.008</ele>
        <time>2017-11-28T12:23:35Z</time>
      </trkpt>
      <trkpt lat="42.149314" lon="2.202467">
        <ele>629.496</ele>
        <time>2017-11-28T12:23:40Z</time>
      </trkpt>
      <trkpt lat="42.149268" lon="2.202511">
        <ele>629.685</ele>
        <time>2017-11-28T12:23:45Z</time>
      </trkpt>
      <trkpt lat="42.149229" lon="2.202550">
        <ele>629.346</ele>
        <time>2017-11-28T12:23:49Z</time>
      </trkpt>
      <trkpt lat="42.149192" lon="2.202585">
        <ele>629.590</ele>
        <time>2017-11-28T12:23:53Z</time>
      </trkpt>
      <trkpt lat="42.149156" lon="2.202623">
        <ele>629.876</ele>
        <time>2017-11-28T12:23:57Z</time>
      </trkpt>
      <trkpt lat="42.149122" lon="2.202671">
        <ele>629.565</ele>
        <time>2017-11-28T12:24:01Z</time>
      </trkpt>
      <trkpt lat="42.149070" lon="2.202690">
        <ele>630.041</ele>
        <time>2017-11-28T12:24:05Z</time>
      </trkpt>
      <trkpt lat="42.149017" lon="2.202729">
        <ele>630.388</ele>
        <time>2017-11-28T12:24:09Z</time>
      </trkpt>
      <trkpt lat="42.148977" lon="2.202761">
        <ele>630.777</ele>
        <time>2017-11-28T12:24:12Z</time>
      </trkpt>
      <trkpt lat="42.148937" lon="2.202792">
        <ele>630.961</ele>
        <time>2017-11-28T12:24:15Z</time>
      </trkpt>
      <trkpt lat="42.148897" lon="2.202821">
        <ele>630.827</ele>
        <time>2017-11-28T12:24:18Z</time>
      </trkpt>
      <trkpt lat="42.148848" lon="2.202859">
        <ele>630.508</ele>
        <time>2017-11-28T12:24:22Z</time>
      </trkpt>
      <trkpt lat="42.148797" lon="2.202890">
        <ele>630.479</ele>
        <time>2017-11-28T12:24:26Z</time>
      </trkpt>
      <trkpt lat="42.148746" lon="2.202928">
        <ele>629.888</ele>
        <time>2017-11-28T12:24:30Z</time>
      </trkpt>
      <trkpt lat="42.148695" lon="2.202966">
        <ele>629.739</ele>
        <time>2017-11-28T12:24:34Z</time>
      </trkpt>
      <trkpt lat="42.148647" lon="2.202998">
        <ele>629.853</ele>
        <time>2017-11-28T12:24:38Z</time>
      </trkpt>
      <trkpt lat="42.148601" lon="2.203029">
        <ele>630.229</ele>
        <time>2017-11-28T12:24:42Z</time>
      </trkpt>
      <trkpt lat="42.148553" lon="2.203054">
        <ele>630.298</ele>
        <time>2017-11-28T12:24:46Z</time>
      </trkpt>
      <trkpt lat="42.148504" lon="2.203077">
        <ele>630.254</ele>
        <time>2017-11-28T12:24:50Z</time>
      </trkpt>
      <trkpt lat="42.148458" lon="2.203104">
        <ele>630.191</ele>
        <time>2017-11-28T12:24:54Z</time>
      </trkpt>
      <trkpt lat="42.148416" lon="2.203133">
        <ele>630.157</ele>
        <time>2017-11-28T12:24:58Z</time>
      </trkpt>
      <trkpt lat="42.148370" lon="2.203155">
        <ele>630.300</ele>
        <time>2017-11-28T12:25:02Z</time>
      </trkpt>
      <trkpt lat="42.148328" lon="2.203183">
        <ele>630.520</ele>
        <time>2017-11-28T12:25:06Z</time>
      </trkpt>
      <trkpt lat="42.148282" lon="2.203215">
        <ele>630.608</ele>
        <time>2017-11-28T12:25:10Z</time>
      </trkpt>
      <trkpt lat="42.148235" lon="2.203246">
        <ele>630.877</ele>
        <time>2017-11-28T12:25:14Z</time>
      </trkpt>
      <trkpt lat="42.148181" lon="2.203276">
        <ele>631.016</ele>
        <time>2017-11-28T12:25:18Z</time>
      </trkpt>
      <trkpt lat="42.148139" lon="2.203303">
        <ele>631.587</ele>
        <time>2017-11-28T12:25:21Z</time>
      </trkpt>
      <trkpt lat="42.148086" lon="2.203340">
        <ele>631.611</ele>
        <time>2017-11-28T12:25:25Z</time>
      </trkpt>
      <trkpt lat="42.148038" lon="2.203375">
        <ele>631.967</ele>
        <time>2017-11-28T12:25:29Z</time>
      </trkpt>
      <trkpt lat="42.147985" lon="2.203412">
        <ele>632.116</ele>
        <time>2017-11-28T12:25:33Z</time>
      </trkpt>
      <trkpt lat="42.147937" lon="2.203441">
        <ele>632.032</ele>
        <time>2017-11-28T12:25:37Z</time>
      </trkpt>
      <trkpt lat="42.147897" lon="2.203474">
        <ele>632.149</ele>
        <time>2017-11-28T12:25:41Z</time>
      </trkpt>
      <trkpt lat="42.147854" lon="2.203512">
        <ele>632.229</ele>
        <time>2017-11-28T12:25:45Z</time>
      </trkpt>
      <trkpt lat="42.147812" lon="2.203565">
        <ele>632.700</ele>
        <time>2017-11-28T12:25:56Z</time>
      </trkpt>
      <trkpt lat="42.147770" lon="2.203596">
        <ele>633.020</ele>
        <time>2017-11-28T12:25:59Z</time>
      </trkpt>
      <trkpt lat="42.147732" lon="2.203628">
        <ele>633.008</ele>
        <time>2017-11-28T12:26:02Z</time>
      </trkpt>
      <trkpt lat="42.147690" lon="2.203664">
        <ele>633.424</ele>
        <time>2017-11-28T12:26:05Z</time>
      </trkpt>
      <trkpt lat="42.147650" lon="2.203702">
        <ele>633.973</ele>
        <time>2017-11-28T12:26:08Z</time>
      </trkpt>
      <trkpt lat="42.147614" lon="2.203742">
        <ele>633.944</ele>
        <time>2017-11-28T12:26:11Z</time>
      </trkpt>
      <trkpt lat="42.147575" lon="2.203780">
        <ele>634.028</ele>
        <time>2017-11-28T12:26:14Z</time>
      </trkpt>
      <trkpt lat="42.147529" lon="2.203832">
        <ele>634.084</ele>
        <time>2017-11-28T12:26:18Z</time>
      </trkpt>
      <trkpt lat="42.147483" lon="2.203883">
        <ele>634.163</ele>
        <time>2017-11-28T12:26:22Z</time>
      </trkpt>
      <trkpt lat="42.147437" lon="2.203927">
        <ele>633.819</ele>
        <time>2017-11-28T12:26:26Z</time>
      </trkpt>
      <trkpt lat="42.147396" lon="2.203967">
        <ele>634.216</ele>
        <time>2017-11-28T12:26:30Z</time>
      </trkpt>
      <trkpt lat="42.147355" lon="2.204011">
        <ele>634.299</ele>
        <time>2017-11-28T12:26:34Z</time>
      </trkpt>
      <trkpt lat="42.147317" lon="2.204058">
        <ele>634.007</ele>
        <time>2017-11-28T12:26:38Z</time>
      </trkpt>
      <trkpt lat="42.147279" lon="2.204106">
        <ele>634.327</ele>
        <time>2017-11-28T12:26:42Z</time>
      </trkpt>
      <trkpt lat="42.147242" lon="2.204153">
        <ele>634.008</ele>
        <time>2017-11-28T12:26:46Z</time>
      </trkpt>
      <trkpt lat="42.147204" lon="2.204201">
        <ele>634.181</ele>
        <time>2017-11-28T12:26:50Z</time>
      </trkpt>
      <trkpt lat="42.147168" lon="2.204251">
        <ele>634.090</ele>
        <time>2017-11-28T12:26:54Z</time>
      </trkpt>
      <trkpt lat="42.147128" lon="2.204299">
        <ele>634.121</ele>
        <time>2017-11-28T12:26:58Z</time>
      </trkpt>
      <trkpt lat="42.147087" lon="2.204343">
        <ele>634.065</ele>
        <time>2017-11-28T12:27:02Z</time>
      </trkpt>
      <trkpt lat="42.147049" lon="2.204390">
        <ele>633.461</ele>
        <time>2017-11-28T12:27:06Z</time>
      </trkpt>
      <trkpt lat="42.147009" lon="2.204437">
        <ele>633.530</ele>
        <time>2017-11-28T12:27:10Z</time>
      </trkpt>
      <trkpt lat="42.146967" lon="2.204486">
        <ele>633.226</ele>
        <time>2017-11-28T12:27:14Z</time>
      </trkpt>
      <trkpt lat="42.146923" lon="2.204531">
        <ele>633.273</ele>
        <time>2017-11-28T12:27:18Z</time>
      </trkpt>
      <trkpt lat="42.146885" lon="2.204574">
        <ele>633.676</ele>
        <time>2017-11-28T12:27:22Z</time>
      </trkpt>
      <trkpt lat="42.146844" lon="2.204617">
        <ele>633.990</ele>
        <time>2017-11-28T12:27:26Z</time>
      </trkpt>
      <trkpt lat="42.146796" lon="2.204663">
        <ele>634.019</ele>
        <time>2017-11-28T12:27:30Z</time>
      </trkpt>
      <trkpt lat="42.146756" lon="2.204715">
        <ele>633.208</ele>
        <time>2017-11-28T12:27:34Z</time>
      </trkpt>
      <trkpt lat="42.146718" lon="2.204757">
        <ele>633.329</ele>
        <time>2017-11-28T12:27:38Z</time>
      </trkpt>
      <trkpt lat="42.146680" lon="2.204812">
        <ele>632.958</ele>
        <time>2017-11-28T12:27:42Z</time>
      </trkpt>
      <trkpt lat="42.146644" lon="2.204856">
        <ele>632.529</ele>
        <time>2017-11-28T12:27:45Z</time>
      </trkpt>
      <trkpt lat="42.146596" lon="2.204897">
        <ele>632.863</ele>
        <time>2017-11-28T12:27:49Z</time>
      </trkpt>
      <trkpt lat="42.146546" lon="2.204935">
        <ele>631.299</ele>
        <time>2017-11-28T12:27:53Z</time>
      </trkpt>
      <trkpt lat="42.146503" lon="2.204979">
        <ele>630.888</ele>
        <time>2017-11-28T12:27:57Z</time>
      </trkpt>
      <trkpt lat="42.146460" lon="2.205013">
        <ele>630.764</ele>
        <time>2017-11-28T12:28:01Z</time>
      </trkpt>
      <trkpt lat="42.146416" lon="2.205026">
        <ele>630.291</ele>
        <time>2017-11-28T12:28:05Z</time>
      </trkpt>
      <trkpt lat="42.146373" lon="2.205062">
        <ele>629.927</ele>
        <time>2017-11-28T12:28:09Z</time>
      </trkpt>
      <trkpt lat="42.146329" lon="2.205099">
        <ele>630.068</ele>
        <time>2017-11-28T12:28:13Z</time>
      </trkpt>
      <trkpt lat="42.146282" lon="2.205127">
        <ele>629.614</ele>
        <time>2017-11-28T12:28:17Z</time>
      </trkpt>
      <trkpt lat="42.146239" lon="2.205151">
        <ele>629.908</ele>
        <time>2017-11-28T12:28:20Z</time>
      </trkpt>
      <trkpt lat="42.146198" lon="2.205176">
        <ele>629.724</ele>
        <time>2017-11-28T12:28:23Z</time>
      </trkpt>
      <trkpt lat="42.146145" lon="2.205208">
        <ele>629.623</ele>
        <time>2017-11-28T12:28:27Z</time>
      </trkpt>
      <trkpt lat="42.146094" lon="2.205240">
        <ele>629.224</ele>
        <time>2017-11-28T12:28:31Z</time>
      </trkpt>
      <trkpt lat="42.146043" lon="2.205269">
        <ele>628.948</ele>
        <time>2017-11-28T12:28:35Z</time>
      </trkpt>
      <trkpt lat="42.145999" lon="2.205305">
        <ele>628.474</ele>
        <time>2017-11-28T12:28:39Z</time>
      </trkpt>
      <trkpt lat="42.145951" lon="2.205336">
        <ele>628.693</ele>
        <time>2017-11-28T12:28:43Z</time>
      </trkpt>
      <trkpt lat="42.145907" lon="2.205365">
        <ele>628.129</ele>
        <time>2017-11-28T12:28:47Z</time>
      </trkpt>
      <trkpt lat="42.145864" lon="2.205383">
        <ele>629.326</ele>
        <time>2017-11-28T12:28:50Z</time>
      </trkpt>
      <trkpt lat="42.145816" lon="2.205393">
        <ele>629.119</ele>
        <time>2017-11-28T12:28:53Z</time>
      </trkpt>
      <trkpt lat="42.145768" lon="2.205401">
        <ele>629.009</ele>
        <time>2017-11-28T12:28:57Z</time>
      </trkpt>
      <trkpt lat="42.145720" lon="2.205382">
        <ele>628.619</ele>
        <time>2017-11-28T12:29:01Z</time>
      </trkpt>
      <trkpt lat="42.145668" lon="2.205369">
        <ele>628.308</ele>
        <time>2017-11-28T12:29:05Z</time>
      </trkpt>
      <trkpt lat="42.145624" lon="2.205336">
        <ele>627.993</ele>
        <time>2017-11-28T12:29:10Z</time>
      </trkpt>
      <trkpt lat="42.145582" lon="2.205308">
        <ele>628.052</ele>
        <time>2017-11-28T12:29:13Z</time>
      </trkpt>
      <trkpt lat="42.145529" lon="2.205279">
        <ele>627.463</ele>
        <time>2017-11-28T12:29:18Z</time>
      </trkpt>
      <trkpt lat="42.145480" lon="2.205251">
        <ele>627.267</ele>
        <time>2017-11-28T12:29:22Z</time>
      </trkpt>
      <trkpt lat="42.145428" lon="2.205219">
        <ele>627.123</ele>
        <time>2017-11-28T12:29:26Z</time>
      </trkpt>
      <trkpt lat="42.145388" lon="2.205188">
        <ele>626.872</ele>
        <time>2017-11-28T12:29:30Z</time>
      </trkpt>
      <trkpt lat="42.145343" lon="2.205158">
        <ele>626.878</ele>
        <time>2017-11-28T12:29:33Z</time>
      </trkpt>
      <trkpt lat="42.145287" lon="2.205126">
        <ele>626.225</ele>
        <time>2017-11-28T12:29:37Z</time>
      </trkpt>
      <trkpt lat="42.145246" lon="2.205094">
        <ele>625.944</ele>
        <time>2017-11-28T12:29:40Z</time>
      </trkpt>
      <trkpt lat="42.145204" lon="2.205057">
        <ele>625.605</ele>
        <time>2017-11-28T12:29:44Z</time>
      </trkpt>
      <trkpt lat="42.145166" lon="2.205012">
        <ele>625.415</ele>
        <time>2017-11-28T12:29:48Z</time>
      </trkpt>
      <trkpt lat="42.145130" lon="2.204956">
        <ele>625.308</ele>
        <time>2017-11-28T12:29:52Z</time>
      </trkpt>
      <trkpt lat="42.145101" lon="2.204902">
        <ele>625.236</ele>
        <time>2017-11-28T12:29:56Z</time>
      </trkpt>
      <trkpt lat="42.145066" lon="2.204854">
        <ele>624.945</ele>
        <time>2017-11-28T12:30:00Z</time>
      </trkpt>
      <trkpt lat="42.145034" lon="2.204802">
        <ele>624.586</ele>
        <time>2017-11-28T12:30:04Z</time>
      </trkpt>
      <trkpt lat="42.145002" lon="2.204744">
        <ele>624.540</ele>
        <time>2017-11-28T12:30:09Z</time>
      </trkpt>
      <trkpt lat="42.144981" lon="2.204678">
        <ele>625.126</ele>
        <time>2017-11-28T12:30:14Z</time>
      </trkpt>
      <trkpt lat="42.144951" lon="2.204630">
        <ele>625.495</ele>
        <time>2017-11-28T12:30:18Z</time>
      </trkpt>
      <trkpt lat="42.144918" lon="2.204581">
        <ele>625.841</ele>
        <time>2017-11-28T12:30:22Z</time>
      </trkpt>
      <trkpt lat="42.144900" lon="2.204517">
        <ele>627.128</ele>
        <time>2017-11-28T12:30:28Z</time>
      </trkpt>
      <trkpt lat="42.144945" lon="2.204527">
        <ele>629.091</ele>
        <time>2017-11-28T12:31:02Z</time>
      </trkpt>
      <trkpt lat="42.144986" lon="2.204558">
        <ele>628.281</ele>
        <time>2017-11-28T12:31:06Z</time>
      </trkpt>
      <trkpt lat="42.145037" lon="2.204592">
        <ele>628.319</ele>
        <time>2017-11-28T12:31:10Z</time>
      </trkpt>
      <trkpt lat="42.145072" lon="2.204639">
        <ele>628.308</ele>
        <time>2017-11-28T12:31:14Z</time>
      </trkpt>
      <trkpt lat="42.145093" lon="2.204700">
        <ele>626.721</ele>
        <time>2017-11-28T12:31:23Z</time>
      </trkpt>
      <trkpt lat="42.145121" lon="2.204751">
        <ele>626.120</ele>
        <time>2017-11-28T12:31:28Z</time>
      </trkpt>
      <trkpt lat="42.145160" lon="2.204790">
        <ele>625.841</ele>
        <time>2017-11-28T12:31:32Z</time>
      </trkpt>
      <trkpt lat="42.145204" lon="2.204806">
        <ele>627.325</ele>
        <time>2017-11-28T12:31:36Z</time>
      </trkpt>
      <trkpt lat="42.145205" lon="2.204735">
        <ele>629.461</ele>
        <time>2017-11-28T12:31:45Z</time>
      </trkpt>
      <trkpt lat="42.145196" lon="2.204673">
        <ele>628.620</ele>
        <time>2017-11-28T12:31:50Z</time>
      </trkpt>
      <trkpt lat="42.145212" lon="2.204605">
        <ele>629.786</ele>
        <time>2017-11-28T12:31:55Z</time>
      </trkpt>
      <trkpt lat="42.145243" lon="2.204559">
        <ele>630.183</ele>
        <time>2017-11-28T12:31:59Z</time>
      </trkpt>
      <trkpt lat="42.145290" lon="2.204577">
        <ele>630.672</ele>
        <time>2017-11-28T12:32:06Z</time>
      </trkpt>
      <trkpt lat="42.145304" lon="2.204648">
        <ele>630.313</ele>
        <time>2017-11-28T12:32:12Z</time>
      </trkpt>
      <trkpt lat="42.145332" lon="2.204697">
        <ele>631.014</ele>
        <time>2017-11-28T12:32:17Z</time>
      </trkpt>
      <trkpt lat="42.145367" lon="2.204741">
        <ele>631.708</ele>
        <time>2017-11-28T12:32:25Z</time>
      </trkpt>
      <trkpt lat="42.145405" lon="2.204778">
        <ele>632.099</ele>
        <time>2017-11-28T12:32:31Z</time>
      </trkpt>
      <trkpt lat="42.145448" lon="2.204816">
        <ele>631.918</ele>
        <time>2017-11-28T12:32:36Z</time>
      </trkpt>
      <trkpt lat="42.145494" lon="2.204800">
        <ele>633.579</ele>
        <time>2017-11-28T12:32:42Z</time>
      </trkpt>
      <trkpt lat="42.145479" lon="2.204734">
        <ele>633.123</ele>
        <time>2017-11-28T12:32:49Z</time>
      </trkpt>
      <trkpt lat="42.145440" lon="2.204687">
        <ele>633.329</ele>
        <time>2017-11-28T12:32:54Z</time>
      </trkpt>
      <trkpt lat="42.145398" lon="2.204650">
        <ele>633.378</ele>
        <time>2017-11-28T12:32:58Z</time>
      </trkpt>
      <trkpt lat="42.145380" lon="2.204588">
        <ele>633.634</ele>
        <time>2017-11-28T12:33:03Z</time>
      </trkpt>
      <trkpt lat="42.145386" lon="2.204528">
        <ele>634.691</ele>
        <time>2017-11-28T12:33:07Z</time>
      </trkpt>
      <trkpt lat="42.145391" lon="2.204466">
        <ele>635.628</ele>
        <time>2017-11-28T12:33:13Z</time>
      </trkpt>
      <trkpt lat="42.145407" lon="2.204407">
        <ele>635.689</ele>
        <time>2017-11-28T12:33:21Z</time>
      </trkpt>
      <trkpt lat="42.145416" lon="2.204336">
        <ele>638.417</ele>
        <time>2017-11-28T12:33:26Z</time>
      </trkpt>
      <trkpt lat="42.145402" lon="2.204276">
        <ele>640.808</ele>
        <time>2017-11-28T12:33:31Z</time>
      </trkpt>
      <trkpt lat="42.145375" lon="2.204215">
        <ele>643.164</ele>
        <time>2017-11-28T12:33:37Z</time>
      </trkpt>
      <trkpt lat="42.145382" lon="2.204150">
        <ele>643.983</ele>
        <time>2017-11-28T12:33:42Z</time>
      </trkpt>
      <trkpt lat="42.145424" lon="2.204116">
        <ele>645.714</ele>
        <time>2017-11-28T12:33:49Z</time>
      </trkpt>
      <trkpt lat="42.145416" lon="2.204049">
        <ele>648.188</ele>
        <time>2017-11-28T12:33:58Z</time>
      </trkpt>
      <trkpt lat="42.145381" lon="2.204011">
        <ele>648.034</ele>
        <time>2017-11-28T12:34:03Z</time>
      </trkpt>
      <trkpt lat="42.145336" lon="2.204002">
        <ele>647.933</ele>
        <time>2017-11-28T12:34:08Z</time>
      </trkpt>
      <trkpt lat="42.145285" lon="2.204014">
        <ele>646.479</ele>
        <time>2017-11-28T12:34:13Z</time>
      </trkpt>
      <trkpt lat="42.145235" lon="2.203999">
        <ele>646.356</ele>
        <time>2017-11-28T12:34:20Z</time>
      </trkpt>
      <trkpt lat="42.145228" lon="2.203932">
        <ele>650.446</ele>
        <time>2017-11-28T12:34:28Z</time>
      </trkpt>
      <trkpt lat="42.145197" lon="2.203885">
        <ele>652.388</ele>
        <time>2017-11-28T12:34:35Z</time>
      </trkpt>
      <trkpt lat="42.145150" lon="2.203873">
        <ele>650.416</ele>
        <time>2017-11-28T12:34:41Z</time>
      </trkpt>
      <trkpt lat="42.145100" lon="2.203888">
        <ele>650.208</ele>
        <time>2017-11-28T12:34:47Z</time>
      </trkpt>
      <trkpt lat="42.145047" lon="2.203864">
        <ele>652.416</ele>
        <time>2017-11-28T12:34:52Z</time>
      </trkpt>
      <trkpt lat="42.145000" lon="2.203836">
        <ele>652.145</ele>
        <time>2017-11-28T12:34:58Z</time>
      </trkpt>
      <trkpt lat="42.144946" lon="2.203818">
        <ele>652.576</ele>
        <time>2017-11-28T12:35:04Z</time>
      </trkpt>
      <trkpt lat="42.144902" lon="2.203791">
        <ele>651.670</ele>
        <time>2017-11-28T12:35:08Z</time>
      </trkpt>
      <trkpt lat="42.144857" lon="2.203782">
        <ele>652.526</ele>
        <time>2017-11-28T12:35:15Z</time>
      </trkpt>
      <trkpt lat="42.144809" lon="2.203767">
        <ele>653.335</ele>
        <time>2017-11-28T12:35:22Z</time>
      </trkpt>
      <trkpt lat="42.144763" lon="2.203746">
        <ele>651.821</ele>
        <time>2017-11-28T12:35:28Z</time>
      </trkpt>
      <trkpt lat="42.144718" lon="2.203728">
        <ele>652.438</ele>
        <time>2017-11-28T12:35:33Z</time>
      </trkpt>
      <trkpt lat="42.144669" lon="2.203717">
        <ele>653.485</ele>
        <time>2017-11-28T12:35:39Z</time>
      </trkpt>
      <trkpt lat="42.144624" lon="2.203695">
        <ele>654.689</ele>
        <time>2017-11-28T12:35:45Z</time>
      </trkpt>
      <trkpt lat="42.144575" lon="2.203712">
        <ele>653.117</ele>
        <time>2017-11-28T12:35:51Z</time>
      </trkpt>
      <trkpt lat="42.144526" lon="2.203701">
        <ele>653.808</ele>
        <time>2017-11-28T12:35:56Z</time>
      </trkpt>
      <trkpt lat="42.144481" lon="2.203681">
        <ele>654.180</ele>
        <time>2017-11-28T12:36:01Z</time>
      </trkpt>
      <trkpt lat="42.144428" lon="2.203679">
        <ele>654.659</ele>
        <time>2017-11-28T12:36:05Z</time>
      </trkpt>
      <trkpt lat="42.144378" lon="2.203669">
        <ele>655.890</ele>
        <time>2017-11-28T12:36:08Z</time>
      </trkpt>
      <trkpt lat="42.144328" lon="2.203662">
        <ele>659.874</ele>
        <time>2017-11-28T12:36:11Z</time>
      </trkpt>
      <trkpt lat="42.144279" lon="2.203646">
        <ele>659.130</ele>
        <time>2017-11-28T12:36:15Z</time>
      </trkpt>
      <trkpt lat="42.144235" lon="2.203623">
        <ele>659.599</ele>
        <time>2017-11-28T12:36:19Z</time>
      </trkpt>
      <trkpt lat="42.144190" lon="2.203602">
        <ele>661.165</ele>
        <time>2017-11-28T12:36:23Z</time>
      </trkpt>
      <trkpt lat="42.144139" lon="2.203588">
        <ele>660.542</ele>
        <time>2017-11-28T12:36:28Z</time>
      </trkpt>
      <trkpt lat="42.144082" lon="2.203599">
        <ele>659.943</ele>
        <time>2017-11-28T12:36:32Z</time>
      </trkpt>
      <trkpt lat="42.144025" lon="2.203613">
        <ele>659.364</ele>
        <time>2017-11-28T12:36:36Z</time>
      </trkpt>
      <trkpt lat="42.143979" lon="2.203631">
        <ele>656.310</ele>
        <time>2017-11-28T12:36:39Z</time>
      </trkpt>
      <trkpt lat="42.143932" lon="2.203651">
        <ele>657.008</ele>
        <time>2017-11-28T12:36:42Z</time>
      </trkpt>
      <trkpt lat="42.143877" lon="2.203672">
        <ele>657.026</ele>
        <time>2017-11-28T12:36:46Z</time>
      </trkpt>
      <trkpt lat="42.143823" lon="2.203688">
        <ele>658.325</ele>
        <time>2017-11-28T12:36:50Z</time>
      </trkpt>
      <trkpt lat="42.143767" lon="2.203699">
        <ele>657.966</ele>
        <time>2017-11-28T12:36:54Z</time>
      </trkpt>
      <trkpt lat="42.143707" lon="2.203708">
        <ele>659.430</ele>
        <time>2017-11-28T12:37:00Z</time>
      </trkpt>
      <trkpt lat="42.143658" lon="2.203685">
        <ele>661.646</ele>
        <time>2017-11-28T12:37:08Z</time>
      </trkpt>
      <trkpt lat="42.143617" lon="2.203648">
        <ele>663.365</ele>
        <time>2017-11-28T12:37:15Z</time>
      </trkpt>
      <trkpt lat="42.143567" lon="2.203642">
        <ele>664.151</ele>
        <time>2017-11-28T12:37:20Z</time>
      </trkpt>
      <trkpt lat="42.143515" lon="2.203634">
        <ele>664.998</ele>
        <time>2017-11-28T12:37:24Z</time>
      </trkpt>
      <trkpt lat="42.143467" lon="2.203642">
        <ele>664.522</ele>
        <time>2017-11-28T12:37:30Z</time>
      </trkpt>
      <trkpt lat="42.143438" lon="2.203705">
        <ele>663.762</ele>
        <time>2017-11-28T12:37:36Z</time>
      </trkpt>
      <trkpt lat="42.143408" lon="2.203758">
        <ele>662.408</ele>
        <time>2017-11-28T12:37:39Z</time>
      </trkpt>
      <trkpt lat="42.143371" lon="2.203808">
        <ele>663.508</ele>
        <time>2017-11-28T12:37:42Z</time>
      </trkpt>
      <trkpt lat="42.143335" lon="2.203858">
        <ele>662.524</ele>
        <time>2017-11-28T12:37:45Z</time>
      </trkpt>
      <trkpt lat="42.143298" lon="2.203911">
        <ele>662.543</ele>
        <time>2017-11-28T12:37:48Z</time>
      </trkpt>
      <trkpt lat="42.143265" lon="2.203954">
        <ele>663.274</ele>
        <time>2017-11-28T12:37:51Z</time>
      </trkpt>
      <trkpt lat="42.143246" lon="2.204018">
        <ele>663.758</ele>
        <time>2017-11-28T12:37:55Z</time>
      </trkpt>
      <trkpt lat="42.143228" lon="2.204075">
        <ele>663.354</ele>
        <time>2017-11-28T12:37:59Z</time>
      </trkpt>
      <trkpt lat="42.143192" lon="2.204141">
        <ele>663.843</ele>
        <time>2017-11-28T12:38:03Z</time>
      </trkpt>
      <trkpt lat="42.143169" lon="2.204196">
        <ele>664.169</ele>
        <time>2017-11-28T12:38:07Z</time>
      </trkpt>
      <trkpt lat="42.143147" lon="2.204259">
        <ele>663.546</ele>
        <time>2017-11-28T12:38:12Z</time>
      </trkpt>
      <trkpt lat="42.143124" lon="2.204325">
        <ele>662.376</ele>
        <time>2017-11-28T12:38:17Z</time>
      </trkpt>
      <trkpt lat="42.143108" lon="2.204386">
        <ele>661.290</ele>
        <time>2017-11-28T12:38:24Z</time>
      </trkpt>
      <trkpt lat="42.143069" lon="2.204443">
        <ele>661.719</ele>
        <time>2017-11-28T12:38:30Z</time>
      </trkpt>
      <trkpt lat="42.143032" lon="2.204478">
        <ele>662.608</ele>
        <time>2017-11-28T12:38:34Z</time>
      </trkpt>
      <trkpt lat="42.143010" lon="2.204535">
        <ele>662.469</ele>
        <time>2017-11-28T12:38:41Z</time>
      </trkpt>
      <trkpt lat="42.142992" lon="2.204595">
        <ele>664.058</ele>
        <time>2017-11-28T12:38:56Z</time>
      </trkpt>
      <trkpt lat="42.142981" lon="2.204660">
        <ele>664.899</ele>
        <time>2017-11-28T12:39:01Z</time>
      </trkpt>
      <trkpt lat="42.142943" lon="2.204708">
        <ele>661.893</ele>
        <time>2017-11-28T12:39:05Z</time>
      </trkpt>
      <trkpt lat="42.142904" lon="2.204778">
        <ele>664.889</ele>
        <time>2017-11-28T12:39:18Z</time>
      </trkpt>
      <trkpt lat="42.142882" lon="2.204831">
        <ele>662.758</ele>
        <time>2017-11-28T12:39:25Z</time>
      </trkpt>
      <trkpt lat="42.142847" lon="2.204895">
        <ele>662.344</ele>
        <time>2017-11-28T12:39:31Z</time>
      </trkpt>
      <trkpt lat="42.142828" lon="2.204959">
        <ele>661.641</ele>
        <time>2017-11-28T12:39:34Z</time>
      </trkpt>
      <trkpt lat="42.142799" lon="2.205008">
        <ele>663.747</ele>
        <time>2017-11-28T12:39:37Z</time>
      </trkpt>
      <trkpt lat="42.142779" lon="2.205065">
        <ele>661.929</ele>
        <time>2017-11-28T12:39:42Z</time>
      </trkpt>
      <trkpt lat="42.142760" lon="2.205123">
        <ele>665.121</ele>
        <time>2017-11-28T12:39:46Z</time>
      </trkpt>
      <trkpt lat="42.142754" lon="2.205184">
        <ele>665.608</ele>
        <time>2017-11-28T12:39:50Z</time>
      </trkpt>
      <trkpt lat="42.142764" lon="2.205252">
        <ele>664.836</ele>
        <time>2017-11-28T12:39:54Z</time>
      </trkpt>
      <trkpt lat="42.142763" lon="2.205318">
        <ele>665.785</ele>
        <time>2017-11-28T12:40:00Z</time>
      </trkpt>
      <trkpt lat="42.142765" lon="2.205385">
        <ele>665.516</ele>
        <time>2017-11-28T12:40:06Z</time>
      </trkpt>
      <trkpt lat="42.142770" lon="2.205457">
        <ele>666.340</ele>
        <time>2017-11-28T12:40:10Z</time>
      </trkpt>
      <trkpt lat="42.142761" lon="2.205525">
        <ele>665.296</ele>
        <time>2017-11-28T12:40:14Z</time>
      </trkpt>
      <trkpt lat="42.142727" lon="2.205584">
        <ele>664.995</ele>
        <time>2017-11-28T12:40:18Z</time>
      </trkpt>
      <trkpt lat="42.142704" lon="2.205651">
        <ele>664.861</ele>
        <time>2017-11-28T12:40:22Z</time>
      </trkpt>
      <trkpt lat="42.142691" lon="2.205720">
        <ele>664.658</ele>
        <time>2017-11-28T12:40:27Z</time>
      </trkpt>
      <trkpt lat="42.142691" lon="2.205796">
        <ele>664.925</ele>
        <time>2017-11-28T12:40:31Z</time>
      </trkpt>
      <trkpt lat="42.142700" lon="2.205857">
        <ele>664.626</ele>
        <time>2017-11-28T12:40:34Z</time>
      </trkpt>
      <trkpt lat="42.142703" lon="2.205926">
        <ele>663.908</ele>
        <time>2017-11-28T12:40:38Z</time>
      </trkpt>
      <trkpt lat="42.142685" lon="2.205985">
        <ele>664.208</ele>
        <time>2017-11-28T12:40:42Z</time>
      </trkpt>
      <trkpt lat="42.142679" lon="2.206055">
        <ele>663.034</ele>
        <time>2017-11-28T12:40:48Z</time>
      </trkpt>
      <trkpt lat="42.142676" lon="2.206136">
        <ele>664.133</ele>
        <time>2017-11-28T12:40:53Z</time>
      </trkpt>
      <trkpt lat="42.142675" lon="2.206200">
        <ele>663.754</ele>
        <time>2017-11-28T12:40:57Z</time>
      </trkpt>
      <trkpt lat="42.142701" lon="2.206269">
        <ele>663.978</ele>
        <time>2017-11-28T12:41:01Z</time>
      </trkpt>
      <trkpt lat="42.142696" lon="2.206340">
        <ele>662.954</ele>
        <time>2017-11-28T12:41:07Z</time>
      </trkpt>
      <trkpt lat="42.142686" lon="2.206405">
        <ele>664.073</ele>
        <time>2017-11-28T12:41:12Z</time>
      </trkpt>
      <trkpt lat="42.142677" lon="2.206469">
        <ele>663.219</ele>
        <time>2017-11-28T12:41:17Z</time>
      </trkpt>
      <trkpt lat="42.142654" lon="2.206529">
        <ele>664.526</ele>
        <time>2017-11-28T12:41:21Z</time>
      </trkpt>
      <trkpt lat="42.142646" lon="2.206593">
        <ele>664.136</ele>
        <time>2017-11-28T12:41:25Z</time>
      </trkpt>
      <trkpt lat="42.142600" lon="2.206654">
        <ele>664.317</ele>
        <time>2017-11-28T12:41:28Z</time>
      </trkpt>
      <trkpt lat="42.142598" lon="2.206719">
        <ele>663.218</ele>
        <time>2017-11-28T12:41:34Z</time>
      </trkpt>
      <trkpt lat="42.142577" lon="2.206794">
        <ele>662.508</ele>
        <time>2017-11-28T12:41:38Z</time>
      </trkpt>
      <trkpt lat="42.142563" lon="2.206860">
        <ele>663.085</ele>
        <time>2017-11-28T12:41:42Z</time>
      </trkpt>
      <trkpt lat="42.142545" lon="2.206922">
        <ele>662.654</ele>
        <time>2017-11-28T12:41:46Z</time>
      </trkpt>
      <trkpt lat="42.142523" lon="2.206987">
        <ele>662.275</ele>
        <time>2017-11-28T12:41:50Z</time>
      </trkpt>
      <trkpt lat="42.142498" lon="2.207038">
        <ele>661.789</ele>
        <time>2017-11-28T12:41:54Z</time>
      </trkpt>
      <trkpt lat="42.142458" lon="2.207070">
        <ele>661.445</ele>
        <time>2017-11-28T12:41:59Z</time>
      </trkpt>
      <trkpt lat="42.142435" lon="2.207124">
        <ele>661.854</ele>
        <time>2017-11-28T12:42:05Z</time>
      </trkpt>
      <trkpt lat="42.142405" lon="2.207184">
        <ele>661.340</ele>
        <time>2017-11-28T12:42:10Z</time>
      </trkpt>
      <trkpt lat="42.142359" lon="2.207216">
        <ele>661.247</ele>
        <time>2017-11-28T12:42:15Z</time>
      </trkpt>
      <trkpt lat="42.142312" lon="2.207235">
        <ele>662.018</ele>
        <time>2017-11-28T12:42:19Z</time>
      </trkpt>
      <trkpt lat="42.142265" lon="2.207211">
        <ele>662.898</ele>
        <time>2017-11-28T12:42:27Z</time>
      </trkpt>
      <trkpt lat="42.142233" lon="2.207152">
        <ele>664.617</ele>
        <time>2017-11-28T12:42:35Z</time>
      </trkpt>
      <trkpt lat="42.142194" lon="2.207101">
        <ele>665.508</ele>
        <time>2017-11-28T12:42:41Z</time>
      </trkpt>
      <trkpt lat="42.142155" lon="2.207066">
        <ele>666.273</ele>
        <time>2017-11-28T12:42:45Z</time>
      </trkpt>
      <trkpt lat="42.142111" lon="2.207030">
        <ele>667.292</ele>
        <time>2017-11-28T12:42:51Z</time>
      </trkpt>
      <trkpt lat="42.142061" lon="2.207031">
        <ele>666.113</ele>
        <time>2017-11-28T12:42:57Z</time>
      </trkpt>
      <trkpt lat="42.142012" lon="2.207049">
        <ele>663.787</ele>
        <time>2017-11-28T12:43:01Z</time>
      </trkpt>
      <trkpt lat="42.141968" lon="2.207070">
        <ele>663.493</ele>
        <time>2017-11-28T12:43:04Z</time>
      </trkpt>
      <trkpt lat="42.141918" lon="2.207091">
        <ele>663.742</ele>
        <time>2017-11-28T12:43:07Z</time>
      </trkpt>
      <trkpt lat="42.141868" lon="2.207105">
        <ele>663.458</ele>
        <time>2017-11-28T12:43:10Z</time>
      </trkpt>
      <trkpt lat="42.141822" lon="2.207145">
        <ele>662.515</ele>
        <time>2017-11-28T12:43:13Z</time>
      </trkpt>
      <trkpt lat="42.141777" lon="2.207171">
        <ele>662.028</ele>
        <time>2017-11-28T12:43:17Z</time>
      </trkpt>
      <trkpt lat="42.141735" lon="2.207214">
        <ele>661.489</ele>
        <time>2017-11-28T12:43:20Z</time>
      </trkpt>
      <trkpt lat="42.141679" lon="2.207228">
        <ele>660.917</ele>
        <time>2017-11-28T12:43:25Z</time>
      </trkpt>
      <trkpt lat="42.141627" lon="2.207243">
        <ele>660.608</ele>
        <time>2017-11-28T12:43:30Z</time>
      </trkpt>
      <trkpt lat="42.141575" lon="2.207276">
        <ele>660.474</ele>
        <time>2017-11-28T12:43:34Z</time>
      </trkpt>
      <trkpt lat="42.141525" lon="2.207285">
        <ele>658.813</ele>
        <time>2017-11-28T12:43:40Z</time>
      </trkpt>
      <trkpt lat="42.141483" lon="2.207319">
        <ele>659.414</ele>
        <time>2017-11-28T12:43:45Z</time>
      </trkpt>
      <trkpt lat="42.141437" lon="2.207350">
        <ele>658.928</ele>
        <time>2017-11-28T12:43:50Z</time>
      </trkpt>
      <trkpt lat="42.141396" lon="2.207376">
        <ele>658.474</ele>
        <time>2017-11-28T12:43:55Z</time>
      </trkpt>
      <trkpt lat="42.141345" lon="2.207411">
        <ele>658.493</ele>
        <time>2017-11-28T12:44:00Z</time>
      </trkpt>
      <trkpt lat="42.141295" lon="2.207441">
        <ele>658.389</ele>
        <time>2017-11-28T12:44:05Z</time>
      </trkpt>
      <trkpt lat="42.141246" lon="2.207473">
        <ele>657.836</ele>
        <time>2017-11-28T12:44:11Z</time>
      </trkpt>
      <trkpt lat="42.141203" lon="2.207496">
        <ele>657.642</ele>
        <time>2017-11-28T12:44:15Z</time>
      </trkpt>
      <trkpt lat="42.141155" lon="2.207538">
        <ele>657.922</ele>
        <time>2017-11-28T12:44:19Z</time>
      </trkpt>
      <trkpt lat="42.141108" lon="2.207563">
        <ele>657.314</ele>
        <time>2017-11-28T12:44:25Z</time>
      </trkpt>
      <trkpt lat="42.141062" lon="2.207586">
        <ele>657.308</ele>
        <time>2017-11-28T12:44:31Z</time>
      </trkpt>
      <trkpt lat="42.141023" lon="2.207628">
        <ele>656.946</ele>
        <time>2017-11-28T12:44:35Z</time>
      </trkpt>
      <trkpt lat="42.140980" lon="2.207654">
        <ele>658.135</ele>
        <time>2017-11-28T12:44:39Z</time>
      </trkpt>
      <trkpt lat="42.140926" lon="2.207674">
        <ele>658.346</ele>
        <time>2017-11-28T12:44:44Z</time>
      </trkpt>
      <trkpt lat="42.140879" lon="2.207691">
        <ele>658.120</ele>
        <time>2017-11-28T12:44:48Z</time>
      </trkpt>
      <trkpt lat="42.140840" lon="2.207727">
        <ele>657.726</ele>
        <time>2017-11-28T12:44:54Z</time>
      </trkpt>
      <trkpt lat="42.140803" lon="2.207769">
        <ele>657.185</ele>
        <time>2017-11-28T12:44:59Z</time>
      </trkpt>
      <trkpt lat="42.140758" lon="2.207797">
        <ele>656.541</ele>
        <time>2017-11-28T12:45:05Z</time>
      </trkpt>
      <trkpt lat="42.140713" lon="2.207832">
        <ele>656.768</ele>
        <time>2017-11-28T12:45:10Z</time>
      </trkpt>
      <trkpt lat="42.140667" lon="2.207876">
        <ele>656.549</ele>
        <time>2017-11-28T12:45:15Z</time>
      </trkpt>
      <trkpt lat="42.140624" lon="2.207926">
        <ele>657.002</ele>
        <time>2017-11-28T12:45:20Z</time>
      </trkpt>
      <trkpt lat="42.140586" lon="2.207971">
        <ele>656.222</ele>
        <time>2017-11-28T12:45:24Z</time>
      </trkpt>
      <trkpt lat="42.140547" lon="2.208008">
        <ele>656.608</ele>
        <time>2017-11-28T12:45:29Z</time>
      </trkpt>
      <trkpt lat="42.140514" lon="2.208057">
        <ele>657.376</ele>
        <time>2017-11-28T12:45:36Z</time>
      </trkpt>
      <trkpt lat="42.140469" lon="2.208087">
        <ele>658.145</ele>
        <time>2017-11-28T12:45:42Z</time>
      </trkpt>
      <trkpt lat="42.140428" lon="2.208118">
        <ele>658.126</ele>
        <time>2017-11-28T12:45:47Z</time>
      </trkpt>
      <trkpt lat="42.140381" lon="2.208152">
        <ele>658.380</ele>
        <time>2017-11-28T12:45:53Z</time>
      </trkpt>
      <trkpt lat="42.140336" lon="2.208180">
        <ele>657.416</ele>
        <time>2017-11-28T12:45:58Z</time>
      </trkpt>
      <trkpt lat="42.140287" lon="2.208209">
        <ele>659.055</ele>
        <time>2017-11-28T12:46:04Z</time>
      </trkpt>
      <trkpt lat="42.140251" lon="2.208257">
        <ele>659.951</ele>
        <time>2017-11-28T12:46:08Z</time>
      </trkpt>
      <trkpt lat="42.140215" lon="2.208297">
        <ele>659.288</ele>
        <time>2017-11-28T12:46:12Z</time>
      </trkpt>
      <trkpt lat="42.140179" lon="2.208338">
        <ele>658.062</ele>
        <time>2017-11-28T12:46:17Z</time>
      </trkpt>
      <trkpt lat="42.140130" lon="2.208374">
        <ele>659.383</ele>
        <time>2017-11-28T12:46:22Z</time>
      </trkpt>
      <trkpt lat="42.140083" lon="2.208405">
        <ele>660.411</ele>
        <time>2017-11-28T12:46:28Z</time>
      </trkpt>
      <trkpt lat="42.140035" lon="2.208440">
        <ele>660.708</ele>
        <time>2017-11-28T12:46:33Z</time>
      </trkpt>
      <trkpt lat="42.139993" lon="2.208463">
        <ele>661.288</ele>
        <time>2017-11-28T12:46:38Z</time>
      </trkpt>
      <trkpt lat="42.139943" lon="2.208472">
        <ele>662.347</ele>
        <time>2017-11-28T12:46:44Z</time>
      </trkpt>
      <trkpt lat="42.139899" lon="2.208489">
        <ele>663.118</ele>
        <time>2017-11-28T12:46:49Z</time>
      </trkpt>
      <trkpt lat="42.139857" lon="2.208511">
        <ele>663.722</ele>
        <time>2017-11-28T12:46:53Z</time>
      </trkpt>
      <trkpt lat="42.139814" lon="2.208541">
        <ele>663.678</ele>
        <time>2017-11-28T12:46:57Z</time>
      </trkpt>
      <trkpt lat="42.139766" lon="2.208560">
        <ele>664.717</ele>
        <time>2017-11-28T12:47:02Z</time>
      </trkpt>
      <trkpt lat="42.139715" lon="2.208562">
        <ele>665.243</ele>
        <time>2017-11-28T12:47:09Z</time>
      </trkpt>
      <trkpt lat="42.139671" lon="2.208535">
        <ele>665.520</ele>
        <time>2017-11-28T12:47:15Z</time>
      </trkpt>
      <trkpt lat="42.139627" lon="2.208496">
        <ele>665.431</ele>
        <time>2017-11-28T12:47:22Z</time>
      </trkpt>
      <trkpt lat="42.139587" lon="2.208452">
        <ele>666.261</ele>
        <time>2017-11-28T12:47:27Z</time>
      </trkpt>
      <trkpt lat="42.139546" lon="2.208418">
        <ele>666.807</ele>
        <time>2017-11-28T12:47:31Z</time>
      </trkpt>
      <trkpt lat="42.139505" lon="2.208384">
        <ele>666.908</ele>
        <time>2017-11-28T12:47:35Z</time>
      </trkpt>
      <trkpt lat="42.139468" lon="2.208348">
        <ele>667.195</ele>
        <time>2017-11-28T12:47:40Z</time>
      </trkpt>
      <trkpt lat="42.139419" lon="2.208327">
        <ele>668.044</ele>
        <time>2017-11-28T12:47:45Z</time>
      </trkpt>
      <trkpt lat="42.139367" lon="2.208317">
        <ele>667.155</ele>
        <time>2017-11-28T12:47:53Z</time>
      </trkpt>
      <trkpt lat="42.139318" lon="2.208320">
        <ele>667.049</ele>
        <time>2017-11-28T12:47:57Z</time>
      </trkpt>
      <trkpt lat="42.139265" lon="2.208333">
        <ele>665.915</ele>
        <time>2017-11-28T12:48:02Z</time>
      </trkpt>
      <trkpt lat="42.139218" lon="2.208359">
        <ele>665.414</ele>
        <time>2017-11-28T12:48:06Z</time>
      </trkpt>
      <trkpt lat="42.139170" lon="2.208386">
        <ele>666.590</ele>
        <time>2017-11-28T12:48:10Z</time>
      </trkpt>
      <trkpt lat="42.139127" lon="2.208409">
        <ele>665.767</ele>
        <time>2017-11-28T12:48:14Z</time>
      </trkpt>
      <trkpt lat="42.139075" lon="2.208428">
        <ele>665.217</ele>
        <time>2017-11-28T12:48:20Z</time>
      </trkpt>
      <trkpt lat="42.139024" lon="2.208445">
        <ele>666.087</ele>
        <time>2017-11-28T12:48:26Z</time>
      </trkpt>
      <trkpt lat="42.138973" lon="2.208475">
        <ele>666.615</ele>
        <time>2017-11-28T12:48:31Z</time>
      </trkpt>
      <trkpt lat="42.138925" lon="2.208497">
        <ele>666.208</ele>
        <time>2017-11-28T12:48:36Z</time>
      </trkpt>
      <trkpt lat="42.138884" lon="2.208530">
        <ele>666.263</ele>
        <time>2017-11-28T12:48:40Z</time>
      </trkpt>
      <trkpt lat="42.138844" lon="2.208588">
        <ele>665.592</ele>
        <time>2017-11-28T12:48:44Z</time>
      </trkpt>
      <trkpt lat="42.138815" lon="2.208635">
        <ele>665.413</ele>
        <time>2017-11-28T12:48:47Z</time>
      </trkpt>
      <trkpt lat="42.138785" lon="2.208681">
        <ele>665.577</ele>
        <time>2017-11-28T12:48:50Z</time>
      </trkpt>
      <trkpt lat="42.138740" lon="2.208729">
        <ele>665.483</ele>
        <time>2017-11-28T12:48:54Z</time>
      </trkpt>
      <trkpt lat="42.138693" lon="2.208769">
        <ele>665.172</ele>
        <time>2017-11-28T12:48:58Z</time>
      </trkpt>
      <trkpt lat="42.138647" lon="2.208806">
        <ele>665.078</ele>
        <time>2017-11-28T12:49:02Z</time>
      </trkpt>
      <trkpt lat="42.138608" lon="2.208850">
        <ele>664.985</ele>
        <time>2017-11-28T12:49:06Z</time>
      </trkpt>
      <trkpt lat="42.138555" lon="2.208887">
        <ele>664.316</ele>
        <time>2017-11-28T12:49:14Z</time>
      </trkpt>
      <trkpt lat="42.138511" lon="2.208932">
        <ele>663.876</ele>
        <time>2017-11-28T12:49:18Z</time>
      </trkpt>
      <trkpt lat="42.138476" lon="2.208975">
        <ele>664.113</ele>
        <time>2017-11-28T12:49:22Z</time>
      </trkpt>
      <trkpt lat="42.138425" lon="2.209001">
        <ele>664.208</ele>
        <time>2017-11-28T12:49:26Z</time>
      </trkpt>
      <trkpt lat="42.138379" lon="2.209031">
        <ele>664.913</ele>
        <time>2017-11-28T12:49:30Z</time>
      </trkpt>
      <trkpt lat="42.138329" lon="2.209061">
        <ele>665.392</ele>
        <time>2017-11-28T12:49:35Z</time>
      </trkpt>
      <trkpt lat="42.138283" lon="2.209067">
        <ele>665.033</ele>
        <time>2017-11-28T12:49:40Z</time>
      </trkpt>
      <trkpt lat="42.138236" lon="2.209067">
        <ele>664.497</ele>
        <time>2017-11-28T12:49:45Z</time>
      </trkpt>
      <trkpt lat="42.138186" lon="2.209084">
        <ele>664.163</ele>
        <time>2017-11-28T12:49:50Z</time>
      </trkpt>
      <trkpt lat="42.138138" lon="2.209094">
        <ele>663.752</ele>
        <time>2017-11-28T12:49:54Z</time>
      </trkpt>
      <trkpt lat="42.138089" lon="2.209103">
        <ele>663.318</ele>
        <time>2017-11-28T12:49:59Z</time>
      </trkpt>
      <trkpt lat="42.138038" lon="2.209113">
        <ele>663.185</ele>
        <time>2017-11-28T12:50:03Z</time>
      </trkpt>
      <trkpt lat="42.137988" lon="2.209130">
        <ele>662.741</ele>
        <time>2017-11-28T12:50:07Z</time>
      </trkpt>
      <trkpt lat="42.137934" lon="2.209120">
        <ele>662.481</ele>
        <time>2017-11-28T12:50:12Z</time>
      </trkpt>
      <trkpt lat="42.137881" lon="2.209104">
        <ele>661.809</ele>
        <time>2017-11-28T12:50:17Z</time>
      </trkpt>
      <trkpt lat="42.137828" lon="2.209077">
        <ele>660.808</ele>
        <time>2017-11-28T12:50:23Z</time>
      </trkpt>
      <trkpt lat="42.137777" lon="2.209055">
        <ele>661.046</ele>
        <time>2017-11-28T12:50:26Z</time>
      </trkpt>
      <trkpt lat="42.137718" lon="2.209051">
        <ele>661.765</ele>
        <time>2017-11-28T12:50:30Z</time>
      </trkpt>
      <trkpt lat="42.137663" lon="2.209048">
        <ele>661.346</ele>
        <time>2017-11-28T12:50:34Z</time>
      </trkpt>
      <trkpt lat="42.137608" lon="2.209055">
        <ele>660.810</ele>
        <time>2017-11-28T12:50:38Z</time>
      </trkpt>
      <trkpt lat="42.137551" lon="2.209057">
        <ele>660.466</ele>
        <time>2017-11-28T12:50:42Z</time>
      </trkpt>
      <trkpt lat="42.137505" lon="2.209057">
        <ele>660.295</ele>
        <time>2017-11-28T12:50:46Z</time>
      </trkpt>
      <trkpt lat="42.137449" lon="2.209051">
        <ele>659.611</ele>
        <time>2017-11-28T12:50:50Z</time>
      </trkpt>
      <trkpt lat="42.137397" lon="2.209037">
        <ele>659.188</ele>
        <time>2017-11-28T12:50:54Z</time>
      </trkpt>
      <trkpt lat="42.137346" lon="2.209024">
        <ele>658.811</ele>
        <time>2017-11-28T12:50:58Z</time>
      </trkpt>
      <trkpt lat="42.137294" lon="2.208996">
        <ele>658.221</ele>
        <time>2017-11-28T12:51:03Z</time>
      </trkpt>
      <trkpt lat="42.137254" lon="2.208953">
        <ele>657.703</ele>
        <time>2017-11-28T12:51:07Z</time>
      </trkpt>
      <trkpt lat="42.137213" lon="2.208909">
        <ele>657.108</ele>
        <time>2017-11-28T12:51:11Z</time>
      </trkpt>
      <trkpt lat="42.137172" lon="2.208873">
        <ele>656.023</ele>
        <time>2017-11-28T12:51:15Z</time>
      </trkpt>
      <trkpt lat="42.137135" lon="2.208836">
        <ele>655.782</ele>
        <time>2017-11-28T12:51:19Z</time>
      </trkpt>
      <trkpt lat="42.137097" lon="2.208793">
        <ele>655.443</ele>
        <time>2017-11-28T12:51:24Z</time>
      </trkpt>
      <trkpt lat="42.137065" lon="2.208733">
        <ele>655.077</ele>
        <time>2017-11-28T12:51:29Z</time>
      </trkpt>
      <trkpt lat="42.137038" lon="2.208678">
        <ele>654.243</ele>
        <time>2017-11-28T12:51:33Z</time>
      </trkpt>
      <trkpt lat="42.137013" lon="2.208624">
        <ele>653.642</ele>
        <time>2017-11-28T12:51:37Z</time>
      </trkpt>
      <trkpt lat="42.137002" lon="2.208562">
        <ele>652.988</ele>
        <time>2017-11-28T12:51:42Z</time>
      </trkpt>
      <trkpt lat="42.137006" lon="2.208497">
        <ele>652.935</ele>
        <time>2017-11-28T12:51:47Z</time>
      </trkpt>
      <trkpt lat="42.137040" lon="2.208440">
        <ele>652.965</ele>
        <time>2017-11-28T12:51:51Z</time>
      </trkpt>
      <trkpt lat="42.137075" lon="2.208400">
        <ele>653.168</ele>
        <time>2017-11-28T12:51:54Z</time>
      </trkpt>
      <trkpt lat="42.137122" lon="2.208367">
        <ele>653.814</ele>
        <time>2017-11-28T12:51:58Z</time>
      </trkpt>
      <trkpt lat="42.137171" lon="2.208347">
        <ele>653.908</ele>
        <time>2017-11-28T12:52:02Z</time>
      </trkpt>
      <trkpt lat="42.137222" lon="2.208314">
        <ele>653.978</ele>
        <time>2017-11-28T12:52:06Z</time>
      </trkpt>
      <trkpt lat="42.137264" lon="2.208280">
        <ele>653.797</ele>
        <time>2017-11-28T12:52:10Z</time>
      </trkpt>
      <trkpt lat="42.137297" lon="2.208231">
        <ele>653.938</ele>
        <time>2017-11-28T12:52:14Z</time>
      </trkpt>
      <trkpt lat="42.137336" lon="2.208185">
        <ele>653.982</ele>
        <time>2017-11-28T12:52:19Z</time>
      </trkpt>
      <trkpt lat="42.137367" lon="2.208138">
        <ele>653.228</ele>
        <time>2017-11-28T12:52:23Z</time>
      </trkpt>
      <trkpt lat="42.137403" lon="2.208090">
        <ele>652.987</ele>
        <time>2017-11-28T12:52:28Z</time>
      </trkpt>
      <trkpt lat="42.137440" lon="2.208041">
        <ele>652.293</ele>
        <time>2017-11-28T12:52:33Z</time>
      </trkpt>
      <trkpt lat="42.137468" lon="2.207991">
        <ele>652.060</ele>
        <time>2017-11-28T12:52:37Z</time>
      </trkpt>
      <trkpt lat="42.137494" lon="2.207928">
        <ele>651.644</ele>
        <time>2017-11-28T12:52:41Z</time>
      </trkpt>
      <trkpt lat="42.137510" lon="2.207871">
        <ele>651.605</ele>
        <time>2017-11-28T12:52:44Z</time>
      </trkpt>
      <trkpt lat="42.137526" lon="2.207798">
        <ele>651.015</ele>
        <time>2017-11-28T12:52:48Z</time>
      </trkpt>
      <trkpt lat="42.137539" lon="2.207720">
        <ele>650.608</ele>
        <time>2017-11-28T12:52:52Z</time>
      </trkpt>
      <trkpt lat="42.137548" lon="2.207649">
        <ele>650.096</ele>
        <time>2017-11-28T12:52:56Z</time>
      </trkpt>
      <trkpt lat="42.137565" lon="2.207589">
        <ele>649.975</ele>
        <time>2017-11-28T12:53:00Z</time>
      </trkpt>
      <trkpt lat="42.137607" lon="2.207542">
        <ele>649.916</ele>
        <time>2017-11-28T12:53:05Z</time>
      </trkpt>
      <trkpt lat="42.137649" lon="2.207491">
        <ele>649.670</ele>
        <time>2017-11-28T12:53:09Z</time>
      </trkpt>
      <trkpt lat="42.137691" lon="2.207459">
        <ele>649.796</ele>
        <time>2017-11-28T12:53:13Z</time>
      </trkpt>
      <trkpt lat="42.137733" lon="2.207427">
        <ele>649.745</ele>
        <time>2017-11-28T12:53:18Z</time>
      </trkpt>
      <trkpt lat="42.137764" lon="2.207370">
        <ele>650.041</ele>
        <time>2017-11-28T12:53:23Z</time>
      </trkpt>
      <trkpt lat="42.137789" lon="2.207319">
        <ele>649.998</ele>
        <time>2017-11-28T12:53:27Z</time>
      </trkpt>
      <trkpt lat="42.137829" lon="2.207281">
        <ele>649.688</ele>
        <time>2017-11-28T12:53:32Z</time>
      </trkpt>
      <trkpt lat="42.137875" lon="2.207255">
        <ele>649.524</ele>
        <time>2017-11-28T12:53:37Z</time>
      </trkpt>
      <trkpt lat="42.137915" lon="2.207218">
        <ele>649.626</ele>
        <time>2017-11-28T12:53:41Z</time>
      </trkpt>
      <trkpt lat="42.137955" lon="2.207180">
        <ele>650.108</ele>
        <time>2017-11-28T12:53:45Z</time>
      </trkpt>
      <trkpt lat="42.137996" lon="2.207146">
        <ele>650.560</ele>
        <time>2017-11-28T12:53:50Z</time>
      </trkpt>
      <trkpt lat="42.138042" lon="2.207132">
        <ele>651.289</ele>
        <time>2017-11-28T12:53:55Z</time>
      </trkpt>
      <trkpt lat="42.138090" lon="2.207133">
        <ele>652.010</ele>
        <time>2017-11-28T12:54:00Z</time>
      </trkpt>
      <trkpt lat="42.138139" lon="2.207142">
        <ele>652.824</ele>
        <time>2017-11-28T12:54:06Z</time>
      </trkpt>
      <trkpt lat="42.138184" lon="2.207142">
        <ele>653.210</ele>
        <time>2017-11-28T12:54:11Z</time>
      </trkpt>
      <trkpt lat="42.138236" lon="2.207155">
        <ele>653.419</ele>
        <time>2017-11-28T12:54:16Z</time>
      </trkpt>
      <trkpt lat="42.138285" lon="2.207161">
        <ele>653.715</ele>
        <time>2017-11-28T12:54:20Z</time>
      </trkpt>
      <trkpt lat="42.138336" lon="2.207163">
        <ele>653.962</ele>
        <time>2017-11-28T12:54:24Z</time>
      </trkpt>
      <trkpt lat="42.138391" lon="2.207151">
        <ele>654.015</ele>
        <time>2017-11-28T12:54:28Z</time>
      </trkpt>
      <trkpt lat="42.138442" lon="2.207126">
        <ele>654.165</ele>
        <time>2017-11-28T12:54:32Z</time>
      </trkpt>
      <trkpt lat="42.138484" lon="2.207091">
        <ele>654.011</ele>
        <time>2017-11-28T12:54:36Z</time>
      </trkpt>
      <trkpt lat="42.138513" lon="2.207044">
        <ele>654.008</ele>
        <time>2017-11-28T12:54:39Z</time>
      </trkpt>
      <trkpt lat="42.138550" lon="2.206987">
        <ele>653.893</ele>
        <time>2017-11-28T12:54:43Z</time>
      </trkpt>
      <trkpt lat="42.138574" lon="2.206923">
        <ele>653.872</ele>
        <time>2017-11-28T12:54:49Z</time>
      </trkpt>
      <trkpt lat="42.138575" lon="2.206848">
        <ele>654.023</ele>
        <time>2017-11-28T12:54:53Z</time>
      </trkpt>
      <trkpt lat="42.138565" lon="2.206771">
        <ele>653.437</ele>
        <time>2017-11-28T12:54:57Z</time>
      </trkpt>
      <trkpt lat="42.138541" lon="2.206709">
        <ele>652.933</ele>
        <time>2017-11-28T12:55:01Z</time>
      </trkpt>
      <trkpt lat="42.138518" lon="2.206645">
        <ele>652.792</ele>
        <time>2017-11-28T12:55:05Z</time>
      </trkpt>
      <trkpt lat="42.138497" lon="2.206581">
        <ele>652.568</ele>
        <time>2017-11-28T12:55:09Z</time>
      </trkpt>
      <trkpt lat="42.138479" lon="2.206521">
        <ele>652.885</ele>
        <time>2017-11-28T12:55:13Z</time>
      </trkpt>
      <trkpt lat="42.138459" lon="2.206455">
        <ele>653.027</ele>
        <time>2017-11-28T12:55:18Z</time>
      </trkpt>
      <trkpt lat="42.138436" lon="2.206397">
        <ele>652.668</ele>
        <time>2017-11-28T12:55:22Z</time>
      </trkpt>
      <trkpt lat="42.138406" lon="2.206341">
        <ele>652.114</ele>
        <time>2017-11-28T12:55:26Z</time>
      </trkpt>
      <trkpt lat="42.138373" lon="2.206282">
        <ele>651.408</ele>
        <time>2017-11-28T12:55:30Z</time>
      </trkpt>
      <trkpt lat="42.138329" lon="2.206236">
        <ele>651.044</ele>
        <time>2017-11-28T12:55:34Z</time>
      </trkpt>
      <trkpt lat="42.138284" lon="2.206199">
        <ele>650.143</ele>
        <time>2017-11-28T12:55:38Z</time>
      </trkpt>
      <trkpt lat="42.138239" lon="2.206167">
        <ele>649.414</ele>
        <time>2017-11-28T12:55:42Z</time>
      </trkpt>
      <trkpt lat="42.138205" lon="2.206126">
        <ele>648.948</ele>
        <time>2017-11-28T12:55:46Z</time>
      </trkpt>
      <trkpt lat="42.138164" lon="2.206097">
        <ele>647.864</ele>
        <time>2017-11-28T12:55:50Z</time>
      </trkpt>
      <trkpt lat="42.138125" lon="2.206061">
        <ele>646.573</ele>
        <time>2017-11-28T12:55:54Z</time>
      </trkpt>
      <trkpt lat="42.138088" lon="2.206016">
        <ele>645.969</ele>
        <time>2017-11-28T12:55:59Z</time>
      </trkpt>
      <trkpt lat="42.138055" lon="2.205962">
        <ele>645.876</ele>
        <time>2017-11-28T12:56:04Z</time>
      </trkpt>
      <trkpt lat="42.138029" lon="2.205906">
        <ele>644.629</ele>
        <time>2017-11-28T12:56:09Z</time>
      </trkpt>
      <trkpt lat="42.138010" lon="2.205843">
        <ele>643.500</ele>
        <time>2017-11-28T12:56:14Z</time>
      </trkpt>
      <trkpt lat="42.137989" lon="2.205781">
        <ele>642.720</ele>
        <time>2017-11-28T12:56:19Z</time>
      </trkpt>
      <trkpt lat="42.137971" lon="2.205711">
        <ele>642.508</ele>
        <time>2017-11-28T12:56:24Z</time>
      </trkpt>
      <trkpt lat="42.137946" lon="2.205653">
        <ele>642.074</ele>
        <time>2017-11-28T12:56:28Z</time>
      </trkpt>
      <trkpt lat="42.137922" lon="2.205592">
        <ele>641.463</ele>
        <time>2017-11-28T12:56:32Z</time>
      </trkpt>
      <trkpt lat="42.137898" lon="2.205524">
        <ele>641.514</ele>
        <time>2017-11-28T12:56:36Z</time>
      </trkpt>
      <trkpt lat="42.137883" lon="2.205448">
        <ele>641.368</ele>
        <time>2017-11-28T12:56:40Z</time>
      </trkpt>
      <trkpt lat="42.137856" lon="2.205385">
        <ele>641.524</ele>
        <time>2017-11-28T12:56:44Z</time>
      </trkpt>
      <trkpt lat="42.137816" lon="2.205342">
        <ele>641.283</ele>
        <time>2017-11-28T12:56:48Z</time>
      </trkpt>
      <trkpt lat="42.137777" lon="2.205290">
        <ele>641.519</ele>
        <time>2017-11-28T12:56:52Z</time>
      </trkpt>
      <trkpt lat="42.137739" lon="2.205235">
        <ele>641.726</ele>
        <time>2017-11-28T12:56:57Z</time>
      </trkpt>
      <trkpt lat="42.137708" lon="2.205180">
        <ele>641.547</ele>
        <time>2017-11-28T12:57:01Z</time>
      </trkpt>
      <trkpt lat="42.137683" lon="2.205124">
        <ele>641.329</ele>
        <time>2017-11-28T12:57:05Z</time>
      </trkpt>
      <trkpt lat="42.137652" lon="2.205077">
        <ele>641.121</ele>
        <time>2017-11-28T12:57:08Z</time>
      </trkpt>
      <trkpt lat="42.137599" lon="2.205072">
        <ele>641.008</ele>
        <time>2017-11-28T12:57:12Z</time>
      </trkpt>
      <trkpt lat="42.137555" lon="2.205121">
        <ele>641.086</ele>
        <time>2017-11-28T12:57:16Z</time>
      </trkpt>
      <trkpt lat="42.137546" lon="2.205196">
        <ele>640.535</ele>
        <time>2017-11-28T12:57:21Z</time>
      </trkpt>
      <trkpt lat="42.137541" lon="2.205257">
        <ele>640.376</ele>
        <time>2017-11-28T12:57:24Z</time>
      </trkpt>
      <trkpt lat="42.137534" lon="2.205318">
        <ele>640.050</ele>
        <time>2017-11-28T12:57:27Z</time>
      </trkpt>
      <trkpt lat="42.137522" lon="2.205384">
        <ele>639.846</ele>
        <time>2017-11-28T12:57:31Z</time>
      </trkpt>
      <trkpt lat="42.137508" lon="2.205447">
        <ele>639.815</ele>
        <time>2017-11-28T12:57:35Z</time>
      </trkpt>
      <trkpt lat="42.137505" lon="2.205511">
        <ele>640.091</ele>
        <time>2017-11-28T12:57:40Z</time>
      </trkpt>
      <trkpt lat="42.137484" lon="2.205572">
        <ele>639.628</ele>
        <time>2017-11-28T12:57:46Z</time>
      </trkpt>
      <trkpt lat="42.137464" lon="2.205637">
        <ele>638.886</ele>
        <time>2017-11-28T12:57:53Z</time>
      </trkpt>
      <trkpt lat="42.137427" lon="2.205687">
        <ele>639.460</ele>
        <time>2017-11-28T12:57:59Z</time>
      </trkpt>
      <trkpt lat="42.137381" lon="2.205719">
        <ele>639.826</ele>
        <time>2017-11-28T12:58:07Z</time>
      </trkpt>
      <trkpt lat="42.137329" lon="2.205747">
        <ele>640.308</ele>
        <time>2017-11-28T12:58:12Z</time>
      </trkpt>
      <trkpt lat="42.137278" lon="2.205748">
        <ele>640.580</ele>
        <time>2017-11-28T12:58:17Z</time>
      </trkpt>
      <trkpt lat="42.137233" lon="2.205717">
        <ele>641.669</ele>
        <time>2017-11-28T12:58:22Z</time>
      </trkpt>
      <trkpt lat="42.137203" lon="2.205664">
        <ele>642.210</ele>
        <time>2017-11-28T12:58:27Z</time>
      </trkpt>
      <trkpt lat="42.137176" lon="2.205604">
        <ele>642.844</ele>
        <time>2017-11-28T12:58:32Z</time>
      </trkpt>
      <trkpt lat="42.137150" lon="2.205548">
        <ele>643.060</ele>
        <time>2017-11-28T12:58:36Z</time>
      </trkpt>
      <trkpt lat="42.137126" lon="2.205493">
        <ele>643.369</ele>
        <time>2017-11-28T12:58:40Z</time>
      </trkpt>
      <trkpt lat="42.137113" lon="2.205430">
        <ele>643.095</ele>
        <time>2017-11-28T12:58:44Z</time>
      </trkpt>
      <trkpt lat="42.137099" lon="2.205362">
        <ele>643.372</ele>
        <time>2017-11-28T12:58:48Z</time>
      </trkpt>
      <trkpt lat="42.137086" lon="2.205297">
        <ele>643.649</ele>
        <time>2017-11-28T12:58:52Z</time>
      </trkpt>
      <trkpt lat="42.137078" lon="2.205235">
        <ele>643.702</ele>
        <time>2017-11-28T12:58:56Z</time>
      </trkpt>
      <trkpt lat="42.137080" lon="2.205167">
        <ele>643.522</ele>
        <time>2017-11-28T12:59:01Z</time>
      </trkpt>
      <trkpt lat="42.137072" lon="2.205097">
        <ele>643.908</ele>
        <time>2017-11-28T12:59:07Z</time>
      </trkpt>
      <trkpt lat="42.137068" lon="2.205031">
        <ele>644.196</ele>
        <time>2017-11-28T12:59:12Z</time>
      </trkpt>
      <trkpt lat="42.137066" lon="2.204964">
        <ele>644.715</ele>
        <time>2017-11-28T12:59:17Z</time>
      </trkpt>
      <trkpt lat="42.137058" lon="2.204895">
        <ele>644.556</ele>
        <time>2017-11-28T12:59:23Z</time>
      </trkpt>
      <trkpt lat="42.137047" lon="2.204832">
        <ele>644.930</ele>
        <time>2017-11-28T12:59:28Z</time>
      </trkpt>
      <trkpt lat="42.137036" lon="2.204771">
        <ele>645.496</ele>
        <time>2017-11-28T12:59:33Z</time>
      </trkpt>
      <trkpt lat="42.137010" lon="2.204716">
        <ele>646.665</ele>
        <time>2017-11-28T12:59:39Z</time>
      </trkpt>
      <trkpt lat="42.136997" lon="2.204654">
        <ele>647.991</ele>
        <time>2017-11-28T12:59:45Z</time>
      </trkpt>
      <trkpt lat="42.136978" lon="2.204595">
        <ele>648.818</ele>
        <time>2017-11-28T12:59:51Z</time>
      </trkpt>
      <trkpt lat="42.136952" lon="2.204533">
        <ele>649.595</ele>
        <time>2017-11-28T12:59:57Z</time>
      </trkpt>
      <trkpt lat="42.136940" lon="2.204468">
        <ele>649.149</ele>
        <time>2017-11-28T13:00:03Z</time>
      </trkpt>
      <trkpt lat="42.136934" lon="2.204406">
        <ele>650.023</ele>
        <time>2017-11-28T13:00:08Z</time>
      </trkpt>
      <trkpt lat="42.136914" lon="2.204335">
        <ele>650.408</ele>
        <time>2017-11-28T13:00:13Z</time>
      </trkpt>
      <trkpt lat="42.136892" lon="2.204281">
        <ele>650.941</ele>
        <time>2017-11-28T13:00:17Z</time>
      </trkpt>
      <trkpt lat="42.136862" lon="2.204232">
        <ele>651.910</ele>
        <time>2017-11-28T13:00:21Z</time>
      </trkpt>
      <trkpt lat="42.136832" lon="2.204182">
        <ele>652.581</ele>
        <time>2017-11-28T13:00:25Z</time>
      </trkpt>
      <trkpt lat="42.136804" lon="2.204132">
        <ele>653.045</ele>
        <time>2017-11-28T13:00:29Z</time>
      </trkpt>
      <trkpt lat="42.136770" lon="2.204072">
        <ele>653.961</ele>
        <time>2017-11-28T13:00:34Z</time>
      </trkpt>
      <trkpt lat="42.136747" lon="2.204013">
        <ele>654.150</ele>
        <time>2017-11-28T13:00:38Z</time>
      </trkpt>
      <trkpt lat="42.136725" lon="2.203957">
        <ele>654.616</ele>
        <time>2017-11-28T13:00:42Z</time>
      </trkpt>
      <trkpt lat="42.136709" lon="2.203898">
        <ele>655.693</ele>
        <time>2017-11-28T13:00:47Z</time>
      </trkpt>
      <trkpt lat="42.136696" lon="2.203828">
        <ele>657.089</ele>
        <time>2017-11-28T13:00:52Z</time>
      </trkpt>
      <trkpt lat="42.136676" lon="2.203759">
        <ele>657.806</ele>
        <time>2017-11-28T13:00:57Z</time>
      </trkpt>
      <trkpt lat="42.136660" lon="2.203694">
        <ele>657.826</ele>
        <time>2017-11-28T13:01:02Z</time>
      </trkpt>
      <trkpt lat="42.136639" lon="2.203640">
        <ele>658.508</ele>
        <time>2017-11-28T13:01:06Z</time>
      </trkpt>
      <trkpt lat="42.136610" lon="2.203586">
        <ele>659.010</ele>
        <time>2017-11-28T13:01:10Z</time>
      </trkpt>
      <trkpt lat="42.136581" lon="2.203532">
        <ele>659.659</ele>
        <time>2017-11-28T13:01:15Z</time>
      </trkpt>
      <trkpt lat="42.136552" lon="2.203483">
        <ele>660.110</ele>
        <time>2017-11-28T13:01:20Z</time>
      </trkpt>
      <trkpt lat="42.136529" lon="2.203423">
        <ele>659.924</ele>
        <time>2017-11-28T13:01:26Z</time>
      </trkpt>
      <trkpt lat="42.136512" lon="2.203364">
        <ele>660.710</ele>
        <time>2017-11-28T13:01:32Z</time>
      </trkpt>
      <trkpt lat="42.136500" lon="2.203294">
        <ele>661.489</ele>
        <time>2017-11-28T13:01:38Z</time>
      </trkpt>
      <trkpt lat="42.136485" lon="2.203230">
        <ele>662.495</ele>
        <time>2017-11-28T13:01:44Z</time>
      </trkpt>
      <trkpt lat="42.136474" lon="2.203169">
        <ele>663.212</ele>
        <time>2017-11-28T13:01:49Z</time>
      </trkpt>
      <trkpt lat="42.136456" lon="2.203101">
        <ele>664.359</ele>
        <time>2017-11-28T13:01:55Z</time>
      </trkpt>
      <trkpt lat="42.136448" lon="2.203038">
        <ele>665.003</ele>
        <time>2017-11-28T13:02:00Z</time>
      </trkpt>
      <trkpt lat="42.136446" lon="2.202968">
        <ele>665.823</ele>
        <time>2017-11-28T13:02:04Z</time>
      </trkpt>
      <trkpt lat="42.136453" lon="2.202903">
        <ele>666.708</ele>
        <time>2017-11-28T13:02:08Z</time>
      </trkpt>
      <trkpt lat="42.136461" lon="2.202842">
        <ele>668.037</ele>
        <time>2017-11-28T13:02:12Z</time>
      </trkpt>
      <trkpt lat="42.136476" lon="2.202783">
        <ele>668.766</ele>
        <time>2017-11-28T13:02:16Z</time>
      </trkpt>
      <trkpt lat="42.136489" lon="2.202724">
        <ele>669.257</ele>
        <time>2017-11-28T13:02:20Z</time>
      </trkpt>
      <trkpt lat="42.136503" lon="2.202655">
        <ele>669.891</ele>
        <time>2017-11-28T13:02:25Z</time>
      </trkpt>
      <trkpt lat="42.136523" lon="2.202590">
        <ele>669.977</ele>
        <time>2017-11-28T13:02:30Z</time>
      </trkpt>
      <trkpt lat="42.136543" lon="2.202525">
        <ele>670.656</ele>
        <time>2017-11-28T13:02:34Z</time>
      </trkpt>
      <trkpt lat="42.136564" lon="2.202454">
        <ele>670.742</ele>
        <time>2017-11-28T13:02:38Z</time>
      </trkpt>
      <trkpt lat="42.136582" lon="2.202383">
        <ele>670.899</ele>
        <time>2017-11-28T13:02:42Z</time>
      </trkpt>
      <trkpt lat="42.136589" lon="2.202316">
        <ele>670.822</ele>
        <time>2017-11-28T13:02:46Z</time>
      </trkpt>
      <trkpt lat="42.136592" lon="2.202243">
        <ele>671.262</ele>
        <time>2017-11-28T13:02:50Z</time>
      </trkpt>
      <trkpt lat="42.136590" lon="2.202181">
        <ele>670.908</ele>
        <time>2017-11-28T13:02:54Z</time>
      </trkpt>
      <trkpt lat="42.136579" lon="2.202112">
        <ele>670.708</ele>
        <time>2017-11-28T13:02:58Z</time>
      </trkpt>
      <trkpt lat="42.136566" lon="2.202038">
        <ele>671.664</ele>
        <time>2017-11-28T13:03:02Z</time>
      </trkpt>
      <trkpt lat="42.136554" lon="2.201979">
        <ele>671.723</ele>
        <time>2017-11-28T13:03:06Z</time>
      </trkpt>
      <trkpt lat="42.136555" lon="2.201915">
        <ele>672.044</ele>
        <time>2017-11-28T13:03:10Z</time>
      </trkpt>
      <trkpt lat="42.136568" lon="2.201846">
        <ele>672.358</ele>
        <time>2017-11-28T13:03:15Z</time>
      </trkpt>
      <trkpt lat="42.136586" lon="2.201778">
        <ele>673.264</ele>
        <time>2017-11-28T13:03:20Z</time>
      </trkpt>
      <trkpt lat="42.136614" lon="2.201711">
        <ele>673.693</ele>
        <time>2017-11-28T13:03:24Z</time>
      </trkpt>
      <trkpt lat="42.136643" lon="2.201660">
        <ele>673.489</ele>
        <time>2017-11-28T13:03:28Z</time>
      </trkpt>
      <trkpt lat="42.136682" lon="2.201610">
        <ele>674.256</ele>
        <time>2017-11-28T13:03:32Z</time>
      </trkpt>
      <trkpt lat="42.136720" lon="2.201570">
        <ele>674.555</ele>
        <time>2017-11-28T13:03:36Z</time>
      </trkpt>
      <trkpt lat="42.136758" lon="2.201533">
        <ele>675.607</ele>
        <time>2017-11-28T13:03:40Z</time>
      </trkpt>
      <trkpt lat="42.136800" lon="2.201484">
        <ele>676.517</ele>
        <time>2017-11-28T13:03:45Z</time>
      </trkpt>
      <trkpt lat="42.136822" lon="2.201418">
        <ele>676.708</ele>
        <time>2017-11-28T13:03:50Z</time>
      </trkpt>
      <trkpt lat="42.136834" lon="2.201350">
        <ele>676.827</ele>
        <time>2017-11-28T13:03:55Z</time>
      </trkpt>
      <trkpt lat="42.136840" lon="2.201285">
        <ele>677.056</ele>
        <time>2017-11-28T13:03:59Z</time>
      </trkpt>
      <trkpt lat="42.136839" lon="2.201212">
        <ele>677.267</ele>
        <time>2017-11-28T13:04:03Z</time>
      </trkpt>
      <trkpt lat="42.136843" lon="2.201149">
        <ele>677.311</ele>
        <time>2017-11-28T13:04:07Z</time>
      </trkpt>
      <trkpt lat="42.136837" lon="2.201079">
        <ele>676.837</ele>
        <time>2017-11-28T13:04:11Z</time>
      </trkpt>
      <trkpt lat="42.136823" lon="2.201014">
        <ele>677.376</ele>
        <time>2017-11-28T13:04:15Z</time>
      </trkpt>
      <trkpt lat="42.136806" lon="2.200948">
        <ele>677.392</ele>
        <time>2017-11-28T13:04:19Z</time>
      </trkpt>
      <trkpt lat="42.136789" lon="2.200887">
        <ele>676.999</ele>
        <time>2017-11-28T13:04:23Z</time>
      </trkpt>
      <trkpt lat="42.136771" lon="2.200831">
        <ele>677.722</ele>
        <time>2017-11-28T13:04:27Z</time>
      </trkpt>
      <trkpt lat="42.136754" lon="2.200768">
        <ele>677.762</ele>
        <time>2017-11-28T13:04:31Z</time>
      </trkpt>
      <trkpt lat="42.136737" lon="2.200704">
        <ele>678.008</ele>
        <time>2017-11-28T13:04:35Z</time>
      </trkpt>
      <trkpt lat="42.136709" lon="2.200635">
        <ele>678.308</ele>
        <time>2017-11-28T13:04:39Z</time>
      </trkpt>
      <trkpt lat="42.136672" lon="2.200578">
        <ele>678.184</ele>
        <time>2017-11-28T13:04:43Z</time>
      </trkpt>
      <trkpt lat="42.136629" lon="2.200525">
        <ele>677.523</ele>
        <time>2017-11-28T13:04:47Z</time>
      </trkpt>
      <trkpt lat="42.136583" lon="2.200482">
        <ele>677.744</ele>
        <time>2017-11-28T13:04:51Z</time>
      </trkpt>
      <trkpt lat="42.136540" lon="2.200434">
        <ele>677.348</ele>
        <time>2017-11-28T13:04:55Z</time>
      </trkpt>
      <trkpt lat="42.136502" lon="2.200385">
        <ele>676.684</ele>
        <time>2017-11-28T13:04:59Z</time>
      </trkpt>
      <trkpt lat="42.136460" lon="2.200336">
        <ele>677.263</ele>
        <time>2017-11-28T13:05:03Z</time>
      </trkpt>
      <trkpt lat="42.136428" lon="2.200291">
        <ele>677.179</ele>
        <time>2017-11-28T13:05:07Z</time>
      </trkpt>
      <trkpt lat="42.136394" lon="2.200245">
        <ele>675.536</ele>
        <time>2017-11-28T13:05:11Z</time>
      </trkpt>
      <trkpt lat="42.136369" lon="2.200192">
        <ele>675.148</ele>
        <time>2017-11-28T13:05:15Z</time>
      </trkpt>
      <trkpt lat="42.136341" lon="2.200126">
        <ele>674.561</ele>
        <time>2017-11-28T13:05:20Z</time>
      </trkpt>
      <trkpt lat="42.136294" lon="2.200094">
        <ele>674.317</ele>
        <time>2017-11-28T13:05:24Z</time>
      </trkpt>
      <trkpt lat="42.136243" lon="2.200071">
        <ele>673.708</ele>
        <time>2017-11-28T13:05:28Z</time>
      </trkpt>
      <trkpt lat="42.136187" lon="2.200077">
        <ele>673.516</ele>
        <time>2017-11-28T13:05:32Z</time>
      </trkpt>
      <trkpt lat="42.136141" lon="2.200112">
        <ele>672.585</ele>
        <time>2017-11-28T13:05:36Z</time>
      </trkpt>
      <trkpt lat="42.136102" lon="2.200168">
        <ele>671.886</ele>
        <time>2017-11-28T13:05:40Z</time>
      </trkpt>
      <trkpt lat="42.136072" lon="2.200213">
        <ele>671.660</ele>
        <time>2017-11-28T13:05:44Z</time>
      </trkpt>
      <trkpt lat="42.136034" lon="2.200257">
        <ele>671.486</ele>
        <time>2017-11-28T13:05:48Z</time>
      </trkpt>
      <trkpt lat="42.135992" lon="2.200292">
        <ele>670.965</ele>
        <time>2017-11-28T13:05:53Z</time>
      </trkpt>
      <trkpt lat="42.135954" lon="2.200345">
        <ele>670.521</ele>
        <time>2017-11-28T13:05:58Z</time>
      </trkpt>
      <trkpt lat="42.135914" lon="2.200394">
        <ele>670.588</ele>
        <time>2017-11-28T13:06:03Z</time>
      </trkpt>
      <trkpt lat="42.135866" lon="2.200435">
        <ele>670.141</ele>
        <time>2017-11-28T13:06:08Z</time>
      </trkpt>
      <trkpt lat="42.135819" lon="2.200476">
        <ele>670.081</ele>
        <time>2017-11-28T13:06:12Z</time>
      </trkpt>
      <trkpt lat="42.135789" lon="2.200533">
        <ele>669.509</ele>
        <time>2017-11-28T13:06:17Z</time>
      </trkpt>
      <trkpt lat="42.135770" lon="2.200601">
        <ele>669.308</ele>
        <time>2017-11-28T13:06:21Z</time>
      </trkpt>
      <trkpt lat="42.135750" lon="2.200664">
        <ele>668.686</ele>
        <time>2017-11-28T13:06:25Z</time>
      </trkpt>
      <trkpt lat="42.135729" lon="2.200731">
        <ele>668.135</ele>
        <time>2017-11-28T13:06:30Z</time>
      </trkpt>
      <trkpt lat="42.135692" lon="2.200782">
        <ele>667.996</ele>
        <time>2017-11-28T13:06:35Z</time>
      </trkpt>
      <trkpt lat="42.135666" lon="2.200849">
        <ele>667.520</ele>
        <time>2017-11-28T13:06:40Z</time>
      </trkpt>
      <trkpt lat="42.135652" lon="2.200921">
        <ele>668.246</ele>
        <time>2017-11-28T13:06:44Z</time>
      </trkpt>
      <trkpt lat="42.135633" lon="2.200980">
        <ele>667.815</ele>
        <time>2017-11-28T13:06:48Z</time>
      </trkpt>
      <trkpt lat="42.135605" lon="2.201045">
        <ele>668.141</ele>
        <time>2017-11-28T13:06:53Z</time>
      </trkpt>
      <trkpt lat="42.135579" lon="2.201105">
        <ele>668.058</ele>
        <time>2017-11-28T13:06:57Z</time>
      </trkpt>
      <trkpt lat="42.135550" lon="2.201155">
        <ele>667.759</ele>
        <time>2017-11-28T13:07:01Z</time>
      </trkpt>
      <trkpt lat="42.135511" lon="2.201215">
        <ele>667.403</ele>
        <time>2017-11-28T13:07:05Z</time>
      </trkpt>
      <trkpt lat="42.135466" lon="2.201254">
        <ele>667.323</ele>
        <time>2017-11-28T13:07:09Z</time>
      </trkpt>
      <trkpt lat="42.135415" lon="2.201299">
        <ele>667.308</ele>
        <time>2017-11-28T13:07:13Z</time>
      </trkpt>
      <trkpt lat="42.135372" lon="2.201338">
        <ele>667.267</ele>
        <time>2017-11-28T13:07:17Z</time>
      </trkpt>
      <trkpt lat="42.135330" lon="2.201367">
        <ele>667.026</ele>
        <time>2017-11-28T13:07:22Z</time>
      </trkpt>
      <trkpt lat="42.135287" lon="2.201401">
        <ele>666.797</ele>
        <time>2017-11-28T13:07:25Z</time>
      </trkpt>
      <trkpt lat="42.135244" lon="2.201444">
        <ele>667.171</ele>
        <time>2017-11-28T13:07:28Z</time>
      </trkpt>
      <trkpt lat="42.135205" lon="2.201498">
        <ele>666.987</ele>
        <time>2017-11-28T13:07:32Z</time>
      </trkpt>
      <trkpt lat="42.135168" lon="2.201553">
        <ele>666.256</ele>
        <time>2017-11-28T13:07:36Z</time>
      </trkpt>
      <trkpt lat="42.135123" lon="2.201595">
        <ele>666.612</ele>
        <time>2017-11-28T13:07:39Z</time>
      </trkpt>
      <trkpt lat="42.135078" lon="2.201641">
        <ele>666.499</ele>
        <time>2017-11-28T13:07:43Z</time>
      </trkpt>
      <trkpt lat="42.135052" lon="2.201698">
        <ele>666.585</ele>
        <time>2017-11-28T13:07:47Z</time>
      </trkpt>
      <trkpt lat="42.135027" lon="2.201763">
        <ele>665.989</ele>
        <time>2017-11-28T13:07:51Z</time>
      </trkpt>
      <trkpt lat="42.134995" lon="2.201814">
        <ele>665.317</ele>
        <time>2017-11-28T13:07:56Z</time>
      </trkpt>
      <trkpt lat="42.134960" lon="2.201868">
        <ele>665.508</ele>
        <time>2017-11-28T13:08:00Z</time>
      </trkpt>
      <trkpt lat="42.134941" lon="2.201931">
        <ele>665.850</ele>
        <time>2017-11-28T13:08:03Z</time>
      </trkpt>
      <trkpt lat="42.134923" lon="2.202000">
        <ele>665.449</ele>
        <time>2017-11-28T13:08:07Z</time>
      </trkpt>
      <trkpt lat="42.134881" lon="2.202057">
        <ele>665.350</ele>
        <time>2017-11-28T13:08:11Z</time>
      </trkpt>
      <trkpt lat="42.134883" lon="2.202132">
        <ele>664.614</ele>
        <time>2017-11-28T13:08:18Z</time>
      </trkpt>
      <trkpt lat="42.134855" lon="2.202183">
        <ele>664.420</ele>
        <time>2017-11-28T13:08:23Z</time>
      </trkpt>
      <trkpt lat="42.134828" lon="2.202231">
        <ele>664.289</ele>
        <time>2017-11-28T13:08:26Z</time>
      </trkpt>
      <trkpt lat="42.134824" lon="2.202298">
        <ele>664.095</ele>
        <time>2017-11-28T13:08:31Z</time>
      </trkpt>
      <trkpt lat="42.134884" lon="2.202331">
        <ele>663.022</ele>
        <time>2017-11-28T13:08:35Z</time>
      </trkpt>
      <trkpt lat="42.134931" lon="2.202348">
        <ele>662.375</ele>
        <time>2017-11-28T13:08:37Z</time>
      </trkpt>
      <trkpt lat="42.134974" lon="2.202377">
        <ele>661.328</ele>
        <time>2017-11-28T13:08:40Z</time>
      </trkpt>
      <trkpt lat="42.134979" lon="2.202451">
        <ele>660.920</ele>
        <time>2017-11-28T13:08:45Z</time>
      </trkpt>
      <trkpt lat="42.134992" lon="2.202512">
        <ele>660.408</ele>
        <time>2017-11-28T13:08:49Z</time>
      </trkpt>
      <trkpt lat="42.135010" lon="2.202580">
        <ele>658.569</ele>
        <time>2017-11-28T13:08:53Z</time>
      </trkpt>
      <trkpt lat="42.134977" lon="2.202627">
        <ele>658.028</ele>
        <time>2017-11-28T13:08:56Z</time>
      </trkpt>
      <trkpt lat="42.134946" lon="2.202683">
        <ele>658.389</ele>
        <time>2017-11-28T13:09:00Z</time>
      </trkpt>
      <trkpt lat="42.134909" lon="2.202717">
        <ele>658.033</ele>
        <time>2017-11-28T13:09:03Z</time>
      </trkpt>
      <trkpt lat="42.134870" lon="2.202775">
        <ele>657.949</ele>
        <time>2017-11-28T13:09:06Z</time>
      </trkpt>
      <trkpt lat="42.134840" lon="2.202821">
        <ele>658.268</ele>
        <time>2017-11-28T13:09:10Z</time>
      </trkpt>
      <trkpt lat="42.134829" lon="2.202885">
        <ele>657.914</ele>
        <time>2017-11-28T13:09:16Z</time>
      </trkpt>
      <trkpt lat="42.134838" lon="2.202947">
        <ele>657.111</ele>
        <time>2017-11-28T13:09:20Z</time>
      </trkpt>
      <trkpt lat="42.134867" lon="2.203004">
        <ele>656.099</ele>
        <time>2017-11-28T13:09:24Z</time>
      </trkpt>
      <trkpt lat="42.134901" lon="2.203067">
        <ele>655.307</ele>
        <time>2017-11-28T13:09:28Z</time>
      </trkpt>
      <trkpt lat="42.134937" lon="2.203117">
        <ele>655.127</ele>
        <time>2017-11-28T13:09:31Z</time>
      </trkpt>
      <trkpt lat="42.134964" lon="2.203182">
        <ele>654.008</ele>
        <time>2017-11-28T13:09:34Z</time>
      </trkpt>
      <trkpt lat="42.134974" lon="2.203247">
        <ele>653.481</ele>
        <time>2017-11-28T13:09:37Z</time>
      </trkpt>
      <trkpt lat="42.134983" lon="2.203316">
        <ele>652.640</ele>
        <time>2017-11-28T13:09:41Z</time>
      </trkpt>
      <trkpt lat="42.135004" lon="2.203370">
        <ele>653.181</ele>
        <time>2017-11-28T13:09:44Z</time>
      </trkpt>
      <trkpt lat="42.135020" lon="2.203427">
        <ele>650.725</ele>
        <time>2017-11-28T13:09:47Z</time>
      </trkpt>
      <trkpt lat="42.135043" lon="2.203490">
        <ele>650.171</ele>
        <time>2017-11-28T13:09:50Z</time>
      </trkpt>
      <trkpt lat="42.135060" lon="2.203560">
        <ele>649.660</ele>
        <time>2017-11-28T13:09:53Z</time>
      </trkpt>
      <trkpt lat="42.135069" lon="2.203642">
        <ele>649.416</ele>
        <time>2017-11-28T13:09:57Z</time>
      </trkpt>
      <trkpt lat="42.135064" lon="2.203704">
        <ele>649.483</ele>
        <time>2017-11-28T13:10:00Z</time>
      </trkpt>
      <trkpt lat="42.135042" lon="2.203773">
        <ele>649.578</ele>
        <time>2017-11-28T13:10:04Z</time>
      </trkpt>
      <trkpt lat="42.135017" lon="2.203838">
        <ele>649.333</ele>
        <time>2017-11-28T13:10:08Z</time>
      </trkpt>
      <trkpt lat="42.134984" lon="2.203888">
        <ele>648.826</ele>
        <time>2017-11-28T13:10:11Z</time>
      </trkpt>
      <trkpt lat="42.134944" lon="2.203932">
        <ele>648.608</ele>
        <time>2017-11-28T13:10:14Z</time>
      </trkpt>
      <trkpt lat="42.134910" lon="2.203972">
        <ele>648.899</ele>
        <time>2017-11-28T13:10:17Z</time>
      </trkpt>
      <trkpt lat="42.134872" lon="2.204032">
        <ele>649.188</ele>
        <time>2017-11-28T13:10:21Z</time>
      </trkpt>
      <trkpt lat="42.134837" lon="2.204093">
        <ele>649.259</ele>
        <time>2017-11-28T13:10:25Z</time>
      </trkpt>
      <trkpt lat="42.134820" lon="2.204167">
        <ele>648.373</ele>
        <time>2017-11-28T13:10:30Z</time>
      </trkpt>
      <trkpt lat="42.134807" lon="2.204234">
        <ele>647.349</ele>
        <time>2017-11-28T13:10:35Z</time>
      </trkpt>
      <trkpt lat="42.134825" lon="2.204294">
        <ele>646.968</ele>
        <time>2017-11-28T13:10:39Z</time>
      </trkpt>
      <trkpt lat="42.134840" lon="2.204361">
        <ele>646.814</ele>
        <time>2017-11-28T13:10:43Z</time>
      </trkpt>
      <trkpt lat="42.134870" lon="2.204409">
        <ele>647.241</ele>
        <time>2017-11-28T13:10:46Z</time>
      </trkpt>
      <trkpt lat="42.134909" lon="2.204464">
        <ele>647.345</ele>
        <time>2017-11-28T13:10:49Z</time>
      </trkpt>
      <trkpt lat="42.134926" lon="2.204527">
        <ele>646.947</ele>
        <time>2017-11-28T13:10:53Z</time>
      </trkpt>
      <trkpt lat="42.134923" lon="2.204591">
        <ele>645.411</ele>
        <time>2017-11-28T13:10:58Z</time>
      </trkpt>
      <trkpt lat="42.134913" lon="2.204659">
        <ele>643.508</ele>
        <time>2017-11-28T13:11:02Z</time>
      </trkpt>
      <trkpt lat="42.134908" lon="2.204723">
        <ele>643.166</ele>
        <time>2017-11-28T13:11:05Z</time>
      </trkpt>
      <trkpt lat="42.134897" lon="2.204793">
        <ele>642.645</ele>
        <time>2017-11-28T13:11:09Z</time>
      </trkpt>
      <trkpt lat="42.134882" lon="2.204866">
        <ele>642.226</ele>
        <time>2017-11-28T13:11:13Z</time>
      </trkpt>
      <trkpt lat="42.134857" lon="2.204926">
        <ele>641.760</ele>
        <time>2017-11-28T13:11:17Z</time>
      </trkpt>
      <trkpt lat="42.134814" lon="2.204977">
        <ele>640.846</ele>
        <time>2017-11-28T13:11:22Z</time>
      </trkpt>
      <trkpt lat="42.134768" lon="2.205011">
        <ele>640.265</ele>
        <time>2017-11-28T13:11:26Z</time>
      </trkpt>
      <trkpt lat="42.134722" lon="2.205027">
        <ele>639.321</ele>
        <time>2017-11-28T13:11:30Z</time>
      </trkpt>
      <trkpt lat="42.134675" lon="2.205042">
        <ele>638.948</ele>
        <time>2017-11-28T13:11:34Z</time>
      </trkpt>
      <trkpt lat="42.134622" lon="2.205068">
        <ele>638.698</ele>
        <time>2017-11-28T13:11:38Z</time>
      </trkpt>
      <trkpt lat="42.134571" lon="2.205098">
        <ele>638.015</ele>
        <time>2017-11-28T13:11:42Z</time>
      </trkpt>
      <trkpt lat="42.134521" lon="2.205111">
        <ele>636.626</ele>
        <time>2017-11-28T13:11:46Z</time>
      </trkpt>
      <trkpt lat="42.134465" lon="2.205127">
        <ele>636.308</ele>
        <time>2017-11-28T13:11:50Z</time>
      </trkpt>
      <trkpt lat="42.134423" lon="2.205166">
        <ele>637.851</ele>
        <time>2017-11-28T13:11:54Z</time>
      </trkpt>
      <trkpt lat="42.134435" lon="2.205231">
        <ele>637.540</ele>
        <time>2017-11-28T13:11:58Z</time>
      </trkpt>
      <trkpt lat="42.134484" lon="2.205272">
        <ele>634.691</ele>
        <time>2017-11-28T13:12:02Z</time>
      </trkpt>
      <trkpt lat="42.134524" lon="2.205305">
        <ele>633.865</ele>
        <time>2017-11-28T13:12:06Z</time>
      </trkpt>
      <trkpt lat="42.134564" lon="2.205353">
        <ele>632.151</ele>
        <time>2017-11-28T13:12:10Z</time>
      </trkpt>
      <trkpt lat="42.134587" lon="2.205420">
        <ele>634.020</ele>
        <time>2017-11-28T13:12:14Z</time>
      </trkpt>
      <trkpt lat="42.134607" lon="2.205479">
        <ele>631.276</ele>
        <time>2017-11-28T13:12:18Z</time>
      </trkpt>
      <trkpt lat="42.134632" lon="2.205532">
        <ele>630.573</ele>
        <time>2017-11-28T13:12:22Z</time>
      </trkpt>
      <trkpt lat="42.134638" lon="2.205597">
        <ele>629.378</ele>
        <time>2017-11-28T13:12:26Z</time>
      </trkpt>
      <trkpt lat="42.134649" lon="2.205675">
        <ele>623.633</ele>
        <time>2017-11-28T13:13:10Z</time>
      </trkpt>
      <trkpt lat="42.134666" lon="2.205736">
        <ele>622.826</ele>
        <time>2017-11-28T13:13:14Z</time>
      </trkpt>
      <trkpt lat="42.134689" lon="2.205803">
        <ele>621.608</ele>
        <time>2017-11-28T13:13:18Z</time>
      </trkpt>
      <trkpt lat="42.134711" lon="2.205866">
        <ele>621.559</ele>
        <time>2017-11-28T13:13:22Z</time>
      </trkpt>
      <trkpt lat="42.134738" lon="2.205933">
        <ele>621.318</ele>
        <time>2017-11-28T13:13:27Z</time>
      </trkpt>
      <trkpt lat="42.134769" lon="2.205980">
        <ele>621.199</ele>
        <time>2017-11-28T13:13:31Z</time>
      </trkpt>
      <trkpt lat="42.134796" lon="2.206033">
        <ele>621.353</ele>
        <time>2017-11-28T13:13:35Z</time>
      </trkpt>
      <trkpt lat="42.134821" lon="2.206085">
        <ele>620.619</ele>
        <time>2017-11-28T13:13:39Z</time>
      </trkpt>
      <trkpt lat="42.134844" lon="2.206143">
        <ele>620.098</ele>
        <time>2017-11-28T13:13:43Z</time>
      </trkpt>
      <trkpt lat="42.134869" lon="2.206196">
        <ele>620.054</ele>
        <time>2017-11-28T13:13:47Z</time>
      </trkpt>
      <trkpt lat="42.134896" lon="2.206244">
        <ele>619.821</ele>
        <time>2017-11-28T13:13:51Z</time>
      </trkpt>
      <trkpt lat="42.134920" lon="2.206302">
        <ele>619.434</ele>
        <time>2017-11-28T13:13:55Z</time>
      </trkpt>
      <trkpt lat="42.134941" lon="2.206358">
        <ele>618.855</ele>
        <time>2017-11-28T13:13:59Z</time>
      </trkpt>
      <trkpt lat="42.134960" lon="2.206413">
        <ele>617.710</ele>
        <time>2017-11-28T13:14:03Z</time>
      </trkpt>
      <trkpt lat="42.134982" lon="2.206473">
        <ele>616.408</ele>
        <time>2017-11-28T13:14:07Z</time>
      </trkpt>
      <trkpt lat="42.135011" lon="2.206529">
        <ele>615.555</ele>
        <time>2017-11-28T13:14:11Z</time>
      </trkpt>
      <trkpt lat="42.135031" lon="2.206585">
        <ele>615.744</ele>
        <time>2017-11-28T13:14:16Z</time>
      </trkpt>
      <trkpt lat="42.134987" lon="2.206623">
        <ele>615.765</ele>
        <time>2017-11-28T13:14:20Z</time>
      </trkpt>
      <trkpt lat="42.134941" lon="2.206593">
        <ele>613.089</ele>
        <time>2017-11-28T13:14:29Z</time>
      </trkpt>
      <trkpt lat="42.134914" lon="2.206542">
        <ele>613.055</ele>
        <time>2017-11-28T13:14:33Z</time>
      </trkpt>
      <trkpt lat="42.134886" lon="2.206488">
        <ele>612.924</ele>
        <time>2017-11-28T13:14:37Z</time>
      </trkpt>
      <trkpt lat="42.134853" lon="2.206435">
        <ele>612.540</ele>
        <time>2017-11-28T13:14:41Z</time>
      </trkpt>
      <trkpt lat="42.134826" lon="2.206386">
        <ele>612.067</ele>
        <time>2017-11-28T13:14:45Z</time>
      </trkpt>
      <trkpt lat="42.134783" lon="2.206330">
        <ele>612.049</ele>
        <time>2017-11-28T13:14:55Z</time>
      </trkpt>
      <trkpt lat="42.134756" lon="2.206277">
        <ele>611.802</ele>
        <time>2017-11-28T13:14:58Z</time>
      </trkpt>
      <trkpt lat="42.134724" lon="2.206211">
        <ele>611.622</ele>
        <time>2017-11-28T13:15:02Z</time>
      </trkpt>
      <trkpt lat="42.134693" lon="2.206144">
        <ele>610.908</ele>
        <time>2017-11-28T13:15:06Z</time>
      </trkpt>
      <trkpt lat="42.134665" lon="2.206085">
        <ele>611.056</ele>
        <time>2017-11-28T13:15:09Z</time>
      </trkpt>
      <trkpt lat="42.134635" lon="2.206036">
        <ele>611.015</ele>
        <time>2017-11-28T13:15:12Z</time>
      </trkpt>
      <trkpt lat="42.134606" lon="2.205984">
        <ele>610.656</ele>
        <time>2017-11-28T13:15:15Z</time>
      </trkpt>
      <trkpt lat="42.134572" lon="2.205924">
        <ele>610.730</ele>
        <time>2017-11-28T13:15:19Z</time>
      </trkpt>
      <trkpt lat="42.134544" lon="2.205853">
        <ele>610.736</ele>
        <time>2017-11-28T13:15:23Z</time>
      </trkpt>
      <trkpt lat="42.134515" lon="2.205800">
        <ele>611.385</ele>
        <time>2017-11-28T13:15:26Z</time>
      </trkpt>
      <trkpt lat="42.134478" lon="2.205746">
        <ele>611.431</ele>
        <time>2017-11-28T13:15:30Z</time>
      </trkpt>
      <trkpt lat="42.134448" lon="2.205689">
        <ele>612.078</ele>
        <time>2017-11-28T13:15:33Z</time>
      </trkpt>
      <trkpt lat="42.134417" lon="2.205635">
        <ele>611.839</ele>
        <time>2017-11-28T13:15:37Z</time>
      </trkpt>
      <trkpt lat="42.134375" lon="2.205602">
        <ele>611.401</ele>
        <time>2017-11-28T13:15:41Z</time>
      </trkpt>
      <trkpt lat="42.134340" lon="2.205551">
        <ele>610.821</ele>
        <time>2017-11-28T13:15:46Z</time>
      </trkpt>
      <trkpt lat="42.134297" lon="2.205513">
        <ele>610.808</ele>
        <time>2017-11-28T13:15:51Z</time>
      </trkpt>
      <trkpt lat="42.134260" lon="2.205474">
        <ele>611.295</ele>
        <time>2017-11-28T13:15:55Z</time>
      </trkpt>
      <trkpt lat="42.134217" lon="2.205443">
        <ele>611.874</ele>
        <time>2017-11-28T13:16:00Z</time>
      </trkpt>
      <trkpt lat="42.134168" lon="2.205415">
        <ele>610.445</ele>
        <time>2017-11-28T13:16:08Z</time>
      </trkpt>
      <trkpt lat="42.134133" lon="2.205368">
        <ele>611.129</ele>
        <time>2017-11-28T13:16:13Z</time>
      </trkpt>
      <trkpt lat="42.134085" lon="2.205357">
        <ele>610.375</ele>
        <time>2017-11-28T13:16:19Z</time>
      </trkpt>
      <trkpt lat="42.134034" lon="2.205358">
        <ele>609.714</ele>
        <time>2017-11-28T13:16:24Z</time>
      </trkpt>
      <trkpt lat="42.133981" lon="2.205335">
        <ele>608.960</ele>
        <time>2017-11-28T13:16:29Z</time>
      </trkpt>
      <trkpt lat="42.133937" lon="2.205314">
        <ele>607.997</ele>
        <time>2017-11-28T13:16:33Z</time>
      </trkpt>
      <trkpt lat="42.133888" lon="2.205265">
        <ele>607.143</ele>
        <time>2017-11-28T13:16:37Z</time>
      </trkpt>
      <trkpt lat="42.133851" lon="2.205222">
        <ele>608.664</ele>
        <time>2017-11-28T13:16:40Z</time>
      </trkpt>
      <trkpt lat="42.133803" lon="2.205183">
        <ele>610.310</ele>
        <time>2017-11-28T13:16:44Z</time>
      </trkpt>
      <trkpt lat="42.133752" lon="2.205158">
        <ele>610.708</ele>
        <time>2017-11-28T13:16:48Z</time>
      </trkpt>
      <trkpt lat="42.133674" lon="2.205078">
        <ele>612.296</ele>
        <time>2017-11-28T13:16:59Z</time>
      </trkpt>
      <trkpt lat="42.133620" lon="2.205067">
        <ele>611.485</ele>
        <time>2017-11-28T13:17:05Z</time>
      </trkpt>
      <trkpt lat="42.133566" lon="2.205062">
        <ele>611.756</ele>
        <time>2017-11-28T13:17:09Z</time>
      </trkpt>
      <trkpt lat="42.133520" lon="2.205075">
        <ele>611.630</ele>
        <time>2017-11-28T13:17:13Z</time>
      </trkpt>
      <trkpt lat="42.133467" lon="2.205099">
        <ele>611.186</ele>
        <time>2017-11-28T13:17:17Z</time>
      </trkpt>
      <trkpt lat="42.133414" lon="2.205097">
        <ele>610.925</ele>
        <time>2017-11-28T13:17:21Z</time>
      </trkpt>
      <trkpt lat="42.133364" lon="2.205102">
        <ele>611.461</ele>
        <time>2017-11-28T13:17:24Z</time>
      </trkpt>
      <trkpt lat="42.133307" lon="2.205122">
        <ele>612.118</ele>
        <time>2017-11-28T13:17:27Z</time>
      </trkpt>
      <trkpt lat="42.133260" lon="2.205143">
        <ele>613.727</ele>
        <time>2017-11-28T13:17:30Z</time>
      </trkpt>
      <trkpt lat="42.133212" lon="2.205158">
        <ele>618.068</ele>
        <time>2017-11-28T13:17:52Z</time>
      </trkpt>
      <trkpt lat="42.133159" lon="2.205193">
        <ele>619.914</ele>
        <time>2017-11-28T13:17:56Z</time>
      </trkpt>
      <trkpt lat="42.133111" lon="2.205209">
        <ele>620.708</ele>
        <time>2017-11-28T13:17:59Z</time>
      </trkpt>
      <trkpt lat="42.133067" lon="2.205236">
        <ele>622.344</ele>
        <time>2017-11-28T13:18:02Z</time>
      </trkpt>
      <trkpt lat="42.133023" lon="2.205269">
        <ele>623.263</ele>
        <time>2017-11-28T13:18:05Z</time>
      </trkpt>
      <trkpt lat="42.132979" lon="2.205306">
        <ele>623.834</ele>
        <time>2017-11-28T13:18:09Z</time>
      </trkpt>
      <trkpt lat="42.132942" lon="2.205341">
        <ele>623.158</ele>
        <time>2017-11-28T13:18:13Z</time>
      </trkpt>
      <trkpt lat="42.132897" lon="2.205380">
        <ele>623.784</ele>
        <time>2017-11-28T13:18:17Z</time>
      </trkpt>
      <trkpt lat="42.132848" lon="2.205412">
        <ele>619.493</ele>
        <time>2017-11-28T13:18:21Z</time>
      </trkpt>
      <trkpt lat="42.132806" lon="2.205433">
        <ele>619.769</ele>
        <time>2017-11-28T13:18:24Z</time>
      </trkpt>
      <trkpt lat="42.132753" lon="2.205463">
        <ele>620.086</ele>
        <time>2017-11-28T13:18:28Z</time>
      </trkpt>
      <trkpt lat="42.132712" lon="2.205498">
        <ele>620.749</ele>
        <time>2017-11-28T13:18:31Z</time>
      </trkpt>
      <trkpt lat="42.132667" lon="2.205539">
        <ele>621.202</ele>
        <time>2017-11-28T13:18:34Z</time>
      </trkpt>
      <trkpt lat="42.132621" lon="2.205571">
        <ele>621.722</ele>
        <time>2017-11-28T13:18:37Z</time>
      </trkpt>
      <trkpt lat="42.132574" lon="2.205597">
        <ele>621.608</ele>
        <time>2017-11-28T13:18:43Z</time>
      </trkpt>
      <trkpt lat="42.132535" lon="2.205632">
        <ele>621.416</ele>
        <time>2017-11-28T13:18:47Z</time>
      </trkpt>
      <trkpt lat="42.132502" lon="2.205682">
        <ele>620.085</ele>
        <time>2017-11-28T13:18:52Z</time>
      </trkpt>
      <trkpt lat="42.132470" lon="2.205728">
        <ele>620.196</ele>
        <time>2017-11-28T13:18:56Z</time>
      </trkpt>
      <trkpt lat="42.132429" lon="2.205774">
        <ele>620.370</ele>
        <time>2017-11-28T13:19:00Z</time>
      </trkpt>
      <trkpt lat="42.132387" lon="2.205825">
        <ele>619.466</ele>
        <time>2017-11-28T13:19:05Z</time>
      </trkpt>
      <trkpt lat="42.132338" lon="2.205870">
        <ele>619.295</ele>
        <time>2017-11-28T13:19:09Z</time>
      </trkpt>
      <trkpt lat="42.132292" lon="2.205920">
        <ele>619.841</ele>
        <time>2017-11-28T13:19:13Z</time>
      </trkpt>
      <trkpt lat="42.132263" lon="2.205982">
        <ele>620.488</ele>
        <time>2017-11-28T13:19:17Z</time>
      </trkpt>
      <trkpt lat="42.132245" lon="2.206050">
        <ele>619.816</ele>
        <time>2017-11-28T13:19:21Z</time>
      </trkpt>
      <trkpt lat="42.132228" lon="2.206107">
        <ele>619.676</ele>
        <time>2017-11-28T13:19:25Z</time>
      </trkpt>
      <trkpt lat="42.132202" lon="2.206157">
        <ele>618.613</ele>
        <time>2017-11-28T13:19:31Z</time>
      </trkpt>
      <trkpt lat="42.132203" lon="2.206221">
        <ele>616.308</ele>
        <time>2017-11-28T13:19:53Z</time>
      </trkpt>
      <trkpt lat="42.132180" lon="2.206288">
        <ele>615.833</ele>
        <time>2017-11-28T13:19:57Z</time>
      </trkpt>
      <trkpt lat="42.132154" lon="2.206342">
        <ele>615.922</ele>
        <time>2017-11-28T13:20:01Z</time>
      </trkpt>
      <trkpt lat="42.132137" lon="2.206409">
        <ele>616.183</ele>
        <time>2017-11-28T13:20:05Z</time>
      </trkpt>
      <trkpt lat="42.132119" lon="2.206471">
        <ele>616.447</ele>
        <time>2017-11-28T13:20:08Z</time>
      </trkpt>
      <trkpt lat="42.132096" lon="2.206527">
        <ele>616.213</ele>
        <time>2017-11-28T13:20:11Z</time>
      </trkpt>
      <trkpt lat="42.132063" lon="2.206589">
        <ele>616.442</ele>
        <time>2017-11-28T13:20:15Z</time>
      </trkpt>
      <trkpt lat="42.132027" lon="2.206644">
        <ele>616.138</ele>
        <time>2017-11-28T13:20:20Z</time>
      </trkpt>
      <trkpt lat="42.131997" lon="2.206697">
        <ele>615.545</ele>
        <time>2017-11-28T13:20:25Z</time>
      </trkpt>
      <trkpt lat="42.131960" lon="2.206739">
        <ele>614.711</ele>
        <time>2017-11-28T13:20:30Z</time>
      </trkpt>
      <trkpt lat="42.131930" lon="2.206790">
        <ele>614.521</ele>
        <time>2017-11-28T13:20:34Z</time>
      </trkpt>
      <trkpt lat="42.131902" lon="2.206849">
        <ele>614.003</ele>
        <time>2017-11-28T13:20:38Z</time>
      </trkpt>
      <trkpt lat="42.131870" lon="2.206892">
        <ele>614.008</ele>
        <time>2017-11-28T13:20:42Z</time>
      </trkpt>
      <trkpt lat="42.131837" lon="2.206944">
        <ele>613.863</ele>
        <time>2017-11-28T13:20:46Z</time>
      </trkpt>
      <trkpt lat="42.131799" lon="2.206996">
        <ele>614.032</ele>
        <time>2017-11-28T13:20:51Z</time>
      </trkpt>
      <trkpt lat="42.131757" lon="2.207051">
        <ele>614.023</ele>
        <time>2017-11-28T13:20:55Z</time>
      </trkpt>
      <trkpt lat="42.131703" lon="2.207086">
        <ele>613.927</ele>
        <time>2017-11-28T13:20:59Z</time>
      </trkpt>
      <trkpt lat="42.131657" lon="2.207098">
        <ele>613.873</ele>
        <time>2017-11-28T13:21:02Z</time>
      </trkpt>
      <trkpt lat="42.131602" lon="2.207112">
        <ele>613.532</ele>
        <time>2017-11-28T13:21:06Z</time>
      </trkpt>
      <trkpt lat="42.131552" lon="2.207117">
        <ele>613.528</ele>
        <time>2017-11-28T13:21:10Z</time>
      </trkpt>
      <trkpt lat="42.131509" lon="2.207083">
        <ele>612.865</ele>
        <time>2017-11-28T13:21:15Z</time>
      </trkpt>
      <trkpt lat="42.131493" lon="2.207013">
        <ele>613.335</ele>
        <time>2017-11-28T13:21:19Z</time>
      </trkpt>
      <trkpt lat="42.131510" lon="2.206943">
        <ele>612.986</ele>
        <time>2017-11-28T13:21:22Z</time>
      </trkpt>
      <trkpt lat="42.131526" lon="2.206885">
        <ele>612.714</ele>
        <time>2017-11-28T13:21:25Z</time>
      </trkpt>
      <trkpt lat="42.131532" lon="2.206820">
        <ele>612.408</ele>
        <time>2017-11-28T13:21:30Z</time>
      </trkpt>
      <trkpt lat="42.131533" lon="2.206746">
        <ele>611.735</ele>
        <time>2017-11-28T13:21:34Z</time>
      </trkpt>
      <trkpt lat="42.131533" lon="2.206683">
        <ele>611.474</ele>
        <time>2017-11-28T13:21:37Z</time>
      </trkpt>
      <trkpt lat="42.131541" lon="2.206613">
        <ele>611.095</ele>
        <time>2017-11-28T13:21:41Z</time>
      </trkpt>
      <trkpt lat="42.131563" lon="2.206555">
        <ele>610.769</ele>
        <time>2017-11-28T13:21:45Z</time>
      </trkpt>
      <trkpt lat="42.131595" lon="2.206492">
        <ele>610.885</ele>
        <time>2017-11-28T13:21:49Z</time>
      </trkpt>
      <trkpt lat="42.131619" lon="2.206426">
        <ele>610.634</ele>
        <time>2017-11-28T13:21:53Z</time>
      </trkpt>
      <trkpt lat="42.131633" lon="2.206366">
        <ele>610.960</ele>
        <time>2017-11-28T13:21:57Z</time>
      </trkpt>
      <trkpt lat="42.131655" lon="2.206314">
        <ele>610.677</ele>
        <time>2017-11-28T13:22:01Z</time>
      </trkpt>
      <trkpt lat="42.131683" lon="2.206265">
        <ele>610.427</ele>
        <time>2017-11-28T13:22:06Z</time>
      </trkpt>
      <trkpt lat="42.131702" lon="2.206200">
        <ele>610.268</ele>
        <time>2017-11-28T13:22:10Z</time>
      </trkpt>
      <trkpt lat="42.131726" lon="2.206127">
        <ele>610.114</ele>
        <time>2017-11-28T13:22:15Z</time>
      </trkpt>
      <trkpt lat="42.131749" lon="2.206074">
        <ele>610.308</ele>
        <time>2017-11-28T13:22:18Z</time>
      </trkpt>
      <trkpt lat="42.131776" lon="2.206015">
        <ele>610.674</ele>
        <time>2017-11-28T13:22:22Z</time>
      </trkpt>
      <trkpt lat="42.131801" lon="2.205959">
        <ele>610.783</ele>
        <time>2017-11-28T13:22:27Z</time>
      </trkpt>
      <trkpt lat="42.131826" lon="2.205908">
        <ele>610.824</ele>
        <time>2017-11-28T13:22:32Z</time>
      </trkpt>
      <trkpt lat="42.131845" lon="2.205844">
        <ele>610.778</ele>
        <time>2017-11-28T13:22:44Z</time>
      </trkpt>
      <trkpt lat="42.131869" lon="2.205790">
        <ele>610.584</ele>
        <time>2017-11-28T13:22:47Z</time>
      </trkpt>
      <trkpt lat="42.131897" lon="2.205737">
        <ele>609.943</ele>
        <time>2017-11-28T13:22:51Z</time>
      </trkpt>
      <trkpt lat="42.131920" lon="2.205673">
        <ele>609.749</ele>
        <time>2017-11-28T13:22:57Z</time>
      </trkpt>
      <trkpt lat="42.131899" lon="2.205580">
        <ele>608.286</ele>
        <time>2017-11-28T13:23:38Z</time>
      </trkpt>
      <trkpt lat="42.131915" lon="2.205507">
        <ele>607.891</ele>
        <time>2017-11-28T13:23:44Z</time>
      </trkpt>
      <trkpt lat="42.131922" lon="2.205443">
        <ele>607.081</ele>
        <time>2017-11-28T13:23:47Z</time>
      </trkpt>
      <trkpt lat="42.131931" lon="2.205382">
        <ele>606.419</ele>
        <time>2017-11-28T13:23:51Z</time>
      </trkpt>
      <trkpt lat="42.131945" lon="2.205310">
        <ele>606.108</ele>
        <time>2017-11-28T13:23:54Z</time>
      </trkpt>
      <trkpt lat="42.131941" lon="2.205243">
        <ele>605.421</ele>
        <time>2017-11-28T13:23:57Z</time>
      </trkpt>
      <trkpt lat="42.131945" lon="2.205172">
        <ele>604.860</ele>
        <time>2017-11-28T13:24:02Z</time>
      </trkpt>
      <trkpt lat="42.131953" lon="2.205110">
        <ele>604.561</ele>
        <time>2017-11-28T13:24:06Z</time>
      </trkpt>
      <trkpt lat="42.131945" lon="2.205049">
        <ele>603.945</ele>
        <time>2017-11-28T13:24:09Z</time>
      </trkpt>
      <trkpt lat="42.131946" lon="2.204973">
        <ele>603.671</ele>
        <time>2017-11-28T13:24:13Z</time>
      </trkpt>
      <trkpt lat="42.131946" lon="2.204910">
        <ele>602.950</ele>
        <time>2017-11-28T13:24:16Z</time>
      </trkpt>
      <trkpt lat="42.131948" lon="2.204830">
        <ele>602.576</ele>
        <time>2017-11-28T13:24:20Z</time>
      </trkpt>
      <trkpt lat="42.131949" lon="2.204759">
        <ele>602.433</ele>
        <time>2017-11-28T13:24:24Z</time>
      </trkpt>
      <trkpt lat="42.131949" lon="2.204682">
        <ele>601.878</ele>
        <time>2017-11-28T13:24:29Z</time>
      </trkpt>
      <trkpt lat="42.131944" lon="2.204605">
        <ele>602.233</ele>
        <time>2017-11-28T13:24:33Z</time>
      </trkpt>
      <trkpt lat="42.131943" lon="2.204531">
        <ele>601.226</ele>
        <time>2017-11-28T13:24:37Z</time>
      </trkpt>
      <trkpt lat="42.131931" lon="2.204457">
        <ele>601.608</ele>
        <time>2017-11-28T13:24:41Z</time>
      </trkpt>
      <trkpt lat="42.131926" lon="2.204396">
        <ele>601.939</ele>
        <time>2017-11-28T13:24:44Z</time>
      </trkpt>
      <trkpt lat="42.131918" lon="2.204326">
        <ele>601.838</ele>
        <time>2017-11-28T13:24:48Z</time>
      </trkpt>
      <trkpt lat="42.131909" lon="2.204254">
        <ele>602.369</ele>
        <time>2017-11-28T13:24:52Z</time>
      </trkpt>
      <trkpt lat="42.131889" lon="2.204199">
        <ele>601.913</ele>
        <time>2017-11-28T13:24:56Z</time>
      </trkpt>
      <trkpt lat="42.131843" lon="2.204177">
        <ele>602.369</ele>
        <time>2017-11-28T13:25:06Z</time>
      </trkpt>
      <trkpt lat="42.131792" lon="2.204176">
        <ele>602.698</ele>
        <time>2017-11-28T13:25:11Z</time>
      </trkpt>
      <trkpt lat="42.131739" lon="2.204159">
        <ele>602.734</ele>
        <time>2017-11-28T13:25:15Z</time>
      </trkpt>
      <trkpt lat="42.131686" lon="2.204149">
        <ele>601.481</ele>
        <time>2017-11-28T13:25:19Z</time>
      </trkpt>
      <trkpt lat="42.131633" lon="2.204151">
        <ele>601.159</ele>
        <time>2017-11-28T13:25:25Z</time>
      </trkpt>
      <trkpt lat="42.131594" lon="2.204182">
        <ele>600.103</ele>
        <time>2017-11-28T13:26:02Z</time>
      </trkpt>
      <trkpt lat="42.131545" lon="2.204178">
        <ele>599.623</ele>
        <time>2017-11-28T13:26:06Z</time>
      </trkpt>
      <trkpt lat="42.131499" lon="2.204179">
        <ele>599.708</ele>
        <time>2017-11-28T13:26:10Z</time>
      </trkpt>
      <trkpt lat="42.131449" lon="2.204178">
        <ele>598.977</ele>
        <time>2017-11-28T13:26:15Z</time>
      </trkpt>
      <trkpt lat="42.131396" lon="2.204167">
        <ele>599.876</ele>
        <time>2017-11-28T13:26:19Z</time>
      </trkpt>
      <trkpt lat="42.131346" lon="2.204165">
        <ele>600.087</ele>
        <time>2017-11-28T13:26:23Z</time>
      </trkpt>
      <trkpt lat="42.131293" lon="2.204186">
        <ele>601.011</ele>
        <time>2017-11-28T13:26:27Z</time>
      </trkpt>
      <trkpt lat="42.131259" lon="2.204238">
        <ele>602.057</ele>
        <time>2017-11-28T13:26:32Z</time>
      </trkpt>
      <trkpt lat="42.131215" lon="2.204262">
        <ele>602.476</ele>
        <time>2017-11-28T13:26:37Z</time>
      </trkpt>
      <trkpt lat="42.131260" lon="2.204310">
        <ele>600.082</ele>
        <time>2017-11-28T13:27:03Z</time>
      </trkpt>
      <trkpt lat="42.131307" lon="2.204351">
        <ele>598.069</ele>
        <time>2017-11-28T13:27:08Z</time>
      </trkpt>
      <trkpt lat="42.131345" lon="2.204396">
        <ele>597.394</ele>
        <time>2017-11-28T13:27:12Z</time>
      </trkpt>
      <trkpt lat="42.131345" lon="2.204475">
        <ele>596.657</ele>
        <time>2017-11-28T13:27:17Z</time>
      </trkpt>
      <trkpt lat="42.131332" lon="2.204540">
        <ele>596.322</ele>
        <time>2017-11-28T13:27:23Z</time>
      </trkpt>
      <trkpt lat="42.131304" lon="2.204591">
        <ele>597.208</ele>
        <time>2017-11-28T13:27:29Z</time>
      </trkpt>
      <trkpt lat="42.131308" lon="2.204663">
        <ele>597.851</ele>
        <time>2017-11-28T13:27:33Z</time>
      </trkpt>
      <trkpt lat="42.131310" lon="2.204725">
        <ele>598.390</ele>
        <time>2017-11-28T13:27:36Z</time>
      </trkpt>
      <trkpt lat="42.131306" lon="2.204801">
        <ele>598.461</ele>
        <time>2017-11-28T13:27:40Z</time>
      </trkpt>
      <trkpt lat="42.131297" lon="2.204875">
        <ele>598.735</ele>
        <time>2017-11-28T13:27:44Z</time>
      </trkpt>
      <trkpt lat="42.131279" lon="2.204934">
        <ele>599.361</ele>
        <time>2017-11-28T13:27:47Z</time>
      </trkpt>
      <trkpt lat="42.131268" lon="2.204995">
        <ele>599.820</ele>
        <time>2017-11-28T13:27:50Z</time>
      </trkpt>
      <trkpt lat="42.131254" lon="2.205063">
        <ele>600.736</ele>
        <time>2017-11-28T13:27:54Z</time>
      </trkpt>
      <trkpt lat="42.131230" lon="2.205130">
        <ele>600.653</ele>
        <time>2017-11-28T13:27:58Z</time>
      </trkpt>
      <trkpt lat="42.131206" lon="2.205187">
        <ele>600.619</ele>
        <time>2017-11-28T13:28:02Z</time>
      </trkpt>
      <trkpt lat="42.131184" lon="2.205245">
        <ele>600.709</ele>
        <time>2017-11-28T13:28:05Z</time>
      </trkpt>
      <trkpt lat="42.131158" lon="2.205297">
        <ele>600.419</ele>
        <time>2017-11-28T13:28:08Z</time>
      </trkpt>
      <trkpt lat="42.131125" lon="2.205360">
        <ele>600.708</ele>
        <time>2017-11-28T13:28:12Z</time>
      </trkpt>
      <trkpt lat="42.131089" lon="2.205415">
        <ele>601.743</ele>
        <time>2017-11-28T13:28:16Z</time>
      </trkpt>
      <trkpt lat="42.131051" lon="2.205464">
        <ele>601.782</ele>
        <time>2017-11-28T13:28:20Z</time>
      </trkpt>
      <trkpt lat="42.131013" lon="2.205499">
        <ele>601.623</ele>
        <time>2017-11-28T13:28:24Z</time>
      </trkpt>
      <trkpt lat="42.130981" lon="2.205550">
        <ele>598.327</ele>
        <time>2017-11-28T13:28:49Z</time>
      </trkpt>
      <trkpt lat="42.130935" lon="2.205560">
        <ele>597.573</ele>
        <time>2017-11-28T13:28:53Z</time>
      </trkpt>
      <trkpt lat="42.130885" lon="2.205553">
        <ele>597.312</ele>
        <time>2017-11-28T13:28:58Z</time>
      </trkpt>
      <trkpt lat="42.130846" lon="2.205515">
        <ele>598.278</ele>
        <time>2017-11-28T13:29:04Z</time>
      </trkpt>
      <trkpt lat="42.130800" lon="2.205489">
        <ele>597.885</ele>
        <time>2017-11-28T13:29:10Z</time>
      </trkpt>
      <trkpt lat="42.130773" lon="2.205438">
        <ele>598.063</ele>
        <time>2017-11-28T13:29:15Z</time>
      </trkpt>
      <trkpt lat="42.130743" lon="2.205382">
        <ele>599.244</ele>
        <time>2017-11-28T13:29:21Z</time>
      </trkpt>
      <trkpt lat="42.130713" lon="2.205329">
        <ele>599.818</ele>
        <time>2017-11-28T13:29:25Z</time>
      </trkpt>
      <trkpt lat="42.130706" lon="2.205258">
        <ele>600.408</ele>
        <time>2017-11-28T13:29:31Z</time>
      </trkpt>
      <trkpt lat="42.130717" lon="2.205188">
        <ele>601.298</ele>
        <time>2017-11-28T13:29:36Z</time>
      </trkpt>
      <trkpt lat="42.130720" lon="2.205123">
        <ele>601.197</ele>
        <time>2017-11-28T13:29:40Z</time>
      </trkpt>
      <trkpt lat="42.130727" lon="2.205058">
        <ele>602.218</ele>
        <time>2017-11-28T13:29:45Z</time>
      </trkpt>
      <trkpt lat="42.130741" lon="2.204987">
        <ele>601.762</ele>
        <time>2017-11-28T13:29:52Z</time>
      </trkpt>
      <trkpt lat="42.130765" lon="2.204923">
        <ele>602.228</ele>
        <time>2017-11-28T13:29:57Z</time>
      </trkpt>
      <trkpt lat="42.130795" lon="2.204878">
        <ele>602.287</ele>
        <time>2017-11-28T13:30:00Z</time>
      </trkpt>
      <trkpt lat="42.130818" lon="2.204814">
        <ele>602.113</ele>
        <time>2017-11-28T13:30:05Z</time>
      </trkpt>
      <trkpt lat="42.130824" lon="2.204748">
        <ele>601.380</ele>
        <time>2017-11-28T13:30:09Z</time>
      </trkpt>
      <trkpt lat="42.130853" lon="2.204687">
        <ele>600.176</ele>
        <time>2017-11-28T13:30:13Z</time>
      </trkpt>
      <trkpt lat="42.130876" lon="2.204620">
        <ele>600.290</ele>
        <time>2017-11-28T13:30:17Z</time>
      </trkpt>
      <trkpt lat="42.130902" lon="2.204566">
        <ele>599.319</ele>
        <time>2017-11-28T13:30:21Z</time>
      </trkpt>
      <trkpt lat="42.130896" lon="2.204505">
        <ele>599.808</ele>
        <time>2017-11-28T13:30:26Z</time>
      </trkpt>
      <trkpt lat="42.130863" lon="2.204461">
        <ele>600.769</ele>
        <time>2017-11-28T13:30:32Z</time>
      </trkpt>
      <trkpt lat="42.130826" lon="2.204410">
        <ele>601.318</ele>
        <time>2017-11-28T13:30:37Z</time>
      </trkpt>
      <trkpt lat="42.130778" lon="2.204386">
        <ele>601.699</ele>
        <time>2017-11-28T13:30:41Z</time>
      </trkpt>
      <trkpt lat="42.130736" lon="2.204351">
        <ele>601.633</ele>
        <time>2017-11-28T13:30:45Z</time>
      </trkpt>
      <trkpt lat="42.130683" lon="2.204326">
        <ele>601.949</ele>
        <time>2017-11-28T13:30:50Z</time>
      </trkpt>
      <trkpt lat="42.130639" lon="2.204287">
        <ele>601.978</ele>
        <time>2017-11-28T13:30:54Z</time>
      </trkpt>
      <trkpt lat="42.130585" lon="2.204280">
        <ele>601.274</ele>
        <time>2017-11-28T13:30:58Z</time>
      </trkpt>
      <trkpt lat="42.130536" lon="2.204267">
        <ele>602.631</ele>
        <time>2017-11-28T13:31:02Z</time>
      </trkpt>
      <trkpt lat="42.130490" lon="2.204283">
        <ele>604.289</ele>
        <time>2017-11-28T13:31:06Z</time>
      </trkpt>
      <trkpt lat="42.130444" lon="2.204275">
        <ele>607.006</ele>
        <time>2017-11-28T13:31:12Z</time>
      </trkpt>
      <trkpt lat="42.130407" lon="2.204235">
        <ele>605.426</ele>
        <time>2017-11-28T13:31:17Z</time>
      </trkpt>
      <trkpt lat="42.130353" lon="2.204237">
        <ele>605.308</ele>
        <time>2017-11-28T13:31:22Z</time>
      </trkpt>
      <trkpt lat="42.130301" lon="2.204239">
        <ele>606.890</ele>
        <time>2017-11-28T13:31:27Z</time>
      </trkpt>
      <trkpt lat="42.130251" lon="2.204259">
        <ele>606.299</ele>
        <time>2017-11-28T13:31:31Z</time>
      </trkpt>
      <trkpt lat="42.130197" lon="2.204257">
        <ele>606.560</ele>
        <time>2017-11-28T13:31:35Z</time>
      </trkpt>
      <trkpt lat="42.130151" lon="2.204248">
        <ele>606.494</ele>
        <time>2017-11-28T13:31:39Z</time>
      </trkpt>
      <trkpt lat="42.130108" lon="2.204219">
        <ele>605.720</ele>
        <time>2017-11-28T13:31:43Z</time>
      </trkpt>
      <trkpt lat="42.130061" lon="2.204190">
        <ele>608.449</ele>
        <time>2017-11-28T13:31:47Z</time>
      </trkpt>
      <trkpt lat="42.130016" lon="2.204180">
        <ele>607.835</ele>
        <time>2017-11-28T13:31:52Z</time>
      </trkpt>
      <trkpt lat="42.129963" lon="2.204169">
        <ele>608.572</ele>
        <time>2017-11-28T13:31:57Z</time>
      </trkpt>
      <trkpt lat="42.129920" lon="2.204137">
        <ele>607.693</ele>
        <time>2017-11-28T13:32:01Z</time>
      </trkpt>
      <trkpt lat="42.129874" lon="2.204102">
        <ele>610.065</ele>
        <time>2017-11-28T13:32:05Z</time>
      </trkpt>
      <trkpt lat="42.129829" lon="2.204063">
        <ele>610.721</ele>
        <time>2017-11-28T13:32:09Z</time>
      </trkpt>
      <trkpt lat="42.129780" lon="2.204036">
        <ele>610.408</ele>
        <time>2017-11-28T13:32:14Z</time>
      </trkpt>
      <trkpt lat="42.129742" lon="2.203984">
        <ele>611.721</ele>
        <time>2017-11-28T13:32:19Z</time>
      </trkpt>
      <trkpt lat="42.129709" lon="2.203932">
        <ele>613.340</ele>
        <time>2017-11-28T13:32:23Z</time>
      </trkpt>
      <trkpt lat="42.129659" lon="2.203909">
        <ele>613.691</ele>
        <time>2017-11-28T13:32:27Z</time>
      </trkpt>
      <trkpt lat="42.129606" lon="2.203894">
        <ele>613.085</ele>
        <time>2017-11-28T13:32:31Z</time>
      </trkpt>
      <trkpt lat="42.129557" lon="2.203885">
        <ele>612.421</ele>
        <time>2017-11-28T13:32:35Z</time>
      </trkpt>
      <trkpt lat="42.129516" lon="2.203847">
        <ele>611.450</ele>
        <time>2017-11-28T13:32:40Z</time>
      </trkpt>
      <trkpt lat="42.129469" lon="2.203831">
        <ele>611.626</ele>
        <time>2017-11-28T13:32:44Z</time>
      </trkpt>
      <trkpt lat="42.129416" lon="2.203806">
        <ele>611.053</ele>
        <time>2017-11-28T13:32:48Z</time>
      </trkpt>
      <trkpt lat="42.129368" lon="2.203773">
        <ele>611.654</ele>
        <time>2017-11-28T13:32:52Z</time>
      </trkpt>
      <trkpt lat="42.129317" lon="2.203754">
        <ele>611.656</ele>
        <time>2017-11-28T13:32:56Z</time>
      </trkpt>
      <trkpt lat="42.129266" lon="2.203740">
        <ele>611.611</ele>
        <time>2017-11-28T13:33:00Z</time>
      </trkpt>
      <trkpt lat="42.129215" lon="2.203730">
        <ele>611.708</ele>
        <time>2017-11-28T13:33:04Z</time>
      </trkpt>
      <trkpt lat="42.129161" lon="2.203741">
        <ele>612.977</ele>
        <time>2017-11-28T13:33:09Z</time>
      </trkpt>
      <trkpt lat="42.129116" lon="2.203771">
        <ele>613.846</ele>
        <time>2017-11-28T13:33:13Z</time>
      </trkpt>
      <trkpt lat="42.129062" lon="2.203786">
        <ele>614.487</ele>
        <time>2017-11-28T13:33:17Z</time>
      </trkpt>
      <trkpt lat="42.129016" lon="2.203832">
        <ele>614.821</ele>
        <time>2017-11-28T13:33:22Z</time>
      </trkpt>
      <trkpt lat="42.128979" lon="2.203874">
        <ele>615.047</ele>
        <time>2017-11-28T13:33:26Z</time>
      </trkpt>
      <trkpt lat="42.128928" lon="2.203887">
        <ele>616.116</ele>
        <time>2017-11-28T13:33:30Z</time>
      </trkpt>
      <trkpt lat="42.128885" lon="2.203909">
        <ele>616.122</ele>
        <time>2017-11-28T13:33:34Z</time>
      </trkpt>
      <trkpt lat="42.128833" lon="2.203911">
        <ele>617.129</ele>
        <time>2017-11-28T13:33:39Z</time>
      </trkpt>
      <trkpt lat="42.128785" lon="2.203913">
        <ele>617.626</ele>
        <time>2017-11-28T13:33:43Z</time>
      </trkpt>
      <trkpt lat="42.128740" lon="2.203923">
        <ele>618.547</ele>
        <time>2017-11-28T13:33:47Z</time>
      </trkpt>
      <trkpt lat="42.128681" lon="2.203917">
        <ele>619.111</ele>
        <time>2017-11-28T13:33:52Z</time>
      </trkpt>
      <trkpt lat="42.128631" lon="2.203902">
        <ele>619.808</ele>
        <time>2017-11-28T13:33:56Z</time>
      </trkpt>
      <trkpt lat="42.128577" lon="2.203888">
        <ele>619.754</ele>
        <time>2017-11-28T13:34:00Z</time>
      </trkpt>
      <trkpt lat="42.128532" lon="2.203877">
        <ele>619.033</ele>
        <time>2017-11-28T13:34:03Z</time>
      </trkpt>
      <trkpt lat="42.128477" lon="2.203864">
        <ele>618.634</ele>
        <time>2017-11-28T13:34:07Z</time>
      </trkpt>
      <trkpt lat="42.128427" lon="2.203859">
        <ele>619.588</ele>
        <time>2017-11-28T13:34:11Z</time>
      </trkpt>
      <trkpt lat="42.128371" lon="2.203878">
        <ele>619.744</ele>
        <time>2017-11-28T13:34:16Z</time>
      </trkpt>
      <trkpt lat="42.128328" lon="2.203907">
        <ele>620.053</ele>
        <time>2017-11-28T13:34:19Z</time>
      </trkpt>
      <trkpt lat="42.128283" lon="2.203950">
        <ele>620.359</ele>
        <time>2017-11-28T13:34:24Z</time>
      </trkpt>
      <trkpt lat="42.128245" lon="2.203984">
        <ele>620.686</ele>
        <time>2017-11-28T13:34:27Z</time>
      </trkpt>
      <trkpt lat="42.128195" lon="2.204021">
        <ele>620.814</ele>
        <time>2017-11-28T13:34:31Z</time>
      </trkpt>
      <trkpt lat="42.128153" lon="2.204055">
        <ele>620.154</ele>
        <time>2017-11-28T13:34:35Z</time>
      </trkpt>
      <trkpt lat="42.128112" lon="2.204093">
        <ele>619.809</ele>
        <time>2017-11-28T13:34:40Z</time>
      </trkpt>
      <trkpt lat="42.128078" lon="2.204138">
        <ele>620.108</ele>
        <time>2017-11-28T13:34:45Z</time>
      </trkpt>
      <trkpt lat="42.128030" lon="2.204155">
        <ele>620.173</ele>
        <time>2017-11-28T13:35:05Z</time>
      </trkpt>
      <trkpt lat="42.127987" lon="2.204178">
        <ele>620.142</ele>
        <time>2017-11-28T13:35:10Z</time>
      </trkpt>
      <trkpt lat="42.127945" lon="2.204230">
        <ele>620.773</ele>
        <time>2017-11-28T13:35:14Z</time>
      </trkpt>
      <trkpt lat="42.127895" lon="2.204259">
        <ele>621.587</ele>
        <time>2017-11-28T13:35:18Z</time>
      </trkpt>
      <trkpt lat="42.127845" lon="2.204286">
        <ele>623.273</ele>
        <time>2017-11-28T13:35:21Z</time>
      </trkpt>
      <trkpt lat="42.127805" lon="2.204318">
        <ele>623.342</ele>
        <time>2017-11-28T13:35:25Z</time>
      </trkpt>
      <trkpt lat="42.127765" lon="2.204354">
        <ele>622.698</ele>
        <time>2017-11-28T13:35:30Z</time>
      </trkpt>
      <trkpt lat="42.127744" lon="2.204411">
        <ele>622.925</ele>
        <time>2017-11-28T13:35:34Z</time>
      </trkpt>
      <trkpt lat="42.127711" lon="2.204468">
        <ele>623.071</ele>
        <time>2017-11-28T13:35:38Z</time>
      </trkpt>
      <trkpt lat="42.127692" lon="2.204537">
        <ele>621.641</ele>
        <time>2017-11-28T13:35:42Z</time>
      </trkpt>
      <trkpt lat="42.127682" lon="2.204602">
        <ele>620.915</ele>
        <time>2017-11-28T13:35:46Z</time>
      </trkpt>
      <trkpt lat="42.127658" lon="2.204673">
        <ele>621.008</ele>
        <time>2017-11-28T13:35:51Z</time>
      </trkpt>
      <trkpt lat="42.127628" lon="2.204736">
        <ele>620.359</ele>
        <time>2017-11-28T13:35:55Z</time>
      </trkpt>
      <trkpt lat="42.127597" lon="2.204795">
        <ele>620.748</ele>
        <time>2017-11-28T13:35:59Z</time>
      </trkpt>
      <trkpt lat="42.127573" lon="2.204855">
        <ele>622.229</ele>
        <time>2017-11-28T13:36:02Z</time>
      </trkpt>
      <trkpt lat="42.127557" lon="2.204913">
        <ele>622.293</ele>
        <time>2017-11-28T13:36:06Z</time>
      </trkpt>
      <trkpt lat="42.127522" lon="2.204973">
        <ele>623.949</ele>
        <time>2017-11-28T13:36:11Z</time>
      </trkpt>
      <trkpt lat="42.127488" lon="2.205025">
        <ele>622.958</ele>
        <time>2017-11-28T13:36:15Z</time>
      </trkpt>
      <trkpt lat="42.127451" lon="2.205066">
        <ele>623.234</ele>
        <time>2017-11-28T13:36:20Z</time>
      </trkpt>
      <trkpt lat="42.127426" lon="2.205117">
        <ele>621.971</ele>
        <time>2017-11-28T13:36:25Z</time>
      </trkpt>
      <trkpt lat="42.127399" lon="2.205166">
        <ele>622.317</ele>
        <time>2017-11-28T13:36:30Z</time>
      </trkpt>
      <trkpt lat="42.127365" lon="2.205217">
        <ele>622.987</ele>
        <time>2017-11-28T13:36:35Z</time>
      </trkpt>
      <trkpt lat="42.127327" lon="2.205266">
        <ele>623.115</ele>
        <time>2017-11-28T13:36:41Z</time>
      </trkpt>
      <trkpt lat="42.127295" lon="2.205319">
        <ele>622.808</ele>
        <time>2017-11-28T13:36:45Z</time>
      </trkpt>
      <trkpt lat="42.127260" lon="2.205368">
        <ele>621.813</ele>
        <time>2017-11-28T13:36:49Z</time>
      </trkpt>
      <trkpt lat="42.127232" lon="2.205420">
        <ele>622.642</ele>
        <time>2017-11-28T13:36:53Z</time>
      </trkpt>
      <trkpt lat="42.127206" lon="2.205480">
        <ele>623.433</ele>
        <time>2017-11-28T13:36:57Z</time>
      </trkpt>
      <trkpt lat="42.127172" lon="2.205541">
        <ele>623.187</ele>
        <time>2017-11-28T13:37:01Z</time>
      </trkpt>
      <trkpt lat="42.127150" lon="2.205596">
        <ele>623.443</ele>
        <time>2017-11-28T13:37:04Z</time>
      </trkpt>
      <trkpt lat="42.127114" lon="2.205654">
        <ele>623.272</ele>
        <time>2017-11-28T13:37:07Z</time>
      </trkpt>
      <trkpt lat="42.127079" lon="2.205702">
        <ele>622.918</ele>
        <time>2017-11-28T13:37:10Z</time>
      </trkpt>
      <trkpt lat="42.127037" lon="2.205738">
        <ele>621.925</ele>
        <time>2017-11-28T13:37:14Z</time>
      </trkpt>
      <trkpt lat="42.127003" lon="2.205787">
        <ele>621.614</ele>
        <time>2017-11-28T13:37:19Z</time>
      </trkpt>
      <trkpt lat="42.126969" lon="2.205846">
        <ele>621.154</ele>
        <time>2017-11-28T13:37:24Z</time>
      </trkpt>
      <trkpt lat="42.126955" lon="2.205913">
        <ele>620.509</ele>
        <time>2017-11-28T13:37:30Z</time>
      </trkpt>
      <trkpt lat="42.126939" lon="2.205971">
        <ele>619.508</ele>
        <time>2017-11-28T13:37:34Z</time>
      </trkpt>
      <trkpt lat="42.126915" lon="2.206032">
        <ele>619.423</ele>
        <time>2017-11-28T13:37:39Z</time>
      </trkpt>
      <trkpt lat="42.126899" lon="2.206094">
        <ele>619.992</ele>
        <time>2017-11-28T13:37:43Z</time>
      </trkpt>
      <trkpt lat="42.126905" lon="2.206163">
        <ele>620.273</ele>
        <time>2017-11-28T13:37:47Z</time>
      </trkpt>
      <trkpt lat="42.126903" lon="2.206227">
        <ele>620.577</ele>
        <time>2017-11-28T13:37:51Z</time>
      </trkpt>
      <trkpt lat="42.126908" lon="2.206292">
        <ele>621.023</ele>
        <time>2017-11-28T13:37:56Z</time>
      </trkpt>
      <trkpt lat="42.126933" lon="2.206359">
        <ele>620.892</ele>
        <time>2017-11-28T13:38:02Z</time>
      </trkpt>
      <trkpt lat="42.126947" lon="2.206423">
        <ele>620.798</ele>
        <time>2017-11-28T13:38:07Z</time>
      </trkpt>
      <trkpt lat="42.126950" lon="2.206492">
        <ele>622.315</ele>
        <time>2017-11-28T13:38:12Z</time>
      </trkpt>
      <trkpt lat="42.126926" lon="2.206545">
        <ele>622.525</ele>
        <time>2017-11-28T13:38:16Z</time>
      </trkpt>
      <trkpt lat="42.126887" lon="2.206598">
        <ele>622.426</ele>
        <time>2017-11-28T13:38:20Z</time>
      </trkpt>
      <trkpt lat="42.126838" lon="2.206631">
        <ele>622.208</ele>
        <time>2017-11-28T13:38:24Z</time>
      </trkpt>
      <trkpt lat="42.126794" lon="2.206674">
        <ele>622.408</ele>
        <time>2017-11-28T13:38:28Z</time>
      </trkpt>
      <trkpt lat="42.126749" lon="2.206688">
        <ele>622.584</ele>
        <time>2017-11-28T13:38:32Z</time>
      </trkpt>
      <trkpt lat="42.126696" lon="2.206700">
        <ele>622.783</ele>
        <time>2017-11-28T13:38:37Z</time>
      </trkpt>
      <trkpt lat="42.126648" lon="2.206707">
        <ele>623.154</ele>
        <time>2017-11-28T13:38:41Z</time>
      </trkpt>
      <trkpt lat="42.126600" lon="2.206699">
        <ele>623.118</ele>
        <time>2017-11-28T13:38:45Z</time>
      </trkpt>
      <trkpt lat="42.126547" lon="2.206706">
        <ele>622.784</ele>
        <time>2017-11-28T13:38:49Z</time>
      </trkpt>
      <trkpt lat="42.126500" lon="2.206685">
        <ele>622.743</ele>
        <time>2017-11-28T13:38:53Z</time>
      </trkpt>
      <trkpt lat="42.126446" lon="2.206652">
        <ele>622.049</ele>
        <time>2017-11-28T13:38:57Z</time>
      </trkpt>
      <trkpt lat="42.126398" lon="2.206648">
        <ele>621.676</ele>
        <time>2017-11-28T13:39:01Z</time>
      </trkpt>
      <trkpt lat="42.126347" lon="2.206642">
        <ele>621.264</ele>
        <time>2017-11-28T13:39:06Z</time>
      </trkpt>
      <trkpt lat="42.126292" lon="2.206640">
        <ele>621.206</ele>
        <time>2017-11-28T13:39:10Z</time>
      </trkpt>
      <trkpt lat="42.126244" lon="2.206646">
        <ele>621.016</ele>
        <time>2017-11-28T13:39:14Z</time>
      </trkpt>
      <trkpt lat="42.126198" lon="2.206665">
        <ele>621.308</ele>
        <time>2017-11-28T13:39:19Z</time>
      </trkpt>
      <trkpt lat="42.126157" lon="2.206698">
        <ele>621.378</ele>
        <time>2017-11-28T13:39:23Z</time>
      </trkpt>
      <trkpt lat="42.126112" lon="2.206723">
        <ele>621.957</ele>
        <time>2017-11-28T13:39:27Z</time>
      </trkpt>
      <trkpt lat="42.126057" lon="2.206723">
        <ele>621.978</ele>
        <time>2017-11-28T13:39:32Z</time>
      </trkpt>
      <trkpt lat="42.126014" lon="2.206761">
        <ele>621.832</ele>
        <time>2017-11-28T13:39:38Z</time>
      </trkpt>
      <trkpt lat="42.125986" lon="2.206808">
        <ele>622.318</ele>
        <time>2017-11-28T13:39:43Z</time>
      </trkpt>
      <trkpt lat="42.125946" lon="2.206851">
        <ele>622.697</ele>
        <time>2017-11-28T13:39:49Z</time>
      </trkpt>
      <trkpt lat="42.125902" lon="2.206896">
        <ele>623.223</ele>
        <time>2017-11-28T13:39:57Z</time>
      </trkpt>
      <trkpt lat="42.125859" lon="2.206920">
        <ele>623.880</ele>
        <time>2017-11-28T13:40:02Z</time>
      </trkpt>
      <trkpt lat="42.125812" lon="2.206955">
        <ele>625.595</ele>
        <time>2017-11-28T13:40:08Z</time>
      </trkpt>
      <trkpt lat="42.125761" lon="2.206969">
        <ele>625.949</ele>
        <time>2017-11-28T13:40:13Z</time>
      </trkpt>
      <trkpt lat="42.125716" lon="2.206989">
        <ele>626.423</ele>
        <time>2017-11-28T13:40:18Z</time>
      </trkpt>
      <trkpt lat="42.125685" lon="2.207040">
        <ele>626.908</ele>
        <time>2017-11-28T13:40:23Z</time>
      </trkpt>
      <trkpt lat="42.125640" lon="2.207058">
        <ele>626.831</ele>
        <time>2017-11-28T13:40:27Z</time>
      </trkpt>
      <trkpt lat="42.125577" lon="2.207074">
        <ele>625.580</ele>
        <time>2017-11-28T13:40:36Z</time>
      </trkpt>
      <trkpt lat="42.125546" lon="2.207131">
        <ele>627.621</ele>
        <time>2017-11-28T13:40:43Z</time>
      </trkpt>
      <trkpt lat="42.125502" lon="2.207158">
        <ele>628.845</ele>
        <time>2017-11-28T13:40:48Z</time>
      </trkpt>
      <trkpt lat="42.125451" lon="2.207182">
        <ele>629.141</ele>
        <time>2017-11-28T13:40:53Z</time>
      </trkpt>
      <trkpt lat="42.125411" lon="2.207227">
        <ele>629.520</ele>
        <time>2017-11-28T13:40:58Z</time>
      </trkpt>
      <trkpt lat="42.125392" lon="2.207299">
        <ele>632.316</ele>
        <time>2017-11-28T13:41:06Z</time>
      </trkpt>
      <trkpt lat="42.125357" lon="2.207349">
        <ele>633.243</ele>
        <time>2017-11-28T13:41:11Z</time>
      </trkpt>
      <trkpt lat="42.125312" lon="2.207368">
        <ele>632.888</ele>
        <time>2017-11-28T13:41:15Z</time>
      </trkpt>
      <trkpt lat="42.125266" lon="2.207403">
        <ele>633.924</ele>
        <time>2017-11-28T13:41:19Z</time>
      </trkpt>
      <trkpt lat="42.125222" lon="2.207423">
        <ele>632.926</ele>
        <time>2017-11-28T13:41:22Z</time>
      </trkpt>
      <trkpt lat="42.125173" lon="2.207463">
        <ele>634.208</ele>
        <time>2017-11-28T13:41:27Z</time>
      </trkpt>
      <trkpt lat="42.125125" lon="2.207487">
        <ele>634.680</ele>
        <time>2017-11-28T13:41:31Z</time>
      </trkpt>
      <trkpt lat="42.125078" lon="2.207515">
        <ele>634.419</ele>
        <time>2017-11-28T13:41:37Z</time>
      </trkpt>
      <trkpt lat="42.125032" lon="2.207530">
        <ele>633.290</ele>
        <time>2017-11-28T13:41:42Z</time>
      </trkpt>
      <trkpt lat="42.124987" lon="2.207544">
        <ele>635.344</ele>
        <time>2017-11-28T13:41:46Z</time>
      </trkpt>
      <trkpt lat="42.124942" lon="2.207550">
        <ele>637.150</ele>
        <time>2017-11-28T13:41:51Z</time>
      </trkpt>
      <trkpt lat="42.124898" lon="2.207570">
        <ele>638.539</ele>
        <time>2017-11-28T13:41:56Z</time>
      </trkpt>
      <trkpt lat="42.124847" lon="2.207593">
        <ele>638.775</ele>
        <time>2017-11-28T13:42:01Z</time>
      </trkpt>
      <trkpt lat="42.124801" lon="2.207607">
        <ele>639.692</ele>
        <time>2017-11-28T13:42:06Z</time>
      </trkpt>
      <trkpt lat="42.124753" lon="2.207608">
        <ele>641.672</ele>
        <time>2017-11-28T13:42:13Z</time>
      </trkpt>
      <trkpt lat="42.124695" lon="2.207614">
        <ele>642.613</ele>
        <time>2017-11-28T13:42:16Z</time>
      </trkpt>
      <trkpt lat="42.124648" lon="2.207629">
        <ele>643.014</ele>
        <time>2017-11-28T13:42:22Z</time>
      </trkpt>
      <trkpt lat="42.124606" lon="2.207654">
        <ele>643.608</ele>
        <time>2017-11-28T13:42:27Z</time>
      </trkpt>
      <trkpt lat="42.124563" lon="2.207674">
        <ele>643.769</ele>
        <time>2017-11-28T13:42:32Z</time>
      </trkpt>
      <trkpt lat="42.124513" lon="2.207678">
        <ele>643.128</ele>
        <time>2017-11-28T13:42:37Z</time>
      </trkpt>
      <trkpt lat="42.124464" lon="2.207693">
        <ele>642.049</ele>
        <time>2017-11-28T13:42:44Z</time>
      </trkpt>
      <trkpt lat="42.124429" lon="2.207741">
        <ele>645.953</ele>
        <time>2017-11-28T13:42:51Z</time>
      </trkpt>
      <trkpt lat="42.124387" lon="2.207783">
        <ele>647.879</ele>
        <time>2017-11-28T13:42:55Z</time>
      </trkpt>
      <trkpt lat="42.124335" lon="2.207787">
        <ele>648.768</ele>
        <time>2017-11-28T13:43:01Z</time>
      </trkpt>
      <trkpt lat="42.124283" lon="2.207769">
        <ele>648.654</ele>
        <time>2017-11-28T13:43:06Z</time>
      </trkpt>
      <trkpt lat="42.124234" lon="2.207768">
        <ele>649.611</ele>
        <time>2017-11-28T13:43:11Z</time>
      </trkpt>
      <trkpt lat="42.124188" lon="2.207774">
        <ele>650.691</ele>
        <time>2017-11-28T13:43:15Z</time>
      </trkpt>
      <trkpt lat="42.124138" lon="2.207787">
        <ele>651.181</ele>
        <time>2017-11-28T13:43:21Z</time>
      </trkpt>
      <trkpt lat="42.124092" lon="2.207764">
        <ele>651.019</ele>
        <time>2017-11-28T13:43:26Z</time>
      </trkpt>
      <trkpt lat="42.124043" lon="2.207758">
        <ele>652.108</ele>
        <time>2017-11-28T13:43:31Z</time>
      </trkpt>
      <trkpt lat="42.123999" lon="2.207776">
        <ele>653.051</ele>
        <time>2017-11-28T13:43:35Z</time>
      </trkpt>
      <trkpt lat="42.123952" lon="2.207790">
        <ele>653.880</ele>
        <time>2017-11-28T13:43:39Z</time>
      </trkpt>
      <trkpt lat="42.123899" lon="2.207801">
        <ele>653.831</ele>
        <time>2017-11-28T13:43:44Z</time>
      </trkpt>
      <trkpt lat="42.123856" lon="2.207839">
        <ele>655.285</ele>
        <time>2017-11-28T13:43:50Z</time>
      </trkpt>
      <trkpt lat="42.123810" lon="2.207837">
        <ele>656.371</ele>
        <time>2017-11-28T13:43:57Z</time>
      </trkpt>
      <trkpt lat="42.123775" lon="2.207795">
        <ele>658.110</ele>
        <time>2017-11-28T13:44:05Z</time>
      </trkpt>
      <trkpt lat="42.123806" lon="2.207839">
        <ele>659.166</ele>
        <time>2017-11-28T13:44:25Z</time>
      </trkpt>
      <trkpt lat="42.123850" lon="2.207866">
        <ele>659.893</ele>
        <time>2017-11-28T13:44:31Z</time>
      </trkpt>
      <trkpt lat="42.123891" lon="2.207897">
        <ele>660.368</ele>
        <time>2017-11-28T13:44:39Z</time>
      </trkpt>
      <trkpt lat="42.123939" lon="2.207919">
        <ele>660.642</ele>
        <time>2017-11-28T13:44:43Z</time>
      </trkpt>
      <trkpt lat="42.123987" lon="2.207941">
        <ele>661.626</ele>
        <time>2017-11-28T13:44:48Z</time>
      </trkpt>
      <trkpt lat="42.124022" lon="2.207987">
        <ele>663.408</ele>
        <time>2017-11-28T13:44:54Z</time>
      </trkpt>
      <trkpt lat="42.124064" lon="2.208015">
        <ele>664.028</ele>
        <time>2017-11-28T13:44:59Z</time>
      </trkpt>
      <trkpt lat="42.124110" lon="2.208041">
        <ele>664.797</ele>
        <time>2017-11-28T13:45:04Z</time>
      </trkpt>
      <trkpt lat="42.124159" lon="2.208064">
        <ele>665.718</ele>
        <time>2017-11-28T13:45:10Z</time>
      </trkpt>
      <trkpt lat="42.124205" lon="2.208088">
        <ele>666.192</ele>
        <time>2017-11-28T13:45:14Z</time>
      </trkpt>
      <trkpt lat="42.124254" lon="2.208109">
        <ele>666.518</ele>
        <time>2017-11-28T13:45:18Z</time>
      </trkpt>
      <trkpt lat="42.124297" lon="2.208129">
        <ele>667.167</ele>
        <time>2017-11-28T13:45:23Z</time>
      </trkpt>
      <trkpt lat="42.124343" lon="2.208145">
        <ele>667.773</ele>
        <time>2017-11-28T13:45:28Z</time>
      </trkpt>
      <trkpt lat="42.124385" lon="2.208181">
        <ele>668.410</ele>
        <time>2017-11-28T13:45:33Z</time>
      </trkpt>
      <trkpt lat="42.124429" lon="2.208221">
        <ele>669.539</ele>
        <time>2017-11-28T13:45:39Z</time>
      </trkpt>
      <trkpt lat="42.124470" lon="2.208257">
        <ele>670.301</ele>
        <time>2017-11-28T13:45:43Z</time>
      </trkpt>
      <trkpt lat="42.124499" lon="2.208312">
        <ele>671.221</ele>
        <time>2017-11-28T13:45:49Z</time>
      </trkpt>
      <trkpt lat="42.124532" lon="2.208358">
        <ele>671.908</ele>
        <time>2017-11-28T13:45:53Z</time>
      </trkpt>
      <trkpt lat="42.124570" lon="2.208402">
        <ele>672.995</ele>
        <time>2017-11-28T13:45:58Z</time>
      </trkpt>
      <trkpt lat="42.124594" lon="2.208453">
        <ele>672.714</ele>
        <time>2017-11-28T13:46:02Z</time>
      </trkpt>
      <trkpt lat="42.124601" lon="2.208515">
        <ele>673.785</ele>
        <time>2017-11-28T13:46:06Z</time>
      </trkpt>
      <trkpt lat="42.124628" lon="2.208579">
        <ele>673.949</ele>
        <time>2017-11-28T13:46:10Z</time>
      </trkpt>
      <trkpt lat="42.124642" lon="2.208655">
        <ele>674.075</ele>
        <time>2017-11-28T13:46:14Z</time>
      </trkpt>
      <trkpt lat="42.124643" lon="2.208719">
        <ele>675.344</ele>
        <time>2017-11-28T13:46:18Z</time>
      </trkpt>
      <trkpt lat="42.124655" lon="2.208782">
        <ele>675.820</ele>
        <time>2017-11-28T13:46:23Z</time>
      </trkpt>
      <trkpt lat="42.124675" lon="2.208837">
        <ele>676.487</ele>
        <time>2017-11-28T13:46:26Z</time>
      </trkpt>
      <trkpt lat="42.124688" lon="2.208907">
        <ele>676.971</ele>
        <time>2017-11-28T13:46:30Z</time>
      </trkpt>
      <trkpt lat="42.124692" lon="2.208979">
        <ele>676.741</ele>
        <time>2017-11-28T13:46:35Z</time>
      </trkpt>
      <trkpt lat="42.124679" lon="2.209049">
        <ele>676.715</ele>
        <time>2017-11-28T13:46:39Z</time>
      </trkpt>
      <trkpt lat="42.124674" lon="2.209123">
        <ele>676.708</ele>
        <time>2017-11-28T13:46:43Z</time>
      </trkpt>
      <trkpt lat="42.124679" lon="2.209184">
        <ele>677.279</ele>
        <time>2017-11-28T13:46:47Z</time>
      </trkpt>
      <trkpt lat="42.124692" lon="2.209251">
        <ele>677.848</ele>
        <time>2017-11-28T13:46:52Z</time>
      </trkpt>
      <trkpt lat="42.124710" lon="2.209307">
        <ele>678.269</ele>
        <time>2017-11-28T13:46:55Z</time>
      </trkpt>
      <trkpt lat="42.124723" lon="2.209366">
        <ele>679.193</ele>
        <time>2017-11-28T13:46:58Z</time>
      </trkpt>
      <trkpt lat="42.124750" lon="2.209436">
        <ele>679.349</ele>
        <time>2017-11-28T13:47:02Z</time>
      </trkpt>
      <trkpt lat="42.124778" lon="2.209490">
        <ele>679.388</ele>
        <time>2017-11-28T13:47:05Z</time>
      </trkpt>
      <trkpt lat="42.124800" lon="2.209556">
        <ele>679.654</ele>
        <time>2017-11-28T13:47:10Z</time>
      </trkpt>
      <trkpt lat="42.124812" lon="2.209624">
        <ele>680.461</ele>
        <time>2017-11-28T13:47:14Z</time>
      </trkpt>
      <trkpt lat="42.124822" lon="2.209698">
        <ele>681.088</ele>
        <time>2017-11-28T13:47:18Z</time>
      </trkpt>
      <trkpt lat="42.124844" lon="2.209764">
        <ele>680.924</ele>
        <time>2017-11-28T13:47:23Z</time>
      </trkpt>
      <trkpt lat="42.124883" lon="2.209811">
        <ele>680.726</ele>
        <time>2017-11-28T13:47:28Z</time>
      </trkpt>
      <trkpt lat="42.124905" lon="2.209886">
        <ele>681.308</ele>
        <time>2017-11-28T13:47:32Z</time>
      </trkpt>
      <trkpt lat="42.124914" lon="2.209959">
        <ele>681.330</ele>
        <time>2017-11-28T13:47:35Z</time>
      </trkpt>
      <trkpt lat="42.124942" lon="2.210027">
        <ele>681.259</ele>
        <time>2017-11-28T13:47:39Z</time>
      </trkpt>
      <trkpt lat="42.124957" lon="2.210084">
        <ele>681.080</ele>
        <time>2017-11-28T13:47:42Z</time>
      </trkpt>
      <trkpt lat="42.124969" lon="2.210144">
        <ele>681.224</ele>
        <time>2017-11-28T13:47:45Z</time>
      </trkpt>
      <trkpt lat="42.124977" lon="2.210209">
        <ele>680.670</ele>
        <time>2017-11-28T13:47:48Z</time>
      </trkpt>
      <trkpt lat="42.124974" lon="2.210272">
        <ele>680.149</ele>
        <time>2017-11-28T13:47:51Z</time>
      </trkpt>
      <trkpt lat="42.124957" lon="2.210344">
        <ele>679.765</ele>
        <time>2017-11-28T13:47:55Z</time>
      </trkpt>
      <trkpt lat="42.124930" lon="2.210404">
        <ele>679.522</ele>
        <time>2017-11-28T13:47:59Z</time>
      </trkpt>
      <trkpt lat="42.124898" lon="2.210458">
        <ele>679.387</ele>
        <time>2017-11-28T13:48:03Z</time>
      </trkpt>
      <trkpt lat="42.124868" lon="2.210507">
        <ele>679.242</ele>
        <time>2017-11-28T13:48:07Z</time>
      </trkpt>
      <trkpt lat="42.124841" lon="2.210561">
        <ele>678.726</ele>
        <time>2017-11-28T13:48:12Z</time>
      </trkpt>
      <trkpt lat="42.124806" lon="2.210606">
        <ele>678.608</ele>
        <time>2017-11-28T13:48:27Z</time>
      </trkpt>
      <trkpt lat="42.124779" lon="2.210665">
        <ele>679.520</ele>
        <time>2017-11-28T13:48:32Z</time>
      </trkpt>
      <trkpt lat="42.124742" lon="2.210716">
        <ele>680.899</ele>
        <time>2017-11-28T13:48:38Z</time>
      </trkpt>
      <trkpt lat="42.124710" lon="2.210762">
        <ele>679.990</ele>
        <time>2017-11-28T13:48:43Z</time>
      </trkpt>
      <trkpt lat="42.124670" lon="2.210791">
        <ele>680.094</ele>
        <time>2017-11-28T13:48:48Z</time>
      </trkpt>
      <trkpt lat="42.124632" lon="2.210842">
        <ele>680.990</ele>
        <time>2017-11-28T13:48:57Z</time>
      </trkpt>
      <trkpt lat="42.124603" lon="2.210890">
        <ele>681.189</ele>
        <time>2017-11-28T13:49:01Z</time>
      </trkpt>
      <trkpt lat="42.124557" lon="2.210909">
        <ele>681.015</ele>
        <time>2017-11-28T13:49:06Z</time>
      </trkpt>
      <trkpt lat="42.124507" lon="2.210925">
        <ele>681.372</ele>
        <time>2017-11-28T13:49:13Z</time>
      </trkpt>
      <trkpt lat="42.124463" lon="2.210944">
        <ele>681.398</ele>
        <time>2017-11-28T13:49:17Z</time>
      </trkpt>
      <trkpt lat="42.124414" lon="2.210951">
        <ele>680.715</ele>
        <time>2017-11-28T13:49:21Z</time>
      </trkpt>
      <trkpt lat="42.124364" lon="2.210949">
        <ele>680.326</ele>
        <time>2017-11-28T13:49:25Z</time>
      </trkpt>
      <trkpt lat="42.124317" lon="2.210948">
        <ele>680.508</ele>
        <time>2017-11-28T13:49:29Z</time>
      </trkpt>
      <trkpt lat="42.124267" lon="2.210930">
        <ele>680.731</ele>
        <time>2017-11-28T13:49:35Z</time>
      </trkpt>
      <trkpt lat="42.124215" lon="2.210910">
        <ele>680.340</ele>
        <time>2017-11-28T13:50:05Z</time>
      </trkpt>
      <trkpt lat="42.124168" lon="2.210896">
        <ele>681.361</ele>
        <time>2017-11-28T13:50:09Z</time>
      </trkpt>
      <trkpt lat="42.124120" lon="2.210882">
        <ele>680.955</ele>
        <time>2017-11-28T13:50:13Z</time>
      </trkpt>
      <trkpt lat="42.124076" lon="2.210867">
        <ele>681.191</ele>
        <time>2017-11-28T13:50:18Z</time>
      </trkpt>
      <trkpt lat="42.124028" lon="2.210843">
        <ele>682.420</ele>
        <time>2017-11-28T13:50:22Z</time>
      </trkpt>
      <trkpt lat="42.123971" lon="2.210818">
        <ele>682.296</ele>
        <time>2017-11-28T13:50:26Z</time>
      </trkpt>
      <trkpt lat="42.123927" lon="2.210800">
        <ele>682.423</ele>
        <time>2017-11-28T13:50:29Z</time>
      </trkpt>
      <trkpt lat="42.123880" lon="2.210780">
        <ele>682.538</ele>
        <time>2017-11-28T13:50:32Z</time>
      </trkpt>
      <trkpt lat="42.123835" lon="2.210763">
        <ele>682.570</ele>
        <time>2017-11-28T13:50:35Z</time>
      </trkpt>
      <trkpt lat="42.123790" lon="2.210745">
        <ele>682.617</ele>
        <time>2017-11-28T13:50:38Z</time>
      </trkpt>
      <trkpt lat="42.123733" lon="2.210727">
        <ele>682.508</ele>
        <time>2017-11-28T13:50:42Z</time>
      </trkpt>
      <trkpt lat="42.123677" lon="2.210710">
        <ele>683.055</ele>
        <time>2017-11-28T13:50:46Z</time>
      </trkpt>
      <trkpt lat="42.123631" lon="2.210688">
        <ele>683.294</ele>
        <time>2017-11-28T13:50:49Z</time>
      </trkpt>
      <trkpt lat="42.123583" lon="2.210658">
        <ele>683.345</ele>
        <time>2017-11-28T13:50:53Z</time>
      </trkpt>
      <trkpt lat="42.123541" lon="2.210631">
        <ele>683.489</ele>
        <time>2017-11-28T13:50:56Z</time>
      </trkpt>
      <trkpt lat="42.123489" lon="2.210598">
        <ele>683.425</ele>
        <time>2017-11-28T13:51:00Z</time>
      </trkpt>
      <trkpt lat="42.123434" lon="2.210579">
        <ele>683.884</ele>
        <time>2017-11-28T13:51:04Z</time>
      </trkpt>
      <trkpt lat="42.123374" lon="2.210568">
        <ele>684.370</ele>
        <time>2017-11-28T13:51:08Z</time>
      </trkpt>
      <trkpt lat="42.123319" lon="2.210574">
        <ele>684.477</ele>
        <time>2017-11-28T13:51:12Z</time>
      </trkpt>
      <trkpt lat="42.123273" lon="2.210589">
        <ele>684.634</ele>
        <time>2017-11-28T13:51:15Z</time>
      </trkpt>
      <trkpt lat="42.123229" lon="2.210635">
        <ele>684.755</ele>
        <time>2017-11-28T13:51:19Z</time>
      </trkpt>
      <trkpt lat="42.123186" lon="2.210687">
        <ele>684.510</ele>
        <time>2017-11-28T13:51:23Z</time>
      </trkpt>
      <trkpt lat="42.123149" lon="2.210747">
        <ele>684.708</ele>
        <time>2017-11-28T13:51:27Z</time>
      </trkpt>
      <trkpt lat="42.123125" lon="2.210813">
        <ele>685.075</ele>
        <time>2017-11-28T13:51:31Z</time>
      </trkpt>
      <trkpt lat="42.123099" lon="2.210870">
        <ele>685.074</ele>
        <time>2017-11-28T13:51:35Z</time>
      </trkpt>
      <trkpt lat="42.123070" lon="2.210936">
        <ele>684.865</ele>
        <time>2017-11-28T13:51:39Z</time>
      </trkpt>
      <trkpt lat="42.123057" lon="2.211004">
        <ele>685.089</ele>
        <time>2017-11-28T13:51:43Z</time>
      </trkpt>
      <trkpt lat="42.123036" lon="2.211073">
        <ele>685.185</ele>
        <time>2017-11-28T13:51:47Z</time>
      </trkpt>
      <trkpt lat="42.123016" lon="2.211136">
        <ele>685.294</ele>
        <time>2017-11-28T13:51:51Z</time>
      </trkpt>
      <trkpt lat="42.122993" lon="2.211195">
        <ele>684.980</ele>
        <time>2017-11-28T13:51:55Z</time>
      </trkpt>
      <trkpt lat="42.122962" lon="2.211259">
        <ele>684.627</ele>
        <time>2017-11-28T13:51:59Z</time>
      </trkpt>
      <trkpt lat="42.122935" lon="2.211320">
        <ele>684.662</ele>
        <time>2017-11-28T13:52:03Z</time>
      </trkpt>
      <trkpt lat="42.122906" lon="2.211381">
        <ele>684.283</ele>
        <time>2017-11-28T13:52:07Z</time>
      </trkpt>
      <trkpt lat="42.122875" lon="2.211435">
        <ele>683.911</ele>
        <time>2017-11-28T13:52:11Z</time>
      </trkpt>
      <trkpt lat="42.122845" lon="2.211492">
        <ele>684.308</ele>
        <time>2017-11-28T13:52:15Z</time>
      </trkpt>
      <trkpt lat="42.122814" lon="2.211548">
        <ele>683.768</ele>
        <time>2017-11-28T13:52:19Z</time>
      </trkpt>
      <trkpt lat="42.122786" lon="2.211609">
        <ele>683.337</ele>
        <time>2017-11-28T13:52:23Z</time>
      </trkpt>
      <trkpt lat="42.122754" lon="2.211668">
        <ele>683.318</ele>
        <time>2017-11-28T13:52:27Z</time>
      </trkpt>
      <trkpt lat="42.122722" lon="2.211725">
        <ele>683.332</ele>
        <time>2017-11-28T13:52:31Z</time>
      </trkpt>
      <trkpt lat="42.122691" lon="2.211787">
        <ele>683.468</ele>
        <time>2017-11-28T13:52:35Z</time>
      </trkpt>
      <trkpt lat="42.122658" lon="2.211846">
        <ele>683.667</ele>
        <time>2017-11-28T13:52:39Z</time>
      </trkpt>
      <trkpt lat="42.122626" lon="2.211897">
        <ele>684.153</ele>
        <time>2017-11-28T13:52:43Z</time>
      </trkpt>
      <trkpt lat="42.122589" lon="2.211940">
        <ele>684.640</ele>
        <time>2017-11-28T13:52:47Z</time>
      </trkpt>
      <trkpt lat="42.122538" lon="2.211958">
        <ele>684.777</ele>
        <time>2017-11-28T13:52:51Z</time>
      </trkpt>
      <trkpt lat="42.122487" lon="2.211966">
        <ele>684.561</ele>
        <time>2017-11-28T13:52:55Z</time>
      </trkpt>
      <trkpt lat="42.122438" lon="2.211952">
        <ele>684.627</ele>
        <time>2017-11-28T13:52:59Z</time>
      </trkpt>
      <trkpt lat="42.122394" lon="2.211922">
        <ele>684.608</ele>
        <time>2017-11-28T13:53:03Z</time>
      </trkpt>
      <trkpt lat="42.122347" lon="2.211885">
        <ele>684.879</ele>
        <time>2017-11-28T13:53:07Z</time>
      </trkpt>
      <trkpt lat="42.122302" lon="2.211844">
        <ele>684.898</ele>
        <time>2017-11-28T13:53:11Z</time>
      </trkpt>
      <trkpt lat="42.122258" lon="2.211800">
        <ele>684.559</ele>
        <time>2017-11-28T13:53:15Z</time>
      </trkpt>
      <trkpt lat="42.122220" lon="2.211755">
        <ele>684.193</ele>
        <time>2017-11-28T13:53:19Z</time>
      </trkpt>
      <trkpt lat="42.122184" lon="2.211700">
        <ele>684.279</ele>
        <time>2017-11-28T13:53:23Z</time>
      </trkpt>
      <trkpt lat="42.122154" lon="2.211646">
        <ele>684.098</ele>
        <time>2017-11-28T13:53:27Z</time>
      </trkpt>
      <trkpt lat="42.122126" lon="2.211587">
        <ele>684.454</ele>
        <time>2017-11-28T13:53:31Z</time>
      </trkpt>
      <trkpt lat="42.122102" lon="2.211527">
        <ele>684.021</ele>
        <time>2017-11-28T13:53:35Z</time>
      </trkpt>
      <trkpt lat="42.122077" lon="2.211471">
        <ele>683.916</ele>
        <time>2017-11-28T13:53:39Z</time>
      </trkpt>
      <trkpt lat="42.122053" lon="2.211406">
        <ele>684.176</ele>
        <time>2017-11-28T13:53:43Z</time>
      </trkpt>
      <trkpt lat="42.122030" lon="2.211339">
        <ele>683.913</ele>
        <time>2017-11-28T13:53:47Z</time>
      </trkpt>
      <trkpt lat="42.122011" lon="2.211270">
        <ele>683.208</ele>
        <time>2017-11-28T13:53:51Z</time>
      </trkpt>
      <trkpt lat="42.121979" lon="2.211208">
        <ele>682.453</ele>
        <time>2017-11-28T13:53:55Z</time>
      </trkpt>
      <trkpt lat="42.121947" lon="2.211147">
        <ele>681.962</ele>
        <time>2017-11-28T13:53:59Z</time>
      </trkpt>
      <trkpt lat="42.121912" lon="2.211088">
        <ele>681.693</ele>
        <time>2017-11-28T13:54:03Z</time>
      </trkpt>
      <trkpt lat="42.121875" lon="2.211028">
        <ele>681.377</ele>
        <time>2017-11-28T13:54:07Z</time>
      </trkpt>
      <trkpt lat="42.121835" lon="2.210976">
        <ele>681.443</ele>
        <time>2017-11-28T13:54:11Z</time>
      </trkpt>
      <trkpt lat="42.121798" lon="2.210927">
        <ele>680.982</ele>
        <time>2017-11-28T13:54:15Z</time>
      </trkpt>
      <trkpt lat="42.121759" lon="2.210874">
        <ele>681.078</ele>
        <time>2017-11-28T13:54:19Z</time>
      </trkpt>
      <trkpt lat="42.121720" lon="2.210825">
        <ele>680.685</ele>
        <time>2017-11-28T13:54:23Z</time>
      </trkpt>
      <trkpt lat="42.121678" lon="2.210786">
        <ele>680.593</ele>
        <time>2017-11-28T13:54:28Z</time>
      </trkpt>
      <trkpt lat="42.121641" lon="2.210736">
        <ele>680.565</ele>
        <time>2017-11-28T13:54:32Z</time>
      </trkpt>
      <trkpt lat="42.121603" lon="2.210686">
        <ele>680.621</ele>
        <time>2017-11-28T13:54:36Z</time>
      </trkpt>
      <trkpt lat="42.121566" lon="2.210636">
        <ele>680.708</ele>
        <time>2017-11-28T13:54:40Z</time>
      </trkpt>
      <trkpt lat="42.121529" lon="2.210583">
        <ele>680.811</ele>
        <time>2017-11-28T13:54:44Z</time>
      </trkpt>
      <trkpt lat="42.121492" lon="2.210535">
        <ele>680.990</ele>
        <time>2017-11-28T13:54:48Z</time>
      </trkpt>
      <trkpt lat="42.121454" lon="2.210485">
        <ele>681.281</ele>
        <time>2017-11-28T13:54:52Z</time>
      </trkpt>
      <trkpt lat="42.121416" lon="2.210435">
        <ele>681.535</ele>
        <time>2017-11-28T13:54:56Z</time>
      </trkpt>
      <trkpt lat="42.121378" lon="2.210384">
        <ele>681.561</ele>
        <time>2017-11-28T13:55:00Z</time>
      </trkpt>
      <trkpt lat="42.121344" lon="2.210342">
        <ele>681.110</ele>
        <time>2017-11-28T13:55:04Z</time>
      </trkpt>
      <trkpt lat="42.121311" lon="2.210293">
        <ele>681.016</ele>
        <time>2017-11-28T13:55:08Z</time>
      </trkpt>
      <trkpt lat="42.121273" lon="2.210244">
        <ele>681.423</ele>
        <time>2017-11-28T13:55:12Z</time>
      </trkpt>
      <trkpt lat="42.121241" lon="2.210199">
        <ele>681.539</ele>
        <time>2017-11-28T13:55:16Z</time>
      </trkpt>
      <trkpt lat="42.121202" lon="2.210155">
        <ele>681.501</ele>
        <time>2017-11-28T13:55:24Z</time>
      </trkpt>
      <trkpt lat="42.121168" lon="2.210108">
        <ele>681.621</ele>
        <time>2017-11-28T13:55:28Z</time>
      </trkpt>
      <trkpt lat="42.121140" lon="2.210057">
        <ele>681.508</ele>
        <time>2017-11-28T13:55:32Z</time>
      </trkpt>
      <trkpt lat="42.121118" lon="2.210000">
        <ele>681.575</ele>
        <time>2017-11-28T13:55:36Z</time>
      </trkpt>
      <trkpt lat="42.121097" lon="2.209944">
        <ele>680.724</ele>
        <time>2017-11-28T13:55:40Z</time>
      </trkpt>
      <trkpt lat="42.121079" lon="2.209885">
        <ele>680.615</ele>
        <time>2017-11-28T13:55:44Z</time>
      </trkpt>
      <trkpt lat="42.121062" lon="2.209825">
        <ele>680.849</ele>
        <time>2017-11-28T13:55:48Z</time>
      </trkpt>
      <trkpt lat="42.121042" lon="2.209767">
        <ele>681.065</ele>
        <time>2017-11-28T13:55:52Z</time>
      </trkpt>
      <trkpt lat="42.121021" lon="2.209706">
        <ele>681.024</ele>
        <time>2017-11-28T13:55:56Z</time>
      </trkpt>
      <trkpt lat="42.120996" lon="2.209642">
        <ele>681.250</ele>
        <time>2017-11-28T13:56:00Z</time>
      </trkpt>
      <trkpt lat="42.120971" lon="2.209578">
        <ele>681.577</ele>
        <time>2017-11-28T13:56:04Z</time>
      </trkpt>
      <trkpt lat="42.120936" lon="2.209530">
        <ele>681.837</ele>
        <time>2017-11-28T13:56:08Z</time>
      </trkpt>
      <trkpt lat="42.120886" lon="2.209512">
        <ele>681.549</ele>
        <time>2017-11-28T13:56:12Z</time>
      </trkpt>
      <trkpt lat="42.120831" lon="2.209527">
        <ele>681.413</ele>
        <time>2017-11-28T13:56:16Z</time>
      </trkpt>
      <trkpt lat="42.120781" lon="2.209553">
        <ele>681.608</ele>
        <time>2017-11-28T13:56:20Z</time>
      </trkpt>
      <trkpt lat="42.120738" lon="2.209593">
        <ele>681.665</ele>
        <time>2017-11-28T13:56:24Z</time>
      </trkpt>
      <trkpt lat="42.120696" lon="2.209639">
        <ele>681.614</ele>
        <time>2017-11-28T13:56:28Z</time>
      </trkpt>
      <trkpt lat="42.120663" lon="2.209687">
        <ele>681.545</ele>
        <time>2017-11-28T13:56:32Z</time>
      </trkpt>
      <trkpt lat="42.120629" lon="2.209734">
        <ele>681.699</ele>
        <time>2017-11-28T13:56:36Z</time>
      </trkpt>
      <trkpt lat="42.120590" lon="2.209781">
        <ele>681.995</ele>
        <time>2017-11-28T13:56:40Z</time>
      </trkpt>
      <trkpt lat="42.120544" lon="2.209827">
        <ele>682.064</ele>
        <time>2017-11-28T13:56:44Z</time>
      </trkpt>
      <trkpt lat="42.120501" lon="2.209858">
        <ele>682.180</ele>
        <time>2017-11-28T13:56:48Z</time>
      </trkpt>
      <trkpt lat="42.120456" lon="2.209882">
        <ele>682.537</ele>
        <time>2017-11-28T13:56:52Z</time>
      </trkpt>
      <trkpt lat="42.120413" lon="2.209905">
        <ele>682.866</ele>
        <time>2017-11-28T13:56:56Z</time>
      </trkpt>
      <trkpt lat="42.120364" lon="2.209937">
        <ele>683.529</ele>
        <time>2017-11-28T13:57:01Z</time>
      </trkpt>
      <trkpt lat="42.120312" lon="2.209964">
        <ele>684.321</ele>
        <time>2017-11-28T13:57:06Z</time>
      </trkpt>
      <trkpt lat="42.120260" lon="2.209992">
        <ele>685.108</ele>
        <time>2017-11-28T13:57:11Z</time>
      </trkpt>
      <trkpt lat="42.120208" lon="2.210007">
        <ele>686.048</ele>
        <time>2017-11-28T13:57:16Z</time>
      </trkpt>
      <trkpt lat="42.120157" lon="2.210003">
        <ele>686.327</ele>
        <time>2017-11-28T13:57:21Z</time>
      </trkpt>
      <trkpt lat="42.120104" lon="2.209998">
        <ele>686.358</ele>
        <time>2017-11-28T13:57:26Z</time>
      </trkpt>
      <trkpt lat="42.120049" lon="2.209994">
        <ele>686.422</ele>
        <time>2017-11-28T13:57:31Z</time>
      </trkpt>
      <trkpt lat="42.119998" lon="2.209999">
        <ele>686.938</ele>
        <time>2017-11-28T13:57:35Z</time>
      </trkpt>
      <trkpt lat="42.119945" lon="2.210022">
        <ele>686.577</ele>
        <time>2017-11-28T13:57:40Z</time>
      </trkpt>
      <trkpt lat="42.119896" lon="2.210051">
        <ele>687.363</ele>
        <time>2017-11-28T13:57:45Z</time>
      </trkpt>
      <trkpt lat="42.119844" lon="2.210075">
        <ele>687.790</ele>
        <time>2017-11-28T13:57:50Z</time>
      </trkpt>
      <trkpt lat="42.119795" lon="2.210089">
        <ele>687.428</ele>
        <time>2017-11-28T13:57:55Z</time>
      </trkpt>
      <trkpt lat="42.119746" lon="2.210107">
        <ele>687.489</ele>
        <time>2017-11-28T13:58:00Z</time>
      </trkpt>
      <trkpt lat="42.119690" lon="2.210117">
        <ele>687.917</ele>
        <time>2017-11-28T13:58:05Z</time>
      </trkpt>
      <trkpt lat="42.119640" lon="2.210139">
        <ele>688.308</ele>
        <time>2017-11-28T13:58:10Z</time>
      </trkpt>
      <trkpt lat="42.119587" lon="2.210167">
        <ele>688.564</ele>
        <time>2017-11-28T13:58:15Z</time>
      </trkpt>
      <trkpt lat="42.119544" lon="2.210193">
        <ele>689.023</ele>
        <time>2017-11-28T13:58:20Z</time>
      </trkpt>
      <trkpt lat="42.119490" lon="2.210211">
        <ele>689.524</ele>
        <time>2017-11-28T13:58:25Z</time>
      </trkpt>
      <trkpt lat="42.119448" lon="2.210236">
        <ele>689.578</ele>
        <time>2017-11-28T13:58:29Z</time>
      </trkpt>
      <trkpt lat="42.119400" lon="2.210273">
        <ele>689.884</ele>
        <time>2017-11-28T13:58:34Z</time>
      </trkpt>
      <trkpt lat="42.119353" lon="2.210295">
        <ele>690.323</ele>
        <time>2017-11-28T13:58:38Z</time>
      </trkpt>
      <trkpt lat="42.119301" lon="2.210312">
        <ele>691.059</ele>
        <time>2017-11-28T13:58:42Z</time>
      </trkpt>
      <trkpt lat="42.119256" lon="2.210319">
        <ele>690.816</ele>
        <time>2017-11-28T13:58:47Z</time>
      </trkpt>
      <trkpt lat="42.119200" lon="2.210332">
        <ele>691.186</ele>
        <time>2017-11-28T13:58:52Z</time>
      </trkpt>
      <trkpt lat="42.119150" lon="2.210346">
        <ele>691.560</ele>
        <time>2017-11-28T13:58:56Z</time>
      </trkpt>
      <trkpt lat="42.119103" lon="2.210371">
        <ele>691.426</ele>
        <time>2017-11-28T13:59:00Z</time>
      </trkpt>
      <trkpt lat="42.119056" lon="2.210394">
        <ele>691.808</ele>
        <time>2017-11-28T13:59:04Z</time>
      </trkpt>
      <trkpt lat="42.119010" lon="2.210409">
        <ele>692.790</ele>
        <time>2017-11-28T13:59:08Z</time>
      </trkpt>
      <trkpt lat="42.118962" lon="2.210417">
        <ele>694.099</ele>
        <time>2017-11-28T13:59:12Z</time>
      </trkpt>
      <trkpt lat="42.118916" lon="2.210427">
        <ele>694.460</ele>
        <time>2017-11-28T13:59:16Z</time>
      </trkpt>
      <trkpt lat="42.118869" lon="2.210435">
        <ele>694.824</ele>
        <time>2017-11-28T13:59:20Z</time>
      </trkpt>
      <trkpt lat="42.118823" lon="2.210438">
        <ele>694.820</ele>
        <time>2017-11-28T13:59:24Z</time>
      </trkpt>
      <trkpt lat="42.118778" lon="2.210435">
        <ele>695.359</ele>
        <time>2017-11-28T13:59:28Z</time>
      </trkpt>
      <trkpt lat="42.118731" lon="2.210426">
        <ele>695.625</ele>
        <time>2017-11-28T13:59:32Z</time>
      </trkpt>
      <trkpt lat="42.118678" lon="2.210409">
        <ele>696.072</ele>
        <time>2017-11-28T13:59:37Z</time>
      </trkpt>
      <trkpt lat="42.118629" lon="2.210400">
        <ele>695.399</ele>
        <time>2017-11-28T13:59:47Z</time>
      </trkpt>
      <trkpt lat="42.118588" lon="2.210363">
        <ele>695.907</ele>
        <time>2017-11-28T13:59:52Z</time>
      </trkpt>
      <trkpt lat="42.118544" lon="2.210328">
        <ele>696.827</ele>
        <time>2017-11-28T14:00:02Z</time>
      </trkpt>
      <trkpt lat="42.118503" lon="2.210302">
        <ele>697.408</ele>
        <time>2017-11-28T14:00:06Z</time>
      </trkpt>
      <trkpt lat="42.118455" lon="2.210280">
        <ele>697.831</ele>
        <time>2017-11-28T14:00:10Z</time>
      </trkpt>
      <trkpt lat="42.118405" lon="2.210254">
        <ele>698.120</ele>
        <time>2017-11-28T14:00:14Z</time>
      </trkpt>
      <trkpt lat="42.118349" lon="2.210236">
        <ele>697.231</ele>
        <time>2017-11-28T14:00:18Z</time>
      </trkpt>
      <trkpt lat="42.118292" lon="2.210220">
        <ele>697.575</ele>
        <time>2017-11-28T14:00:22Z</time>
      </trkpt>
      <trkpt lat="42.118243" lon="2.210199">
        <ele>697.311</ele>
        <time>2017-11-28T14:00:26Z</time>
      </trkpt>
      <trkpt lat="42.118193" lon="2.210172">
        <ele>697.070</ele>
        <time>2017-11-28T14:00:30Z</time>
      </trkpt>
      <trkpt lat="42.118145" lon="2.210128">
        <ele>697.866</ele>
        <time>2017-11-28T14:00:34Z</time>
      </trkpt>
      <trkpt lat="42.118107" lon="2.210092">
        <ele>698.343</ele>
        <time>2017-11-28T14:00:37Z</time>
      </trkpt>
      <trkpt lat="42.118062" lon="2.210040">
        <ele>697.984</ele>
        <time>2017-11-28T14:00:41Z</time>
      </trkpt>
      <trkpt lat="42.118025" lon="2.209988">
        <ele>697.807</ele>
        <time>2017-11-28T14:00:45Z</time>
      </trkpt>
      <trkpt lat="42.117995" lon="2.209926">
        <ele>696.717</ele>
        <time>2017-11-28T14:00:49Z</time>
      </trkpt>
      <trkpt lat="42.117961" lon="2.209865">
        <ele>696.208</ele>
        <time>2017-11-28T14:00:53Z</time>
      </trkpt>
      <trkpt lat="42.117940" lon="2.209804">
        <ele>695.460</ele>
        <time>2017-11-28T14:00:57Z</time>
      </trkpt>
      <trkpt lat="42.117920" lon="2.209742">
        <ele>694.949</ele>
        <time>2017-11-28T14:01:01Z</time>
      </trkpt>
      <trkpt lat="42.117905" lon="2.209678">
        <ele>694.170</ele>
        <time>2017-11-28T14:01:05Z</time>
      </trkpt>
      <trkpt lat="42.117889" lon="2.209606">
        <ele>693.754</ele>
        <time>2017-11-28T14:01:09Z</time>
      </trkpt>
      <trkpt lat="42.117869" lon="2.209534">
        <ele>694.060</ele>
        <time>2017-11-28T14:01:13Z</time>
      </trkpt>
      <trkpt lat="42.117859" lon="2.209464">
        <ele>694.079</ele>
        <time>2017-11-28T14:01:17Z</time>
      </trkpt>
      <trkpt lat="42.117848" lon="2.209393">
        <ele>693.055</ele>
        <time>2017-11-28T14:01:22Z</time>
      </trkpt>
      <trkpt lat="42.117819" lon="2.209344">
        <ele>692.712</ele>
        <time>2017-11-28T14:01:26Z</time>
      </trkpt>
      <trkpt lat="42.117773" lon="2.209329">
        <ele>692.221</ele>
        <time>2017-11-28T14:01:30Z</time>
      </trkpt>
      <trkpt lat="42.117727" lon="2.209350">
        <ele>691.941</ele>
        <time>2017-11-28T14:01:34Z</time>
      </trkpt>
      <trkpt lat="42.117687" lon="2.209385">
        <ele>691.805</ele>
        <time>2017-11-28T14:01:37Z</time>
      </trkpt>
      <trkpt lat="42.117644" lon="2.209430">
        <ele>691.408</ele>
        <time>2017-11-28T14:01:41Z</time>
      </trkpt>
      <trkpt lat="42.117602" lon="2.209478">
        <ele>691.074</ele>
        <time>2017-11-28T14:01:45Z</time>
      </trkpt>
      <trkpt lat="42.117556" lon="2.209520">
        <ele>691.213</ele>
        <time>2017-11-28T14:01:49Z</time>
      </trkpt>
      <trkpt lat="42.117519" lon="2.209564">
        <ele>690.754</ele>
        <time>2017-11-28T14:01:52Z</time>
      </trkpt>
      <trkpt lat="42.117478" lon="2.209622">
        <ele>690.678</ele>
        <time>2017-11-28T14:01:56Z</time>
      </trkpt>
      <trkpt lat="42.117440" lon="2.209676">
        <ele>690.264</ele>
        <time>2017-11-28T14:02:00Z</time>
      </trkpt>
      <trkpt lat="42.117406" lon="2.209717">
        <ele>689.863</ele>
        <time>2017-11-28T14:02:04Z</time>
      </trkpt>
      <trkpt lat="42.117371" lon="2.209756">
        <ele>689.279</ele>
        <time>2017-11-28T14:02:08Z</time>
      </trkpt>
      <trkpt lat="42.117345" lon="2.209816">
        <ele>688.456</ele>
        <time>2017-11-28T14:02:12Z</time>
      </trkpt>
      <trkpt lat="42.117339" lon="2.209882">
        <ele>688.329</ele>
        <time>2017-11-28T14:02:16Z</time>
      </trkpt>
      <trkpt lat="42.117355" lon="2.209950">
        <ele>688.100</ele>
        <time>2017-11-28T14:02:20Z</time>
      </trkpt>
      <trkpt lat="42.117379" lon="2.210017">
        <ele>688.020</ele>
        <time>2017-11-28T14:02:24Z</time>
      </trkpt>
      <trkpt lat="42.117392" lon="2.210076">
        <ele>688.108</ele>
        <time>2017-11-28T14:02:27Z</time>
      </trkpt>
      <trkpt lat="42.117419" lon="2.210144">
        <ele>688.324</ele>
        <time>2017-11-28T14:02:31Z</time>
      </trkpt>
      <trkpt lat="42.117449" lon="2.210192">
        <ele>688.993</ele>
        <time>2017-11-28T14:02:34Z</time>
      </trkpt>
      <trkpt lat="42.117490" lon="2.210241">
        <ele>689.074</ele>
        <time>2017-11-28T14:02:38Z</time>
      </trkpt>
      <trkpt lat="42.117524" lon="2.210280">
        <ele>688.818</ele>
        <time>2017-11-28T14:02:41Z</time>
      </trkpt>
      <trkpt lat="42.117556" lon="2.210333">
        <ele>688.944</ele>
        <time>2017-11-28T14:02:45Z</time>
      </trkpt>
      <trkpt lat="42.117553" lon="2.210395">
        <ele>688.643</ele>
        <time>2017-11-28T14:02:49Z</time>
      </trkpt>
      <trkpt lat="42.117526" lon="2.210446">
        <ele>688.089</ele>
        <time>2017-11-28T14:02:52Z</time>
      </trkpt>
      <trkpt lat="42.117480" lon="2.210499">
        <ele>687.766</ele>
        <time>2017-11-28T14:02:56Z</time>
      </trkpt>
      <trkpt lat="42.117436" lon="2.210540">
        <ele>687.177</ele>
        <time>2017-11-28T14:03:00Z</time>
      </trkpt>
      <trkpt lat="42.117387" lon="2.210577">
        <ele>686.361</ele>
        <time>2017-11-28T14:03:05Z</time>
      </trkpt>
      <trkpt lat="42.117343" lon="2.210602">
        <ele>685.627</ele>
        <time>2017-11-28T14:03:09Z</time>
      </trkpt>
      <trkpt lat="42.117290" lon="2.210622">
        <ele>685.308</ele>
        <time>2017-11-28T14:03:13Z</time>
      </trkpt>
      <trkpt lat="42.117244" lon="2.210639">
        <ele>685.239</ele>
        <time>2017-11-28T14:03:17Z</time>
      </trkpt>
      <trkpt lat="42.117202" lon="2.210663">
        <ele>685.398</ele>
        <time>2017-11-28T14:03:21Z</time>
      </trkpt>
      <trkpt lat="42.117157" lon="2.210695">
        <ele>683.889</ele>
        <time>2017-11-28T14:03:25Z</time>
      </trkpt>
      <trkpt lat="42.117109" lon="2.210720">
        <ele>683.943</ele>
        <time>2017-11-28T14:03:29Z</time>
      </trkpt>
      <trkpt lat="42.117058" lon="2.210734">
        <ele>684.479</ele>
        <time>2017-11-28T14:03:33Z</time>
      </trkpt>
      <trkpt lat="42.117011" lon="2.210754">
        <ele>684.248</ele>
        <time>2017-11-28T14:03:37Z</time>
      </trkpt>
      <trkpt lat="42.116969" lon="2.210783">
        <ele>681.574</ele>
        <time>2017-11-28T14:03:41Z</time>
      </trkpt>
      <trkpt lat="42.116923" lon="2.210822">
        <ele>680.751</ele>
        <time>2017-11-28T14:03:45Z</time>
      </trkpt>
      <trkpt lat="42.116879" lon="2.210848">
        <ele>681.353</ele>
        <time>2017-11-28T14:03:49Z</time>
      </trkpt>
      <trkpt lat="42.116838" lon="2.210882">
        <ele>681.504</ele>
        <time>2017-11-28T14:03:52Z</time>
      </trkpt>
      <trkpt lat="42.116806" lon="2.210936">
        <ele>681.714</ele>
        <time>2017-11-28T14:03:56Z</time>
      </trkpt>
      <trkpt lat="42.116787" lon="2.211003">
        <ele>681.408</ele>
        <time>2017-11-28T14:04:00Z</time>
      </trkpt>
      <trkpt lat="42.116798" lon="2.211063">
        <ele>677.747</ele>
        <time>2017-11-28T14:04:04Z</time>
      </trkpt>
      <trkpt lat="42.116833" lon="2.211122">
        <ele>676.716</ele>
        <time>2017-11-28T14:04:09Z</time>
      </trkpt>
      <trkpt lat="42.116875" lon="2.211168">
        <ele>675.757</ele>
        <time>2017-11-28T14:04:13Z</time>
      </trkpt>
      <trkpt lat="42.116913" lon="2.211207">
        <ele>674.791</ele>
        <time>2017-11-28T14:04:17Z</time>
      </trkpt>
      <trkpt lat="42.116951" lon="2.211247">
        <ele>674.647</ele>
        <time>2017-11-28T14:04:21Z</time>
      </trkpt>
      <trkpt lat="42.116989" lon="2.211290">
        <ele>674.266</ele>
        <time>2017-11-28T14:04:25Z</time>
      </trkpt>
      <trkpt lat="42.117027" lon="2.211338">
        <ele>673.442</ele>
        <time>2017-11-28T14:04:29Z</time>
      </trkpt>
      <trkpt lat="42.117071" lon="2.211382">
        <ele>672.779</ele>
        <time>2017-11-28T14:04:33Z</time>
      </trkpt>
      <trkpt lat="42.117114" lon="2.211435">
        <ele>672.677</ele>
        <time>2017-11-28T14:04:37Z</time>
      </trkpt>
      <trkpt lat="42.117152" lon="2.211487">
        <ele>671.861</ele>
        <time>2017-11-28T14:04:41Z</time>
      </trkpt>
      <trkpt lat="42.117190" lon="2.211540">
        <ele>670.827</ele>
        <time>2017-11-28T14:04:45Z</time>
      </trkpt>
      <trkpt lat="42.117216" lon="2.211594">
        <ele>670.308</ele>
        <time>2017-11-28T14:04:49Z</time>
      </trkpt>
      <trkpt lat="42.117249" lon="2.211653">
        <ele>669.689</ele>
        <time>2017-11-28T14:04:53Z</time>
      </trkpt>
      <trkpt lat="42.117287" lon="2.211710">
        <ele>669.318</ele>
        <time>2017-11-28T14:04:57Z</time>
      </trkpt>
      <trkpt lat="42.117328" lon="2.211755">
        <ele>668.729</ele>
        <time>2017-11-28T14:05:01Z</time>
      </trkpt>
      <trkpt lat="42.117369" lon="2.211791">
        <ele>668.233</ele>
        <time>2017-11-28T14:05:05Z</time>
      </trkpt>
      <trkpt lat="42.117415" lon="2.211830">
        <ele>667.779</ele>
        <time>2017-11-28T14:05:10Z</time>
      </trkpt>
      <trkpt lat="42.117451" lon="2.211873">
        <ele>667.278</ele>
        <time>2017-11-28T14:05:15Z</time>
      </trkpt>
      <trkpt lat="42.117479" lon="2.211920">
        <ele>666.724</ele>
        <time>2017-11-28T14:05:21Z</time>
      </trkpt>
      <trkpt lat="42.117525" lon="2.211957">
        <ele>666.451</ele>
        <time>2017-11-28T14:05:25Z</time>
      </trkpt>
      <trkpt lat="42.117563" lon="2.212000">
        <ele>666.133</ele>
        <time>2017-11-28T14:05:28Z</time>
      </trkpt>
      <trkpt lat="42.117608" lon="2.212044">
        <ele>666.023</ele>
        <time>2017-11-28T14:05:32Z</time>
      </trkpt>
      <trkpt lat="42.117648" lon="2.212090">
        <ele>665.515</ele>
        <time>2017-11-28T14:05:36Z</time>
      </trkpt>
      <trkpt lat="42.117690" lon="2.212133">
        <ele>664.608</ele>
        <time>2017-11-28T14:05:40Z</time>
      </trkpt>
      <trkpt lat="42.117729" lon="2.212188">
        <ele>664.395</ele>
        <time>2017-11-28T14:05:44Z</time>
      </trkpt>
      <trkpt lat="42.117768" lon="2.212244">
        <ele>664.614</ele>
        <time>2017-11-28T14:05:48Z</time>
      </trkpt>
      <trkpt lat="42.117800" lon="2.212304">
        <ele>664.495</ele>
        <time>2017-11-28T14:05:52Z</time>
      </trkpt>
      <trkpt lat="42.117832" lon="2.212347">
        <ele>663.529</ele>
        <time>2017-11-28T14:05:56Z</time>
      </trkpt>
      <trkpt lat="42.117871" lon="2.212393">
        <ele>662.535</ele>
        <time>2017-11-28T14:06:00Z</time>
      </trkpt>
      <trkpt lat="42.117909" lon="2.212438">
        <ele>662.374</ele>
        <time>2017-11-28T14:06:04Z</time>
      </trkpt>
      <trkpt lat="42.117951" lon="2.212495">
        <ele>661.920</ele>
        <time>2017-11-28T14:06:08Z</time>
      </trkpt>
      <trkpt lat="42.117988" lon="2.212555">
        <ele>661.357</ele>
        <time>2017-11-28T14:06:12Z</time>
      </trkpt>
      <trkpt lat="42.118025" lon="2.212607">
        <ele>660.226</ele>
        <time>2017-11-28T14:06:16Z</time>
      </trkpt>
      <trkpt lat="42.118062" lon="2.212657">
        <ele>659.847</ele>
        <time>2017-11-28T14:06:20Z</time>
      </trkpt>
      <trkpt lat="42.118093" lon="2.212721">
        <ele>659.711</ele>
        <time>2017-11-28T14:06:25Z</time>
      </trkpt>
      <trkpt lat="42.118131" lon="2.212763">
        <ele>659.008</ele>
        <time>2017-11-28T14:06:29Z</time>
      </trkpt>
      <trkpt lat="42.118173" lon="2.212811">
        <ele>658.524</ele>
        <time>2017-11-28T14:06:33Z</time>
      </trkpt>
      <trkpt lat="42.118212" lon="2.212872">
        <ele>658.143</ele>
        <time>2017-11-28T14:06:37Z</time>
      </trkpt>
      <trkpt lat="42.118248" lon="2.212928">
        <ele>657.034</ele>
        <time>2017-11-28T14:06:41Z</time>
      </trkpt>
      <trkpt lat="42.118288" lon="2.212987">
        <ele>655.948</ele>
        <time>2017-11-28T14:06:45Z</time>
      </trkpt>
      <trkpt lat="42.118324" lon="2.213037">
        <ele>655.294</ele>
        <time>2017-11-28T14:06:49Z</time>
      </trkpt>
      <trkpt lat="42.118372" lon="2.213081">
        <ele>654.953</ele>
        <time>2017-11-28T14:06:53Z</time>
      </trkpt>
      <trkpt lat="42.118406" lon="2.213142">
        <ele>654.219</ele>
        <time>2017-11-28T14:06:57Z</time>
      </trkpt>
      <trkpt lat="42.118441" lon="2.213180">
        <ele>654.036</ele>
        <time>2017-11-28T14:07:00Z</time>
      </trkpt>
      <trkpt lat="42.118486" lon="2.213226">
        <ele>653.841</ele>
        <time>2017-11-28T14:07:04Z</time>
      </trkpt>
      <trkpt lat="42.118522" lon="2.213267">
        <ele>653.281</ele>
        <time>2017-11-28T14:07:08Z</time>
      </trkpt>
      <trkpt lat="42.118568" lon="2.213313">
        <ele>652.609</ele>
        <time>2017-11-28T14:07:12Z</time>
      </trkpt>
      <trkpt lat="42.118603" lon="2.213361">
        <ele>652.408</ele>
        <time>2017-11-28T14:07:16Z</time>
      </trkpt>
      <trkpt lat="42.118640" lon="2.213402">
        <ele>652.286</ele>
        <time>2017-11-28T14:07:19Z</time>
      </trkpt>
      <trkpt lat="42.118682" lon="2.213447">
        <ele>651.935</ele>
        <time>2017-11-28T14:07:23Z</time>
      </trkpt>
      <trkpt lat="42.118713" lon="2.213510">
        <ele>651.756</ele>
        <time>2017-11-28T14:07:28Z</time>
      </trkpt>
      <trkpt lat="42.118734" lon="2.213575">
        <ele>651.110</ele>
        <time>2017-11-28T14:07:32Z</time>
      </trkpt>
      <trkpt lat="42.118755" lon="2.213635">
        <ele>650.526</ele>
        <time>2017-11-28T14:07:36Z</time>
      </trkpt>
      <trkpt lat="42.118778" lon="2.213687">
        <ele>650.285</ele>
        <time>2017-11-28T14:07:40Z</time>
      </trkpt>
      <trkpt lat="42.118809" lon="2.213736">
        <ele>650.111</ele>
        <time>2017-11-28T14:07:44Z</time>
      </trkpt>
      <trkpt lat="42.118839" lon="2.213802">
        <ele>649.628</ele>
        <time>2017-11-28T14:07:48Z</time>
      </trkpt>
      <trkpt lat="42.118856" lon="2.213871">
        <ele>648.992</ele>
        <time>2017-11-28T14:07:52Z</time>
      </trkpt>
      <trkpt lat="42.118875" lon="2.213933">
        <ele>648.973</ele>
        <time>2017-11-28T14:07:55Z</time>
      </trkpt>
      <trkpt lat="42.118890" lon="2.213995">
        <ele>647.920</ele>
        <time>2017-11-28T14:07:58Z</time>
      </trkpt>
      <trkpt lat="42.118906" lon="2.214066">
        <ele>647.708</ele>
        <time>2017-11-28T14:08:02Z</time>
      </trkpt>
      <trkpt lat="42.118928" lon="2.214125">
        <ele>647.731</ele>
        <time>2017-11-28T14:08:06Z</time>
      </trkpt>
      <trkpt lat="42.118937" lon="2.214196">
        <ele>646.740</ele>
        <time>2017-11-28T14:08:10Z</time>
      </trkpt>
      <trkpt lat="42.118961" lon="2.214270">
        <ele>644.351</ele>
        <time>2017-11-28T14:08:14Z</time>
      </trkpt>
      <trkpt lat="42.118982" lon="2.214345">
        <ele>642.585</ele>
        <time>2017-11-28T14:08:18Z</time>
      </trkpt>
      <trkpt lat="42.119004" lon="2.214409">
        <ele>641.641</ele>
        <time>2017-11-28T14:08:22Z</time>
      </trkpt>
      <trkpt lat="42.119038" lon="2.214469">
        <ele>640.330</ele>
        <time>2017-11-28T14:08:26Z</time>
      </trkpt>
      <trkpt lat="42.119067" lon="2.214530">
        <ele>639.756</ele>
        <time>2017-11-28T14:08:30Z</time>
      </trkpt>
      <trkpt lat="42.119102" lon="2.214583">
        <ele>639.773</ele>
        <time>2017-11-28T14:08:34Z</time>
      </trkpt>
      <trkpt lat="42.119136" lon="2.214638">
        <ele>638.746</ele>
        <time>2017-11-28T14:08:38Z</time>
      </trkpt>
      <trkpt lat="42.119171" lon="2.214690">
        <ele>638.088</ele>
        <time>2017-11-28T14:08:42Z</time>
      </trkpt>
      <trkpt lat="42.119206" lon="2.214746">
        <ele>637.316</ele>
        <time>2017-11-28T14:08:46Z</time>
      </trkpt>
      <trkpt lat="42.119242" lon="2.214802">
        <ele>637.008</ele>
        <time>2017-11-28T14:08:50Z</time>
      </trkpt>
      <trkpt lat="42.119273" lon="2.214853">
        <ele>637.146</ele>
        <time>2017-11-28T14:08:54Z</time>
      </trkpt>
      <trkpt lat="42.119299" lon="2.214904">
        <ele>636.545</ele>
        <time>2017-11-28T14:08:58Z</time>
      </trkpt>
      <trkpt lat="42.119320" lon="2.214967">
        <ele>637.026</ele>
        <time>2017-11-28T14:09:02Z</time>
      </trkpt>
      <trkpt lat="42.119340" lon="2.215022">
        <ele>636.660</ele>
        <time>2017-11-28T14:09:06Z</time>
      </trkpt>
      <trkpt lat="42.119363" lon="2.215086">
        <ele>637.186</ele>
        <time>2017-11-28T14:09:09Z</time>
      </trkpt>
      <trkpt lat="42.119381" lon="2.215147">
        <ele>636.775</ele>
        <time>2017-11-28T14:09:12Z</time>
      </trkpt>
      <trkpt lat="42.119391" lon="2.215207">
        <ele>636.091</ele>
        <time>2017-11-28T14:09:15Z</time>
      </trkpt>
      <trkpt lat="42.119409" lon="2.215268">
        <ele>635.488</ele>
        <time>2017-11-28T14:09:18Z</time>
      </trkpt>
      <trkpt lat="42.119438" lon="2.215317">
        <ele>635.481</ele>
        <time>2017-11-28T14:09:21Z</time>
      </trkpt>
      <trkpt lat="42.119468" lon="2.215368">
        <ele>635.261</ele>
        <time>2017-11-28T14:09:25Z</time>
      </trkpt>
      <trkpt lat="42.119497" lon="2.215423">
        <ele>634.917</ele>
        <time>2017-11-28T14:09:29Z</time>
      </trkpt>
      <trkpt lat="42.119532" lon="2.215476">
        <ele>635.508</ele>
        <time>2017-11-28T14:09:33Z</time>
      </trkpt>
      <trkpt lat="42.119564" lon="2.215532">
        <ele>635.310</ele>
        <time>2017-11-28T14:09:37Z</time>
      </trkpt>
      <trkpt lat="42.119586" lon="2.215599">
        <ele>635.719</ele>
        <time>2017-11-28T14:09:41Z</time>
      </trkpt>
      <trkpt lat="42.119611" lon="2.215658">
        <ele>635.450</ele>
        <time>2017-11-28T14:09:45Z</time>
      </trkpt>
      <trkpt lat="42.119639" lon="2.215720">
        <ele>635.114</ele>
        <time>2017-11-28T14:09:49Z</time>
      </trkpt>
      <trkpt lat="42.119662" lon="2.215781">
        <ele>635.540</ele>
        <time>2017-11-28T14:09:53Z</time>
      </trkpt>
      <trkpt lat="42.119687" lon="2.215843">
        <ele>634.459</ele>
        <time>2017-11-28T14:09:57Z</time>
      </trkpt>
      <trkpt lat="42.119723" lon="2.215906">
        <ele>634.295</ele>
        <time>2017-11-28T14:10:01Z</time>
      </trkpt>
      <trkpt lat="42.119753" lon="2.215959">
        <ele>634.352</ele>
        <time>2017-11-28T14:10:04Z</time>
      </trkpt>
      <trkpt lat="42.119803" lon="2.215992">
        <ele>634.085</ele>
        <time>2017-11-28T14:10:08Z</time>
      </trkpt>
      <trkpt lat="42.119848" lon="2.216011">
        <ele>634.389</ele>
        <time>2017-11-28T14:10:12Z</time>
      </trkpt>
      <trkpt lat="42.119896" lon="2.216017">
        <ele>634.017</ele>
        <time>2017-11-28T14:10:17Z</time>
      </trkpt>
      <trkpt lat="42.119948" lon="2.216035">
        <ele>633.208</ele>
        <time>2017-11-28T14:10:22Z</time>
      </trkpt>
      <trkpt lat="42.119990" lon="2.216077">
        <ele>633.450</ele>
        <time>2017-11-28T14:10:26Z</time>
      </trkpt>
      <trkpt lat="42.120033" lon="2.216122">
        <ele>634.289</ele>
        <time>2017-11-28T14:10:30Z</time>
      </trkpt>
      <trkpt lat="42.120071" lon="2.216172">
        <ele>634.020</ele>
        <time>2017-11-28T14:10:34Z</time>
      </trkpt>
      <trkpt lat="42.120107" lon="2.216227">
        <ele>633.894</ele>
        <time>2017-11-28T14:10:38Z</time>
      </trkpt>
      <trkpt lat="42.120146" lon="2.216277">
        <ele>634.310</ele>
        <time>2017-11-28T14:10:42Z</time>
      </trkpt>
      <trkpt lat="42.120191" lon="2.216321">
        <ele>634.299</ele>
        <time>2017-11-28T14:10:47Z</time>
      </trkpt>
      <trkpt lat="42.120229" lon="2.216372">
        <ele>634.675</ele>
        <time>2017-11-28T14:10:51Z</time>
      </trkpt>
      <trkpt lat="42.120270" lon="2.216406">
        <ele>635.042</ele>
        <time>2017-11-28T14:10:55Z</time>
      </trkpt>
      <trkpt lat="42.120310" lon="2.216452">
        <ele>634.438</ele>
        <time>2017-11-28T14:10:59Z</time>
      </trkpt>
      <trkpt lat="42.120348" lon="2.216507">
        <ele>634.670</ele>
        <time>2017-11-28T14:11:03Z</time>
      </trkpt>
      <trkpt lat="42.120383" lon="2.216547">
        <ele>634.517</ele>
        <time>2017-11-28T14:11:06Z</time>
      </trkpt>
      <trkpt lat="42.120419" lon="2.216591">
        <ele>634.608</ele>
        <time>2017-11-28T14:11:09Z</time>
      </trkpt>
      <trkpt lat="42.120456" lon="2.216625">
        <ele>634.885</ele>
        <time>2017-11-28T14:11:12Z</time>
      </trkpt>
      <trkpt lat="42.120498" lon="2.216671">
        <ele>634.774</ele>
        <time>2017-11-28T14:11:16Z</time>
      </trkpt>
      <trkpt lat="42.120532" lon="2.216712">
        <ele>634.975</ele>
        <time>2017-11-28T14:11:20Z</time>
      </trkpt>
      <trkpt lat="42.120569" lon="2.216759">
        <ele>635.379</ele>
        <time>2017-11-28T14:11:24Z</time>
      </trkpt>
      <trkpt lat="42.120604" lon="2.216807">
        <ele>635.665</ele>
        <time>2017-11-28T14:11:28Z</time>
      </trkpt>
      <trkpt lat="42.120630" lon="2.216872">
        <ele>636.054</ele>
        <time>2017-11-28T14:11:32Z</time>
      </trkpt>
      <trkpt lat="42.120623" lon="2.216935">
        <ele>635.910</ele>
        <time>2017-11-28T14:11:35Z</time>
      </trkpt>
      <trkpt lat="42.120662" lon="2.216976">
        <ele>635.527</ele>
        <time>2017-11-28T14:11:47Z</time>
      </trkpt>
      <trkpt lat="42.120706" lon="2.217007">
        <ele>635.255</ele>
        <time>2017-11-28T14:11:51Z</time>
      </trkpt>
      <trkpt lat="42.120750" lon="2.217043">
        <ele>634.807</ele>
        <time>2017-11-28T14:11:55Z</time>
      </trkpt>
      <trkpt lat="42.120791" lon="2.217082">
        <ele>635.217</ele>
        <time>2017-11-28T14:11:59Z</time>
      </trkpt>
      <trkpt lat="42.120819" lon="2.217143">
        <ele>634.908</ele>
        <time>2017-11-28T14:12:07Z</time>
      </trkpt>
      <trkpt lat="42.120835" lon="2.217205">
        <ele>634.497</ele>
        <time>2017-11-28T14:12:12Z</time>
      </trkpt>
      <trkpt lat="42.120856" lon="2.217266">
        <ele>634.246</ele>
        <time>2017-11-28T14:12:16Z</time>
      </trkpt>
      <trkpt lat="42.120900" lon="2.217300">
        <ele>634.197</ele>
        <time>2017-11-28T14:12:20Z</time>
      </trkpt>
      <trkpt lat="42.120940" lon="2.217346">
        <ele>634.051</ele>
        <time>2017-11-28T14:12:24Z</time>
      </trkpt>
      <trkpt lat="42.120975" lon="2.217393">
        <ele>634.387</ele>
        <time>2017-11-28T14:12:28Z</time>
      </trkpt>
      <trkpt lat="42.121021" lon="2.217389">
        <ele>635.316</ele>
        <time>2017-11-28T14:12:51Z</time>
      </trkpt>
      <trkpt lat="42.121068" lon="2.217422">
        <ele>635.322</ele>
        <time>2017-11-28T14:12:57Z</time>
      </trkpt>
      <trkpt lat="42.121114" lon="2.217464">
        <ele>635.959</ele>
        <time>2017-11-28T14:13:02Z</time>
      </trkpt>
      <trkpt lat="42.121157" lon="2.217493">
        <ele>635.086</ele>
        <time>2017-11-28T14:13:11Z</time>
      </trkpt>
      <trkpt lat="42.121192" lon="2.217533">
        <ele>634.160</ele>
        <time>2017-11-28T14:13:16Z</time>
      </trkpt>
      <trkpt lat="42.121233" lon="2.217570">
        <ele>634.226</ele>
        <time>2017-11-28T14:13:24Z</time>
      </trkpt>
      <trkpt lat="42.121276" lon="2.217610">
        <ele>634.108</ele>
        <time>2017-11-28T14:13:29Z</time>
      </trkpt>
      <trkpt lat="42.121312" lon="2.217652">
        <ele>633.830</ele>
        <time>2017-11-28T14:13:33Z</time>
      </trkpt>
      <trkpt lat="42.121354" lon="2.217693">
        <ele>633.799</ele>
        <time>2017-11-28T14:13:38Z</time>
      </trkpt>
      <trkpt lat="42.121374" lon="2.217749">
        <ele>634.510</ele>
        <time>2017-11-28T14:13:42Z</time>
      </trkpt>
      <trkpt lat="42.121398" lon="2.217819">
        <ele>634.224</ele>
        <time>2017-11-28T14:13:47Z</time>
      </trkpt>
      <trkpt lat="42.121422" lon="2.217872">
        <ele>633.640</ele>
        <time>2017-11-28T14:13:51Z</time>
      </trkpt>
      <trkpt lat="42.121449" lon="2.217939">
        <ele>632.979</ele>
        <time>2017-11-28T14:13:55Z</time>
      </trkpt>
      <trkpt lat="42.121478" lon="2.218003">
        <ele>632.535</ele>
        <time>2017-11-28T14:13:59Z</time>
      </trkpt>
      <trkpt lat="42.121505" lon="2.218069">
        <ele>632.452</ele>
        <time>2017-11-28T14:14:03Z</time>
      </trkpt>
      <trkpt lat="42.121529" lon="2.218121">
        <ele>633.422</ele>
        <time>2017-11-28T14:14:07Z</time>
      </trkpt>
      <trkpt lat="42.121555" lon="2.218184">
        <ele>634.662</ele>
        <time>2017-11-28T14:14:12Z</time>
      </trkpt>
      <trkpt lat="42.121556" lon="2.218252">
        <ele>634.808</ele>
        <time>2017-11-28T14:14:16Z</time>
      </trkpt>
      <trkpt lat="42.121549" lon="2.218317">
        <ele>634.508</ele>
        <time>2017-11-28T14:14:20Z</time>
      </trkpt>
      <trkpt lat="42.121545" lon="2.218384">
        <ele>633.564</ele>
        <time>2017-11-28T14:14:24Z</time>
      </trkpt>
      <trkpt lat="42.121541" lon="2.218449">
        <ele>632.943</ele>
        <time>2017-11-28T14:14:28Z</time>
      </trkpt>
      <trkpt lat="42.121541" lon="2.218523">
        <ele>632.774</ele>
        <time>2017-11-28T14:14:32Z</time>
      </trkpt>
      <trkpt lat="42.121537" lon="2.218600">
        <ele>632.548</ele>
        <time>2017-11-28T14:14:36Z</time>
      </trkpt>
      <trkpt lat="42.121533" lon="2.218663">
        <ele>632.354</ele>
        <time>2017-11-28T14:14:39Z</time>
      </trkpt>
      <trkpt lat="42.121529" lon="2.218734">
        <ele>632.013</ele>
        <time>2017-11-28T14:14:43Z</time>
      </trkpt>
      <trkpt lat="42.121527" lon="2.218805">
        <ele>631.519</ele>
        <time>2017-11-28T14:14:47Z</time>
      </trkpt>
      <trkpt lat="42.121518" lon="2.218877">
        <ele>631.316</ele>
        <time>2017-11-28T14:14:51Z</time>
      </trkpt>
      <trkpt lat="42.121509" lon="2.218943">
        <ele>631.111</ele>
        <time>2017-11-28T14:14:55Z</time>
      </trkpt>
      <trkpt lat="42.121493" lon="2.219002">
        <ele>631.221</ele>
        <time>2017-11-28T14:14:59Z</time>
      </trkpt>
      <trkpt lat="42.121476" lon="2.219067">
        <ele>630.903</ele>
        <time>2017-11-28T14:15:03Z</time>
      </trkpt>
      <trkpt lat="42.121463" lon="2.219134">
        <ele>630.808</ele>
        <time>2017-11-28T14:15:07Z</time>
      </trkpt>
      <trkpt lat="42.121466" lon="2.219202">
        <ele>631.253</ele>
        <time>2017-11-28T14:15:12Z</time>
      </trkpt>
      <trkpt lat="42.121478" lon="2.219263">
        <ele>631.372</ele>
        <time>2017-11-28T14:15:16Z</time>
      </trkpt>
      <trkpt lat="42.121472" lon="2.219332">
        <ele>630.283</ele>
        <time>2017-11-28T14:15:21Z</time>
      </trkpt>
      <trkpt lat="42.121429" lon="2.219378">
        <ele>630.447</ele>
        <time>2017-11-28T14:15:26Z</time>
      </trkpt>
      <trkpt lat="42.121379" lon="2.219357">
        <ele>629.243</ele>
        <time>2017-11-28T14:15:32Z</time>
      </trkpt>
      <trkpt lat="42.121343" lon="2.219317">
        <ele>628.432</ele>
        <time>2017-11-28T14:15:35Z</time>
      </trkpt>
      <trkpt lat="42.121301" lon="2.219271">
        <ele>628.318</ele>
        <time>2017-11-28T14:15:39Z</time>
      </trkpt>
      <trkpt lat="42.121270" lon="2.219226">
        <ele>628.325</ele>
        <time>2017-11-28T14:15:42Z</time>
      </trkpt>
      <trkpt lat="42.121228" lon="2.219178">
        <ele>627.713</ele>
        <time>2017-11-28T14:15:46Z</time>
      </trkpt>
      <trkpt lat="42.121189" lon="2.219141">
        <ele>627.443</ele>
        <time>2017-11-28T14:15:49Z</time>
      </trkpt>
      <trkpt lat="42.121142" lon="2.219097">
        <ele>627.607</ele>
        <time>2017-11-28T14:15:53Z</time>
      </trkpt>
      <trkpt lat="42.121096" lon="2.219061">
        <ele>627.208</ele>
        <time>2017-11-28T14:15:57Z</time>
      </trkpt>
      <trkpt lat="42.121048" lon="2.219034">
        <ele>627.223</ele>
        <time>2017-11-28T14:16:02Z</time>
      </trkpt>
      <trkpt lat="42.120998" lon="2.219005">
        <ele>627.592</ele>
        <time>2017-11-28T14:16:07Z</time>
      </trkpt>
      <trkpt lat="42.120948" lon="2.218961">
        <ele>628.873</ele>
        <time>2017-11-28T14:16:11Z</time>
      </trkpt>
      <trkpt lat="42.120909" lon="2.218927">
        <ele>628.377</ele>
        <time>2017-11-28T14:16:15Z</time>
      </trkpt>
      <trkpt lat="42.120869" lon="2.218888">
        <ele>627.893</ele>
        <time>2017-11-28T14:16:19Z</time>
      </trkpt>
      <trkpt lat="42.120823" lon="2.218847">
        <ele>628.882</ele>
        <time>2017-11-28T14:16:24Z</time>
      </trkpt>
      <trkpt lat="42.120784" lon="2.218813">
        <ele>628.658</ele>
        <time>2017-11-28T14:16:27Z</time>
      </trkpt>
      <trkpt lat="42.120740" lon="2.218781">
        <ele>628.765</ele>
        <time>2017-11-28T14:16:30Z</time>
      </trkpt>
      <trkpt lat="42.120696" lon="2.218747">
        <ele>629.354</ele>
        <time>2017-11-28T14:16:34Z</time>
      </trkpt>
      <trkpt lat="42.120655" lon="2.218712">
        <ele>630.256</ele>
        <time>2017-11-28T14:16:38Z</time>
      </trkpt>
      <trkpt lat="42.120606" lon="2.218699">
        <ele>630.711</ele>
        <time>2017-11-28T14:16:43Z</time>
      </trkpt>
      <trkpt lat="42.120639" lon="2.218745">
        <ele>631.108</ele>
        <time>2017-11-28T14:16:56Z</time>
      </trkpt>
      <trkpt lat="42.120613" lon="2.218694">
        <ele>631.247</ele>
        <time>2017-11-28T14:17:29Z</time>
      </trkpt>
      <trkpt lat="42.120560" lon="2.218670">
        <ele>632.156</ele>
        <time>2017-11-28T14:17:47Z</time>
      </trkpt>
      <trkpt lat="42.120520" lon="2.218639">
        <ele>632.017</ele>
        <time>2017-11-28T14:17:55Z</time>
      </trkpt>
      <trkpt lat="42.120484" lon="2.218599">
        <ele>632.391</ele>
        <time>2017-11-28T14:18:00Z</time>
      </trkpt>
      <trkpt lat="42.120434" lon="2.218574">
        <ele>632.477</ele>
        <time>2017-11-28T14:18:05Z</time>
      </trkpt>
      <trkpt lat="42.120397" lon="2.218534">
        <ele>632.276</ele>
        <time>2017-11-28T14:18:09Z</time>
      </trkpt>
      <trkpt lat="42.120360" lon="2.218481">
        <ele>632.542</ele>
        <time>2017-11-28T14:18:14Z</time>
      </trkpt>
      <trkpt lat="42.120336" lon="2.218426">
        <ele>632.769</ele>
        <time>2017-11-28T14:18:18Z</time>
      </trkpt>
      <trkpt lat="42.120307" lon="2.218358">
        <ele>631.828</ele>
        <time>2017-11-28T14:18:22Z</time>
      </trkpt>
      <trkpt lat="42.120279" lon="2.218303">
        <ele>632.389</ele>
        <time>2017-11-28T14:18:26Z</time>
      </trkpt>
      <trkpt lat="42.120246" lon="2.218253">
        <ele>632.317</ele>
        <time>2017-11-28T14:18:30Z</time>
      </trkpt>
      <trkpt lat="42.120205" lon="2.218210">
        <ele>631.908</ele>
        <time>2017-11-28T14:18:34Z</time>
      </trkpt>
      <trkpt lat="42.120163" lon="2.218170">
        <ele>632.344</ele>
        <time>2017-11-28T14:18:38Z</time>
      </trkpt>
      <trkpt lat="42.120128" lon="2.218130">
        <ele>632.233</ele>
        <time>2017-11-28T14:18:42Z</time>
      </trkpt>
      <trkpt lat="42.120083" lon="2.218100">
        <ele>631.974</ele>
        <time>2017-11-28T14:18:46Z</time>
      </trkpt>
      <trkpt lat="42.120038" lon="2.218067">
        <ele>631.948</ele>
        <time>2017-11-28T14:18:50Z</time>
      </trkpt>
      <trkpt lat="42.119990" lon="2.218060">
        <ele>631.694</ele>
        <time>2017-11-28T14:18:54Z</time>
      </trkpt>
      <trkpt lat="42.119940" lon="2.218035">
        <ele>631.443</ele>
        <time>2017-11-28T14:18:59Z</time>
      </trkpt>
      <trkpt lat="42.119892" lon="2.217998">
        <ele>631.379</ele>
        <time>2017-11-28T14:19:03Z</time>
      </trkpt>
      <trkpt lat="42.119838" lon="2.217968">
        <ele>630.916</ele>
        <time>2017-11-28T14:19:07Z</time>
      </trkpt>
      <trkpt lat="42.119780" lon="2.217947">
        <ele>630.955</ele>
        <time>2017-11-28T14:19:11Z</time>
      </trkpt>
      <trkpt lat="42.119724" lon="2.217933">
        <ele>631.307</ele>
        <time>2017-11-28T14:19:15Z</time>
      </trkpt>
      <trkpt lat="42.119673" lon="2.217936">
        <ele>631.017</ele>
        <time>2017-11-28T14:19:19Z</time>
      </trkpt>
      <trkpt lat="42.119621" lon="2.217938">
        <ele>631.208</ele>
        <time>2017-11-28T14:19:23Z</time>
      </trkpt>
      <trkpt lat="42.119573" lon="2.217934">
        <ele>631.597</ele>
        <time>2017-11-28T14:19:27Z</time>
      </trkpt>
      <trkpt lat="42.119512" lon="2.217917">
        <ele>631.236</ele>
        <time>2017-11-28T14:19:32Z</time>
      </trkpt>
      <trkpt lat="42.119464" lon="2.217921">
        <ele>631.417</ele>
        <time>2017-11-28T14:19:34Z</time>
      </trkpt>
      <trkpt lat="42.119414" lon="2.217922">
        <ele>631.591</ele>
        <time>2017-11-28T14:19:38Z</time>
      </trkpt>
      <trkpt lat="42.119366" lon="2.217920">
        <ele>632.077</ele>
        <time>2017-11-28T14:19:42Z</time>
      </trkpt>
      <trkpt lat="42.119318" lon="2.217924">
        <ele>632.596</ele>
        <time>2017-11-28T14:19:46Z</time>
      </trkpt>
      <trkpt lat="42.119270" lon="2.217926">
        <ele>632.522</ele>
        <time>2017-11-28T14:19:50Z</time>
      </trkpt>
      <trkpt lat="42.119220" lon="2.217907">
        <ele>632.929</ele>
        <time>2017-11-28T14:19:54Z</time>
      </trkpt>
      <trkpt lat="42.119176" lon="2.217880">
        <ele>632.941</ele>
        <time>2017-11-28T14:19:58Z</time>
      </trkpt>
      <trkpt lat="42.119128" lon="2.217839">
        <ele>632.681</ele>
        <time>2017-11-28T14:20:03Z</time>
      </trkpt>
      <trkpt lat="42.119079" lon="2.217818">
        <ele>633.009</ele>
        <time>2017-11-28T14:20:08Z</time>
      </trkpt>
      <trkpt lat="42.119032" lon="2.217789">
        <ele>632.908</ele>
        <time>2017-11-28T14:20:12Z</time>
      </trkpt>
      <trkpt lat="42.118985" lon="2.217738">
        <ele>633.066</ele>
        <time>2017-11-28T14:20:16Z</time>
      </trkpt>
      <trkpt lat="42.118943" lon="2.217683">
        <ele>632.935</ele>
        <time>2017-11-28T14:20:20Z</time>
      </trkpt>
      <trkpt lat="42.118903" lon="2.217648">
        <ele>633.646</ele>
        <time>2017-11-28T14:20:23Z</time>
      </trkpt>
      <trkpt lat="42.118865" lon="2.217615">
        <ele>633.810</ele>
        <time>2017-11-28T14:20:26Z</time>
      </trkpt>
      <trkpt lat="42.118826" lon="2.217569">
        <ele>634.346</ele>
        <time>2017-11-28T14:20:30Z</time>
      </trkpt>
      <trkpt lat="42.118793" lon="2.217524">
        <ele>633.885</ele>
        <time>2017-11-28T14:20:34Z</time>
      </trkpt>
      <trkpt lat="42.118753" lon="2.217478">
        <ele>633.281</ele>
        <time>2017-11-28T14:20:39Z</time>
      </trkpt>
      <trkpt lat="42.118719" lon="2.217428">
        <ele>633.778</ele>
        <time>2017-11-28T14:20:43Z</time>
      </trkpt>
      <trkpt lat="42.118687" lon="2.217367">
        <ele>634.226</ele>
        <time>2017-11-28T14:20:47Z</time>
      </trkpt>
      <trkpt lat="42.118647" lon="2.217308">
        <ele>634.547</ele>
        <time>2017-11-28T14:20:51Z</time>
      </trkpt>
      <trkpt lat="42.118605" lon="2.217256">
        <ele>635.011</ele>
        <time>2017-11-28T14:20:55Z</time>
      </trkpt>
      <trkpt lat="42.118574" lon="2.217196">
        <ele>635.308</ele>
        <time>2017-11-28T14:20:59Z</time>
      </trkpt>
      <trkpt lat="42.118543" lon="2.217134">
        <ele>635.414</ele>
        <time>2017-11-28T14:21:03Z</time>
      </trkpt>
      <trkpt lat="42.118518" lon="2.217081">
        <ele>634.643</ele>
        <time>2017-11-28T14:21:07Z</time>
      </trkpt>
      <trkpt lat="42.118495" lon="2.217026">
        <ele>634.054</ele>
        <time>2017-11-28T14:21:10Z</time>
      </trkpt>
      <trkpt lat="42.118462" lon="2.216973">
        <ele>634.588</ele>
        <time>2017-11-28T14:21:14Z</time>
      </trkpt>
      <trkpt lat="42.118419" lon="2.216927">
        <ele>633.234</ele>
        <time>2017-11-28T14:21:18Z</time>
      </trkpt>
      <trkpt lat="42.118380" lon="2.216891">
        <ele>632.763</ele>
        <time>2017-11-28T14:21:23Z</time>
      </trkpt>
      <trkpt lat="42.118325" lon="2.216872">
        <ele>633.019</ele>
        <time>2017-11-28T14:21:28Z</time>
      </trkpt>
      <trkpt lat="42.118282" lon="2.216849">
        <ele>633.036</ele>
        <time>2017-11-28T14:21:31Z</time>
      </trkpt>
      <trkpt lat="42.118230" lon="2.216840">
        <ele>632.398</ele>
        <time>2017-11-28T14:21:36Z</time>
      </trkpt>
      <trkpt lat="42.118182" lon="2.216821">
        <ele>632.415</ele>
        <time>2017-11-28T14:21:40Z</time>
      </trkpt>
      <trkpt lat="42.118128" lon="2.216814">
        <ele>633.226</ele>
        <time>2017-11-28T14:21:45Z</time>
      </trkpt>
      <trkpt lat="42.118076" lon="2.216807">
        <ele>633.308</ele>
        <time>2017-11-28T14:21:50Z</time>
      </trkpt>
      <trkpt lat="42.118023" lon="2.216780">
        <ele>633.321</ele>
        <time>2017-11-28T14:21:54Z</time>
      </trkpt>
      <trkpt lat="42.117974" lon="2.216754">
        <ele>632.850</ele>
        <time>2017-11-28T14:21:58Z</time>
      </trkpt>
      <trkpt lat="42.117923" lon="2.216739">
        <ele>632.861</ele>
        <time>2017-11-28T14:22:03Z</time>
      </trkpt>
      <trkpt lat="42.117872" lon="2.216741">
        <ele>633.335</ele>
        <time>2017-11-28T14:22:07Z</time>
      </trkpt>
      <trkpt lat="42.117828" lon="2.216771">
        <ele>632.911</ele>
        <time>2017-11-28T14:22:11Z</time>
      </trkpt>
      <trkpt lat="42.117783" lon="2.216808">
        <ele>632.790</ele>
        <time>2017-11-28T14:22:15Z</time>
      </trkpt>
      <trkpt lat="42.117745" lon="2.216852">
        <ele>633.496</ele>
        <time>2017-11-28T14:22:19Z</time>
      </trkpt>
      <trkpt lat="42.117702" lon="2.216873">
        <ele>633.563</ele>
        <time>2017-11-28T14:22:22Z</time>
      </trkpt>
      <trkpt lat="42.117654" lon="2.216892">
        <ele>634.162</ele>
        <time>2017-11-28T14:22:25Z</time>
      </trkpt>
      <trkpt lat="42.117609" lon="2.216898">
        <ele>634.483</ele>
        <time>2017-11-28T14:22:28Z</time>
      </trkpt>
      <trkpt lat="42.117559" lon="2.216900">
        <ele>633.811</ele>
        <time>2017-11-28T14:22:32Z</time>
      </trkpt>
      <trkpt lat="42.117496" lon="2.216895">
        <ele>634.308</ele>
        <time>2017-11-28T14:22:36Z</time>
      </trkpt>
      <trkpt lat="42.117447" lon="2.216891">
        <ele>633.858</ele>
        <time>2017-11-28T14:22:40Z</time>
      </trkpt>
      <trkpt lat="42.117392" lon="2.216861">
        <ele>634.527</ele>
        <time>2017-11-28T14:22:44Z</time>
      </trkpt>
      <trkpt lat="42.117357" lon="2.216791">
        <ele>634.848</ele>
        <time>2017-11-28T14:22:48Z</time>
      </trkpt>
      <trkpt lat="42.117341" lon="2.216730">
        <ele>634.132</ele>
        <time>2017-11-28T14:22:51Z</time>
      </trkpt>
      <trkpt lat="42.117325" lon="2.216667">
        <ele>633.368</ele>
        <time>2017-11-28T14:22:54Z</time>
      </trkpt>
      <trkpt lat="42.117313" lon="2.216604">
        <ele>632.867</ele>
        <time>2017-11-28T14:22:57Z</time>
      </trkpt>
      <trkpt lat="42.117307" lon="2.216530">
        <ele>632.483</ele>
        <time>2017-11-28T14:23:01Z</time>
      </trkpt>
      <trkpt lat="42.117296" lon="2.216462">
        <ele>632.750</ele>
        <time>2017-11-28T14:23:05Z</time>
      </trkpt>
      <trkpt lat="42.117292" lon="2.216400">
        <ele>633.351</ele>
        <time>2017-11-28T14:23:09Z</time>
      </trkpt>
      <trkpt lat="42.117291" lon="2.216335">
        <ele>633.001</ele>
        <time>2017-11-28T14:23:13Z</time>
      </trkpt>
      <trkpt lat="42.117301" lon="2.216260">
        <ele>632.211</ele>
        <time>2017-11-28T14:23:17Z</time>
      </trkpt>
      <trkpt lat="42.117321" lon="2.216197">
        <ele>632.608</ele>
        <time>2017-11-28T14:23:22Z</time>
      </trkpt>
      <trkpt lat="42.117333" lon="2.216124">
        <ele>632.627</ele>
        <time>2017-11-28T14:23:26Z</time>
      </trkpt>
      <trkpt lat="42.117323" lon="2.216063">
        <ele>631.746</ele>
        <time>2017-11-28T14:23:30Z</time>
      </trkpt>
      <trkpt lat="42.117299" lon="2.216009">
        <ele>632.267</ele>
        <time>2017-11-28T14:23:33Z</time>
      </trkpt>
      <trkpt lat="42.117291" lon="2.215944">
        <ele>633.941</ele>
        <time>2017-11-28T14:23:37Z</time>
      </trkpt>
      <trkpt lat="42.117289" lon="2.215867">
        <ele>634.677</ele>
        <time>2017-11-28T14:23:41Z</time>
      </trkpt>
      <trkpt lat="42.117271" lon="2.215806">
        <ele>634.816</ele>
        <time>2017-11-28T14:23:45Z</time>
      </trkpt>
      <trkpt lat="42.117242" lon="2.215759">
        <ele>635.352</ele>
        <time>2017-11-28T14:23:49Z</time>
      </trkpt>
      <trkpt lat="42.117193" lon="2.215709">
        <ele>636.029</ele>
        <time>2017-11-28T14:23:54Z</time>
      </trkpt>
      <trkpt lat="42.117168" lon="2.215657">
        <ele>637.023</ele>
        <time>2017-11-28T14:23:58Z</time>
      </trkpt>
      <trkpt lat="42.117132" lon="2.215611">
        <ele>636.683</ele>
        <time>2017-11-28T14:24:03Z</time>
      </trkpt>
      <trkpt lat="42.117100" lon="2.215555">
        <ele>636.611</ele>
        <time>2017-11-28T14:24:07Z</time>
      </trkpt>
      <trkpt lat="42.117060" lon="2.215513">
        <ele>636.508</ele>
        <time>2017-11-28T14:24:11Z</time>
      </trkpt>
      <trkpt lat="42.117024" lon="2.215469">
        <ele>635.894</ele>
        <time>2017-11-28T14:24:15Z</time>
      </trkpt>
      <trkpt lat="42.116989" lon="2.215426">
        <ele>636.013</ele>
        <time>2017-11-28T14:24:19Z</time>
      </trkpt>
      <trkpt lat="42.116945" lon="2.215385">
        <ele>636.194</ele>
        <time>2017-11-28T14:24:24Z</time>
      </trkpt>
      <trkpt lat="42.116909" lon="2.215343">
        <ele>636.758</ele>
        <time>2017-11-28T14:24:29Z</time>
      </trkpt>
      <trkpt lat="42.116865" lon="2.215310">
        <ele>637.324</ele>
        <time>2017-11-28T14:24:34Z</time>
      </trkpt>
      <trkpt lat="42.116811" lon="2.215282">
        <ele>637.523</ele>
        <time>2017-11-28T14:24:39Z</time>
      </trkpt>
      <trkpt lat="42.116769" lon="2.215242">
        <ele>637.629</ele>
        <time>2017-11-28T14:24:44Z</time>
      </trkpt>
      <trkpt lat="42.116719" lon="2.215219">
        <ele>637.826</ele>
        <time>2017-11-28T14:24:47Z</time>
      </trkpt>
      <trkpt lat="42.116670" lon="2.215211">
        <ele>638.629</ele>
        <time>2017-11-28T14:24:51Z</time>
      </trkpt>
      <trkpt lat="42.116618" lon="2.215215">
        <ele>638.000</ele>
        <time>2017-11-28T14:24:57Z</time>
      </trkpt>
      <trkpt lat="42.116572" lon="2.215188">
        <ele>638.420</ele>
        <time>2017-11-28T14:25:02Z</time>
      </trkpt>
      <trkpt lat="42.116519" lon="2.215179">
        <ele>639.008</ele>
        <time>2017-11-28T14:25:06Z</time>
      </trkpt>
      <trkpt lat="42.116476" lon="2.215151">
        <ele>639.794</ele>
        <time>2017-11-28T14:25:10Z</time>
      </trkpt>
      <trkpt lat="42.116422" lon="2.215126">
        <ele>640.533</ele>
        <time>2017-11-28T14:25:14Z</time>
      </trkpt>
      <trkpt lat="42.116372" lon="2.215097">
        <ele>640.564</ele>
        <time>2017-11-28T14:25:19Z</time>
      </trkpt>
      <trkpt lat="42.116329" lon="2.215064">
        <ele>641.288</ele>
        <time>2017-11-28T14:25:23Z</time>
      </trkpt>
      <trkpt lat="42.116278" lon="2.215039">
        <ele>642.344</ele>
        <time>2017-11-28T14:25:27Z</time>
      </trkpt>
      <trkpt lat="42.116230" lon="2.215000">
        <ele>642.613</ele>
        <time>2017-11-28T14:25:31Z</time>
      </trkpt>
      <trkpt lat="42.116185" lon="2.214954">
        <ele>643.849</ele>
        <time>2017-11-28T14:25:35Z</time>
      </trkpt>
      <trkpt lat="42.116149" lon="2.214908">
        <ele>644.476</ele>
        <time>2017-11-28T14:25:39Z</time>
      </trkpt>
      <trkpt lat="42.116113" lon="2.214859">
        <ele>645.266</ele>
        <time>2017-11-28T14:25:43Z</time>
      </trkpt>
      <trkpt lat="42.116079" lon="2.214806">
        <ele>646.129</ele>
        <time>2017-11-28T14:25:47Z</time>
      </trkpt>
      <trkpt lat="42.116045" lon="2.214748">
        <ele>646.321</ele>
        <time>2017-11-28T14:25:52Z</time>
      </trkpt>
      <trkpt lat="42.116009" lon="2.214692">
        <ele>646.508</ele>
        <time>2017-11-28T14:25:57Z</time>
      </trkpt>
      <trkpt lat="42.115971" lon="2.214645">
        <ele>647.098</ele>
        <time>2017-11-28T14:26:01Z</time>
      </trkpt>
      <trkpt lat="42.115927" lon="2.214616">
        <ele>647.347</ele>
        <time>2017-11-28T14:26:05Z</time>
      </trkpt>
      <trkpt lat="42.115880" lon="2.214596">
        <ele>647.798</ele>
        <time>2017-11-28T14:26:09Z</time>
      </trkpt>
      <trkpt lat="42.115837" lon="2.214578">
        <ele>647.952</ele>
        <time>2017-11-28T14:26:13Z</time>
      </trkpt>
      <trkpt lat="42.115793" lon="2.214553">
        <ele>648.488</ele>
        <time>2017-11-28T14:26:17Z</time>
      </trkpt>
      <trkpt lat="42.115743" lon="2.214520">
        <ele>648.577</ele>
        <time>2017-11-28T14:26:22Z</time>
      </trkpt>
      <trkpt lat="42.115698" lon="2.214488">
        <ele>649.073</ele>
        <time>2017-11-28T14:26:26Z</time>
      </trkpt>
      <trkpt lat="42.115654" lon="2.214467">
        <ele>648.770</ele>
        <time>2017-11-28T14:26:30Z</time>
      </trkpt>
      <trkpt lat="42.115613" lon="2.214437">
        <ele>649.194</ele>
        <time>2017-11-28T14:26:34Z</time>
      </trkpt>
      <trkpt lat="42.115572" lon="2.214398">
        <ele>649.657</ele>
        <time>2017-11-28T14:26:38Z</time>
      </trkpt>
      <trkpt lat="42.115523" lon="2.214371">
        <ele>650.322</ele>
        <time>2017-11-28T14:26:42Z</time>
      </trkpt>
      <trkpt lat="42.115481" lon="2.214346">
        <ele>650.708</ele>
        <time>2017-11-28T14:26:46Z</time>
      </trkpt>
      <trkpt lat="42.115436" lon="2.214316">
        <ele>650.721</ele>
        <time>2017-11-28T14:26:50Z</time>
      </trkpt>
      <trkpt lat="42.115386" lon="2.214286">
        <ele>650.760</ele>
        <time>2017-11-28T14:26:54Z</time>
      </trkpt>
      <trkpt lat="42.115347" lon="2.214254">
        <ele>651.121</ele>
        <time>2017-11-28T14:26:58Z</time>
      </trkpt>
      <trkpt lat="42.115310" lon="2.214206">
        <ele>650.395</ele>
        <time>2017-11-28T14:27:03Z</time>
      </trkpt>
      <trkpt lat="42.115271" lon="2.214170">
        <ele>650.911</ele>
        <time>2017-11-28T14:27:06Z</time>
      </trkpt>
      <trkpt lat="42.115223" lon="2.214135">
        <ele>651.490</ele>
        <time>2017-11-28T14:27:10Z</time>
      </trkpt>
      <trkpt lat="42.115182" lon="2.214108">
        <ele>651.236</ele>
        <time>2017-11-28T14:27:14Z</time>
      </trkpt>
      <trkpt lat="42.115127" lon="2.214103">
        <ele>652.413</ele>
        <time>2017-11-28T14:27:19Z</time>
      </trkpt>
      <trkpt lat="42.115081" lon="2.214095">
        <ele>652.391</ele>
        <time>2017-11-28T14:27:23Z</time>
      </trkpt>
      <trkpt lat="42.115030" lon="2.214083">
        <ele>652.681</ele>
        <time>2017-11-28T14:27:28Z</time>
      </trkpt>
      <trkpt lat="42.114980" lon="2.214062">
        <ele>652.819</ele>
        <time>2017-11-28T14:27:32Z</time>
      </trkpt>
      <trkpt lat="42.114923" lon="2.214049">
        <ele>653.808</ele>
        <time>2017-11-28T14:27:37Z</time>
      </trkpt>
      <trkpt lat="42.114876" lon="2.214030">
        <ele>654.161</ele>
        <time>2017-11-28T14:27:41Z</time>
      </trkpt>
      <trkpt lat="42.114827" lon="2.214017">
        <ele>654.260</ele>
        <time>2017-11-28T14:27:45Z</time>
      </trkpt>
      <trkpt lat="42.114773" lon="2.214004">
        <ele>654.321</ele>
        <time>2017-11-28T14:27:50Z</time>
      </trkpt>
      <trkpt lat="42.114717" lon="2.213986">
        <ele>655.095</ele>
        <time>2017-11-28T14:27:56Z</time>
      </trkpt>
      <trkpt lat="42.114668" lon="2.213961">
        <ele>655.351</ele>
        <time>2017-11-28T14:28:00Z</time>
      </trkpt>
      <trkpt lat="42.114614" lon="2.213935">
        <ele>656.090</ele>
        <time>2017-11-28T14:28:05Z</time>
      </trkpt>
      <trkpt lat="42.114562" lon="2.213904">
        <ele>656.486</ele>
        <time>2017-11-28T14:28:09Z</time>
      </trkpt>
      <trkpt lat="42.114513" lon="2.213865">
        <ele>656.793</ele>
        <time>2017-11-28T14:28:14Z</time>
      </trkpt>
      <trkpt lat="42.114470" lon="2.213836">
        <ele>657.063</ele>
        <time>2017-11-28T14:28:18Z</time>
      </trkpt>
      <trkpt lat="42.114429" lon="2.213800">
        <ele>656.744</ele>
        <time>2017-11-28T14:28:22Z</time>
      </trkpt>
      <trkpt lat="42.114388" lon="2.213761">
        <ele>656.918</ele>
        <time>2017-11-28T14:28:26Z</time>
      </trkpt>
      <trkpt lat="42.114352" lon="2.213724">
        <ele>657.608</ele>
        <time>2017-11-28T14:28:30Z</time>
      </trkpt>
      <trkpt lat="42.114309" lon="2.213687">
        <ele>658.188</ele>
        <time>2017-11-28T14:28:35Z</time>
      </trkpt>
      <trkpt lat="42.114263" lon="2.213641">
        <ele>658.647</ele>
        <time>2017-11-28T14:28:39Z</time>
      </trkpt>
      <trkpt lat="42.114223" lon="2.213601">
        <ele>659.138</ele>
        <time>2017-11-28T14:28:46Z</time>
      </trkpt>
      <trkpt lat="42.114188" lon="2.213557">
        <ele>659.962</ele>
        <time>2017-11-28T14:28:56Z</time>
      </trkpt>
      <trkpt lat="42.114154" lon="2.213513">
        <ele>660.998</ele>
        <time>2017-11-28T14:29:02Z</time>
      </trkpt>
      <trkpt lat="42.114104" lon="2.213485">
        <ele>661.217</ele>
        <time>2017-11-28T14:29:07Z</time>
      </trkpt>
      <trkpt lat="42.114079" lon="2.213434">
        <ele>661.453</ele>
        <time>2017-11-28T14:29:13Z</time>
      </trkpt>
      <trkpt lat="42.114077" lon="2.213366">
        <ele>661.780</ele>
        <time>2017-11-28T14:29:20Z</time>
      </trkpt>
      <trkpt lat="42.114033" lon="2.213385">
        <ele>663.659</ele>
        <time>2017-11-28T14:29:54Z</time>
      </trkpt>
      <trkpt lat="42.114019" lon="2.213450">
        <ele>664.103</ele>
        <time>2017-11-28T14:30:03Z</time>
      </trkpt>
      <trkpt lat="42.113996" lon="2.213506">
        <ele>664.123</ele>
        <time>2017-11-28T14:30:21Z</time>
      </trkpt>
      <trkpt lat="42.114018" lon="2.213573">
        <ele>666.108</ele>
        <time>2017-11-28T14:30:25Z</time>
      </trkpt>
      <trkpt lat="42.114048" lon="2.213635">
        <ele>666.387</ele>
        <time>2017-11-28T14:30:29Z</time>
      </trkpt>
      <trkpt lat="42.114081" lon="2.213685">
        <ele>665.756</ele>
        <time>2017-11-28T14:30:32Z</time>
      </trkpt>
      <trkpt lat="42.114118" lon="2.213741">
        <ele>665.957</ele>
        <time>2017-11-28T14:30:36Z</time>
      </trkpt>
      <trkpt lat="42.114140" lon="2.213801">
        <ele>665.971</ele>
        <time>2017-11-28T14:30:40Z</time>
      </trkpt>
      <trkpt lat="42.114151" lon="2.213863">
        <ele>665.777</ele>
        <time>2017-11-28T14:30:44Z</time>
      </trkpt>
      <trkpt lat="42.114138" lon="2.213921">
        <ele>665.876</ele>
        <time>2017-11-28T14:30:48Z</time>
      </trkpt>
      <trkpt lat="42.114098" lon="2.213958">
        <ele>666.012</ele>
        <time>2017-11-28T14:30:56Z</time>
      </trkpt>
      <trkpt lat="42.114149" lon="2.214003">
        <ele>666.899</ele>
        <time>2017-11-28T14:31:09Z</time>
      </trkpt>
      <trkpt lat="42.114112" lon="2.213968">
        <ele>666.471</ele>
        <time>2017-11-28T14:31:23Z</time>
      </trkpt>
      <trkpt lat="42.114071" lon="2.213940">
        <ele>665.841</ele>
        <time>2017-11-28T14:31:28Z</time>
      </trkpt>
      <trkpt lat="42.114017" lon="2.213942">
        <ele>666.015</ele>
        <time>2017-11-28T14:31:34Z</time>
      </trkpt>
      <trkpt lat="42.113968" lon="2.213930">
        <ele>666.108</ele>
        <time>2017-11-28T14:31:40Z</time>
      </trkpt>
      <trkpt lat="42.113923" lon="2.213894">
        <ele>666.549</ele>
        <time>2017-11-28T14:31:45Z</time>
      </trkpt>
      <trkpt lat="42.113883" lon="2.213855">
        <ele>666.288</ele>
        <time>2017-11-28T14:31:50Z</time>
      </trkpt>
      <trkpt lat="42.113847" lon="2.213817">
        <ele>666.339</ele>
        <time>2017-11-28T14:31:54Z</time>
      </trkpt>
      <trkpt lat="42.113817" lon="2.213768">
        <ele>666.453</ele>
        <time>2017-11-28T14:31:58Z</time>
      </trkpt>
      <trkpt lat="42.113780" lon="2.213724">
        <ele>666.429</ele>
        <time>2017-11-28T14:32:05Z</time>
      </trkpt>
      <trkpt lat="42.113735" lon="2.213698">
        <ele>665.868</ele>
        <time>2017-11-28T14:32:10Z</time>
      </trkpt>
      <trkpt lat="42.113707" lon="2.213642">
        <ele>665.094</ele>
        <time>2017-11-28T14:32:26Z</time>
      </trkpt>
      <trkpt lat="42.113672" lon="2.213601">
        <ele>664.271</ele>
        <time>2017-11-28T14:32:30Z</time>
      </trkpt>
      <trkpt lat="42.113643" lon="2.213551">
        <ele>663.448</ele>
        <time>2017-11-28T14:32:34Z</time>
      </trkpt>
      <trkpt lat="42.113604" lon="2.213491">
        <ele>662.861</ele>
        <time>2017-11-28T14:32:38Z</time>
      </trkpt>
      <trkpt lat="42.113565" lon="2.213437">
        <ele>663.017</ele>
        <time>2017-11-28T14:32:42Z</time>
      </trkpt>
      <trkpt lat="42.113528" lon="2.213396">
        <ele>662.608</ele>
        <time>2017-11-28T14:32:47Z</time>
      </trkpt>
      <trkpt lat="42.113498" lon="2.213346">
        <ele>662.546</ele>
        <time>2017-11-28T14:32:51Z</time>
      </trkpt>
      <trkpt lat="42.113467" lon="2.213291">
        <ele>661.575</ele>
        <time>2017-11-28T14:32:56Z</time>
      </trkpt>
      <trkpt lat="42.113428" lon="2.213244">
        <ele>660.816</ele>
        <time>2017-11-28T14:33:01Z</time>
      </trkpt>
      <trkpt lat="42.113390" lon="2.213197">
        <ele>660.870</ele>
        <time>2017-11-28T14:33:06Z</time>
      </trkpt>
      <trkpt lat="42.113356" lon="2.213145">
        <ele>661.376</ele>
        <time>2017-11-28T14:33:11Z</time>
      </trkpt>
      <trkpt lat="42.113334" lon="2.213091">
        <ele>661.715</ele>
        <time>2017-11-28T14:33:18Z</time>
      </trkpt>
      <trkpt lat="42.113310" lon="2.213033">
        <ele>661.461</ele>
        <time>2017-11-28T14:33:23Z</time>
      </trkpt>
      <trkpt lat="42.113288" lon="2.212977">
        <ele>661.568</ele>
        <time>2017-11-28T14:33:28Z</time>
      </trkpt>
      <trkpt lat="42.113296" lon="2.212907">
        <ele>661.664</ele>
        <time>2017-11-28T14:33:33Z</time>
      </trkpt>
      <trkpt lat="42.113317" lon="2.212849">
        <ele>662.006</ele>
        <time>2017-11-28T14:33:39Z</time>
      </trkpt>
      <trkpt lat="42.113316" lon="2.212782">
        <ele>662.316</ele>
        <time>2017-11-28T14:34:11Z</time>
      </trkpt>
      <trkpt lat="42.113289" lon="2.212726">
        <ele>662.608</ele>
        <time>2017-11-28T14:34:16Z</time>
      </trkpt>
      <trkpt lat="42.113250" lon="2.212670">
        <ele>662.278</ele>
        <time>2017-11-28T14:34:20Z</time>
      </trkpt>
      <trkpt lat="42.113210" lon="2.212634">
        <ele>662.457</ele>
        <time>2017-11-28T14:34:23Z</time>
      </trkpt>
      <trkpt lat="42.113165" lon="2.212619">
        <ele>662.568</ele>
        <time>2017-11-28T14:34:26Z</time>
      </trkpt>
      <trkpt lat="42.113119" lon="2.212607">
        <ele>662.672</ele>
        <time>2017-11-28T14:34:29Z</time>
      </trkpt>
      <trkpt lat="42.113063" lon="2.212598">
        <ele>662.368</ele>
        <time>2017-11-28T14:34:33Z</time>
      </trkpt>
      <trkpt lat="42.113017" lon="2.212572">
        <ele>662.587</ele>
        <time>2017-11-28T14:34:37Z</time>
      </trkpt>
      <trkpt lat="42.112962" lon="2.212545">
        <ele>662.583</ele>
        <time>2017-11-28T14:34:41Z</time>
      </trkpt>
      <trkpt lat="42.112910" lon="2.212529">
        <ele>662.410</ele>
        <time>2017-11-28T14:34:45Z</time>
      </trkpt>
      <trkpt lat="42.112854" lon="2.212514">
        <ele>662.083</ele>
        <time>2017-11-28T14:34:49Z</time>
      </trkpt>
      <trkpt lat="42.112807" lon="2.212507">
        <ele>662.025</ele>
        <time>2017-11-28T14:34:53Z</time>
      </trkpt>
      <trkpt lat="42.112755" lon="2.212491">
        <ele>662.517</ele>
        <time>2017-11-28T14:34:57Z</time>
      </trkpt>
      <trkpt lat="42.112703" lon="2.212491">
        <ele>662.708</ele>
        <time>2017-11-28T14:35:01Z</time>
      </trkpt>
      <trkpt lat="42.112655" lon="2.212505">
        <ele>663.070</ele>
        <time>2017-11-28T14:35:05Z</time>
      </trkpt>
      <trkpt lat="42.112602" lon="2.212512">
        <ele>662.749</ele>
        <time>2017-11-28T14:35:09Z</time>
      </trkpt>
      <trkpt lat="42.112551" lon="2.212515">
        <ele>662.690</ele>
        <time>2017-11-28T14:35:13Z</time>
      </trkpt>
      <trkpt lat="42.112502" lon="2.212518">
        <ele>662.494</ele>
        <time>2017-11-28T14:35:17Z</time>
      </trkpt>
      <trkpt lat="42.112453" lon="2.212511">
        <ele>662.260</ele>
        <time>2017-11-28T14:35:20Z</time>
      </trkpt>
      <trkpt lat="42.112396" lon="2.212493">
        <ele>662.449</ele>
        <time>2017-11-28T14:35:24Z</time>
      </trkpt>
      <trkpt lat="42.112349" lon="2.212475">
        <ele>661.975</ele>
        <time>2017-11-28T14:35:29Z</time>
      </trkpt>
      <trkpt lat="42.112307" lon="2.212451">
        <ele>661.812</ele>
        <time>2017-11-28T14:35:33Z</time>
      </trkpt>
      <trkpt lat="42.112263" lon="2.212409">
        <ele>660.524</ele>
        <time>2017-11-28T14:35:37Z</time>
      </trkpt>
      <trkpt lat="42.112224" lon="2.212368">
        <ele>660.304</ele>
        <time>2017-11-28T14:35:41Z</time>
      </trkpt>
      <trkpt lat="42.112179" lon="2.212327">
        <ele>660.114</ele>
        <time>2017-11-28T14:35:45Z</time>
      </trkpt>
      <trkpt lat="42.112131" lon="2.212275">
        <ele>659.908</ele>
        <time>2017-11-28T14:35:49Z</time>
      </trkpt>
      <trkpt lat="42.112089" lon="2.212235">
        <ele>659.494</ele>
        <time>2017-11-28T14:35:52Z</time>
      </trkpt>
      <trkpt lat="42.112040" lon="2.212191">
        <ele>658.983</ele>
        <time>2017-11-28T14:35:56Z</time>
      </trkpt>
      <trkpt lat="42.111983" lon="2.212202">
        <ele>658.574</ele>
        <time>2017-11-28T14:36:02Z</time>
      </trkpt>
      <trkpt lat="42.111940" lon="2.212221">
        <ele>658.368</ele>
        <time>2017-11-28T14:36:05Z</time>
      </trkpt>
      <trkpt lat="42.111890" lon="2.212231">
        <ele>658.264</ele>
        <time>2017-11-28T14:36:09Z</time>
      </trkpt>
      <trkpt lat="42.111841" lon="2.212202">
        <ele>657.763</ele>
        <time>2017-11-28T14:36:14Z</time>
      </trkpt>
      <trkpt lat="42.111808" lon="2.212148">
        <ele>657.899</ele>
        <time>2017-11-28T14:36:38Z</time>
      </trkpt>
      <trkpt lat="42.111845" lon="2.212111">
        <ele>655.156</ele>
        <time>2017-11-28T14:37:03Z</time>
      </trkpt>
      <trkpt lat="42.111804" lon="2.212068">
        <ele>653.081</ele>
        <time>2017-11-28T14:37:10Z</time>
      </trkpt>
      <trkpt lat="42.111757" lon="2.212068">
        <ele>653.861</ele>
        <time>2017-11-28T14:37:14Z</time>
      </trkpt>
      <trkpt lat="42.111702" lon="2.212069">
        <ele>653.117</ele>
        <time>2017-11-28T14:37:19Z</time>
      </trkpt>
      <trkpt lat="42.111654" lon="2.212075">
        <ele>653.108</ele>
        <time>2017-11-28T14:37:23Z</time>
      </trkpt>
      <trkpt lat="42.111602" lon="2.212073">
        <ele>652.130</ele>
        <time>2017-11-28T14:37:27Z</time>
      </trkpt>
      <trkpt lat="42.111550" lon="2.212060">
        <ele>651.919</ele>
        <time>2017-11-28T14:37:31Z</time>
      </trkpt>
      <trkpt lat="42.111505" lon="2.212051">
        <ele>652.080</ele>
        <time>2017-11-28T14:37:34Z</time>
      </trkpt>
      <trkpt lat="42.111451" lon="2.212043">
        <ele>649.664</ele>
        <time>2017-11-28T14:37:39Z</time>
      </trkpt>
      <trkpt lat="42.111396" lon="2.212026">
        <ele>649.160</ele>
        <time>2017-11-28T14:37:43Z</time>
      </trkpt>
      <trkpt lat="42.111341" lon="2.212029">
        <ele>648.879</ele>
        <time>2017-11-28T14:37:47Z</time>
      </trkpt>
      <trkpt lat="42.111295" lon="2.212029">
        <ele>648.315</ele>
        <time>2017-11-28T14:37:51Z</time>
      </trkpt>
      <trkpt lat="42.111240" lon="2.212025">
        <ele>647.372</ele>
        <time>2017-11-28T14:37:55Z</time>
      </trkpt>
      <trkpt lat="42.111186" lon="2.212012">
        <ele>647.156</ele>
        <time>2017-11-28T14:37:59Z</time>
      </trkpt>
      <trkpt lat="42.111138" lon="2.212000">
        <ele>647.359</ele>
        <time>2017-11-28T14:38:03Z</time>
      </trkpt>
      <trkpt lat="42.111092" lon="2.212027">
        <ele>647.914</ele>
        <time>2017-11-28T14:38:08Z</time>
      </trkpt>
      <trkpt lat="42.111047" lon="2.212044">
        <ele>646.608</ele>
        <time>2017-11-28T14:38:13Z</time>
      </trkpt>
      <trkpt lat="42.110997" lon="2.212012">
        <ele>645.297</ele>
        <time>2017-11-28T14:38:20Z</time>
      </trkpt>
      <trkpt lat="42.110960" lon="2.211978">
        <ele>643.716</ele>
        <time>2017-11-28T14:38:29Z</time>
      </trkpt>
      <trkpt lat="42.111017" lon="2.211981">
        <ele>639.967</ele>
        <time>2017-11-28T14:38:57Z</time>
      </trkpt>
      <trkpt lat="42.111067" lon="2.212003">
        <ele>639.231</ele>
        <time>2017-11-28T14:39:08Z</time>
      </trkpt>
      <trkpt lat="42.111095" lon="2.212067">
        <ele>640.187</ele>
        <time>2017-11-28T14:39:12Z</time>
      </trkpt>
      <trkpt lat="42.111115" lon="2.212131">
        <ele>639.616</ele>
        <time>2017-11-28T14:39:17Z</time>
      </trkpt>
      <trkpt lat="42.111160" lon="2.212180">
        <ele>640.592</ele>
        <time>2017-11-28T14:39:23Z</time>
      </trkpt>
      <trkpt lat="42.111190" lon="2.212229">
        <ele>640.449</ele>
        <time>2017-11-28T14:39:27Z</time>
      </trkpt>
      <trkpt lat="42.111231" lon="2.212272">
        <ele>640.139</ele>
        <time>2017-11-28T14:39:32Z</time>
      </trkpt>
      <trkpt lat="42.111278" lon="2.212312">
        <ele>640.501</ele>
        <time>2017-11-28T14:39:37Z</time>
      </trkpt>
      <trkpt lat="42.111313" lon="2.212353">
        <ele>640.321</ele>
        <time>2017-11-28T14:39:41Z</time>
      </trkpt>
      <trkpt lat="42.111353" lon="2.212399">
        <ele>640.208</ele>
        <time>2017-11-28T14:39:45Z</time>
      </trkpt>
      <trkpt lat="42.111398" lon="2.212448">
        <ele>640.485</ele>
        <time>2017-11-28T14:39:49Z</time>
      </trkpt>
      <trkpt lat="42.111422" lon="2.212511">
        <ele>640.254</ele>
        <time>2017-11-28T14:39:53Z</time>
      </trkpt>
      <trkpt lat="42.111452" lon="2.212574">
        <ele>639.945</ele>
        <time>2017-11-28T14:39:57Z</time>
      </trkpt>
      <trkpt lat="42.111471" lon="2.212635">
        <ele>638.979</ele>
        <time>2017-11-28T14:40:02Z</time>
      </trkpt>
      <trkpt lat="42.111495" lon="2.212702">
        <ele>639.685</ele>
        <time>2017-11-28T14:40:07Z</time>
      </trkpt>
      <trkpt lat="42.111520" lon="2.212769">
        <ele>639.474</ele>
        <time>2017-11-28T14:40:12Z</time>
      </trkpt>
      <trkpt lat="42.111514" lon="2.212843">
        <ele>639.280</ele>
        <time>2017-11-28T14:40:16Z</time>
      </trkpt>
      <trkpt lat="42.111513" lon="2.212918">
        <ele>638.317</ele>
        <time>2017-11-28T14:40:21Z</time>
      </trkpt>
      <trkpt lat="42.111524" lon="2.212983">
        <ele>637.682</ele>
        <time>2017-11-28T14:40:25Z</time>
      </trkpt>
      <trkpt lat="42.111537" lon="2.213042">
        <ele>636.743</ele>
        <time>2017-11-28T14:40:29Z</time>
      </trkpt>
      <trkpt lat="42.111557" lon="2.213109">
        <ele>636.017</ele>
        <time>2017-11-28T14:40:33Z</time>
      </trkpt>
      <trkpt lat="42.111580" lon="2.213161">
        <ele>635.908</ele>
        <time>2017-11-28T14:40:36Z</time>
      </trkpt>
      <trkpt lat="42.111605" lon="2.213215">
        <ele>636.340</ele>
        <time>2017-11-28T14:40:39Z</time>
      </trkpt>
      <trkpt lat="42.111627" lon="2.213278">
        <ele>635.829</ele>
        <time>2017-11-28T14:40:43Z</time>
      </trkpt>
      <trkpt lat="42.111666" lon="2.213319">
        <ele>635.760</ele>
        <time>2017-11-28T14:40:47Z</time>
      </trkpt>
      <trkpt lat="42.111708" lon="2.213356">
        <ele>635.324</ele>
        <time>2017-11-28T14:40:51Z</time>
      </trkpt>
      <trkpt lat="42.111737" lon="2.213415">
        <ele>635.270</ele>
        <time>2017-11-28T14:40:56Z</time>
      </trkpt>
      <trkpt lat="42.111763" lon="2.213469">
        <ele>635.089</ele>
        <time>2017-11-28T14:41:00Z</time>
      </trkpt>
      <trkpt lat="42.111800" lon="2.213520">
        <ele>633.825</ele>
        <time>2017-11-28T14:41:04Z</time>
      </trkpt>
      <trkpt lat="42.111843" lon="2.213563">
        <ele>633.882</ele>
        <time>2017-11-28T14:41:08Z</time>
      </trkpt>
      <trkpt lat="42.111871" lon="2.213614">
        <ele>633.916</ele>
        <time>2017-11-28T14:41:11Z</time>
      </trkpt>
      <trkpt lat="42.111899" lon="2.213670">
        <ele>633.976</ele>
        <time>2017-11-28T14:41:14Z</time>
      </trkpt>
      <trkpt lat="42.111926" lon="2.213721">
        <ele>633.813</ele>
        <time>2017-11-28T14:41:17Z</time>
      </trkpt>
      <trkpt lat="42.111959" lon="2.213774">
        <ele>633.308</ele>
        <time>2017-11-28T14:41:21Z</time>
      </trkpt>
      <trkpt lat="42.112004" lon="2.213790">
        <ele>633.393</ele>
        <time>2017-11-28T14:41:25Z</time>
      </trkpt>
      <trkpt lat="42.112052" lon="2.213823">
        <ele>633.322</ele>
        <time>2017-11-28T14:41:30Z</time>
      </trkpt>
      <trkpt lat="42.112086" lon="2.213879">
        <ele>632.723</ele>
        <time>2017-11-28T14:41:35Z</time>
      </trkpt>
      <trkpt lat="42.112123" lon="2.213927">
        <ele>632.177</ele>
        <time>2017-11-28T14:41:39Z</time>
      </trkpt>
      <trkpt lat="42.112160" lon="2.213967">
        <ele>632.123</ele>
        <time>2017-11-28T14:41:43Z</time>
      </trkpt>
      <trkpt lat="42.112208" lon="2.214005">
        <ele>632.482</ele>
        <time>2017-11-28T14:41:48Z</time>
      </trkpt>
      <trkpt lat="42.112243" lon="2.214045">
        <ele>632.188</ele>
        <time>2017-11-28T14:41:52Z</time>
      </trkpt>
      <trkpt lat="42.112267" lon="2.214120">
        <ele>631.985</ele>
        <time>2017-11-28T14:41:57Z</time>
      </trkpt>
      <trkpt lat="42.112270" lon="2.214185">
        <ele>631.936</ele>
        <time>2017-11-28T14:42:00Z</time>
      </trkpt>
      <trkpt lat="42.112267" lon="2.214252">
        <ele>631.917</ele>
        <time>2017-11-28T14:42:04Z</time>
      </trkpt>
      <trkpt lat="42.112283" lon="2.214309">
        <ele>632.118</ele>
        <time>2017-11-28T14:42:13Z</time>
      </trkpt>
      <trkpt lat="42.112325" lon="2.214341">
        <ele>631.308</ele>
        <time>2017-11-28T14:42:24Z</time>
      </trkpt>
      <trkpt lat="42.112295" lon="2.214391">
        <ele>631.545</ele>
        <time>2017-11-28T14:42:31Z</time>
      </trkpt>
      <trkpt lat="42.112319" lon="2.214339">
        <ele>630.864</ele>
        <time>2017-11-28T14:42:41Z</time>
      </trkpt>
      <trkpt lat="42.112275" lon="2.214323">
        <ele>630.545</ele>
        <time>2017-11-28T14:42:47Z</time>
      </trkpt>
      <trkpt lat="42.112219" lon="2.214340">
        <ele>630.469</ele>
        <time>2017-11-28T14:42:51Z</time>
      </trkpt>
      <trkpt lat="42.112179" lon="2.214384">
        <ele>630.085</ele>
        <time>2017-11-28T14:42:57Z</time>
      </trkpt>
      <trkpt lat="42.112139" lon="2.214416">
        <ele>629.644</ele>
        <time>2017-11-28T14:43:05Z</time>
      </trkpt>
      <trkpt lat="42.112086" lon="2.214400">
        <ele>629.160</ele>
        <time>2017-11-28T14:43:11Z</time>
      </trkpt>
      <trkpt lat="42.112033" lon="2.214382">
        <ele>628.757</ele>
        <time>2017-11-28T14:43:15Z</time>
      </trkpt>
      <trkpt lat="42.111985" lon="2.214374">
        <ele>628.747</ele>
        <time>2017-11-28T14:43:19Z</time>
      </trkpt>
      <trkpt lat="42.111932" lon="2.214369">
        <ele>628.529</ele>
        <time>2017-11-28T14:43:24Z</time>
      </trkpt>
      <trkpt lat="42.111889" lon="2.214349">
        <ele>628.021</ele>
        <time>2017-11-28T14:43:28Z</time>
      </trkpt>
      <trkpt lat="42.111835" lon="2.214339">
        <ele>627.308</ele>
        <time>2017-11-28T14:43:32Z</time>
      </trkpt>
      <trkpt lat="42.111781" lon="2.214339">
        <ele>627.346</ele>
        <time>2017-11-28T14:43:36Z</time>
      </trkpt>
      <trkpt lat="42.111724" lon="2.214333">
        <ele>627.275</ele>
        <time>2017-11-28T14:43:40Z</time>
      </trkpt>
      <trkpt lat="42.111680" lon="2.214311">
        <ele>626.916</ele>
        <time>2017-11-28T14:43:43Z</time>
      </trkpt>
      <trkpt lat="42.111629" lon="2.214307">
        <ele>627.170</ele>
        <time>2017-11-28T14:43:47Z</time>
      </trkpt>
      <trkpt lat="42.111575" lon="2.214298">
        <ele>627.526</ele>
        <time>2017-11-28T14:43:51Z</time>
      </trkpt>
      <trkpt lat="42.111522" lon="2.214265">
        <ele>627.575</ele>
        <time>2017-11-28T14:43:55Z</time>
      </trkpt>
      <trkpt lat="42.111476" lon="2.214273">
        <ele>627.451</ele>
        <time>2017-11-28T14:43:59Z</time>
      </trkpt>
      <trkpt lat="42.111428" lon="2.214261">
        <ele>627.488</ele>
        <time>2017-11-28T14:44:03Z</time>
      </trkpt>
      <trkpt lat="42.111379" lon="2.214257">
        <ele>627.772</ele>
        <time>2017-11-28T14:44:08Z</time>
      </trkpt>
      <trkpt lat="42.111328" lon="2.214216">
        <ele>627.513</ele>
        <time>2017-11-28T14:44:12Z</time>
      </trkpt>
      <trkpt lat="42.111287" lon="2.214150">
        <ele>627.114</ele>
        <time>2017-11-28T14:44:15Z</time>
      </trkpt>
      <trkpt lat="42.111244" lon="2.214100">
        <ele>626.308</ele>
        <time>2017-11-28T14:44:18Z</time>
      </trkpt>
      <trkpt lat="42.111201" lon="2.214063">
        <ele>626.319</ele>
        <time>2017-11-28T14:44:21Z</time>
      </trkpt>
      <trkpt lat="42.111149" lon="2.214032">
        <ele>625.628</ele>
        <time>2017-11-28T14:44:26Z</time>
      </trkpt>
      <trkpt lat="42.111107" lon="2.214006">
        <ele>625.249</ele>
        <time>2017-11-28T14:44:30Z</time>
      </trkpt>
      <trkpt lat="42.111060" lon="2.213967">
        <ele>624.873</ele>
        <time>2017-11-28T14:44:35Z</time>
      </trkpt>
      <trkpt lat="42.111014" lon="2.213918">
        <ele>624.069</ele>
        <time>2017-11-28T14:44:39Z</time>
      </trkpt>
      <trkpt lat="42.110971" lon="2.213884">
        <ele>623.788</ele>
        <time>2017-11-28T14:44:43Z</time>
      </trkpt>
      <trkpt lat="42.110941" lon="2.213812">
        <ele>622.574</ele>
        <time>2017-11-28T14:44:47Z</time>
      </trkpt>
      <trkpt lat="42.110906" lon="2.213764">
        <ele>622.191</ele>
        <time>2017-11-28T14:44:50Z</time>
      </trkpt>
      <trkpt lat="42.110858" lon="2.213762">
        <ele>622.463</ele>
        <time>2017-11-28T14:44:53Z</time>
      </trkpt>
      <trkpt lat="42.110800" lon="2.213759">
        <ele>621.944</ele>
        <time>2017-11-28T14:44:57Z</time>
      </trkpt>
      <trkpt lat="42.110748" lon="2.213763">
        <ele>621.618</ele>
        <time>2017-11-28T14:45:00Z</time>
      </trkpt>
      <trkpt lat="42.110697" lon="2.213781">
        <ele>621.108</ele>
        <time>2017-11-28T14:45:04Z</time>
      </trkpt>
      <trkpt lat="42.110653" lon="2.213830">
        <ele>619.998</ele>
        <time>2017-11-28T14:45:08Z</time>
      </trkpt>
      <trkpt lat="42.110610" lon="2.213874">
        <ele>619.747</ele>
        <time>2017-11-28T14:45:12Z</time>
      </trkpt>
      <trkpt lat="42.110560" lon="2.213920">
        <ele>619.478</ele>
        <time>2017-11-28T14:45:16Z</time>
      </trkpt>
      <trkpt lat="42.110521" lon="2.213955">
        <ele>618.782</ele>
        <time>2017-11-28T14:45:19Z</time>
      </trkpt>
      <trkpt lat="42.110482" lon="2.214000">
        <ele>617.898</ele>
        <time>2017-11-28T14:45:23Z</time>
      </trkpt>
      <trkpt lat="42.110443" lon="2.214045">
        <ele>618.047</ele>
        <time>2017-11-28T14:45:26Z</time>
      </trkpt>
      <trkpt lat="42.110402" lon="2.214100">
        <ele>618.383</ele>
        <time>2017-11-28T14:45:30Z</time>
      </trkpt>
      <trkpt lat="42.110370" lon="2.214161">
        <ele>618.890</ele>
        <time>2017-11-28T14:45:34Z</time>
      </trkpt>
      <trkpt lat="42.110346" lon="2.214213">
        <ele>618.347</ele>
        <time>2017-11-28T14:45:38Z</time>
      </trkpt>
      <trkpt lat="42.110317" lon="2.214275">
        <ele>618.129</ele>
        <time>2017-11-28T14:45:42Z</time>
      </trkpt>
      <trkpt lat="42.110291" lon="2.214330">
        <ele>617.621</ele>
        <time>2017-11-28T14:45:46Z</time>
      </trkpt>
      <trkpt lat="42.110266" lon="2.214388">
        <ele>616.808</ele>
        <time>2017-11-28T14:45:50Z</time>
      </trkpt>
      <trkpt lat="42.110242" lon="2.214448">
        <ele>616.336</ele>
        <time>2017-11-28T14:45:54Z</time>
      </trkpt>
      <trkpt lat="42.110218" lon="2.214504">
        <ele>615.965</ele>
        <time>2017-11-28T14:45:58Z</time>
      </trkpt>
      <trkpt lat="42.110200" lon="2.214566">
        <ele>616.126</ele>
        <time>2017-11-28T14:46:02Z</time>
      </trkpt>
      <trkpt lat="42.110184" lon="2.214635">
        <ele>615.930</ele>
        <time>2017-11-28T14:46:06Z</time>
      </trkpt>
      <trkpt lat="42.110174" lon="2.214704">
        <ele>615.886</ele>
        <time>2017-11-28T14:46:10Z</time>
      </trkpt>
      <trkpt lat="42.110182" lon="2.214769">
        <ele>615.685</ele>
        <time>2017-11-28T14:46:14Z</time>
      </trkpt>
      <trkpt lat="42.110191" lon="2.214831">
        <ele>615.711</ele>
        <time>2017-11-28T14:46:18Z</time>
      </trkpt>
      <trkpt lat="42.110200" lon="2.214894">
        <ele>615.268</ele>
        <time>2017-11-28T14:46:22Z</time>
      </trkpt>
      <trkpt lat="42.110212" lon="2.214958">
        <ele>615.245</ele>
        <time>2017-11-28T14:46:27Z</time>
      </trkpt>
      <trkpt lat="42.110219" lon="2.215035">
        <ele>615.347</ele>
        <time>2017-11-28T14:46:31Z</time>
      </trkpt>
      <trkpt lat="42.110228" lon="2.215098">
        <ele>614.811</ele>
        <time>2017-11-28T14:46:35Z</time>
      </trkpt>
      <trkpt lat="42.110226" lon="2.215167">
        <ele>614.308</ele>
        <time>2017-11-28T14:46:39Z</time>
      </trkpt>
      <trkpt lat="42.110224" lon="2.215243">
        <ele>614.036</ele>
        <time>2017-11-28T14:46:43Z</time>
      </trkpt>
      <trkpt lat="42.110223" lon="2.215323">
        <ele>614.115</ele>
        <time>2017-11-28T14:46:47Z</time>
      </trkpt>
      <trkpt lat="42.110222" lon="2.215384">
        <ele>613.616</ele>
        <time>2017-11-28T14:46:50Z</time>
      </trkpt>
      <trkpt lat="42.110221" lon="2.215446">
        <ele>613.260</ele>
        <time>2017-11-28T14:46:54Z</time>
      </trkpt>
      <trkpt lat="42.110223" lon="2.215520">
        <ele>612.696</ele>
        <time>2017-11-28T14:46:58Z</time>
      </trkpt>
      <trkpt lat="42.110229" lon="2.215582">
        <ele>612.485</ele>
        <time>2017-11-28T14:47:02Z</time>
      </trkpt>
      <trkpt lat="42.110248" lon="2.215650">
        <ele>612.011</ele>
        <time>2017-11-28T14:47:06Z</time>
      </trkpt>
      <trkpt lat="42.110262" lon="2.215719">
        <ele>612.248</ele>
        <time>2017-11-28T14:47:10Z</time>
      </trkpt>
      <trkpt lat="42.110279" lon="2.215797">
        <ele>612.286</ele>
        <time>2017-11-28T14:47:14Z</time>
      </trkpt>
      <trkpt lat="42.110294" lon="2.215860">
        <ele>612.260</ele>
        <time>2017-11-28T14:47:17Z</time>
      </trkpt>
      <trkpt lat="42.110302" lon="2.215923">
        <ele>611.726</ele>
        <time>2017-11-28T14:47:20Z</time>
      </trkpt>
      <trkpt lat="42.110322" lon="2.215996">
        <ele>611.108</ele>
        <time>2017-11-28T14:47:24Z</time>
      </trkpt>
      <trkpt lat="42.110337" lon="2.216071">
        <ele>610.720</ele>
        <time>2017-11-28T14:47:28Z</time>
      </trkpt>
      <trkpt lat="42.110355" lon="2.216144">
        <ele>610.379</ele>
        <time>2017-11-28T14:47:32Z</time>
      </trkpt>
      <trkpt lat="42.110383" lon="2.216206">
        <ele>609.750</ele>
        <time>2017-11-28T14:47:37Z</time>
      </trkpt>
      <trkpt lat="42.110396" lon="2.216273">
        <ele>609.594</ele>
        <time>2017-11-28T14:47:40Z</time>
      </trkpt>
      <trkpt lat="42.110406" lon="2.216334">
        <ele>608.840</ele>
        <time>2017-11-28T14:47:43Z</time>
      </trkpt>
      <trkpt lat="42.110440" lon="2.216388">
        <ele>608.949</ele>
        <time>2017-11-28T14:47:47Z</time>
      </trkpt>
      <trkpt lat="42.110486" lon="2.216420">
        <ele>609.015</ele>
        <time>2017-11-28T14:47:51Z</time>
      </trkpt>
      <trkpt lat="42.110530" lon="2.216463">
        <ele>609.532</ele>
        <time>2017-11-28T14:47:55Z</time>
      </trkpt>
      <trkpt lat="42.110565" lon="2.216506">
        <ele>609.232</ele>
        <time>2017-11-28T14:47:59Z</time>
      </trkpt>
      <trkpt lat="42.110600" lon="2.216563">
        <ele>608.992</ele>
        <time>2017-11-28T14:48:03Z</time>
      </trkpt>
      <trkpt lat="42.110619" lon="2.216637">
        <ele>608.211</ele>
        <time>2017-11-28T14:48:07Z</time>
      </trkpt>
      <trkpt lat="42.110633" lon="2.216695">
        <ele>607.808</ele>
        <time>2017-11-28T14:48:10Z</time>
      </trkpt>
      <trkpt lat="42.110621" lon="2.216767">
        <ele>607.655</ele>
        <time>2017-11-28T14:48:13Z</time>
      </trkpt>
      <trkpt lat="42.110600" lon="2.216822">
        <ele>607.274</ele>
        <time>2017-11-28T14:48:16Z</time>
      </trkpt>
      <trkpt lat="42.110575" lon="2.216872">
        <ele>606.085</ele>
        <time>2017-11-28T14:48:20Z</time>
      </trkpt>
      <trkpt lat="42.110529" lon="2.216897">
        <ele>605.879</ele>
        <time>2017-11-28T14:48:24Z</time>
      </trkpt>
      <trkpt lat="42.110479" lon="2.216901">
        <ele>605.535</ele>
        <time>2017-11-28T14:48:27Z</time>
      </trkpt>
      <trkpt lat="42.110424" lon="2.216898">
        <ele>605.214</ele>
        <time>2017-11-28T14:48:30Z</time>
      </trkpt>
      <trkpt lat="42.110374" lon="2.216916">
        <ele>604.950</ele>
        <time>2017-11-28T14:48:34Z</time>
      </trkpt>
      <trkpt lat="42.110321" lon="2.216936">
        <ele>604.787</ele>
        <time>2017-11-28T14:48:39Z</time>
      </trkpt>
      <trkpt lat="42.110268" lon="2.216935">
        <ele>604.928</ele>
        <time>2017-11-28T14:48:43Z</time>
      </trkpt>
      <trkpt lat="42.110216" lon="2.216953">
        <ele>605.189</ele>
        <time>2017-11-28T14:48:49Z</time>
      </trkpt>
      <trkpt lat="42.110165" lon="2.216937">
        <ele>605.217</ele>
        <time>2017-11-28T14:48:53Z</time>
      </trkpt>
      <trkpt lat="42.110112" lon="2.216908">
        <ele>604.608</ele>
        <time>2017-11-28T14:48:57Z</time>
      </trkpt>
      <trkpt lat="42.110064" lon="2.216891">
        <ele>604.434</ele>
        <time>2017-11-28T14:49:01Z</time>
      </trkpt>
      <trkpt lat="42.110020" lon="2.216873">
        <ele>604.113</ele>
        <time>2017-11-28T14:49:05Z</time>
      </trkpt>
      <trkpt lat="42.109970" lon="2.216854">
        <ele>603.784</ele>
        <time>2017-11-28T14:49:09Z</time>
      </trkpt>
      <trkpt lat="42.109924" lon="2.216801">
        <ele>603.418</ele>
        <time>2017-11-28T14:49:13Z</time>
      </trkpt>
      <trkpt lat="42.109882" lon="2.216752">
        <ele>602.734</ele>
        <time>2017-11-28T14:49:17Z</time>
      </trkpt>
      <trkpt lat="42.109838" lon="2.216726">
        <ele>602.473</ele>
        <time>2017-11-28T14:49:21Z</time>
      </trkpt>
      <trkpt lat="42.109794" lon="2.216689">
        <ele>602.389</ele>
        <time>2017-11-28T14:49:25Z</time>
      </trkpt>
      <trkpt lat="42.109761" lon="2.216642">
        <ele>601.446</ele>
        <time>2017-11-28T14:49:29Z</time>
      </trkpt>
      <trkpt lat="42.109720" lon="2.216591">
        <ele>600.725</ele>
        <time>2017-11-28T14:49:33Z</time>
      </trkpt>
      <trkpt lat="42.109679" lon="2.216538">
        <ele>600.926</ele>
        <time>2017-11-28T14:49:37Z</time>
      </trkpt>
      <trkpt lat="42.109646" lon="2.216487">
        <ele>600.408</ele>
        <time>2017-11-28T14:49:40Z</time>
      </trkpt>
      <trkpt lat="42.109621" lon="2.216436">
        <ele>599.908</ele>
        <time>2017-11-28T14:49:43Z</time>
      </trkpt>
      <trkpt lat="42.109583" lon="2.216370">
        <ele>599.794</ele>
        <time>2017-11-28T14:49:46Z</time>
      </trkpt>
      <trkpt lat="42.109542" lon="2.216307">
        <ele>599.153</ele>
        <time>2017-11-28T14:49:49Z</time>
      </trkpt>
      <trkpt lat="42.109509" lon="2.216256">
        <ele>598.964</ele>
        <time>2017-11-28T14:49:53Z</time>
      </trkpt>
      <trkpt lat="42.109471" lon="2.216203">
        <ele>598.498</ele>
        <time>2017-11-28T14:49:58Z</time>
      </trkpt>
      <trkpt lat="42.109426" lon="2.216172">
        <ele>598.034</ele>
        <time>2017-11-28T14:50:02Z</time>
      </trkpt>
      <trkpt lat="42.109389" lon="2.216123">
        <ele>597.843</ele>
        <time>2017-11-28T14:50:07Z</time>
      </trkpt>
      <trkpt lat="42.109344" lon="2.216085">
        <ele>597.689</ele>
        <time>2017-11-28T14:50:11Z</time>
      </trkpt>
      <trkpt lat="42.109306" lon="2.216038">
        <ele>596.666</ele>
        <time>2017-11-28T14:50:15Z</time>
      </trkpt>
      <trkpt lat="42.109251" lon="2.216038">
        <ele>595.486</ele>
        <time>2017-11-28T14:50:19Z</time>
      </trkpt>
      <trkpt lat="42.109194" lon="2.216058">
        <ele>593.560</ele>
        <time>2017-11-28T14:50:23Z</time>
      </trkpt>
      <trkpt lat="42.109138" lon="2.216072">
        <ele>593.226</ele>
        <time>2017-11-28T14:50:26Z</time>
      </trkpt>
      <trkpt lat="42.109081" lon="2.216091">
        <ele>593.008</ele>
        <time>2017-11-28T14:50:29Z</time>
      </trkpt>
      <trkpt lat="42.109030" lon="2.216112">
        <ele>593.560</ele>
        <time>2017-11-28T14:50:32Z</time>
      </trkpt>
      <trkpt lat="42.108990" lon="2.216146">
        <ele>593.789</ele>
        <time>2017-11-28T14:50:35Z</time>
      </trkpt>
      <trkpt lat="42.108935" lon="2.216180">
        <ele>593.330</ele>
        <time>2017-11-28T14:50:38Z</time>
      </trkpt>
      <trkpt lat="42.108886" lon="2.216199">
        <ele>593.544</ele>
        <time>2017-11-28T14:50:41Z</time>
      </trkpt>
      <trkpt lat="42.108836" lon="2.216229">
        <ele>593.560</ele>
        <time>2017-11-28T14:50:46Z</time>
      </trkpt>
      <trkpt lat="42.108791" lon="2.216243">
        <ele>593.659</ele>
        <time>2017-11-28T14:50:50Z</time>
      </trkpt>
      <trkpt lat="42.108743" lon="2.216265">
        <ele>593.535</ele>
        <time>2017-11-28T14:50:55Z</time>
      </trkpt>
      <trkpt lat="42.108697" lon="2.216274">
        <ele>593.592</ele>
        <time>2017-11-28T14:50:59Z</time>
      </trkpt>
      <trkpt lat="42.108652" lon="2.216297">
        <ele>592.897</ele>
        <time>2017-11-28T14:51:04Z</time>
      </trkpt>
      <trkpt lat="42.108608" lon="2.216332">
        <ele>593.023</ele>
        <time>2017-11-28T14:51:08Z</time>
      </trkpt>
      <trkpt lat="42.108565" lon="2.216355">
        <ele>592.925</ele>
        <time>2017-11-28T14:51:12Z</time>
      </trkpt>
      <trkpt lat="42.108518" lon="2.216365">
        <ele>591.108</ele>
        <time>2017-11-28T14:51:16Z</time>
      </trkpt>
      <trkpt lat="42.108467" lon="2.216377">
        <ele>590.121</ele>
        <time>2017-11-28T14:51:19Z</time>
      </trkpt>
      <trkpt lat="42.108424" lon="2.216401">
        <ele>588.910</ele>
        <time>2017-11-28T14:51:22Z</time>
      </trkpt>
      <trkpt lat="42.108378" lon="2.216412">
        <ele>587.961</ele>
        <time>2017-11-28T14:51:27Z</time>
      </trkpt>
      <trkpt lat="42.108330" lon="2.216419">
        <ele>587.975</ele>
        <time>2017-11-28T14:51:30Z</time>
      </trkpt>
      <trkpt lat="42.108276" lon="2.216445">
        <ele>587.741</ele>
        <time>2017-11-28T14:51:34Z</time>
      </trkpt>
      <trkpt lat="42.108230" lon="2.216480">
        <ele>587.870</ele>
        <time>2017-11-28T14:51:38Z</time>
      </trkpt>
      <trkpt lat="42.108185" lon="2.216511">
        <ele>587.936</ele>
        <time>2017-11-28T14:51:42Z</time>
      </trkpt>
      <trkpt lat="42.108129" lon="2.216517">
        <ele>587.833</ele>
        <time>2017-11-28T14:51:46Z</time>
      </trkpt>
      <trkpt lat="42.108075" lon="2.216532">
        <ele>587.375</ele>
        <time>2017-11-28T14:51:50Z</time>
      </trkpt>
      <trkpt lat="42.108029" lon="2.216535">
        <ele>586.628</ele>
        <time>2017-11-28T14:51:53Z</time>
      </trkpt>
      <trkpt lat="42.107986" lon="2.216555">
        <ele>586.520</ele>
        <time>2017-11-28T14:51:56Z</time>
      </trkpt>
      <trkpt lat="42.107941" lon="2.216594">
        <ele>585.608</ele>
        <time>2017-11-28T14:52:01Z</time>
      </trkpt>
      <trkpt lat="42.107893" lon="2.216606">
        <ele>585.499</ele>
        <time>2017-11-28T14:52:05Z</time>
      </trkpt>
      <trkpt lat="42.107845" lon="2.216623">
        <ele>585.288</ele>
        <time>2017-11-28T14:52:09Z</time>
      </trkpt>
      <trkpt lat="42.107796" lon="2.216641">
        <ele>583.939</ele>
        <time>2017-11-28T14:52:13Z</time>
      </trkpt>
      <trkpt lat="42.107756" lon="2.216671">
        <ele>583.033</ele>
        <time>2017-11-28T14:52:17Z</time>
      </trkpt>
      <trkpt lat="42.107716" lon="2.216700">
        <ele>582.819</ele>
        <time>2017-11-28T14:52:21Z</time>
      </trkpt>
      <trkpt lat="42.107668" lon="2.216708">
        <ele>582.288</ele>
        <time>2017-11-28T14:52:26Z</time>
      </trkpt>
      <trkpt lat="42.107618" lon="2.216743">
        <ele>582.274</ele>
        <time>2017-11-28T14:52:29Z</time>
      </trkpt>
      <trkpt lat="42.107573" lon="2.216786">
        <ele>581.571</ele>
        <time>2017-11-28T14:52:33Z</time>
      </trkpt>
      <trkpt lat="42.107522" lon="2.216823">
        <ele>579.991</ele>
        <time>2017-11-28T14:52:38Z</time>
      </trkpt>
      <trkpt lat="42.107476" lon="2.216870">
        <ele>580.281</ele>
        <time>2017-11-28T14:52:42Z</time>
      </trkpt>
      <trkpt lat="42.107424" lon="2.216891">
        <ele>580.019</ele>
        <time>2017-11-28T14:52:46Z</time>
      </trkpt>
      <trkpt lat="42.107370" lon="2.216907">
        <ele>579.908</ele>
        <time>2017-11-28T14:52:51Z</time>
      </trkpt>
      <trkpt lat="42.107327" lon="2.216930">
        <ele>578.951</ele>
        <time>2017-11-28T14:52:55Z</time>
      </trkpt>
      <trkpt lat="42.107278" lon="2.216943">
        <ele>578.360</ele>
        <time>2017-11-28T14:52:59Z</time>
      </trkpt>
      <trkpt lat="42.107227" lon="2.216968">
        <ele>578.531</ele>
        <time>2017-11-28T14:53:04Z</time>
      </trkpt>
      <trkpt lat="42.107182" lon="2.216995">
        <ele>578.325</ele>
        <time>2017-11-28T14:53:09Z</time>
      </trkpt>
      <trkpt lat="42.107137" lon="2.217044">
        <ele>577.861</ele>
        <time>2017-11-28T14:53:13Z</time>
      </trkpt>
      <trkpt lat="42.107089" lon="2.217064">
        <ele>577.710</ele>
        <time>2017-11-28T14:53:17Z</time>
      </trkpt>
      <trkpt lat="42.107040" lon="2.217059">
        <ele>577.676</ele>
        <time>2017-11-28T14:53:20Z</time>
      </trkpt>
      <trkpt lat="42.106997" lon="2.217085">
        <ele>577.023</ele>
        <time>2017-11-28T14:53:23Z</time>
      </trkpt>
      <trkpt lat="42.106953" lon="2.217105">
        <ele>577.043</ele>
        <time>2017-11-28T14:53:26Z</time>
      </trkpt>
      <trkpt lat="42.106894" lon="2.217132">
        <ele>576.764</ele>
        <time>2017-11-28T14:53:30Z</time>
      </trkpt>
      <trkpt lat="42.106850" lon="2.217151">
        <ele>576.710</ele>
        <time>2017-11-28T14:53:33Z</time>
      </trkpt>
      <trkpt lat="42.106812" lon="2.217195">
        <ele>576.708</ele>
        <time>2017-11-28T14:53:36Z</time>
      </trkpt>
      <trkpt lat="42.106761" lon="2.217235">
        <ele>576.126</ele>
        <time>2017-11-28T14:53:40Z</time>
      </trkpt>
      <trkpt lat="42.106718" lon="2.217260">
        <ele>575.885</ele>
        <time>2017-11-28T14:53:43Z</time>
      </trkpt>
      <trkpt lat="42.106678" lon="2.217294">
        <ele>574.856</ele>
        <time>2017-11-28T14:53:46Z</time>
      </trkpt>
      <trkpt lat="42.106637" lon="2.217319">
        <ele>575.090</ele>
        <time>2017-11-28T14:53:49Z</time>
      </trkpt>
      <trkpt lat="42.106579" lon="2.217342">
        <ele>574.476</ele>
        <time>2017-11-28T14:53:53Z</time>
      </trkpt>
      <trkpt lat="42.106534" lon="2.217373">
        <ele>574.725</ele>
        <time>2017-11-28T14:53:57Z</time>
      </trkpt>
      <trkpt lat="42.106499" lon="2.217420">
        <ele>575.051</ele>
        <time>2017-11-28T14:54:02Z</time>
      </trkpt>
      <trkpt lat="42.106457" lon="2.217449">
        <ele>574.948</ele>
        <time>2017-11-28T14:54:06Z</time>
      </trkpt>
      <trkpt lat="42.106402" lon="2.217462">
        <ele>575.074</ele>
        <time>2017-11-28T14:54:10Z</time>
      </trkpt>
      <trkpt lat="42.106348" lon="2.217467">
        <ele>574.056</ele>
        <time>2017-11-28T14:54:13Z</time>
      </trkpt>
      <trkpt lat="42.106298" lon="2.217478">
        <ele>573.221</ele>
        <time>2017-11-28T14:54:16Z</time>
      </trkpt>
      <trkpt lat="42.106251" lon="2.217496">
        <ele>572.608</ele>
        <time>2017-11-28T14:54:20Z</time>
      </trkpt>
      <trkpt lat="42.106201" lon="2.217520">
        <ele>571.729</ele>
        <time>2017-11-28T14:54:25Z</time>
      </trkpt>
      <trkpt lat="42.106156" lon="2.217541">
        <ele>571.578</ele>
        <time>2017-11-28T14:54:29Z</time>
      </trkpt>
      <trkpt lat="42.106108" lon="2.217538">
        <ele>571.959</ele>
        <time>2017-11-28T14:54:32Z</time>
      </trkpt>
      <trkpt lat="42.106053" lon="2.217534">
        <ele>572.683</ele>
        <time>2017-11-28T14:54:36Z</time>
      </trkpt>
      <trkpt lat="42.106000" lon="2.217539">
        <ele>572.649</ele>
        <time>2017-11-28T14:54:40Z</time>
      </trkpt>
      <trkpt lat="42.105951" lon="2.217565">
        <ele>573.648</ele>
        <time>2017-11-28T14:54:44Z</time>
      </trkpt>
      <trkpt lat="42.105902" lon="2.217585">
        <ele>573.644</ele>
        <time>2017-11-28T14:54:48Z</time>
      </trkpt>
      <trkpt lat="42.105845" lon="2.217597">
        <ele>573.391</ele>
        <time>2017-11-28T14:54:52Z</time>
      </trkpt>
      <trkpt lat="42.105796" lon="2.217592">
        <ele>573.547</ele>
        <time>2017-11-28T14:54:55Z</time>
      </trkpt>
      <trkpt lat="42.105739" lon="2.217596">
        <ele>573.629</ele>
        <time>2017-11-28T14:55:00Z</time>
      </trkpt>
      <trkpt lat="42.105688" lon="2.217623">
        <ele>574.621</ele>
        <time>2017-11-28T14:55:04Z</time>
      </trkpt>
      <trkpt lat="42.105638" lon="2.217622">
        <ele>574.208</ele>
        <time>2017-11-28T14:55:08Z</time>
      </trkpt>
      <trkpt lat="42.105590" lon="2.217634">
        <ele>573.846</ele>
        <time>2017-11-28T14:55:39Z</time>
      </trkpt>
      <trkpt lat="42.105541" lon="2.217664">
        <ele>574.345</ele>
        <time>2017-11-28T14:55:43Z</time>
      </trkpt>
      <trkpt lat="42.105485" lon="2.217673">
        <ele>574.996</ele>
        <time>2017-11-28T14:55:48Z</time>
      </trkpt>
      <trkpt lat="42.105442" lon="2.217699">
        <ele>574.790</ele>
        <time>2017-11-28T14:55:51Z</time>
      </trkpt>
      <trkpt lat="42.105390" lon="2.217739">
        <ele>573.556</ele>
        <time>2017-11-28T14:55:55Z</time>
      </trkpt>
      <trkpt lat="42.105341" lon="2.217769">
        <ele>572.315</ele>
        <time>2017-11-28T14:55:59Z</time>
      </trkpt>
      <trkpt lat="42.105295" lon="2.217791">
        <ele>572.731</ele>
        <time>2017-11-28T14:56:03Z</time>
      </trkpt>
      <trkpt lat="42.105250" lon="2.217812">
        <ele>573.048</ele>
        <time>2017-11-28T14:56:07Z</time>
      </trkpt>
      <trkpt lat="42.105207" lon="2.217835">
        <ele>573.262</ele>
        <time>2017-11-28T14:56:11Z</time>
      </trkpt>
      <trkpt lat="42.105163" lon="2.217866">
        <ele>573.383</ele>
        <time>2017-11-28T14:56:16Z</time>
      </trkpt>
      <trkpt lat="42.105110" lon="2.217895">
        <ele>574.211</ele>
        <time>2017-11-28T14:56:21Z</time>
      </trkpt>
      <trkpt lat="42.105063" lon="2.217917">
        <ele>574.108</ele>
        <time>2017-11-28T14:56:25Z</time>
      </trkpt>
      <trkpt lat="42.105010" lon="2.217930">
        <ele>573.498</ele>
        <time>2017-11-28T14:56:29Z</time>
      </trkpt>
      <trkpt lat="42.104962" lon="2.217907">
        <ele>573.447</ele>
        <time>2017-11-28T14:56:34Z</time>
      </trkpt>
      <trkpt lat="42.104977" lon="2.217842">
        <ele>573.378</ele>
        <time>2017-11-28T14:56:38Z</time>
      </trkpt>
      <trkpt lat="42.104628" lon="2.217724">
        <ele>582.933</ele>
        <time>2018-01-09T09:52:03Z</time>
      </trkpt>
      <trkpt lat="42.104787" lon="2.217625">
        <ele>577.823</ele>
        <time>2018-01-09T09:52:04Z</time>
      </trkpt>
      <trkpt lat="42.104715" lon="2.217606">
        <ele>578.315</ele>
        <time>2018-01-09T09:52:08Z</time>
      </trkpt>
      <trkpt lat="42.104664" lon="2.217629">
        <ele>577.008</ele>
        <time>2018-01-09T09:52:18Z</time>
      </trkpt>
      <trkpt lat="42.104616" lon="2.217643">
        <ele>576.065</ele>
        <time>2018-01-09T09:52:23Z</time>
      </trkpt>
      <trkpt lat="42.104571" lon="2.217669">
        <ele>576.434</ele>
        <time>2018-01-09T09:52:27Z</time>
      </trkpt>
      <trkpt lat="42.104522" lon="2.217687">
        <ele>576.312</ele>
        <time>2018-01-09T09:52:31Z</time>
      </trkpt>
      <trkpt lat="42.104491" lon="2.217736">
        <ele>576.067</ele>
        <time>2018-01-09T09:52:36Z</time>
      </trkpt>
      <trkpt lat="42.104545" lon="2.217750">
        <ele>575.742</ele>
        <time>2018-01-09T09:52:40Z</time>
      </trkpt>
      <trkpt lat="42.104596" lon="2.217748">
        <ele>576.298</ele>
        <time>2018-01-09T09:52:44Z</time>
      </trkpt>
      <trkpt lat="42.104655" lon="2.217752">
        <ele>576.211</ele>
        <time>2018-01-09T09:52:48Z</time>
      </trkpt>
      <trkpt lat="42.104704" lon="2.217778">
        <ele>576.265</ele>
        <time>2018-01-09T09:52:52Z</time>
      </trkpt>
      <trkpt lat="42.104733" lon="2.217830">
        <ele>576.184</ele>
        <time>2018-01-09T09:52:57Z</time>
      </trkpt>
      <trkpt lat="42.104729" lon="2.217905">
        <ele>576.707</ele>
        <time>2018-01-09T09:53:12Z</time>
      </trkpt>
      <trkpt lat="42.104679" lon="2.217888">
        <ele>578.217</ele>
        <time>2018-01-09T09:54:24Z</time>
      </trkpt>
      <trkpt lat="42.104627" lon="2.217890">
        <ele>577.608</ele>
        <time>2018-01-09T09:54:28Z</time>
      </trkpt>
      <trkpt lat="42.104580" lon="2.217897">
        <ele>578.560</ele>
        <time>2018-01-09T09:54:32Z</time>
      </trkpt>
      <trkpt lat="42.104532" lon="2.217900">
        <ele>578.789</ele>
        <time>2018-01-09T09:54:36Z</time>
      </trkpt>
      <trkpt lat="42.104483" lon="2.217913">
        <ele>578.397</ele>
        <time>2018-01-09T09:54:41Z</time>
      </trkpt>
      <trkpt lat="42.104428" lon="2.217918">
        <ele>577.972</ele>
        <time>2018-01-09T09:54:46Z</time>
      </trkpt>
      <trkpt lat="42.104381" lon="2.217942">
        <ele>578.447</ele>
        <time>2018-01-09T09:54:50Z</time>
      </trkpt>
      <trkpt lat="42.104335" lon="2.217954">
        <ele>577.853</ele>
        <time>2018-01-09T09:54:54Z</time>
      </trkpt>
      <trkpt lat="42.104287" lon="2.217948">
        <ele>577.936</ele>
        <time>2018-01-09T09:54:58Z</time>
      </trkpt>
      <trkpt lat="42.104241" lon="2.217972">
        <ele>578.190</ele>
        <time>2018-01-09T09:55:02Z</time>
      </trkpt>
      <trkpt lat="42.104192" lon="2.218000">
        <ele>578.535</ele>
        <time>2018-01-09T09:55:07Z</time>
      </trkpt>
      <trkpt lat="42.104141" lon="2.218010">
        <ele>578.786</ele>
        <time>2018-01-09T09:55:12Z</time>
      </trkpt>
      <trkpt lat="42.104096" lon="2.218028">
        <ele>578.314</ele>
        <time>2018-01-09T09:55:16Z</time>
      </trkpt>
      <trkpt lat="42.104040" lon="2.218032">
        <ele>578.808</ele>
        <time>2018-01-09T09:55:21Z</time>
      </trkpt>
      <trkpt lat="42.103993" lon="2.218019">
        <ele>579.585</ele>
        <time>2018-01-09T09:55:25Z</time>
      </trkpt>
      <trkpt lat="42.103945" lon="2.218034">
        <ele>579.814</ele>
        <time>2018-01-09T09:55:29Z</time>
      </trkpt>
      <trkpt lat="42.103897" lon="2.218041">
        <ele>579.532</ele>
        <time>2018-01-09T09:55:33Z</time>
      </trkpt>
      <trkpt lat="42.103848" lon="2.218040">
        <ele>579.567</ele>
        <time>2018-01-09T09:55:37Z</time>
      </trkpt>
      <trkpt lat="42.103795" lon="2.218046">
        <ele>579.642</ele>
        <time>2018-01-09T09:55:42Z</time>
      </trkpt>
      <trkpt lat="42.103744" lon="2.218056">
        <ele>579.458</ele>
        <time>2018-01-09T09:55:47Z</time>
      </trkpt>
      <trkpt lat="42.103698" lon="2.218062">
        <ele>579.291</ele>
        <time>2018-01-09T09:55:51Z</time>
      </trkpt>
      <trkpt lat="42.103653" lon="2.218065">
        <ele>578.965</ele>
        <time>2018-01-09T09:55:55Z</time>
      </trkpt>
      <trkpt lat="42.103599" lon="2.218069">
        <ele>578.999</ele>
        <time>2018-01-09T09:56:00Z</time>
      </trkpt>
      <trkpt lat="42.103545" lon="2.218068">
        <ele>579.307</ele>
        <time>2018-01-09T09:56:05Z</time>
      </trkpt>
      <trkpt lat="42.103502" lon="2.218028">
        <ele>579.027</ele>
        <time>2018-01-09T09:56:12Z</time>
      </trkpt>
      <trkpt lat="42.103480" lon="2.217969">
        <ele>578.908</ele>
        <time>2018-01-09T09:56:23Z</time>
      </trkpt>
      <trkpt lat="42.103435" lon="2.217949">
        <ele>578.441</ele>
        <time>2018-01-09T09:56:31Z</time>
      </trkpt>
      <trkpt lat="42.103390" lon="2.217929">
        <ele>578.660</ele>
        <time>2018-01-09T09:56:36Z</time>
      </trkpt>
      <trkpt lat="42.103342" lon="2.217923">
        <ele>578.448</ele>
        <time>2018-01-09T09:56:41Z</time>
      </trkpt>
      <trkpt lat="42.103291" lon="2.217935">
        <ele>578.653</ele>
        <time>2018-01-09T09:56:46Z</time>
      </trkpt>
      <trkpt lat="42.103241" lon="2.217950">
        <ele>579.278</ele>
        <time>2018-01-09T09:56:51Z</time>
      </trkpt>
      <trkpt lat="42.103197" lon="2.217967">
        <ele>578.964</ele>
        <time>2018-01-09T09:56:58Z</time>
      </trkpt>
      <trkpt lat="42.103153" lon="2.217990">
        <ele>579.397</ele>
        <time>2018-01-09T09:57:03Z</time>
      </trkpt>
      <trkpt lat="42.103106" lon="2.218000">
        <ele>579.071</ele>
        <time>2018-01-09T09:57:08Z</time>
      </trkpt>
      <trkpt lat="42.103058" lon="2.218012">
        <ele>579.136</ele>
        <time>2018-01-09T09:57:13Z</time>
      </trkpt>
      <trkpt lat="42.103008" lon="2.218015">
        <ele>578.217</ele>
        <time>2018-01-09T09:57:18Z</time>
      </trkpt>
      <trkpt lat="42.102964" lon="2.218036">
        <ele>577.118</ele>
        <time>2018-01-09T09:57:37Z</time>
      </trkpt>
      <trkpt lat="42.102922" lon="2.218062">
        <ele>576.708</ele>
        <time>2018-01-09T09:57:40Z</time>
      </trkpt>
      <trkpt lat="42.102872" lon="2.218095">
        <ele>576.085</ele>
        <time>2018-01-09T09:57:44Z</time>
      </trkpt>
      <trkpt lat="42.102826" lon="2.218118">
        <ele>576.064</ele>
        <time>2018-01-09T09:57:48Z</time>
      </trkpt>
      <trkpt lat="42.102784" lon="2.218150">
        <ele>575.712</ele>
        <time>2018-01-09T09:57:52Z</time>
      </trkpt>
      <trkpt lat="42.102745" lon="2.218186">
        <ele>575.657</ele>
        <time>2018-01-09T09:57:56Z</time>
      </trkpt>
      <trkpt lat="42.102701" lon="2.218218">
        <ele>575.312</ele>
        <time>2018-01-09T09:58:00Z</time>
      </trkpt>
      <trkpt lat="42.102654" lon="2.218245">
        <ele>575.738</ele>
        <time>2018-01-09T09:58:04Z</time>
      </trkpt>
      <trkpt lat="42.102603" lon="2.218272">
        <ele>575.731</ele>
        <time>2018-01-09T09:58:08Z</time>
      </trkpt>
      <trkpt lat="42.102556" lon="2.218306">
        <ele>576.075</ele>
        <time>2018-01-09T09:58:12Z</time>
      </trkpt>
      <trkpt lat="42.102515" lon="2.218334">
        <ele>576.322</ele>
        <time>2018-01-09T09:58:16Z</time>
      </trkpt>
      <trkpt lat="42.102465" lon="2.218367">
        <ele>576.462</ele>
        <time>2018-01-09T09:58:20Z</time>
      </trkpt>
      <trkpt lat="42.102418" lon="2.218385">
        <ele>576.208</ele>
        <time>2018-01-09T09:58:24Z</time>
      </trkpt>
      <trkpt lat="42.102372" lon="2.218408">
        <ele>576.108</ele>
        <time>2018-01-09T09:58:28Z</time>
      </trkpt>
      <trkpt lat="42.102328" lon="2.218432">
        <ele>576.254</ele>
        <time>2018-01-09T09:58:32Z</time>
      </trkpt>
      <trkpt lat="42.102275" lon="2.218456">
        <ele>577.083</ele>
        <time>2018-01-09T09:58:40Z</time>
      </trkpt>
      <trkpt lat="42.102220" lon="2.218481">
        <ele>576.981</ele>
        <time>2018-01-09T09:58:44Z</time>
      </trkpt>
      <trkpt lat="42.102177" lon="2.218502">
        <ele>577.226</ele>
        <time>2018-01-09T09:58:48Z</time>
      </trkpt>
      <trkpt lat="42.102125" lon="2.218524">
        <ele>576.881</ele>
        <time>2018-01-09T09:58:54Z</time>
      </trkpt>
      <trkpt lat="42.102083" lon="2.218554">
        <ele>577.327</ele>
        <time>2018-01-09T09:58:58Z</time>
      </trkpt>
      <trkpt lat="42.102037" lon="2.218577">
        <ele>577.530</ele>
        <time>2018-01-09T09:59:02Z</time>
      </trkpt>
      <trkpt lat="42.101993" lon="2.218597">
        <ele>577.174</ele>
        <time>2018-01-09T09:59:06Z</time>
      </trkpt>
      <trkpt lat="42.101944" lon="2.218615">
        <ele>576.623</ele>
        <time>2018-01-09T09:59:10Z</time>
      </trkpt>
      <trkpt lat="42.101783" lon="2.218622">
        <ele>566.183</ele>
        <time>2018-01-09T10:14:55Z</time>
      </trkpt>
      <trkpt lat="42.101748" lon="2.218662">
        <ele>566.211</ele>
        <time>2018-01-09T10:14:59Z</time>
      </trkpt>
      <trkpt lat="42.101705" lon="2.218697">
        <ele>566.508</ele>
        <time>2018-01-09T10:15:03Z</time>
      </trkpt>
      <trkpt lat="42.101657" lon="2.218722">
        <ele>567.284</ele>
        <time>2018-01-09T10:15:07Z</time>
      </trkpt>
      <trkpt lat="42.101611" lon="2.218742">
        <ele>567.433</ele>
        <time>2018-01-09T10:15:11Z</time>
      </trkpt>
      <trkpt lat="42.101560" lon="2.218774">
        <ele>568.651</ele>
        <time>2018-01-09T10:15:15Z</time>
      </trkpt>
      <trkpt lat="42.101517" lon="2.218799">
        <ele>569.156</ele>
        <time>2018-01-09T10:15:19Z</time>
      </trkpt>
      <trkpt lat="42.101476" lon="2.218846">
        <ele>569.291</ele>
        <time>2018-01-09T10:15:38Z</time>
      </trkpt>
      <trkpt lat="42.101424" lon="2.218869">
        <ele>569.757</ele>
        <time>2018-01-09T10:15:42Z</time>
      </trkpt>
      <trkpt lat="42.101376" lon="2.218857">
        <ele>569.020</ele>
        <time>2018-01-09T10:15:52Z</time>
      </trkpt>
      <trkpt lat="42.101332" lon="2.218875">
        <ele>569.524</ele>
        <time>2018-01-09T10:15:57Z</time>
      </trkpt>
      <trkpt lat="42.101280" lon="2.218895">
        <ele>569.417</ele>
        <time>2018-01-09T10:16:02Z</time>
      </trkpt>
      <trkpt lat="42.101227" lon="2.218917">
        <ele>570.287</ele>
        <time>2018-01-09T10:16:07Z</time>
      </trkpt>
      <trkpt lat="42.101176" lon="2.218946">
        <ele>570.315</ele>
        <time>2018-01-09T10:16:12Z</time>
      </trkpt>
      <trkpt lat="42.101129" lon="2.218978">
        <ele>570.408</ele>
        <time>2018-01-09T10:16:17Z</time>
      </trkpt>
      <trkpt lat="42.101090" lon="2.219012">
        <ele>570.843</ele>
        <time>2018-01-09T10:16:21Z</time>
      </trkpt>
      <trkpt lat="42.101057" lon="2.219055">
        <ele>570.062</ele>
        <time>2018-01-09T10:16:57Z</time>
      </trkpt>
      <trkpt lat="42.101021" lon="2.219092">
        <ele>570.310</ele>
        <time>2018-01-09T10:17:05Z</time>
      </trkpt>
      <trkpt lat="42.100983" lon="2.219136">
        <ele>570.285</ele>
        <time>2018-01-09T10:17:10Z</time>
      </trkpt>
      <trkpt lat="42.100945" lon="2.219191">
        <ele>570.110</ele>
        <time>2018-01-09T10:17:16Z</time>
      </trkpt>
      <trkpt lat="42.100914" lon="2.219244">
        <ele>570.516</ele>
        <time>2018-01-09T10:17:20Z</time>
      </trkpt>
      <trkpt lat="42.100886" lon="2.219297">
        <ele>570.299</ele>
        <time>2018-01-09T10:17:24Z</time>
      </trkpt>
      <trkpt lat="42.100856" lon="2.219351">
        <ele>569.723</ele>
        <time>2018-01-09T10:17:28Z</time>
      </trkpt>
      <trkpt lat="42.100823" lon="2.219398">
        <ele>570.374</ele>
        <time>2018-01-09T10:17:32Z</time>
      </trkpt>
      <trkpt lat="42.100789" lon="2.219453">
        <ele>570.556</ele>
        <time>2018-01-09T10:17:37Z</time>
      </trkpt>
      <trkpt lat="42.100758" lon="2.219501">
        <ele>569.421</ele>
        <time>2018-01-09T10:17:42Z</time>
      </trkpt>
      <trkpt lat="42.100731" lon="2.219556">
        <ele>568.908</ele>
        <time>2018-01-09T10:17:47Z</time>
      </trkpt>
      <trkpt lat="42.100694" lon="2.219610">
        <ele>568.829</ele>
        <time>2018-01-09T10:17:52Z</time>
      </trkpt>
      <trkpt lat="42.100644" lon="2.219589">
        <ele>567.128</ele>
        <time>2018-01-09T10:18:11Z</time>
      </trkpt>
      <trkpt lat="42.100600" lon="2.219556">
        <ele>566.846</ele>
        <time>2018-01-09T10:18:16Z</time>
      </trkpt>
      <trkpt lat="42.100591" lon="2.219494">
        <ele>566.421</ele>
        <time>2018-01-09T10:18:22Z</time>
      </trkpt>
      <trkpt lat="42.100581" lon="2.219423">
        <ele>566.386</ele>
        <time>2018-01-09T10:18:26Z</time>
      </trkpt>
      <trkpt lat="42.100545" lon="2.219376">
        <ele>565.882</ele>
        <time>2018-01-09T10:18:30Z</time>
      </trkpt>
      <trkpt lat="42.100497" lon="2.219350">
        <ele>565.355</ele>
        <time>2018-01-09T10:18:34Z</time>
      </trkpt>
      <trkpt lat="42.100444" lon="2.219345">
        <ele>564.549</ele>
        <time>2018-01-09T10:18:38Z</time>
      </trkpt>
      <trkpt lat="42.100392" lon="2.219347">
        <ele>564.285</ele>
        <time>2018-01-09T10:18:42Z</time>
      </trkpt>
      <trkpt lat="42.100342" lon="2.219349">
        <ele>563.989</ele>
        <time>2018-01-09T10:18:46Z</time>
      </trkpt>
      <trkpt lat="42.100289" lon="2.219358">
        <ele>563.917</ele>
        <time>2018-01-09T10:18:50Z</time>
      </trkpt>
      <trkpt lat="42.100243" lon="2.219359">
        <ele>564.008</ele>
        <time>2018-01-09T10:18:54Z</time>
      </trkpt>
      <trkpt lat="42.100190" lon="2.219365">
        <ele>564.030</ele>
        <time>2018-01-09T10:18:58Z</time>
      </trkpt>
      <trkpt lat="42.100144" lon="2.219379">
        <ele>564.119</ele>
        <time>2018-01-09T10:19:02Z</time>
      </trkpt>
      <trkpt lat="42.100090" lon="2.219403">
        <ele>564.027</ele>
        <time>2018-01-09T10:19:06Z</time>
      </trkpt>
      <trkpt lat="42.100042" lon="2.219428">
        <ele>563.982</ele>
        <time>2018-01-09T10:19:10Z</time>
      </trkpt>
      <trkpt lat="42.099997" lon="2.219456">
        <ele>563.627</ele>
        <time>2018-01-09T10:19:14Z</time>
      </trkpt>
      <trkpt lat="42.099949" lon="2.219490">
        <ele>563.623</ele>
        <time>2018-01-09T10:19:18Z</time>
      </trkpt>
      <trkpt lat="42.099911" lon="2.219525">
        <ele>563.256</ele>
        <time>2018-01-09T10:19:22Z</time>
      </trkpt>
      <trkpt lat="42.099865" lon="2.219559">
        <ele>563.250</ele>
        <time>2018-01-09T10:19:26Z</time>
      </trkpt>
      <trkpt lat="42.099820" lon="2.219592">
        <ele>563.291</ele>
        <time>2018-01-09T10:19:30Z</time>
      </trkpt>
      <trkpt lat="42.099776" lon="2.219628">
        <ele>563.381</ele>
        <time>2018-01-09T10:19:34Z</time>
      </trkpt>
      <trkpt lat="42.099736" lon="2.219662">
        <ele>562.919</ele>
        <time>2018-01-09T10:19:38Z</time>
      </trkpt>
      <trkpt lat="42.099688" lon="2.219695">
        <ele>562.208</ele>
        <time>2018-01-09T10:19:42Z</time>
      </trkpt>
      <trkpt lat="42.099646" lon="2.219730">
        <ele>562.541</ele>
        <time>2018-01-09T10:19:46Z</time>
      </trkpt>
      <trkpt lat="42.099604" lon="2.219764">
        <ele>562.420</ele>
        <time>2018-01-09T10:19:50Z</time>
      </trkpt>
      <trkpt lat="42.099565" lon="2.219809">
        <ele>562.268</ele>
        <time>2018-01-09T10:19:54Z</time>
      </trkpt>
      <trkpt lat="42.099525" lon="2.219861">
        <ele>561.893</ele>
        <time>2018-01-09T10:19:58Z</time>
      </trkpt>
      <trkpt lat="42.099484" lon="2.219899">
        <ele>561.588</ele>
        <time>2018-01-09T10:20:02Z</time>
      </trkpt>
      <trkpt lat="42.099441" lon="2.219939">
        <ele>561.274</ele>
        <time>2018-01-09T10:20:06Z</time>
      </trkpt>
      <trkpt lat="42.099402" lon="2.219983">
        <ele>561.377</ele>
        <time>2018-01-09T10:20:10Z</time>
      </trkpt>
      <trkpt lat="42.099365" lon="2.220028">
        <ele>561.071</ele>
        <time>2018-01-09T10:20:14Z</time>
      </trkpt>
      <trkpt lat="42.099329" lon="2.220064">
        <ele>561.277</ele>
        <time>2018-01-09T10:20:18Z</time>
      </trkpt>
      <trkpt lat="42.099289" lon="2.220107">
        <ele>561.161</ele>
        <time>2018-01-09T10:20:22Z</time>
      </trkpt>
      <trkpt lat="42.099248" lon="2.220153">
        <ele>561.327</ele>
        <time>2018-01-09T10:20:26Z</time>
      </trkpt>
      <trkpt lat="42.099206" lon="2.220196">
        <ele>561.108</ele>
        <time>2018-01-09T10:20:30Z</time>
      </trkpt>
      <trkpt lat="42.099173" lon="2.220240">
        <ele>560.989</ele>
        <time>2018-01-09T10:20:34Z</time>
      </trkpt>
      <trkpt lat="42.099140" lon="2.220283">
        <ele>560.518</ele>
        <time>2018-01-09T10:20:38Z</time>
      </trkpt>
      <trkpt lat="42.099108" lon="2.220333">
        <ele>560.596</ele>
        <time>2018-01-09T10:20:42Z</time>
      </trkpt>
      <trkpt lat="42.099071" lon="2.220383">
        <ele>560.171</ele>
        <time>2018-01-09T10:20:46Z</time>
      </trkpt>
      <trkpt lat="42.099039" lon="2.220448">
        <ele>560.036</ele>
        <time>2018-01-09T10:20:50Z</time>
      </trkpt>
      <trkpt lat="42.099042" lon="2.220523">
        <ele>560.172</ele>
        <time>2018-01-09T10:20:54Z</time>
      </trkpt>
      <trkpt lat="42.099074" lon="2.220569">
        <ele>560.625</ele>
        <time>2018-01-09T10:20:57Z</time>
      </trkpt>
      <trkpt lat="42.099114" lon="2.220606">
        <ele>560.349</ele>
        <time>2018-01-09T10:21:00Z</time>
      </trkpt>
      <trkpt lat="42.099160" lon="2.220656">
        <ele>560.521</ele>
        <time>2018-01-09T10:21:04Z</time>
      </trkpt>
      <trkpt lat="42.099198" lon="2.220705">
        <ele>560.541</ele>
        <time>2018-01-09T10:21:08Z</time>
      </trkpt>
      <trkpt lat="42.099234" lon="2.220750">
        <ele>561.105</ele>
        <time>2018-01-09T10:21:12Z</time>
      </trkpt>
      <trkpt lat="42.099275" lon="2.220787">
        <ele>561.008</ele>
        <time>2018-01-09T10:21:16Z</time>
      </trkpt>
      <trkpt lat="42.099313" lon="2.220823">
        <ele>561.374</ele>
        <time>2018-01-09T10:21:20Z</time>
      </trkpt>
      <trkpt lat="42.099353" lon="2.220856">
        <ele>561.453</ele>
        <time>2018-01-09T10:21:25Z</time>
      </trkpt>
      <trkpt lat="42.099387" lon="2.220904">
        <ele>561.741</ele>
        <time>2018-01-09T10:21:31Z</time>
      </trkpt>
      <trkpt lat="42.099412" lon="2.220966">
        <ele>561.716</ele>
        <time>2018-01-09T10:21:35Z</time>
      </trkpt>
      <trkpt lat="42.099417" lon="2.221047">
        <ele>561.121</ele>
        <time>2018-01-09T10:21:39Z</time>
      </trkpt>
      <trkpt lat="42.099407" lon="2.221107">
        <ele>561.327</ele>
        <time>2018-01-09T10:21:42Z</time>
      </trkpt>
      <trkpt lat="42.099384" lon="2.221180">
        <ele>561.520</ele>
        <time>2018-01-09T10:21:46Z</time>
      </trkpt>
      <trkpt lat="42.099366" lon="2.221249">
        <ele>561.644</ele>
        <time>2018-01-09T10:21:50Z</time>
      </trkpt>
      <trkpt lat="42.099345" lon="2.221316">
        <ele>561.416</ele>
        <time>2018-01-09T10:21:54Z</time>
      </trkpt>
      <trkpt lat="42.099322" lon="2.221380">
        <ele>562.276</ele>
        <time>2018-01-09T10:21:58Z</time>
      </trkpt>
      <trkpt lat="42.099295" lon="2.221429">
        <ele>562.413</ele>
        <time>2018-01-09T10:22:01Z</time>
      </trkpt>
      <trkpt lat="42.099267" lon="2.221478">
        <ele>562.208</ele>
        <time>2018-01-09T10:22:04Z</time>
      </trkpt>
      <trkpt lat="42.099236" lon="2.221535">
        <ele>562.153</ele>
        <time>2018-01-09T10:22:08Z</time>
      </trkpt>
      <trkpt lat="42.099198" lon="2.221593">
        <ele>562.272</ele>
        <time>2018-01-09T10:22:12Z</time>
      </trkpt>
      <trkpt lat="42.099167" lon="2.221649">
        <ele>561.920</ele>
        <time>2018-01-09T10:22:16Z</time>
      </trkpt>
      <trkpt lat="42.099139" lon="2.221704">
        <ele>561.225</ele>
        <time>2018-01-09T10:22:20Z</time>
      </trkpt>
      <trkpt lat="42.099112" lon="2.221754">
        <ele>561.140</ele>
        <time>2018-01-09T10:22:24Z</time>
      </trkpt>
      <trkpt lat="42.099081" lon="2.221819">
        <ele>561.276</ele>
        <time>2018-01-09T10:22:29Z</time>
      </trkpt>
      <trkpt lat="42.099051" lon="2.221879">
        <ele>561.469</ele>
        <time>2018-01-09T10:22:33Z</time>
      </trkpt>
      <trkpt lat="42.099023" lon="2.221934">
        <ele>561.413</ele>
        <time>2018-01-09T10:22:37Z</time>
      </trkpt>
      <trkpt lat="42.098993" lon="2.221994">
        <ele>561.678</ele>
        <time>2018-01-09T10:22:42Z</time>
      </trkpt>
      <trkpt lat="42.098960" lon="2.222043">
        <ele>561.933</ele>
        <time>2018-01-09T10:22:46Z</time>
      </trkpt>
      <trkpt lat="42.098923" lon="2.222096">
        <ele>561.826</ele>
        <time>2018-01-09T10:22:50Z</time>
      </trkpt>
      <trkpt lat="42.098884" lon="2.222141">
        <ele>561.808</ele>
        <time>2018-01-09T10:22:54Z</time>
      </trkpt>
      <trkpt lat="42.098845" lon="2.222192">
        <ele>561.839</ele>
        <time>2018-01-09T10:22:58Z</time>
      </trkpt>
      <trkpt lat="42.098811" lon="2.222249">
        <ele>561.798</ele>
        <time>2018-01-09T10:23:02Z</time>
      </trkpt>
      <trkpt lat="42.098783" lon="2.222307">
        <ele>561.396</ele>
        <time>2018-01-09T10:23:06Z</time>
      </trkpt>
      <trkpt lat="42.098756" lon="2.222374">
        <ele>561.321</ele>
        <time>2018-01-09T10:23:10Z</time>
      </trkpt>
      <trkpt lat="42.098735" lon="2.222432">
        <ele>561.066</ele>
        <time>2018-01-09T10:23:14Z</time>
      </trkpt>
      <trkpt lat="42.098702" lon="2.222485">
        <ele>560.092</ele>
        <time>2018-01-09T10:23:19Z</time>
      </trkpt>
      <trkpt lat="42.098668" lon="2.222540">
        <ele>559.415</ele>
        <time>2018-01-09T10:23:23Z</time>
      </trkpt>
      <trkpt lat="42.098643" lon="2.222593">
        <ele>558.499</ele>
        <time>2018-01-09T10:23:27Z</time>
      </trkpt>
      <trkpt lat="42.098617" lon="2.222645">
        <ele>558.752</ele>
        <time>2018-01-09T10:23:31Z</time>
      </trkpt>
      <trkpt lat="42.098581" lon="2.222699">
        <ele>558.253</ele>
        <time>2018-01-09T10:23:35Z</time>
      </trkpt>
      <trkpt lat="42.098544" lon="2.222752">
        <ele>558.008</ele>
        <time>2018-01-09T10:23:39Z</time>
      </trkpt>
      <trkpt lat="42.098506" lon="2.222814">
        <ele>557.408</ele>
        <time>2018-01-09T10:23:43Z</time>
      </trkpt>
      <trkpt lat="42.098476" lon="2.222876">
        <ele>557.867</ele>
        <time>2018-01-09T10:23:47Z</time>
      </trkpt>
      <trkpt lat="42.098452" lon="2.222938">
        <ele>556.356</ele>
        <time>2018-01-09T10:23:51Z</time>
      </trkpt>
      <trkpt lat="42.098437" lon="2.222998">
        <ele>554.954</ele>
        <time>2018-01-09T10:23:55Z</time>
      </trkpt>
      <trkpt lat="42.098420" lon="2.223069">
        <ele>555.729</ele>
        <time>2018-01-09T10:24:00Z</time>
      </trkpt>
      <trkpt lat="42.098407" lon="2.223127">
        <ele>555.664</ele>
        <time>2018-01-09T10:24:04Z</time>
      </trkpt>
      <trkpt lat="42.098406" lon="2.223190">
        <ele>555.620</ele>
        <time>2018-01-09T10:24:08Z</time>
      </trkpt>
      <trkpt lat="42.098414" lon="2.223252">
        <ele>556.533</ele>
        <time>2018-01-09T10:24:13Z</time>
      </trkpt>
      <trkpt lat="42.098388" lon="2.223329">
        <ele>555.987</ele>
        <time>2018-01-09T10:24:17Z</time>
      </trkpt>
      <trkpt lat="42.098389" lon="2.223394">
        <ele>555.695</ele>
        <time>2018-01-09T10:24:20Z</time>
      </trkpt>
      <trkpt lat="42.098408" lon="2.223466">
        <ele>554.849</ele>
        <time>2018-01-09T10:24:25Z</time>
      </trkpt>
      <trkpt lat="42.098394" lon="2.223526">
        <ele>555.223</ele>
        <time>2018-01-09T10:24:29Z</time>
      </trkpt>
      <trkpt lat="42.098393" lon="2.223595">
        <ele>555.708</ele>
        <time>2018-01-09T10:24:34Z</time>
      </trkpt>
      <trkpt lat="42.098397" lon="2.223669">
        <ele>556.131</ele>
        <time>2018-01-09T10:24:39Z</time>
      </trkpt>
      <trkpt lat="42.098395" lon="2.223730">
        <ele>556.320</ele>
        <time>2018-01-09T10:24:42Z</time>
      </trkpt>
      <trkpt lat="42.098398" lon="2.223801">
        <ele>556.838</ele>
        <time>2018-01-09T10:24:46Z</time>
      </trkpt>
      <trkpt lat="42.098397" lon="2.223878">
        <ele>557.063</ele>
        <time>2018-01-09T10:24:51Z</time>
      </trkpt>
      <trkpt lat="42.098396" lon="2.223950">
        <ele>557.258</ele>
        <time>2018-01-09T10:24:56Z</time>
      </trkpt>
      <trkpt lat="42.098404" lon="2.224022">
        <ele>556.074</ele>
        <time>2018-01-09T10:25:02Z</time>
      </trkpt>
      <trkpt lat="42.098411" lon="2.224096">
        <ele>557.847</ele>
        <time>2018-01-09T10:25:07Z</time>
      </trkpt>
      <trkpt lat="42.098416" lon="2.224170">
        <ele>558.241</ele>
        <time>2018-01-09T10:25:11Z</time>
      </trkpt>
      <trkpt lat="42.098411" lon="2.224235">
        <ele>558.541</ele>
        <time>2018-01-09T10:25:14Z</time>
      </trkpt>
      <trkpt lat="42.098409" lon="2.224303">
        <ele>558.081</ele>
        <time>2018-01-09T10:25:18Z</time>
      </trkpt>
      <trkpt lat="42.098392" lon="2.224374">
        <ele>558.509</ele>
        <time>2018-01-09T10:25:35Z</time>
      </trkpt>
      <trkpt lat="42.098406" lon="2.224437">
        <ele>558.508</ele>
        <time>2018-01-09T10:25:39Z</time>
      </trkpt>
      <trkpt lat="42.098415" lon="2.224501">
        <ele>559.616</ele>
        <time>2018-01-09T10:25:42Z</time>
      </trkpt>
      <trkpt lat="42.098420" lon="2.224569">
        <ele>559.225</ele>
        <time>2018-01-09T10:25:46Z</time>
      </trkpt>
      <trkpt lat="42.098428" lon="2.224634">
        <ele>558.393</ele>
        <time>2018-01-09T10:25:49Z</time>
      </trkpt>
      <trkpt lat="42.098429" lon="2.224697">
        <ele>559.188</ele>
        <time>2018-01-09T10:25:52Z</time>
      </trkpt>
      <trkpt lat="42.098441" lon="2.224758">
        <ele>558.393</ele>
        <time>2018-01-09T10:25:56Z</time>
      </trkpt>
      <trkpt lat="42.098464" lon="2.224826">
        <ele>559.619</ele>
        <time>2018-01-09T10:26:00Z</time>
      </trkpt>
      <trkpt lat="42.098487" lon="2.224898">
        <ele>559.382</ele>
        <time>2018-01-09T10:26:04Z</time>
      </trkpt>
      <trkpt lat="42.098508" lon="2.224964">
        <ele>558.736</ele>
        <time>2018-01-09T10:26:08Z</time>
      </trkpt>
      <trkpt lat="42.098524" lon="2.225023">
        <ele>558.881</ele>
        <time>2018-01-09T10:26:12Z</time>
      </trkpt>
      <trkpt lat="42.098545" lon="2.225092">
        <ele>560.261</ele>
        <time>2018-01-09T10:26:17Z</time>
      </trkpt>
      <trkpt lat="42.098562" lon="2.225156">
        <ele>559.917</ele>
        <time>2018-01-09T10:26:21Z</time>
      </trkpt>
      <trkpt lat="42.098579" lon="2.225226">
        <ele>561.408</ele>
        <time>2018-01-09T10:26:25Z</time>
      </trkpt>
      <trkpt lat="42.098583" lon="2.225290">
        <ele>562.390</ele>
        <time>2018-01-09T10:26:28Z</time>
      </trkpt>
      <trkpt lat="42.098600" lon="2.225361">
        <ele>563.349</ele>
        <time>2018-01-09T10:26:32Z</time>
      </trkpt>
      <trkpt lat="42.098638" lon="2.225421">
        <ele>563.597</ele>
        <time>2018-01-09T10:26:35Z</time>
      </trkpt>
      <trkpt lat="42.098642" lon="2.225499">
        <ele>563.812</ele>
        <time>2018-01-09T10:26:39Z</time>
      </trkpt>
      <trkpt lat="42.098644" lon="2.225572">
        <ele>563.667</ele>
        <time>2018-01-09T10:26:42Z</time>
      </trkpt>
      <trkpt lat="42.098648" lon="2.225641">
        <ele>563.383</ele>
        <time>2018-01-09T10:26:46Z</time>
      </trkpt>
      <trkpt lat="42.098651" lon="2.225714">
        <ele>564.256</ele>
        <time>2018-01-09T10:26:50Z</time>
      </trkpt>
      <trkpt lat="42.098650" lon="2.225795">
        <ele>564.350</ele>
        <time>2018-01-09T10:26:54Z</time>
      </trkpt>
      <trkpt lat="42.098649" lon="2.225865">
        <ele>565.518</ele>
        <time>2018-01-09T10:26:58Z</time>
      </trkpt>
      <trkpt lat="42.098657" lon="2.225939">
        <ele>565.098</ele>
        <time>2018-01-09T10:27:02Z</time>
      </trkpt>
      <trkpt lat="42.098656" lon="2.226007">
        <ele>566.217</ele>
        <time>2018-01-09T10:27:06Z</time>
      </trkpt>
      <trkpt lat="42.098654" lon="2.226070">
        <ele>565.408</ele>
        <time>2018-01-09T10:27:10Z</time>
      </trkpt>
      <trkpt lat="42.098648" lon="2.226145">
        <ele>565.893</ele>
        <time>2018-01-09T10:27:15Z</time>
      </trkpt>
      <trkpt lat="42.098637" lon="2.226204">
        <ele>565.552</ele>
        <time>2018-01-09T10:27:19Z</time>
      </trkpt>
      <trkpt lat="42.098620" lon="2.226277">
        <ele>564.260</ele>
        <time>2018-01-09T10:27:24Z</time>
      </trkpt>
      <trkpt lat="42.098590" lon="2.226334">
        <ele>563.225</ele>
        <time>2018-01-09T10:27:28Z</time>
      </trkpt>
      <trkpt lat="42.098565" lon="2.226395">
        <ele>562.750</ele>
        <time>2018-01-09T10:27:32Z</time>
      </trkpt>
      <trkpt lat="42.098550" lon="2.226454">
        <ele>563.016</ele>
        <time>2018-01-09T10:27:36Z</time>
      </trkpt>
      <trkpt lat="42.098539" lon="2.226514">
        <ele>563.069</ele>
        <time>2018-01-09T10:27:40Z</time>
      </trkpt>
      <trkpt lat="42.098529" lon="2.226573">
        <ele>563.293</ele>
        <time>2018-01-09T10:27:44Z</time>
      </trkpt>
      <trkpt lat="42.098516" lon="2.226639">
        <ele>562.434</ele>
        <time>2018-01-09T10:27:48Z</time>
      </trkpt>
      <trkpt lat="42.098502" lon="2.226703">
        <ele>562.155</ele>
        <time>2018-01-09T10:27:52Z</time>
      </trkpt>
      <trkpt lat="42.098485" lon="2.226765">
        <ele>561.110</ele>
        <time>2018-01-09T10:27:56Z</time>
      </trkpt>
      <trkpt lat="42.098476" lon="2.226837">
        <ele>560.408</ele>
        <time>2018-01-09T10:28:01Z</time>
      </trkpt>
      <trkpt lat="42.098479" lon="2.226906">
        <ele>560.625</ele>
        <time>2018-01-09T10:28:05Z</time>
      </trkpt>
      <trkpt lat="42.098474" lon="2.226966">
        <ele>560.684</ele>
        <time>2018-01-09T10:28:09Z</time>
      </trkpt>
      <trkpt lat="42.098442" lon="2.227025">
        <ele>560.112</ele>
        <time>2018-01-09T10:28:14Z</time>
      </trkpt>
      <trkpt lat="42.098410" lon="2.227084">
        <ele>560.737</ele>
        <time>2018-01-09T10:28:18Z</time>
      </trkpt>
      <trkpt lat="42.098369" lon="2.227123">
        <ele>560.782</ele>
        <time>2018-01-09T10:28:22Z</time>
      </trkpt>
      <trkpt lat="42.098326" lon="2.227157">
        <ele>560.678</ele>
        <time>2018-01-09T10:28:25Z</time>
      </trkpt>
      <trkpt lat="42.098289" lon="2.227192">
        <ele>560.871</ele>
        <time>2018-01-09T10:28:28Z</time>
      </trkpt>
      <trkpt lat="42.098253" lon="2.227235">
        <ele>561.125</ele>
        <time>2018-01-09T10:28:32Z</time>
      </trkpt>
      <trkpt lat="42.098218" lon="2.227279">
        <ele>561.252</ele>
        <time>2018-01-09T10:28:36Z</time>
      </trkpt>
      <trkpt lat="42.098181" lon="2.227316">
        <ele>561.553</ele>
        <time>2018-01-09T10:28:39Z</time>
      </trkpt>
      <trkpt lat="42.098146" lon="2.227357">
        <ele>560.908</ele>
        <time>2018-01-09T10:28:42Z</time>
      </trkpt>
      <trkpt lat="42.098109" lon="2.227397">
        <ele>561.308</ele>
        <time>2018-01-09T10:28:45Z</time>
      </trkpt>
      <trkpt lat="42.098064" lon="2.227438">
        <ele>561.227</ele>
        <time>2018-01-09T10:28:49Z</time>
      </trkpt>
      <trkpt lat="42.098020" lon="2.227478">
        <ele>561.316</ele>
        <time>2018-01-09T10:28:53Z</time>
      </trkpt>
      <trkpt lat="42.097973" lon="2.227523">
        <ele>561.754</ele>
        <time>2018-01-09T10:28:57Z</time>
      </trkpt>
      <trkpt lat="42.097934" lon="2.227561">
        <ele>561.039</ele>
        <time>2018-01-09T10:29:02Z</time>
      </trkpt>
      <trkpt lat="42.097890" lon="2.227607">
        <ele>560.924</ele>
        <time>2018-01-09T10:29:07Z</time>
      </trkpt>
      <trkpt lat="42.097851" lon="2.227645">
        <ele>560.650</ele>
        <time>2018-01-09T10:29:11Z</time>
      </trkpt>
      <trkpt lat="42.097815" lon="2.227682">
        <ele>559.583</ele>
        <time>2018-01-09T10:29:15Z</time>
      </trkpt>
      <trkpt lat="42.097769" lon="2.227722">
        <ele>559.747</ele>
        <time>2018-01-09T10:29:19Z</time>
      </trkpt>
      <trkpt lat="42.097732" lon="2.227757">
        <ele>559.761</ele>
        <time>2018-01-09T10:29:22Z</time>
      </trkpt>
      <trkpt lat="42.097689" lon="2.227802">
        <ele>560.221</ele>
        <time>2018-01-09T10:29:26Z</time>
      </trkpt>
      <trkpt lat="42.097651" lon="2.227838">
        <ele>560.913</ele>
        <time>2018-01-09T10:29:29Z</time>
      </trkpt>
      <trkpt lat="42.097610" lon="2.227879">
        <ele>561.008</ele>
        <time>2018-01-09T10:29:32Z</time>
      </trkpt>
      <trkpt lat="42.097564" lon="2.227923">
        <ele>560.218</ele>
        <time>2018-01-09T10:29:36Z</time>
      </trkpt>
      <trkpt lat="42.097520" lon="2.227965">
        <ele>560.297</ele>
        <time>2018-01-09T10:29:40Z</time>
      </trkpt>
      <trkpt lat="42.097474" lon="2.228006">
        <ele>560.425</ele>
        <time>2018-01-09T10:29:44Z</time>
      </trkpt>
      <trkpt lat="42.097435" lon="2.228045">
        <ele>560.440</ele>
        <time>2018-01-09T10:29:47Z</time>
      </trkpt>
      <trkpt lat="42.097393" lon="2.228094">
        <ele>560.045</ele>
        <time>2018-01-09T10:29:51Z</time>
      </trkpt>
      <trkpt lat="42.097350" lon="2.228140">
        <ele>560.191</ele>
        <time>2018-01-09T10:29:55Z</time>
      </trkpt>
      <trkpt lat="42.097309" lon="2.228184">
        <ele>560.034</ele>
        <time>2018-01-09T10:29:59Z</time>
      </trkpt>
      <trkpt lat="42.097272" lon="2.228222">
        <ele>560.088</ele>
        <time>2018-01-09T10:30:03Z</time>
      </trkpt>
      <trkpt lat="42.097235" lon="2.228262">
        <ele>560.597</ele>
        <time>2018-01-09T10:30:06Z</time>
      </trkpt>
      <trkpt lat="42.097194" lon="2.228301">
        <ele>559.723</ele>
        <time>2018-01-09T10:30:10Z</time>
      </trkpt>
      <trkpt lat="42.097147" lon="2.228332">
        <ele>560.225</ele>
        <time>2018-01-09T10:30:14Z</time>
      </trkpt>
      <trkpt lat="42.097105" lon="2.228366">
        <ele>560.308</ele>
        <time>2018-01-09T10:30:18Z</time>
      </trkpt>
      <trkpt lat="42.097065" lon="2.228399">
        <ele>560.331</ele>
        <time>2018-01-09T10:30:22Z</time>
      </trkpt>
      <trkpt lat="42.097028" lon="2.228448">
        <ele>558.810</ele>
        <time>2018-01-09T10:30:27Z</time>
      </trkpt>
      <trkpt lat="42.096997" lon="2.228497">
        <ele>558.338</ele>
        <time>2018-01-09T10:30:31Z</time>
      </trkpt>
      <trkpt lat="42.096969" lon="2.228549">
        <ele>558.463</ele>
        <time>2018-01-09T10:30:36Z</time>
      </trkpt>
      <trkpt lat="42.096925" lon="2.228593">
        <ele>559.428</ele>
        <time>2018-01-09T10:30:40Z</time>
      </trkpt>
      <trkpt lat="42.096882" lon="2.228642">
        <ele>558.694</ele>
        <time>2018-01-09T10:30:44Z</time>
      </trkpt>
      <trkpt lat="42.096859" lon="2.228697">
        <ele>557.717</ele>
        <time>2018-01-09T10:30:48Z</time>
      </trkpt>
      <trkpt lat="42.096840" lon="2.228753">
        <ele>558.121</ele>
        <time>2018-01-09T10:30:52Z</time>
      </trkpt>
      <trkpt lat="42.096832" lon="2.228814">
        <ele>556.941</ele>
        <time>2018-01-09T10:30:56Z</time>
      </trkpt>
      <trkpt lat="42.096838" lon="2.228893">
        <ele>557.381</ele>
        <time>2018-01-09T10:31:00Z</time>
      </trkpt>
      <trkpt lat="42.096847" lon="2.228953">
        <ele>557.609</ele>
        <time>2018-01-09T10:31:03Z</time>
      </trkpt>
      <trkpt lat="42.096866" lon="2.229008">
        <ele>558.008</ele>
        <time>2018-01-09T10:31:06Z</time>
      </trkpt>
      <trkpt lat="42.096910" lon="2.229055">
        <ele>558.296</ele>
        <time>2018-01-09T10:31:09Z</time>
      </trkpt>
      <trkpt lat="42.096946" lon="2.229094">
        <ele>558.975</ele>
        <time>2018-01-09T10:31:12Z</time>
      </trkpt>
      <trkpt lat="42.096985" lon="2.229135">
        <ele>559.623</ele>
        <time>2018-01-09T10:31:17Z</time>
      </trkpt>
      <trkpt lat="42.097028" lon="2.229173">
        <ele>560.638</ele>
        <time>2018-01-09T10:31:22Z</time>
      </trkpt>
      <trkpt lat="42.097073" lon="2.229203">
        <ele>561.373</ele>
        <time>2018-01-09T10:31:26Z</time>
      </trkpt>
      <trkpt lat="42.097116" lon="2.229229">
        <ele>562.489</ele>
        <time>2018-01-09T10:31:30Z</time>
      </trkpt>
      <trkpt lat="42.097163" lon="2.229253">
        <ele>562.572</ele>
        <time>2018-01-09T10:31:36Z</time>
      </trkpt>
      <trkpt lat="42.097215" lon="2.229276">
        <ele>562.026</ele>
        <time>2018-01-09T10:31:41Z</time>
      </trkpt>
      <trkpt lat="42.097265" lon="2.229294">
        <ele>561.885</ele>
        <time>2018-01-09T10:31:44Z</time>
      </trkpt>
      <trkpt lat="42.097318" lon="2.229302">
        <ele>561.289</ele>
        <time>2018-01-09T10:31:48Z</time>
      </trkpt>
      <trkpt lat="42.097370" lon="2.229321">
        <ele>560.317</ele>
        <time>2018-01-09T10:31:52Z</time>
      </trkpt>
      <trkpt lat="42.097415" lon="2.229355">
        <ele>561.108</ele>
        <time>2018-01-09T10:31:56Z</time>
      </trkpt>
      <trkpt lat="42.097465" lon="2.229387">
        <ele>561.830</ele>
        <time>2018-01-09T10:32:00Z</time>
      </trkpt>
      <trkpt lat="42.097511" lon="2.229413">
        <ele>561.759</ele>
        <time>2018-01-09T10:32:04Z</time>
      </trkpt>
      <trkpt lat="42.097557" lon="2.229434">
        <ele>561.027</ele>
        <time>2018-01-09T10:32:08Z</time>
      </trkpt>
      <trkpt lat="42.097600" lon="2.229452">
        <ele>561.392</ele>
        <time>2018-01-09T10:32:11Z</time>
      </trkpt>
      <trkpt lat="42.097650" lon="2.229468">
        <ele>561.357</ele>
        <time>2018-01-09T10:32:14Z</time>
      </trkpt>
      <trkpt lat="42.097707" lon="2.229488">
        <ele>561.583</ele>
        <time>2018-01-09T10:32:18Z</time>
      </trkpt>
      <trkpt lat="42.097751" lon="2.229514">
        <ele>562.466</ele>
        <time>2018-01-09T10:32:22Z</time>
      </trkpt>
      <trkpt lat="42.097800" lon="2.229543">
        <ele>562.380</ele>
        <time>2018-01-09T10:32:27Z</time>
      </trkpt>
      <trkpt lat="42.097843" lon="2.229574">
        <ele>562.993</ele>
        <time>2018-01-09T10:32:42Z</time>
      </trkpt>
      <trkpt lat="42.097890" lon="2.229606">
        <ele>562.865</ele>
        <time>2018-01-09T10:32:46Z</time>
      </trkpt>
      <trkpt lat="42.097934" lon="2.229639">
        <ele>562.921</ele>
        <time>2018-01-09T10:32:51Z</time>
      </trkpt>
      <trkpt lat="42.097980" lon="2.229681">
        <ele>562.608</ele>
        <time>2018-01-09T10:32:56Z</time>
      </trkpt>
      <trkpt lat="42.098022" lon="2.229722">
        <ele>561.621</ele>
        <time>2018-01-09T10:33:00Z</time>
      </trkpt>
      <trkpt lat="42.098065" lon="2.229752">
        <ele>561.510</ele>
        <time>2018-01-09T10:33:03Z</time>
      </trkpt>
      <trkpt lat="42.098110" lon="2.229772">
        <ele>561.348</ele>
        <time>2018-01-09T10:33:07Z</time>
      </trkpt>
      <trkpt lat="42.098160" lon="2.229814">
        <ele>561.673</ele>
        <time>2018-01-09T10:33:11Z</time>
      </trkpt>
      <trkpt lat="42.098210" lon="2.229838">
        <ele>561.498</ele>
        <time>2018-01-09T10:33:15Z</time>
      </trkpt>
      <trkpt lat="42.098254" lon="2.229878">
        <ele>561.634</ele>
        <time>2018-01-09T10:33:19Z</time>
      </trkpt>
      <trkpt lat="42.098299" lon="2.229910">
        <ele>561.547</ele>
        <time>2018-01-09T10:33:23Z</time>
      </trkpt>
      <trkpt lat="42.098344" lon="2.229949">
        <ele>561.461</ele>
        <time>2018-01-09T10:33:27Z</time>
      </trkpt>
      <trkpt lat="42.098386" lon="2.229989">
        <ele>561.626</ele>
        <time>2018-01-09T10:33:31Z</time>
      </trkpt>
      <trkpt lat="42.098435" lon="2.230025">
        <ele>562.647</ele>
        <time>2018-01-09T10:33:37Z</time>
      </trkpt>
      <trkpt lat="42.098479" lon="2.230055">
        <ele>562.711</ele>
        <time>2018-01-09T10:33:41Z</time>
      </trkpt>
      <trkpt lat="42.098533" lon="2.230087">
        <ele>562.608</ele>
        <time>2018-01-09T10:33:45Z</time>
      </trkpt>
      <trkpt lat="42.098582" lon="2.230133">
        <ele>562.844</ele>
        <time>2018-01-09T10:33:49Z</time>
      </trkpt>
      <trkpt lat="42.098624" lon="2.230182">
        <ele>562.623</ele>
        <time>2018-01-09T10:33:53Z</time>
      </trkpt>
      <trkpt lat="42.098665" lon="2.230217">
        <ele>562.681</ele>
        <time>2018-01-09T10:33:56Z</time>
      </trkpt>
      <trkpt lat="42.098706" lon="2.230254">
        <ele>562.256</ele>
        <time>2018-01-09T10:34:00Z</time>
      </trkpt>
      <trkpt lat="42.098746" lon="2.230285">
        <ele>562.241</ele>
        <time>2018-01-09T10:34:03Z</time>
      </trkpt>
      <trkpt lat="42.098785" lon="2.230331">
        <ele>562.277</ele>
        <time>2018-01-09T10:34:07Z</time>
      </trkpt>
      <trkpt lat="42.098827" lon="2.230379">
        <ele>562.140</ele>
        <time>2018-01-09T10:34:11Z</time>
      </trkpt>
      <trkpt lat="42.098860" lon="2.230422">
        <ele>561.794</ele>
        <time>2018-01-09T10:34:15Z</time>
      </trkpt>
      <trkpt lat="42.098897" lon="2.230473">
        <ele>561.281</ele>
        <time>2018-01-09T10:34:19Z</time>
      </trkpt>
      <trkpt lat="42.098934" lon="2.230525">
        <ele>561.561</ele>
        <time>2018-01-09T10:34:23Z</time>
      </trkpt>
      <trkpt lat="42.098973" lon="2.230582">
        <ele>562.417</ele>
        <time>2018-01-09T10:34:28Z</time>
      </trkpt>
      <trkpt lat="42.099009" lon="2.230631">
        <ele>562.708</ele>
        <time>2018-01-09T10:34:32Z</time>
      </trkpt>
      <trkpt lat="42.099035" lon="2.230689">
        <ele>562.640</ele>
        <time>2018-01-09T10:34:36Z</time>
      </trkpt>
      <trkpt lat="42.099071" lon="2.230747">
        <ele>562.759</ele>
        <time>2018-01-09T10:34:41Z</time>
      </trkpt>
      <trkpt lat="42.099111" lon="2.230797">
        <ele>562.847</ele>
        <time>2018-01-09T10:34:45Z</time>
      </trkpt>
      <trkpt lat="42.099154" lon="2.230847">
        <ele>562.252</ele>
        <time>2018-01-09T10:34:49Z</time>
      </trkpt>
      <trkpt lat="42.099180" lon="2.230908">
        <ele>561.667</ele>
        <time>2018-01-09T10:34:53Z</time>
      </trkpt>
      <trkpt lat="42.099218" lon="2.230961">
        <ele>562.013</ele>
        <time>2018-01-09T10:34:58Z</time>
      </trkpt>
      <trkpt lat="42.099240" lon="2.231029">
        <ele>561.826</ele>
        <time>2018-01-09T10:35:02Z</time>
      </trkpt>
      <trkpt lat="42.099265" lon="2.231081">
        <ele>561.940</ele>
        <time>2018-01-09T10:35:05Z</time>
      </trkpt>
      <trkpt lat="42.099298" lon="2.231139">
        <ele>561.776</ele>
        <time>2018-01-09T10:35:09Z</time>
      </trkpt>
      <trkpt lat="42.099315" lon="2.231202">
        <ele>561.890</ele>
        <time>2018-01-09T10:35:13Z</time>
      </trkpt>
      <trkpt lat="42.099341" lon="2.231266">
        <ele>561.319</ele>
        <time>2018-01-09T10:35:17Z</time>
      </trkpt>
      <trkpt lat="42.099368" lon="2.231320">
        <ele>561.508</ele>
        <time>2018-01-09T10:35:21Z</time>
      </trkpt>
      <trkpt lat="42.099382" lon="2.231383">
        <ele>561.269</ele>
        <time>2018-01-09T10:35:25Z</time>
      </trkpt>
      <trkpt lat="42.099404" lon="2.231450">
        <ele>560.738</ele>
        <time>2018-01-09T10:35:29Z</time>
      </trkpt>
      <trkpt lat="42.099429" lon="2.231511">
        <ele>560.616</ele>
        <time>2018-01-09T10:35:33Z</time>
      </trkpt>
      <trkpt lat="42.099447" lon="2.231574">
        <ele>560.671</ele>
        <time>2018-01-09T10:35:37Z</time>
      </trkpt>
      <trkpt lat="42.099457" lon="2.231640">
        <ele>560.396</ele>
        <time>2018-01-09T10:35:41Z</time>
      </trkpt>
      <trkpt lat="42.099471" lon="2.231698">
        <ele>560.742</ele>
        <time>2018-01-09T10:35:44Z</time>
      </trkpt>
      <trkpt lat="42.099493" lon="2.231765">
        <ele>560.825</ele>
        <time>2018-01-09T10:35:48Z</time>
      </trkpt>
      <trkpt lat="42.099518" lon="2.231820">
        <ele>560.669</ele>
        <time>2018-01-09T10:35:52Z</time>
      </trkpt>
      <trkpt lat="42.099550" lon="2.231882">
        <ele>560.712</ele>
        <time>2018-01-09T10:35:57Z</time>
      </trkpt>
      <trkpt lat="42.099585" lon="2.231939">
        <ele>560.532</ele>
        <time>2018-01-09T10:36:05Z</time>
      </trkpt>
      <trkpt lat="42.099619" lon="2.231985">
        <ele>559.505</ele>
        <time>2018-01-09T10:36:10Z</time>
      </trkpt>
      <trkpt lat="42.099644" lon="2.232036">
        <ele>559.708</ele>
        <time>2018-01-09T10:36:15Z</time>
      </trkpt>
      <trkpt lat="42.099674" lon="2.232098">
        <ele>559.953</ele>
        <time>2018-01-09T10:36:20Z</time>
      </trkpt>
      <trkpt lat="42.099691" lon="2.232157">
        <ele>560.042</ele>
        <time>2018-01-09T10:36:24Z</time>
      </trkpt>
      <trkpt lat="42.099705" lon="2.232216">
        <ele>559.130</ele>
        <time>2018-01-09T10:36:29Z</time>
      </trkpt>
      <trkpt lat="42.099726" lon="2.232269">
        <ele>558.335</ele>
        <time>2018-01-09T10:36:48Z</time>
      </trkpt>
      <trkpt lat="42.099740" lon="2.232339">
        <ele>559.660</ele>
        <time>2018-01-09T10:36:53Z</time>
      </trkpt>
      <trkpt lat="42.099752" lon="2.232413">
        <ele>559.956</ele>
        <time>2018-01-09T10:36:58Z</time>
      </trkpt>
      <trkpt lat="42.099766" lon="2.232471">
        <ele>559.559</ele>
        <time>2018-01-09T10:37:02Z</time>
      </trkpt>
      <trkpt lat="42.099787" lon="2.232527">
        <ele>558.123</ele>
        <time>2018-01-09T10:37:06Z</time>
      </trkpt>
      <trkpt lat="42.099814" lon="2.232584">
        <ele>557.178</ele>
        <time>2018-01-09T10:37:11Z</time>
      </trkpt>
      <trkpt lat="42.099845" lon="2.232636">
        <ele>557.133</ele>
        <time>2018-01-09T10:37:15Z</time>
      </trkpt>
      <trkpt lat="42.099870" lon="2.232687">
        <ele>557.126</ele>
        <time>2018-01-09T10:37:19Z</time>
      </trkpt>
      <trkpt lat="42.099907" lon="2.232744">
        <ele>557.208</ele>
        <time>2018-01-09T10:37:24Z</time>
      </trkpt>
      <trkpt lat="42.099944" lon="2.232786">
        <ele>557.019</ele>
        <time>2018-01-09T10:37:28Z</time>
      </trkpt>
      <trkpt lat="42.099971" lon="2.232835">
        <ele>556.898</ele>
        <time>2018-01-09T10:37:32Z</time>
      </trkpt>
      <trkpt lat="42.099993" lon="2.232889">
        <ele>556.566</ele>
        <time>2018-01-09T10:37:36Z</time>
      </trkpt>
      <trkpt lat="42.100011" lon="2.232945">
        <ele>555.911</ele>
        <time>2018-01-09T10:37:40Z</time>
      </trkpt>
      <trkpt lat="42.100004" lon="2.233014">
        <ele>556.266</ele>
        <time>2018-01-09T10:37:45Z</time>
      </trkpt>
      <trkpt lat="42.099966" lon="2.233054">
        <ele>555.732</ele>
        <time>2018-01-09T10:37:54Z</time>
      </trkpt>
      <trkpt lat="42.099928" lon="2.233103">
        <ele>555.365</ele>
        <time>2018-01-09T10:38:03Z</time>
      </trkpt>
      <trkpt lat="42.099879" lon="2.233107">
        <ele>555.419</ele>
        <time>2018-01-09T10:38:08Z</time>
      </trkpt>
      <trkpt lat="42.099835" lon="2.233086">
        <ele>555.557</ele>
        <time>2018-01-09T10:38:12Z</time>
      </trkpt>
      <trkpt lat="42.099789" lon="2.233084">
        <ele>556.100</ele>
        <time>2018-01-09T10:38:16Z</time>
      </trkpt>
      <trkpt lat="42.099743" lon="2.233097">
        <ele>556.620</ele>
        <time>2018-01-09T10:38:20Z</time>
      </trkpt>
      <trkpt lat="42.099695" lon="2.233112">
        <ele>556.908</ele>
        <time>2018-01-09T10:38:25Z</time>
      </trkpt>
      <trkpt lat="42.099652" lon="2.233154">
        <ele>558.047</ele>
        <time>2018-01-09T10:38:31Z</time>
      </trkpt>
      <trkpt lat="42.099609" lon="2.233192">
        <ele>558.366</ele>
        <time>2018-01-09T10:38:35Z</time>
      </trkpt>
      <trkpt lat="42.099558" lon="2.233232">
        <ele>558.574</ele>
        <time>2018-01-09T10:38:39Z</time>
      </trkpt>
      <trkpt lat="42.099527" lon="2.233282">
        <ele>558.439</ele>
        <time>2018-01-09T10:38:43Z</time>
      </trkpt>
      <trkpt lat="42.099494" lon="2.233333">
        <ele>559.984</ele>
        <time>2018-01-09T10:39:11Z</time>
      </trkpt>
      <trkpt lat="42.099454" lon="2.233374">
        <ele>560.750</ele>
        <time>2018-01-09T10:39:48Z</time>
      </trkpt>
      <trkpt lat="42.099413" lon="2.233400">
        <ele>561.913</ele>
        <time>2018-01-09T10:39:52Z</time>
      </trkpt>
      <trkpt lat="42.099372" lon="2.233431">
        <ele>562.097</ele>
        <time>2018-01-09T10:39:56Z</time>
      </trkpt>
      <trkpt lat="42.099329" lon="2.233460">
        <ele>561.844</ele>
        <time>2018-01-09T10:40:00Z</time>
      </trkpt>
      <trkpt lat="42.099290" lon="2.233491">
        <ele>561.705</ele>
        <time>2018-01-09T10:40:04Z</time>
      </trkpt>
      <trkpt lat="42.099257" lon="2.233533">
        <ele>560.315</ele>
        <time>2018-01-09T10:40:20Z</time>
      </trkpt>
      <trkpt lat="42.099222" lon="2.233579">
        <ele>561.008</ele>
        <time>2018-01-09T10:40:24Z</time>
      </trkpt>
      <trkpt lat="42.099190" lon="2.233631">
        <ele>561.156</ele>
        <time>2018-01-09T10:40:28Z</time>
      </trkpt>
      <trkpt lat="42.099159" lon="2.233688">
        <ele>560.725</ele>
        <time>2018-01-09T10:40:32Z</time>
      </trkpt>
      <trkpt lat="42.099138" lon="2.233744">
        <ele>560.683</ele>
        <time>2018-01-09T10:40:36Z</time>
      </trkpt>
      <trkpt lat="42.099101" lon="2.233794">
        <ele>560.178</ele>
        <time>2018-01-09T10:40:41Z</time>
      </trkpt>
      <trkpt lat="42.099067" lon="2.233850">
        <ele>560.463</ele>
        <time>2018-01-09T10:41:11Z</time>
      </trkpt>
      <trkpt lat="42.099048" lon="2.233910">
        <ele>560.449</ele>
        <time>2018-01-09T10:41:15Z</time>
      </trkpt>
      <trkpt lat="42.099039" lon="2.233976">
        <ele>560.242</ele>
        <time>2018-01-09T10:41:19Z</time>
      </trkpt>
      <trkpt lat="42.099026" lon="2.234044">
        <ele>560.016</ele>
        <time>2018-01-09T10:41:23Z</time>
      </trkpt>
      <trkpt lat="42.099019" lon="2.234112">
        <ele>559.944</ele>
        <time>2018-01-09T10:41:27Z</time>
      </trkpt>
      <trkpt lat="42.099014" lon="2.234180">
        <ele>560.805</ele>
        <time>2018-01-09T10:41:30Z</time>
      </trkpt>
      <trkpt lat="42.099003" lon="2.234244">
        <ele>561.515</ele>
        <time>2018-01-09T10:41:33Z</time>
      </trkpt>
      <trkpt lat="42.098990" lon="2.234315">
        <ele>560.908</ele>
        <time>2018-01-09T10:41:37Z</time>
      </trkpt>
      <trkpt lat="42.098977" lon="2.234373">
        <ele>560.666</ele>
        <time>2018-01-09T10:41:41Z</time>
      </trkpt>
      <trkpt lat="42.098963" lon="2.234443">
        <ele>560.675</ele>
        <time>2018-01-09T10:41:45Z</time>
      </trkpt>
      <trkpt lat="42.098940" lon="2.234513">
        <ele>560.433</ele>
        <time>2018-01-09T10:41:49Z</time>
      </trkpt>
      <trkpt lat="42.098919" lon="2.234584">
        <ele>560.418</ele>
        <time>2018-01-09T10:41:53Z</time>
      </trkpt>
      <trkpt lat="42.098904" lon="2.234654">
        <ele>560.533</ele>
        <time>2018-01-09T10:41:57Z</time>
      </trkpt>
      <trkpt lat="42.098891" lon="2.234725">
        <ele>560.499</ele>
        <time>2018-01-09T10:42:01Z</time>
      </trkpt>
      <trkpt lat="42.098881" lon="2.234793">
        <ele>560.282</ele>
        <time>2018-01-09T10:42:05Z</time>
      </trkpt>
      <trkpt lat="42.098865" lon="2.234851">
        <ele>560.146</ele>
        <time>2018-01-09T10:42:08Z</time>
      </trkpt>
      <trkpt lat="42.098839" lon="2.234916">
        <ele>559.782</ele>
        <time>2018-01-09T10:42:16Z</time>
      </trkpt>
      <trkpt lat="42.098828" lon="2.234987">
        <ele>559.943</ele>
        <time>2018-01-09T10:42:20Z</time>
      </trkpt>
      <trkpt lat="42.098816" lon="2.235056">
        <ele>559.417</ele>
        <time>2018-01-09T10:42:24Z</time>
      </trkpt>
      <trkpt lat="42.098806" lon="2.235116">
        <ele>558.908</ele>
        <time>2018-01-09T10:42:28Z</time>
      </trkpt>
      <trkpt lat="42.098780" lon="2.235184">
        <ele>558.410</ele>
        <time>2018-01-09T10:42:32Z</time>
      </trkpt>
      <trkpt lat="42.098744" lon="2.235249">
        <ele>558.489</ele>
        <time>2018-01-09T10:42:36Z</time>
      </trkpt>
      <trkpt lat="42.098709" lon="2.235293">
        <ele>559.517</ele>
        <time>2018-01-09T10:42:39Z</time>
      </trkpt>
      <trkpt lat="42.098663" lon="2.235337">
        <ele>559.672</ele>
        <time>2018-01-09T10:42:43Z</time>
      </trkpt>
      <trkpt lat="42.098618" lon="2.235367">
        <ele>559.357</ele>
        <time>2018-01-09T10:42:47Z</time>
      </trkpt>
      <trkpt lat="42.098574" lon="2.235406">
        <ele>559.113</ele>
        <time>2018-01-09T10:42:50Z</time>
      </trkpt>
      <trkpt lat="42.098535" lon="2.235446">
        <ele>558.626</ele>
        <time>2018-01-09T10:42:53Z</time>
      </trkpt>
      <trkpt lat="42.098491" lon="2.235492">
        <ele>558.450</ele>
        <time>2018-01-09T10:42:57Z</time>
      </trkpt>
      <trkpt lat="42.098458" lon="2.235549">
        <ele>558.572</ele>
        <time>2018-01-09T10:43:01Z</time>
      </trkpt>
      <trkpt lat="42.098422" lon="2.235590">
        <ele>559.013</ele>
        <time>2018-01-09T10:43:05Z</time>
      </trkpt>
      <trkpt lat="42.098377" lon="2.235614">
        <ele>559.014</ele>
        <time>2018-01-09T10:43:09Z</time>
      </trkpt>
      <trkpt lat="42.098331" lon="2.235635">
        <ele>557.608</ele>
        <time>2018-01-09T10:43:13Z</time>
      </trkpt>
      <trkpt lat="42.098286" lon="2.235660">
        <ele>557.089</ele>
        <time>2018-01-09T10:43:17Z</time>
      </trkpt>
      <trkpt lat="42.098236" lon="2.235679">
        <ele>556.628</ele>
        <time>2018-01-09T10:43:21Z</time>
      </trkpt>
      <trkpt lat="42.098188" lon="2.235692">
        <ele>556.856</ele>
        <time>2018-01-09T10:43:25Z</time>
      </trkpt>
      <trkpt lat="42.098139" lon="2.235723">
        <ele>557.241</ele>
        <time>2018-01-09T10:43:29Z</time>
      </trkpt>
      <trkpt lat="42.098092" lon="2.235752">
        <ele>556.436</ele>
        <time>2018-01-09T10:43:33Z</time>
      </trkpt>
      <trkpt lat="42.098041" lon="2.235794">
        <ele>556.562</ele>
        <time>2018-01-09T10:43:37Z</time>
      </trkpt>
      <trkpt lat="42.098001" lon="2.235832">
        <ele>556.575</ele>
        <time>2018-01-09T10:43:41Z</time>
      </trkpt>
      <trkpt lat="42.097953" lon="2.235865">
        <ele>557.329</ele>
        <time>2018-01-09T10:43:45Z</time>
      </trkpt>
      <trkpt lat="42.097914" lon="2.235903">
        <ele>557.813</ele>
        <time>2018-01-09T10:43:49Z</time>
      </trkpt>
      <trkpt lat="42.097868" lon="2.235933">
        <ele>558.043</ele>
        <time>2018-01-09T10:43:53Z</time>
      </trkpt>
      <trkpt lat="42.097826" lon="2.235964">
        <ele>558.407</ele>
        <time>2018-01-09T10:43:57Z</time>
      </trkpt>
      <trkpt lat="42.097781" lon="2.235992">
        <ele>558.208</ele>
        <time>2018-01-09T10:44:01Z</time>
      </trkpt>
      <trkpt lat="42.097739" lon="2.236024">
        <ele>559.273</ele>
        <time>2018-01-09T10:44:05Z</time>
      </trkpt>
      <trkpt lat="42.097699" lon="2.236054">
        <ele>559.712</ele>
        <time>2018-01-09T10:44:09Z</time>
      </trkpt>
      <trkpt lat="42.097655" lon="2.236088">
        <ele>559.080</ele>
        <time>2018-01-09T10:44:19Z</time>
      </trkpt>
      <trkpt lat="42.097602" lon="2.236113">
        <ele>558.595</ele>
        <time>2018-01-09T10:44:31Z</time>
      </trkpt>
      <trkpt lat="42.097552" lon="2.236123">
        <ele>561.430</ele>
        <time>2018-01-09T10:44:35Z</time>
      </trkpt>
      <trkpt lat="42.097500" lon="2.236123">
        <ele>561.966</ele>
        <time>2018-01-09T10:44:39Z</time>
      </trkpt>
      <trkpt lat="42.097446" lon="2.236122">
        <ele>561.879</ele>
        <time>2018-01-09T10:44:44Z</time>
      </trkpt>
      <trkpt lat="42.097394" lon="2.236144">
        <ele>561.543</ele>
        <time>2018-01-09T10:44:49Z</time>
      </trkpt>
      <trkpt lat="42.097340" lon="2.236159">
        <ele>563.682</ele>
        <time>2018-01-09T10:45:07Z</time>
      </trkpt>
      <trkpt lat="42.097295" lon="2.236170">
        <ele>563.043</ele>
        <time>2018-01-09T10:45:11Z</time>
      </trkpt>
      <trkpt lat="42.097248" lon="2.236190">
        <ele>561.517</ele>
        <time>2018-01-09T10:45:22Z</time>
      </trkpt>
      <trkpt lat="42.097199" lon="2.236191">
        <ele>561.408</ele>
        <time>2018-01-09T10:45:26Z</time>
      </trkpt>
      <trkpt lat="42.097152" lon="2.236180">
        <ele>561.790</ele>
        <time>2018-01-09T10:45:30Z</time>
      </trkpt>
      <trkpt lat="42.097110" lon="2.236148">
        <ele>562.029</ele>
        <time>2018-01-09T10:45:34Z</time>
      </trkpt>
      <trkpt lat="42.097071" lon="2.236106">
        <ele>562.027</ele>
        <time>2018-01-09T10:45:39Z</time>
      </trkpt>
      <trkpt lat="42.097022" lon="2.236071">
        <ele>562.852</ele>
        <time>2018-01-09T10:45:43Z</time>
      </trkpt>
      <trkpt lat="42.096972" lon="2.236048">
        <ele>565.347</ele>
        <time>2018-01-09T10:45:46Z</time>
      </trkpt>
      <trkpt lat="42.096933" lon="2.236011">
        <ele>567.313</ele>
        <time>2018-01-09T10:45:49Z</time>
      </trkpt>
      <trkpt lat="42.096888" lon="2.235977">
        <ele>567.716</ele>
        <time>2018-01-09T10:45:52Z</time>
      </trkpt>
      <trkpt lat="42.096841" lon="2.235946">
        <ele>567.680</ele>
        <time>2018-01-09T10:45:55Z</time>
      </trkpt>
      <trkpt lat="42.096800" lon="2.235920">
        <ele>568.166</ele>
        <time>2018-01-09T10:45:58Z</time>
      </trkpt>
      <trkpt lat="42.096752" lon="2.235886">
        <ele>568.729</ele>
        <time>2018-01-09T10:46:02Z</time>
      </trkpt>
      <trkpt lat="42.096704" lon="2.235852">
        <ele>569.121</ele>
        <time>2018-01-09T10:46:06Z</time>
      </trkpt>
      <trkpt lat="42.096656" lon="2.235809">
        <ele>569.808</ele>
        <time>2018-01-09T10:46:10Z</time>
      </trkpt>
      <trkpt lat="42.096610" lon="2.235778">
        <ele>569.358</ele>
        <time>2018-01-09T10:46:14Z</time>
      </trkpt>
      <trkpt lat="42.096570" lon="2.235749">
        <ele>569.047</ele>
        <time>2018-01-09T10:46:17Z</time>
      </trkpt>
      <trkpt lat="42.096525" lon="2.235715">
        <ele>568.735</ele>
        <time>2018-01-09T10:46:21Z</time>
      </trkpt>
      <trkpt lat="42.096483" lon="2.235670">
        <ele>568.910</ele>
        <time>2018-01-09T10:46:25Z</time>
      </trkpt>
      <trkpt lat="42.096442" lon="2.235633">
        <ele>568.275</ele>
        <time>2018-01-09T10:46:29Z</time>
      </trkpt>
      <trkpt lat="42.096403" lon="2.235591">
        <ele>566.851</ele>
        <time>2018-01-09T10:46:33Z</time>
      </trkpt>
      <trkpt lat="42.096361" lon="2.235547">
        <ele>568.264</ele>
        <time>2018-01-09T10:46:37Z</time>
      </trkpt>
      <trkpt lat="42.096314" lon="2.235521">
        <ele>568.698</ele>
        <time>2018-01-09T10:46:41Z</time>
      </trkpt>
      <trkpt lat="42.096273" lon="2.235486">
        <ele>568.627</ele>
        <time>2018-01-09T10:46:45Z</time>
      </trkpt>
      <trkpt lat="42.096229" lon="2.235445">
        <ele>568.268</ele>
        <time>2018-01-09T10:46:50Z</time>
      </trkpt>
      <trkpt lat="42.096189" lon="2.235397">
        <ele>567.614</ele>
        <time>2018-01-09T10:46:55Z</time>
      </trkpt>
      <trkpt lat="42.096162" lon="2.235346">
        <ele>568.408</ele>
        <time>2018-01-09T10:46:59Z</time>
      </trkpt>
      <trkpt lat="42.096129" lon="2.235285">
        <ele>568.534</ele>
        <time>2018-01-09T10:47:03Z</time>
      </trkpt>
      <trkpt lat="42.096098" lon="2.235237">
        <ele>566.663</ele>
        <time>2018-01-09T10:47:07Z</time>
      </trkpt>
      <trkpt lat="42.096070" lon="2.235186">
        <ele>565.961</ele>
        <time>2018-01-09T10:47:11Z</time>
      </trkpt>
      <trkpt lat="42.096041" lon="2.235126">
        <ele>566.776</ele>
        <time>2018-01-09T10:47:15Z</time>
      </trkpt>
      <trkpt lat="42.096012" lon="2.235070">
        <ele>567.331</ele>
        <time>2018-01-09T10:47:19Z</time>
      </trkpt>
      <trkpt lat="42.095985" lon="2.235006">
        <ele>568.137</ele>
        <time>2018-01-09T10:47:23Z</time>
      </trkpt>
      <trkpt lat="42.095957" lon="2.234944">
        <ele>568.140</ele>
        <time>2018-01-09T10:47:27Z</time>
      </trkpt>
      <trkpt lat="42.095925" lon="2.234880">
        <ele>568.434</ele>
        <time>2018-01-09T10:47:31Z</time>
      </trkpt>
      <trkpt lat="42.095889" lon="2.234816">
        <ele>568.793</ele>
        <time>2018-01-09T10:47:35Z</time>
      </trkpt>
      <trkpt lat="42.095851" lon="2.234759">
        <ele>568.965</ele>
        <time>2018-01-09T10:47:39Z</time>
      </trkpt>
      <trkpt lat="42.095813" lon="2.234706">
        <ele>569.121</ele>
        <time>2018-01-09T10:47:43Z</time>
      </trkpt>
      <trkpt lat="42.095782" lon="2.234647">
        <ele>569.008</ele>
        <time>2018-01-09T10:47:47Z</time>
      </trkpt>
      <trkpt lat="42.095749" lon="2.234602">
        <ele>568.721</ele>
        <time>2018-01-09T10:47:51Z</time>
      </trkpt>
      <trkpt lat="42.095717" lon="2.234543">
        <ele>568.410</ele>
        <time>2018-01-09T10:47:55Z</time>
      </trkpt>
      <trkpt lat="42.095686" lon="2.234494">
        <ele>568.338</ele>
        <time>2018-01-09T10:47:59Z</time>
      </trkpt>
      <trkpt lat="42.095653" lon="2.234438">
        <ele>568.473</ele>
        <time>2018-01-09T10:48:03Z</time>
      </trkpt>
      <trkpt lat="42.095619" lon="2.234374">
        <ele>568.258</ele>
        <time>2018-01-09T10:48:07Z</time>
      </trkpt>
      <trkpt lat="42.095595" lon="2.234315">
        <ele>568.084</ele>
        <time>2018-01-09T10:48:10Z</time>
      </trkpt>
      <trkpt lat="42.095568" lon="2.234264">
        <ele>567.997</ele>
        <time>2018-01-09T10:48:14Z</time>
      </trkpt>
      <trkpt lat="42.095533" lon="2.234217">
        <ele>567.791</ele>
        <time>2018-01-09T10:48:18Z</time>
      </trkpt>
      <trkpt lat="42.095492" lon="2.234162">
        <ele>568.057</ele>
        <time>2018-01-09T10:48:22Z</time>
      </trkpt>
      <trkpt lat="42.095450" lon="2.234116">
        <ele>567.400</ele>
        <time>2018-01-09T10:48:26Z</time>
      </trkpt>
      <trkpt lat="42.095405" lon="2.234070">
        <ele>566.720</ele>
        <time>2018-01-09T10:48:30Z</time>
      </trkpt>
      <trkpt lat="42.095355" lon="2.234035">
        <ele>566.408</ele>
        <time>2018-01-09T10:48:34Z</time>
      </trkpt>
      <trkpt lat="42.095305" lon="2.234017">
        <ele>566.117</ele>
        <time>2018-01-09T10:48:38Z</time>
      </trkpt>
      <trkpt lat="42.095251" lon="2.234007">
        <ele>565.556</ele>
        <time>2018-01-09T10:48:42Z</time>
      </trkpt>
      <trkpt lat="42.095206" lon="2.234001">
        <ele>565.684</ele>
        <time>2018-01-09T10:48:45Z</time>
      </trkpt>
      <trkpt lat="42.095161" lon="2.234011">
        <ele>565.419</ele>
        <time>2018-01-09T10:48:48Z</time>
      </trkpt>
      <trkpt lat="42.095111" lon="2.234041">
        <ele>564.914</ele>
        <time>2018-01-09T10:48:52Z</time>
      </trkpt>
      <trkpt lat="42.095069" lon="2.234082">
        <ele>565.540</ele>
        <time>2018-01-09T10:48:56Z</time>
      </trkpt>
      <trkpt lat="42.095032" lon="2.234129">
        <ele>565.613</ele>
        <time>2018-01-09T10:49:00Z</time>
      </trkpt>
      <trkpt lat="42.094990" lon="2.234183">
        <ele>566.057</ele>
        <time>2018-01-09T10:49:04Z</time>
      </trkpt>
      <trkpt lat="42.094951" lon="2.234235">
        <ele>566.064</ele>
        <time>2018-01-09T10:49:08Z</time>
      </trkpt>
      <trkpt lat="42.094915" lon="2.234282">
        <ele>565.806</ele>
        <time>2018-01-09T10:49:12Z</time>
      </trkpt>
      <trkpt lat="42.094878" lon="2.234331">
        <ele>565.716</ele>
        <time>2018-01-09T10:49:16Z</time>
      </trkpt>
      <trkpt lat="42.094841" lon="2.234389">
        <ele>565.508</ele>
        <time>2018-01-09T10:49:20Z</time>
      </trkpt>
      <trkpt lat="42.094806" lon="2.234452">
        <ele>565.468</ele>
        <time>2018-01-09T10:49:24Z</time>
      </trkpt>
      <trkpt lat="42.094780" lon="2.234519">
        <ele>565.697</ele>
        <time>2018-01-09T10:49:28Z</time>
      </trkpt>
      <trkpt lat="42.094759" lon="2.234589">
        <ele>565.435</ele>
        <time>2018-01-09T10:49:32Z</time>
      </trkpt>
      <trkpt lat="42.094741" lon="2.234658">
        <ele>565.210</ele>
        <time>2018-01-09T10:49:36Z</time>
      </trkpt>
      <trkpt lat="42.094728" lon="2.234721">
        <ele>564.935</ele>
        <time>2018-01-09T10:49:40Z</time>
      </trkpt>
      <trkpt lat="42.094716" lon="2.234786">
        <ele>565.161</ele>
        <time>2018-01-09T10:49:45Z</time>
      </trkpt>
      <trkpt lat="42.094697" lon="2.234842">
        <ele>565.054</ele>
        <time>2018-01-09T10:49:57Z</time>
      </trkpt>
      <trkpt lat="42.094679" lon="2.234786">
        <ele>564.238</ele>
        <time>2018-01-09T10:50:07Z</time>
      </trkpt>
      <trkpt lat="42.094685" lon="2.234718">
        <ele>563.759</ele>
        <time>2018-01-09T10:50:14Z</time>
      </trkpt>
      <trkpt lat="42.094701" lon="2.234650">
        <ele>563.603</ele>
        <time>2018-01-09T10:50:19Z</time>
      </trkpt>
      <trkpt lat="42.094715" lon="2.234577">
        <ele>563.123</ele>
        <time>2018-01-09T10:50:24Z</time>
      </trkpt>
      <trkpt lat="42.094717" lon="2.234515">
        <ele>563.108</ele>
        <time>2018-01-09T10:50:28Z</time>
      </trkpt>
      <trkpt lat="42.094729" lon="2.234455">
        <ele>563.357</ele>
        <time>2018-01-09T10:50:32Z</time>
      </trkpt>
      <trkpt lat="42.094747" lon="2.234387">
        <ele>563.056</ele>
        <time>2018-01-09T10:50:37Z</time>
      </trkpt>
      <trkpt lat="42.094771" lon="2.234327">
        <ele>562.714</ele>
        <time>2018-01-09T10:50:43Z</time>
      </trkpt>
      <trkpt lat="42.094783" lon="2.234267">
        <ele>562.879</ele>
        <time>2018-01-09T10:50:48Z</time>
      </trkpt>
      <trkpt lat="42.094793" lon="2.234199">
        <ele>562.524</ele>
        <time>2018-01-09T10:50:55Z</time>
      </trkpt>
      <trkpt lat="42.094808" lon="2.234135">
        <ele>562.180</ele>
        <time>2018-01-09T10:51:00Z</time>
      </trkpt>
      <trkpt lat="42.094825" lon="2.234075">
        <ele>561.333</ele>
        <time>2018-01-09T10:51:04Z</time>
      </trkpt>
      <trkpt lat="42.094847" lon="2.234013">
        <ele>561.037</ele>
        <time>2018-01-09T10:51:08Z</time>
      </trkpt>
      <trkpt lat="42.094864" lon="2.233950">
        <ele>560.829</ele>
        <time>2018-01-09T10:51:12Z</time>
      </trkpt>
      <trkpt lat="42.094888" lon="2.233889">
        <ele>560.600</ele>
        <time>2018-01-09T10:51:16Z</time>
      </trkpt>
      <trkpt lat="42.094913" lon="2.233835">
        <ele>560.420</ele>
        <time>2018-01-09T10:51:20Z</time>
      </trkpt>
      <trkpt lat="42.094947" lon="2.233777">
        <ele>559.608</ele>
        <time>2018-01-09T10:51:25Z</time>
      </trkpt>
      <trkpt lat="42.094969" lon="2.233711">
        <ele>559.214</ele>
        <time>2018-01-09T10:51:30Z</time>
      </trkpt>
      <trkpt lat="42.094991" lon="2.233646">
        <ele>558.733</ele>
        <time>2018-01-09T10:51:35Z</time>
      </trkpt>
      <trkpt lat="42.095010" lon="2.233589">
        <ele>557.911</ele>
        <time>2018-01-09T10:51:40Z</time>
      </trkpt>
      <trkpt lat="42.095044" lon="2.233536">
        <ele>556.076</ele>
        <time>2018-01-09T10:51:45Z</time>
      </trkpt>
      <trkpt lat="42.095055" lon="2.233470">
        <ele>554.351</ele>
        <time>2018-01-09T10:51:51Z</time>
      </trkpt>
      <trkpt lat="42.095050" lon="2.233407">
        <ele>554.277</ele>
        <time>2018-01-09T10:51:55Z</time>
      </trkpt>
      <trkpt lat="42.095048" lon="2.233337">
        <ele>553.660</ele>
        <time>2018-01-09T10:51:59Z</time>
      </trkpt>
      <trkpt lat="42.095055" lon="2.233272">
        <ele>553.194</ele>
        <time>2018-01-09T10:52:03Z</time>
      </trkpt>
      <trkpt lat="42.095068" lon="2.233211">
        <ele>552.413</ele>
        <time>2018-01-09T10:52:07Z</time>
      </trkpt>
      <trkpt lat="42.095086" lon="2.233143">
        <ele>552.043</ele>
        <time>2018-01-09T10:52:12Z</time>
      </trkpt>
      <trkpt lat="42.095102" lon="2.233081">
        <ele>551.407</ele>
        <time>2018-01-09T10:52:17Z</time>
      </trkpt>
      <trkpt lat="42.095126" lon="2.233023">
        <ele>550.908</ele>
        <time>2018-01-09T10:52:21Z</time>
      </trkpt>
      <trkpt lat="42.095116" lon="2.232955">
        <ele>550.323</ele>
        <time>2018-01-09T10:52:25Z</time>
      </trkpt>
      <trkpt lat="42.095137" lon="2.232894">
        <ele>548.712</ele>
        <time>2018-01-09T10:52:31Z</time>
      </trkpt>
      <trkpt lat="42.095094" lon="2.232846">
        <ele>547.970</ele>
        <time>2018-01-09T10:52:38Z</time>
      </trkpt>
      <trkpt lat="42.095044" lon="2.232834">
        <ele>547.465</ele>
        <time>2018-01-09T10:52:43Z</time>
      </trkpt>
      <trkpt lat="42.094998" lon="2.232830">
        <ele>547.510</ele>
        <time>2018-01-09T10:52:48Z</time>
      </trkpt>
      <trkpt lat="42.094950" lon="2.232836">
        <ele>546.866</ele>
        <time>2018-01-09T10:52:52Z</time>
      </trkpt>
      <trkpt lat="42.094899" lon="2.232850">
        <ele>546.479</ele>
        <time>2018-01-09T10:53:01Z</time>
      </trkpt>
      <trkpt lat="42.094845" lon="2.232852">
        <ele>546.573</ele>
        <time>2018-01-09T10:53:05Z</time>
      </trkpt>
      <trkpt lat="42.094788" lon="2.232854">
        <ele>546.538</ele>
        <time>2018-01-09T10:53:09Z</time>
      </trkpt>
      <trkpt lat="42.094733" lon="2.232874">
        <ele>546.570</ele>
        <time>2018-01-09T10:53:13Z</time>
      </trkpt>
      <trkpt lat="42.094677" lon="2.232897">
        <ele>545.917</ele>
        <time>2018-01-09T10:53:17Z</time>
      </trkpt>
      <trkpt lat="42.094632" lon="2.232930">
        <ele>546.008</ele>
        <time>2018-01-09T10:53:21Z</time>
      </trkpt>
      <trkpt lat="42.094592" lon="2.232963">
        <ele>545.975</ele>
        <time>2018-01-09T10:53:25Z</time>
      </trkpt>
      <trkpt lat="42.094548" lon="2.232999">
        <ele>545.854</ele>
        <time>2018-01-09T10:53:31Z</time>
      </trkpt>
      <trkpt lat="42.094504" lon="2.233039">
        <ele>545.042</ele>
        <time>2018-01-09T10:53:37Z</time>
      </trkpt>
      <trkpt lat="42.094461" lon="2.233081">
        <ele>545.067</ele>
        <time>2018-01-09T10:53:42Z</time>
      </trkpt>
      <trkpt lat="42.094430" lon="2.233138">
        <ele>544.872</ele>
        <time>2018-01-09T10:53:46Z</time>
      </trkpt>
      <trkpt lat="42.094400" lon="2.233209">
        <ele>544.638</ele>
        <time>2018-01-09T10:53:50Z</time>
      </trkpt>
      <trkpt lat="42.094390" lon="2.233269">
        <ele>545.081</ele>
        <time>2018-01-09T10:53:54Z</time>
      </trkpt>
      <trkpt lat="42.094371" lon="2.233332">
        <ele>545.475</ele>
        <time>2018-01-09T10:54:00Z</time>
      </trkpt>
      <trkpt lat="42.094352" lon="2.233393">
        <ele>545.554</ele>
        <time>2018-01-09T10:54:04Z</time>
      </trkpt>
      <trkpt lat="42.094324" lon="2.233454">
        <ele>545.556</ele>
        <time>2018-01-09T10:54:07Z</time>
      </trkpt>
      <trkpt lat="42.094294" lon="2.233508">
        <ele>545.711</ele>
        <time>2018-01-09T10:54:11Z</time>
      </trkpt>
      <trkpt lat="42.094268" lon="2.233558">
        <ele>545.808</ele>
        <time>2018-01-09T10:54:14Z</time>
      </trkpt>
      <trkpt lat="42.094234" lon="2.233611">
        <ele>545.967</ele>
        <time>2018-01-09T10:54:18Z</time>
      </trkpt>
      <trkpt lat="42.094208" lon="2.233672">
        <ele>545.196</ele>
        <time>2018-01-09T10:54:24Z</time>
      </trkpt>
      <trkpt lat="42.094197" lon="2.233739">
        <ele>544.944</ele>
        <time>2018-01-09T10:54:27Z</time>
      </trkpt>
      <trkpt lat="42.094175" lon="2.233801">
        <ele>544.849</ele>
        <time>2018-01-09T10:54:32Z</time>
      </trkpt>
      <trkpt lat="42.094158" lon="2.233861">
        <ele>544.574</ele>
        <time>2018-01-09T10:54:36Z</time>
      </trkpt>
      <trkpt lat="42.094131" lon="2.233929">
        <ele>544.730</ele>
        <time>2018-01-09T10:54:40Z</time>
      </trkpt>
      <trkpt lat="42.094109" lon="2.233996">
        <ele>545.253</ele>
        <time>2018-01-09T10:54:44Z</time>
      </trkpt>
      <trkpt lat="42.094086" lon="2.234054">
        <ele>545.837</ele>
        <time>2018-01-09T10:54:48Z</time>
      </trkpt>
      <trkpt lat="42.094052" lon="2.234107">
        <ele>546.081</ele>
        <time>2018-01-09T10:54:52Z</time>
      </trkpt>
      <trkpt lat="42.094021" lon="2.234171">
        <ele>546.361</ele>
        <time>2018-01-09T10:54:56Z</time>
      </trkpt>
      <trkpt lat="42.093995" lon="2.234232">
        <ele>547.117</ele>
        <time>2018-01-09T10:55:00Z</time>
      </trkpt>
      <trkpt lat="42.093978" lon="2.234291">
        <ele>547.208</ele>
        <time>2018-01-09T10:55:05Z</time>
      </trkpt>
      <trkpt lat="42.093958" lon="2.234353">
        <ele>547.540</ele>
        <time>2018-01-09T10:55:09Z</time>
      </trkpt>
      <trkpt lat="42.093930" lon="2.234419">
        <ele>547.349</ele>
        <time>2018-01-09T10:55:13Z</time>
      </trkpt>
      <trkpt lat="42.093896" lon="2.234474">
        <ele>547.027</ele>
        <time>2018-01-09T10:55:17Z</time>
      </trkpt>
      <trkpt lat="42.093865" lon="2.234527">
        <ele>547.132</ele>
        <time>2018-01-09T10:55:21Z</time>
      </trkpt>
      <trkpt lat="42.093825" lon="2.234573">
        <ele>547.157</ele>
        <time>2018-01-09T10:55:25Z</time>
      </trkpt>
      <trkpt lat="42.093782" lon="2.234628">
        <ele>547.233</ele>
        <time>2018-01-09T10:55:30Z</time>
      </trkpt>
      <trkpt lat="42.093753" lon="2.234678">
        <ele>546.696</ele>
        <time>2018-01-09T10:55:34Z</time>
      </trkpt>
      <trkpt lat="42.093720" lon="2.234728">
        <ele>546.640</ele>
        <time>2018-01-09T10:55:38Z</time>
      </trkpt>
      <trkpt lat="42.093699" lon="2.234782">
        <ele>546.095</ele>
        <time>2018-01-09T10:55:42Z</time>
      </trkpt>
      <trkpt lat="42.093674" lon="2.234839">
        <ele>545.749</ele>
        <time>2018-01-09T10:55:46Z</time>
      </trkpt>
      <trkpt lat="42.093650" lon="2.234901">
        <ele>545.623</ele>
        <time>2018-01-09T10:55:50Z</time>
      </trkpt>
      <trkpt lat="42.093600" lon="2.234939">
        <ele>545.908</ele>
        <time>2018-01-09T10:55:54Z</time>
      </trkpt>
      <trkpt lat="42.093580" lon="2.235003">
        <ele>545.711</ele>
        <time>2018-01-09T10:55:59Z</time>
      </trkpt>
      <trkpt lat="42.093544" lon="2.235057">
        <ele>546.230</ele>
        <time>2018-01-09T10:56:05Z</time>
      </trkpt>
      <trkpt lat="42.093510" lon="2.235102">
        <ele>545.768</ele>
        <time>2018-01-09T10:56:09Z</time>
      </trkpt>
      <trkpt lat="42.093471" lon="2.235146">
        <ele>545.143</ele>
        <time>2018-01-09T10:56:14Z</time>
      </trkpt>
      <trkpt lat="42.093436" lon="2.235201">
        <ele>545.478</ele>
        <time>2018-01-09T10:56:18Z</time>
      </trkpt>
      <trkpt lat="42.093412" lon="2.235262">
        <ele>545.044</ele>
        <time>2018-01-09T10:56:22Z</time>
      </trkpt>
      <trkpt lat="42.093378" lon="2.235307">
        <ele>544.997</ele>
        <time>2018-01-09T10:56:26Z</time>
      </trkpt>
      <trkpt lat="42.093337" lon="2.235354">
        <ele>544.851</ele>
        <time>2018-01-09T10:56:30Z</time>
      </trkpt>
      <trkpt lat="42.093297" lon="2.235385">
        <ele>544.742</ele>
        <time>2018-01-09T10:56:37Z</time>
      </trkpt>
      <trkpt lat="42.093268" lon="2.235437">
        <ele>543.922</ele>
        <time>2018-01-09T10:56:41Z</time>
      </trkpt>
      <trkpt lat="42.093221" lon="2.235478">
        <ele>543.914</ele>
        <time>2018-01-09T10:56:45Z</time>
      </trkpt>
      <trkpt lat="42.093185" lon="2.235515">
        <ele>543.808</ele>
        <time>2018-01-09T10:56:48Z</time>
      </trkpt>
      <trkpt lat="42.093160" lon="2.235573">
        <ele>543.096</ele>
        <time>2018-01-09T10:56:52Z</time>
      </trkpt>
      <trkpt lat="42.093135" lon="2.235625">
        <ele>542.395</ele>
        <time>2018-01-09T10:56:56Z</time>
      </trkpt>
      <trkpt lat="42.093095" lon="2.235670">
        <ele>543.353</ele>
        <time>2018-01-09T10:57:00Z</time>
      </trkpt>
      <trkpt lat="42.093060" lon="2.235726">
        <ele>542.268</ele>
        <time>2018-01-09T10:57:04Z</time>
      </trkpt>
      <trkpt lat="42.093037" lon="2.235779">
        <ele>542.533</ele>
        <time>2018-01-09T10:57:07Z</time>
      </trkpt>
      <trkpt lat="42.093021" lon="2.235847">
        <ele>542.579</ele>
        <time>2018-01-09T10:57:18Z</time>
      </trkpt>
      <trkpt lat="42.092993" lon="2.235908">
        <ele>543.512</ele>
        <time>2018-01-09T10:57:23Z</time>
      </trkpt>
      <trkpt lat="42.092957" lon="2.235970">
        <ele>543.736</ele>
        <time>2018-01-09T10:57:28Z</time>
      </trkpt>
      <trkpt lat="42.092933" lon="2.236023">
        <ele>543.226</ele>
        <time>2018-01-09T10:57:31Z</time>
      </trkpt>
      <trkpt lat="42.092897" lon="2.236081">
        <ele>543.447</ele>
        <time>2018-01-09T10:57:35Z</time>
      </trkpt>
      <trkpt lat="42.092856" lon="2.236123">
        <ele>542.611</ele>
        <time>2018-01-09T10:57:38Z</time>
      </trkpt>
      <trkpt lat="42.092819" lon="2.236159">
        <ele>542.208</ele>
        <time>2018-01-09T10:57:41Z</time>
      </trkpt>
      <trkpt lat="42.092788" lon="2.236205">
        <ele>542.414</ele>
        <time>2018-01-09T10:57:44Z</time>
      </trkpt>
      <trkpt lat="42.092757" lon="2.236254">
        <ele>542.413</ele>
        <time>2018-01-09T10:57:47Z</time>
      </trkpt>
      <trkpt lat="42.092727" lon="2.236312">
        <ele>541.661</ele>
        <time>2018-01-09T10:57:51Z</time>
      </trkpt>
      <trkpt lat="42.092701" lon="2.236365">
        <ele>543.226</ele>
        <time>2018-01-09T10:57:54Z</time>
      </trkpt>
      <trkpt lat="42.092669" lon="2.236416">
        <ele>543.331</ele>
        <time>2018-01-09T10:57:58Z</time>
      </trkpt>
      <trkpt lat="42.092636" lon="2.236468">
        <ele>542.557</ele>
        <time>2018-01-09T10:58:02Z</time>
      </trkpt>
      <trkpt lat="42.092596" lon="2.236517">
        <ele>541.030</ele>
        <time>2018-01-09T10:58:07Z</time>
      </trkpt>
      <trkpt lat="42.092560" lon="2.236567">
        <ele>540.614</ele>
        <time>2018-01-09T10:58:12Z</time>
      </trkpt>
      <trkpt lat="42.092529" lon="2.236622">
        <ele>539.922</ele>
        <time>2018-01-09T10:58:17Z</time>
      </trkpt>
      <trkpt lat="42.092491" lon="2.236672">
        <ele>540.362</ele>
        <time>2018-01-09T10:58:23Z</time>
      </trkpt>
      <trkpt lat="42.092450" lon="2.236717">
        <ele>540.308</ele>
        <time>2018-01-09T10:58:28Z</time>
      </trkpt>
      <trkpt lat="42.092405" lon="2.236756">
        <ele>539.308</ele>
        <time>2018-01-09T10:58:37Z</time>
      </trkpt>
      <trkpt lat="42.092372" lon="2.236797">
        <ele>538.654</ele>
        <time>2018-01-09T10:58:42Z</time>
      </trkpt>
      <trkpt lat="42.092338" lon="2.236843">
        <ele>538.623</ele>
        <time>2018-01-09T10:58:46Z</time>
      </trkpt>
      <trkpt lat="42.092302" lon="2.236885">
        <ele>538.371</ele>
        <time>2018-01-09T10:58:50Z</time>
      </trkpt>
      <trkpt lat="42.092269" lon="2.236940">
        <ele>537.646</ele>
        <time>2018-01-09T10:58:54Z</time>
      </trkpt>
      <trkpt lat="42.092249" lon="2.237001">
        <ele>538.351</ele>
        <time>2018-01-09T10:58:59Z</time>
      </trkpt>
      <trkpt lat="42.092244" lon="2.237063">
        <ele>538.627</ele>
        <time>2018-01-09T10:59:03Z</time>
      </trkpt>
      <trkpt lat="42.092227" lon="2.237124">
        <ele>538.490</ele>
        <time>2018-01-09T10:59:10Z</time>
      </trkpt>
      <trkpt lat="42.092191" lon="2.237174">
        <ele>539.174</ele>
        <time>2018-01-09T10:59:13Z</time>
      </trkpt>
      <trkpt lat="42.092166" lon="2.237231">
        <ele>539.057</ele>
        <time>2018-01-09T10:59:16Z</time>
      </trkpt>
      <trkpt lat="42.092126" lon="2.237272">
        <ele>539.400</ele>
        <time>2018-01-09T10:59:20Z</time>
      </trkpt>
      <trkpt lat="42.092080" lon="2.237302">
        <ele>539.320</ele>
        <time>2018-01-09T10:59:24Z</time>
      </trkpt>
      <trkpt lat="42.092032" lon="2.237312">
        <ele>541.508</ele>
        <time>2018-01-09T10:59:28Z</time>
      </trkpt>
      <trkpt lat="42.091989" lon="2.237330">
        <ele>543.017</ele>
        <time>2018-01-09T10:59:33Z</time>
      </trkpt>
      <trkpt lat="42.091947" lon="2.237374">
        <ele>543.616</ele>
        <time>2018-01-09T10:59:39Z</time>
      </trkpt>
      <trkpt lat="42.091893" lon="2.237399">
        <ele>542.944</ele>
        <time>2018-01-09T10:59:45Z</time>
      </trkpt>
      <trkpt lat="42.091843" lon="2.237417">
        <ele>544.129</ele>
        <time>2018-01-09T10:59:50Z</time>
      </trkpt>
      <trkpt lat="42.091792" lon="2.237438">
        <ele>543.264</ele>
        <time>2018-01-09T10:59:55Z</time>
      </trkpt>
      <trkpt lat="42.091741" lon="2.237465">
        <ele>543.720</ele>
        <time>2018-01-09T10:59:59Z</time>
      </trkpt>
      <trkpt lat="42.091693" lon="2.237491">
        <ele>544.583</ele>
        <time>2018-01-09T11:00:04Z</time>
      </trkpt>
      <trkpt lat="42.091647" lon="2.237488">
        <ele>546.257</ele>
        <time>2018-01-09T11:00:09Z</time>
      </trkpt>
      <trkpt lat="42.091606" lon="2.237463">
        <ele>548.126</ele>
        <time>2018-01-09T11:00:16Z</time>
      </trkpt>
      <trkpt lat="42.091556" lon="2.237467">
        <ele>548.347</ele>
        <time>2018-01-09T11:00:38Z</time>
      </trkpt>
      <trkpt lat="42.091499" lon="2.237468">
        <ele>550.511</ele>
        <time>2018-01-09T11:00:43Z</time>
      </trkpt>
      <trkpt lat="42.091460" lon="2.237436">
        <ele>552.008</ele>
        <time>2018-01-09T11:00:47Z</time>
      </trkpt>
      <trkpt lat="42.091410" lon="2.237424">
        <ele>552.414</ele>
        <time>2018-01-09T11:00:52Z</time>
      </trkpt>
      <trkpt lat="42.091367" lon="2.237398">
        <ele>554.433</ele>
        <time>2018-01-09T11:00:58Z</time>
      </trkpt>
      <trkpt lat="42.091329" lon="2.237362">
        <ele>554.271</ele>
        <time>2018-01-09T11:01:02Z</time>
      </trkpt>
      <trkpt lat="42.091275" lon="2.237348">
        <ele>553.886</ele>
        <time>2018-01-09T11:01:08Z</time>
      </trkpt>
      <trkpt lat="42.091224" lon="2.237343">
        <ele>552.891</ele>
        <time>2018-01-09T11:01:19Z</time>
      </trkpt>
      <trkpt lat="42.091173" lon="2.237345">
        <ele>552.757</ele>
        <time>2018-01-09T11:01:26Z</time>
      </trkpt>
      <trkpt lat="42.091126" lon="2.237365">
        <ele>553.550</ele>
        <time>2018-01-09T11:01:31Z</time>
      </trkpt>
      <trkpt lat="42.091078" lon="2.237330">
        <ele>554.194</ele>
        <time>2018-01-09T11:01:37Z</time>
      </trkpt>
      <trkpt lat="42.091041" lon="2.237292">
        <ele>554.267</ele>
        <time>2018-01-09T11:01:41Z</time>
      </trkpt>
      <trkpt lat="42.090998" lon="2.237247">
        <ele>554.481</ele>
        <time>2018-01-09T11:01:46Z</time>
      </trkpt>
      <trkpt lat="42.090957" lon="2.237214">
        <ele>554.219</ele>
        <time>2018-01-09T11:01:51Z</time>
      </trkpt>
      <trkpt lat="42.090918" lon="2.237164">
        <ele>555.208</ele>
        <time>2018-01-09T11:01:56Z</time>
      </trkpt>
      <trkpt lat="42.090878" lon="2.237126">
        <ele>556.098</ele>
        <time>2018-01-09T11:02:00Z</time>
      </trkpt>
      <trkpt lat="42.090838" lon="2.237094">
        <ele>555.357</ele>
        <time>2018-01-09T11:02:04Z</time>
      </trkpt>
      <trkpt lat="42.090797" lon="2.237068">
        <ele>557.985</ele>
        <time>2018-01-09T11:02:10Z</time>
      </trkpt>
      <trkpt lat="42.090755" lon="2.237038">
        <ele>557.390</ele>
        <time>2018-01-09T11:02:18Z</time>
      </trkpt>
      <trkpt lat="42.090716" lon="2.236996">
        <ele>559.255</ele>
        <time>2018-01-09T11:02:24Z</time>
      </trkpt>
      <trkpt lat="42.090673" lon="2.236948">
        <ele>559.571</ele>
        <time>2018-01-09T11:02:29Z</time>
      </trkpt>
      <trkpt lat="42.090630" lon="2.236899">
        <ele>559.384</ele>
        <time>2018-01-09T11:02:33Z</time>
      </trkpt>
      <trkpt lat="42.090592" lon="2.236851">
        <ele>559.248</ele>
        <time>2018-01-09T11:02:38Z</time>
      </trkpt>
      <trkpt lat="42.090552" lon="2.236809">
        <ele>558.229</ele>
        <time>2018-01-09T11:02:42Z</time>
      </trkpt>
      <trkpt lat="42.090508" lon="2.236786">
        <ele>558.200</ele>
        <time>2018-01-09T11:02:46Z</time>
      </trkpt>
      <trkpt lat="42.090466" lon="2.236746">
        <ele>559.120</ele>
        <time>2018-01-09T11:02:51Z</time>
      </trkpt>
      <trkpt lat="42.090427" lon="2.236697">
        <ele>559.508</ele>
        <time>2018-01-09T11:02:56Z</time>
      </trkpt>
      <trkpt lat="42.090379" lon="2.236668">
        <ele>559.764</ele>
        <time>2018-01-09T11:03:00Z</time>
      </trkpt>
      <trkpt lat="42.090345" lon="2.236614">
        <ele>558.123</ele>
        <time>2018-01-09T11:03:12Z</time>
      </trkpt>
      <trkpt lat="42.090311" lon="2.236570">
        <ele>557.711</ele>
        <time>2018-01-09T11:03:16Z</time>
      </trkpt>
      <trkpt lat="42.090273" lon="2.236517">
        <ele>559.296</ele>
        <time>2018-01-09T11:03:21Z</time>
      </trkpt>
      <trkpt lat="42.090238" lon="2.236460">
        <ele>560.061</ele>
        <time>2018-01-09T11:03:25Z</time>
      </trkpt>
      <trkpt lat="42.090205" lon="2.236405">
        <ele>560.117</ele>
        <time>2018-01-09T11:03:29Z</time>
      </trkpt>
      <trkpt lat="42.090176" lon="2.236347">
        <ele>559.090</ele>
        <time>2018-01-09T11:03:34Z</time>
      </trkpt>
      <trkpt lat="42.090135" lon="2.236318">
        <ele>559.064</ele>
        <time>2018-01-09T11:03:39Z</time>
      </trkpt>
      <trkpt lat="42.090098" lon="2.236266">
        <ele>559.774</ele>
        <time>2018-01-09T11:03:43Z</time>
      </trkpt>
      <trkpt lat="42.090062" lon="2.236205">
        <ele>559.656</ele>
        <time>2018-01-09T11:03:47Z</time>
      </trkpt>
      <trkpt lat="42.090041" lon="2.236135">
        <ele>560.021</ele>
        <time>2018-01-09T11:03:51Z</time>
      </trkpt>
      <trkpt lat="42.090024" lon="2.236075">
        <ele>560.808</ele>
        <time>2018-01-09T11:03:55Z</time>
      </trkpt>
      <trkpt lat="42.090000" lon="2.236008">
        <ele>561.249</ele>
        <time>2018-01-09T11:03:59Z</time>
      </trkpt>
      <trkpt lat="42.089975" lon="2.235939">
        <ele>561.528</ele>
        <time>2018-01-09T11:04:03Z</time>
      </trkpt>
      <trkpt lat="42.089965" lon="2.235876">
        <ele>562.056</ele>
        <time>2018-01-09T11:04:07Z</time>
      </trkpt>
      <trkpt lat="42.089936" lon="2.235822">
        <ele>562.391</ele>
        <time>2018-01-09T11:04:13Z</time>
      </trkpt>
      <trkpt lat="42.089912" lon="2.235762">
        <ele>561.446</ele>
        <time>2018-01-09T11:04:18Z</time>
      </trkpt>
      <trkpt lat="42.089886" lon="2.235703">
        <ele>560.972</ele>
        <time>2018-01-09T11:04:23Z</time>
      </trkpt>
      <trkpt lat="42.089848" lon="2.235654">
        <ele>560.355</ele>
        <time>2018-01-09T11:04:29Z</time>
      </trkpt>
      <trkpt lat="42.089830" lon="2.235598">
        <ele>560.029</ele>
        <time>2018-01-09T11:04:34Z</time>
      </trkpt>
      <trkpt lat="42.089821" lon="2.235536">
        <ele>559.775</ele>
        <time>2018-01-09T11:04:39Z</time>
      </trkpt>
      <trkpt lat="42.089820" lon="2.235473">
        <ele>558.528</ele>
        <time>2018-01-09T11:04:43Z</time>
      </trkpt>
      <trkpt lat="42.089831" lon="2.235412">
        <ele>558.820</ele>
        <time>2018-01-09T11:04:46Z</time>
      </trkpt>
      <trkpt lat="42.089839" lon="2.235351">
        <ele>557.908</ele>
        <time>2018-01-09T11:04:51Z</time>
      </trkpt>
      <trkpt lat="42.089829" lon="2.235287">
        <ele>556.769</ele>
        <time>2018-01-09T11:04:57Z</time>
      </trkpt>
      <trkpt lat="42.089819" lon="2.235220">
        <ele>556.428</ele>
        <time>2018-01-09T11:05:02Z</time>
      </trkpt>
      <trkpt lat="42.089807" lon="2.235157">
        <ele>556.566</ele>
        <time>2018-01-09T11:05:08Z</time>
      </trkpt>
      <trkpt lat="42.089808" lon="2.235089">
        <ele>555.561</ele>
        <time>2018-01-09T11:05:12Z</time>
      </trkpt>
      <trkpt lat="42.089811" lon="2.235017">
        <ele>554.646</ele>
        <time>2018-01-09T11:05:16Z</time>
      </trkpt>
      <trkpt lat="42.089795" lon="2.234950">
        <ele>555.242</ele>
        <time>2018-01-09T11:05:20Z</time>
      </trkpt>
      <trkpt lat="42.089766" lon="2.234885">
        <ele>554.875</ele>
        <time>2018-01-09T11:05:25Z</time>
      </trkpt>
      <trkpt lat="42.089751" lon="2.234825">
        <ele>554.889</ele>
        <time>2018-01-09T11:05:29Z</time>
      </trkpt>
      <trkpt lat="42.089733" lon="2.234754">
        <ele>553.917</ele>
        <time>2018-01-09T11:05:33Z</time>
      </trkpt>
      <trkpt lat="42.089708" lon="2.234692">
        <ele>553.287</ele>
        <time>2018-01-09T11:05:37Z</time>
      </trkpt>
      <trkpt lat="42.089676" lon="2.234645">
        <ele>553.215</ele>
        <time>2018-01-09T11:05:41Z</time>
      </trkpt>
      <trkpt lat="42.089678" lon="2.234582">
        <ele>553.808</ele>
        <time>2018-01-09T11:06:19Z</time>
      </trkpt>
      <trkpt lat="42.089667" lon="2.234514">
        <ele>551.153</ele>
        <time>2018-01-09T11:08:05Z</time>
      </trkpt>
      <trkpt lat="42.089635" lon="2.234470">
        <ele>550.292</ele>
        <time>2018-01-09T11:08:09Z</time>
      </trkpt>
      <trkpt lat="42.089590" lon="2.234442">
        <ele>549.850</ele>
        <time>2018-01-09T11:08:13Z</time>
      </trkpt>
      <trkpt lat="42.089545" lon="2.234404">
        <ele>548.835</ele>
        <time>2018-01-09T11:08:17Z</time>
      </trkpt>
      <trkpt lat="42.089503" lon="2.234365">
        <ele>548.650</ele>
        <time>2018-01-09T11:08:21Z</time>
      </trkpt>
      <trkpt lat="42.089464" lon="2.234322">
        <ele>549.146</ele>
        <time>2018-01-09T11:08:25Z</time>
      </trkpt>
      <trkpt lat="42.089426" lon="2.234269">
        <ele>548.269</ele>
        <time>2018-01-09T11:08:29Z</time>
      </trkpt>
      <trkpt lat="42.089380" lon="2.234222">
        <ele>548.443</ele>
        <time>2018-01-09T11:08:33Z</time>
      </trkpt>
      <trkpt lat="42.089328" lon="2.234183">
        <ele>547.795</ele>
        <time>2018-01-09T11:08:37Z</time>
      </trkpt>
      <trkpt lat="42.089286" lon="2.234150">
        <ele>547.349</ele>
        <time>2018-01-09T11:08:40Z</time>
      </trkpt>
      <trkpt lat="42.089240" lon="2.234122">
        <ele>547.523</ele>
        <time>2018-01-09T11:08:44Z</time>
      </trkpt>
      <trkpt lat="42.089193" lon="2.234092">
        <ele>547.308</ele>
        <time>2018-01-09T11:08:48Z</time>
      </trkpt>
      <trkpt lat="42.089140" lon="2.234063">
        <ele>547.721</ele>
        <time>2018-01-09T11:08:52Z</time>
      </trkpt>
      <trkpt lat="42.089093" lon="2.234040">
        <ele>547.920</ele>
        <time>2018-01-09T11:08:56Z</time>
      </trkpt>
      <trkpt lat="42.089045" lon="2.234023">
        <ele>549.568</ele>
        <time>2018-01-09T11:09:00Z</time>
      </trkpt>
      <trkpt lat="42.089003" lon="2.234000">
        <ele>550.023</ele>
        <time>2018-01-09T11:09:03Z</time>
      </trkpt>
      <trkpt lat="42.088959" lon="2.233968">
        <ele>550.988</ele>
        <time>2018-01-09T11:09:07Z</time>
      </trkpt>
      <trkpt lat="42.088915" lon="2.233928">
        <ele>550.694</ele>
        <time>2018-01-09T11:09:11Z</time>
      </trkpt>
      <trkpt lat="42.088882" lon="2.233885">
        <ele>550.647</ele>
        <time>2018-01-09T11:09:15Z</time>
      </trkpt>
      <trkpt lat="42.088851" lon="2.233839">
        <ele>550.741</ele>
        <time>2018-01-09T11:09:18Z</time>
      </trkpt>
      <trkpt lat="42.088822" lon="2.233792">
        <ele>551.228</ele>
        <time>2018-01-09T11:09:21Z</time>
      </trkpt>
      <trkpt lat="42.088792" lon="2.233743">
        <ele>551.689</ele>
        <time>2018-01-09T11:09:25Z</time>
      </trkpt>
      <trkpt lat="42.088757" lon="2.233681">
        <ele>551.917</ele>
        <time>2018-01-09T11:09:30Z</time>
      </trkpt>
      <trkpt lat="42.088720" lon="2.233635">
        <ele>553.008</ele>
        <time>2018-01-09T11:09:35Z</time>
      </trkpt>
      <trkpt lat="42.088672" lon="2.233603">
        <ele>552.414</ele>
        <time>2018-01-09T11:09:41Z</time>
      </trkpt>
      <trkpt lat="42.088629" lon="2.233567">
        <ele>552.793</ele>
        <time>2018-01-09T11:09:45Z</time>
      </trkpt>
      <trkpt lat="42.088582" lon="2.233548">
        <ele>553.071</ele>
        <time>2018-01-09T11:09:49Z</time>
      </trkpt>
      <trkpt lat="42.088527" lon="2.233531">
        <ele>553.526</ele>
        <time>2018-01-09T11:09:53Z</time>
      </trkpt>
      <trkpt lat="42.088478" lon="2.233529">
        <ele>554.351</ele>
        <time>2018-01-09T11:09:57Z</time>
      </trkpt>
      <trkpt lat="42.088427" lon="2.233525">
        <ele>554.537</ele>
        <time>2018-01-09T11:10:01Z</time>
      </trkpt>
      <trkpt lat="42.088380" lon="2.233528">
        <ele>554.980</ele>
        <time>2018-01-09T11:10:05Z</time>
      </trkpt>
      <trkpt lat="42.088331" lon="2.233519">
        <ele>555.214</ele>
        <time>2018-01-09T11:10:11Z</time>
      </trkpt>
      <trkpt lat="42.088278" lon="2.233505">
        <ele>556.387</ele>
        <time>2018-01-09T11:10:17Z</time>
      </trkpt>
      <trkpt lat="42.088231" lon="2.233497">
        <ele>556.142</ele>
        <time>2018-01-09T11:10:22Z</time>
      </trkpt>
      <trkpt lat="42.088183" lon="2.233507">
        <ele>555.926</ele>
        <time>2018-01-09T11:10:27Z</time>
      </trkpt>
      <trkpt lat="42.088131" lon="2.233502">
        <ele>555.808</ele>
        <time>2018-01-09T11:10:32Z</time>
      </trkpt>
      <trkpt lat="42.088086" lon="2.233487">
        <ele>556.880</ele>
        <time>2018-01-09T11:10:35Z</time>
      </trkpt>
      <trkpt lat="42.088030" lon="2.233465">
        <ele>557.659</ele>
        <time>2018-01-09T11:10:39Z</time>
      </trkpt>
      <trkpt lat="42.087977" lon="2.233442">
        <ele>558.377</ele>
        <time>2018-01-09T11:10:43Z</time>
      </trkpt>
      <trkpt lat="42.087925" lon="2.233432">
        <ele>558.212</ele>
        <time>2018-01-09T11:10:48Z</time>
      </trkpt>
      <trkpt lat="42.087879" lon="2.233422">
        <ele>559.237</ele>
        <time>2018-01-09T11:10:53Z</time>
      </trkpt>
      <trkpt lat="42.087835" lon="2.233397">
        <ele>559.953</ele>
        <time>2018-01-09T11:10:58Z</time>
      </trkpt>
      <trkpt lat="42.087794" lon="2.233365">
        <ele>561.956</ele>
        <time>2018-01-09T11:11:03Z</time>
      </trkpt>
      <trkpt lat="42.087752" lon="2.233319">
        <ele>563.420</ele>
        <time>2018-01-09T11:11:08Z</time>
      </trkpt>
      <trkpt lat="42.087709" lon="2.233272">
        <ele>564.629</ele>
        <time>2018-01-09T11:11:13Z</time>
      </trkpt>
      <trkpt lat="42.087665" lon="2.233237">
        <ele>565.600</ele>
        <time>2018-01-09T11:11:18Z</time>
      </trkpt>
      <trkpt lat="42.087624" lon="2.233197">
        <ele>567.020</ele>
        <time>2018-01-09T11:11:22Z</time>
      </trkpt>
      <trkpt lat="42.087585" lon="2.233150">
        <ele>568.308</ele>
        <time>2018-01-09T11:11:26Z</time>
      </trkpt>
      <trkpt lat="42.087547" lon="2.233117">
        <ele>569.014</ele>
        <time>2018-01-09T11:11:30Z</time>
      </trkpt>
      <trkpt lat="42.087503" lon="2.233070">
        <ele>569.943</ele>
        <time>2018-01-09T11:11:35Z</time>
      </trkpt>
      <trkpt lat="42.087462" lon="2.233031">
        <ele>570.551</ele>
        <time>2018-01-09T11:11:39Z</time>
      </trkpt>
      <trkpt lat="42.087424" lon="2.232988">
        <ele>570.926</ele>
        <time>2018-01-09T11:11:43Z</time>
      </trkpt>
      <trkpt lat="42.087382" lon="2.232938">
        <ele>571.871</ele>
        <time>2018-01-09T11:11:48Z</time>
      </trkpt>
      <trkpt lat="42.087347" lon="2.232891">
        <ele>572.377</ele>
        <time>2018-01-09T11:11:52Z</time>
      </trkpt>
      <trkpt lat="42.087317" lon="2.232842">
        <ele>573.040</ele>
        <time>2018-01-09T11:11:56Z</time>
      </trkpt>
      <trkpt lat="42.087281" lon="2.232791">
        <ele>573.674</ele>
        <time>2018-01-09T11:12:02Z</time>
      </trkpt>
      <trkpt lat="42.087252" lon="2.232736">
        <ele>574.156</ele>
        <time>2018-01-09T11:12:07Z</time>
      </trkpt>
      <trkpt lat="42.087222" lon="2.232684">
        <ele>574.359</ele>
        <time>2018-01-09T11:12:11Z</time>
      </trkpt>
      <trkpt lat="42.087189" lon="2.232635">
        <ele>574.814</ele>
        <time>2018-01-09T11:12:15Z</time>
      </trkpt>
      <trkpt lat="42.087143" lon="2.232595">
        <ele>575.308</ele>
        <time>2018-01-09T11:12:20Z</time>
      </trkpt>
      <trkpt lat="42.087099" lon="2.232561">
        <ele>575.717</ele>
        <time>2018-01-09T11:12:26Z</time>
      </trkpt>
      <trkpt lat="42.087049" lon="2.232563">
        <ele>576.226</ele>
        <time>2018-01-09T11:12:32Z</time>
      </trkpt>
      <trkpt lat="42.087007" lon="2.232586">
        <ele>576.984</ele>
        <time>2018-01-09T11:12:36Z</time>
      </trkpt>
      <trkpt lat="42.086957" lon="2.232616">
        <ele>577.629</ele>
        <time>2018-01-09T11:12:40Z</time>
      </trkpt>
      <trkpt lat="42.086914" lon="2.232641">
        <ele>578.394</ele>
        <time>2018-01-09T11:12:44Z</time>
      </trkpt>
      <trkpt lat="42.086876" lon="2.232681">
        <ele>578.820</ele>
        <time>2018-01-09T11:12:48Z</time>
      </trkpt>
      <trkpt lat="42.086843" lon="2.232723">
        <ele>579.373</ele>
        <time>2018-01-09T11:12:52Z</time>
      </trkpt>
      <trkpt lat="42.086808" lon="2.232765">
        <ele>579.897</ele>
        <time>2018-01-09T11:12:56Z</time>
      </trkpt>
      <trkpt lat="42.086773" lon="2.232809">
        <ele>580.337</ele>
        <time>2018-01-09T11:13:00Z</time>
      </trkpt>
      <trkpt lat="42.086736" lon="2.232862">
        <ele>580.949</ele>
        <time>2018-01-09T11:13:05Z</time>
      </trkpt>
      <trkpt lat="42.086702" lon="2.232921">
        <ele>581.413</ele>
        <time>2018-01-09T11:13:10Z</time>
      </trkpt>
      <trkpt lat="42.086676" lon="2.232972">
        <ele>581.608</ele>
        <time>2018-01-09T11:13:14Z</time>
      </trkpt>
      <trkpt lat="42.086651" lon="2.233029">
        <ele>581.635</ele>
        <time>2018-01-09T11:13:18Z</time>
      </trkpt>
      <trkpt lat="42.086622" lon="2.233092">
        <ele>581.694</ele>
        <time>2018-01-09T11:13:23Z</time>
      </trkpt>
      <trkpt lat="42.086594" lon="2.233152">
        <ele>581.912</ele>
        <time>2018-01-09T11:13:28Z</time>
      </trkpt>
      <trkpt lat="42.086569" lon="2.233204">
        <ele>582.077</ele>
        <time>2018-01-09T11:13:32Z</time>
      </trkpt>
      <trkpt lat="42.086547" lon="2.233260">
        <ele>582.112</ele>
        <time>2018-01-09T11:13:36Z</time>
      </trkpt>
      <trkpt lat="42.086524" lon="2.233326">
        <ele>582.438</ele>
        <time>2018-01-09T11:13:40Z</time>
      </trkpt>
      <trkpt lat="42.086500" lon="2.233384">
        <ele>582.521</ele>
        <time>2018-01-09T11:13:44Z</time>
      </trkpt>
      <trkpt lat="42.086476" lon="2.233448">
        <ele>582.725</ele>
        <time>2018-01-09T11:13:48Z</time>
      </trkpt>
      <trkpt lat="42.086452" lon="2.233506">
        <ele>583.053</ele>
        <time>2018-01-09T11:13:52Z</time>
      </trkpt>
      <trkpt lat="42.086423" lon="2.233570">
        <ele>583.104</ele>
        <time>2018-01-09T11:13:56Z</time>
      </trkpt>
      <trkpt lat="42.086397" lon="2.233626">
        <ele>583.414</ele>
        <time>2018-01-09T11:14:00Z</time>
      </trkpt>
      <trkpt lat="42.086369" lon="2.233691">
        <ele>583.508</ele>
        <time>2018-01-09T11:14:05Z</time>
      </trkpt>
      <trkpt lat="42.086339" lon="2.233739">
        <ele>583.677</ele>
        <time>2018-01-09T11:14:09Z</time>
      </trkpt>
      <trkpt lat="42.086305" lon="2.233795">
        <ele>583.456</ele>
        <time>2018-01-09T11:14:13Z</time>
      </trkpt>
      <trkpt lat="42.086278" lon="2.233862">
        <ele>583.654</ele>
        <time>2018-01-09T11:14:17Z</time>
      </trkpt>
      <trkpt lat="42.086251" lon="2.233915">
        <ele>583.849</ele>
        <time>2018-01-09T11:14:21Z</time>
      </trkpt>
      <trkpt lat="42.086224" lon="2.233974">
        <ele>583.864</ele>
        <time>2018-01-09T11:14:25Z</time>
      </trkpt>
      <trkpt lat="42.086205" lon="2.234032">
        <ele>583.850</ele>
        <time>2018-01-09T11:14:29Z</time>
      </trkpt>
      <trkpt lat="42.086189" lon="2.234101">
        <ele>584.023</ele>
        <time>2018-01-09T11:14:33Z</time>
      </trkpt>
      <trkpt lat="42.086177" lon="2.234165">
        <ele>584.167</ele>
        <time>2018-01-09T11:14:37Z</time>
      </trkpt>
      <trkpt lat="42.086157" lon="2.234234">
        <ele>584.861</ele>
        <time>2018-01-09T11:14:42Z</time>
      </trkpt>
      <trkpt lat="42.086146" lon="2.234304">
        <ele>585.021</ele>
        <time>2018-01-09T11:14:46Z</time>
      </trkpt>
      <trkpt lat="42.086137" lon="2.234374">
        <ele>585.113</ele>
        <time>2018-01-09T11:14:50Z</time>
      </trkpt>
      <trkpt lat="42.086121" lon="2.234445">
        <ele>585.308</ele>
        <time>2018-01-09T11:14:54Z</time>
      </trkpt>
      <trkpt lat="42.086110" lon="2.234510">
        <ele>585.738</ele>
        <time>2018-01-09T11:14:58Z</time>
      </trkpt>
      <trkpt lat="42.086097" lon="2.234582">
        <ele>586.047</ele>
        <time>2018-01-09T11:15:02Z</time>
      </trkpt>
      <trkpt lat="42.086080" lon="2.234643">
        <ele>586.055</ele>
        <time>2018-01-09T11:15:05Z</time>
      </trkpt>
      <trkpt lat="42.086065" lon="2.234708">
        <ele>586.280</ele>
        <time>2018-01-09T11:15:09Z</time>
      </trkpt>
      <trkpt lat="42.086045" lon="2.234778">
        <ele>586.325</ele>
        <time>2018-01-09T11:15:13Z</time>
      </trkpt>
      <trkpt lat="42.086023" lon="2.234843">
        <ele>586.251</ele>
        <time>2018-01-09T11:15:17Z</time>
      </trkpt>
      <trkpt lat="42.085995" lon="2.234900">
        <ele>586.334</ele>
        <time>2018-01-09T11:15:21Z</time>
      </trkpt>
      <trkpt lat="42.085969" lon="2.234964">
        <ele>586.558</ele>
        <time>2018-01-09T11:15:25Z</time>
      </trkpt>
      <trkpt lat="42.085943" lon="2.235022">
        <ele>586.771</ele>
        <time>2018-01-09T11:15:29Z</time>
      </trkpt>
      <trkpt lat="42.085916" lon="2.235071">
        <ele>586.641</ele>
        <time>2018-01-09T11:15:33Z</time>
      </trkpt>
      <trkpt lat="42.085889" lon="2.235126">
        <ele>586.615</ele>
        <time>2018-01-09T11:15:37Z</time>
      </trkpt>
      <trkpt lat="42.085860" lon="2.235175">
        <ele>587.008</ele>
        <time>2018-01-09T11:15:41Z</time>
      </trkpt>
      <trkpt lat="42.085828" lon="2.235222">
        <ele>587.979</ele>
        <time>2018-01-09T11:15:45Z</time>
      </trkpt>
      <trkpt lat="42.085794" lon="2.235267">
        <ele>588.158</ele>
        <time>2018-01-09T11:15:49Z</time>
      </trkpt>
      <trkpt lat="42.085758" lon="2.235319">
        <ele>588.416</ele>
        <time>2018-01-09T11:15:53Z</time>
      </trkpt>
      <trkpt lat="42.085723" lon="2.235374">
        <ele>588.791</ele>
        <time>2018-01-09T11:15:57Z</time>
      </trkpt>
      <trkpt lat="42.085688" lon="2.235425">
        <ele>588.886</ele>
        <time>2018-01-09T11:16:01Z</time>
      </trkpt>
      <trkpt lat="42.085649" lon="2.235481">
        <ele>589.152</ele>
        <time>2018-01-09T11:16:05Z</time>
      </trkpt>
      <trkpt lat="42.085614" lon="2.235535">
        <ele>589.265</ele>
        <time>2018-01-09T11:16:09Z</time>
      </trkpt>
      <trkpt lat="42.085581" lon="2.235591">
        <ele>589.379</ele>
        <time>2018-01-09T11:16:13Z</time>
      </trkpt>
      <trkpt lat="42.085549" lon="2.235644">
        <ele>589.492</ele>
        <time>2018-01-09T11:16:17Z</time>
      </trkpt>
      <trkpt lat="42.085519" lon="2.235704">
        <ele>589.273</ele>
        <time>2018-01-09T11:16:21Z</time>
      </trkpt>
      <trkpt lat="42.085489" lon="2.235765">
        <ele>589.320</ele>
        <time>2018-01-09T11:16:25Z</time>
      </trkpt>
      <trkpt lat="42.085459" lon="2.235813">
        <ele>589.508</ele>
        <time>2018-01-09T11:16:28Z</time>
      </trkpt>
      <trkpt lat="42.085420" lon="2.235863">
        <ele>589.411</ele>
        <time>2018-01-09T11:16:32Z</time>
      </trkpt>
      <trkpt lat="42.085383" lon="2.235915">
        <ele>590.220</ele>
        <time>2018-01-09T11:16:36Z</time>
      </trkpt>
      <trkpt lat="42.085349" lon="2.235974">
        <ele>590.938</ele>
        <time>2018-01-09T11:16:41Z</time>
      </trkpt>
      <trkpt lat="42.085333" lon="2.236036">
        <ele>590.813</ele>
        <time>2018-01-09T11:16:45Z</time>
      </trkpt>
      <trkpt lat="42.085321" lon="2.236101">
        <ele>590.848</ele>
        <time>2018-01-09T11:16:49Z</time>
      </trkpt>
      <trkpt lat="42.085295" lon="2.236156">
        <ele>590.834</ele>
        <time>2018-01-09T11:16:53Z</time>
      </trkpt>
      <trkpt lat="42.085279" lon="2.236220">
        <ele>590.947</ele>
        <time>2018-01-09T11:16:57Z</time>
      </trkpt>
      <trkpt lat="42.085269" lon="2.236290">
        <ele>591.281</ele>
        <time>2018-01-09T11:17:01Z</time>
      </trkpt>
      <trkpt lat="42.085263" lon="2.236356">
        <ele>592.654</ele>
        <time>2018-01-09T11:17:05Z</time>
      </trkpt>
      <trkpt lat="42.085251" lon="2.236425">
        <ele>592.556</ele>
        <time>2018-01-09T11:17:10Z</time>
      </trkpt>
      <trkpt lat="42.085235" lon="2.236495">
        <ele>591.911</ele>
        <time>2018-01-09T11:17:15Z</time>
      </trkpt>
      <trkpt lat="42.085232" lon="2.236565">
        <ele>592.308</ele>
        <time>2018-01-09T11:17:18Z</time>
      </trkpt>
      <trkpt lat="42.085200" lon="2.236626">
        <ele>592.437</ele>
        <time>2018-01-09T11:17:23Z</time>
      </trkpt>
      <trkpt lat="42.085170" lon="2.236693">
        <ele>592.246</ele>
        <time>2018-01-09T11:17:27Z</time>
      </trkpt>
      <trkpt lat="42.085142" lon="2.236750">
        <ele>591.944</ele>
        <time>2018-01-09T11:17:30Z</time>
      </trkpt>
      <trkpt lat="42.085119" lon="2.236823">
        <ele>592.229</ele>
        <time>2018-01-09T11:17:34Z</time>
      </trkpt>
      <trkpt lat="42.085098" lon="2.236894">
        <ele>591.794</ele>
        <time>2018-01-09T11:17:38Z</time>
      </trkpt>
      <trkpt lat="42.085074" lon="2.236961">
        <ele>591.510</ele>
        <time>2018-01-09T11:17:42Z</time>
      </trkpt>
      <trkpt lat="42.085051" lon="2.237030">
        <ele>591.683</ele>
        <time>2018-01-09T11:17:46Z</time>
      </trkpt>
      <trkpt lat="42.085023" lon="2.237094">
        <ele>591.847</ele>
        <time>2018-01-09T11:17:50Z</time>
      </trkpt>
      <trkpt lat="42.084991" lon="2.237155">
        <ele>591.746</ele>
        <time>2018-01-09T11:17:54Z</time>
      </trkpt>
      <trkpt lat="42.084954" lon="2.237200">
        <ele>591.388</ele>
        <time>2018-01-09T11:17:58Z</time>
      </trkpt>
      <trkpt lat="42.084917" lon="2.237242">
        <ele>591.016</ele>
        <time>2018-01-09T11:18:02Z</time>
      </trkpt>
      <trkpt lat="42.084884" lon="2.237296">
        <ele>590.908</ele>
        <time>2018-01-09T11:18:06Z</time>
      </trkpt>
      <trkpt lat="42.084852" lon="2.237354">
        <ele>590.776</ele>
        <time>2018-01-09T11:18:11Z</time>
      </trkpt>
      <trkpt lat="42.084823" lon="2.237414">
        <ele>590.835</ele>
        <time>2018-01-09T11:18:15Z</time>
      </trkpt>
      <trkpt lat="42.084798" lon="2.237484">
        <ele>591.073</ele>
        <time>2018-01-09T11:18:19Z</time>
      </trkpt>
      <trkpt lat="42.084780" lon="2.237547">
        <ele>590.768</ele>
        <time>2018-01-09T11:18:23Z</time>
      </trkpt>
      <trkpt lat="42.084758" lon="2.237616">
        <ele>590.643</ele>
        <time>2018-01-09T11:18:27Z</time>
      </trkpt>
      <trkpt lat="42.084739" lon="2.237685">
        <ele>590.419</ele>
        <time>2018-01-09T11:18:32Z</time>
      </trkpt>
      <trkpt lat="42.084715" lon="2.237753">
        <ele>590.282</ele>
        <time>2018-01-09T11:18:36Z</time>
      </trkpt>
      <trkpt lat="42.084691" lon="2.237822">
        <ele>590.516</ele>
        <time>2018-01-09T11:18:40Z</time>
      </trkpt>
      <trkpt lat="42.084661" lon="2.237879">
        <ele>590.547</ele>
        <time>2018-01-09T11:18:44Z</time>
      </trkpt>
      <trkpt lat="42.084624" lon="2.237939">
        <ele>590.029</ele>
        <time>2018-01-09T11:18:48Z</time>
      </trkpt>
      <trkpt lat="42.084577" lon="2.237961">
        <ele>590.221</ele>
        <time>2018-01-09T11:18:52Z</time>
      </trkpt>
      <trkpt lat="42.084529" lon="2.237990">
        <ele>590.108</ele>
        <time>2018-01-09T11:18:57Z</time>
      </trkpt>
      <trkpt lat="42.084535" lon="2.238056">
        <ele>589.916</ele>
        <time>2018-01-09T11:19:02Z</time>
      </trkpt>
      <trkpt lat="42.084499" lon="2.238001">
        <ele>589.275</ele>
        <time>2018-01-09T11:19:19Z</time>
      </trkpt>
      <trkpt lat="42.084453" lon="2.237960">
        <ele>589.143</ele>
        <time>2018-01-09T11:19:24Z</time>
      </trkpt>
      <trkpt lat="42.084416" lon="2.237925">
        <ele>589.468</ele>
        <time>2018-01-09T11:19:28Z</time>
      </trkpt>
      <trkpt lat="42.084369" lon="2.237899">
        <ele>589.713</ele>
        <time>2018-01-09T11:19:33Z</time>
      </trkpt>
      <trkpt lat="42.084320" lon="2.237868">
        <ele>589.669</ele>
        <time>2018-01-09T11:19:38Z</time>
      </trkpt>
      <trkpt lat="42.084273" lon="2.237841">
        <ele>589.592</ele>
        <time>2018-01-09T11:19:42Z</time>
      </trkpt>
      <trkpt lat="42.084224" lon="2.237819">
        <ele>589.516</ele>
        <time>2018-01-09T11:19:46Z</time>
      </trkpt>
      <trkpt lat="42.084180" lon="2.237798">
        <ele>589.533</ele>
        <time>2018-01-09T11:19:50Z</time>
      </trkpt>
      <trkpt lat="42.084131" lon="2.237765">
        <ele>589.523</ele>
        <time>2018-01-09T11:19:54Z</time>
      </trkpt>
      <trkpt lat="42.084085" lon="2.237739">
        <ele>589.615</ele>
        <time>2018-01-09T11:19:58Z</time>
      </trkpt>
      <trkpt lat="42.084042" lon="2.237706">
        <ele>588.508</ele>
        <time>2018-01-09T11:20:02Z</time>
      </trkpt>
      <trkpt lat="42.084004" lon="2.237672">
        <ele>586.855</ele>
        <time>2018-01-09T11:20:07Z</time>
      </trkpt>
      <trkpt lat="42.083971" lon="2.237626">
        <ele>586.014</ele>
        <time>2018-01-09T11:20:11Z</time>
      </trkpt>
      <trkpt lat="42.083939" lon="2.237565">
        <ele>585.362</ele>
        <time>2018-01-09T11:20:16Z</time>
      </trkpt>
      <trkpt lat="42.083907" lon="2.237504">
        <ele>585.367</ele>
        <time>2018-01-09T11:20:20Z</time>
      </trkpt>
      <trkpt lat="42.083876" lon="2.237435">
        <ele>584.812</ele>
        <time>2018-01-09T11:20:24Z</time>
      </trkpt>
      <trkpt lat="42.083850" lon="2.237375">
        <ele>584.368</ele>
        <time>2018-01-09T11:20:28Z</time>
      </trkpt>
      <trkpt lat="42.083822" lon="2.237316">
        <ele>584.041</ele>
        <time>2018-01-09T11:20:32Z</time>
      </trkpt>
      <trkpt lat="42.083799" lon="2.237263">
        <ele>583.995</ele>
        <time>2018-01-09T11:20:35Z</time>
      </trkpt>
      <trkpt lat="42.083760" lon="2.237209">
        <ele>583.353</ele>
        <time>2018-01-09T11:20:39Z</time>
      </trkpt>
      <trkpt lat="42.083719" lon="2.237170">
        <ele>582.704</ele>
        <time>2018-01-09T11:20:43Z</time>
      </trkpt>
      <trkpt lat="42.083678" lon="2.237138">
        <ele>582.214</ele>
        <time>2018-01-09T11:20:47Z</time>
      </trkpt>
      <trkpt lat="42.083636" lon="2.237102">
        <ele>581.308</ele>
        <time>2018-01-09T11:20:51Z</time>
      </trkpt>
      <trkpt lat="42.083593" lon="2.237061">
        <ele>580.527</ele>
        <time>2018-01-09T11:20:55Z</time>
      </trkpt>
      <trkpt lat="42.083541" lon="2.237025">
        <ele>580.176</ele>
        <time>2018-01-09T11:20:59Z</time>
      </trkpt>
      <trkpt lat="42.083501" lon="2.236995">
        <ele>580.244</ele>
        <time>2018-01-09T11:21:02Z</time>
      </trkpt>
      <trkpt lat="42.083458" lon="2.236958">
        <ele>579.959</ele>
        <time>2018-01-09T11:21:06Z</time>
      </trkpt>
      <trkpt lat="42.083409" lon="2.236918">
        <ele>580.174</ele>
        <time>2018-01-09T11:21:10Z</time>
      </trkpt>
      <trkpt lat="42.083377" lon="2.236870">
        <ele>578.710</ele>
        <time>2018-01-09T11:21:15Z</time>
      </trkpt>
      <trkpt lat="42.083337" lon="2.236825">
        <ele>579.353</ele>
        <time>2018-01-09T11:21:20Z</time>
      </trkpt>
      <trkpt lat="42.083294" lon="2.236788">
        <ele>579.147</ele>
        <time>2018-01-09T11:21:24Z</time>
      </trkpt>
      <trkpt lat="42.083256" lon="2.236752">
        <ele>579.018</ele>
        <time>2018-01-09T11:21:27Z</time>
      </trkpt>
      <trkpt lat="42.083217" lon="2.236715">
        <ele>578.198</ele>
        <time>2018-01-09T11:21:30Z</time>
      </trkpt>
      <trkpt lat="42.083173" lon="2.236686">
        <ele>577.917</ele>
        <time>2018-01-09T11:21:33Z</time>
      </trkpt>
      <trkpt lat="42.083120" lon="2.236667">
        <ele>578.008</ele>
        <time>2018-01-09T11:21:37Z</time>
      </trkpt>
      <trkpt lat="42.083067" lon="2.236655">
        <ele>577.573</ele>
        <time>2018-01-09T11:21:41Z</time>
      </trkpt>
      <trkpt lat="42.083017" lon="2.236638">
        <ele>578.082</ele>
        <time>2018-01-09T11:21:45Z</time>
      </trkpt>
      <trkpt lat="42.082958" lon="2.236628">
        <ele>578.360</ele>
        <time>2018-01-09T11:21:49Z</time>
      </trkpt>
      <trkpt lat="42.082899" lon="2.236613">
        <ele>577.695</ele>
        <time>2018-01-09T11:21:53Z</time>
      </trkpt>
      <trkpt lat="42.082851" lon="2.236584">
        <ele>576.330</ele>
        <time>2018-01-09T11:21:57Z</time>
      </trkpt>
      <trkpt lat="42.082807" lon="2.236548">
        <ele>575.946</ele>
        <time>2018-01-09T11:22:01Z</time>
      </trkpt>
      <trkpt lat="42.082771" lon="2.236503">
        <ele>576.099</ele>
        <time>2018-01-09T11:22:05Z</time>
      </trkpt>
      <trkpt lat="42.082735" lon="2.236455">
        <ele>575.033</ele>
        <time>2018-01-09T11:22:09Z</time>
      </trkpt>
      <trkpt lat="42.082724" lon="2.236388">
        <ele>575.232</ele>
        <time>2018-01-09T11:22:13Z</time>
      </trkpt>
      <trkpt lat="42.082699" lon="2.236326">
        <ele>575.492</ele>
        <time>2018-01-09T11:22:17Z</time>
      </trkpt>
      <trkpt lat="42.082668" lon="2.236271">
        <ele>574.911</ele>
        <time>2018-01-09T11:22:21Z</time>
      </trkpt>
      <trkpt lat="42.082635" lon="2.236214">
        <ele>575.008</ele>
        <time>2018-01-09T11:22:25Z</time>
      </trkpt>
      <trkpt lat="42.082608" lon="2.236158">
        <ele>575.075</ele>
        <time>2018-01-09T11:22:29Z</time>
      </trkpt>
      <trkpt lat="42.082577" lon="2.236088">
        <ele>575.074</ele>
        <time>2018-01-09T11:22:33Z</time>
      </trkpt>
      <trkpt lat="42.082549" lon="2.236037">
        <ele>574.972</ele>
        <time>2018-01-09T11:22:36Z</time>
      </trkpt>
      <trkpt lat="42.082520" lon="2.235981">
        <ele>574.497</ele>
        <time>2018-01-09T11:22:40Z</time>
      </trkpt>
      <trkpt lat="42.082490" lon="2.235918">
        <ele>573.652</ele>
        <time>2018-01-09T11:22:45Z</time>
      </trkpt>
      <trkpt lat="42.082450" lon="2.235875">
        <ele>573.768</ele>
        <time>2018-01-09T11:22:49Z</time>
      </trkpt>
      <trkpt lat="42.082411" lon="2.235843">
        <ele>573.641</ele>
        <time>2018-01-09T11:22:53Z</time>
      </trkpt>
      <trkpt lat="42.082384" lon="2.235793">
        <ele>573.125</ele>
        <time>2018-01-09T11:22:57Z</time>
      </trkpt>
      <trkpt lat="42.082347" lon="2.235740">
        <ele>572.996</ele>
        <time>2018-01-09T11:23:01Z</time>
      </trkpt>
      <trkpt lat="42.082313" lon="2.235687">
        <ele>572.231</ele>
        <time>2018-01-09T11:23:05Z</time>
      </trkpt>
      <trkpt lat="42.082285" lon="2.235621">
        <ele>572.724</ele>
        <time>2018-01-09T11:23:09Z</time>
      </trkpt>
      <trkpt lat="42.082251" lon="2.235553">
        <ele>573.008</ele>
        <time>2018-01-09T11:23:13Z</time>
      </trkpt>
      <trkpt lat="42.082221" lon="2.235485">
        <ele>573.831</ele>
        <time>2018-01-09T11:23:17Z</time>
      </trkpt>
      <trkpt lat="42.082191" lon="2.235423">
        <ele>573.830</ele>
        <time>2018-01-09T11:23:21Z</time>
      </trkpt>
      <trkpt lat="42.082164" lon="2.235354">
        <ele>573.898</ele>
        <time>2018-01-09T11:23:25Z</time>
      </trkpt>
      <trkpt lat="42.082144" lon="2.235299">
        <ele>573.493</ele>
        <time>2018-01-09T11:23:28Z</time>
      </trkpt>
      <trkpt lat="42.082116" lon="2.235235">
        <ele>573.618</ele>
        <time>2018-01-09T11:23:32Z</time>
      </trkpt>
      <trkpt lat="42.082088" lon="2.235170">
        <ele>573.444</ele>
        <time>2018-01-09T11:23:36Z</time>
      </trkpt>
      <trkpt lat="42.082059" lon="2.235107">
        <ele>573.157</ele>
        <time>2018-01-09T11:23:40Z</time>
      </trkpt>
      <trkpt lat="42.082037" lon="2.235050">
        <ele>573.831</ele>
        <time>2018-01-09T11:23:43Z</time>
      </trkpt>
      <trkpt lat="42.082018" lon="2.234989">
        <ele>573.256</ele>
        <time>2018-01-09T11:23:46Z</time>
      </trkpt>
      <trkpt lat="42.081994" lon="2.234924">
        <ele>573.459</ele>
        <time>2018-01-09T11:23:50Z</time>
      </trkpt>
      <trkpt lat="42.081975" lon="2.234850">
        <ele>571.814</ele>
        <time>2018-01-09T11:23:54Z</time>
      </trkpt>
      <trkpt lat="42.081949" lon="2.234790">
        <ele>571.208</ele>
        <time>2018-01-09T11:23:58Z</time>
      </trkpt>
      <trkpt lat="42.081915" lon="2.234740">
        <ele>571.017</ele>
        <time>2018-01-09T11:24:02Z</time>
      </trkpt>
      <trkpt lat="42.081883" lon="2.234687">
        <ele>571.436</ele>
        <time>2018-01-09T11:24:07Z</time>
      </trkpt>
      <trkpt lat="42.081858" lon="2.234616">
        <ele>571.014</ele>
        <time>2018-01-09T11:24:11Z</time>
      </trkpt>
      <trkpt lat="42.081835" lon="2.234564">
        <ele>571.129</ele>
        <time>2018-01-09T11:24:14Z</time>
      </trkpt>
      <trkpt lat="42.081812" lon="2.234507">
        <ele>571.384</ele>
        <time>2018-01-09T11:24:17Z</time>
      </trkpt>
      <trkpt lat="42.081783" lon="2.234439">
        <ele>570.510</ele>
        <time>2018-01-09T11:24:21Z</time>
      </trkpt>
      <trkpt lat="42.081754" lon="2.234376">
        <ele>570.623</ele>
        <time>2018-01-09T11:24:25Z</time>
      </trkpt>
      <trkpt lat="42.081734" lon="2.234308">
        <ele>571.227</ele>
        <time>2018-01-09T11:24:28Z</time>
      </trkpt>
      <trkpt lat="42.081711" lon="2.234245">
        <ele>570.793</ele>
        <time>2018-01-09T11:24:32Z</time>
      </trkpt>
      <trkpt lat="42.081682" lon="2.234198">
        <ele>570.765</ele>
        <time>2018-01-09T11:24:36Z</time>
      </trkpt>
      <trkpt lat="42.081654" lon="2.234132">
        <ele>570.221</ele>
        <time>2018-01-09T11:24:41Z</time>
      </trkpt>
      <trkpt lat="42.081640" lon="2.234067">
        <ele>570.508</ele>
        <time>2018-01-09T11:24:44Z</time>
      </trkpt>
      <trkpt lat="42.081614" lon="2.234002">
        <ele>570.021</ele>
        <time>2018-01-09T11:24:48Z</time>
      </trkpt>
      <trkpt lat="42.081590" lon="2.233946">
        <ele>570.310</ele>
        <time>2018-01-09T11:24:52Z</time>
      </trkpt>
      <trkpt lat="42.081567" lon="2.233879">
        <ele>569.878</ele>
        <time>2018-01-09T11:24:56Z</time>
      </trkpt>
      <trkpt lat="42.081542" lon="2.233812">
        <ele>569.253</ele>
        <time>2018-01-09T11:24:59Z</time>
      </trkpt>
      <trkpt lat="42.081524" lon="2.233744">
        <ele>568.918</ele>
        <time>2018-01-09T11:25:03Z</time>
      </trkpt>
      <trkpt lat="42.081509" lon="2.233684">
        <ele>568.224</ele>
        <time>2018-01-09T11:25:08Z</time>
      </trkpt>
      <trkpt lat="42.081466" lon="2.233657">
        <ele>568.767</ele>
        <time>2018-01-09T11:25:12Z</time>
      </trkpt>
      <trkpt lat="42.081420" lon="2.233656">
        <ele>569.981</ele>
        <time>2018-01-09T11:25:16Z</time>
      </trkpt>
      <trkpt lat="42.081366" lon="2.233673">
        <ele>569.866</ele>
        <time>2018-01-09T11:25:20Z</time>
      </trkpt>
      <trkpt lat="42.081317" lon="2.233684">
        <ele>567.329</ele>
        <time>2018-01-09T11:25:29Z</time>
      </trkpt>
      <trkpt lat="42.081271" lon="2.233698">
        <ele>567.521</ele>
        <time>2018-01-09T11:25:33Z</time>
      </trkpt>
      <trkpt lat="42.081218" lon="2.233703">
        <ele>568.708</ele>
        <time>2018-01-09T11:25:37Z</time>
      </trkpt>
      <trkpt lat="42.081165" lon="2.233715">
        <ele>569.848</ele>
        <time>2018-01-09T11:25:42Z</time>
      </trkpt>
      <trkpt lat="42.081117" lon="2.233723">
        <ele>569.717</ele>
        <time>2018-01-09T11:25:45Z</time>
      </trkpt>
      <trkpt lat="42.081070" lon="2.233741">
        <ele>570.335</ele>
        <time>2018-01-09T11:25:48Z</time>
      </trkpt>
      <trkpt lat="42.081018" lon="2.233759">
        <ele>570.640</ele>
        <time>2018-01-09T11:25:52Z</time>
      </trkpt>
      <trkpt lat="42.080965" lon="2.233772">
        <ele>570.875</ele>
        <time>2018-01-09T11:25:56Z</time>
      </trkpt>
      <trkpt lat="42.080921" lon="2.233786">
        <ele>570.331</ele>
        <time>2018-01-09T11:25:59Z</time>
      </trkpt>
      <trkpt lat="42.080878" lon="2.233804">
        <ele>567.674</ele>
        <time>2018-01-09T11:26:04Z</time>
      </trkpt>
      <trkpt lat="42.080827" lon="2.233821">
        <ele>566.918</ele>
        <time>2018-01-09T11:26:09Z</time>
      </trkpt>
      <trkpt lat="42.080780" lon="2.233845">
        <ele>567.169</ele>
        <time>2018-01-09T11:26:14Z</time>
      </trkpt>
      <trkpt lat="42.080729" lon="2.233865">
        <ele>568.104</ele>
        <time>2018-01-09T11:26:18Z</time>
      </trkpt>
      <trkpt lat="42.080686" lon="2.233888">
        <ele>568.424</ele>
        <time>2018-01-09T11:26:22Z</time>
      </trkpt>
      <trkpt lat="42.080638" lon="2.233900">
        <ele>567.708</ele>
        <time>2018-01-09T11:26:26Z</time>
      </trkpt>
      <trkpt lat="42.080587" lon="2.233899">
        <ele>567.698</ele>
        <time>2018-01-09T11:26:30Z</time>
      </trkpt>
      <trkpt lat="42.080537" lon="2.233919">
        <ele>567.547</ele>
        <time>2018-01-09T11:26:34Z</time>
      </trkpt>
      <trkpt lat="42.080487" lon="2.233952">
        <ele>567.075</ele>
        <time>2018-01-09T11:26:38Z</time>
      </trkpt>
      <trkpt lat="42.080441" lon="2.233970">
        <ele>567.450</ele>
        <time>2018-01-09T11:26:41Z</time>
      </trkpt>
      <trkpt lat="42.080395" lon="2.233997">
        <ele>567.245</ele>
        <time>2018-01-09T11:26:45Z</time>
      </trkpt>
      <trkpt lat="42.080343" lon="2.234027">
        <ele>567.341</ele>
        <time>2018-01-09T11:26:49Z</time>
      </trkpt>
      <trkpt lat="42.080288" lon="2.234046">
        <ele>567.114</ele>
        <time>2018-01-09T11:26:53Z</time>
      </trkpt>
      <trkpt lat="42.080239" lon="2.234071">
        <ele>566.528</ele>
        <time>2018-01-09T11:26:57Z</time>
      </trkpt>
      <trkpt lat="42.080189" lon="2.234091">
        <ele>566.914</ele>
        <time>2018-01-09T11:27:01Z</time>
      </trkpt>
      <trkpt lat="42.080139" lon="2.234100">
        <ele>566.354</ele>
        <time>2018-01-09T11:27:06Z</time>
      </trkpt>
      <trkpt lat="42.080090" lon="2.234118">
        <ele>565.409</ele>
        <time>2018-01-09T11:27:11Z</time>
      </trkpt>
      <trkpt lat="42.080046" lon="2.234135">
        <ele>565.108</ele>
        <time>2018-01-09T11:27:15Z</time>
      </trkpt>
      <trkpt lat="42.079997" lon="2.234154">
        <ele>564.593</ele>
        <time>2018-01-09T11:27:19Z</time>
      </trkpt>
      <trkpt lat="42.079949" lon="2.234186">
        <ele>562.882</ele>
        <time>2018-01-09T11:27:23Z</time>
      </trkpt>
      <trkpt lat="42.079905" lon="2.234224">
        <ele>561.630</ele>
        <time>2018-01-09T11:27:27Z</time>
      </trkpt>
      <trkpt lat="42.079854" lon="2.234258">
        <ele>561.835</ele>
        <time>2018-01-09T11:27:31Z</time>
      </trkpt>
      <trkpt lat="42.079811" lon="2.234299">
        <ele>561.190</ele>
        <time>2018-01-09T11:27:36Z</time>
      </trkpt>
      <trkpt lat="42.079768" lon="2.234352">
        <ele>560.666</ele>
        <time>2018-01-09T11:27:40Z</time>
      </trkpt>
      <trkpt lat="42.079737" lon="2.234397">
        <ele>560.639</ele>
        <time>2018-01-09T11:27:43Z</time>
      </trkpt>
      <trkpt lat="42.079691" lon="2.234459">
        <ele>560.233</ele>
        <time>2018-01-09T11:27:46Z</time>
      </trkpt>
      <trkpt lat="42.079663" lon="2.234507">
        <ele>559.546</ele>
        <time>2018-01-09T11:27:49Z</time>
      </trkpt>
      <trkpt lat="42.079637" lon="2.234557">
        <ele>559.388</ele>
        <time>2018-01-09T11:27:54Z</time>
      </trkpt>
      <trkpt lat="42.079596" lon="2.234603">
        <ele>557.816</ele>
        <time>2018-01-09T11:27:59Z</time>
      </trkpt>
      <trkpt lat="42.079554" lon="2.234639">
        <ele>557.908</ele>
        <time>2018-01-09T11:28:03Z</time>
      </trkpt>
      <trkpt lat="42.079514" lon="2.234671">
        <ele>558.336</ele>
        <time>2018-01-09T11:28:07Z</time>
      </trkpt>
      <trkpt lat="42.079464" lon="2.234701">
        <ele>558.465</ele>
        <time>2018-01-09T11:28:11Z</time>
      </trkpt>
      <trkpt lat="42.079423" lon="2.234731">
        <ele>558.293</ele>
        <time>2018-01-09T11:28:15Z</time>
      </trkpt>
      <trkpt lat="42.079376" lon="2.234774">
        <ele>558.668</ele>
        <time>2018-01-09T11:28:19Z</time>
      </trkpt>
      <trkpt lat="42.079331" lon="2.234805">
        <ele>558.393</ele>
        <time>2018-01-09T11:28:22Z</time>
      </trkpt>
      <trkpt lat="42.079289" lon="2.234841">
        <ele>557.499</ele>
        <time>2018-01-09T11:28:25Z</time>
      </trkpt>
      <trkpt lat="42.079248" lon="2.234875">
        <ele>556.982</ele>
        <time>2018-01-09T11:28:28Z</time>
      </trkpt>
      <trkpt lat="42.079205" lon="2.234908">
        <ele>556.216</ele>
        <time>2018-01-09T11:28:31Z</time>
      </trkpt>
      <trkpt lat="42.079161" lon="2.234942">
        <ele>556.095</ele>
        <time>2018-01-09T11:28:35Z</time>
      </trkpt>
      <trkpt lat="42.079120" lon="2.234967">
        <ele>554.349</ele>
        <time>2018-01-09T11:28:38Z</time>
      </trkpt>
      <trkpt lat="42.079081" lon="2.234999">
        <ele>553.923</ele>
        <time>2018-01-09T11:28:41Z</time>
      </trkpt>
      <trkpt lat="42.079036" lon="2.235036">
        <ele>554.408</ele>
        <time>2018-01-09T11:28:45Z</time>
      </trkpt>
      <trkpt lat="42.078988" lon="2.235057">
        <ele>554.721</ele>
        <time>2018-01-09T11:28:49Z</time>
      </trkpt>
      <trkpt lat="42.078941" lon="2.235087">
        <ele>554.590</ele>
        <time>2018-01-09T11:28:53Z</time>
      </trkpt>
      <trkpt lat="42.078898" lon="2.235131">
        <ele>554.648</ele>
        <time>2018-01-09T11:28:57Z</time>
      </trkpt>
      <trkpt lat="42.078858" lon="2.235172">
        <ele>554.273</ele>
        <time>2018-01-09T11:29:01Z</time>
      </trkpt>
      <trkpt lat="42.078813" lon="2.235205">
        <ele>554.038</ele>
        <time>2018-01-09T11:29:05Z</time>
      </trkpt>
      <trkpt lat="42.078769" lon="2.235251">
        <ele>553.954</ele>
        <time>2018-01-09T11:29:09Z</time>
      </trkpt>
      <trkpt lat="42.078723" lon="2.235283">
        <ele>553.287</ele>
        <time>2018-01-09T11:29:13Z</time>
      </trkpt>
      <trkpt lat="42.078681" lon="2.235308">
        <ele>552.821</ele>
        <time>2018-01-09T11:29:18Z</time>
      </trkpt>
      <trkpt lat="42.078637" lon="2.235335">
        <ele>552.644</ele>
        <time>2018-01-09T11:29:21Z</time>
      </trkpt>
      <trkpt lat="42.078587" lon="2.235378">
        <ele>551.605</ele>
        <time>2018-01-09T11:29:25Z</time>
      </trkpt>
      <trkpt lat="42.078538" lon="2.235412">
        <ele>551.215</ele>
        <time>2018-01-09T11:29:29Z</time>
      </trkpt>
      <trkpt lat="42.078489" lon="2.235441">
        <ele>550.108</ele>
        <time>2018-01-09T11:29:33Z</time>
      </trkpt>
      <trkpt lat="42.078440" lon="2.235472">
        <ele>549.196</ele>
        <time>2018-01-09T11:29:38Z</time>
      </trkpt>
      <trkpt lat="42.078384" lon="2.235505">
        <ele>549.115</ele>
        <time>2018-01-09T11:29:42Z</time>
      </trkpt>
      <trkpt lat="42.078339" lon="2.235532">
        <ele>549.483</ele>
        <time>2018-01-09T11:29:45Z</time>
      </trkpt>
      <trkpt lat="42.078292" lon="2.235556">
        <ele>549.128</ele>
        <time>2018-01-09T11:29:48Z</time>
      </trkpt>
      <trkpt lat="42.078249" lon="2.235601">
        <ele>548.343</ele>
        <time>2018-01-09T11:29:52Z</time>
      </trkpt>
      <trkpt lat="42.078224" lon="2.235660">
        <ele>547.229</ele>
        <time>2018-01-09T11:29:56Z</time>
      </trkpt>
      <trkpt lat="42.078190" lon="2.235722">
        <ele>546.912</ele>
        <time>2018-01-09T11:30:00Z</time>
      </trkpt>
      <trkpt lat="42.078154" lon="2.235785">
        <ele>545.446</ele>
        <time>2018-01-09T11:30:04Z</time>
      </trkpt>
      <trkpt lat="42.078126" lon="2.235840">
        <ele>545.372</ele>
        <time>2018-01-09T11:30:07Z</time>
      </trkpt>
      <trkpt lat="42.078103" lon="2.235897">
        <ele>544.813</ele>
        <time>2018-01-09T11:30:10Z</time>
      </trkpt>
      <trkpt lat="42.078084" lon="2.235972">
        <ele>544.314</ele>
        <time>2018-01-09T11:30:14Z</time>
      </trkpt>
      <trkpt lat="42.078067" lon="2.236040">
        <ele>543.608</ele>
        <time>2018-01-09T11:30:18Z</time>
      </trkpt>
      <trkpt lat="42.078050" lon="2.236107">
        <ele>543.569</ele>
        <time>2018-01-09T11:30:22Z</time>
      </trkpt>
      <trkpt lat="42.078030" lon="2.236162">
        <ele>542.818</ele>
        <time>2018-01-09T11:30:26Z</time>
      </trkpt>
      <trkpt lat="42.078007" lon="2.236221">
        <ele>542.166</ele>
        <time>2018-01-09T11:30:30Z</time>
      </trkpt>
      <trkpt lat="42.077981" lon="2.236292">
        <ele>541.331</ele>
        <time>2018-01-09T11:30:33Z</time>
      </trkpt>
      <trkpt lat="42.077957" lon="2.236361">
        <ele>540.686</ele>
        <time>2018-01-09T11:30:38Z</time>
      </trkpt>
      <trkpt lat="42.077943" lon="2.236432">
        <ele>539.352</ele>
        <time>2018-01-09T11:30:42Z</time>
      </trkpt>
      <trkpt lat="42.077947" lon="2.236503">
        <ele>539.165</ele>
        <time>2018-01-09T11:30:46Z</time>
      </trkpt>
      <trkpt lat="42.077974" lon="2.236561">
        <ele>538.769</ele>
        <time>2018-01-09T11:30:50Z</time>
      </trkpt>
      <trkpt lat="42.078004" lon="2.236620">
        <ele>537.241</ele>
        <time>2018-01-09T11:30:54Z</time>
      </trkpt>
      <trkpt lat="42.078029" lon="2.236672">
        <ele>537.681</ele>
        <time>2018-01-09T11:30:58Z</time>
      </trkpt>
      <trkpt lat="42.078055" lon="2.236728">
        <ele>538.309</ele>
        <time>2018-01-09T11:31:02Z</time>
      </trkpt>
      <trkpt lat="42.078050" lon="2.236807">
        <ele>538.808</ele>
        <time>2018-01-09T11:31:06Z</time>
      </trkpt>
      <trkpt lat="42.078036" lon="2.236874">
        <ele>538.446</ele>
        <time>2018-01-09T11:31:10Z</time>
      </trkpt>
      <trkpt lat="42.078066" lon="2.236926">
        <ele>531.365</ele>
        <time>2018-01-09T11:31:45Z</time>
      </trkpt>
      <trkpt lat="42.078072" lon="2.236987">
        <ele>531.323</ele>
        <time>2018-01-09T11:31:49Z</time>
      </trkpt>
      <trkpt lat="42.078077" lon="2.237054">
        <ele>530.988</ele>
        <time>2018-01-09T11:31:53Z</time>
      </trkpt>
      <trkpt lat="42.078093" lon="2.237115">
        <ele>531.253</ele>
        <time>2018-01-09T11:31:58Z</time>
      </trkpt>
      <trkpt lat="42.078121" lon="2.237163">
        <ele>531.959</ele>
        <time>2018-01-09T11:32:03Z</time>
      </trkpt>
      <trkpt lat="42.078136" lon="2.237222">
        <ele>530.592</ele>
        <time>2018-01-09T11:32:08Z</time>
      </trkpt>
      <trkpt lat="42.078166" lon="2.237274">
        <ele>530.956</ele>
        <time>2018-01-09T11:32:13Z</time>
      </trkpt>
      <trkpt lat="42.078184" lon="2.237336">
        <ele>531.914</ele>
        <time>2018-01-09T11:32:19Z</time>
      </trkpt>
      <trkpt lat="42.078224" lon="2.237389">
        <ele>529.254</ele>
        <time>2018-01-09T11:32:32Z</time>
      </trkpt>
      <trkpt lat="42.078260" lon="2.237436">
        <ele>528.309</ele>
        <time>2018-01-09T11:32:37Z</time>
      </trkpt>
      <trkpt lat="42.078287" lon="2.237504">
        <ele>528.108</ele>
        <time>2018-01-09T11:32:42Z</time>
      </trkpt>
      <trkpt lat="42.078299" lon="2.237568">
        <ele>529.313</ele>
        <time>2018-01-09T11:32:45Z</time>
      </trkpt>
      <trkpt lat="42.078305" lon="2.237647">
        <ele>531.452</ele>
        <time>2018-01-09T11:32:48Z</time>
      </trkpt>
      <trkpt lat="42.078304" lon="2.237719">
        <ele>531.630</ele>
        <time>2018-01-09T11:32:51Z</time>
      </trkpt>
      <trkpt lat="42.078304" lon="2.237799">
        <ele>529.985</ele>
        <time>2018-01-09T11:32:54Z</time>
      </trkpt>
      <trkpt lat="42.078312" lon="2.237859">
        <ele>529.030</ele>
        <time>2018-01-09T11:32:57Z</time>
      </trkpt>
      <trkpt lat="42.078317" lon="2.237936">
        <ele>529.446</ele>
        <time>2018-01-09T11:33:01Z</time>
      </trkpt>
      <trkpt lat="42.078320" lon="2.238011">
        <ele>529.329</ele>
        <time>2018-01-09T11:33:05Z</time>
      </trkpt>
      <trkpt lat="42.078326" lon="2.238089">
        <ele>530.223</ele>
        <time>2018-01-09T11:33:09Z</time>
      </trkpt>
      <trkpt lat="42.078327" lon="2.238163">
        <ele>530.687</ele>
        <time>2018-01-09T11:33:12Z</time>
      </trkpt>
      <trkpt lat="42.078330" lon="2.238225">
        <ele>530.542</ele>
        <time>2018-01-09T11:33:15Z</time>
      </trkpt>
      <trkpt lat="42.078351" lon="2.238294">
        <ele>530.626</ele>
        <time>2018-01-09T11:33:19Z</time>
      </trkpt>
      <trkpt lat="42.078362" lon="2.238372">
        <ele>529.608</ele>
        <time>2018-01-09T11:33:24Z</time>
      </trkpt>
      <trkpt lat="42.078349" lon="2.238438">
        <ele>529.530</ele>
        <time>2018-01-09T11:33:27Z</time>
      </trkpt>
      <trkpt lat="42.078328" lon="2.238503">
        <ele>527.999</ele>
        <time>2018-01-09T11:33:30Z</time>
      </trkpt>
      <trkpt lat="42.078322" lon="2.238567">
        <ele>527.737</ele>
        <time>2018-01-09T11:33:33Z</time>
      </trkpt>
      <trkpt lat="42.078324" lon="2.238633">
        <ele>527.362</ele>
        <time>2018-01-09T11:33:37Z</time>
      </trkpt>
      <trkpt lat="42.078336" lon="2.238693">
        <ele>527.067</ele>
        <time>2018-01-09T11:33:41Z</time>
      </trkpt>
      <trkpt lat="42.078350" lon="2.238759">
        <ele>527.283</ele>
        <time>2018-01-09T11:33:45Z</time>
      </trkpt>
      <trkpt lat="42.078349" lon="2.238824">
        <ele>528.296</ele>
        <time>2018-01-09T11:33:49Z</time>
      </trkpt>
      <trkpt lat="42.078346" lon="2.238903">
        <ele>528.360</ele>
        <time>2018-01-09T11:33:53Z</time>
      </trkpt>
      <trkpt lat="42.078345" lon="2.238966">
        <ele>529.156</ele>
        <time>2018-01-09T11:33:57Z</time>
      </trkpt>
      <trkpt lat="42.078353" lon="2.239033">
        <ele>529.059</ele>
        <time>2018-01-09T11:34:01Z</time>
      </trkpt>
      <trkpt lat="42.078346" lon="2.239107">
        <ele>529.714</ele>
        <time>2018-01-09T11:34:05Z</time>
      </trkpt>
      <trkpt lat="42.078347" lon="2.239179">
        <ele>530.208</ele>
        <time>2018-01-09T11:34:09Z</time>
      </trkpt>
      <trkpt lat="42.078347" lon="2.239240">
        <ele>530.567</ele>
        <time>2018-01-09T11:34:12Z</time>
      </trkpt>
      <trkpt lat="42.078331" lon="2.239309">
        <ele>531.356</ele>
        <time>2018-01-09T11:34:15Z</time>
      </trkpt>
      <trkpt lat="42.078320" lon="2.239370">
        <ele>531.514</ele>
        <time>2018-01-09T11:34:18Z</time>
      </trkpt>
      <trkpt lat="42.078307" lon="2.239444">
        <ele>532.619</ele>
        <time>2018-01-09T11:34:22Z</time>
      </trkpt>
      <trkpt lat="42.078305" lon="2.239507">
        <ele>533.614</ele>
        <time>2018-01-09T11:34:26Z</time>
      </trkpt>
      <trkpt lat="42.078307" lon="2.239579">
        <ele>533.910</ele>
        <time>2018-01-09T11:34:30Z</time>
      </trkpt>
      <trkpt lat="42.078298" lon="2.239639">
        <ele>533.783</ele>
        <time>2018-01-09T11:34:33Z</time>
      </trkpt>
      <trkpt lat="42.078275" lon="2.239700">
        <ele>532.897</ele>
        <time>2018-01-09T11:34:38Z</time>
      </trkpt>
      <trkpt lat="42.078317" lon="2.239752">
        <ele>531.656</ele>
        <time>2018-01-09T11:34:54Z</time>
      </trkpt>
      <trkpt lat="42.078331" lon="2.239824">
        <ele>530.959</ele>
        <time>2018-01-09T11:34:58Z</time>
      </trkpt>
      <trkpt lat="42.078347" lon="2.239891">
        <ele>529.714</ele>
        <time>2018-01-09T11:35:01Z</time>
      </trkpt>
      <trkpt lat="42.078381" lon="2.239931">
        <ele>529.608</ele>
        <time>2018-01-09T11:35:05Z</time>
      </trkpt>
      <trkpt lat="42.078409" lon="2.239980">
        <ele>528.497</ele>
        <time>2018-01-09T11:35:10Z</time>
      </trkpt>
      <trkpt lat="42.078437" lon="2.240041">
        <ele>528.036</ele>
        <time>2018-01-09T11:35:14Z</time>
      </trkpt>
      <trkpt lat="42.078460" lon="2.240108">
        <ele>528.034</ele>
        <time>2018-01-09T11:35:18Z</time>
      </trkpt>
      <trkpt lat="42.078438" lon="2.240190">
        <ele>528.679</ele>
        <time>2018-01-09T11:35:22Z</time>
      </trkpt>
      <trkpt lat="42.078412" lon="2.240251">
        <ele>529.024</ele>
        <time>2018-01-09T11:35:25Z</time>
      </trkpt>
      <trkpt lat="42.078390" lon="2.240318">
        <ele>529.480</ele>
        <time>2018-01-09T11:35:29Z</time>
      </trkpt>
      <trkpt lat="42.078379" lon="2.240386">
        <ele>528.153</ele>
        <time>2018-01-09T11:35:34Z</time>
      </trkpt>
      <trkpt lat="42.078370" lon="2.240452">
        <ele>529.227</ele>
        <time>2018-01-09T11:35:38Z</time>
      </trkpt>
      <trkpt lat="42.078367" lon="2.240521">
        <ele>528.773</ele>
        <time>2018-01-09T11:35:43Z</time>
      </trkpt>
      <trkpt lat="42.078372" lon="2.240591">
        <ele>528.385</ele>
        <time>2018-01-09T11:35:48Z</time>
      </trkpt>
      <trkpt lat="42.078366" lon="2.240653">
        <ele>528.413</ele>
        <time>2018-01-09T11:35:52Z</time>
      </trkpt>
      <trkpt lat="42.078379" lon="2.240727">
        <ele>528.608</ele>
        <time>2018-01-09T11:35:57Z</time>
      </trkpt>
      <trkpt lat="42.078364" lon="2.240791">
        <ele>529.319</ele>
        <time>2018-01-09T11:36:01Z</time>
      </trkpt>
      <trkpt lat="42.078357" lon="2.240855">
        <ele>528.648</ele>
        <time>2018-01-09T11:36:06Z</time>
      </trkpt>
      <trkpt lat="42.078392" lon="2.240896">
        <ele>528.136</ele>
        <time>2018-01-09T11:36:11Z</time>
      </trkpt>
      <trkpt lat="42.078399" lon="2.240959">
        <ele>528.481</ele>
        <time>2018-01-09T11:36:15Z</time>
      </trkpt>
      <trkpt lat="42.078385" lon="2.241035">
        <ele>530.186</ele>
        <time>2018-01-09T11:36:19Z</time>
      </trkpt>
      <trkpt lat="42.078364" lon="2.241089">
        <ele>530.912</ele>
        <time>2018-01-09T11:36:22Z</time>
      </trkpt>
      <trkpt lat="42.078344" lon="2.241156">
        <ele>531.115</ele>
        <time>2018-01-09T11:36:26Z</time>
      </trkpt>
      <trkpt lat="42.078340" lon="2.241224">
        <ele>532.069</ele>
        <time>2018-01-09T11:36:31Z</time>
      </trkpt>
      <trkpt lat="42.078348" lon="2.241286">
        <ele>531.025</ele>
        <time>2018-01-09T11:36:35Z</time>
      </trkpt>
      <trkpt lat="42.078351" lon="2.241353">
        <ele>530.126</ele>
        <time>2018-01-09T11:36:39Z</time>
      </trkpt>
      <trkpt lat="42.078356" lon="2.241420">
        <ele>530.608</ele>
        <time>2018-01-09T11:36:44Z</time>
      </trkpt>
      <trkpt lat="42.078340" lon="2.241480">
        <ele>531.208</ele>
        <time>2018-01-09T11:36:48Z</time>
      </trkpt>
      <trkpt lat="42.078335" lon="2.241544">
        <ele>531.424</ele>
        <time>2018-01-09T11:36:53Z</time>
      </trkpt>
      <trkpt lat="42.078339" lon="2.241605">
        <ele>531.233</ele>
        <time>2018-01-09T11:36:57Z</time>
      </trkpt>
      <trkpt lat="42.078333" lon="2.241677">
        <ele>531.421</ele>
        <time>2018-01-09T11:37:02Z</time>
      </trkpt>
      <trkpt lat="42.078315" lon="2.241737">
        <ele>531.716</ele>
        <time>2018-01-09T11:37:06Z</time>
      </trkpt>
      <trkpt lat="42.078307" lon="2.241804">
        <ele>531.521</ele>
        <time>2018-01-09T11:37:11Z</time>
      </trkpt>
      <trkpt lat="42.078292" lon="2.241879">
        <ele>532.037</ele>
        <time>2018-01-09T11:37:16Z</time>
      </trkpt>
      <trkpt lat="42.078284" lon="2.241949">
        <ele>533.390</ele>
        <time>2018-01-09T11:37:20Z</time>
      </trkpt>
      <trkpt lat="42.078280" lon="2.242011">
        <ele>533.524</ele>
        <time>2018-01-09T11:37:24Z</time>
      </trkpt>
      <trkpt lat="42.078252" lon="2.242061">
        <ele>534.084</ele>
        <time>2018-01-09T11:37:28Z</time>
      </trkpt>
      <trkpt lat="42.078228" lon="2.242117">
        <ele>534.607</ele>
        <time>2018-01-09T11:37:33Z</time>
      </trkpt>
      <trkpt lat="42.078196" lon="2.242179">
        <ele>534.217</ele>
        <time>2018-01-09T11:37:37Z</time>
      </trkpt>
      <trkpt lat="42.078169" lon="2.242242">
        <ele>533.908</ele>
        <time>2018-01-09T11:37:41Z</time>
      </trkpt>
      <trkpt lat="42.078138" lon="2.242292">
        <ele>533.870</ele>
        <time>2018-01-09T11:37:45Z</time>
      </trkpt>
      <trkpt lat="42.078114" lon="2.242348">
        <ele>533.929</ele>
        <time>2018-01-09T11:37:49Z</time>
      </trkpt>
      <trkpt lat="42.078090" lon="2.242404">
        <ele>533.857</ele>
        <time>2018-01-09T11:37:53Z</time>
      </trkpt>
      <trkpt lat="42.078057" lon="2.242462">
        <ele>533.652</ele>
        <time>2018-01-09T11:37:58Z</time>
      </trkpt>
      <trkpt lat="42.078045" lon="2.242525">
        <ele>533.757</ele>
        <time>2018-01-09T11:38:02Z</time>
      </trkpt>
      <trkpt lat="42.078030" lon="2.242592">
        <ele>533.413</ele>
        <time>2018-01-09T11:38:06Z</time>
      </trkpt>
      <trkpt lat="42.078007" lon="2.242645">
        <ele>532.796</ele>
        <time>2018-01-09T11:38:22Z</time>
      </trkpt>
      <trkpt lat="42.077989" lon="2.242717">
        <ele>532.740</ele>
        <time>2018-01-09T11:38:26Z</time>
      </trkpt>
      <trkpt lat="42.077957" lon="2.242783">
        <ele>531.815</ele>
        <time>2018-01-09T11:38:30Z</time>
      </trkpt>
      <trkpt lat="42.077919" lon="2.242834">
        <ele>530.965</ele>
        <time>2018-01-09T11:38:34Z</time>
      </trkpt>
      <trkpt lat="42.077884" lon="2.242890">
        <ele>530.811</ele>
        <time>2018-01-09T11:38:38Z</time>
      </trkpt>
      <trkpt lat="42.077843" lon="2.242945">
        <ele>530.208</ele>
        <time>2018-01-09T11:38:42Z</time>
      </trkpt>
      <trkpt lat="42.077803" lon="2.242999">
        <ele>529.673</ele>
        <time>2018-01-09T11:38:46Z</time>
      </trkpt>
      <trkpt lat="42.077774" lon="2.243048">
        <ele>529.442</ele>
        <time>2018-01-09T11:38:49Z</time>
      </trkpt>
      <trkpt lat="42.077742" lon="2.243109">
        <ele>528.930</ele>
        <time>2018-01-09T11:38:53Z</time>
      </trkpt>
      <trkpt lat="42.077712" lon="2.243162">
        <ele>528.875</ele>
        <time>2018-01-09T11:38:56Z</time>
      </trkpt>
      <trkpt lat="42.077662" lon="2.243202">
        <ele>528.230</ele>
        <time>2018-01-09T11:39:00Z</time>
      </trkpt>
      <trkpt lat="42.077622" lon="2.243233">
        <ele>527.776</ele>
        <time>2018-01-09T11:39:03Z</time>
      </trkpt>
      <trkpt lat="42.077588" lon="2.243275">
        <ele>527.459</ele>
        <time>2018-01-09T11:39:06Z</time>
      </trkpt>
      <trkpt lat="42.077557" lon="2.243328">
        <ele>526.743</ele>
        <time>2018-01-09T11:39:10Z</time>
      </trkpt>
      <trkpt lat="42.077540" lon="2.243396">
        <ele>526.468</ele>
        <time>2018-01-09T11:39:14Z</time>
      </trkpt>
      <trkpt lat="42.077553" lon="2.243469">
        <ele>527.142</ele>
        <time>2018-01-09T11:39:40Z</time>
      </trkpt>
      <trkpt lat="42.077539" lon="2.243537">
        <ele>526.326</ele>
        <time>2018-01-09T11:39:44Z</time>
      </trkpt>
      <trkpt lat="42.077510" lon="2.243595">
        <ele>525.408</ele>
        <time>2018-01-09T11:39:48Z</time>
      </trkpt>
      <trkpt lat="42.077469" lon="2.243627">
        <ele>524.968</ele>
        <time>2018-01-09T11:39:53Z</time>
      </trkpt>
      <trkpt lat="42.077425" lon="2.243656">
        <ele>524.957</ele>
        <time>2018-01-09T11:39:57Z</time>
      </trkpt>
      <trkpt lat="42.077383" lon="2.243682">
        <ele>524.545</ele>
        <time>2018-01-09T11:40:01Z</time>
      </trkpt>
      <trkpt lat="42.077352" lon="2.243732">
        <ele>524.650</ele>
        <time>2018-01-09T11:40:06Z</time>
      </trkpt>
      <trkpt lat="42.077328" lon="2.243787">
        <ele>525.285</ele>
        <time>2018-01-09T11:40:11Z</time>
      </trkpt>
      <trkpt lat="42.077323" lon="2.243855">
        <ele>525.521</ele>
        <time>2018-01-09T11:40:19Z</time>
      </trkpt>
      <trkpt lat="42.077296" lon="2.243918">
        <ele>525.454</ele>
        <time>2018-01-09T11:40:25Z</time>
      </trkpt>
      <trkpt lat="42.077260" lon="2.243972">
        <ele>525.528</ele>
        <time>2018-01-09T11:40:30Z</time>
      </trkpt>
      <trkpt lat="42.077211" lon="2.243992">
        <ele>525.971</ele>
        <time>2018-01-09T11:40:35Z</time>
      </trkpt>
      <trkpt lat="42.077163" lon="2.244007">
        <ele>526.941</ele>
        <time>2018-01-09T11:40:40Z</time>
      </trkpt>
      <trkpt lat="42.077122" lon="2.244045">
        <ele>528.215</ele>
        <time>2018-01-09T11:40:45Z</time>
      </trkpt>
      <trkpt lat="42.077078" lon="2.244058">
        <ele>529.708</ele>
        <time>2018-01-09T11:40:55Z</time>
      </trkpt>
      <trkpt lat="42.077027" lon="2.244072">
        <ele>529.859</ele>
        <time>2018-01-09T11:41:10Z</time>
      </trkpt>
      <trkpt lat="42.076988" lon="2.244114">
        <ele>529.888</ele>
        <time>2018-01-09T11:41:45Z</time>
      </trkpt>
      <trkpt lat="42.076941" lon="2.244151">
        <ele>531.336</ele>
        <time>2018-01-09T11:41:49Z</time>
      </trkpt>
      <trkpt lat="42.076904" lon="2.244209">
        <ele>531.861</ele>
        <time>2018-01-09T11:41:53Z</time>
      </trkpt>
      <trkpt lat="42.076862" lon="2.244255">
        <ele>531.836</ele>
        <time>2018-01-09T11:41:57Z</time>
      </trkpt>
      <trkpt lat="42.076823" lon="2.244319">
        <ele>532.242</ele>
        <time>2018-01-09T11:42:01Z</time>
      </trkpt>
      <trkpt lat="42.076780" lon="2.244373">
        <ele>532.135</ele>
        <time>2018-01-09T11:42:05Z</time>
      </trkpt>
      <trkpt lat="42.076733" lon="2.244420">
        <ele>532.599</ele>
        <time>2018-01-09T11:42:09Z</time>
      </trkpt>
      <trkpt lat="42.076677" lon="2.244452">
        <ele>533.081</ele>
        <time>2018-01-09T11:42:13Z</time>
      </trkpt>
      <trkpt lat="42.076631" lon="2.244462">
        <ele>533.661</ele>
        <time>2018-01-09T11:42:16Z</time>
      </trkpt>
      <trkpt lat="42.076585" lon="2.244451">
        <ele>533.817</ele>
        <time>2018-01-09T11:42:19Z</time>
      </trkpt>
      <trkpt lat="42.076540" lon="2.244451">
        <ele>533.408</ele>
        <time>2018-01-09T11:42:22Z</time>
      </trkpt>
      <trkpt lat="42.076483" lon="2.244446">
        <ele>533.620</ele>
        <time>2018-01-09T11:42:35Z</time>
      </trkpt>
      <trkpt lat="42.076439" lon="2.244461">
        <ele>533.449</ele>
        <time>2018-01-09T11:42:38Z</time>
      </trkpt>
      <trkpt lat="42.076389" lon="2.244477">
        <ele>533.777</ele>
        <time>2018-01-09T11:42:42Z</time>
      </trkpt>
      <trkpt lat="42.076344" lon="2.244484">
        <ele>534.122</ele>
        <time>2018-01-09T11:42:45Z</time>
      </trkpt>
      <trkpt lat="42.076285" lon="2.244495">
        <ele>534.077</ele>
        <time>2018-01-09T11:42:49Z</time>
      </trkpt>
      <trkpt lat="42.076238" lon="2.244510">
        <ele>534.163</ele>
        <time>2018-01-09T11:42:52Z</time>
      </trkpt>
      <trkpt lat="42.076189" lon="2.244520">
        <ele>534.796</ele>
        <time>2018-01-09T11:42:56Z</time>
      </trkpt>
      <trkpt lat="42.076130" lon="2.244539">
        <ele>535.020</ele>
        <time>2018-01-09T11:43:00Z</time>
      </trkpt>
      <trkpt lat="42.076091" lon="2.244576">
        <ele>535.411</ele>
        <time>2018-01-09T11:43:03Z</time>
      </trkpt>
      <trkpt lat="42.076048" lon="2.244611">
        <ele>535.921</ele>
        <time>2018-01-09T11:43:07Z</time>
      </trkpt>
      <trkpt lat="42.075997" lon="2.244627">
        <ele>536.203</ele>
        <time>2018-01-09T11:43:11Z</time>
      </trkpt>
      <trkpt lat="42.075945" lon="2.244652">
        <ele>537.608</ele>
        <time>2018-01-09T11:43:16Z</time>
      </trkpt>
      <trkpt lat="42.075890" lon="2.244677">
        <ele>537.823</ele>
        <time>2018-01-09T11:43:20Z</time>
      </trkpt>
      <trkpt lat="42.075831" lon="2.244693">
        <ele>538.442</ele>
        <time>2018-01-09T11:43:24Z</time>
      </trkpt>
      <trkpt lat="42.075768" lon="2.244704">
        <ele>538.330</ele>
        <time>2018-01-09T11:43:27Z</time>
      </trkpt>
      <trkpt lat="42.075721" lon="2.244716">
        <ele>538.355</ele>
        <time>2018-01-09T11:43:30Z</time>
      </trkpt>
      <trkpt lat="42.075669" lon="2.244711">
        <ele>538.360</ele>
        <time>2018-01-09T11:43:33Z</time>
      </trkpt>
      <trkpt lat="42.075624" lon="2.244706">
        <ele>538.376</ele>
        <time>2018-01-09T11:43:36Z</time>
      </trkpt>
      <trkpt lat="42.075567" lon="2.244686">
        <ele>538.449</ele>
        <time>2018-01-09T11:43:40Z</time>
      </trkpt>
      <trkpt lat="42.075517" lon="2.244669">
        <ele>538.663</ele>
        <time>2018-01-09T11:43:43Z</time>
      </trkpt>
      <trkpt lat="42.075469" lon="2.244655">
        <ele>538.974</ele>
        <time>2018-01-09T11:43:46Z</time>
      </trkpt>
      <trkpt lat="42.075421" lon="2.244642">
        <ele>539.056</ele>
        <time>2018-01-09T11:43:49Z</time>
      </trkpt>
      <trkpt lat="42.075362" lon="2.244640">
        <ele>539.021</ele>
        <time>2018-01-09T11:43:53Z</time>
      </trkpt>
      <trkpt lat="42.075306" lon="2.244635">
        <ele>538.708</ele>
        <time>2018-01-09T11:43:57Z</time>
      </trkpt>
      <trkpt lat="42.075252" lon="2.244623">
        <ele>538.399</ele>
        <time>2018-01-09T11:44:01Z</time>
      </trkpt>
      <trkpt lat="42.075204" lon="2.244615">
        <ele>538.068</ele>
        <time>2018-01-09T11:44:05Z</time>
      </trkpt>
      <trkpt lat="42.075144" lon="2.244607">
        <ele>537.816</ele>
        <time>2018-01-09T11:44:18Z</time>
      </trkpt>
      <trkpt lat="42.075099" lon="2.244591">
        <ele>537.761</ele>
        <time>2018-01-09T11:44:21Z</time>
      </trkpt>
      <trkpt lat="42.075043" lon="2.244564">
        <ele>537.696</ele>
        <time>2018-01-09T11:44:25Z</time>
      </trkpt>
      <trkpt lat="42.075004" lon="2.244533">
        <ele>537.432</ele>
        <time>2018-01-09T11:44:28Z</time>
      </trkpt>
      <trkpt lat="42.074960" lon="2.244502">
        <ele>537.255</ele>
        <time>2018-01-09T11:44:31Z</time>
      </trkpt>
      <trkpt lat="42.074917" lon="2.244466">
        <ele>537.069</ele>
        <time>2018-01-09T11:44:34Z</time>
      </trkpt>
      <trkpt lat="42.074873" lon="2.244418">
        <ele>536.862</ele>
        <time>2018-01-09T11:44:37Z</time>
      </trkpt>
      <trkpt lat="42.074827" lon="2.244376">
        <ele>536.183</ele>
        <time>2018-01-09T11:44:40Z</time>
      </trkpt>
      <trkpt lat="42.074784" lon="2.244354">
        <ele>535.911</ele>
        <time>2018-01-09T11:44:43Z</time>
      </trkpt>
      <trkpt lat="42.074734" lon="2.244337">
        <ele>535.508</ele>
        <time>2018-01-09T11:44:46Z</time>
      </trkpt>
      <trkpt lat="42.074675" lon="2.244323">
        <ele>535.268</ele>
        <time>2018-01-09T11:44:50Z</time>
      </trkpt>
      <trkpt lat="42.074628" lon="2.244321">
        <ele>535.177</ele>
        <time>2018-01-09T11:44:53Z</time>
      </trkpt>
      <trkpt lat="42.074582" lon="2.244330">
        <ele>534.325</ele>
        <time>2018-01-09T11:44:56Z</time>
      </trkpt>
      <trkpt lat="42.074527" lon="2.244358">
        <ele>533.870</ele>
        <time>2018-01-09T11:45:00Z</time>
      </trkpt>
      <trkpt lat="42.074478" lon="2.244391">
        <ele>533.845</ele>
        <time>2018-01-09T11:45:04Z</time>
      </trkpt>
      <trkpt lat="42.074432" lon="2.244407">
        <ele>533.561</ele>
        <time>2018-01-09T11:45:08Z</time>
      </trkpt>
      <trkpt lat="42.074388" lon="2.244421">
        <ele>533.134</ele>
        <time>2018-01-09T11:45:12Z</time>
      </trkpt>
      <trkpt lat="42.074338" lon="2.244442">
        <ele>532.848</ele>
        <time>2018-01-09T11:45:16Z</time>
      </trkpt>
      <trkpt lat="42.074307" lon="2.244500">
        <ele>533.041</ele>
        <time>2018-01-09T11:45:20Z</time>
      </trkpt>
      <trkpt lat="42.074265" lon="2.244544">
        <ele>532.881</ele>
        <time>2018-01-09T11:45:24Z</time>
      </trkpt>
      <trkpt lat="42.074218" lon="2.244568">
        <ele>532.509</ele>
        <time>2018-01-09T11:45:27Z</time>
      </trkpt>
      <trkpt lat="42.074167" lon="2.244595">
        <ele>531.708</ele>
        <time>2018-01-09T11:45:31Z</time>
      </trkpt>
      <trkpt lat="42.074122" lon="2.244606">
        <ele>531.756</ele>
        <time>2018-01-09T11:45:35Z</time>
      </trkpt>
      <trkpt lat="42.074083" lon="2.244646">
        <ele>530.145</ele>
        <time>2018-01-09T11:45:50Z</time>
      </trkpt>
      <trkpt lat="42.074099" lon="2.244709">
        <ele>527.973</ele>
        <time>2018-01-09T11:46:32Z</time>
      </trkpt>
      <trkpt lat="42.074112" lon="2.244777">
        <ele>529.118</ele>
        <time>2018-01-09T11:46:37Z</time>
      </trkpt>
      <trkpt lat="42.074078" lon="2.244728">
        <ele>527.873</ele>
        <time>2018-01-09T11:46:50Z</time>
      </trkpt>
      <trkpt lat="42.074091" lon="2.244788">
        <ele>529.289</ele>
        <time>2018-01-09T11:46:54Z</time>
      </trkpt>
      <trkpt lat="42.074105" lon="2.244855">
        <ele>529.572</ele>
        <time>2018-01-09T11:46:59Z</time>
      </trkpt>
      <trkpt lat="42.074102" lon="2.244919">
        <ele>530.396</ele>
        <time>2018-01-09T11:47:05Z</time>
      </trkpt>
      <trkpt lat="42.074096" lon="2.244987">
        <ele>530.495</ele>
        <time>2018-01-09T11:47:10Z</time>
      </trkpt>
      <trkpt lat="42.074110" lon="2.245046">
        <ele>529.349</ele>
        <time>2018-01-09T11:47:17Z</time>
      </trkpt>
      <trkpt lat="42.074137" lon="2.245103">
        <ele>528.023</ele>
        <time>2018-01-09T11:47:26Z</time>
      </trkpt>
      <trkpt lat="42.074131" lon="2.245171">
        <ele>529.508</ele>
        <time>2018-01-09T11:47:31Z</time>
      </trkpt>
      <trkpt lat="42.074161" lon="2.245224">
        <ele>527.811</ele>
        <time>2018-01-09T11:47:37Z</time>
      </trkpt>
      <trkpt lat="42.074160" lon="2.245288">
        <ele>526.640</ele>
        <time>2018-01-09T11:47:43Z</time>
      </trkpt>
      <trkpt lat="42.074164" lon="2.245361">
        <ele>526.438</ele>
        <time>2018-01-09T11:47:48Z</time>
      </trkpt>
      <trkpt lat="42.074179" lon="2.245424">
        <ele>526.093</ele>
        <time>2018-01-09T11:47:53Z</time>
      </trkpt>
      <trkpt lat="42.074185" lon="2.245495">
        <ele>525.498</ele>
        <time>2018-01-09T11:47:57Z</time>
      </trkpt>
      <trkpt lat="42.074185" lon="2.245556">
        <ele>524.634</ele>
        <time>2018-01-09T11:48:04Z</time>
      </trkpt>
      <trkpt lat="42.074158" lon="2.245606">
        <ele>524.417</ele>
        <time>2018-01-09T11:48:11Z</time>
      </trkpt>
      <trkpt lat="42.074141" lon="2.245670">
        <ele>526.381</ele>
        <time>2018-01-09T11:48:38Z</time>
      </trkpt>
      <trkpt lat="42.074118" lon="2.245614">
        <ele>529.622</ele>
        <time>2018-01-09T11:49:04Z</time>
      </trkpt>
      <trkpt lat="42.074128" lon="2.245555">
        <ele>530.462</ele>
        <time>2018-01-09T11:49:09Z</time>
      </trkpt>
      <trkpt lat="42.074123" lon="2.245485">
        <ele>526.908</ele>
        <time>2018-01-09T11:49:29Z</time>
      </trkpt>
      <trkpt lat="42.074121" lon="2.245555">
        <ele>527.308</ele>
        <time>2018-01-09T11:49:42Z</time>
      </trkpt>
      <trkpt lat="42.074108" lon="2.245614">
        <ele>528.514</ele>
        <time>2018-01-09T11:49:47Z</time>
      </trkpt>
      <trkpt lat="42.074090" lon="2.245679">
        <ele>529.953</ele>
        <time>2018-01-09T11:49:56Z</time>
      </trkpt>
      <trkpt lat="42.074115" lon="2.245743">
        <ele>529.831</ele>
        <time>2018-01-09T11:50:08Z</time>
      </trkpt>
      <trkpt lat="42.074149" lon="2.245794">
        <ele>531.246</ele>
        <time>2018-01-09T11:50:13Z</time>
      </trkpt>
      <trkpt lat="42.074172" lon="2.245847">
        <ele>532.061</ele>
        <time>2018-01-09T11:50:18Z</time>
      </trkpt>
      <trkpt lat="42.074201" lon="2.245906">
        <ele>532.317</ele>
        <time>2018-01-09T11:50:24Z</time>
      </trkpt>
      <trkpt lat="42.074227" lon="2.245960">
        <ele>532.620</ele>
        <time>2018-01-09T11:50:29Z</time>
      </trkpt>
      <trkpt lat="42.074245" lon="2.246028">
        <ele>532.724</ele>
        <time>2018-01-09T11:50:35Z</time>
      </trkpt>
      <trkpt lat="42.074260" lon="2.246090">
        <ele>532.858</ele>
        <time>2018-01-09T11:50:39Z</time>
      </trkpt>
      <trkpt lat="42.074274" lon="2.246153">
        <ele>533.252</ele>
        <time>2018-01-09T11:50:43Z</time>
      </trkpt>
      <trkpt lat="42.074246" lon="2.246204">
        <ele>533.817</ele>
        <time>2018-01-09T11:50:50Z</time>
      </trkpt>
      <trkpt lat="42.074225" lon="2.246143">
        <ele>533.608</ele>
        <time>2018-01-09T11:50:55Z</time>
      </trkpt>
      <trkpt lat="42.074197" lon="2.246079">
        <ele>534.087</ele>
        <time>2018-01-09T11:51:01Z</time>
      </trkpt>
      <trkpt lat="42.074147" lon="2.246056">
        <ele>533.866</ele>
        <time>2018-01-09T11:51:06Z</time>
      </trkpt>
      <trkpt lat="42.074095" lon="2.246058">
        <ele>534.264</ele>
        <time>2018-01-09T11:51:10Z</time>
      </trkpt>
      <trkpt lat="42.074039" lon="2.246055">
        <ele>534.139</ele>
        <time>2018-01-09T11:51:14Z</time>
      </trkpt>
      <trkpt lat="42.073983" lon="2.246045">
        <ele>534.874</ele>
        <time>2018-01-09T11:51:18Z</time>
      </trkpt>
      <trkpt lat="42.073933" lon="2.246032">
        <ele>535.390</ele>
        <time>2018-01-09T11:51:22Z</time>
      </trkpt>
      <trkpt lat="42.073879" lon="2.246019">
        <ele>535.673</ele>
        <time>2018-01-09T11:51:31Z</time>
      </trkpt>
      <trkpt lat="42.073832" lon="2.246031">
        <ele>536.617</ele>
        <time>2018-01-09T11:51:37Z</time>
      </trkpt>
      <trkpt lat="42.073802" lon="2.246076">
        <ele>537.238</ele>
        <time>2018-01-09T11:51:47Z</time>
      </trkpt>
      <trkpt lat="42.073756" lon="2.246083">
        <ele>537.670</ele>
        <time>2018-01-09T11:51:56Z</time>
      </trkpt>
      <trkpt lat="42.073704" lon="2.246070">
        <ele>538.317</ele>
        <time>2018-01-09T11:52:01Z</time>
      </trkpt>
      <trkpt lat="42.073660" lon="2.246050">
        <ele>538.808</ele>
        <time>2018-01-09T11:52:05Z</time>
      </trkpt>
      <trkpt lat="42.073624" lon="2.246002">
        <ele>538.765</ele>
        <time>2018-01-09T11:52:10Z</time>
      </trkpt>
      <trkpt lat="42.073603" lon="2.245949">
        <ele>538.744</ele>
        <time>2018-01-09T11:52:13Z</time>
      </trkpt>
      <trkpt lat="42.073573" lon="2.245892">
        <ele>538.712</ele>
        <time>2018-01-09T11:52:17Z</time>
      </trkpt>
      <trkpt lat="42.073547" lon="2.245837">
        <ele>538.967</ele>
        <time>2018-01-09T11:52:21Z</time>
      </trkpt>
      <trkpt lat="42.073527" lon="2.245767">
        <ele>538.762</ele>
        <time>2018-01-09T11:52:25Z</time>
      </trkpt>
      <trkpt lat="42.073499" lon="2.245705">
        <ele>538.848</ele>
        <time>2018-01-09T11:52:30Z</time>
      </trkpt>
      <trkpt lat="42.073450" lon="2.245690">
        <ele>539.321</ele>
        <time>2018-01-09T11:52:37Z</time>
      </trkpt>
      <trkpt lat="42.073397" lon="2.245705">
        <ele>539.595</ele>
        <time>2018-01-09T11:52:41Z</time>
      </trkpt>
      <trkpt lat="42.073344" lon="2.245722">
        <ele>540.221</ele>
        <time>2018-01-09T11:52:46Z</time>
      </trkpt>
      <trkpt lat="42.073302" lon="2.245748">
        <ele>540.941</ele>
        <time>2018-01-09T11:52:50Z</time>
      </trkpt>
      <trkpt lat="42.073261" lon="2.245720">
        <ele>541.705</ele>
        <time>2018-01-09T11:52:56Z</time>
      </trkpt>
      <trkpt lat="42.073234" lon="2.245650">
        <ele>542.408</ele>
        <time>2018-01-09T11:53:00Z</time>
      </trkpt>
      <trkpt lat="42.073218" lon="2.245588">
        <ele>542.174</ele>
        <time>2018-01-09T11:53:04Z</time>
      </trkpt>
      <trkpt lat="42.073199" lon="2.245529">
        <ele>542.143</ele>
        <time>2018-01-09T11:53:14Z</time>
      </trkpt>
      <trkpt lat="42.073187" lon="2.245470">
        <ele>542.311</ele>
        <time>2018-01-09T11:53:22Z</time>
      </trkpt>
      <trkpt lat="42.073193" lon="2.245406">
        <ele>541.796</ele>
        <time>2018-01-09T11:53:27Z</time>
      </trkpt>
      <trkpt lat="42.073195" lon="2.245342">
        <ele>541.281</ele>
        <time>2018-01-09T11:53:32Z</time>
      </trkpt>
      <trkpt lat="42.073207" lon="2.245277">
        <ele>540.927</ele>
        <time>2018-01-09T11:53:36Z</time>
      </trkpt>
      <trkpt lat="42.073216" lon="2.245210">
        <ele>540.060</ele>
        <time>2018-01-09T11:53:40Z</time>
      </trkpt>
      <trkpt lat="42.073223" lon="2.245131">
        <ele>540.064</ele>
        <time>2018-01-09T11:53:45Z</time>
      </trkpt>
      <trkpt lat="42.073204" lon="2.245060">
        <ele>539.961</ele>
        <time>2018-01-09T11:53:49Z</time>
      </trkpt>
      <trkpt lat="42.073165" lon="2.245000">
        <ele>539.921</ele>
        <time>2018-01-09T11:53:53Z</time>
      </trkpt>
      <trkpt lat="42.073120" lon="2.244981">
        <ele>540.113</ele>
        <time>2018-01-09T11:53:56Z</time>
      </trkpt>
      <trkpt lat="42.073076" lon="2.244944">
        <ele>541.108</ele>
        <time>2018-01-09T11:54:01Z</time>
      </trkpt>
      <trkpt lat="42.073028" lon="2.244926">
        <ele>541.338</ele>
        <time>2018-01-09T11:54:05Z</time>
      </trkpt>
      <trkpt lat="42.072980" lon="2.244943">
        <ele>542.057</ele>
        <time>2018-01-09T11:54:10Z</time>
      </trkpt>
      <trkpt lat="42.072926" lon="2.244942">
        <ele>541.815</ele>
        <time>2018-01-09T11:54:15Z</time>
      </trkpt>
      <trkpt lat="42.072877" lon="2.244946">
        <ele>542.070</ele>
        <time>2018-01-09T11:54:19Z</time>
      </trkpt>
      <trkpt lat="42.072831" lon="2.244985">
        <ele>543.235</ele>
        <time>2018-01-09T11:54:23Z</time>
      </trkpt>
      <trkpt lat="42.072793" lon="2.245030">
        <ele>543.911</ele>
        <time>2018-01-09T11:54:27Z</time>
      </trkpt>
      <trkpt lat="42.072759" lon="2.245080">
        <ele>544.254</ele>
        <time>2018-01-09T11:54:31Z</time>
      </trkpt>
      <trkpt lat="42.072721" lon="2.245116">
        <ele>545.078</ele>
        <time>2018-01-09T11:54:34Z</time>
      </trkpt>
      <trkpt lat="42.072698" lon="2.245169">
        <ele>545.786</ele>
        <time>2018-01-09T11:54:37Z</time>
      </trkpt>
      <trkpt lat="42.072660" lon="2.245218">
        <ele>545.960</ele>
        <time>2018-01-09T11:54:41Z</time>
      </trkpt>
      <trkpt lat="42.072619" lon="2.245245">
        <ele>547.226</ele>
        <time>2018-01-09T11:54:45Z</time>
      </trkpt>
      <trkpt lat="42.072574" lon="2.245282">
        <ele>548.208</ele>
        <time>2018-01-09T11:54:50Z</time>
      </trkpt>
      <trkpt lat="42.072529" lon="2.245292">
        <ele>548.030</ele>
        <time>2018-01-09T11:54:53Z</time>
      </trkpt>
      <trkpt lat="42.072472" lon="2.245310">
        <ele>547.179</ele>
        <time>2018-01-09T11:54:57Z</time>
      </trkpt>
      <trkpt lat="42.072420" lon="2.245337">
        <ele>547.267</ele>
        <time>2018-01-09T11:55:01Z</time>
      </trkpt>
      <trkpt lat="42.072365" lon="2.245335">
        <ele>547.992</ele>
        <time>2018-01-09T11:55:06Z</time>
      </trkpt>
      <trkpt lat="42.072309" lon="2.245329">
        <ele>548.017</ele>
        <time>2018-01-09T11:55:11Z</time>
      </trkpt>
      <trkpt lat="42.072258" lon="2.245309">
        <ele>549.323</ele>
        <time>2018-01-09T11:55:16Z</time>
      </trkpt>
      <trkpt lat="42.072210" lon="2.245285">
        <ele>546.296</ele>
        <time>2018-01-09T11:55:20Z</time>
      </trkpt>
      <trkpt lat="42.072170" lon="2.245240">
        <ele>545.840</ele>
        <time>2018-01-09T11:55:25Z</time>
      </trkpt>
      <trkpt lat="42.072134" lon="2.245193">
        <ele>546.859</ele>
        <time>2018-01-09T11:55:30Z</time>
      </trkpt>
      <trkpt lat="42.072110" lon="2.245123">
        <ele>549.503</ele>
        <time>2018-01-09T11:55:35Z</time>
      </trkpt>
      <trkpt lat="42.072108" lon="2.245055">
        <ele>550.423</ele>
        <time>2018-01-09T11:55:39Z</time>
      </trkpt>
      <trkpt lat="42.072095" lon="2.244994">
        <ele>550.408</ele>
        <time>2018-01-09T11:55:44Z</time>
      </trkpt>
      <trkpt lat="42.072087" lon="2.244934">
        <ele>551.127</ele>
        <time>2018-01-09T11:55:49Z</time>
      </trkpt>
      <trkpt lat="42.072063" lon="2.244875">
        <ele>551.776</ele>
        <time>2018-01-09T11:55:53Z</time>
      </trkpt>
      <trkpt lat="42.072020" lon="2.244845">
        <ele>552.314</ele>
        <time>2018-01-09T11:55:58Z</time>
      </trkpt>
      <trkpt lat="42.071965" lon="2.244844">
        <ele>552.689</ele>
        <time>2018-01-09T11:56:03Z</time>
      </trkpt>
      <trkpt lat="42.071922" lon="2.244820">
        <ele>552.134</ele>
        <time>2018-01-09T11:56:07Z</time>
      </trkpt>
      <trkpt lat="42.071872" lon="2.244785">
        <ele>552.950</ele>
        <time>2018-01-09T11:56:12Z</time>
      </trkpt>
      <trkpt lat="42.071826" lon="2.244759">
        <ele>554.163</ele>
        <time>2018-01-09T11:56:17Z</time>
      </trkpt>
      <trkpt lat="42.071779" lon="2.244727">
        <ele>556.067</ele>
        <time>2018-01-09T11:56:22Z</time>
      </trkpt>
      <trkpt lat="42.071734" lon="2.244706">
        <ele>556.039</ele>
        <time>2018-01-09T11:56:30Z</time>
      </trkpt>
      <trkpt lat="42.071688" lon="2.244667">
        <ele>557.001</ele>
        <time>2018-01-09T11:56:35Z</time>
      </trkpt>
      <trkpt lat="42.071646" lon="2.244640">
        <ele>557.021</ele>
        <time>2018-01-09T11:56:39Z</time>
      </trkpt>
      <trkpt lat="42.071595" lon="2.244619">
        <ele>556.408</ele>
        <time>2018-01-09T11:56:44Z</time>
      </trkpt>
      <trkpt lat="42.071547" lon="2.244609">
        <ele>556.975</ele>
        <time>2018-01-09T11:56:49Z</time>
      </trkpt>
      <trkpt lat="42.071510" lon="2.244568">
        <ele>557.394</ele>
        <time>2018-01-09T11:56:54Z</time>
      </trkpt>
      <trkpt lat="42.071478" lon="2.244519">
        <ele>557.392</ele>
        <time>2018-01-09T11:57:00Z</time>
      </trkpt>
      <trkpt lat="42.071425" lon="2.244519">
        <ele>558.247</ele>
        <time>2018-01-09T11:57:05Z</time>
      </trkpt>
      <trkpt lat="42.071383" lon="2.244493">
        <ele>559.362</ele>
        <time>2018-01-09T11:57:10Z</time>
      </trkpt>
      <trkpt lat="42.071337" lon="2.244472">
        <ele>560.688</ele>
        <time>2018-01-09T11:57:16Z</time>
      </trkpt>
      <trkpt lat="42.071295" lon="2.244442">
        <ele>562.911</ele>
        <time>2018-01-09T11:57:21Z</time>
      </trkpt>
      <trkpt lat="42.071239" lon="2.244433">
        <ele>561.975</ele>
        <time>2018-01-09T11:57:37Z</time>
      </trkpt>
      <trkpt lat="42.071187" lon="2.244431">
        <ele>562.859</ele>
        <time>2018-01-09T11:57:42Z</time>
      </trkpt>
      <trkpt lat="42.071135" lon="2.244416">
        <ele>563.203</ele>
        <time>2018-01-09T11:57:46Z</time>
      </trkpt>
      <trkpt lat="42.071089" lon="2.244395">
        <ele>563.623</ele>
        <time>2018-01-09T11:57:50Z</time>
      </trkpt>
      <trkpt lat="42.071050" lon="2.244361">
        <ele>565.908</ele>
        <time>2018-01-09T11:57:54Z</time>
      </trkpt>
      <trkpt lat="42.070997" lon="2.244327">
        <ele>566.777</ele>
        <time>2018-01-09T11:57:58Z</time>
      </trkpt>
      <trkpt lat="42.070949" lon="2.244293">
        <ele>566.246</ele>
        <time>2018-01-09T11:58:02Z</time>
      </trkpt>
      <trkpt lat="42.070900" lon="2.244297">
        <ele>567.464</ele>
        <time>2018-01-09T11:58:07Z</time>
      </trkpt>
      <trkpt lat="42.070845" lon="2.244290">
        <ele>567.739</ele>
        <time>2018-01-09T11:58:11Z</time>
      </trkpt>
      <trkpt lat="42.070796" lon="2.244319">
        <ele>567.514</ele>
        <time>2018-01-09T11:58:16Z</time>
      </trkpt>
      <trkpt lat="42.070750" lon="2.244364">
        <ele>567.880</ele>
        <time>2018-01-09T11:58:39Z</time>
      </trkpt>
      <trkpt lat="42.070720" lon="2.244416">
        <ele>569.913</ele>
        <time>2018-01-09T11:58:43Z</time>
      </trkpt>
      <trkpt lat="42.070693" lon="2.244485">
        <ele>571.427</ele>
        <time>2018-01-09T11:58:47Z</time>
      </trkpt>
      <trkpt lat="42.070661" lon="2.244544">
        <ele>570.774</ele>
        <time>2018-01-09T11:58:50Z</time>
      </trkpt>
      <trkpt lat="42.070622" lon="2.244589">
        <ele>570.656</ele>
        <time>2018-01-09T11:58:53Z</time>
      </trkpt>
      <trkpt lat="42.070586" lon="2.244629">
        <ele>568.021</ele>
        <time>2018-01-09T11:58:56Z</time>
      </trkpt>
      <trkpt lat="42.070551" lon="2.244686">
        <ele>567.908</ele>
        <time>2018-01-09T11:59:00Z</time>
      </trkpt>
      <trkpt lat="42.070525" lon="2.244756">
        <ele>565.889</ele>
        <time>2018-01-09T11:59:03Z</time>
      </trkpt>
      <trkpt lat="42.070471" lon="2.244768">
        <ele>565.988</ele>
        <time>2018-01-09T11:59:08Z</time>
      </trkpt>
      <trkpt lat="42.070430" lon="2.244720">
        <ele>565.876</ele>
        <time>2018-01-09T11:59:12Z</time>
      </trkpt>
      <trkpt lat="42.070403" lon="2.244662">
        <ele>565.061</ele>
        <time>2018-01-09T11:59:16Z</time>
      </trkpt>
      <trkpt lat="42.070365" lon="2.244616">
        <ele>565.196</ele>
        <time>2018-01-09T11:59:19Z</time>
      </trkpt>
      <trkpt lat="42.070322" lon="2.244569">
        <ele>565.262</ele>
        <time>2018-01-09T11:59:22Z</time>
      </trkpt>
      <trkpt lat="42.070277" lon="2.244511">
        <ele>566.525</ele>
        <time>2018-01-09T11:59:27Z</time>
      </trkpt>
      <trkpt lat="42.070238" lon="2.244469">
        <ele>567.469</ele>
        <time>2018-01-09T11:59:30Z</time>
      </trkpt>
      <trkpt lat="42.070201" lon="2.244427">
        <ele>567.288</ele>
        <time>2018-01-09T11:59:34Z</time>
      </trkpt>
      <trkpt lat="42.070167" lon="2.244373">
        <ele>568.324</ele>
        <time>2018-01-09T11:59:38Z</time>
      </trkpt>
      <trkpt lat="42.070121" lon="2.244332">
        <ele>568.526</ele>
        <time>2018-01-09T11:59:44Z</time>
      </trkpt>
      <trkpt lat="42.070088" lon="2.244289">
        <ele>571.408</ele>
        <time>2018-01-09T11:59:49Z</time>
      </trkpt>
      <trkpt lat="42.070061" lon="2.244227">
        <ele>572.650</ele>
        <time>2018-01-09T11:59:53Z</time>
      </trkpt>
      <trkpt lat="42.070027" lon="2.244169">
        <ele>573.559</ele>
        <time>2018-01-09T11:59:58Z</time>
      </trkpt>
      <trkpt lat="42.069995" lon="2.244126">
        <ele>574.687</ele>
        <time>2018-01-09T12:00:02Z</time>
      </trkpt>
      <trkpt lat="42.069955" lon="2.244085">
        <ele>573.252</ele>
        <time>2018-01-09T12:00:10Z</time>
      </trkpt>
      <trkpt lat="42.069938" lon="2.244017">
        <ele>573.057</ele>
        <time>2018-01-09T12:00:15Z</time>
      </trkpt>
      <trkpt lat="42.069911" lon="2.243958">
        <ele>573.833</ele>
        <time>2018-01-09T12:01:20Z</time>
      </trkpt>
      <trkpt lat="42.069867" lon="2.243928">
        <ele>574.786</ele>
        <time>2018-01-09T12:01:24Z</time>
      </trkpt>
      <trkpt lat="42.069829" lon="2.243877">
        <ele>573.910</ele>
        <time>2018-01-09T12:01:28Z</time>
      </trkpt>
      <trkpt lat="42.069795" lon="2.243823">
        <ele>573.817</ele>
        <time>2018-01-09T12:01:32Z</time>
      </trkpt>
      <trkpt lat="42.069759" lon="2.243786">
        <ele>574.387</ele>
        <time>2018-01-09T12:01:36Z</time>
      </trkpt>
      <trkpt lat="42.069727" lon="2.243734">
        <ele>573.815</ele>
        <time>2018-01-09T12:01:40Z</time>
      </trkpt>
      <trkpt lat="42.069710" lon="2.243674">
        <ele>573.808</ele>
        <time>2018-01-09T12:01:43Z</time>
      </trkpt>
      <trkpt lat="42.069691" lon="2.243605">
        <ele>573.833</ele>
        <time>2018-01-09T12:01:47Z</time>
      </trkpt>
      <trkpt lat="42.069647" lon="2.243565">
        <ele>575.032</ele>
        <time>2018-01-09T12:01:52Z</time>
      </trkpt>
      <trkpt lat="42.069612" lon="2.243525">
        <ele>575.110</ele>
        <time>2018-01-09T12:01:56Z</time>
      </trkpt>
      <trkpt lat="42.069589" lon="2.243470">
        <ele>575.025</ele>
        <time>2018-01-09T12:02:00Z</time>
      </trkpt>
      <trkpt lat="42.069554" lon="2.243413">
        <ele>575.360</ele>
        <time>2018-01-09T12:02:05Z</time>
      </trkpt>
      <trkpt lat="42.069518" lon="2.243360">
        <ele>575.676</ele>
        <time>2018-01-09T12:02:10Z</time>
      </trkpt>
      <trkpt lat="42.069495" lon="2.243295">
        <ele>575.629</ele>
        <time>2018-01-09T12:02:20Z</time>
      </trkpt>
      <trkpt lat="42.069463" lon="2.243249">
        <ele>574.783</ele>
        <time>2018-01-09T12:02:26Z</time>
      </trkpt>
      <trkpt lat="42.069411" lon="2.243243">
        <ele>572.875</ele>
        <time>2018-01-09T12:03:03Z</time>
      </trkpt>
      <trkpt lat="42.069363" lon="2.243271">
        <ele>572.428</ele>
        <time>2018-01-09T12:03:07Z</time>
      </trkpt>
      <trkpt lat="42.069318" lon="2.243281">
        <ele>571.620</ele>
        <time>2018-01-09T12:03:10Z</time>
      </trkpt>
      <trkpt lat="42.069274" lon="2.243333">
        <ele>571.508</ele>
        <time>2018-01-09T12:03:14Z</time>
      </trkpt>
      <trkpt lat="42.069235" lon="2.243386">
        <ele>570.789</ele>
        <time>2018-01-09T12:03:18Z</time>
      </trkpt>
      <trkpt lat="42.069203" lon="2.243441">
        <ele>571.598</ele>
        <time>2018-01-09T12:03:22Z</time>
      </trkpt>
      <trkpt lat="42.069160" lon="2.243486">
        <ele>572.236</ele>
        <time>2018-01-09T12:03:26Z</time>
      </trkpt>
      <trkpt lat="42.069116" lon="2.243524">
        <ele>572.731</ele>
        <time>2018-01-09T12:03:30Z</time>
      </trkpt>
      <trkpt lat="42.069069" lon="2.243515">
        <ele>572.736</ele>
        <time>2018-01-09T12:03:34Z</time>
      </trkpt>
      <trkpt lat="42.069015" lon="2.243514">
        <ele>572.652</ele>
        <time>2018-01-09T12:03:38Z</time>
      </trkpt>
      <trkpt lat="42.068970" lon="2.243497">
        <ele>572.355</ele>
        <time>2018-01-09T12:03:41Z</time>
      </trkpt>
      <trkpt lat="42.068924" lon="2.243490">
        <ele>572.019</ele>
        <time>2018-01-09T12:03:44Z</time>
      </trkpt>
      <trkpt lat="42.068877" lon="2.243467">
        <ele>571.133</ele>
        <time>2018-01-09T12:03:48Z</time>
      </trkpt>
      <trkpt lat="42.068844" lon="2.243415">
        <ele>570.823</ele>
        <time>2018-01-09T12:03:51Z</time>
      </trkpt>
      <trkpt lat="42.068806" lon="2.243379">
        <ele>569.515</ele>
        <time>2018-01-09T12:03:54Z</time>
      </trkpt>
      <trkpt lat="42.068765" lon="2.243344">
        <ele>569.108</ele>
        <time>2018-01-09T12:03:57Z</time>
      </trkpt>
      <trkpt lat="42.068709" lon="2.243347">
        <ele>568.775</ele>
        <time>2018-01-09T12:04:01Z</time>
      </trkpt>
      <trkpt lat="42.068661" lon="2.243367">
        <ele>568.624</ele>
        <time>2018-01-09T12:04:05Z</time>
      </trkpt>
      <trkpt lat="42.068609" lon="2.243409">
        <ele>567.072</ele>
        <time>2018-01-09T12:04:09Z</time>
      </trkpt>
      <trkpt lat="42.068568" lon="2.243466">
        <ele>566.787</ele>
        <time>2018-01-09T12:04:13Z</time>
      </trkpt>
      <trkpt lat="42.068537" lon="2.243531">
        <ele>566.452</ele>
        <time>2018-01-09T12:04:17Z</time>
      </trkpt>
      <trkpt lat="42.068498" lon="2.243582">
        <ele>566.388</ele>
        <time>2018-01-09T12:04:21Z</time>
      </trkpt>
      <trkpt lat="42.068463" lon="2.243636">
        <ele>566.111</ele>
        <time>2018-01-09T12:04:25Z</time>
      </trkpt>
      <trkpt lat="42.068438" lon="2.243699">
        <ele>566.035</ele>
        <time>2018-01-09T12:04:29Z</time>
      </trkpt>
      <trkpt lat="42.068392" lon="2.243740">
        <ele>566.085</ele>
        <time>2018-01-09T12:04:33Z</time>
      </trkpt>
      <trkpt lat="42.068347" lon="2.243765">
        <ele>565.289</ele>
        <time>2018-01-09T12:04:37Z</time>
      </trkpt>
      <trkpt lat="42.068295" lon="2.243771">
        <ele>564.417</ele>
        <time>2018-01-09T12:04:41Z</time>
      </trkpt>
      <trkpt lat="42.068235" lon="2.243764">
        <ele>564.108</ele>
        <time>2018-01-09T12:04:45Z</time>
      </trkpt>
      <trkpt lat="42.068185" lon="2.243772">
        <ele>563.010</ele>
        <time>2018-01-09T12:04:49Z</time>
      </trkpt>
      <trkpt lat="42.068137" lon="2.243777">
        <ele>563.129</ele>
        <time>2018-01-09T12:04:54Z</time>
      </trkpt>
      <trkpt lat="42.068102" lon="2.243736">
        <ele>562.697</ele>
        <time>2018-01-09T12:05:04Z</time>
      </trkpt>
      <trkpt lat="42.068074" lon="2.243672">
        <ele>561.862</ele>
        <time>2018-01-09T12:05:10Z</time>
      </trkpt>
      <trkpt lat="42.068049" lon="2.243605">
        <ele>561.397</ele>
        <time>2018-01-09T12:05:14Z</time>
      </trkpt>
      <trkpt lat="42.068023" lon="2.243556">
        <ele>560.753</ele>
        <time>2018-01-09T12:05:17Z</time>
      </trkpt>
      <trkpt lat="42.067994" lon="2.243508">
        <ele>560.326</ele>
        <time>2018-01-09T12:05:20Z</time>
      </trkpt>
      <trkpt lat="42.067969" lon="2.243452">
        <ele>559.810</ele>
        <time>2018-01-09T12:05:24Z</time>
      </trkpt>
      <trkpt lat="42.067947" lon="2.243383">
        <ele>558.551</ele>
        <time>2018-01-09T12:05:29Z</time>
      </trkpt>
      <trkpt lat="42.067935" lon="2.243315">
        <ele>557.501</ele>
        <time>2018-01-09T12:05:33Z</time>
      </trkpt>
      <trkpt lat="42.067924" lon="2.243237">
        <ele>557.911</ele>
        <time>2018-01-09T12:05:37Z</time>
      </trkpt>
      <trkpt lat="42.067904" lon="2.243168">
        <ele>556.508</ele>
        <time>2018-01-09T12:05:41Z</time>
      </trkpt>
      <trkpt lat="42.067881" lon="2.243109">
        <ele>555.997</ele>
        <time>2018-01-09T12:05:45Z</time>
      </trkpt>
      <trkpt lat="42.067859" lon="2.243044">
        <ele>555.586</ele>
        <time>2018-01-09T12:05:49Z</time>
      </trkpt>
      <trkpt lat="42.067845" lon="2.242984">
        <ele>555.364</ele>
        <time>2018-01-09T12:05:54Z</time>
      </trkpt>
      <trkpt lat="42.067819" lon="2.242928">
        <ele>555.339</ele>
        <time>2018-01-09T12:05:58Z</time>
      </trkpt>
      <trkpt lat="42.067789" lon="2.242883">
        <ele>555.474</ele>
        <time>2018-01-09T12:06:01Z</time>
      </trkpt>
      <trkpt lat="42.067758" lon="2.242833">
        <ele>554.470</ele>
        <time>2018-01-09T12:06:05Z</time>
      </trkpt>
      <trkpt lat="42.067717" lon="2.242781">
        <ele>553.373</ele>
        <time>2018-01-09T12:06:11Z</time>
      </trkpt>
      <trkpt lat="42.067689" lon="2.242726">
        <ele>552.947</ele>
        <time>2018-01-09T12:06:14Z</time>
      </trkpt>
      <trkpt lat="42.067666" lon="2.242652">
        <ele>552.882</ele>
        <time>2018-01-09T12:06:18Z</time>
      </trkpt>
      <trkpt lat="42.067645" lon="2.242583">
        <ele>552.743</ele>
        <time>2018-01-09T12:06:22Z</time>
      </trkpt>
      <trkpt lat="42.067624" lon="2.242513">
        <ele>552.117</ele>
        <time>2018-01-09T12:06:26Z</time>
      </trkpt>
      <trkpt lat="42.067596" lon="2.242443">
        <ele>551.008</ele>
        <time>2018-01-09T12:06:31Z</time>
      </trkpt>
      <trkpt lat="42.067573" lon="2.242378">
        <ele>551.220</ele>
        <time>2018-01-09T12:06:34Z</time>
      </trkpt>
      <trkpt lat="42.067549" lon="2.242305">
        <ele>550.279</ele>
        <time>2018-01-09T12:06:38Z</time>
      </trkpt>
      <trkpt lat="42.067527" lon="2.242246">
        <ele>549.517</ele>
        <time>2018-01-09T12:06:41Z</time>
      </trkpt>
      <trkpt lat="42.067512" lon="2.242166">
        <ele>549.922</ele>
        <time>2018-01-09T12:06:45Z</time>
      </trkpt>
      <trkpt lat="42.067506" lon="2.242101">
        <ele>549.687</ele>
        <time>2018-01-09T12:06:48Z</time>
      </trkpt>
      <trkpt lat="42.067499" lon="2.242039">
        <ele>549.723</ele>
        <time>2018-01-09T12:06:51Z</time>
      </trkpt>
      <trkpt lat="42.067502" lon="2.241967">
        <ele>550.076</ele>
        <time>2018-01-09T12:06:55Z</time>
      </trkpt>
      <trkpt lat="42.067500" lon="2.241901">
        <ele>548.890</ele>
        <time>2018-01-09T12:06:59Z</time>
      </trkpt>
      <trkpt lat="42.067496" lon="2.241833">
        <ele>547.523</ele>
        <time>2018-01-09T12:07:04Z</time>
      </trkpt>
      <trkpt lat="42.067503" lon="2.241768">
        <ele>547.283</ele>
        <time>2018-01-09T12:07:08Z</time>
      </trkpt>
      <trkpt lat="42.067508" lon="2.241696">
        <ele>546.611</ele>
        <time>2018-01-09T12:07:12Z</time>
      </trkpt>
      <trkpt lat="42.067497" lon="2.241634">
        <ele>546.508</ele>
        <time>2018-01-09T12:07:15Z</time>
      </trkpt>
      <trkpt lat="42.067477" lon="2.241573">
        <ele>545.684</ele>
        <time>2018-01-09T12:07:18Z</time>
      </trkpt>
      <trkpt lat="42.067447" lon="2.241512">
        <ele>545.243</ele>
        <time>2018-01-09T12:07:22Z</time>
      </trkpt>
      <trkpt lat="42.067407" lon="2.241475">
        <ele>544.971</ele>
        <time>2018-01-09T12:07:26Z</time>
      </trkpt>
      <trkpt lat="42.067358" lon="2.241434">
        <ele>545.296</ele>
        <time>2018-01-09T12:07:30Z</time>
      </trkpt>
      <trkpt lat="42.067313" lon="2.241386">
        <ele>544.911</ele>
        <time>2018-01-09T12:07:34Z</time>
      </trkpt>
      <trkpt lat="42.067269" lon="2.241347">
        <ele>544.447</ele>
        <time>2018-01-09T12:07:38Z</time>
      </trkpt>
      <trkpt lat="42.067224" lon="2.241332">
        <ele>544.970</ele>
        <time>2018-01-09T12:07:44Z</time>
      </trkpt>
      <trkpt lat="42.067184" lon="2.241304">
        <ele>544.144</ele>
        <time>2018-01-09T12:07:48Z</time>
      </trkpt>
      <trkpt lat="42.067126" lon="2.241274">
        <ele>543.588</ele>
        <time>2018-01-09T12:07:52Z</time>
      </trkpt>
      <trkpt lat="42.067076" lon="2.241240">
        <ele>543.424</ele>
        <time>2018-01-09T12:07:56Z</time>
      </trkpt>
      <trkpt lat="42.067031" lon="2.241205">
        <ele>543.626</ele>
        <time>2018-01-09T12:08:00Z</time>
      </trkpt>
      <trkpt lat="42.066980" lon="2.241189">
        <ele>543.608</ele>
        <time>2018-01-09T12:08:04Z</time>
      </trkpt>
      <trkpt lat="42.066933" lon="2.241170">
        <ele>542.420</ele>
        <time>2018-01-09T12:08:07Z</time>
      </trkpt>
      <trkpt lat="42.066883" lon="2.241149">
        <ele>540.879</ele>
        <time>2018-01-09T12:08:10Z</time>
      </trkpt>
      <trkpt lat="42.066829" lon="2.241124">
        <ele>540.557</ele>
        <time>2018-01-09T12:08:14Z</time>
      </trkpt>
      <trkpt lat="42.066784" lon="2.241105">
        <ele>540.712</ele>
        <time>2018-01-09T12:08:17Z</time>
      </trkpt>
      <trkpt lat="42.066736" lon="2.241085">
        <ele>540.337</ele>
        <time>2018-01-09T12:08:20Z</time>
      </trkpt>
      <trkpt lat="42.066679" lon="2.241075">
        <ele>539.643</ele>
        <time>2018-01-09T12:08:24Z</time>
      </trkpt>
      <trkpt lat="42.066631" lon="2.241056">
        <ele>539.346</ele>
        <time>2018-01-09T12:08:28Z</time>
      </trkpt>
      <trkpt lat="42.066581" lon="2.241023">
        <ele>539.680</ele>
        <time>2018-01-09T12:08:32Z</time>
      </trkpt>
      <trkpt lat="42.066532" lon="2.240983">
        <ele>539.311</ele>
        <time>2018-01-09T12:08:36Z</time>
      </trkpt>
      <trkpt lat="42.066487" lon="2.240951">
        <ele>539.621</ele>
        <time>2018-01-09T12:08:40Z</time>
      </trkpt>
      <trkpt lat="42.066446" lon="2.240917">
        <ele>538.203</ele>
        <time>2018-01-09T12:08:51Z</time>
      </trkpt>
      <trkpt lat="42.066400" lon="2.240912">
        <ele>538.508</ele>
        <time>2018-01-09T12:08:56Z</time>
      </trkpt>
      <trkpt lat="42.066347" lon="2.240899">
        <ele>539.813</ele>
        <time>2018-01-09T12:09:11Z</time>
      </trkpt>
      <trkpt lat="42.066294" lon="2.240894">
        <ele>538.962</ele>
        <time>2018-01-09T12:09:15Z</time>
      </trkpt>
      <trkpt lat="42.066247" lon="2.240927">
        <ele>538.490</ele>
        <time>2018-01-09T12:09:20Z</time>
      </trkpt>
      <trkpt lat="42.066204" lon="2.240960">
        <ele>538.045</ele>
        <time>2018-01-09T12:09:26Z</time>
      </trkpt>
      <trkpt lat="42.066152" lon="2.240988">
        <ele>538.940</ele>
        <time>2018-01-09T12:09:34Z</time>
      </trkpt>
      <trkpt lat="42.066102" lon="2.241014">
        <ele>539.066</ele>
        <time>2018-01-09T12:09:39Z</time>
      </trkpt>
      <trkpt lat="42.066062" lon="2.241046">
        <ele>538.459</ele>
        <time>2018-01-09T12:09:43Z</time>
      </trkpt>
      <trkpt lat="42.066019" lon="2.241079">
        <ele>538.093</ele>
        <time>2018-01-09T12:09:47Z</time>
      </trkpt>
      <trkpt lat="42.065972" lon="2.241096">
        <ele>538.038</ele>
        <time>2018-01-09T12:09:51Z</time>
      </trkpt>
      <trkpt lat="42.065920" lon="2.241131">
        <ele>538.070</ele>
        <time>2018-01-09T12:09:55Z</time>
      </trkpt>
      <trkpt lat="42.065871" lon="2.241160">
        <ele>537.917</ele>
        <time>2018-01-09T12:09:59Z</time>
      </trkpt>
      <trkpt lat="42.065826" lon="2.241187">
        <ele>538.708</ele>
        <time>2018-01-09T12:10:03Z</time>
      </trkpt>
      <trkpt lat="42.065780" lon="2.241199">
        <ele>538.735</ele>
        <time>2018-01-09T12:10:06Z</time>
      </trkpt>
      <trkpt lat="42.065736" lon="2.241218">
        <ele>539.234</ele>
        <time>2018-01-09T12:10:10Z</time>
      </trkpt>
      <trkpt lat="42.065690" lon="2.241221">
        <ele>536.752</ele>
        <time>2018-01-09T12:10:20Z</time>
      </trkpt>
      <trkpt lat="42.065640" lon="2.241246">
        <ele>536.267</ele>
        <time>2018-01-09T12:10:24Z</time>
      </trkpt>
      <trkpt lat="42.065593" lon="2.241262">
        <ele>536.112</ele>
        <time>2018-01-09T12:10:27Z</time>
      </trkpt>
      <trkpt lat="42.065542" lon="2.241283">
        <ele>535.488</ele>
        <time>2018-01-09T12:10:31Z</time>
      </trkpt>
      <trkpt lat="42.065504" lon="2.241323">
        <ele>535.331</ele>
        <time>2018-01-09T12:10:34Z</time>
      </trkpt>
      <trkpt lat="42.065464" lon="2.241359">
        <ele>535.225</ele>
        <time>2018-01-09T12:10:37Z</time>
      </trkpt>
      <trkpt lat="42.065420" lon="2.241402">
        <ele>534.391</ele>
        <time>2018-01-09T12:10:41Z</time>
      </trkpt>
      <trkpt lat="42.065373" lon="2.241443">
        <ele>534.881</ele>
        <time>2018-01-09T12:10:45Z</time>
      </trkpt>
      <trkpt lat="42.065325" lon="2.241472">
        <ele>534.719</ele>
        <time>2018-01-09T12:10:48Z</time>
      </trkpt>
      <trkpt lat="42.065275" lon="2.241498">
        <ele>533.508</ele>
        <time>2018-01-09T12:10:52Z</time>
      </trkpt>
      <trkpt lat="42.065229" lon="2.241539">
        <ele>531.591</ele>
        <time>2018-01-09T12:10:56Z</time>
      </trkpt>
      <trkpt lat="42.065193" lon="2.241576">
        <ele>532.120</ele>
        <time>2018-01-09T12:11:00Z</time>
      </trkpt>
      <trkpt lat="42.065142" lon="2.241607">
        <ele>535.068</ele>
        <time>2018-01-09T12:11:16Z</time>
      </trkpt>
      <trkpt lat="42.065098" lon="2.241619">
        <ele>533.153</ele>
        <time>2018-01-09T12:11:19Z</time>
      </trkpt>
      <trkpt lat="42.065044" lon="2.241655">
        <ele>533.178</ele>
        <time>2018-01-09T12:11:23Z</time>
      </trkpt>
      <trkpt lat="42.065005" lon="2.241709">
        <ele>532.374</ele>
        <time>2018-01-09T12:11:30Z</time>
      </trkpt>
      <trkpt lat="42.064962" lon="2.241752">
        <ele>531.367</ele>
        <time>2018-01-09T12:11:43Z</time>
      </trkpt>
      <trkpt lat="42.064913" lon="2.241762">
        <ele>529.231</ele>
        <time>2018-01-09T12:11:47Z</time>
      </trkpt>
      <trkpt lat="42.064863" lon="2.241796">
        <ele>528.123</ele>
        <time>2018-01-09T12:11:51Z</time>
      </trkpt>
      <trkpt lat="42.064872" lon="2.241862">
        <ele>525.183</ele>
        <time>2018-01-09T12:12:20Z</time>
      </trkpt>
      <trkpt lat="42.064862" lon="2.241923">
        <ele>524.511</ele>
        <time>2018-01-09T12:12:24Z</time>
      </trkpt>
      <trkpt lat="42.064838" lon="2.241985">
        <ele>524.308</ele>
        <time>2018-01-09T12:12:28Z</time>
      </trkpt>
      <trkpt lat="42.064844" lon="2.242046">
        <ele>525.194</ele>
        <time>2018-01-09T12:12:32Z</time>
      </trkpt>
      <trkpt lat="42.064838" lon="2.242125">
        <ele>525.473</ele>
        <time>2018-01-09T12:12:36Z</time>
      </trkpt>
      <trkpt lat="42.064826" lon="2.242187">
        <ele>524.781</ele>
        <time>2018-01-09T12:12:39Z</time>
      </trkpt>
      <trkpt lat="42.064835" lon="2.242256">
        <ele>524.566</ele>
        <time>2018-01-09T12:12:44Z</time>
      </trkpt>
      <trkpt lat="42.064856" lon="2.242322">
        <ele>524.451</ele>
        <time>2018-01-09T12:12:49Z</time>
      </trkpt>
      <trkpt lat="42.064866" lon="2.242391">
        <ele>524.677</ele>
        <time>2018-01-09T12:12:53Z</time>
      </trkpt>
      <trkpt lat="42.064870" lon="2.242470">
        <ele>523.820</ele>
        <time>2018-01-09T12:12:57Z</time>
      </trkpt>
      <trkpt lat="42.064873" lon="2.242535">
        <ele>523.684</ele>
        <time>2018-01-09T12:13:01Z</time>
      </trkpt>
      <trkpt lat="42.064875" lon="2.242605">
        <ele>523.474</ele>
        <time>2018-01-09T12:13:05Z</time>
      </trkpt>
      <trkpt lat="42.064872" lon="2.242675">
        <ele>522.456</ele>
        <time>2018-01-09T12:13:10Z</time>
      </trkpt>
      <trkpt lat="42.064879" lon="2.242743">
        <ele>522.821</ele>
        <time>2018-01-09T12:13:14Z</time>
      </trkpt>
      <trkpt lat="42.064892" lon="2.242801">
        <ele>523.008</ele>
        <time>2018-01-09T12:13:17Z</time>
      </trkpt>
      <trkpt lat="42.064913" lon="2.242858">
        <ele>522.249</ele>
        <time>2018-01-09T12:13:21Z</time>
      </trkpt>
      <trkpt lat="42.064936" lon="2.242920">
        <ele>522.178</ele>
        <time>2018-01-09T12:13:25Z</time>
      </trkpt>
      <trkpt lat="42.064959" lon="2.242983">
        <ele>522.216</ele>
        <time>2018-01-09T12:13:29Z</time>
      </trkpt>
      <trkpt lat="42.064982" lon="2.243043">
        <ele>521.441</ele>
        <time>2018-01-09T12:13:34Z</time>
      </trkpt>
      <trkpt lat="42.064991" lon="2.243108">
        <ele>521.286</ele>
        <time>2018-01-09T12:13:38Z</time>
      </trkpt>
      <trkpt lat="42.064993" lon="2.243177">
        <ele>520.972</ele>
        <time>2018-01-09T12:13:43Z</time>
      </trkpt>
      <trkpt lat="42.065037" lon="2.243211">
        <ele>520.145</ele>
        <time>2018-01-09T12:13:47Z</time>
      </trkpt>
      <trkpt lat="42.065083" lon="2.243256">
        <ele>520.549</ele>
        <time>2018-01-09T12:13:51Z</time>
      </trkpt>
      <trkpt lat="42.065098" lon="2.243331">
        <ele>520.876</ele>
        <time>2018-01-09T12:13:55Z</time>
      </trkpt>
      <trkpt lat="42.065118" lon="2.243404">
        <ele>521.190</ele>
        <time>2018-01-09T12:13:59Z</time>
      </trkpt>
      <trkpt lat="42.065135" lon="2.243465">
        <ele>521.119</ele>
        <time>2018-01-09T12:14:03Z</time>
      </trkpt>
      <trkpt lat="42.065146" lon="2.243532">
        <ele>521.608</ele>
        <time>2018-01-09T12:14:07Z</time>
      </trkpt>
      <trkpt lat="42.065175" lon="2.243593">
        <ele>521.699</ele>
        <time>2018-01-09T12:14:12Z</time>
      </trkpt>
      <trkpt lat="42.065173" lon="2.243654">
        <ele>521.568</ele>
        <time>2018-01-09T12:14:17Z</time>
      </trkpt>
      <trkpt lat="42.065178" lon="2.243722">
        <ele>520.496</ele>
        <time>2018-01-09T12:14:21Z</time>
      </trkpt>
      <trkpt lat="42.065179" lon="2.243796">
        <ele>521.041</ele>
        <time>2018-01-09T12:14:25Z</time>
      </trkpt>
      <trkpt lat="42.065160" lon="2.243859">
        <ele>520.666</ele>
        <time>2018-01-09T12:14:29Z</time>
      </trkpt>
      <trkpt lat="42.065110" lon="2.243868">
        <ele>520.922</ele>
        <time>2018-01-09T12:14:33Z</time>
      </trkpt>
      <trkpt lat="42.065061" lon="2.243860">
        <ele>521.175</ele>
        <time>2018-01-09T12:14:36Z</time>
      </trkpt>
      <trkpt lat="42.065010" lon="2.243857">
        <ele>521.049</ele>
        <time>2018-01-09T12:14:40Z</time>
      </trkpt>
      <trkpt lat="42.064962" lon="2.243854">
        <ele>520.521</ele>
        <time>2018-01-09T12:14:44Z</time>
      </trkpt>
      <trkpt lat="42.064913" lon="2.243863">
        <ele>519.541</ele>
        <time>2018-01-09T12:14:48Z</time>
      </trkpt>
      <trkpt lat="42.064866" lon="2.243857">
        <ele>519.105</ele>
        <time>2018-01-09T12:14:52Z</time>
      </trkpt>
      <trkpt lat="42.064817" lon="2.243861">
        <ele>519.408</ele>
        <time>2018-01-09T12:14:56Z</time>
      </trkpt>
      <trkpt lat="42.064769" lon="2.243875">
        <ele>519.414</ele>
        <time>2018-01-09T12:15:00Z</time>
      </trkpt>
      <trkpt lat="42.064719" lon="2.243886">
        <ele>518.873</ele>
        <time>2018-01-09T12:15:04Z</time>
      </trkpt>
      <trkpt lat="42.064668" lon="2.243892">
        <ele>518.791</ele>
        <time>2018-01-09T12:15:08Z</time>
      </trkpt>
      <trkpt lat="42.064611" lon="2.243893">
        <ele>518.796</ele>
        <time>2018-01-09T12:15:13Z</time>
      </trkpt>
      <trkpt lat="42.064562" lon="2.243897">
        <ele>518.951</ele>
        <time>2018-01-09T12:15:17Z</time>
      </trkpt>
      <trkpt lat="42.064510" lon="2.243901">
        <ele>518.827</ele>
        <time>2018-01-09T12:15:21Z</time>
      </trkpt>
      <trkpt lat="42.064464" lon="2.243903">
        <ele>518.440</ele>
        <time>2018-01-09T12:15:24Z</time>
      </trkpt>
      <trkpt lat="42.064408" lon="2.243899">
        <ele>517.774</ele>
        <time>2018-01-09T12:15:28Z</time>
      </trkpt>
      <trkpt lat="42.064354" lon="2.243887">
        <ele>517.147</ele>
        <time>2018-01-09T12:15:33Z</time>
      </trkpt>
      <trkpt lat="42.064305" lon="2.243877">
        <ele>517.829</ele>
        <time>2018-01-09T12:15:37Z</time>
      </trkpt>
      <trkpt lat="42.064262" lon="2.243856">
        <ele>517.921</ele>
        <time>2018-01-09T12:15:40Z</time>
      </trkpt>
      <trkpt lat="42.064207" lon="2.243863">
        <ele>516.508</ele>
        <time>2018-01-09T12:15:43Z</time>
      </trkpt>
      <trkpt lat="42.064157" lon="2.243876">
        <ele>516.686</ele>
        <time>2018-01-09T12:15:46Z</time>
      </trkpt>
      <trkpt lat="42.064108" lon="2.243876">
        <ele>515.445</ele>
        <time>2018-01-09T12:15:51Z</time>
      </trkpt>
      <trkpt lat="42.064055" lon="2.243901">
        <ele>515.163</ele>
        <time>2018-01-09T12:15:57Z</time>
      </trkpt>
      <trkpt lat="42.064025" lon="2.243949">
        <ele>515.228</ele>
        <time>2018-01-09T12:16:01Z</time>
      </trkpt>
      <trkpt lat="42.064014" lon="2.244026">
        <ele>515.693</ele>
        <time>2018-01-09T12:16:05Z</time>
      </trkpt>
      <trkpt lat="42.064020" lon="2.244100">
        <ele>515.529</ele>
        <time>2018-01-09T12:16:09Z</time>
      </trkpt>
      <trkpt lat="42.064025" lon="2.244169">
        <ele>516.292</ele>
        <time>2018-01-09T12:16:13Z</time>
      </trkpt>
      <trkpt lat="42.064027" lon="2.244239">
        <ele>516.056</ele>
        <time>2018-01-09T12:16:18Z</time>
      </trkpt>
      <trkpt lat="42.064037" lon="2.244304">
        <ele>515.942</ele>
        <time>2018-01-09T12:16:22Z</time>
      </trkpt>
      <trkpt lat="42.064049" lon="2.244370">
        <ele>516.022</ele>
        <time>2018-01-09T12:16:26Z</time>
      </trkpt>
      <trkpt lat="42.064050" lon="2.244444">
        <ele>515.814</ele>
        <time>2018-01-09T12:16:31Z</time>
      </trkpt>
      <trkpt lat="42.064043" lon="2.244507">
        <ele>516.508</ele>
        <time>2018-01-09T12:16:34Z</time>
      </trkpt>
      <trkpt lat="42.064054" lon="2.244584">
        <ele>516.126</ele>
        <time>2018-01-09T12:16:38Z</time>
      </trkpt>
      <trkpt lat="42.064066" lon="2.244647">
        <ele>515.875</ele>
        <time>2018-01-09T12:16:42Z</time>
      </trkpt>
      <trkpt lat="42.064068" lon="2.244725">
        <ele>516.613</ele>
        <time>2018-01-09T12:17:00Z</time>
      </trkpt>
      <trkpt lat="42.064086" lon="2.244794">
        <ele>518.178</ele>
        <time>2018-01-09T12:17:04Z</time>
      </trkpt>
      <trkpt lat="42.064107" lon="2.244850">
        <ele>518.593</ele>
        <time>2018-01-09T12:17:08Z</time>
      </trkpt>
      <trkpt lat="42.064115" lon="2.244917">
        <ele>517.779</ele>
        <time>2018-01-09T12:17:12Z</time>
      </trkpt>
      <trkpt lat="42.064119" lon="2.244978">
        <ele>517.812</ele>
        <time>2018-01-09T12:17:15Z</time>
      </trkpt>
      <trkpt lat="42.064126" lon="2.245042">
        <ele>516.976</ele>
        <time>2018-01-09T12:17:19Z</time>
      </trkpt>
      <trkpt lat="42.064136" lon="2.245118">
        <ele>516.973</ele>
        <time>2018-01-09T12:17:23Z</time>
      </trkpt>
      <trkpt lat="42.064160" lon="2.245182">
        <ele>517.085</ele>
        <time>2018-01-09T12:17:28Z</time>
      </trkpt>
      <trkpt lat="42.064187" lon="2.245242">
        <ele>515.613</ele>
        <time>2018-01-09T12:17:34Z</time>
      </trkpt>
      <trkpt lat="42.064204" lon="2.245301">
        <ele>516.308</ele>
        <time>2018-01-09T12:17:38Z</time>
      </trkpt>
      <trkpt lat="42.064222" lon="2.245362">
        <ele>516.499</ele>
        <time>2018-01-09T12:17:42Z</time>
      </trkpt>
      <trkpt lat="42.064245" lon="2.245421">
        <ele>516.388</ele>
        <time>2018-01-09T12:17:46Z</time>
      </trkpt>
      <trkpt lat="42.064271" lon="2.245475">
        <ele>516.236</ele>
        <time>2018-01-09T12:17:50Z</time>
      </trkpt>
      <trkpt lat="42.064301" lon="2.245539">
        <ele>516.111</ele>
        <time>2018-01-09T12:17:55Z</time>
      </trkpt>
      <trkpt lat="42.064319" lon="2.245606">
        <ele>516.126</ele>
        <time>2018-01-09T12:17:59Z</time>
      </trkpt>
      <trkpt lat="42.064331" lon="2.245682">
        <ele>516.312</ele>
        <time>2018-01-09T12:18:03Z</time>
      </trkpt>
      <trkpt lat="42.064353" lon="2.245751">
        <ele>516.025</ele>
        <time>2018-01-09T12:18:07Z</time>
      </trkpt>
      <trkpt lat="42.064381" lon="2.245806">
        <ele>516.379</ele>
        <time>2018-01-09T12:18:11Z</time>
      </trkpt>
      <trkpt lat="42.064404" lon="2.245877">
        <ele>516.692</ele>
        <time>2018-01-09T12:18:15Z</time>
      </trkpt>
      <trkpt lat="42.064422" lon="2.245948">
        <ele>516.373</ele>
        <time>2018-01-09T12:18:19Z</time>
      </trkpt>
      <trkpt lat="42.064440" lon="2.246017">
        <ele>516.420</ele>
        <time>2018-01-09T12:18:23Z</time>
      </trkpt>
      <trkpt lat="42.064453" lon="2.246091">
        <ele>516.808</ele>
        <time>2018-01-09T12:18:27Z</time>
      </trkpt>
      <trkpt lat="42.064460" lon="2.246151">
        <ele>517.861</ele>
        <time>2018-01-09T12:18:30Z</time>
      </trkpt>
      <trkpt lat="42.064476" lon="2.246223">
        <ele>517.960</ele>
        <time>2018-01-09T12:18:34Z</time>
      </trkpt>
      <trkpt lat="42.064499" lon="2.246284">
        <ele>517.588</ele>
        <time>2018-01-09T12:18:38Z</time>
      </trkpt>
      <trkpt lat="42.064519" lon="2.246339">
        <ele>518.283</ele>
        <time>2018-01-09T12:18:42Z</time>
      </trkpt>
      <trkpt lat="42.064540" lon="2.246395">
        <ele>517.998</ele>
        <time>2018-01-09T12:18:46Z</time>
      </trkpt>
      <trkpt lat="42.064556" lon="2.246463">
        <ele>517.944</ele>
        <time>2018-01-09T12:18:50Z</time>
      </trkpt>
      <trkpt lat="42.064588" lon="2.246520">
        <ele>518.327</ele>
        <time>2018-01-09T12:18:54Z</time>
      </trkpt>
      <trkpt lat="42.064611" lon="2.246589">
        <ele>518.461</ele>
        <time>2018-01-09T12:18:58Z</time>
      </trkpt>
      <trkpt lat="42.064640" lon="2.246644">
        <ele>518.326</ele>
        <time>2018-01-09T12:19:02Z</time>
      </trkpt>
      <trkpt lat="42.064666" lon="2.246702">
        <ele>517.847</ele>
        <time>2018-01-09T12:19:06Z</time>
      </trkpt>
      <trkpt lat="42.064689" lon="2.246771">
        <ele>518.911</ele>
        <time>2018-01-09T12:19:10Z</time>
      </trkpt>
      <trkpt lat="42.064706" lon="2.246843">
        <ele>519.508</ele>
        <time>2018-01-09T12:19:14Z</time>
      </trkpt>
      <trkpt lat="42.064732" lon="2.246909">
        <ele>519.364</ele>
        <time>2018-01-09T12:19:19Z</time>
      </trkpt>
      <trkpt lat="42.064755" lon="2.246976">
        <ele>518.753</ele>
        <time>2018-01-09T12:19:23Z</time>
      </trkpt>
      <trkpt lat="42.064779" lon="2.247036">
        <ele>518.241</ele>
        <time>2018-01-09T12:19:27Z</time>
      </trkpt>
      <trkpt lat="42.064799" lon="2.247100">
        <ele>517.126</ele>
        <time>2018-01-09T12:19:31Z</time>
      </trkpt>
      <trkpt lat="42.064825" lon="2.247167">
        <ele>517.221</ele>
        <time>2018-01-09T12:19:36Z</time>
      </trkpt>
      <trkpt lat="42.064851" lon="2.247235">
        <ele>517.047</ele>
        <time>2018-01-09T12:19:40Z</time>
      </trkpt>
      <trkpt lat="42.064872" lon="2.247293">
        <ele>516.210</ele>
        <time>2018-01-09T12:19:44Z</time>
      </trkpt>
      <trkpt lat="42.064881" lon="2.247364">
        <ele>516.364</ele>
        <time>2018-01-09T12:19:48Z</time>
      </trkpt>
      <trkpt lat="42.064892" lon="2.247432">
        <ele>517.079</ele>
        <time>2018-01-09T12:19:53Z</time>
      </trkpt>
      <trkpt lat="42.064917" lon="2.247489">
        <ele>517.005</ele>
        <time>2018-01-09T12:19:57Z</time>
      </trkpt>
      <trkpt lat="42.064923" lon="2.247559">
        <ele>517.125</ele>
        <time>2018-01-09T12:20:01Z</time>
      </trkpt>
      <trkpt lat="42.064937" lon="2.247626">
        <ele>516.908</ele>
        <time>2018-01-09T12:20:06Z</time>
      </trkpt>
      <trkpt lat="42.064932" lon="2.247697">
        <ele>516.559</ele>
        <time>2018-01-09T12:20:10Z</time>
      </trkpt>
      <trkpt lat="42.064917" lon="2.247759">
        <ele>516.498</ele>
        <time>2018-01-09T12:20:14Z</time>
      </trkpt>
      <trkpt lat="42.064906" lon="2.247822">
        <ele>515.346</ele>
        <time>2018-01-09T12:20:19Z</time>
      </trkpt>
      <trkpt lat="42.064905" lon="2.247884">
        <ele>516.191</ele>
        <time>2018-01-09T12:20:25Z</time>
      </trkpt>
      <trkpt lat="42.064898" lon="2.247957">
        <ele>516.136</ele>
        <time>2018-01-09T12:20:29Z</time>
      </trkpt>
      <trkpt lat="42.064881" lon="2.248029">
        <ele>515.512</ele>
        <time>2018-01-09T12:20:34Z</time>
      </trkpt>
      <trkpt lat="42.064874" lon="2.248101">
        <ele>513.515</ele>
        <time>2018-01-09T12:20:40Z</time>
      </trkpt>
      <trkpt lat="42.064864" lon="2.248163">
        <ele>513.219</ele>
        <time>2018-01-09T12:20:44Z</time>
      </trkpt>
      <trkpt lat="42.064851" lon="2.248224">
        <ele>512.663</ele>
        <time>2018-01-09T12:20:47Z</time>
      </trkpt>
      <trkpt lat="42.064832" lon="2.248297">
        <ele>512.644</ele>
        <time>2018-01-09T12:20:51Z</time>
      </trkpt>
      <trkpt lat="42.064814" lon="2.248368">
        <ele>513.218</ele>
        <time>2018-01-09T12:20:56Z</time>
      </trkpt>
      <trkpt lat="42.064809" lon="2.248435">
        <ele>513.008</ele>
        <time>2018-01-09T12:21:00Z</time>
      </trkpt>
      <trkpt lat="42.064802" lon="2.248515">
        <ele>513.418</ele>
        <time>2018-01-09T12:21:04Z</time>
      </trkpt>
      <trkpt lat="42.064781" lon="2.248586">
        <ele>512.017</ele>
        <time>2018-01-09T12:21:08Z</time>
      </trkpt>
      <trkpt lat="42.064769" lon="2.248654">
        <ele>512.475</ele>
        <time>2018-01-09T12:21:12Z</time>
      </trkpt>
      <trkpt lat="42.064761" lon="2.248725">
        <ele>512.350</ele>
        <time>2018-01-09T12:21:17Z</time>
      </trkpt>
      <trkpt lat="42.064753" lon="2.248799">
        <ele>512.225</ele>
        <time>2018-01-09T12:21:22Z</time>
      </trkpt>
      <trkpt lat="42.064740" lon="2.248861">
        <ele>512.531</ele>
        <time>2018-01-09T12:21:26Z</time>
      </trkpt>
      <trkpt lat="42.064726" lon="2.248926">
        <ele>511.984</ele>
        <time>2018-01-09T12:21:30Z</time>
      </trkpt>
      <trkpt lat="42.064714" lon="2.248986">
        <ele>511.668</ele>
        <time>2018-01-09T12:21:34Z</time>
      </trkpt>
      <trkpt lat="42.064709" lon="2.249051">
        <ele>511.359</ele>
        <time>2018-01-09T12:21:39Z</time>
      </trkpt>
      <trkpt lat="42.064702" lon="2.249128">
        <ele>512.403</ele>
        <time>2018-01-09T12:21:46Z</time>
      </trkpt>
      <trkpt lat="42.064701" lon="2.249189">
        <ele>511.023</ele>
        <time>2018-01-09T12:21:50Z</time>
      </trkpt>
      <trkpt lat="42.064700" lon="2.249257">
        <ele>510.908</ele>
        <time>2018-01-09T12:21:54Z</time>
      </trkpt>
      <trkpt lat="42.064702" lon="2.249325">
        <ele>512.497</ele>
        <time>2018-01-09T12:22:18Z</time>
      </trkpt>
      <trkpt lat="42.064699" lon="2.249391">
        <ele>512.496</ele>
        <time>2018-01-09T12:22:23Z</time>
      </trkpt>
      <trkpt lat="42.064693" lon="2.249456">
        <ele>513.164</ele>
        <time>2018-01-09T12:22:29Z</time>
      </trkpt>
      <trkpt lat="42.064678" lon="2.249520">
        <ele>513.119</ele>
        <time>2018-01-09T12:22:33Z</time>
      </trkpt>
      <trkpt lat="42.064658" lon="2.249579">
        <ele>511.834</ele>
        <time>2018-01-09T12:22:49Z</time>
      </trkpt>
      <trkpt lat="42.064646" lon="2.249638">
        <ele>510.480</ele>
        <time>2018-01-09T12:23:00Z</time>
      </trkpt>
      <trkpt lat="42.064623" lon="2.249693">
        <ele>510.833</ele>
        <time>2018-01-09T12:23:13Z</time>
      </trkpt>
      <trkpt lat="42.064619" lon="2.249757">
        <ele>512.547</ele>
        <time>2018-01-09T12:23:39Z</time>
      </trkpt>
      <trkpt lat="42.064600" lon="2.249814">
        <ele>513.077</ele>
        <time>2018-01-09T12:23:43Z</time>
      </trkpt>
      <trkpt lat="42.064571" lon="2.249867">
        <ele>514.161</ele>
        <time>2018-01-09T12:23:49Z</time>
      </trkpt>
      <trkpt lat="42.064545" lon="2.249916">
        <ele>514.027</ele>
        <time>2018-01-09T12:24:12Z</time>
      </trkpt>
      <trkpt lat="42.064532" lon="2.249975">
        <ele>514.308</ele>
        <time>2018-01-09T12:24:23Z</time>
      </trkpt>
      <trkpt lat="42.064503" lon="2.250038">
        <ele>512.859</ele>
        <time>2018-01-09T12:24:28Z</time>
      </trkpt>
      <trkpt lat="42.064474" lon="2.250104">
        <ele>512.858</ele>
        <time>2018-01-09T12:24:31Z</time>
      </trkpt>
      <trkpt lat="42.064460" lon="2.250169">
        <ele>512.226</ele>
        <time>2018-01-09T12:24:35Z</time>
      </trkpt>
      <trkpt lat="42.064434" lon="2.250223">
        <ele>513.051</ele>
        <time>2018-01-09T12:24:39Z</time>
      </trkpt>
      <trkpt lat="42.064405" lon="2.250284">
        <ele>512.996</ele>
        <time>2018-01-09T12:24:43Z</time>
      </trkpt>
      <trkpt lat="42.064372" lon="2.250329">
        <ele>511.822</ele>
        <time>2018-01-09T12:24:47Z</time>
      </trkpt>
      <trkpt lat="42.064329" lon="2.250353">
        <ele>511.425</ele>
        <time>2018-01-09T12:25:04Z</time>
      </trkpt>
      <trkpt lat="42.064292" lon="2.250401">
        <ele>511.779</ele>
        <time>2018-01-09T12:25:09Z</time>
      </trkpt>
      <trkpt lat="42.064245" lon="2.250452">
        <ele>511.751</ele>
        <time>2018-01-09T12:25:14Z</time>
      </trkpt>
      <trkpt lat="42.064212" lon="2.250515">
        <ele>511.101</ele>
        <time>2018-01-09T12:25:19Z</time>
      </trkpt>
      <trkpt lat="42.064178" lon="2.250559">
        <ele>510.911</ele>
        <time>2018-01-09T12:25:22Z</time>
      </trkpt>
      <trkpt lat="42.064139" lon="2.250614">
        <ele>510.408</ele>
        <time>2018-01-09T12:25:26Z</time>
      </trkpt>
      <trkpt lat="42.064093" lon="2.250661">
        <ele>509.167</ele>
        <time>2018-01-09T12:25:30Z</time>
      </trkpt>
      <trkpt lat="42.064049" lon="2.250710">
        <ele>508.536</ele>
        <time>2018-01-09T12:25:34Z</time>
      </trkpt>
      <trkpt lat="42.064007" lon="2.250756">
        <ele>508.234</ele>
        <time>2018-01-09T12:25:38Z</time>
      </trkpt>
      <trkpt lat="42.063970" lon="2.250810">
        <ele>508.079</ele>
        <time>2018-01-09T12:25:42Z</time>
      </trkpt>
      <trkpt lat="42.063938" lon="2.250858">
        <ele>508.124</ele>
        <time>2018-01-09T12:25:46Z</time>
      </trkpt>
      <trkpt lat="42.063904" lon="2.250902">
        <ele>507.910</ele>
        <time>2018-01-09T12:25:50Z</time>
      </trkpt>
      <trkpt lat="42.063876" lon="2.250953">
        <ele>507.763</ele>
        <time>2018-01-09T12:25:54Z</time>
      </trkpt>
      <trkpt lat="42.063830" lon="2.250990">
        <ele>508.477</ele>
        <time>2018-01-09T12:26:03Z</time>
      </trkpt>
      <trkpt lat="42.063791" lon="2.251029">
        <ele>509.043</ele>
        <time>2018-01-09T12:26:07Z</time>
      </trkpt>
      <trkpt lat="42.063747" lon="2.251073">
        <ele>508.764</ele>
        <time>2018-01-09T12:26:11Z</time>
      </trkpt>
      <trkpt lat="42.063708" lon="2.251118">
        <ele>508.610</ele>
        <time>2018-01-09T12:26:15Z</time>
      </trkpt>
      <trkpt lat="42.063664" lon="2.251155">
        <ele>509.108</ele>
        <time>2018-01-09T12:26:19Z</time>
      </trkpt>
      <trkpt lat="42.063616" lon="2.251176">
        <ele>508.756</ele>
        <time>2018-01-09T12:26:23Z</time>
      </trkpt>
      <trkpt lat="42.063567" lon="2.251182">
        <ele>509.095</ele>
        <time>2018-01-09T12:26:27Z</time>
      </trkpt>
      <trkpt lat="42.063516" lon="2.251200">
        <ele>508.813</ele>
        <time>2018-01-09T12:26:31Z</time>
      </trkpt>
      <trkpt lat="42.063469" lon="2.251234">
        <ele>508.738</ele>
        <time>2018-01-09T12:26:35Z</time>
      </trkpt>
      <trkpt lat="42.063419" lon="2.251275">
        <ele>508.833</ele>
        <time>2018-01-09T12:26:39Z</time>
      </trkpt>
      <trkpt lat="42.063379" lon="2.251325">
        <ele>508.889</ele>
        <time>2018-01-09T12:26:43Z</time>
      </trkpt>
      <trkpt lat="42.063342" lon="2.251375">
        <ele>508.822</ele>
        <time>2018-01-09T12:26:47Z</time>
      </trkpt>
      <trkpt lat="42.063306" lon="2.251427">
        <ele>509.186</ele>
        <time>2018-01-09T12:26:51Z</time>
      </trkpt>
      <trkpt lat="42.063271" lon="2.251467">
        <ele>509.947</ele>
        <time>2018-01-09T12:26:55Z</time>
      </trkpt>
      <trkpt lat="42.063239" lon="2.251523">
        <ele>510.429</ele>
        <time>2018-01-09T12:26:59Z</time>
      </trkpt>
      <trkpt lat="42.063205" lon="2.251576">
        <ele>510.821</ele>
        <time>2018-01-09T12:27:03Z</time>
      </trkpt>
      <trkpt lat="42.063169" lon="2.251622">
        <ele>511.308</ele>
        <time>2018-01-09T12:27:07Z</time>
      </trkpt>
      <trkpt lat="42.063140" lon="2.251668">
        <ele>511.896</ele>
        <time>2018-01-09T12:27:11Z</time>
      </trkpt>
      <trkpt lat="42.063094" lon="2.251704">
        <ele>511.285</ele>
        <time>2018-01-09T12:27:16Z</time>
      </trkpt>
      <trkpt lat="42.063045" lon="2.251666">
        <ele>510.823</ele>
        <time>2018-01-09T12:27:20Z</time>
      </trkpt>
      <trkpt lat="42.063005" lon="2.251635">
        <ele>509.888</ele>
        <time>2018-01-09T12:27:24Z</time>
      </trkpt>
      <trkpt lat="42.062967" lon="2.251590">
        <ele>509.473</ele>
        <time>2018-01-09T12:27:29Z</time>
      </trkpt>
      <trkpt lat="42.062915" lon="2.251552">
        <ele>509.289</ele>
        <time>2018-01-09T12:27:33Z</time>
      </trkpt>
      <trkpt lat="42.062863" lon="2.251537">
        <ele>509.362</ele>
        <time>2018-01-09T12:27:37Z</time>
      </trkpt>
      <trkpt lat="42.062809" lon="2.251534">
        <ele>509.136</ele>
        <time>2018-01-09T12:27:41Z</time>
      </trkpt>
      <trkpt lat="42.062760" lon="2.251553">
        <ele>508.853</ele>
        <time>2018-01-09T12:27:45Z</time>
      </trkpt>
      <trkpt lat="42.062713" lon="2.251593">
        <ele>508.704</ele>
        <time>2018-01-09T12:27:49Z</time>
      </trkpt>
      <trkpt lat="42.062672" lon="2.251640">
        <ele>509.114</ele>
        <time>2018-01-09T12:27:53Z</time>
      </trkpt>
      <trkpt lat="42.062626" lon="2.251674">
        <ele>509.208</ele>
        <time>2018-01-09T12:27:57Z</time>
      </trkpt>
      <trkpt lat="42.062580" lon="2.251701">
        <ele>509.047</ele>
        <time>2018-01-09T12:28:03Z</time>
      </trkpt>
      <trkpt lat="42.062542" lon="2.251751">
        <ele>508.656</ele>
        <time>2018-01-09T12:28:08Z</time>
      </trkpt>
      <trkpt lat="42.062498" lon="2.251790">
        <ele>508.564</ele>
        <time>2018-01-09T12:28:12Z</time>
      </trkpt>
      <trkpt lat="42.062460" lon="2.251825">
        <ele>508.549</ele>
        <time>2018-01-09T12:28:16Z</time>
      </trkpt>
      <trkpt lat="42.062418" lon="2.251863">
        <ele>508.084</ele>
        <time>2018-01-09T12:28:20Z</time>
      </trkpt>
      <trkpt lat="42.062377" lon="2.251899">
        <ele>507.820</ele>
        <time>2018-01-09T12:28:24Z</time>
      </trkpt>
      <trkpt lat="42.062333" lon="2.251934">
        <ele>507.853</ele>
        <time>2018-01-09T12:28:28Z</time>
      </trkpt>
      <trkpt lat="42.062290" lon="2.251970">
        <ele>507.977</ele>
        <time>2018-01-09T12:28:32Z</time>
      </trkpt>
      <trkpt lat="42.062249" lon="2.252006">
        <ele>508.492</ele>
        <time>2018-01-09T12:28:36Z</time>
      </trkpt>
      <trkpt lat="42.062204" lon="2.252032">
        <ele>508.373</ele>
        <time>2018-01-09T12:28:40Z</time>
      </trkpt>
      <trkpt lat="42.062157" lon="2.252048">
        <ele>508.220</ele>
        <time>2018-01-09T12:28:44Z</time>
      </trkpt>
      <trkpt lat="42.062102" lon="2.252059">
        <ele>508.108</ele>
        <time>2018-01-09T12:28:48Z</time>
      </trkpt>
      <trkpt lat="42.062055" lon="2.252089">
        <ele>508.481</ele>
        <time>2018-01-09T12:28:52Z</time>
      </trkpt>
      <trkpt lat="42.062009" lon="2.252117">
        <ele>508.410</ele>
        <time>2018-01-09T12:28:56Z</time>
      </trkpt>
      <trkpt lat="42.061961" lon="2.252127">
        <ele>507.978</ele>
        <time>2018-01-09T12:29:00Z</time>
      </trkpt>
      <trkpt lat="42.061909" lon="2.252102">
        <ele>507.883</ele>
        <time>2018-01-09T12:29:04Z</time>
      </trkpt>
      <trkpt lat="42.061863" lon="2.252061">
        <ele>507.428</ele>
        <time>2018-01-09T12:29:08Z</time>
      </trkpt>
      <trkpt lat="42.061825" lon="2.252026">
        <ele>507.624</ele>
        <time>2018-01-09T12:29:12Z</time>
      </trkpt>
      <trkpt lat="42.061781" lon="2.252007">
        <ele>507.047</ele>
        <time>2018-01-09T12:29:16Z</time>
      </trkpt>
      <trkpt lat="42.061732" lon="2.252004">
        <ele>506.861</ele>
        <time>2018-01-09T12:29:20Z</time>
      </trkpt>
      <trkpt lat="42.061676" lon="2.252023">
        <ele>507.047</ele>
        <time>2018-01-09T12:29:24Z</time>
      </trkpt>
      <trkpt lat="42.061622" lon="2.252050">
        <ele>507.029</ele>
        <time>2018-01-09T12:29:28Z</time>
      </trkpt>
      <trkpt lat="42.061576" lon="2.252082">
        <ele>506.921</ele>
        <time>2018-01-09T12:29:32Z</time>
      </trkpt>
      <trkpt lat="42.061528" lon="2.252111">
        <ele>507.008</ele>
        <time>2018-01-09T12:29:36Z</time>
      </trkpt>
      <trkpt lat="42.061481" lon="2.252130">
        <ele>507.236</ele>
        <time>2018-01-09T12:29:40Z</time>
      </trkpt>
      <trkpt lat="42.061433" lon="2.252155">
        <ele>506.965</ele>
        <time>2018-01-09T12:29:44Z</time>
      </trkpt>
      <trkpt lat="42.061387" lon="2.252184">
        <ele>506.773</ele>
        <time>2018-01-09T12:29:48Z</time>
      </trkpt>
      <trkpt lat="42.061335" lon="2.252204">
        <ele>506.178</ele>
        <time>2018-01-09T12:29:52Z</time>
      </trkpt>
      <trkpt lat="42.061287" lon="2.252237">
        <ele>505.733</ele>
        <time>2018-01-09T12:29:56Z</time>
      </trkpt>
      <trkpt lat="42.061239" lon="2.252266">
        <ele>505.559</ele>
        <time>2018-01-09T12:30:00Z</time>
      </trkpt>
      <trkpt lat="42.061192" lon="2.252292">
        <ele>505.662</ele>
        <time>2018-01-09T12:30:04Z</time>
      </trkpt>
      <trkpt lat="42.061140" lon="2.252310">
        <ele>505.986</ele>
        <time>2018-01-09T12:30:08Z</time>
      </trkpt>
      <trkpt lat="42.061086" lon="2.252336">
        <ele>505.115</ele>
        <time>2018-01-09T12:30:12Z</time>
      </trkpt>
      <trkpt lat="42.061032" lon="2.252352">
        <ele>504.865</ele>
        <time>2018-01-09T12:30:16Z</time>
      </trkpt>
      <trkpt lat="42.060986" lon="2.252371">
        <ele>504.811</ele>
        <time>2018-01-09T12:30:20Z</time>
      </trkpt>
      <trkpt lat="42.060937" lon="2.252387">
        <ele>504.808</ele>
        <time>2018-01-09T12:30:24Z</time>
      </trkpt>
      <trkpt lat="42.060891" lon="2.252410">
        <ele>505.053</ele>
        <time>2018-01-09T12:30:28Z</time>
      </trkpt>
      <trkpt lat="42.060844" lon="2.252431">
        <ele>504.942</ele>
        <time>2018-01-09T12:30:32Z</time>
      </trkpt>
      <trkpt lat="42.060794" lon="2.252439">
        <ele>505.070</ele>
        <time>2018-01-09T12:30:36Z</time>
      </trkpt>
      <trkpt lat="42.060745" lon="2.252464">
        <ele>505.055</ele>
        <time>2018-01-09T12:30:40Z</time>
      </trkpt>
      <trkpt lat="42.060701" lon="2.252496">
        <ele>504.970</ele>
        <time>2018-01-09T12:30:44Z</time>
      </trkpt>
      <trkpt lat="42.060650" lon="2.252509">
        <ele>504.496</ele>
        <time>2018-01-09T12:30:48Z</time>
      </trkpt>
      <trkpt lat="42.060604" lon="2.252529">
        <ele>504.559</ele>
        <time>2018-01-09T12:30:52Z</time>
      </trkpt>
      <trkpt lat="42.060559" lon="2.252538">
        <ele>504.893</ele>
        <time>2018-01-09T12:30:56Z</time>
      </trkpt>
      <trkpt lat="42.060508" lon="2.252541">
        <ele>504.192</ele>
        <time>2018-01-09T12:31:00Z</time>
      </trkpt>
      <trkpt lat="42.060456" lon="2.252550">
        <ele>503.973</ele>
        <time>2018-01-09T12:31:04Z</time>
      </trkpt>
      <trkpt lat="42.060411" lon="2.252569">
        <ele>503.720</ele>
        <time>2018-01-09T12:31:08Z</time>
      </trkpt>
      <trkpt lat="42.060362" lon="2.252585">
        <ele>504.008</ele>
        <time>2018-01-09T12:31:12Z</time>
      </trkpt>
      <trkpt lat="42.060319" lon="2.252619">
        <ele>504.011</ele>
        <time>2018-01-09T12:31:16Z</time>
      </trkpt>
      <trkpt lat="42.060276" lon="2.252647">
        <ele>504.080</ele>
        <time>2018-01-09T12:31:20Z</time>
      </trkpt>
      <trkpt lat="42.060225" lon="2.252681">
        <ele>503.828</ele>
        <time>2018-01-09T12:31:24Z</time>
      </trkpt>
      <trkpt lat="42.060177" lon="2.252705">
        <ele>503.433</ele>
        <time>2018-01-09T12:31:28Z</time>
      </trkpt>
      <trkpt lat="42.060128" lon="2.252721">
        <ele>503.338</ele>
        <time>2018-01-09T12:31:32Z</time>
      </trkpt>
      <trkpt lat="42.060080" lon="2.252747">
        <ele>503.454</ele>
        <time>2018-01-09T12:31:36Z</time>
      </trkpt>
      <trkpt lat="42.060030" lon="2.252764">
        <ele>503.557</ele>
        <time>2018-01-09T12:31:40Z</time>
      </trkpt>
      <trkpt lat="42.059978" lon="2.252773">
        <ele>503.791</ele>
        <time>2018-01-09T12:31:44Z</time>
      </trkpt>
      <trkpt lat="42.059930" lon="2.252779">
        <ele>503.218</ele>
        <time>2018-01-09T12:31:48Z</time>
      </trkpt>
      <trkpt lat="42.059879" lon="2.252782">
        <ele>502.898</ele>
        <time>2018-01-09T12:31:52Z</time>
      </trkpt>
      <trkpt lat="42.059826" lon="2.252787">
        <ele>502.317</ele>
        <time>2018-01-09T12:31:56Z</time>
      </trkpt>
      <trkpt lat="42.059781" lon="2.252791">
        <ele>502.008</ele>
        <time>2018-01-09T12:32:00Z</time>
      </trkpt>
      <trkpt lat="42.059736" lon="2.252812">
        <ele>501.793</ele>
        <time>2018-01-09T12:32:04Z</time>
      </trkpt>
      <trkpt lat="42.059690" lon="2.252821">
        <ele>501.912</ele>
        <time>2018-01-09T12:32:08Z</time>
      </trkpt>
      <trkpt lat="42.059640" lon="2.252833">
        <ele>501.840</ele>
        <time>2018-01-09T12:32:12Z</time>
      </trkpt>
      <trkpt lat="42.059589" lon="2.252859">
        <ele>501.935</ele>
        <time>2018-01-09T12:32:16Z</time>
      </trkpt>
      <trkpt lat="42.059539" lon="2.252888">
        <ele>502.040</ele>
        <time>2018-01-09T12:32:20Z</time>
      </trkpt>
      <trkpt lat="42.059492" lon="2.252910">
        <ele>501.956</ele>
        <time>2018-01-09T12:32:24Z</time>
      </trkpt>
      <trkpt lat="42.059442" lon="2.252922">
        <ele>501.569</ele>
        <time>2018-01-09T12:32:28Z</time>
      </trkpt>
      <trkpt lat="42.059388" lon="2.252929">
        <ele>502.313</ele>
        <time>2018-01-09T12:32:33Z</time>
      </trkpt>
      <trkpt lat="42.059331" lon="2.252933">
        <ele>501.852</ele>
        <time>2018-01-09T12:32:37Z</time>
      </trkpt>
      <trkpt lat="42.059276" lon="2.252953">
        <ele>502.153</ele>
        <time>2018-01-09T12:32:41Z</time>
      </trkpt>
      <trkpt lat="42.059225" lon="2.252973">
        <ele>502.508</ele>
        <time>2018-01-09T12:32:45Z</time>
      </trkpt>
      <trkpt lat="42.059179" lon="2.252996">
        <ele>502.108</ele>
        <time>2018-01-09T12:32:49Z</time>
      </trkpt>
      <trkpt lat="42.059124" lon="2.253005">
        <ele>502.747</ele>
        <time>2018-01-09T12:32:54Z</time>
      </trkpt>
      <trkpt lat="42.059072" lon="2.253017">
        <ele>503.016</ele>
        <time>2018-01-09T12:32:58Z</time>
      </trkpt>
      <trkpt lat="42.059025" lon="2.253035">
        <ele>502.864</ele>
        <time>2018-01-09T12:33:02Z</time>
      </trkpt>
      <trkpt lat="42.058973" lon="2.253050">
        <ele>503.049</ele>
        <time>2018-01-09T12:33:06Z</time>
      </trkpt>
      <trkpt lat="42.058919" lon="2.253046">
        <ele>503.034</ele>
        <time>2018-01-09T12:33:10Z</time>
      </trkpt>
      <trkpt lat="42.058873" lon="2.253050">
        <ele>503.690</ele>
        <time>2018-01-09T12:33:14Z</time>
      </trkpt>
      <trkpt lat="42.058817" lon="2.253047">
        <ele>503.533</ele>
        <time>2018-01-09T12:33:18Z</time>
      </trkpt>
      <trkpt lat="42.058767" lon="2.253074">
        <ele>503.717</ele>
        <time>2018-01-09T12:33:22Z</time>
      </trkpt>
      <trkpt lat="42.058736" lon="2.253136">
        <ele>503.892</ele>
        <time>2018-01-09T12:33:26Z</time>
      </trkpt>
      <trkpt lat="42.058738" lon="2.253198">
        <ele>504.173</ele>
        <time>2018-01-09T12:33:29Z</time>
      </trkpt>
      <trkpt lat="42.058741" lon="2.253269">
        <ele>504.820</ele>
        <time>2018-01-09T12:33:33Z</time>
      </trkpt>
      <trkpt lat="42.058734" lon="2.253337">
        <ele>505.008</ele>
        <time>2018-01-09T12:33:37Z</time>
      </trkpt>
      <trkpt lat="42.058716" lon="2.253411">
        <ele>505.441</ele>
        <time>2018-01-09T12:33:41Z</time>
      </trkpt>
      <trkpt lat="42.058691" lon="2.253477">
        <ele>505.640</ele>
        <time>2018-01-09T12:33:44Z</time>
      </trkpt>
      <trkpt lat="42.058668" lon="2.253529">
        <ele>506.138</ele>
        <time>2018-01-09T12:33:47Z</time>
      </trkpt>
      <trkpt lat="42.058654" lon="2.253594">
        <ele>506.693</ele>
        <time>2018-01-09T12:33:51Z</time>
      </trkpt>
      <trkpt lat="42.058645" lon="2.253661">
        <ele>507.238</ele>
        <time>2018-01-09T12:33:55Z</time>
      </trkpt>
      <trkpt lat="42.058637" lon="2.253729">
        <ele>507.124</ele>
        <time>2018-01-09T12:33:59Z</time>
      </trkpt>
      <trkpt lat="42.058629" lon="2.253797">
        <ele>506.497</ele>
        <time>2018-01-09T12:34:03Z</time>
      </trkpt>
      <trkpt lat="42.058628" lon="2.253866">
        <ele>506.521</ele>
        <time>2018-01-09T12:34:07Z</time>
      </trkpt>
      <trkpt lat="42.058618" lon="2.253942">
        <ele>506.397</ele>
        <time>2018-01-09T12:34:11Z</time>
      </trkpt>
      <trkpt lat="42.058606" lon="2.254016">
        <ele>505.723</ele>
        <time>2018-01-09T12:34:15Z</time>
      </trkpt>
      <trkpt lat="42.058602" lon="2.254083">
        <ele>505.825</ele>
        <time>2018-01-09T12:34:19Z</time>
      </trkpt>
      <trkpt lat="42.058597" lon="2.254156">
        <ele>505.308</ele>
        <time>2018-01-09T12:34:23Z</time>
      </trkpt>
      <trkpt lat="42.058590" lon="2.254226">
        <ele>505.681</ele>
        <time>2018-01-09T12:34:27Z</time>
      </trkpt>
      <trkpt lat="42.058583" lon="2.254291">
        <ele>506.260</ele>
        <time>2018-01-09T12:34:31Z</time>
      </trkpt>
      <trkpt lat="42.058580" lon="2.254358">
        <ele>506.398</ele>
        <time>2018-01-09T12:34:35Z</time>
      </trkpt>
      <trkpt lat="42.058579" lon="2.254431">
        <ele>506.173</ele>
        <time>2018-01-09T12:34:39Z</time>
      </trkpt>
      <trkpt lat="42.058589" lon="2.254494">
        <ele>506.748</ele>
        <time>2018-01-09T12:34:43Z</time>
      </trkpt>
      <trkpt lat="42.058586" lon="2.254569">
        <ele>506.354</ele>
        <time>2018-01-09T12:34:48Z</time>
      </trkpt>
      <trkpt lat="42.058580" lon="2.254634">
        <ele>506.117</ele>
        <time>2018-01-09T12:34:52Z</time>
      </trkpt>
      <trkpt lat="42.058571" lon="2.254697">
        <ele>506.241</ele>
        <time>2018-01-09T12:34:56Z</time>
      </trkpt>
      <trkpt lat="42.058536" lon="2.254751">
        <ele>506.136</ele>
        <time>2018-01-09T12:35:01Z</time>
      </trkpt>
      <trkpt lat="42.058486" lon="2.254776">
        <ele>506.517</ele>
        <time>2018-01-09T12:35:06Z</time>
      </trkpt>
      <trkpt lat="42.058437" lon="2.254754">
        <ele>506.918</ele>
        <time>2018-01-09T12:35:10Z</time>
      </trkpt>
      <trkpt lat="42.058409" lon="2.254689">
        <ele>506.608</ele>
        <time>2018-01-09T12:35:15Z</time>
      </trkpt>
      <trkpt lat="42.058365" lon="2.254654">
        <ele>506.845</ele>
        <time>2018-01-09T12:35:20Z</time>
      </trkpt>
      <trkpt lat="42.058315" lon="2.254633">
        <ele>505.334</ele>
        <time>2018-01-09T12:35:43Z</time>
      </trkpt>
      <trkpt lat="42.058271" lon="2.254656">
        <ele>505.282</ele>
        <time>2018-01-09T12:35:47Z</time>
      </trkpt>
      <trkpt lat="42.058221" lon="2.254663">
        <ele>505.417</ele>
        <time>2018-01-09T12:35:51Z</time>
      </trkpt>
      <trkpt lat="42.058164" lon="2.254667">
        <ele>503.572</ele>
        <time>2018-01-09T12:35:55Z</time>
      </trkpt>
      <trkpt lat="42.058108" lon="2.254673">
        <ele>503.198</ele>
        <time>2018-01-09T12:35:59Z</time>
      </trkpt>
      <trkpt lat="42.058049" lon="2.254665">
        <ele>502.521</ele>
        <time>2018-01-09T12:36:03Z</time>
      </trkpt>
      <trkpt lat="42.057997" lon="2.254659">
        <ele>503.295</ele>
        <time>2018-01-09T12:36:07Z</time>
      </trkpt>
      <trkpt lat="42.057946" lon="2.254646">
        <ele>503.886</ele>
        <time>2018-01-09T12:36:11Z</time>
      </trkpt>
      <trkpt lat="42.057890" lon="2.254642">
        <ele>503.560</ele>
        <time>2018-01-09T12:36:16Z</time>
      </trkpt>
      <trkpt lat="42.057839" lon="2.254644">
        <ele>502.926</ele>
        <time>2018-01-09T12:36:20Z</time>
      </trkpt>
      <trkpt lat="42.057795" lon="2.254621">
        <ele>503.308</ele>
        <time>2018-01-09T12:36:24Z</time>
      </trkpt>
      <trkpt lat="42.057752" lon="2.254598">
        <ele>503.070</ele>
        <time>2018-01-09T12:36:28Z</time>
      </trkpt>
      <trkpt lat="42.057697" lon="2.254580">
        <ele>503.379</ele>
        <time>2018-01-09T12:36:33Z</time>
      </trkpt>
      <trkpt lat="42.057644" lon="2.254555">
        <ele>503.327</ele>
        <time>2018-01-09T12:36:38Z</time>
      </trkpt>
      <trkpt lat="42.057598" lon="2.254545">
        <ele>503.832</ele>
        <time>2018-01-09T12:36:42Z</time>
      </trkpt>
      <trkpt lat="42.057549" lon="2.254527">
        <ele>502.377</ele>
        <time>2018-01-09T12:36:47Z</time>
      </trkpt>
      <trkpt lat="42.057501" lon="2.254496">
        <ele>502.553</ele>
        <time>2018-01-09T12:37:02Z</time>
      </trkpt>
      <trkpt lat="42.057453" lon="2.254466">
        <ele>503.276</ele>
        <time>2018-01-09T12:37:07Z</time>
      </trkpt>
      <trkpt lat="42.057403" lon="2.254438">
        <ele>503.640</ele>
        <time>2018-01-09T12:37:11Z</time>
      </trkpt>
      <trkpt lat="42.057358" lon="2.254409">
        <ele>504.257</ele>
        <time>2018-01-09T12:37:15Z</time>
      </trkpt>
      <trkpt lat="42.057305" lon="2.254391">
        <ele>503.300</ele>
        <time>2018-01-09T12:37:19Z</time>
      </trkpt>
      <trkpt lat="42.057256" lon="2.254362">
        <ele>502.420</ele>
        <time>2018-01-09T12:37:23Z</time>
      </trkpt>
      <trkpt lat="42.057211" lon="2.254354">
        <ele>502.708</ele>
        <time>2018-01-09T12:37:27Z</time>
      </trkpt>
      <trkpt lat="42.057166" lon="2.254329">
        <ele>502.857</ele>
        <time>2018-01-09T12:37:31Z</time>
      </trkpt>
      <trkpt lat="42.057117" lon="2.254311">
        <ele>502.326</ele>
        <time>2018-01-09T12:37:36Z</time>
      </trkpt>
      <trkpt lat="42.057064" lon="2.254292">
        <ele>502.614</ele>
        <time>2018-01-09T12:37:40Z</time>
      </trkpt>
      <trkpt lat="42.057018" lon="2.254262">
        <ele>502.399</ele>
        <time>2018-01-09T12:37:44Z</time>
      </trkpt>
      <trkpt lat="42.056975" lon="2.254226">
        <ele>501.084</ele>
        <time>2018-01-09T12:37:53Z</time>
      </trkpt>
      <trkpt lat="42.056930" lon="2.254184">
        <ele>501.430</ele>
        <time>2018-01-09T12:37:58Z</time>
      </trkpt>
      <trkpt lat="42.056878" lon="2.254169">
        <ele>501.453</ele>
        <time>2018-01-09T12:38:03Z</time>
      </trkpt>
      <trkpt lat="42.056826" lon="2.254137">
        <ele>501.847</ele>
        <time>2018-01-09T12:38:08Z</time>
      </trkpt>
      <trkpt lat="42.056777" lon="2.254112">
        <ele>501.874</ele>
        <time>2018-01-09T12:38:13Z</time>
      </trkpt>
      <trkpt lat="42.056727" lon="2.254112">
        <ele>502.356</ele>
        <time>2018-01-09T12:38:18Z</time>
      </trkpt>
      <trkpt lat="42.056678" lon="2.254100">
        <ele>503.321</ele>
        <time>2018-01-09T12:38:24Z</time>
      </trkpt>
      <trkpt lat="42.056634" lon="2.254082">
        <ele>502.408</ele>
        <time>2018-01-09T12:38:29Z</time>
      </trkpt>
      <trkpt lat="42.056588" lon="2.254064">
        <ele>503.099</ele>
        <time>2018-01-09T12:38:36Z</time>
      </trkpt>
      <trkpt lat="42.056543" lon="2.254031">
        <ele>502.398</ele>
        <time>2018-01-09T12:38:42Z</time>
      </trkpt>
      <trkpt lat="42.056506" lon="2.253988">
        <ele>502.036</ele>
        <time>2018-01-09T12:38:47Z</time>
      </trkpt>
      <trkpt lat="42.056474" lon="2.253944">
        <ele>501.811</ele>
        <time>2018-01-09T12:38:51Z</time>
      </trkpt>
      <trkpt lat="42.056429" lon="2.253919">
        <ele>502.686</ele>
        <time>2018-01-09T12:38:56Z</time>
      </trkpt>
      <trkpt lat="42.056387" lon="2.253881">
        <ele>502.632</ele>
        <time>2018-01-09T12:39:00Z</time>
      </trkpt>
      <trkpt lat="42.056344" lon="2.253851">
        <ele>501.945</ele>
        <time>2018-01-09T12:39:04Z</time>
      </trkpt>
      <trkpt lat="42.056298" lon="2.253827">
        <ele>502.399</ele>
        <time>2018-01-09T12:39:09Z</time>
      </trkpt>
      <trkpt lat="42.056255" lon="2.253800">
        <ele>502.361</ele>
        <time>2018-01-09T12:39:14Z</time>
      </trkpt>
      <trkpt lat="42.056201" lon="2.253810">
        <ele>500.821</ele>
        <time>2018-01-09T12:39:40Z</time>
      </trkpt>
      <trkpt lat="42.056168" lon="2.253761">
        <ele>500.513</ele>
        <time>2018-01-09T12:39:45Z</time>
      </trkpt>
      <trkpt lat="42.056128" lon="2.253726">
        <ele>501.808</ele>
        <time>2018-01-09T12:39:49Z</time>
      </trkpt>
      <trkpt lat="42.056083" lon="2.253693">
        <ele>501.518</ele>
        <time>2018-01-09T12:39:54Z</time>
      </trkpt>
      <trkpt lat="42.056037" lon="2.253666">
        <ele>501.547</ele>
        <time>2018-01-09T12:39:58Z</time>
      </trkpt>
      <trkpt lat="42.055987" lon="2.253628">
        <ele>501.815</ele>
        <time>2018-01-09T12:40:04Z</time>
      </trkpt>
      <trkpt lat="42.055942" lon="2.253602">
        <ele>501.580</ele>
        <time>2018-01-09T12:40:09Z</time>
      </trkpt>
      <trkpt lat="42.055902" lon="2.253561">
        <ele>502.275</ele>
        <time>2018-01-09T12:40:15Z</time>
      </trkpt>
      <trkpt lat="42.055863" lon="2.253514">
        <ele>502.871</ele>
        <time>2018-01-09T12:40:21Z</time>
      </trkpt>
      <trkpt lat="42.055816" lon="2.253481">
        <ele>502.984</ele>
        <time>2018-01-09T12:40:26Z</time>
      </trkpt>
      <trkpt lat="42.055768" lon="2.253459">
        <ele>503.328</ele>
        <time>2018-01-09T12:40:32Z</time>
      </trkpt>
      <trkpt lat="42.055736" lon="2.253410">
        <ele>502.978</ele>
        <time>2018-01-09T12:40:37Z</time>
      </trkpt>
      <trkpt lat="42.055698" lon="2.253367">
        <ele>502.833</ele>
        <time>2018-01-09T12:40:41Z</time>
      </trkpt>
      <trkpt lat="42.055677" lon="2.253313">
        <ele>503.526</ele>
        <time>2018-01-09T12:40:46Z</time>
      </trkpt>
      <trkpt lat="42.055659" lon="2.253255">
        <ele>501.908</ele>
        <time>2018-01-09T12:41:12Z</time>
      </trkpt>
      <trkpt lat="42.055614" lon="2.253217">
        <ele>502.039</ele>
        <time>2018-01-09T12:41:17Z</time>
      </trkpt>
      <trkpt lat="42.055581" lon="2.253167">
        <ele>501.988</ele>
        <time>2018-01-09T12:41:24Z</time>
      </trkpt>
      <trkpt lat="42.055579" lon="2.253106">
        <ele>503.136</ele>
        <time>2018-01-09T12:41:34Z</time>
      </trkpt>
      <trkpt lat="42.055539" lon="2.253153">
        <ele>500.661</ele>
        <time>2018-01-09T12:41:57Z</time>
      </trkpt>
      <trkpt lat="42.055488" lon="2.253160">
        <ele>502.196</ele>
        <time>2018-01-09T12:42:03Z</time>
      </trkpt>
      <trkpt lat="42.055439" lon="2.253146">
        <ele>503.522</ele>
        <time>2018-01-09T12:42:08Z</time>
      </trkpt>
      <trkpt lat="42.055391" lon="2.253171">
        <ele>503.945</ele>
        <time>2018-01-09T12:42:13Z</time>
      </trkpt>
      <trkpt lat="42.055348" lon="2.253207">
        <ele>504.139</ele>
        <time>2018-01-09T12:42:18Z</time>
      </trkpt>
      <trkpt lat="42.055305" lon="2.253242">
        <ele>506.336</ele>
        <time>2018-01-09T12:42:24Z</time>
      </trkpt>
      <trkpt lat="42.055263" lon="2.253272">
        <ele>507.017</ele>
        <time>2018-01-09T12:42:29Z</time>
      </trkpt>
      <trkpt lat="42.055217" lon="2.253312">
        <ele>508.918</ele>
        <time>2018-01-09T12:42:35Z</time>
      </trkpt>
      <trkpt lat="42.055172" lon="2.253340">
        <ele>511.408</ele>
        <time>2018-01-09T12:42:41Z</time>
      </trkpt>
      <trkpt lat="42.055133" lon="2.253374">
        <ele>513.345</ele>
        <time>2018-01-09T12:42:46Z</time>
      </trkpt>
      <trkpt lat="42.055094" lon="2.253405">
        <ele>513.214</ele>
        <time>2018-01-09T12:42:51Z</time>
      </trkpt>
      <trkpt lat="42.055120" lon="2.253347">
        <ele>515.182</ele>
        <time>2018-01-09T12:43:03Z</time>
      </trkpt>
      <trkpt lat="42.055120" lon="2.253273">
        <ele>515.117</ele>
        <time>2018-01-09T12:43:08Z</time>
      </trkpt>
      <trkpt lat="42.055113" lon="2.253197">
        <ele>515.522</ele>
        <time>2018-01-09T12:43:13Z</time>
      </trkpt>
      <trkpt lat="42.055117" lon="2.253132">
        <ele>517.458</ele>
        <time>2018-01-09T12:43:17Z</time>
      </trkpt>
      <trkpt lat="42.055096" lon="2.253073">
        <ele>517.651</ele>
        <time>2018-01-09T12:43:22Z</time>
      </trkpt>
      <trkpt lat="42.055084" lon="2.253012">
        <ele>517.425</ele>
        <time>2018-01-09T12:43:27Z</time>
      </trkpt>
      <trkpt lat="42.055054" lon="2.252959">
        <ele>516.577</ele>
        <time>2018-01-09T12:43:30Z</time>
      </trkpt>
      <trkpt lat="42.055013" lon="2.252917">
        <ele>516.461</ele>
        <time>2018-01-09T12:43:34Z</time>
      </trkpt>
      <trkpt lat="42.054978" lon="2.252872">
        <ele>517.127</ele>
        <time>2018-01-09T12:43:39Z</time>
      </trkpt>
      <trkpt lat="42.054945" lon="2.252822">
        <ele>516.608</ele>
        <time>2018-01-09T12:43:43Z</time>
      </trkpt>
      <trkpt lat="42.054906" lon="2.252773">
        <ele>516.429</ele>
        <time>2018-01-09T12:43:47Z</time>
      </trkpt>
      <trkpt lat="42.054867" lon="2.252722">
        <ele>516.428</ele>
        <time>2018-01-09T12:43:51Z</time>
      </trkpt>
      <trkpt lat="42.054829" lon="2.252668">
        <ele>515.696</ele>
        <time>2018-01-09T12:43:56Z</time>
      </trkpt>
      <trkpt lat="42.054787" lon="2.252615">
        <ele>516.531</ele>
        <time>2018-01-09T12:44:00Z</time>
      </trkpt>
      <trkpt lat="42.054748" lon="2.252575">
        <ele>516.226</ele>
        <time>2018-01-09T12:44:04Z</time>
      </trkpt>
      <trkpt lat="42.054708" lon="2.252543">
        <ele>516.272</ele>
        <time>2018-01-09T12:44:09Z</time>
      </trkpt>
      <trkpt lat="42.054661" lon="2.252499">
        <ele>516.565</ele>
        <time>2018-01-09T12:44:14Z</time>
      </trkpt>
      <trkpt lat="42.054622" lon="2.252450">
        <ele>516.569</ele>
        <time>2018-01-09T12:44:18Z</time>
      </trkpt>
      <trkpt lat="42.054576" lon="2.252426">
        <ele>516.719</ele>
        <time>2018-01-09T12:44:22Z</time>
      </trkpt>
      <trkpt lat="42.054529" lon="2.252397">
        <ele>517.709</ele>
        <time>2018-01-09T12:44:44Z</time>
      </trkpt>
      <trkpt lat="42.054484" lon="2.252424">
        <ele>518.019</ele>
        <time>2018-01-09T12:44:51Z</time>
      </trkpt>
      <trkpt lat="42.054439" lon="2.252443">
        <ele>519.008</ele>
        <time>2018-01-09T12:44:57Z</time>
      </trkpt>
      <trkpt lat="42.054399" lon="2.252470">
        <ele>519.413</ele>
        <time>2018-01-09T12:45:02Z</time>
      </trkpt>
      <trkpt lat="42.054367" lon="2.252514">
        <ele>518.562</ele>
        <time>2018-01-09T12:45:07Z</time>
      </trkpt>
      <trkpt lat="42.054324" lon="2.252558">
        <ele>520.370</ele>
        <time>2018-01-09T12:45:13Z</time>
      </trkpt>
      <trkpt lat="42.054285" lon="2.252593">
        <ele>522.215</ele>
        <time>2018-01-09T12:45:18Z</time>
      </trkpt>
      <trkpt lat="42.054238" lon="2.252620">
        <ele>522.410</ele>
        <time>2018-01-09T12:45:24Z</time>
      </trkpt>
      <trkpt lat="42.054191" lon="2.252629">
        <ele>523.826</ele>
        <time>2018-01-09T12:45:47Z</time>
      </trkpt>
      <trkpt lat="42.054138" lon="2.252628">
        <ele>525.179</ele>
        <time>2018-01-09T12:45:53Z</time>
      </trkpt>
      <trkpt lat="42.054091" lon="2.252605">
        <ele>525.383</ele>
        <time>2018-01-09T12:45:58Z</time>
      </trkpt>
      <trkpt lat="42.054051" lon="2.252564">
        <ele>525.035</ele>
        <time>2018-01-09T12:46:03Z</time>
      </trkpt>
      <trkpt lat="42.054018" lon="2.252519">
        <ele>525.186</ele>
        <time>2018-01-09T12:46:07Z</time>
      </trkpt>
      <trkpt lat="42.053981" lon="2.252474">
        <ele>525.714</ele>
        <time>2018-01-09T12:46:11Z</time>
      </trkpt>
      <trkpt lat="42.053948" lon="2.252433">
        <ele>525.208</ele>
        <time>2018-01-09T12:46:15Z</time>
      </trkpt>
      <trkpt lat="42.053914" lon="2.252385">
        <ele>525.425</ele>
        <time>2018-01-09T12:46:19Z</time>
      </trkpt>
      <trkpt lat="42.053874" lon="2.252330">
        <ele>525.024</ele>
        <time>2018-01-09T12:46:24Z</time>
      </trkpt>
      <trkpt lat="42.053844" lon="2.252273">
        <ele>524.532</ele>
        <time>2018-01-09T12:46:28Z</time>
      </trkpt>
      <trkpt lat="42.053814" lon="2.252211">
        <ele>524.787</ele>
        <time>2018-01-09T12:46:33Z</time>
      </trkpt>
      <trkpt lat="42.053785" lon="2.252161">
        <ele>524.882</ele>
        <time>2018-01-09T12:46:37Z</time>
      </trkpt>
      <trkpt lat="42.053757" lon="2.252107">
        <ele>524.878</ele>
        <time>2018-01-09T12:46:41Z</time>
      </trkpt>
      <trkpt lat="42.053736" lon="2.252043">
        <ele>524.821</ele>
        <time>2018-01-09T12:46:45Z</time>
      </trkpt>
      <trkpt lat="42.053732" lon="2.251983">
        <ele>524.735</ele>
        <time>2018-01-09T12:46:49Z</time>
      </trkpt>
      <trkpt lat="42.053701" lon="2.251920">
        <ele>524.764</ele>
        <time>2018-01-09T12:46:55Z</time>
      </trkpt>
      <trkpt lat="42.053669" lon="2.251859">
        <ele>525.306</ele>
        <time>2018-01-09T12:47:00Z</time>
      </trkpt>
      <trkpt lat="42.053645" lon="2.251807">
        <ele>524.916</ele>
        <time>2018-01-09T12:47:04Z</time>
      </trkpt>
      <trkpt lat="42.053659" lon="2.251749">
        <ele>526.208</ele>
        <time>2018-01-09T12:47:17Z</time>
      </trkpt>
      <trkpt lat="42.053642" lon="2.251677">
        <ele>524.858</ele>
        <time>2018-01-09T12:47:22Z</time>
      </trkpt>
      <trkpt lat="42.053619" lon="2.251615">
        <ele>524.537</ele>
        <time>2018-01-09T12:47:26Z</time>
      </trkpt>
      <trkpt lat="42.053610" lon="2.251555">
        <ele>524.295</ele>
        <time>2018-01-09T12:47:30Z</time>
      </trkpt>
      <trkpt lat="42.053612" lon="2.251480">
        <ele>524.220</ele>
        <time>2018-01-09T12:47:34Z</time>
      </trkpt>
      <trkpt lat="42.053607" lon="2.251414">
        <ele>524.045</ele>
        <time>2018-01-09T12:47:38Z</time>
      </trkpt>
      <trkpt lat="42.053598" lon="2.251345">
        <ele>523.661</ele>
        <time>2018-01-09T12:47:42Z</time>
      </trkpt>
      <trkpt lat="42.053586" lon="2.251281">
        <ele>523.014</ele>
        <time>2018-01-09T12:47:46Z</time>
      </trkpt>
      <trkpt lat="42.053579" lon="2.251214">
        <ele>523.228</ele>
        <time>2018-01-09T12:47:50Z</time>
      </trkpt>
      <trkpt lat="42.053571" lon="2.251143">
        <ele>523.577</ele>
        <time>2018-01-09T12:47:54Z</time>
      </trkpt>
      <trkpt lat="42.053568" lon="2.251070">
        <ele>523.461</ele>
        <time>2018-01-09T12:47:59Z</time>
      </trkpt>
      <trkpt lat="42.053577" lon="2.251000">
        <ele>523.727</ele>
        <time>2018-01-09T12:48:04Z</time>
      </trkpt>
      <trkpt lat="42.053572" lon="2.250938">
        <ele>523.008</ele>
        <time>2018-01-09T12:48:08Z</time>
      </trkpt>
      <trkpt lat="42.053572" lon="2.250870">
        <ele>523.179</ele>
        <time>2018-01-09T12:48:12Z</time>
      </trkpt>
      <trkpt lat="42.053566" lon="2.250806">
        <ele>522.948</ele>
        <time>2018-01-09T12:48:16Z</time>
      </trkpt>
      <trkpt lat="42.053552" lon="2.250744">
        <ele>522.336</ele>
        <time>2018-01-09T12:48:20Z</time>
      </trkpt>
      <trkpt lat="42.053541" lon="2.250679">
        <ele>522.361</ele>
        <time>2018-01-09T12:48:24Z</time>
      </trkpt>
      <trkpt lat="42.053530" lon="2.250608">
        <ele>521.636</ele>
        <time>2018-01-09T12:48:28Z</time>
      </trkpt>
      <trkpt lat="42.053525" lon="2.250536">
        <ele>521.752</ele>
        <time>2018-01-09T12:48:32Z</time>
      </trkpt>
      <trkpt lat="42.053504" lon="2.250473">
        <ele>522.385</ele>
        <time>2018-01-09T12:48:36Z</time>
      </trkpt>
      <trkpt lat="42.053476" lon="2.250417">
        <ele>522.569</ele>
        <time>2018-01-09T12:48:40Z</time>
      </trkpt>
      <trkpt lat="42.053450" lon="2.250367">
        <ele>522.341</ele>
        <time>2018-01-09T12:48:44Z</time>
      </trkpt>
      <trkpt lat="42.053413" lon="2.250327">
        <ele>522.381</ele>
        <time>2018-01-09T12:48:49Z</time>
      </trkpt>
      <trkpt lat="42.053355" lon="2.250332">
        <ele>522.309</ele>
        <time>2018-01-09T12:48:53Z</time>
      </trkpt>
      <trkpt lat="42.053310" lon="2.250349">
        <ele>523.408</ele>
        <time>2018-01-09T12:48:56Z</time>
      </trkpt>
      <trkpt lat="42.053256" lon="2.250375">
        <ele>525.336</ele>
        <time>2018-01-09T12:49:00Z</time>
      </trkpt>
      <trkpt lat="42.053205" lon="2.250401">
        <ele>525.795</ele>
        <time>2018-01-09T12:49:04Z</time>
      </trkpt>
      <trkpt lat="42.053152" lon="2.250427">
        <ele>526.993</ele>
        <time>2018-01-09T12:49:08Z</time>
      </trkpt>
      <trkpt lat="42.053101" lon="2.250448">
        <ele>527.348</ele>
        <time>2018-01-09T12:49:13Z</time>
      </trkpt>
      <trkpt lat="42.053056" lon="2.250467">
        <ele>527.113</ele>
        <time>2018-01-09T12:49:17Z</time>
      </trkpt>
      <trkpt lat="42.053005" lon="2.250510">
        <ele>526.549</ele>
        <time>2018-01-09T12:49:21Z</time>
      </trkpt>
      <trkpt lat="42.052955" lon="2.250549">
        <ele>526.252</ele>
        <time>2018-01-09T12:49:25Z</time>
      </trkpt>
      <trkpt lat="42.052905" lon="2.250582">
        <ele>525.816</ele>
        <time>2018-01-09T12:49:29Z</time>
      </trkpt>
      <trkpt lat="42.052863" lon="2.250620">
        <ele>525.289</ele>
        <time>2018-01-09T12:49:33Z</time>
      </trkpt>
      <trkpt lat="42.052818" lon="2.250650">
        <ele>526.106</ele>
        <time>2018-01-09T12:49:38Z</time>
      </trkpt>
      <trkpt lat="42.052763" lon="2.250628">
        <ele>525.926</ele>
        <time>2018-01-09T12:49:43Z</time>
      </trkpt>
      <trkpt lat="42.052737" lon="2.250577">
        <ele>526.208</ele>
        <time>2018-01-09T12:49:46Z</time>
      </trkpt>
      <trkpt lat="42.052716" lon="2.250504">
        <ele>527.150</ele>
        <time>2018-01-09T12:49:50Z</time>
      </trkpt>
      <trkpt lat="42.052689" lon="2.250436">
        <ele>527.779</ele>
        <time>2018-01-09T12:49:55Z</time>
      </trkpt>
      <trkpt lat="42.052662" lon="2.250387">
        <ele>528.297</ele>
        <time>2018-01-09T12:49:59Z</time>
      </trkpt>
      <trkpt lat="42.052628" lon="2.250334">
        <ele>527.682</ele>
        <time>2018-01-09T12:50:03Z</time>
      </trkpt>
      <trkpt lat="42.052596" lon="2.250287">
        <ele>527.697</ele>
        <time>2018-01-09T12:50:07Z</time>
      </trkpt>
      <trkpt lat="42.052588" lon="2.250211">
        <ele>526.713</ele>
        <time>2018-01-09T12:50:11Z</time>
      </trkpt>
      <trkpt lat="42.052565" lon="2.250138">
        <ele>525.676</ele>
        <time>2018-01-09T12:50:15Z</time>
      </trkpt>
      <trkpt lat="42.052534" lon="2.250088">
        <ele>525.230</ele>
        <time>2018-01-09T12:50:19Z</time>
      </trkpt>
      <trkpt lat="42.052500" lon="2.250046">
        <ele>525.865</ele>
        <time>2018-01-09T12:50:23Z</time>
      </trkpt>
      <trkpt lat="42.052461" lon="2.249995">
        <ele>525.468</ele>
        <time>2018-01-09T12:50:27Z</time>
      </trkpt>
      <trkpt lat="42.052421" lon="2.249941">
        <ele>526.314</ele>
        <time>2018-01-09T12:50:31Z</time>
      </trkpt>
      <trkpt lat="42.052380" lon="2.249898">
        <ele>525.908</ele>
        <time>2018-01-09T12:50:35Z</time>
      </trkpt>
      <trkpt lat="42.052333" lon="2.249864">
        <ele>525.578</ele>
        <time>2018-01-09T12:50:39Z</time>
      </trkpt>
      <trkpt lat="42.052286" lon="2.249858">
        <ele>526.327</ele>
        <time>2018-01-09T12:50:42Z</time>
      </trkpt>
      <trkpt lat="42.052231" lon="2.249844">
        <ele>526.415</ele>
        <time>2018-01-09T12:50:46Z</time>
      </trkpt>
      <trkpt lat="42.052185" lon="2.249826">
        <ele>526.760</ele>
        <time>2018-01-09T12:50:49Z</time>
      </trkpt>
      <trkpt lat="42.052137" lon="2.249801">
        <ele>526.625</ele>
        <time>2018-01-09T12:50:53Z</time>
      </trkpt>
      <trkpt lat="42.052088" lon="2.249785">
        <ele>526.021</ele>
        <time>2018-01-09T12:50:56Z</time>
      </trkpt>
      <trkpt lat="42.052046" lon="2.249763">
        <ele>525.394</ele>
        <time>2018-01-09T12:51:00Z</time>
      </trkpt>
      <trkpt lat="42.051992" lon="2.249737">
        <ele>525.228</ele>
        <time>2018-01-09T12:51:05Z</time>
      </trkpt>
      <trkpt lat="42.051936" lon="2.249740">
        <ele>524.394</ele>
        <time>2018-01-09T12:51:10Z</time>
      </trkpt>
      <trkpt lat="42.051877" lon="2.249729">
        <ele>524.457</ele>
        <time>2018-01-09T12:51:14Z</time>
      </trkpt>
      <trkpt lat="42.051822" lon="2.249724">
        <ele>525.122</ele>
        <time>2018-01-09T12:51:18Z</time>
      </trkpt>
      <trkpt lat="42.051770" lon="2.249714">
        <ele>525.008</ele>
        <time>2018-01-09T12:51:22Z</time>
      </trkpt>
      <trkpt lat="42.051720" lon="2.249698">
        <ele>524.321</ele>
        <time>2018-01-09T12:51:27Z</time>
      </trkpt>
      <trkpt lat="42.051677" lon="2.249661">
        <ele>524.080</ele>
        <time>2018-01-09T12:51:32Z</time>
      </trkpt>
      <trkpt lat="42.051630" lon="2.249658">
        <ele>523.928</ele>
        <time>2018-01-09T12:51:35Z</time>
      </trkpt>
      <trkpt lat="42.051578" lon="2.249651">
        <ele>524.093</ele>
        <time>2018-01-09T12:51:38Z</time>
      </trkpt>
      <trkpt lat="42.051526" lon="2.249655">
        <ele>524.878</ele>
        <time>2018-01-09T12:51:41Z</time>
      </trkpt>
      <trkpt lat="42.051475" lon="2.249644">
        <ele>524.274</ele>
        <time>2018-01-09T12:51:45Z</time>
      </trkpt>
      <trkpt lat="42.051431" lon="2.249626">
        <ele>521.777</ele>
        <time>2018-01-09T12:51:51Z</time>
      </trkpt>
      <trkpt lat="42.051385" lon="2.249644">
        <ele>521.141</ele>
        <time>2018-01-09T12:51:54Z</time>
      </trkpt>
      <trkpt lat="42.051337" lon="2.249667">
        <ele>520.281</ele>
        <time>2018-01-09T12:51:57Z</time>
      </trkpt>
      <trkpt lat="42.051276" lon="2.249697">
        <ele>519.761</ele>
        <time>2018-01-09T12:52:00Z</time>
      </trkpt>
      <trkpt lat="42.051233" lon="2.249723">
        <ele>519.417</ele>
        <time>2018-01-09T12:52:03Z</time>
      </trkpt>
      <trkpt lat="42.051190" lon="2.249754">
        <ele>519.308</ele>
        <time>2018-01-09T12:52:07Z</time>
      </trkpt>
      <trkpt lat="42.051143" lon="2.249780">
        <ele>519.030</ele>
        <time>2018-01-09T12:52:12Z</time>
      </trkpt>
      <trkpt lat="42.051091" lon="2.249802">
        <ele>518.799</ele>
        <time>2018-01-09T12:52:17Z</time>
      </trkpt>
      <trkpt lat="42.051064" lon="2.249854">
        <ele>517.297</ele>
        <time>2018-01-09T12:52:23Z</time>
      </trkpt>
      <trkpt lat="42.051028" lon="2.249908">
        <ele>515.592</ele>
        <time>2018-01-09T12:52:29Z</time>
      </trkpt>
      <trkpt lat="42.050993" lon="2.249952">
        <ele>514.487</ele>
        <time>2018-01-09T12:52:36Z</time>
      </trkpt>
      <trkpt lat="42.050952" lon="2.249988">
        <ele>512.553</ele>
        <time>2018-01-09T12:52:42Z</time>
      </trkpt>
      <trkpt lat="42.050944" lon="2.249918">
        <ele>512.096</ele>
        <time>2018-01-09T12:52:49Z</time>
      </trkpt>
      <trkpt lat="42.050893" lon="2.249932">
        <ele>509.840</ele>
        <time>2018-01-09T12:52:58Z</time>
      </trkpt>
      <trkpt lat="42.050855" lon="2.249972">
        <ele>509.088</ele>
        <time>2018-01-09T12:53:06Z</time>
      </trkpt>
      <trkpt lat="42.050828" lon="2.250021">
        <ele>508.624</ele>
        <time>2018-01-09T12:53:11Z</time>
      </trkpt>
      <trkpt lat="42.050793" lon="2.250064">
        <ele>508.326</ele>
        <time>2018-01-09T12:53:14Z</time>
      </trkpt>
      <trkpt lat="42.050748" lon="2.250101">
        <ele>507.808</ele>
        <time>2018-01-09T12:53:20Z</time>
      </trkpt>
      <trkpt lat="42.050714" lon="2.250144">
        <ele>508.170</ele>
        <time>2018-01-09T12:53:24Z</time>
      </trkpt>
      <trkpt lat="42.050684" lon="2.250210">
        <ele>507.489</ele>
        <time>2018-01-09T12:53:28Z</time>
      </trkpt>
      <trkpt lat="42.050654" lon="2.250271">
        <ele>506.917</ele>
        <time>2018-01-09T12:53:33Z</time>
      </trkpt>
      <trkpt lat="42.050624" lon="2.250324">
        <ele>506.172</ele>
        <time>2018-01-09T12:53:37Z</time>
      </trkpt>
      <trkpt lat="42.050595" lon="2.250371">
        <ele>506.497</ele>
        <time>2018-01-09T12:53:40Z</time>
      </trkpt>
      <trkpt lat="42.050574" lon="2.250438">
        <ele>505.813</ele>
        <time>2018-01-09T12:53:44Z</time>
      </trkpt>
      <trkpt lat="42.050557" lon="2.250495">
        <ele>506.126</ele>
        <time>2018-01-09T12:53:48Z</time>
      </trkpt>
      <trkpt lat="42.050541" lon="2.250552">
        <ele>504.730</ele>
        <time>2018-01-09T12:53:53Z</time>
      </trkpt>
      <trkpt lat="42.050513" lon="2.250618">
        <ele>504.634</ele>
        <time>2018-01-09T12:53:58Z</time>
      </trkpt>
      <trkpt lat="42.050477" lon="2.250678">
        <ele>503.555</ele>
        <time>2018-01-09T12:54:02Z</time>
      </trkpt>
      <trkpt lat="42.050449" lon="2.250741">
        <ele>502.310</ele>
        <time>2018-01-09T12:54:06Z</time>
      </trkpt>
      <trkpt lat="42.050416" lon="2.250786">
        <ele>502.008</ele>
        <time>2018-01-09T12:54:10Z</time>
      </trkpt>
      <trkpt lat="42.050443" lon="2.250728">
        <ele>502.995</ele>
        <time>2018-01-09T12:54:27Z</time>
      </trkpt>
      <trkpt lat="42.050405" lon="2.250772">
        <ele>503.414</ele>
        <time>2018-01-09T12:54:44Z</time>
      </trkpt>
      <trkpt lat="42.050357" lon="2.250757">
        <ele>501.992</ele>
        <time>2018-01-09T12:54:49Z</time>
      </trkpt>
      <trkpt lat="42.050313" lon="2.250735">
        <ele>502.237</ele>
        <time>2018-01-09T12:54:53Z</time>
      </trkpt>
      <trkpt lat="42.050289" lon="2.250790">
        <ele>503.892</ele>
        <time>2018-01-09T12:55:00Z</time>
      </trkpt>
      <trkpt lat="42.050267" lon="2.250848">
        <ele>503.538</ele>
        <time>2018-01-09T12:55:06Z</time>
      </trkpt>
      <trkpt lat="42.050250" lon="2.250913">
        <ele>503.771</ele>
        <time>2018-01-09T12:55:11Z</time>
      </trkpt>
      <trkpt lat="42.050230" lon="2.250974">
        <ele>503.995</ele>
        <time>2018-01-09T12:55:16Z</time>
      </trkpt>
      <trkpt lat="42.050209" lon="2.251055">
        <ele>505.239</ele>
        <time>2018-01-09T12:55:24Z</time>
      </trkpt>
      <trkpt lat="42.050188" lon="2.251109">
        <ele>505.401</ele>
        <time>2018-01-09T12:55:30Z</time>
      </trkpt>
      <trkpt lat="42.050175" lon="2.251172">
        <ele>505.021</ele>
        <time>2018-01-09T12:55:35Z</time>
      </trkpt>
      <trkpt lat="42.050149" lon="2.251223">
        <ele>505.408</ele>
        <time>2018-01-09T12:55:40Z</time>
      </trkpt>
      <trkpt lat="42.050119" lon="2.251275">
        <ele>505.435</ele>
        <time>2018-01-09T12:55:43Z</time>
      </trkpt>
      <trkpt lat="42.050070" lon="2.251306">
        <ele>505.264</ele>
        <time>2018-01-09T12:55:46Z</time>
      </trkpt>
      <trkpt lat="42.050043" lon="2.251367">
        <ele>505.052</ele>
        <time>2018-01-09T12:55:49Z</time>
      </trkpt>
      <trkpt lat="42.050014" lon="2.251436">
        <ele>505.027</ele>
        <time>2018-01-09T12:55:52Z</time>
      </trkpt>
      <trkpt lat="42.049986" lon="2.251500">
        <ele>505.212</ele>
        <time>2018-01-09T12:55:55Z</time>
      </trkpt>
      <trkpt lat="42.049964" lon="2.251569">
        <ele>505.268</ele>
        <time>2018-01-09T12:55:58Z</time>
      </trkpt>
      <trkpt lat="42.049946" lon="2.251633">
        <ele>505.391</ele>
        <time>2018-01-09T12:56:01Z</time>
      </trkpt>
      <trkpt lat="42.049934" lon="2.251693">
        <ele>505.095</ele>
        <time>2018-01-09T12:56:05Z</time>
      </trkpt>
      <trkpt lat="42.049935" lon="2.251763">
        <ele>504.711</ele>
        <time>2018-01-09T12:56:10Z</time>
      </trkpt>
      <trkpt lat="42.049923" lon="2.251835">
        <ele>504.621</ele>
        <time>2018-01-09T12:56:14Z</time>
      </trkpt>
      <trkpt lat="42.049902" lon="2.251895">
        <ele>504.603</ele>
        <time>2018-01-09T12:56:17Z</time>
      </trkpt>
      <trkpt lat="42.049871" lon="2.251960">
        <ele>504.508</ele>
        <time>2018-01-09T12:56:21Z</time>
      </trkpt>
      <trkpt lat="42.049850" lon="2.252018">
        <ele>504.543</ele>
        <time>2018-01-09T12:56:24Z</time>
      </trkpt>
      <trkpt lat="42.049830" lon="2.252081">
        <ele>504.342</ele>
        <time>2018-01-09T12:56:28Z</time>
      </trkpt>
      <trkpt lat="42.049813" lon="2.252161">
        <ele>504.240</ele>
        <time>2018-01-09T12:56:32Z</time>
      </trkpt>
      <trkpt lat="42.049793" lon="2.252228">
        <ele>503.635</ele>
        <time>2018-01-09T12:56:36Z</time>
      </trkpt>
      <trkpt lat="42.049773" lon="2.252295">
        <ele>503.540</ele>
        <time>2018-01-09T12:56:40Z</time>
      </trkpt>
      <trkpt lat="42.049763" lon="2.252356">
        <ele>503.426</ele>
        <time>2018-01-09T12:56:44Z</time>
      </trkpt>
      <trkpt lat="42.049747" lon="2.252419">
        <ele>503.479</ele>
        <time>2018-01-09T12:56:48Z</time>
      </trkpt>
      <trkpt lat="42.049746" lon="2.252493">
        <ele>503.323</ele>
        <time>2018-01-09T12:56:54Z</time>
      </trkpt>
      <trkpt lat="42.049757" lon="2.252562">
        <ele>503.319</ele>
        <time>2018-01-09T12:57:03Z</time>
      </trkpt>
      <trkpt lat="42.049731" lon="2.252632">
        <ele>503.809</ele>
        <time>2018-01-09T12:57:06Z</time>
      </trkpt>
      <trkpt lat="42.049708" lon="2.252690">
        <ele>504.119</ele>
        <time>2018-01-09T12:57:09Z</time>
      </trkpt>
      <trkpt lat="42.049688" lon="2.252751">
        <ele>503.808</ele>
        <time>2018-01-09T12:57:12Z</time>
      </trkpt>
      <trkpt lat="42.049671" lon="2.252815">
        <ele>503.573</ele>
        <time>2018-01-09T12:57:15Z</time>
      </trkpt>
      <trkpt lat="42.049647" lon="2.252874">
        <ele>503.152</ele>
        <time>2018-01-09T12:57:19Z</time>
      </trkpt>
      <trkpt lat="42.049648" lon="2.252940">
        <ele>503.180</ele>
        <time>2018-01-09T12:57:25Z</time>
      </trkpt>
      <trkpt lat="42.049616" lon="2.253013">
        <ele>503.485</ele>
        <time>2018-01-09T12:57:31Z</time>
      </trkpt>
      <trkpt lat="42.049596" lon="2.253086">
        <ele>503.720</ele>
        <time>2018-01-09T12:57:35Z</time>
      </trkpt>
      <trkpt lat="42.049584" lon="2.253144">
        <ele>503.416</ele>
        <time>2018-01-09T12:57:38Z</time>
      </trkpt>
      <trkpt lat="42.049549" lon="2.253183">
        <ele>503.419</ele>
        <time>2018-01-09T12:57:42Z</time>
      </trkpt>
      <trkpt lat="42.049506" lon="2.253155">
        <ele>503.343</ele>
        <time>2018-01-09T12:57:47Z</time>
      </trkpt>
      <trkpt lat="42.049459" lon="2.253116">
        <ele>503.614</ele>
        <time>2018-01-09T12:57:52Z</time>
      </trkpt>
      <trkpt lat="42.049419" lon="2.253079">
        <ele>503.654</ele>
        <time>2018-01-09T12:57:56Z</time>
      </trkpt>
      <trkpt lat="42.049378" lon="2.253037">
        <ele>503.509</ele>
        <time>2018-01-09T12:58:00Z</time>
      </trkpt>
      <trkpt lat="42.049334" lon="2.252990">
        <ele>503.108</ele>
        <time>2018-01-09T12:58:04Z</time>
      </trkpt>
      <trkpt lat="42.049305" lon="2.252929">
        <ele>503.393</ele>
        <time>2018-01-09T12:58:08Z</time>
      </trkpt>
      <trkpt lat="42.049302" lon="2.252863">
        <ele>503.462</ele>
        <time>2018-01-09T12:58:12Z</time>
      </trkpt>
      <trkpt lat="42.049305" lon="2.252793">
        <ele>503.320</ele>
        <time>2018-01-09T12:58:16Z</time>
      </trkpt>
      <trkpt lat="42.049302" lon="2.252725">
        <ele>503.125</ele>
        <time>2018-01-09T12:58:20Z</time>
      </trkpt>
      <trkpt lat="42.049291" lon="2.252665">
        <ele>503.660</ele>
        <time>2018-01-09T12:58:24Z</time>
      </trkpt>
      <trkpt lat="42.049275" lon="2.252598">
        <ele>503.516</ele>
        <time>2018-01-09T12:58:28Z</time>
      </trkpt>
      <trkpt lat="42.049222" lon="2.252570">
        <ele>503.099</ele>
        <time>2018-01-09T12:58:32Z</time>
      </trkpt>
      <trkpt lat="42.049169" lon="2.252555">
        <ele>502.433</ele>
        <time>2018-01-09T12:58:36Z</time>
      </trkpt>
      <trkpt lat="42.049122" lon="2.252539">
        <ele>502.666</ele>
        <time>2018-01-09T12:58:40Z</time>
      </trkpt>
      <trkpt lat="42.049067" lon="2.252559">
        <ele>502.729</ele>
        <time>2018-01-09T12:58:44Z</time>
      </trkpt>
      <trkpt lat="42.049024" lon="2.252591">
        <ele>502.821</ele>
        <time>2018-01-09T12:58:48Z</time>
      </trkpt>
      <trkpt lat="42.048969" lon="2.252590">
        <ele>503.408</ele>
        <time>2018-01-09T12:59:01Z</time>
      </trkpt>
      <trkpt lat="42.048928" lon="2.252541">
        <ele>503.378</ele>
        <time>2018-01-09T12:59:05Z</time>
      </trkpt>
      <trkpt lat="42.048895" lon="2.252500">
        <ele>503.327</ele>
        <time>2018-01-09T12:59:12Z</time>
      </trkpt>
      <trkpt lat="42.048858" lon="2.252461">
        <ele>502.665</ele>
        <time>2018-01-09T12:59:24Z</time>
      </trkpt>
      <trkpt lat="42.048819" lon="2.252415">
        <ele>502.570</ele>
        <time>2018-01-09T12:59:29Z</time>
      </trkpt>
      <trkpt lat="42.048783" lon="2.252365">
        <ele>502.335</ele>
        <time>2018-01-09T12:59:33Z</time>
      </trkpt>
      <trkpt lat="42.048745" lon="2.252321">
        <ele>501.611</ele>
        <time>2018-01-09T12:59:37Z</time>
      </trkpt>
      <trkpt lat="42.048703" lon="2.252273">
        <ele>501.334</ele>
        <time>2018-01-09T12:59:42Z</time>
      </trkpt>
      <trkpt lat="42.048667" lon="2.252235">
        <ele>500.958</ele>
        <time>2018-01-09T12:59:46Z</time>
      </trkpt>
      <trkpt lat="42.048634" lon="2.252193">
        <ele>500.718</ele>
        <time>2018-01-09T13:00:02Z</time>
      </trkpt>
      <trkpt lat="42.048594" lon="2.252150">
        <ele>499.598</ele>
        <time>2018-01-09T13:00:06Z</time>
      </trkpt>
      <trkpt lat="42.048547" lon="2.252103">
        <ele>497.817</ele>
        <time>2018-01-09T13:00:10Z</time>
      </trkpt>
      <trkpt lat="42.048501" lon="2.252051">
        <ele>497.808</ele>
        <time>2018-01-09T13:00:14Z</time>
      </trkpt>
      <trkpt lat="42.048460" lon="2.252005">
        <ele>497.923</ele>
        <time>2018-01-09T13:00:18Z</time>
      </trkpt>
      <trkpt lat="42.048423" lon="2.251956">
        <ele>497.662</ele>
        <time>2018-01-09T13:00:22Z</time>
      </trkpt>
      <trkpt lat="42.048390" lon="2.251912">
        <ele>497.390</ele>
        <time>2018-01-09T13:00:26Z</time>
      </trkpt>
      <trkpt lat="42.048358" lon="2.251869">
        <ele>497.555</ele>
        <time>2018-01-09T13:00:29Z</time>
      </trkpt>
      <trkpt lat="42.048326" lon="2.251822">
        <ele>497.620</ele>
        <time>2018-01-09T13:00:32Z</time>
      </trkpt>
      <trkpt lat="42.048292" lon="2.251779">
        <ele>497.886</ele>
        <time>2018-01-09T13:00:36Z</time>
      </trkpt>
      <trkpt lat="42.048250" lon="2.251728">
        <ele>497.489</ele>
        <time>2018-01-09T13:00:40Z</time>
      </trkpt>
      <trkpt lat="42.048208" lon="2.251683">
        <ele>498.293</ele>
        <time>2018-01-09T13:00:44Z</time>
      </trkpt>
      <trkpt lat="42.048173" lon="2.251645">
        <ele>498.883</ele>
        <time>2018-01-09T13:00:48Z</time>
      </trkpt>
      <trkpt lat="42.048134" lon="2.251599">
        <ele>499.025</ele>
        <time>2018-01-09T13:00:52Z</time>
      </trkpt>
      <trkpt lat="42.048092" lon="2.251546">
        <ele>498.617</ele>
        <time>2018-01-09T13:00:56Z</time>
      </trkpt>
      <trkpt lat="42.048059" lon="2.251500">
        <ele>498.208</ele>
        <time>2018-01-09T13:00:59Z</time>
      </trkpt>
      <trkpt lat="42.048019" lon="2.251448">
        <ele>497.690</ele>
        <time>2018-01-09T13:01:03Z</time>
      </trkpt>
      <trkpt lat="42.047982" lon="2.251398">
        <ele>497.279</ele>
        <time>2018-01-09T13:01:07Z</time>
      </trkpt>
      <trkpt lat="42.047941" lon="2.251358">
        <ele>497.097</ele>
        <time>2018-01-09T13:01:11Z</time>
      </trkpt>
      <trkpt lat="42.047902" lon="2.251317">
        <ele>497.132</ele>
        <time>2018-01-09T13:01:15Z</time>
      </trkpt>
      <trkpt lat="42.047871" lon="2.251271">
        <ele>496.557</ele>
        <time>2018-01-09T13:01:19Z</time>
      </trkpt>
      <trkpt lat="42.047827" lon="2.251227">
        <ele>495.663</ele>
        <time>2018-01-09T13:01:29Z</time>
      </trkpt>
      <trkpt lat="42.047791" lon="2.251172">
        <ele>495.336</ele>
        <time>2018-01-09T13:01:33Z</time>
      </trkpt>
      <trkpt lat="42.047749" lon="2.251133">
        <ele>495.570</ele>
        <time>2018-01-09T13:01:37Z</time>
      </trkpt>
      <trkpt lat="42.047701" lon="2.251083">
        <ele>495.852</ele>
        <time>2018-01-09T13:01:41Z</time>
      </trkpt>
      <trkpt lat="42.047664" lon="2.251035">
        <ele>496.153</ele>
        <time>2018-01-09T13:01:44Z</time>
      </trkpt>
      <trkpt lat="42.047628" lon="2.250992">
        <ele>496.408</ele>
        <time>2018-01-09T13:01:47Z</time>
      </trkpt>
      <trkpt lat="42.047580" lon="2.250946">
        <ele>497.008</ele>
        <time>2018-01-09T13:01:51Z</time>
      </trkpt>
      <trkpt lat="42.047542" lon="2.250908">
        <ele>497.547</ele>
        <time>2018-01-09T13:01:54Z</time>
      </trkpt>
      <trkpt lat="42.047504" lon="2.250865">
        <ele>497.856</ele>
        <time>2018-01-09T13:01:57Z</time>
      </trkpt>
      <trkpt lat="42.047461" lon="2.250815">
        <ele>497.664</ele>
        <time>2018-01-09T13:02:01Z</time>
      </trkpt>
      <trkpt lat="42.047426" lon="2.250775">
        <ele>497.879</ele>
        <time>2018-01-09T13:02:04Z</time>
      </trkpt>
      <trkpt lat="42.047393" lon="2.250728">
        <ele>497.724</ele>
        <time>2018-01-09T13:02:07Z</time>
      </trkpt>
      <trkpt lat="42.047360" lon="2.250682">
        <ele>498.260</ele>
        <time>2018-01-09T13:02:10Z</time>
      </trkpt>
      <trkpt lat="42.047319" lon="2.250634">
        <ele>498.043</ele>
        <time>2018-01-09T13:02:14Z</time>
      </trkpt>
      <trkpt lat="42.047283" lon="2.250590">
        <ele>497.787</ele>
        <time>2018-01-09T13:02:17Z</time>
      </trkpt>
      <trkpt lat="42.047247" lon="2.250547">
        <ele>497.668</ele>
        <time>2018-01-09T13:02:20Z</time>
      </trkpt>
      <trkpt lat="42.047217" lon="2.250494">
        <ele>498.142</ele>
        <time>2018-01-09T13:02:23Z</time>
      </trkpt>
      <trkpt lat="42.047176" lon="2.250439">
        <ele>498.126</ele>
        <time>2018-01-09T13:02:27Z</time>
      </trkpt>
      <trkpt lat="42.047148" lon="2.250391">
        <ele>498.508</ele>
        <time>2018-01-09T13:02:30Z</time>
      </trkpt>
      <trkpt lat="42.047183" lon="2.250345">
        <ele>499.498</ele>
        <time>2018-01-09T13:02:45Z</time>
      </trkpt>
      <trkpt lat="42.047231" lon="2.250326">
        <ele>499.677</ele>
        <time>2018-01-09T13:03:05Z</time>
      </trkpt>
      <trkpt lat="42.047278" lon="2.250316">
        <ele>500.065</ele>
        <time>2018-01-09T13:03:10Z</time>
      </trkpt>
      <trkpt lat="42.047327" lon="2.250334">
        <ele>499.990</ele>
        <time>2018-01-09T13:03:15Z</time>
      </trkpt>
      <trkpt lat="42.047366" lon="2.250372">
        <ele>500.055</ele>
        <time>2018-01-09T13:03:20Z</time>
      </trkpt>
      <trkpt lat="42.047415" lon="2.250402">
        <ele>499.871</ele>
        <time>2018-01-09T13:03:25Z</time>
      </trkpt>
      <trkpt lat="42.047456" lon="2.250445">
        <ele>499.094</ele>
        <time>2018-01-09T13:03:29Z</time>
      </trkpt>
      <trkpt lat="42.047501" lon="2.250479">
        <ele>498.238</ele>
        <time>2018-01-09T13:03:37Z</time>
      </trkpt>
      <trkpt lat="42.047528" lon="2.250534">
        <ele>498.553</ele>
        <time>2018-01-09T13:03:42Z</time>
      </trkpt>
      <trkpt lat="42.047521" lon="2.250609">
        <ele>498.704</ele>
        <time>2018-01-09T13:04:23Z</time>
      </trkpt>
      <trkpt lat="42.047509" lon="2.250677">
        <ele>497.814</ele>
        <time>2018-01-09T13:04:26Z</time>
      </trkpt>
      <trkpt lat="42.047501" lon="2.250743">
        <ele>498.008</ele>
        <time>2018-01-09T13:04:30Z</time>
      </trkpt>
      <trkpt lat="42.047486" lon="2.250815">
        <ele>498.537</ele>
        <time>2018-01-09T13:04:34Z</time>
      </trkpt>
      <trkpt lat="42.047459" lon="2.250882">
        <ele>498.626</ele>
        <time>2018-01-09T13:04:37Z</time>
      </trkpt>
      <trkpt lat="42.047428" lon="2.250946">
        <ele>498.814</ele>
        <time>2018-01-09T13:04:40Z</time>
      </trkpt>
      <trkpt lat="42.047404" lon="2.251003">
        <ele>498.729</ele>
        <time>2018-01-09T13:04:43Z</time>
      </trkpt>
      <trkpt lat="42.047379" lon="2.251064">
        <ele>498.664</ele>
        <time>2018-01-09T13:04:46Z</time>
      </trkpt>
      <trkpt lat="42.047356" lon="2.251123">
        <ele>498.810</ele>
        <time>2018-01-09T13:04:49Z</time>
      </trkpt>
      <trkpt lat="42.047338" lon="2.251192">
        <ele>498.683</ele>
        <time>2018-01-09T13:04:53Z</time>
      </trkpt>
      <trkpt lat="42.047322" lon="2.251254">
        <ele>498.687</ele>
        <time>2018-01-09T13:04:57Z</time>
      </trkpt>
      <trkpt lat="42.047308" lon="2.251318">
        <ele>498.954</ele>
        <time>2018-01-09T13:05:01Z</time>
      </trkpt>
      <trkpt lat="42.047301" lon="2.251385">
        <ele>499.156</ele>
        <time>2018-01-09T13:05:05Z</time>
      </trkpt>
      <trkpt lat="42.047295" lon="2.251454">
        <ele>498.411</ele>
        <time>2018-01-09T13:05:09Z</time>
      </trkpt>
      <trkpt lat="42.047288" lon="2.251523">
        <ele>498.108</ele>
        <time>2018-01-09T13:05:13Z</time>
      </trkpt>
      <trkpt lat="42.047294" lon="2.251598">
        <ele>498.227</ele>
        <time>2018-01-09T13:05:17Z</time>
      </trkpt>
      <trkpt lat="42.047288" lon="2.251662">
        <ele>497.896</ele>
        <time>2018-01-09T13:05:21Z</time>
      </trkpt>
      <trkpt lat="42.047273" lon="2.251721">
        <ele>497.694</ele>
        <time>2018-01-09T13:05:24Z</time>
      </trkpt>
      <trkpt lat="42.047282" lon="2.251783">
        <ele>497.419</ele>
        <time>2018-01-09T13:05:28Z</time>
      </trkpt>
      <trkpt lat="42.047280" lon="2.251846">
        <ele>497.244</ele>
        <time>2018-01-09T13:05:32Z</time>
      </trkpt>
      <trkpt lat="42.047260" lon="2.251912">
        <ele>497.460</ele>
        <time>2018-01-09T13:05:36Z</time>
      </trkpt>
      <trkpt lat="42.047240" lon="2.251985">
        <ele>497.173</ele>
        <time>2018-01-09T13:05:40Z</time>
      </trkpt>
      <trkpt lat="42.047229" lon="2.252064">
        <ele>496.287</ele>
        <time>2018-01-09T13:05:44Z</time>
      </trkpt>
      <trkpt lat="42.047222" lon="2.252134">
        <ele>496.116</ele>
        <time>2018-01-09T13:05:48Z</time>
      </trkpt>
      <trkpt lat="42.047207" lon="2.252195">
        <ele>495.876</ele>
        <time>2018-01-09T13:05:51Z</time>
      </trkpt>
      <trkpt lat="42.047189" lon="2.252270">
        <ele>495.713</ele>
        <time>2018-01-09T13:05:55Z</time>
      </trkpt>
      <trkpt lat="42.047180" lon="2.252343">
        <ele>495.608</ele>
        <time>2018-01-09T13:05:59Z</time>
      </trkpt>
      <trkpt lat="42.047171" lon="2.252408">
        <ele>495.473</ele>
        <time>2018-01-09T13:06:03Z</time>
      </trkpt>
      <trkpt lat="42.047155" lon="2.252468">
        <ele>495.422</ele>
        <time>2018-01-09T13:06:07Z</time>
      </trkpt>
      <trkpt lat="42.047138" lon="2.252537">
        <ele>495.640</ele>
        <time>2018-01-09T13:06:11Z</time>
      </trkpt>
      <trkpt lat="42.047126" lon="2.252607">
        <ele>495.675</ele>
        <time>2018-01-09T13:06:15Z</time>
      </trkpt>
      <trkpt lat="42.047114" lon="2.252678">
        <ele>495.930</ele>
        <time>2018-01-09T13:06:19Z</time>
      </trkpt>
      <trkpt lat="42.047102" lon="2.252751">
        <ele>496.016</ele>
        <time>2018-01-09T13:06:23Z</time>
      </trkpt>
      <trkpt lat="42.047092" lon="2.252825">
        <ele>495.999</ele>
        <time>2018-01-09T13:06:27Z</time>
      </trkpt>
      <trkpt lat="42.047076" lon="2.252895">
        <ele>495.123</ele>
        <time>2018-01-09T13:06:31Z</time>
      </trkpt>
      <trkpt lat="42.047065" lon="2.252968">
        <ele>494.894</ele>
        <time>2018-01-09T13:06:35Z</time>
      </trkpt>
      <trkpt lat="42.047072" lon="2.253036">
        <ele>494.357</ele>
        <time>2018-01-09T13:06:56Z</time>
      </trkpt>
      <trkpt lat="42.047051" lon="2.253106">
        <ele>494.922</ele>
        <time>2018-01-09T13:07:00Z</time>
      </trkpt>
      <trkpt lat="42.047028" lon="2.253172">
        <ele>494.908</ele>
        <time>2018-01-09T13:07:04Z</time>
      </trkpt>
      <trkpt lat="42.047006" lon="2.253241">
        <ele>494.981</ele>
        <time>2018-01-09T13:07:08Z</time>
      </trkpt>
      <trkpt lat="42.046988" lon="2.253310">
        <ele>494.770</ele>
        <time>2018-01-09T13:07:12Z</time>
      </trkpt>
      <trkpt lat="42.046972" lon="2.253378">
        <ele>494.518</ele>
        <time>2018-01-09T13:07:16Z</time>
      </trkpt>
      <trkpt lat="42.046955" lon="2.253448">
        <ele>493.973</ele>
        <time>2018-01-09T13:07:20Z</time>
      </trkpt>
      <trkpt lat="42.046942" lon="2.253524">
        <ele>493.778</ele>
        <time>2018-01-09T13:07:24Z</time>
      </trkpt>
      <trkpt lat="42.046931" lon="2.253584">
        <ele>493.944</ele>
        <time>2018-01-09T13:07:27Z</time>
      </trkpt>
      <trkpt lat="42.046916" lon="2.253657">
        <ele>494.087</ele>
        <time>2018-01-09T13:07:31Z</time>
      </trkpt>
      <trkpt lat="42.046897" lon="2.253730">
        <ele>493.941</ele>
        <time>2018-01-09T13:07:35Z</time>
      </trkpt>
      <trkpt lat="42.046876" lon="2.253797">
        <ele>493.917</ele>
        <time>2018-01-09T13:07:39Z</time>
      </trkpt>
      <trkpt lat="42.046856" lon="2.253866">
        <ele>493.887</ele>
        <time>2018-01-09T13:07:43Z</time>
      </trkpt>
      <trkpt lat="42.046837" lon="2.253936">
        <ele>494.015</ele>
        <time>2018-01-09T13:07:47Z</time>
      </trkpt>
      <trkpt lat="42.046818" lon="2.254001">
        <ele>493.808</ele>
        <time>2018-01-09T13:07:51Z</time>
      </trkpt>
      <trkpt lat="42.046800" lon="2.254069">
        <ele>494.123</ele>
        <time>2018-01-09T13:07:55Z</time>
      </trkpt>
      <trkpt lat="42.046780" lon="2.254140">
        <ele>494.262</ele>
        <time>2018-01-09T13:07:59Z</time>
      </trkpt>
      <trkpt lat="42.046764" lon="2.254213">
        <ele>494.290</ele>
        <time>2018-01-09T13:08:03Z</time>
      </trkpt>
      <trkpt lat="42.046744" lon="2.254286">
        <ele>494.465</ele>
        <time>2018-01-09T13:08:07Z</time>
      </trkpt>
      <trkpt lat="42.046732" lon="2.254360">
        <ele>495.070</ele>
        <time>2018-01-09T13:08:11Z</time>
      </trkpt>
      <trkpt lat="42.046715" lon="2.254423">
        <ele>495.216</ele>
        <time>2018-01-09T13:08:15Z</time>
      </trkpt>
      <trkpt lat="42.046700" lon="2.254495">
        <ele>495.489</ele>
        <time>2018-01-09T13:08:19Z</time>
      </trkpt>
      <trkpt lat="42.046686" lon="2.254567">
        <ele>495.533</ele>
        <time>2018-01-09T13:08:23Z</time>
      </trkpt>
      <trkpt lat="42.046674" lon="2.254628">
        <ele>495.466</ele>
        <time>2018-01-09T13:08:27Z</time>
      </trkpt>
      <trkpt lat="42.046656" lon="2.254685">
        <ele>495.529</ele>
        <time>2018-01-09T13:08:31Z</time>
      </trkpt>
      <trkpt lat="42.046633" lon="2.254752">
        <ele>495.321</ele>
        <time>2018-01-09T13:08:35Z</time>
      </trkpt>
      <trkpt lat="42.046615" lon="2.254821">
        <ele>495.208</ele>
        <time>2018-01-09T13:08:39Z</time>
      </trkpt>
      <trkpt lat="42.046590" lon="2.254875">
        <ele>495.158</ele>
        <time>2018-01-09T13:08:42Z</time>
      </trkpt>
      <trkpt lat="42.046570" lon="2.254943">
        <ele>495.717</ele>
        <time>2018-01-09T13:08:46Z</time>
      </trkpt>
      <trkpt lat="42.046540" lon="2.255009">
        <ele>495.545</ele>
        <time>2018-01-09T13:08:50Z</time>
      </trkpt>
      <trkpt lat="42.046516" lon="2.255066">
        <ele>495.110</ele>
        <time>2018-01-09T13:08:54Z</time>
      </trkpt>
      <trkpt lat="42.046500" lon="2.255124">
        <ele>494.785</ele>
        <time>2018-01-09T13:08:58Z</time>
      </trkpt>
      <trkpt lat="42.046483" lon="2.255185">
        <ele>494.791</ele>
        <time>2018-01-09T13:09:02Z</time>
      </trkpt>
      <trkpt lat="42.046454" lon="2.255240">
        <ele>495.034</ele>
        <time>2018-01-09T13:09:07Z</time>
      </trkpt>
      <trkpt lat="42.046427" lon="2.255298">
        <ele>495.038</ele>
        <time>2018-01-09T13:09:11Z</time>
      </trkpt>
      <trkpt lat="42.046395" lon="2.255344">
        <ele>494.939</ele>
        <time>2018-01-09T13:09:15Z</time>
      </trkpt>
      <trkpt lat="42.046367" lon="2.255392">
        <ele>494.801</ele>
        <time>2018-01-09T13:09:19Z</time>
      </trkpt>
      <trkpt lat="42.046339" lon="2.255439">
        <ele>493.821</ele>
        <time>2018-01-09T13:09:23Z</time>
      </trkpt>
      <trkpt lat="42.046305" lon="2.255482">
        <ele>493.508</ele>
        <time>2018-01-09T13:09:28Z</time>
      </trkpt>
      <trkpt lat="42.046272" lon="2.255525">
        <ele>493.695</ele>
        <time>2018-01-09T13:09:32Z</time>
      </trkpt>
      <trkpt lat="42.046231" lon="2.255562">
        <ele>493.744</ele>
        <time>2018-01-09T13:09:36Z</time>
      </trkpt>
      <trkpt lat="42.046193" lon="2.255609">
        <ele>493.362</ele>
        <time>2018-01-09T13:09:41Z</time>
      </trkpt>
      <trkpt lat="42.046151" lon="2.255646">
        <ele>492.937</ele>
        <time>2018-01-09T13:09:45Z</time>
      </trkpt>
      <trkpt lat="42.046107" lon="2.255689">
        <ele>492.632</ele>
        <time>2018-01-09T13:09:49Z</time>
      </trkpt>
      <trkpt lat="42.046061" lon="2.255735">
        <ele>492.338</ele>
        <time>2018-01-09T13:09:54Z</time>
      </trkpt>
      <trkpt lat="42.046008" lon="2.255767">
        <ele>492.211</ele>
        <time>2018-01-09T13:09:58Z</time>
      </trkpt>
      <trkpt lat="42.045964" lon="2.255792">
        <ele>491.985</ele>
        <time>2018-01-09T13:10:01Z</time>
      </trkpt>
      <trkpt lat="42.045912" lon="2.255823">
        <ele>491.858</ele>
        <time>2018-01-09T13:10:05Z</time>
      </trkpt>
      <trkpt lat="42.045863" lon="2.255855">
        <ele>492.052</ele>
        <time>2018-01-09T13:10:09Z</time>
      </trkpt>
      <trkpt lat="42.045814" lon="2.255883">
        <ele>491.917</ele>
        <time>2018-01-09T13:10:13Z</time>
      </trkpt>
      <trkpt lat="42.045769" lon="2.255904">
        <ele>492.008</ele>
        <time>2018-01-09T13:10:17Z</time>
      </trkpt>
      <trkpt lat="42.045716" lon="2.255892">
        <ele>491.187</ele>
        <time>2018-01-09T13:10:36Z</time>
      </trkpt>
      <trkpt lat="42.045660" lon="2.255908">
        <ele>491.136</ele>
        <time>2018-01-09T13:10:40Z</time>
      </trkpt>
      <trkpt lat="42.045613" lon="2.255920">
        <ele>490.544</ele>
        <time>2018-01-09T13:10:44Z</time>
      </trkpt>
      <trkpt lat="42.045566" lon="2.255933">
        <ele>490.359</ele>
        <time>2018-01-09T13:10:47Z</time>
      </trkpt>
      <trkpt lat="42.045509" lon="2.255954">
        <ele>490.944</ele>
        <time>2018-01-09T13:10:51Z</time>
      </trkpt>
      <trkpt lat="42.045460" lon="2.255958">
        <ele>491.080</ele>
        <time>2018-01-09T13:10:54Z</time>
      </trkpt>
      <trkpt lat="42.045415" lon="2.255965">
        <ele>490.953</ele>
        <time>2018-01-09T13:10:57Z</time>
      </trkpt>
      <trkpt lat="42.045361" lon="2.255961">
        <ele>490.927</ele>
        <time>2018-01-09T13:11:01Z</time>
      </trkpt>
      <trkpt lat="42.045307" lon="2.255956">
        <ele>490.992</ele>
        <time>2018-01-09T13:11:05Z</time>
      </trkpt>
      <trkpt lat="42.045258" lon="2.255955">
        <ele>491.273</ele>
        <time>2018-01-09T13:11:08Z</time>
      </trkpt>
      <trkpt lat="42.045213" lon="2.255961">
        <ele>491.620</ele>
        <time>2018-01-09T13:11:11Z</time>
      </trkpt>
      <trkpt lat="42.045160" lon="2.255966">
        <ele>491.308</ele>
        <time>2018-01-09T13:11:15Z</time>
      </trkpt>
      <trkpt lat="42.045114" lon="2.255966">
        <ele>490.941</ele>
        <time>2018-01-09T13:11:19Z</time>
      </trkpt>
      <trkpt lat="42.045064" lon="2.255967">
        <ele>490.550</ele>
        <time>2018-01-09T13:11:23Z</time>
      </trkpt>
      <trkpt lat="42.045010" lon="2.255955">
        <ele>491.148</ele>
        <time>2018-01-09T13:11:27Z</time>
      </trkpt>
      <trkpt lat="42.044949" lon="2.255954">
        <ele>491.193</ele>
        <time>2018-01-09T13:11:31Z</time>
      </trkpt>
      <trkpt lat="42.044898" lon="2.255959">
        <ele>491.188</ele>
        <time>2018-01-09T13:11:34Z</time>
      </trkpt>
      <trkpt lat="42.044839" lon="2.255960">
        <ele>491.214</ele>
        <time>2018-01-09T13:11:38Z</time>
      </trkpt>
      <trkpt lat="42.044784" lon="2.255972">
        <ele>491.267</ele>
        <time>2018-01-09T13:11:42Z</time>
      </trkpt>
      <trkpt lat="42.044726" lon="2.255978">
        <ele>491.221</ele>
        <time>2018-01-09T13:11:46Z</time>
      </trkpt>
      <trkpt lat="42.044680" lon="2.255993">
        <ele>491.072</ele>
        <time>2018-01-09T13:11:49Z</time>
      </trkpt>
      <trkpt lat="42.044622" lon="2.256007">
        <ele>491.113</ele>
        <time>2018-01-09T13:11:53Z</time>
      </trkpt>
      <trkpt lat="42.044571" lon="2.256010">
        <ele>490.814</ele>
        <time>2018-01-09T13:11:57Z</time>
      </trkpt>
      <trkpt lat="42.044515" lon="2.256025">
        <ele>491.808</ele>
        <time>2018-01-09T13:12:12Z</time>
      </trkpt>
      <trkpt lat="42.044470" lon="2.256028">
        <ele>490.169</ele>
        <time>2018-01-09T13:12:17Z</time>
      </trkpt>
      <trkpt lat="42.044419" lon="2.256033">
        <ele>490.258</ele>
        <time>2018-01-09T13:12:21Z</time>
      </trkpt>
      <trkpt lat="42.044368" lon="2.256046">
        <ele>491.646</ele>
        <time>2018-01-09T13:12:26Z</time>
      </trkpt>
      <trkpt lat="42.044319" lon="2.256059">
        <ele>492.451</ele>
        <time>2018-01-09T13:12:30Z</time>
      </trkpt>
      <trkpt lat="42.044274" lon="2.256068">
        <ele>492.616</ele>
        <time>2018-01-09T13:12:34Z</time>
      </trkpt>
      <trkpt lat="42.044218" lon="2.256078">
        <ele>492.872</ele>
        <time>2018-01-09T13:12:39Z</time>
      </trkpt>
      <trkpt lat="42.044160" lon="2.256084">
        <ele>493.055</ele>
        <time>2018-01-09T13:12:43Z</time>
      </trkpt>
      <trkpt lat="42.044103" lon="2.256079">
        <ele>494.449</ele>
        <time>2018-01-09T13:12:47Z</time>
      </trkpt>
      <trkpt lat="42.044058" lon="2.256078">
        <ele>495.989</ele>
        <time>2018-01-09T13:12:51Z</time>
      </trkpt>
      <trkpt lat="42.044012" lon="2.256077">
        <ele>495.706</ele>
        <time>2018-01-09T13:12:55Z</time>
      </trkpt>
      <trkpt lat="42.043965" lon="2.256066">
        <ele>495.226</ele>
        <time>2018-01-09T13:12:59Z</time>
      </trkpt>
      <trkpt lat="42.043914" lon="2.256051">
        <ele>495.008</ele>
        <time>2018-01-09T13:13:04Z</time>
      </trkpt>
      <trkpt lat="42.043866" lon="2.256047">
        <ele>494.250</ele>
        <time>2018-01-09T13:13:08Z</time>
      </trkpt>
      <trkpt lat="42.043814" lon="2.256058">
        <ele>492.549</ele>
        <time>2018-01-09T13:13:13Z</time>
      </trkpt>
      <trkpt lat="42.043764" lon="2.256057">
        <ele>492.577</ele>
        <time>2018-01-09T13:13:17Z</time>
      </trkpt>
      <trkpt lat="42.043704" lon="2.256071">
        <ele>493.222</ele>
        <time>2018-01-09T13:13:21Z</time>
      </trkpt>
      <trkpt lat="42.043656" lon="2.256078">
        <ele>493.587</ele>
        <time>2018-01-09T13:13:24Z</time>
      </trkpt>
      <trkpt lat="42.043607" lon="2.256082">
        <ele>492.953</ele>
        <time>2018-01-09T13:13:27Z</time>
      </trkpt>
      <trkpt lat="42.043562" lon="2.256090">
        <ele>493.026</ele>
        <time>2018-01-09T13:13:31Z</time>
      </trkpt>
      <trkpt lat="42.043516" lon="2.256082">
        <ele>493.190</ele>
        <time>2018-01-09T13:13:34Z</time>
      </trkpt>
      <trkpt lat="42.043468" lon="2.256079">
        <ele>493.432</ele>
        <time>2018-01-09T13:13:38Z</time>
      </trkpt>
      <trkpt lat="42.043410" lon="2.256070">
        <ele>493.292</ele>
        <time>2018-01-09T13:13:42Z</time>
      </trkpt>
      <trkpt lat="42.043356" lon="2.256060">
        <ele>494.811</ele>
        <time>2018-01-09T13:13:46Z</time>
      </trkpt>
      <trkpt lat="42.043307" lon="2.256060">
        <ele>495.908</ele>
        <time>2018-01-09T13:13:50Z</time>
      </trkpt>
      <trkpt lat="42.043257" lon="2.256062">
        <ele>495.525</ele>
        <time>2018-01-09T13:13:53Z</time>
      </trkpt>
      <trkpt lat="42.043207" lon="2.256064">
        <ele>495.984</ele>
        <time>2018-01-09T13:13:57Z</time>
      </trkpt>
      <trkpt lat="42.043152" lon="2.256071">
        <ele>495.972</ele>
        <time>2018-01-09T13:14:01Z</time>
      </trkpt>
      <trkpt lat="42.043104" lon="2.256086">
        <ele>495.467</ele>
        <time>2018-01-09T13:14:05Z</time>
      </trkpt>
      <trkpt lat="42.043048" lon="2.256077">
        <ele>496.272</ele>
        <time>2018-01-09T13:14:09Z</time>
      </trkpt>
      <trkpt lat="42.043001" lon="2.256063">
        <ele>496.248</ele>
        <time>2018-01-09T13:14:12Z</time>
      </trkpt>
      <trkpt lat="42.042953" lon="2.256054">
        <ele>495.211</ele>
        <time>2018-01-09T13:14:15Z</time>
      </trkpt>
      <trkpt lat="42.042906" lon="2.256041">
        <ele>494.445</ele>
        <time>2018-01-09T13:14:19Z</time>
      </trkpt>
      <trkpt lat="42.042860" lon="2.256029">
        <ele>491.249</ele>
        <time>2018-01-09T13:14:23Z</time>
      </trkpt>
      <trkpt lat="42.042820" lon="2.255992">
        <ele>491.302</ele>
        <time>2018-01-09T13:14:27Z</time>
      </trkpt>
      <trkpt lat="42.042783" lon="2.255948">
        <ele>490.322</ele>
        <time>2018-01-09T13:14:32Z</time>
      </trkpt>
      <trkpt lat="42.042746" lon="2.255889">
        <ele>489.208</ele>
        <time>2018-01-09T13:14:36Z</time>
      </trkpt>
      <trkpt lat="42.042715" lon="2.255844">
        <ele>488.026</ele>
        <time>2018-01-09T13:14:39Z</time>
      </trkpt>
      <trkpt lat="42.042672" lon="2.255804">
        <ele>487.255</ele>
        <time>2018-01-09T13:14:43Z</time>
      </trkpt>
      <trkpt lat="42.042631" lon="2.255749">
        <ele>486.893</ele>
        <time>2018-01-09T13:14:47Z</time>
      </trkpt>
      <trkpt lat="42.042594" lon="2.255691">
        <ele>487.558</ele>
        <time>2018-01-09T13:14:51Z</time>
      </trkpt>
      <trkpt lat="42.042572" lon="2.255634">
        <ele>487.323</ele>
        <time>2018-01-09T13:14:54Z</time>
      </trkpt>
      <trkpt lat="42.042549" lon="2.255578">
        <ele>487.349</ele>
        <time>2018-01-09T13:14:57Z</time>
      </trkpt>
      <trkpt lat="42.042524" lon="2.255511">
        <ele>487.892</ele>
        <time>2018-01-09T13:15:01Z</time>
      </trkpt>
      <trkpt lat="42.042493" lon="2.255452">
        <ele>488.276</ele>
        <time>2018-01-09T13:15:28Z</time>
      </trkpt>
      <trkpt lat="42.042487" lon="2.255389">
        <ele>488.755</ele>
        <time>2018-01-09T13:15:31Z</time>
      </trkpt>
      <trkpt lat="42.042483" lon="2.255320">
        <ele>489.707</ele>
        <time>2018-01-09T13:15:35Z</time>
      </trkpt>
      <trkpt lat="42.042491" lon="2.255245">
        <ele>488.317</ele>
        <time>2018-01-09T13:15:49Z</time>
      </trkpt>
      <trkpt lat="42.042493" lon="2.255170">
        <ele>488.608</ele>
        <time>2018-01-09T13:15:53Z</time>
      </trkpt>
      <trkpt lat="42.042502" lon="2.255095">
        <ele>490.057</ele>
        <time>2018-01-09T13:15:57Z</time>
      </trkpt>
      <trkpt lat="42.042504" lon="2.255020">
        <ele>491.436</ele>
        <time>2018-01-09T13:16:01Z</time>
      </trkpt>
      <trkpt lat="42.042494" lon="2.254960">
        <ele>491.664</ele>
        <time>2018-01-09T13:16:04Z</time>
      </trkpt>
      <trkpt lat="42.042471" lon="2.254901">
        <ele>491.619</ele>
        <time>2018-01-09T13:16:07Z</time>
      </trkpt>
      <trkpt lat="42.042444" lon="2.254847">
        <ele>491.034</ele>
        <time>2018-01-09T13:16:10Z</time>
      </trkpt>
      <trkpt lat="42.042418" lon="2.254794">
        <ele>490.740</ele>
        <time>2018-01-09T13:16:13Z</time>
      </trkpt>
      <trkpt lat="42.042392" lon="2.254737">
        <ele>490.593</ele>
        <time>2018-01-09T13:16:16Z</time>
      </trkpt>
      <trkpt lat="42.042373" lon="2.254672">
        <ele>490.857</ele>
        <time>2018-01-09T13:16:19Z</time>
      </trkpt>
      <trkpt lat="42.042362" lon="2.254610">
        <ele>491.313</ele>
        <time>2018-01-09T13:16:22Z</time>
      </trkpt>
      <trkpt lat="42.042347" lon="2.254552">
        <ele>490.943</ele>
        <time>2018-01-09T13:16:25Z</time>
      </trkpt>
      <trkpt lat="42.042335" lon="2.254487">
        <ele>490.907</ele>
        <time>2018-01-09T13:16:28Z</time>
      </trkpt>
      <trkpt lat="42.042329" lon="2.254424">
        <ele>491.308</ele>
        <time>2018-01-09T13:16:31Z</time>
      </trkpt>
      <trkpt lat="42.042325" lon="2.254362">
        <ele>490.773</ele>
        <time>2018-01-09T13:16:34Z</time>
      </trkpt>
      <trkpt lat="42.042315" lon="2.254302">
        <ele>490.692</ele>
        <time>2018-01-09T13:16:37Z</time>
      </trkpt>
      <trkpt lat="42.042305" lon="2.254243">
        <ele>490.460</ele>
        <time>2018-01-09T13:16:40Z</time>
      </trkpt>
      <trkpt lat="42.042290" lon="2.254180">
        <ele>490.415</ele>
        <time>2018-01-09T13:16:43Z</time>
      </trkpt>
      <trkpt lat="42.042277" lon="2.254108">
        <ele>489.760</ele>
        <time>2018-01-09T13:16:47Z</time>
      </trkpt>
      <trkpt lat="42.042271" lon="2.254047">
        <ele>489.946</ele>
        <time>2018-01-09T13:16:50Z</time>
      </trkpt>
      <trkpt lat="42.042260" lon="2.253985">
        <ele>490.259</ele>
        <time>2018-01-09T13:16:53Z</time>
      </trkpt>
      <trkpt lat="42.042242" lon="2.253909">
        <ele>489.933</ele>
        <time>2018-01-09T13:16:57Z</time>
      </trkpt>
      <trkpt lat="42.042227" lon="2.253847">
        <ele>490.014</ele>
        <time>2018-01-09T13:17:00Z</time>
      </trkpt>
      <trkpt lat="42.042215" lon="2.253787">
        <ele>491.154</ele>
        <time>2018-01-09T13:17:03Z</time>
      </trkpt>
      <trkpt lat="42.042199" lon="2.253721">
        <ele>490.009</ele>
        <time>2018-01-09T13:17:06Z</time>
      </trkpt>
      <trkpt lat="42.042185" lon="2.253647">
        <ele>490.008</ele>
        <time>2018-01-09T13:17:09Z</time>
      </trkpt>
      <trkpt lat="42.042178" lon="2.253585">
        <ele>490.423</ele>
        <time>2018-01-09T13:17:12Z</time>
      </trkpt>
      <trkpt lat="42.042172" lon="2.253514">
        <ele>490.182</ele>
        <time>2018-01-09T13:17:16Z</time>
      </trkpt>
      <trkpt lat="42.042155" lon="2.253450">
        <ele>490.090</ele>
        <time>2018-01-09T13:17:20Z</time>
      </trkpt>
      <trkpt lat="42.042145" lon="2.253379">
        <ele>489.635</ele>
        <time>2018-01-09T13:17:24Z</time>
      </trkpt>
      <trkpt lat="42.042137" lon="2.253308">
        <ele>488.960</ele>
        <time>2018-01-09T13:17:28Z</time>
      </trkpt>
      <trkpt lat="42.042122" lon="2.253237">
        <ele>488.616</ele>
        <time>2018-01-09T13:17:32Z</time>
      </trkpt>
      <trkpt lat="42.042092" lon="2.253171">
        <ele>488.669</ele>
        <time>2018-01-09T13:17:36Z</time>
      </trkpt>
      <trkpt lat="42.042071" lon="2.253105">
        <ele>488.883</ele>
        <time>2018-01-09T13:17:40Z</time>
      </trkpt>
      <trkpt lat="42.042055" lon="2.253035">
        <ele>488.431</ele>
        <time>2018-01-09T13:17:44Z</time>
      </trkpt>
      <trkpt lat="42.042046" lon="2.252967">
        <ele>489.061</ele>
        <time>2018-01-09T13:17:48Z</time>
      </trkpt>
      <trkpt lat="42.042050" lon="2.252900">
        <ele>488.507</ele>
        <time>2018-01-09T13:17:52Z</time>
      </trkpt>
      <trkpt lat="42.042054" lon="2.252831">
        <ele>488.908</ele>
        <time>2018-01-09T13:17:56Z</time>
      </trkpt>
      <trkpt lat="42.042040" lon="2.252760">
        <ele>488.915</ele>
        <time>2018-01-09T13:18:00Z</time>
      </trkpt>
      <trkpt lat="42.042035" lon="2.252687">
        <ele>488.814</ele>
        <time>2018-01-09T13:18:04Z</time>
      </trkpt>
      <trkpt lat="42.042038" lon="2.252612">
        <ele>488.622</ele>
        <time>2018-01-09T13:18:08Z</time>
      </trkpt>
      <trkpt lat="42.042038" lon="2.252540">
        <ele>488.297</ele>
        <time>2018-01-09T13:18:12Z</time>
      </trkpt>
      <trkpt lat="42.042029" lon="2.252462">
        <ele>489.032</ele>
        <time>2018-01-09T13:18:16Z</time>
      </trkpt>
      <trkpt lat="42.042026" lon="2.252387">
        <ele>488.418</ele>
        <time>2018-01-09T13:18:20Z</time>
      </trkpt>
      <trkpt lat="42.042032" lon="2.252312">
        <ele>487.411</ele>
        <time>2018-01-09T13:18:24Z</time>
      </trkpt>
      <trkpt lat="42.042022" lon="2.252244">
        <ele>487.175</ele>
        <time>2018-01-09T13:18:28Z</time>
      </trkpt>
      <trkpt lat="42.042028" lon="2.252170">
        <ele>486.159</ele>
        <time>2018-01-09T13:18:32Z</time>
      </trkpt>
      <trkpt lat="42.042025" lon="2.252101">
        <ele>486.303</ele>
        <time>2018-01-09T13:18:36Z</time>
      </trkpt>
      <trkpt lat="42.042031" lon="2.252024">
        <ele>486.523</ele>
        <time>2018-01-09T13:18:40Z</time>
      </trkpt>
      <trkpt lat="42.042026" lon="2.251956">
        <ele>486.908</ele>
        <time>2018-01-09T13:18:44Z</time>
      </trkpt>
      <trkpt lat="42.042026" lon="2.251881">
        <ele>486.817</ele>
        <time>2018-01-09T13:18:48Z</time>
      </trkpt>
      <trkpt lat="42.042017" lon="2.251815">
        <ele>486.566</ele>
        <time>2018-01-09T13:18:52Z</time>
      </trkpt>
      <trkpt lat="42.042012" lon="2.251754">
        <ele>485.754</ele>
        <time>2018-01-09T13:18:57Z</time>
      </trkpt>
      <trkpt lat="42.042013" lon="2.251678">
        <ele>485.229</ele>
        <time>2018-01-09T13:19:01Z</time>
      </trkpt>
      <trkpt lat="42.042015" lon="2.251608">
        <ele>485.134</ele>
        <time>2018-01-09T13:19:05Z</time>
      </trkpt>
      <trkpt lat="42.042018" lon="2.251541">
        <ele>484.950</ele>
        <time>2018-01-09T13:19:09Z</time>
      </trkpt>
      <trkpt lat="42.042016" lon="2.251471">
        <ele>485.553</ele>
        <time>2018-01-09T13:19:13Z</time>
      </trkpt>
      <trkpt lat="42.042020" lon="2.251403">
        <ele>485.857</ele>
        <time>2018-01-09T13:19:17Z</time>
      </trkpt>
      <trkpt lat="42.042021" lon="2.251334">
        <ele>485.971</ele>
        <time>2018-01-09T13:19:21Z</time>
      </trkpt>
      <trkpt lat="42.042021" lon="2.251268">
        <ele>485.741</ele>
        <time>2018-01-09T13:19:25Z</time>
      </trkpt>
      <trkpt lat="42.042031" lon="2.251201">
        <ele>485.615</ele>
        <time>2018-01-09T13:19:29Z</time>
      </trkpt>
      <trkpt lat="42.042040" lon="2.251131">
        <ele>484.908</ele>
        <time>2018-01-09T13:19:33Z</time>
      </trkpt>
      <trkpt lat="42.042052" lon="2.251058">
        <ele>484.939</ele>
        <time>2018-01-09T13:19:37Z</time>
      </trkpt>
      <trkpt lat="42.042068" lon="2.251001">
        <ele>486.128</ele>
        <time>2018-01-09T13:19:40Z</time>
      </trkpt>
      <trkpt lat="42.042081" lon="2.250930">
        <ele>487.016</ele>
        <time>2018-01-09T13:19:44Z</time>
      </trkpt>
      <trkpt lat="42.042092" lon="2.250865">
        <ele>487.451</ele>
        <time>2018-01-09T13:19:48Z</time>
      </trkpt>
      <trkpt lat="42.042107" lon="2.250794">
        <ele>487.976</ele>
        <time>2018-01-09T13:19:52Z</time>
      </trkpt>
      <trkpt lat="42.042118" lon="2.250735">
        <ele>487.612</ele>
        <time>2018-01-09T13:19:56Z</time>
      </trkpt>
      <trkpt lat="42.042122" lon="2.250671">
        <ele>488.335</ele>
        <time>2018-01-09T13:20:00Z</time>
      </trkpt>
      <trkpt lat="42.042125" lon="2.250601">
        <ele>488.139</ele>
        <time>2018-01-09T13:20:04Z</time>
      </trkpt>
      <trkpt lat="42.042136" lon="2.250527">
        <ele>488.537</ele>
        <time>2018-01-09T13:20:09Z</time>
      </trkpt>
      <trkpt lat="42.042088" lon="2.250519">
        <ele>488.449</ele>
        <time>2018-01-09T13:20:14Z</time>
      </trkpt>
      <trkpt lat="42.042044" lon="2.250504">
        <ele>488.813</ele>
        <time>2018-01-09T13:20:38Z</time>
      </trkpt>
      <trkpt lat="42.042088" lon="2.250540">
        <ele>487.608</ele>
        <time>2018-01-09T13:20:44Z</time>
      </trkpt>
      <trkpt lat="42.042123" lon="2.250500">
        <ele>487.635</ele>
        <time>2018-01-09T13:20:48Z</time>
      </trkpt>
      <trkpt lat="42.042146" lon="2.250440">
        <ele>487.894</ele>
        <time>2018-01-09T13:20:51Z</time>
      </trkpt>
      <trkpt lat="42.042167" lon="2.250368">
        <ele>487.992</ele>
        <time>2018-01-09T13:20:55Z</time>
      </trkpt>
      <trkpt lat="42.042185" lon="2.250311">
        <ele>488.337</ele>
        <time>2018-01-09T13:20:58Z</time>
      </trkpt>
      <trkpt lat="42.042193" lon="2.250244">
        <ele>487.612</ele>
        <time>2018-01-09T13:21:01Z</time>
      </trkpt>
      <trkpt lat="42.042201" lon="2.250169">
        <ele>487.258</ele>
        <time>2018-01-09T13:21:05Z</time>
      </trkpt>
      <trkpt lat="42.042221" lon="2.250093">
        <ele>487.241</ele>
        <time>2018-01-09T13:21:09Z</time>
      </trkpt>
      <trkpt lat="42.042233" lon="2.250020">
        <ele>487.345</ele>
        <time>2018-01-09T13:21:13Z</time>
      </trkpt>
      <trkpt lat="42.042241" lon="2.249941">
        <ele>486.668</ele>
        <time>2018-01-09T13:21:17Z</time>
      </trkpt>
      <trkpt lat="42.042246" lon="2.249867">
        <ele>486.842</ele>
        <time>2018-01-09T13:21:21Z</time>
      </trkpt>
      <trkpt lat="42.042248" lon="2.249805">
        <ele>487.026</ele>
        <time>2018-01-09T13:21:24Z</time>
      </trkpt>
      <trkpt lat="42.042252" lon="2.249727">
        <ele>486.608</ele>
        <time>2018-01-09T13:21:28Z</time>
      </trkpt>
      <trkpt lat="42.042253" lon="2.249666">
        <ele>486.328</ele>
        <time>2018-01-09T13:21:31Z</time>
      </trkpt>
      <trkpt lat="42.042262" lon="2.249589">
        <ele>486.487</ele>
        <time>2018-01-09T13:21:35Z</time>
      </trkpt>
      <trkpt lat="42.042265" lon="2.249525">
        <ele>486.065</ele>
        <time>2018-01-09T13:21:38Z</time>
      </trkpt>
      <trkpt lat="42.042269" lon="2.249453">
        <ele>485.940</ele>
        <time>2018-01-09T13:21:41Z</time>
      </trkpt>
      <trkpt lat="42.042278" lon="2.249385">
        <ele>486.645</ele>
        <time>2018-01-09T13:21:44Z</time>
      </trkpt>
      <trkpt lat="42.042287" lon="2.249318">
        <ele>486.181</ele>
        <time>2018-01-09T13:21:47Z</time>
      </trkpt>
      <trkpt lat="42.042296" lon="2.249248">
        <ele>485.814</ele>
        <time>2018-01-09T13:21:50Z</time>
      </trkpt>
      <trkpt lat="42.042304" lon="2.249182">
        <ele>485.758</ele>
        <time>2018-01-09T13:21:53Z</time>
      </trkpt>
      <trkpt lat="42.042312" lon="2.249114">
        <ele>486.192</ele>
        <time>2018-01-09T13:21:56Z</time>
      </trkpt>
      <trkpt lat="42.042319" lon="2.249048">
        <ele>486.473</ele>
        <time>2018-01-09T13:21:59Z</time>
      </trkpt>
      <trkpt lat="42.042315" lon="2.248969">
        <ele>486.320</ele>
        <time>2018-01-09T13:22:03Z</time>
      </trkpt>
      <trkpt lat="42.042311" lon="2.248890">
        <ele>486.108</ele>
        <time>2018-01-09T13:22:07Z</time>
      </trkpt>
      <trkpt lat="42.042317" lon="2.248827">
        <ele>486.341</ele>
        <time>2018-01-09T13:22:10Z</time>
      </trkpt>
      <trkpt lat="42.042332" lon="2.248753">
        <ele>486.650</ele>
        <time>2018-01-09T13:22:14Z</time>
      </trkpt>
      <trkpt lat="42.042344" lon="2.248674">
        <ele>486.648</ele>
        <time>2018-01-09T13:22:18Z</time>
      </trkpt>
      <trkpt lat="42.042341" lon="2.248595">
        <ele>486.963</ele>
        <time>2018-01-09T13:22:22Z</time>
      </trkpt>
      <trkpt lat="42.042338" lon="2.248519">
        <ele>487.058</ele>
        <time>2018-01-09T13:22:26Z</time>
      </trkpt>
      <trkpt lat="42.042340" lon="2.248445">
        <ele>486.434</ele>
        <time>2018-01-09T13:22:30Z</time>
      </trkpt>
      <trkpt lat="42.042337" lon="2.248384">
        <ele>486.437</ele>
        <time>2018-01-09T13:22:33Z</time>
      </trkpt>
      <trkpt lat="42.042339" lon="2.248310">
        <ele>486.661</ele>
        <time>2018-01-09T13:22:37Z</time>
      </trkpt>
      <trkpt lat="42.042335" lon="2.248239">
        <ele>486.848</ele>
        <time>2018-01-09T13:22:41Z</time>
      </trkpt>
      <trkpt lat="42.042342" lon="2.248162">
        <ele>487.161</ele>
        <time>2018-01-09T13:22:45Z</time>
      </trkpt>
      <trkpt lat="42.042334" lon="2.248091">
        <ele>487.417</ele>
        <time>2018-01-09T13:22:49Z</time>
      </trkpt>
      <trkpt lat="42.042327" lon="2.248018">
        <ele>486.508</ele>
        <time>2018-01-09T13:22:54Z</time>
      </trkpt>
      <trkpt lat="42.042318" lon="2.247951">
        <ele>486.726</ele>
        <time>2018-01-09T13:22:58Z</time>
      </trkpt>
      <trkpt lat="42.042311" lon="2.247888">
        <ele>487.015</ele>
        <time>2018-01-09T13:23:02Z</time>
      </trkpt>
      <trkpt lat="42.042301" lon="2.247824">
        <ele>487.043</ele>
        <time>2018-01-09T13:23:06Z</time>
      </trkpt>
      <trkpt lat="42.042296" lon="2.247757">
        <ele>487.118</ele>
        <time>2018-01-09T13:23:10Z</time>
      </trkpt>
      <trkpt lat="42.042299" lon="2.247688">
        <ele>487.353</ele>
        <time>2018-01-09T13:23:14Z</time>
      </trkpt>
      <trkpt lat="42.042301" lon="2.247618">
        <ele>487.549</ele>
        <time>2018-01-09T13:23:18Z</time>
      </trkpt>
      <trkpt lat="42.042299" lon="2.247547">
        <ele>488.092</ele>
        <time>2018-01-09T13:23:22Z</time>
      </trkpt>
      <trkpt lat="42.042303" lon="2.247486">
        <ele>488.266</ele>
        <time>2018-01-09T13:23:26Z</time>
      </trkpt>
      <trkpt lat="42.042311" lon="2.247424">
        <ele>488.497</ele>
        <time>2018-01-09T13:23:29Z</time>
      </trkpt>
      <trkpt lat="42.042326" lon="2.247364">
        <ele>488.623</ele>
        <time>2018-01-09T13:23:32Z</time>
      </trkpt>
      <trkpt lat="42.042329" lon="2.247300">
        <ele>488.525</ele>
        <time>2018-01-09T13:23:35Z</time>
      </trkpt>
      <trkpt lat="42.042322" lon="2.247233">
        <ele>488.408</ele>
        <time>2018-01-09T13:23:38Z</time>
      </trkpt>
      <trkpt lat="42.042323" lon="2.247165">
        <ele>488.241</ele>
        <time>2018-01-09T13:23:42Z</time>
      </trkpt>
      <trkpt lat="42.042332" lon="2.247097">
        <ele>488.180</ele>
        <time>2018-01-09T13:23:46Z</time>
      </trkpt>
      <trkpt lat="42.042338" lon="2.247032">
        <ele>488.298</ele>
        <time>2018-01-09T13:23:50Z</time>
      </trkpt>
      <trkpt lat="42.042350" lon="2.246963">
        <ele>488.443</ele>
        <time>2018-01-09T13:23:54Z</time>
      </trkpt>
      <trkpt lat="42.042369" lon="2.246899">
        <ele>488.378</ele>
        <time>2018-01-09T13:23:58Z</time>
      </trkpt>
      <trkpt lat="42.042385" lon="2.246830">
        <ele>487.844</ele>
        <time>2018-01-09T13:24:02Z</time>
      </trkpt>
      <trkpt lat="42.042395" lon="2.246761">
        <ele>487.327</ele>
        <time>2018-01-09T13:24:06Z</time>
      </trkpt>
      <trkpt lat="42.042411" lon="2.246701">
        <ele>487.211</ele>
        <time>2018-01-09T13:24:09Z</time>
      </trkpt>
      <trkpt lat="42.042418" lon="2.246626">
        <ele>487.125</ele>
        <time>2018-01-09T13:24:13Z</time>
      </trkpt>
      <trkpt lat="42.042419" lon="2.246559">
        <ele>487.426</ele>
        <time>2018-01-09T13:24:18Z</time>
      </trkpt>
      <trkpt lat="42.042433" lon="2.246494">
        <ele>487.508</ele>
        <time>2018-01-09T13:24:22Z</time>
      </trkpt>
      <trkpt lat="42.042458" lon="2.246428">
        <ele>487.408</ele>
        <time>2018-01-09T13:24:26Z</time>
      </trkpt>
      <trkpt lat="42.042480" lon="2.246370">
        <ele>486.644</ele>
        <time>2018-01-09T13:24:30Z</time>
      </trkpt>
      <trkpt lat="42.042490" lon="2.246310">
        <ele>486.563</ele>
        <time>2018-01-09T13:24:34Z</time>
      </trkpt>
      <trkpt lat="42.042497" lon="2.246245">
        <ele>486.431</ele>
        <time>2018-01-09T13:24:38Z</time>
      </trkpt>
      <trkpt lat="42.042508" lon="2.246184">
        <ele>486.366</ele>
        <time>2018-01-09T13:24:42Z</time>
      </trkpt>
      <trkpt lat="42.042519" lon="2.246117">
        <ele>486.181</ele>
        <time>2018-01-09T13:24:46Z</time>
      </trkpt>
      <trkpt lat="42.042531" lon="2.246045">
        <ele>485.677</ele>
        <time>2018-01-09T13:24:50Z</time>
      </trkpt>
      <trkpt lat="42.042555" lon="2.245974">
        <ele>484.750</ele>
        <time>2018-01-09T13:24:54Z</time>
      </trkpt>
      <trkpt lat="42.042572" lon="2.245907">
        <ele>484.914</ele>
        <time>2018-01-09T13:24:58Z</time>
      </trkpt>
      <trkpt lat="42.042588" lon="2.245839">
        <ele>485.495</ele>
        <time>2018-01-09T13:25:02Z</time>
      </trkpt>
      <trkpt lat="42.042609" lon="2.245771">
        <ele>485.249</ele>
        <time>2018-01-09T13:25:06Z</time>
      </trkpt>
      <trkpt lat="42.042621" lon="2.245712">
        <ele>484.823</ele>
        <time>2018-01-09T13:25:09Z</time>
      </trkpt>
      <trkpt lat="42.042624" lon="2.245637">
        <ele>484.508</ele>
        <time>2018-01-09T13:25:13Z</time>
      </trkpt>
      <trkpt lat="42.042625" lon="2.245571">
        <ele>484.731</ele>
        <time>2018-01-09T13:25:17Z</time>
      </trkpt>
      <trkpt lat="42.042618" lon="2.245509">
        <ele>484.750</ele>
        <time>2018-01-09T13:25:21Z</time>
      </trkpt>
      <trkpt lat="42.042616" lon="2.245437">
        <ele>484.528</ele>
        <time>2018-01-09T13:25:25Z</time>
      </trkpt>
      <trkpt lat="42.042619" lon="2.245367">
        <ele>484.483</ele>
        <time>2018-01-09T13:25:29Z</time>
      </trkpt>
      <trkpt lat="42.042627" lon="2.245296">
        <ele>484.878</ele>
        <time>2018-01-09T13:25:33Z</time>
      </trkpt>
      <trkpt lat="42.042643" lon="2.245228">
        <ele>484.374</ele>
        <time>2018-01-09T13:25:37Z</time>
      </trkpt>
      <trkpt lat="42.042656" lon="2.245168">
        <ele>483.927</ele>
        <time>2018-01-09T13:25:41Z</time>
      </trkpt>
      <trkpt lat="42.042662" lon="2.245104">
        <ele>483.441</ele>
        <time>2018-01-09T13:25:45Z</time>
      </trkpt>
      <trkpt lat="42.042678" lon="2.245045">
        <ele>483.463</ele>
        <time>2018-01-09T13:25:49Z</time>
      </trkpt>
      <trkpt lat="42.042696" lon="2.244983">
        <ele>483.144</ele>
        <time>2018-01-09T13:25:53Z</time>
      </trkpt>
      <trkpt lat="42.042707" lon="2.244919">
        <ele>482.518</ele>
        <time>2018-01-09T13:25:57Z</time>
      </trkpt>
      <trkpt lat="42.042712" lon="2.244842">
        <ele>483.008</ele>
        <time>2018-01-09T13:26:01Z</time>
      </trkpt>
      <trkpt lat="42.042720" lon="2.244766">
        <ele>483.438</ele>
        <time>2018-01-09T13:26:05Z</time>
      </trkpt>
      <trkpt lat="42.042745" lon="2.244713">
        <ele>483.597</ele>
        <time>2018-01-09T13:26:08Z</time>
      </trkpt>
      <trkpt lat="42.042773" lon="2.244646">
        <ele>483.475</ele>
        <time>2018-01-09T13:26:12Z</time>
      </trkpt>
      <trkpt lat="42.042793" lon="2.244580">
        <ele>483.580</ele>
        <time>2018-01-09T13:26:16Z</time>
      </trkpt>
      <trkpt lat="42.042807" lon="2.244514">
        <ele>483.515</ele>
        <time>2018-01-09T13:26:20Z</time>
      </trkpt>
      <trkpt lat="42.042817" lon="2.244443">
        <ele>483.551</ele>
        <time>2018-01-09T13:26:24Z</time>
      </trkpt>
      <trkpt lat="42.042823" lon="2.244375">
        <ele>483.654</ele>
        <time>2018-01-09T13:26:28Z</time>
      </trkpt>
      <trkpt lat="42.042835" lon="2.244307">
        <ele>483.178</ele>
        <time>2018-01-09T13:26:32Z</time>
      </trkpt>
      <trkpt lat="42.042831" lon="2.244236">
        <ele>483.347</ele>
        <time>2018-01-09T13:26:36Z</time>
      </trkpt>
      <trkpt lat="42.042833" lon="2.244174">
        <ele>483.229</ele>
        <time>2018-01-09T13:26:40Z</time>
      </trkpt>
      <trkpt lat="42.042845" lon="2.244111">
        <ele>483.221</ele>
        <time>2018-01-09T13:26:44Z</time>
      </trkpt>
      <trkpt lat="42.042861" lon="2.244050">
        <ele>482.608</ele>
        <time>2018-01-09T13:26:48Z</time>
      </trkpt>
      <trkpt lat="42.042868" lon="2.243976">
        <ele>482.116</ele>
        <time>2018-01-09T13:26:52Z</time>
      </trkpt>
      <trkpt lat="42.042874" lon="2.243908">
        <ele>482.315</ele>
        <time>2018-01-09T13:26:56Z</time>
      </trkpt>
      <trkpt lat="42.042894" lon="2.243840">
        <ele>482.553</ele>
        <time>2018-01-09T13:27:00Z</time>
      </trkpt>
      <trkpt lat="42.042941" lon="2.243792">
        <ele>482.548</ele>
        <time>2018-01-09T13:27:04Z</time>
      </trkpt>
      <trkpt lat="42.042982" lon="2.243736">
        <ele>483.043</ele>
        <time>2018-01-09T13:27:09Z</time>
      </trkpt>
      <trkpt lat="42.043011" lon="2.243685">
        <ele>483.219</ele>
        <time>2018-01-09T13:27:13Z</time>
      </trkpt>
      <trkpt lat="42.043060" lon="2.243643">
        <ele>483.562</ele>
        <time>2018-01-09T13:27:19Z</time>
      </trkpt>
      <trkpt lat="42.043103" lon="2.243613">
        <ele>483.636</ele>
        <time>2018-01-09T13:27:23Z</time>
      </trkpt>
      <trkpt lat="42.043157" lon="2.243588">
        <ele>483.625</ele>
        <time>2018-01-09T13:27:27Z</time>
      </trkpt>
      <trkpt lat="42.043207" lon="2.243575">
        <ele>484.026</ele>
        <time>2018-01-09T13:27:30Z</time>
      </trkpt>
      <trkpt lat="42.043260" lon="2.243575">
        <ele>483.808</ele>
        <time>2018-01-09T13:27:34Z</time>
      </trkpt>
      <trkpt lat="42.043306" lon="2.243565">
        <ele>483.908</ele>
        <time>2018-01-09T13:27:38Z</time>
      </trkpt>
      <trkpt lat="42.043354" lon="2.243545">
        <ele>484.014</ele>
        <time>2018-01-09T13:27:42Z</time>
      </trkpt>
      <trkpt lat="42.043402" lon="2.243520">
        <ele>483.893</ele>
        <time>2018-01-09T13:27:46Z</time>
      </trkpt>
      <trkpt lat="42.043456" lon="2.243511">
        <ele>484.271</ele>
        <time>2018-01-09T13:27:50Z</time>
      </trkpt>
      <trkpt lat="42.043509" lon="2.243502">
        <ele>484.496</ele>
        <time>2018-01-09T13:27:54Z</time>
      </trkpt>
      <trkpt lat="42.043560" lon="2.243494">
        <ele>484.961</ele>
        <time>2018-01-09T13:27:58Z</time>
      </trkpt>
      <trkpt lat="42.043609" lon="2.243483">
        <ele>485.427</ele>
        <time>2018-01-09T13:28:02Z</time>
      </trkpt>
      <trkpt lat="42.043655" lon="2.243490">
        <ele>485.850</ele>
        <time>2018-01-09T13:28:06Z</time>
      </trkpt>
      <trkpt lat="42.043701" lon="2.243501">
        <ele>486.274</ele>
        <time>2018-01-09T13:28:10Z</time>
      </trkpt>
      <trkpt lat="42.043746" lon="2.243494">
        <ele>486.179</ele>
        <time>2018-01-09T13:28:13Z</time>
      </trkpt>
      <trkpt lat="42.043789" lon="2.243476">
        <ele>486.005</ele>
        <time>2018-01-09T13:28:16Z</time>
      </trkpt>
      <trkpt lat="42.043824" lon="2.243425">
        <ele>486.225</ele>
        <time>2018-01-09T13:28:21Z</time>
      </trkpt>
      <trkpt lat="42.043863" lon="2.243378">
        <ele>486.308</ele>
        <time>2018-01-09T13:28:25Z</time>
      </trkpt>
      <trkpt lat="42.043895" lon="2.243322">
        <ele>486.139</ele>
        <time>2018-01-09T13:28:29Z</time>
      </trkpt>
      <trkpt lat="42.043931" lon="2.243263">
        <ele>486.398</ele>
        <time>2018-01-09T13:28:33Z</time>
      </trkpt>
      <trkpt lat="42.043951" lon="2.243205">
        <ele>486.216</ele>
        <time>2018-01-09T13:28:37Z</time>
      </trkpt>
      <trkpt lat="42.043975" lon="2.243152">
        <ele>486.231</ele>
        <time>2018-01-09T13:28:41Z</time>
      </trkpt>
      <trkpt lat="42.043950" lon="2.243098">
        <ele>486.236</ele>
        <time>2018-01-09T13:28:56Z</time>
      </trkpt>
      <trkpt lat="42.043942" lon="2.243029">
        <ele>484.892</ele>
        <time>2018-01-09T13:29:04Z</time>
      </trkpt>
      <trkpt lat="42.043930" lon="2.242956">
        <ele>484.855</ele>
        <time>2018-01-09T13:29:10Z</time>
      </trkpt>
      <trkpt lat="42.043937" lon="2.242895">
        <ele>485.449</ele>
        <time>2018-01-09T13:29:15Z</time>
      </trkpt>
      <trkpt lat="42.043943" lon="2.242828">
        <ele>485.727</ele>
        <time>2018-01-09T13:29:19Z</time>
      </trkpt>
      <trkpt lat="42.043953" lon="2.242751">
        <ele>486.468</ele>
        <time>2018-01-09T13:29:29Z</time>
      </trkpt>
      <trkpt lat="42.043949" lon="2.242680">
        <ele>485.914</ele>
        <time>2018-01-09T13:29:34Z</time>
      </trkpt>
      <trkpt lat="42.043951" lon="2.242610">
        <ele>485.608</ele>
        <time>2018-01-09T13:29:38Z</time>
      </trkpt>
      <trkpt lat="42.043976" lon="2.242556">
        <ele>486.544</ele>
        <time>2018-01-09T13:29:42Z</time>
      </trkpt>
      <trkpt lat="42.043998" lon="2.242492">
        <ele>486.773</ele>
        <time>2018-01-09T13:29:46Z</time>
      </trkpt>
      <trkpt lat="42.044016" lon="2.242429">
        <ele>486.851</ele>
        <time>2018-01-09T13:29:50Z</time>
      </trkpt>
      <trkpt lat="42.044030" lon="2.242371">
        <ele>486.916</ele>
        <time>2018-01-09T13:29:53Z</time>
      </trkpt>
      <trkpt lat="42.044051" lon="2.242310">
        <ele>486.351</ele>
        <time>2018-01-09T13:29:57Z</time>
      </trkpt>
      <trkpt lat="42.044061" lon="2.242237">
        <ele>486.237</ele>
        <time>2018-01-09T13:30:02Z</time>
      </trkpt>
      <trkpt lat="42.044086" lon="2.242174">
        <ele>486.360</ele>
        <time>2018-01-09T13:30:06Z</time>
      </trkpt>
      <trkpt lat="42.044113" lon="2.242116">
        <ele>486.554</ele>
        <time>2018-01-09T13:30:09Z</time>
      </trkpt>
      <trkpt lat="42.044154" lon="2.242066">
        <ele>486.356</ele>
        <time>2018-01-09T13:30:12Z</time>
      </trkpt>
      <trkpt lat="42.044154" lon="2.241994">
        <ele>486.259</ele>
        <time>2018-01-09T13:30:16Z</time>
      </trkpt>
      <trkpt lat="42.044169" lon="2.241933">
        <ele>485.614</ele>
        <time>2018-01-09T13:30:19Z</time>
      </trkpt>
      <trkpt lat="42.044185" lon="2.241875">
        <ele>486.308</ele>
        <time>2018-01-09T13:30:23Z</time>
      </trkpt>
      <trkpt lat="42.044203" lon="2.241809">
        <ele>485.767</ele>
        <time>2018-01-09T13:30:27Z</time>
      </trkpt>
      <trkpt lat="42.044220" lon="2.241736">
        <ele>484.746</ele>
        <time>2018-01-09T13:30:31Z</time>
      </trkpt>
      <trkpt lat="42.044239" lon="2.241666">
        <ele>485.234</ele>
        <time>2018-01-09T13:30:35Z</time>
      </trkpt>
      <trkpt lat="42.044258" lon="2.241609">
        <ele>484.769</ele>
        <time>2018-01-09T13:30:38Z</time>
      </trkpt>
      <trkpt lat="42.044272" lon="2.241541">
        <ele>484.754</ele>
        <time>2018-01-09T13:30:42Z</time>
      </trkpt>
      <trkpt lat="42.044268" lon="2.241466">
        <ele>484.960</ele>
        <time>2018-01-09T13:30:46Z</time>
      </trkpt>
      <trkpt lat="42.044266" lon="2.241399">
        <ele>485.223</ele>
        <time>2018-01-09T13:30:51Z</time>
      </trkpt>
      <trkpt lat="42.044273" lon="2.241327">
        <ele>485.487</ele>
        <time>2018-01-09T13:30:56Z</time>
      </trkpt>
      <trkpt lat="42.044312" lon="2.241276">
        <ele>485.791</ele>
        <time>2018-01-09T13:31:01Z</time>
      </trkpt>
      <trkpt lat="42.044353" lon="2.241232">
        <ele>486.281</ele>
        <time>2018-01-09T13:31:05Z</time>
      </trkpt>
      <trkpt lat="42.044403" lon="2.241185">
        <ele>486.819</ele>
        <time>2018-01-09T13:31:09Z</time>
      </trkpt>
      <trkpt lat="42.044434" lon="2.241136">
        <ele>487.208</ele>
        <time>2018-01-09T13:31:13Z</time>
      </trkpt>
      <trkpt lat="42.044467" lon="2.241078">
        <ele>487.521</ele>
        <time>2018-01-09T13:31:17Z</time>
      </trkpt>
      <trkpt lat="42.044506" lon="2.241038">
        <ele>488.210</ele>
        <time>2018-01-09T13:31:20Z</time>
      </trkpt>
      <trkpt lat="42.044520" lon="2.240970">
        <ele>488.618</ele>
        <time>2018-01-09T13:31:25Z</time>
      </trkpt>
      <trkpt lat="42.044565" lon="2.240936">
        <ele>489.153</ele>
        <time>2018-01-09T13:31:29Z</time>
      </trkpt>
      <trkpt lat="42.044599" lon="2.240885">
        <ele>489.488</ele>
        <time>2018-01-09T13:31:33Z</time>
      </trkpt>
      <trkpt lat="42.044638" lon="2.240839">
        <ele>489.364</ele>
        <time>2018-01-09T13:31:38Z</time>
      </trkpt>
      <trkpt lat="42.044685" lon="2.240807">
        <ele>488.817</ele>
        <time>2018-01-09T13:31:42Z</time>
      </trkpt>
      <trkpt lat="42.044725" lon="2.240768">
        <ele>488.161</ele>
        <time>2018-01-09T13:31:45Z</time>
      </trkpt>
      <trkpt lat="42.044752" lon="2.240712">
        <ele>487.242</ele>
        <time>2018-01-09T13:31:50Z</time>
      </trkpt>
      <trkpt lat="42.044792" lon="2.240656">
        <ele>486.622</ele>
        <time>2018-01-09T13:31:54Z</time>
      </trkpt>
      <trkpt lat="42.044831" lon="2.240604">
        <ele>486.114</ele>
        <time>2018-01-09T13:31:58Z</time>
      </trkpt>
      <trkpt lat="42.044880" lon="2.240580">
        <ele>486.908</ele>
        <time>2018-01-09T13:32:02Z</time>
      </trkpt>
      <trkpt lat="42.044919" lon="2.240544">
        <ele>487.776</ele>
        <time>2018-01-09T13:32:06Z</time>
      </trkpt>
      <trkpt lat="42.044973" lon="2.240512">
        <ele>486.965</ele>
        <time>2018-01-09T13:32:10Z</time>
      </trkpt>
      <trkpt lat="42.045017" lon="2.240486">
        <ele>487.363</ele>
        <time>2018-01-09T13:32:13Z</time>
      </trkpt>
      <trkpt lat="42.045065" lon="2.240454">
        <ele>486.248</ele>
        <time>2018-01-09T13:32:17Z</time>
      </trkpt>
      <trkpt lat="42.045109" lon="2.240409">
        <ele>486.583</ele>
        <time>2018-01-09T13:32:21Z</time>
      </trkpt>
      <trkpt lat="42.045150" lon="2.240372">
        <ele>486.489</ele>
        <time>2018-01-09T13:32:24Z</time>
      </trkpt>
      <trkpt lat="42.045175" lon="2.240316">
        <ele>486.522</ele>
        <time>2018-01-09T13:32:28Z</time>
      </trkpt>
      <trkpt lat="42.045199" lon="2.240256">
        <ele>486.246</ele>
        <time>2018-01-09T13:32:32Z</time>
      </trkpt>
      <trkpt lat="42.045250" lon="2.240210">
        <ele>486.646</ele>
        <time>2018-01-09T13:32:36Z</time>
      </trkpt>
      <trkpt lat="42.045294" lon="2.240182">
        <ele>487.488</ele>
        <time>2018-01-09T13:32:39Z</time>
      </trkpt>
      <trkpt lat="42.045338" lon="2.240149">
        <ele>487.916</ele>
        <time>2018-01-09T13:32:42Z</time>
      </trkpt>
      <trkpt lat="42.045374" lon="2.240094">
        <ele>487.508</ele>
        <time>2018-01-09T13:32:46Z</time>
      </trkpt>
      <trkpt lat="42.045417" lon="2.240059">
        <ele>486.996</ele>
        <time>2018-01-09T13:32:50Z</time>
      </trkpt>
      <trkpt lat="42.045469" lon="2.240029">
        <ele>486.985</ele>
        <time>2018-01-09T13:32:54Z</time>
      </trkpt>
      <trkpt lat="42.045506" lon="2.239984">
        <ele>487.053</ele>
        <time>2018-01-09T13:32:58Z</time>
      </trkpt>
      <trkpt lat="42.045542" lon="2.239939">
        <ele>486.848</ele>
        <time>2018-01-09T13:33:03Z</time>
      </trkpt>
      <trkpt lat="42.045586" lon="2.239923">
        <ele>486.963</ele>
        <time>2018-01-09T13:33:06Z</time>
      </trkpt>
      <trkpt lat="42.045621" lon="2.239882">
        <ele>486.349</ele>
        <time>2018-01-09T13:33:10Z</time>
      </trkpt>
      <trkpt lat="42.045670" lon="2.239841">
        <ele>486.082</ele>
        <time>2018-01-09T13:33:14Z</time>
      </trkpt>
      <trkpt lat="42.045714" lon="2.239790">
        <ele>487.676</ele>
        <time>2018-01-09T13:33:18Z</time>
      </trkpt>
      <trkpt lat="42.045748" lon="2.239739">
        <ele>486.938</ele>
        <time>2018-01-09T13:33:21Z</time>
      </trkpt>
      <trkpt lat="42.045786" lon="2.239707">
        <ele>485.870</ele>
        <time>2018-01-09T13:33:24Z</time>
      </trkpt>
      <trkpt lat="42.045826" lon="2.239670">
        <ele>486.117</ele>
        <time>2018-01-09T13:33:27Z</time>
      </trkpt>
      <trkpt lat="42.045858" lon="2.239612">
        <ele>485.808</ele>
        <time>2018-01-09T13:33:31Z</time>
      </trkpt>
      <trkpt lat="42.045894" lon="2.239553">
        <ele>485.255</ele>
        <time>2018-01-09T13:33:35Z</time>
      </trkpt>
      <trkpt lat="42.045929" lon="2.239511">
        <ele>485.674</ele>
        <time>2018-01-09T13:33:39Z</time>
      </trkpt>
      <trkpt lat="42.045969" lon="2.239483">
        <ele>485.562</ele>
        <time>2018-01-09T13:33:42Z</time>
      </trkpt>
      <trkpt lat="42.046013" lon="2.239449">
        <ele>486.667</ele>
        <time>2018-01-09T13:33:46Z</time>
      </trkpt>
      <trkpt lat="42.046051" lon="2.239404">
        <ele>486.282</ele>
        <time>2018-01-09T13:33:50Z</time>
      </trkpt>
      <trkpt lat="42.046087" lon="2.239363">
        <ele>486.348</ele>
        <time>2018-01-09T13:33:54Z</time>
      </trkpt>
      <trkpt lat="42.046126" lon="2.239318">
        <ele>487.641</ele>
        <time>2018-01-09T13:33:58Z</time>
      </trkpt>
      <trkpt lat="42.046167" lon="2.239259">
        <ele>488.795</ele>
        <time>2018-01-09T13:34:02Z</time>
      </trkpt>
      <trkpt lat="42.046192" lon="2.239189">
        <ele>489.127</ele>
        <time>2018-01-09T13:34:07Z</time>
      </trkpt>
      <trkpt lat="42.046226" lon="2.239139">
        <ele>489.268</ele>
        <time>2018-01-09T13:34:10Z</time>
      </trkpt>
      <trkpt lat="42.046264" lon="2.239092">
        <ele>489.114</ele>
        <time>2018-01-09T13:34:13Z</time>
      </trkpt>
      <trkpt lat="42.046303" lon="2.239035">
        <ele>489.708</ele>
        <time>2018-01-09T13:34:17Z</time>
      </trkpt>
      <trkpt lat="42.046341" lon="2.238979">
        <ele>489.834</ele>
        <time>2018-01-09T13:34:21Z</time>
      </trkpt>
      <trkpt lat="42.046373" lon="2.238936">
        <ele>489.893</ele>
        <time>2018-01-09T13:34:24Z</time>
      </trkpt>
      <trkpt lat="42.046410" lon="2.238888">
        <ele>489.791</ele>
        <time>2018-01-09T13:34:27Z</time>
      </trkpt>
      <trkpt lat="42.046391" lon="2.238824">
        <ele>489.246</ele>
        <time>2018-01-09T13:34:31Z</time>
      </trkpt>
      <trkpt lat="42.046399" lon="2.238761">
        <ele>487.381</ele>
        <time>2018-01-09T13:34:36Z</time>
      </trkpt>
      <trkpt lat="42.046434" lon="2.238717">
        <ele>487.267</ele>
        <time>2018-01-09T13:34:39Z</time>
      </trkpt>
      <trkpt lat="42.046473" lon="2.238674">
        <ele>487.870</ele>
        <time>2018-01-09T13:34:43Z</time>
      </trkpt>
      <trkpt lat="42.046507" lon="2.238634">
        <ele>488.094</ele>
        <time>2018-01-09T13:34:46Z</time>
      </trkpt>
      <trkpt lat="42.046544" lon="2.238586">
        <ele>488.323</ele>
        <time>2018-01-09T13:34:50Z</time>
      </trkpt>
      <trkpt lat="42.046570" lon="2.238536">
        <ele>489.283</ele>
        <time>2018-01-09T13:34:53Z</time>
      </trkpt>
      <trkpt lat="42.046601" lon="2.238475">
        <ele>489.111</ele>
        <time>2018-01-09T13:34:57Z</time>
      </trkpt>
      <trkpt lat="42.046649" lon="2.238430">
        <ele>489.308</ele>
        <time>2018-01-09T13:35:01Z</time>
      </trkpt>
      <trkpt lat="42.046689" lon="2.238372">
        <ele>489.294</ele>
        <time>2018-01-09T13:35:05Z</time>
      </trkpt>
      <trkpt lat="42.046731" lon="2.238317">
        <ele>489.553</ele>
        <time>2018-01-09T13:35:09Z</time>
      </trkpt>
      <trkpt lat="42.046754" lon="2.238261">
        <ele>489.311</ele>
        <time>2018-01-09T13:35:13Z</time>
      </trkpt>
      <trkpt lat="42.046774" lon="2.238197">
        <ele>488.216</ele>
        <time>2018-01-09T13:35:19Z</time>
      </trkpt>
      <trkpt lat="42.046786" lon="2.238134">
        <ele>488.871</ele>
        <time>2018-01-09T13:35:27Z</time>
      </trkpt>
      <trkpt lat="42.046803" lon="2.238067">
        <ele>488.387</ele>
        <time>2018-01-09T13:35:32Z</time>
      </trkpt>
      <trkpt lat="42.046823" lon="2.238008">
        <ele>488.550</ele>
        <time>2018-01-09T13:35:36Z</time>
      </trkpt>
      <trkpt lat="42.046814" lon="2.237948">
        <ele>487.524</ele>
        <time>2018-01-09T13:36:01Z</time>
      </trkpt>
      <trkpt lat="42.046774" lon="2.237915">
        <ele>487.087</ele>
        <time>2018-01-09T13:36:07Z</time>
      </trkpt>
      <trkpt lat="42.046726" lon="2.237896">
        <ele>485.542</ele>
        <time>2018-01-09T13:36:11Z</time>
      </trkpt>
      <trkpt lat="42.046679" lon="2.237879">
        <ele>485.026</ele>
        <time>2018-01-09T13:36:15Z</time>
      </trkpt>
      <trkpt lat="42.046630" lon="2.237841">
        <ele>484.308</ele>
        <time>2018-01-09T13:36:27Z</time>
      </trkpt>
      <trkpt lat="42.046580" lon="2.237840">
        <ele>483.380</ele>
        <time>2018-01-09T13:36:36Z</time>
      </trkpt>
      <trkpt lat="42.046534" lon="2.237810">
        <ele>482.519</ele>
        <time>2018-01-09T13:36:41Z</time>
      </trkpt>
      <trkpt lat="42.046487" lon="2.237786">
        <ele>481.997</ele>
        <time>2018-01-09T13:36:45Z</time>
      </trkpt>
      <trkpt lat="42.046439" lon="2.237765">
        <ele>482.372</ele>
        <time>2018-01-09T13:36:49Z</time>
      </trkpt>
      <trkpt lat="42.046390" lon="2.237734">
        <ele>483.647</ele>
        <time>2018-01-09T13:36:54Z</time>
      </trkpt>
      <trkpt lat="42.046343" lon="2.237718">
        <ele>484.073</ele>
        <time>2018-01-09T13:36:57Z</time>
      </trkpt>
      <trkpt lat="42.046287" lon="2.237698">
        <ele>483.956</ele>
        <time>2018-01-09T13:37:01Z</time>
      </trkpt>
      <trkpt lat="42.046231" lon="2.237691">
        <ele>482.990</ele>
        <time>2018-01-09T13:37:05Z</time>
      </trkpt>
      <trkpt lat="42.046176" lon="2.237686">
        <ele>481.974</ele>
        <time>2018-01-09T13:37:09Z</time>
      </trkpt>
      <trkpt lat="42.046130" lon="2.237678">
        <ele>480.456</ele>
        <time>2018-01-09T13:37:14Z</time>
      </trkpt>
      <trkpt lat="42.046085" lon="2.237696">
        <ele>480.021</ele>
        <time>2018-01-09T13:37:25Z</time>
      </trkpt>
      <trkpt lat="42.046033" lon="2.237691">
        <ele>479.508</ele>
        <time>2018-01-09T13:37:31Z</time>
      </trkpt>
      <trkpt lat="42.045984" lon="2.237688">
        <ele>479.229</ele>
        <time>2018-01-09T13:37:35Z</time>
      </trkpt>
      <trkpt lat="42.045934" lon="2.237692">
        <ele>479.478</ele>
        <time>2018-01-09T13:37:39Z</time>
      </trkpt>
      <trkpt lat="42.045881" lon="2.237681">
        <ele>480.586</ele>
        <time>2018-01-09T13:37:43Z</time>
      </trkpt>
      <trkpt lat="42.045834" lon="2.237671">
        <ele>480.911</ele>
        <time>2018-01-09T13:37:47Z</time>
      </trkpt>
      <trkpt lat="42.045778" lon="2.237658">
        <ele>480.916</ele>
        <time>2018-01-09T13:37:51Z</time>
      </trkpt>
      <trkpt lat="42.045725" lon="2.237635">
        <ele>481.462</ele>
        <time>2018-01-09T13:37:55Z</time>
      </trkpt>
      <trkpt lat="42.045669" lon="2.237613">
        <ele>481.485</ele>
        <time>2018-01-09T13:37:59Z</time>
      </trkpt>
      <trkpt lat="42.045615" lon="2.237595">
        <ele>480.599</ele>
        <time>2018-01-09T13:38:03Z</time>
      </trkpt>
      <trkpt lat="42.045564" lon="2.237566">
        <ele>481.186</ele>
        <time>2018-01-09T13:38:07Z</time>
      </trkpt>
      <trkpt lat="42.045514" lon="2.237563">
        <ele>482.260</ele>
        <time>2018-01-09T13:38:11Z</time>
      </trkpt>
      <trkpt lat="42.045462" lon="2.237584">
        <ele>482.126</ele>
        <time>2018-01-09T13:38:15Z</time>
      </trkpt>
      <trkpt lat="42.045416" lon="2.237619">
        <ele>484.608</ele>
        <time>2018-01-09T13:38:21Z</time>
      </trkpt>
      <trkpt lat="42.045377" lon="2.237674">
        <ele>484.730</ele>
        <time>2018-01-09T13:38:27Z</time>
      </trkpt>
      <trkpt lat="42.045348" lon="2.237728">
        <ele>484.679</ele>
        <time>2018-01-09T13:38:31Z</time>
      </trkpt>
      <trkpt lat="42.045313" lon="2.237780">
        <ele>484.977</ele>
        <time>2018-01-09T13:38:34Z</time>
      </trkpt>
      <trkpt lat="42.045280" lon="2.237823">
        <ele>485.122</ele>
        <time>2018-01-09T13:38:37Z</time>
      </trkpt>
      <trkpt lat="42.045248" lon="2.237886">
        <ele>485.287</ele>
        <time>2018-01-09T13:38:41Z</time>
      </trkpt>
      <trkpt lat="42.045224" lon="2.237943">
        <ele>485.483</ele>
        <time>2018-01-09T13:38:45Z</time>
      </trkpt>
      <trkpt lat="42.045195" lon="2.238000">
        <ele>485.926</ele>
        <time>2018-01-09T13:38:49Z</time>
      </trkpt>
      <trkpt lat="42.045164" lon="2.238048">
        <ele>486.260</ele>
        <time>2018-01-09T13:38:53Z</time>
      </trkpt>
      <trkpt lat="42.045136" lon="2.238100">
        <ele>486.286</ele>
        <time>2018-01-09T13:38:57Z</time>
      </trkpt>
      <trkpt lat="42.045105" lon="2.238160">
        <ele>485.860</ele>
        <time>2018-01-09T13:39:01Z</time>
      </trkpt>
      <trkpt lat="42.045074" lon="2.238214">
        <ele>485.226</ele>
        <time>2018-01-09T13:39:05Z</time>
      </trkpt>
      <trkpt lat="42.045036" lon="2.238268">
        <ele>485.508</ele>
        <time>2018-01-09T13:39:09Z</time>
      </trkpt>
      <trkpt lat="42.044999" lon="2.238322">
        <ele>485.750</ele>
        <time>2018-01-09T13:39:13Z</time>
      </trkpt>
      <trkpt lat="42.044964" lon="2.238369">
        <ele>486.149</ele>
        <time>2018-01-09T13:39:17Z</time>
      </trkpt>
      <trkpt lat="42.044922" lon="2.238415">
        <ele>485.517</ele>
        <time>2018-01-09T13:39:21Z</time>
      </trkpt>
      <trkpt lat="42.044890" lon="2.238469">
        <ele>485.612</ele>
        <time>2018-01-09T13:39:25Z</time>
      </trkpt>
      <trkpt lat="42.044851" lon="2.238533">
        <ele>486.087</ele>
        <time>2018-01-09T13:39:30Z</time>
      </trkpt>
      <trkpt lat="42.044816" lon="2.238572">
        <ele>485.923</ele>
        <time>2018-01-09T13:39:33Z</time>
      </trkpt>
      <trkpt lat="42.044779" lon="2.238619">
        <ele>485.966</ele>
        <time>2018-01-09T13:39:37Z</time>
      </trkpt>
      <trkpt lat="42.044745" lon="2.238665">
        <ele>486.550</ele>
        <time>2018-01-09T13:39:40Z</time>
      </trkpt>
      <trkpt lat="42.044698" lon="2.238705">
        <ele>486.315</ele>
        <time>2018-01-09T13:39:44Z</time>
      </trkpt>
      <trkpt lat="42.044651" lon="2.238753">
        <ele>486.565</ele>
        <time>2018-01-09T13:39:48Z</time>
      </trkpt>
      <trkpt lat="42.044614" lon="2.238803">
        <ele>486.511</ele>
        <time>2018-01-09T13:39:53Z</time>
      </trkpt>
      <trkpt lat="42.044576" lon="2.238837">
        <ele>486.708</ele>
        <time>2018-01-09T13:39:57Z</time>
      </trkpt>
      <trkpt lat="42.044543" lon="2.238886">
        <ele>486.893</ele>
        <time>2018-01-09T13:40:02Z</time>
      </trkpt>
      <trkpt lat="42.044492" lon="2.238917">
        <ele>487.942</ele>
        <time>2018-01-09T13:40:09Z</time>
      </trkpt>
      <trkpt lat="42.044441" lon="2.238932">
        <ele>488.320</ele>
        <time>2018-01-09T13:40:13Z</time>
      </trkpt>
      <trkpt lat="42.044400" lon="2.238905">
        <ele>488.435</ele>
        <time>2018-01-09T13:40:19Z</time>
      </trkpt>
      <trkpt lat="42.044355" lon="2.238886">
        <ele>488.450</ele>
        <time>2018-01-09T13:40:23Z</time>
      </trkpt>
      <trkpt lat="42.044304" lon="2.238860">
        <ele>488.396</ele>
        <time>2018-01-09T13:40:27Z</time>
      </trkpt>
      <trkpt lat="42.044246" lon="2.238855">
        <ele>488.889</ele>
        <time>2018-01-09T13:40:31Z</time>
      </trkpt>
      <trkpt lat="42.044193" lon="2.238845">
        <ele>489.373</ele>
        <time>2018-01-09T13:40:35Z</time>
      </trkpt>
      <trkpt lat="42.044142" lon="2.238819">
        <ele>489.233</ele>
        <time>2018-01-09T13:40:39Z</time>
      </trkpt>
      <trkpt lat="42.044094" lon="2.238802">
        <ele>489.123</ele>
        <time>2018-01-09T13:40:43Z</time>
      </trkpt>
      <trkpt lat="42.044045" lon="2.238793">
        <ele>488.715</ele>
        <time>2018-01-09T13:40:47Z</time>
      </trkpt>
      <trkpt lat="42.043991" lon="2.238768">
        <ele>488.508</ele>
        <time>2018-01-09T13:40:51Z</time>
      </trkpt>
      <trkpt lat="42.043944" lon="2.238760">
        <ele>490.245</ele>
        <time>2018-01-09T13:40:55Z</time>
      </trkpt>
      <trkpt lat="42.043895" lon="2.238744">
        <ele>490.574</ele>
        <time>2018-01-09T13:40:59Z</time>
      </trkpt>
      <trkpt lat="42.043853" lon="2.238722">
        <ele>490.262</ele>
        <time>2018-01-09T13:41:02Z</time>
      </trkpt>
      <trkpt lat="42.043808" lon="2.238705">
        <ele>490.437</ele>
        <time>2018-01-09T13:41:06Z</time>
      </trkpt>
      <trkpt lat="42.043756" lon="2.238690">
        <ele>490.282</ele>
        <time>2018-01-09T13:41:10Z</time>
      </trkpt>
      <trkpt lat="42.043706" lon="2.238697">
        <ele>489.358</ele>
        <time>2018-01-09T13:41:14Z</time>
      </trkpt>
      <trkpt lat="42.043658" lon="2.238690">
        <ele>490.041</ele>
        <time>2018-01-09T13:41:18Z</time>
      </trkpt>
      <trkpt lat="42.043609" lon="2.238686">
        <ele>490.015</ele>
        <time>2018-01-09T13:41:22Z</time>
      </trkpt>
      <trkpt lat="42.043558" lon="2.238672">
        <ele>490.145</ele>
        <time>2018-01-09T13:41:26Z</time>
      </trkpt>
      <trkpt lat="42.043511" lon="2.238658">
        <ele>489.947</ele>
        <time>2018-01-09T13:41:30Z</time>
      </trkpt>
      <trkpt lat="42.043464" lon="2.238659">
        <ele>490.111</ele>
        <time>2018-01-09T13:41:35Z</time>
      </trkpt>
      <trkpt lat="42.043412" lon="2.238648">
        <ele>489.608</ele>
        <time>2018-01-09T13:41:39Z</time>
      </trkpt>
      <trkpt lat="42.043357" lon="2.238640">
        <ele>489.276</ele>
        <time>2018-01-09T13:41:43Z</time>
      </trkpt>
      <trkpt lat="42.043300" lon="2.238638">
        <ele>488.625</ele>
        <time>2018-01-09T13:41:47Z</time>
      </trkpt>
      <trkpt lat="42.043260" lon="2.238667">
        <ele>488.173</ele>
        <time>2018-01-09T13:41:51Z</time>
      </trkpt>
      <trkpt lat="42.043221" lon="2.238702">
        <ele>488.158</ele>
        <time>2018-01-09T13:41:54Z</time>
      </trkpt>
      <trkpt lat="42.043183" lon="2.238735">
        <ele>488.133</ele>
        <time>2018-01-09T13:41:57Z</time>
      </trkpt>
      <trkpt lat="42.043134" lon="2.238780">
        <ele>488.519</ele>
        <time>2018-01-09T13:42:01Z</time>
      </trkpt>
      <trkpt lat="42.043104" lon="2.238825">
        <ele>488.392</ele>
        <time>2018-01-09T13:42:04Z</time>
      </trkpt>
      <trkpt lat="42.043059" lon="2.238874">
        <ele>488.026</ele>
        <time>2018-01-09T13:42:08Z</time>
      </trkpt>
      <trkpt lat="42.043015" lon="2.238921">
        <ele>488.271</ele>
        <time>2018-01-09T13:42:12Z</time>
      </trkpt>
      <trkpt lat="42.042980" lon="2.238970">
        <ele>488.141</ele>
        <time>2018-01-09T13:42:16Z</time>
      </trkpt>
      <trkpt lat="42.042945" lon="2.239008">
        <ele>488.315</ele>
        <time>2018-01-09T13:42:20Z</time>
      </trkpt>
      <trkpt lat="42.042906" lon="2.239063">
        <ele>488.908</ele>
        <time>2018-01-09T13:42:25Z</time>
      </trkpt>
      <trkpt lat="42.042865" lon="2.239098">
        <ele>491.239</ele>
        <time>2018-01-09T13:42:29Z</time>
      </trkpt>
      <trkpt lat="42.042820" lon="2.239136">
        <ele>491.598</ele>
        <time>2018-01-09T13:42:33Z</time>
      </trkpt>
      <trkpt lat="42.042771" lon="2.239167">
        <ele>491.636</ele>
        <time>2018-01-09T13:42:37Z</time>
      </trkpt>
      <trkpt lat="42.042728" lon="2.239205">
        <ele>491.151</ele>
        <time>2018-01-09T13:42:41Z</time>
      </trkpt>
      <trkpt lat="42.042686" lon="2.239246">
        <ele>491.486</ele>
        <time>2018-01-09T13:42:45Z</time>
      </trkpt>
      <trkpt lat="42.042653" lon="2.239289">
        <ele>491.252</ele>
        <time>2018-01-09T13:42:49Z</time>
      </trkpt>
      <trkpt lat="42.042617" lon="2.239332">
        <ele>490.695</ele>
        <time>2018-01-09T13:42:53Z</time>
      </trkpt>
      <trkpt lat="42.042582" lon="2.239385">
        <ele>490.919</ele>
        <time>2018-01-09T13:42:58Z</time>
      </trkpt>
      <trkpt lat="42.042544" lon="2.239429">
        <ele>491.381</ele>
        <time>2018-01-09T13:43:02Z</time>
      </trkpt>
      <trkpt lat="42.042515" lon="2.239476">
        <ele>491.861</ele>
        <time>2018-01-09T13:43:06Z</time>
      </trkpt>
      <trkpt lat="42.042475" lon="2.239511">
        <ele>493.017</ele>
        <time>2018-01-09T13:43:10Z</time>
      </trkpt>
      <trkpt lat="42.042431" lon="2.239543">
        <ele>493.108</ele>
        <time>2018-01-09T13:43:14Z</time>
      </trkpt>
      <trkpt lat="42.042390" lon="2.239576">
        <ele>492.960</ele>
        <time>2018-01-09T13:43:18Z</time>
      </trkpt>
      <trkpt lat="42.042347" lon="2.239617">
        <ele>493.369</ele>
        <time>2018-01-09T13:43:23Z</time>
      </trkpt>
      <trkpt lat="42.042309" lon="2.239656">
        <ele>493.637</ele>
        <time>2018-01-09T13:43:27Z</time>
      </trkpt>
      <trkpt lat="42.042268" lon="2.239687">
        <ele>493.992</ele>
        <time>2018-01-09T13:43:31Z</time>
      </trkpt>
      <trkpt lat="42.042227" lon="2.239715">
        <ele>493.337</ele>
        <time>2018-01-09T13:43:35Z</time>
      </trkpt>
      <trkpt lat="42.042190" lon="2.239753">
        <ele>493.863</ele>
        <time>2018-01-09T13:43:40Z</time>
      </trkpt>
      <trkpt lat="42.042150" lon="2.239803">
        <ele>493.976</ele>
        <time>2018-01-09T13:43:45Z</time>
      </trkpt>
      <trkpt lat="42.042104" lon="2.239841">
        <ele>494.770</ele>
        <time>2018-01-09T13:43:50Z</time>
      </trkpt>
      <trkpt lat="42.042061" lon="2.239880">
        <ele>495.247</ele>
        <time>2018-01-09T13:43:55Z</time>
      </trkpt>
      <trkpt lat="42.042027" lon="2.239921">
        <ele>495.429</ele>
        <time>2018-01-09T13:43:59Z</time>
      </trkpt>
      <trkpt lat="42.042005" lon="2.239982">
        <ele>496.421</ele>
        <time>2018-01-09T13:44:04Z</time>
      </trkpt>
      <trkpt lat="42.041988" lon="2.240040">
        <ele>497.708</ele>
        <time>2018-01-09T13:44:08Z</time>
      </trkpt>
      <trkpt lat="42.041985" lon="2.240101">
        <ele>498.346</ele>
        <time>2018-01-09T13:44:12Z</time>
      </trkpt>
      <trkpt lat="42.041997" lon="2.240163">
        <ele>498.475</ele>
        <time>2018-01-09T13:44:16Z</time>
      </trkpt>
      <trkpt lat="42.042016" lon="2.240223">
        <ele>498.793</ele>
        <time>2018-01-09T13:44:20Z</time>
      </trkpt>
      <trkpt lat="42.042036" lon="2.240286">
        <ele>499.048</ele>
        <time>2018-01-09T13:44:24Z</time>
      </trkpt>
      <trkpt lat="42.042062" lon="2.240350">
        <ele>499.193</ele>
        <time>2018-01-09T13:44:28Z</time>
      </trkpt>
      <trkpt lat="42.042082" lon="2.240411">
        <ele>499.329</ele>
        <time>2018-01-09T13:44:32Z</time>
      </trkpt>
      <trkpt lat="42.042105" lon="2.240471">
        <ele>499.532</ele>
        <time>2018-01-09T13:44:36Z</time>
      </trkpt>
      <trkpt lat="42.042127" lon="2.240529">
        <ele>499.916</ele>
        <time>2018-01-09T13:44:41Z</time>
      </trkpt>
      <trkpt lat="42.042143" lon="2.240597">
        <ele>501.251</ele>
        <time>2018-01-09T13:44:46Z</time>
      </trkpt>
      <trkpt lat="42.042147" lon="2.240672">
        <ele>501.301</ele>
        <time>2018-01-09T13:44:50Z</time>
      </trkpt>
      <trkpt lat="42.042165" lon="2.240742">
        <ele>502.011</ele>
        <time>2018-01-09T13:44:54Z</time>
      </trkpt>
      <trkpt lat="42.042183" lon="2.240801">
        <ele>501.608</ele>
        <time>2018-01-09T13:44:58Z</time>
      </trkpt>
      <trkpt lat="42.042201" lon="2.240866">
        <ele>501.627</ele>
        <time>2018-01-09T13:45:02Z</time>
      </trkpt>
      <trkpt lat="42.042218" lon="2.240935">
        <ele>502.436</ele>
        <time>2018-01-09T13:45:06Z</time>
      </trkpt>
      <trkpt lat="42.042236" lon="2.240998">
        <ele>503.114</ele>
        <time>2018-01-09T13:45:11Z</time>
      </trkpt>
      <trkpt lat="42.042254" lon="2.241063">
        <ele>503.549</ele>
        <time>2018-01-09T13:45:15Z</time>
      </trkpt>
      <trkpt lat="42.042263" lon="2.241133">
        <ele>503.814</ele>
        <time>2018-01-09T13:45:19Z</time>
      </trkpt>
      <trkpt lat="42.042261" lon="2.241195">
        <ele>503.880</ele>
        <time>2018-01-09T13:45:23Z</time>
      </trkpt>
      <trkpt lat="42.042243" lon="2.241253">
        <ele>504.033</ele>
        <time>2018-01-09T13:45:28Z</time>
      </trkpt>
      <trkpt lat="42.042213" lon="2.241302">
        <ele>504.067</ele>
        <time>2018-01-09T13:45:31Z</time>
      </trkpt>
      <trkpt lat="42.042181" lon="2.241346">
        <ele>504.459</ele>
        <time>2018-01-09T13:45:34Z</time>
      </trkpt>
      <trkpt lat="42.042146" lon="2.241393">
        <ele>504.003</ele>
        <time>2018-01-09T13:45:37Z</time>
      </trkpt>
      <trkpt lat="42.042115" lon="2.241453">
        <ele>503.323</ele>
        <time>2018-01-09T13:45:41Z</time>
      </trkpt>
      <trkpt lat="42.042084" lon="2.241508">
        <ele>503.008</ele>
        <time>2018-01-09T13:45:45Z</time>
      </trkpt>
      <trkpt lat="42.042047" lon="2.241559">
        <ele>502.877</ele>
        <time>2018-01-09T13:45:49Z</time>
      </trkpt>
      <trkpt lat="42.042004" lon="2.241612">
        <ele>503.736</ele>
        <time>2018-01-09T13:45:53Z</time>
      </trkpt>
      <trkpt lat="42.041960" lon="2.241658">
        <ele>503.444</ele>
        <time>2018-01-09T13:45:57Z</time>
      </trkpt>
      <trkpt lat="42.041910" lon="2.241687">
        <ele>503.279</ele>
        <time>2018-01-09T13:46:01Z</time>
      </trkpt>
      <trkpt lat="42.041869" lon="2.241725">
        <ele>502.994</ele>
        <time>2018-01-09T13:46:05Z</time>
      </trkpt>
      <trkpt lat="42.041830" lon="2.241761">
        <ele>503.270</ele>
        <time>2018-01-09T13:46:12Z</time>
      </trkpt>
      <trkpt lat="42.041786" lon="2.241797">
        <ele>503.243</ele>
        <time>2018-01-09T13:46:16Z</time>
      </trkpt>
      <trkpt lat="42.041738" lon="2.241834">
        <ele>503.487</ele>
        <time>2018-01-09T13:46:20Z</time>
      </trkpt>
      <trkpt lat="42.041687" lon="2.241866">
        <ele>503.938</ele>
        <time>2018-01-09T13:46:24Z</time>
      </trkpt>
      <trkpt lat="42.041636" lon="2.241893">
        <ele>504.070</ele>
        <time>2018-01-09T13:46:28Z</time>
      </trkpt>
      <trkpt lat="42.041595" lon="2.241927">
        <ele>504.517</ele>
        <time>2018-01-09T13:46:32Z</time>
      </trkpt>
      <trkpt lat="42.041555" lon="2.241964">
        <ele>504.308</ele>
        <time>2018-01-09T13:46:36Z</time>
      </trkpt>
      <trkpt lat="42.041516" lon="2.242005">
        <ele>504.035</ele>
        <time>2018-01-09T13:46:40Z</time>
      </trkpt>
      <trkpt lat="42.041475" lon="2.242046">
        <ele>503.934</ele>
        <time>2018-01-09T13:46:44Z</time>
      </trkpt>
      <trkpt lat="42.041430" lon="2.242085">
        <ele>504.042</ele>
        <time>2018-01-09T13:46:48Z</time>
      </trkpt>
      <trkpt lat="42.041393" lon="2.242132">
        <ele>504.317</ele>
        <time>2018-01-09T13:46:52Z</time>
      </trkpt>
      <trkpt lat="42.041354" lon="2.242177">
        <ele>504.212</ele>
        <time>2018-01-09T13:46:56Z</time>
      </trkpt>
      <trkpt lat="42.041314" lon="2.242218">
        <ele>504.418</ele>
        <time>2018-01-09T13:47:00Z</time>
      </trkpt>
      <trkpt lat="42.041273" lon="2.242263">
        <ele>504.691</ele>
        <time>2018-01-09T13:47:04Z</time>
      </trkpt>
      <trkpt lat="42.041235" lon="2.242298">
        <ele>504.415</ele>
        <time>2018-01-09T13:47:08Z</time>
      </trkpt>
      <trkpt lat="42.041190" lon="2.242337">
        <ele>504.121</ele>
        <time>2018-01-09T13:47:12Z</time>
      </trkpt>
      <trkpt lat="42.041151" lon="2.242379">
        <ele>504.441</ele>
        <time>2018-01-09T13:47:16Z</time>
      </trkpt>
      <trkpt lat="42.041108" lon="2.242429">
        <ele>504.205</ele>
        <time>2018-01-09T13:47:20Z</time>
      </trkpt>
      <trkpt lat="42.041065" lon="2.242475">
        <ele>504.008</ele>
        <time>2018-01-09T13:47:24Z</time>
      </trkpt>
      <trkpt lat="42.041021" lon="2.242521">
        <ele>504.764</ele>
        <time>2018-01-09T13:47:32Z</time>
      </trkpt>
      <trkpt lat="42.040983" lon="2.242574">
        <ele>505.463</ele>
        <time>2018-01-09T13:47:36Z</time>
      </trkpt>
      <trkpt lat="42.040947" lon="2.242627">
        <ele>505.131</ele>
        <time>2018-01-09T13:47:40Z</time>
      </trkpt>
      <trkpt lat="42.040908" lon="2.242679">
        <ele>505.176</ele>
        <time>2018-01-09T13:47:44Z</time>
      </trkpt>
      <trkpt lat="42.040857" lon="2.242714">
        <ele>506.191</ele>
        <time>2018-01-09T13:47:48Z</time>
      </trkpt>
      <trkpt lat="42.040813" lon="2.242755">
        <ele>506.497</ele>
        <time>2018-01-09T13:47:52Z</time>
      </trkpt>
      <trkpt lat="42.040765" lon="2.242791">
        <ele>507.120</ele>
        <time>2018-01-09T13:47:56Z</time>
      </trkpt>
      <trkpt lat="42.040722" lon="2.242832">
        <ele>507.084</ele>
        <time>2018-01-09T13:48:00Z</time>
      </trkpt>
      <trkpt lat="42.040681" lon="2.242883">
        <ele>507.215</ele>
        <time>2018-01-09T13:48:05Z</time>
      </trkpt>
      <trkpt lat="42.040631" lon="2.242925">
        <ele>507.765</ele>
        <time>2018-01-09T13:48:09Z</time>
      </trkpt>
      <trkpt lat="42.040592" lon="2.242960">
        <ele>507.911</ele>
        <time>2018-01-09T13:48:13Z</time>
      </trkpt>
      <trkpt lat="42.040544" lon="2.243003">
        <ele>507.708</ele>
        <time>2018-01-09T13:48:17Z</time>
      </trkpt>
      <trkpt lat="42.040508" lon="2.243056">
        <ele>508.053</ele>
        <time>2018-01-09T13:48:22Z</time>
      </trkpt>
      <trkpt lat="42.040466" lon="2.243102">
        <ele>508.682</ele>
        <time>2018-01-09T13:48:26Z</time>
      </trkpt>
      <trkpt lat="42.040424" lon="2.243138">
        <ele>509.250</ele>
        <time>2018-01-09T13:48:30Z</time>
      </trkpt>
      <trkpt lat="42.040378" lon="2.243162">
        <ele>509.255</ele>
        <time>2018-01-09T13:48:34Z</time>
      </trkpt>
      <trkpt lat="42.040341" lon="2.243214">
        <ele>509.770</ele>
        <time>2018-01-09T13:48:38Z</time>
      </trkpt>
      <trkpt lat="42.040302" lon="2.243251">
        <ele>509.966</ele>
        <time>2018-01-09T13:48:42Z</time>
      </trkpt>
      <trkpt lat="42.040254" lon="2.243265">
        <ele>510.069</ele>
        <time>2018-01-09T13:48:45Z</time>
      </trkpt>
      <trkpt lat="42.040205" lon="2.243293">
        <ele>510.383</ele>
        <time>2018-01-09T13:48:49Z</time>
      </trkpt>
      <trkpt lat="42.040172" lon="2.243338">
        <ele>509.975</ele>
        <time>2018-01-09T13:48:53Z</time>
      </trkpt>
      <trkpt lat="42.040140" lon="2.243381">
        <ele>511.428</ele>
        <time>2018-01-09T13:48:57Z</time>
      </trkpt>
      <trkpt lat="42.040104" lon="2.243435">
        <ele>511.020</ele>
        <time>2018-01-09T13:49:02Z</time>
      </trkpt>
      <trkpt lat="42.040063" lon="2.243483">
        <ele>511.508</ele>
        <time>2018-01-09T13:49:07Z</time>
      </trkpt>
      <trkpt lat="42.040027" lon="2.243524">
        <ele>511.429</ele>
        <time>2018-01-09T13:49:11Z</time>
      </trkpt>
      <trkpt lat="42.039981" lon="2.243545">
        <ele>511.348</ele>
        <time>2018-01-09T13:49:26Z</time>
      </trkpt>
      <trkpt lat="42.039943" lon="2.243587">
        <ele>511.576</ele>
        <time>2018-01-09T13:49:30Z</time>
      </trkpt>
      <trkpt lat="42.039932" lon="2.243655">
        <ele>512.221</ele>
        <time>2018-01-09T13:49:41Z</time>
      </trkpt>
      <trkpt lat="42.039928" lon="2.243723">
        <ele>512.076</ele>
        <time>2018-01-09T13:49:47Z</time>
      </trkpt>
      <trkpt lat="42.039887" lon="2.243751">
        <ele>511.942</ele>
        <time>2018-01-09T13:49:59Z</time>
      </trkpt>
      <trkpt lat="42.039861" lon="2.243808">
        <ele>511.495</ele>
        <time>2018-01-09T13:50:21Z</time>
      </trkpt>
      <trkpt lat="42.039826" lon="2.243871">
        <ele>512.899</ele>
        <time>2018-01-09T13:50:25Z</time>
      </trkpt>
      <trkpt lat="42.039801" lon="2.243922">
        <ele>513.187</ele>
        <time>2018-01-09T13:50:28Z</time>
      </trkpt>
      <trkpt lat="42.039778" lon="2.243976">
        <ele>513.042</ele>
        <time>2018-01-09T13:50:31Z</time>
      </trkpt>
      <trkpt lat="42.039750" lon="2.244029">
        <ele>513.226</ele>
        <time>2018-01-09T13:50:34Z</time>
      </trkpt>
      <trkpt lat="42.039728" lon="2.244100">
        <ele>512.808</ele>
        <time>2018-01-09T13:50:38Z</time>
      </trkpt>
      <trkpt lat="42.039709" lon="2.244174">
        <ele>513.190</ele>
        <time>2018-01-09T13:50:42Z</time>
      </trkpt>
      <trkpt lat="42.039672" lon="2.244230">
        <ele>513.119</ele>
        <time>2018-01-09T13:50:46Z</time>
      </trkpt>
      <trkpt lat="42.039641" lon="2.244283">
        <ele>513.617</ele>
        <time>2018-01-09T13:50:50Z</time>
      </trkpt>
      <trkpt lat="42.039618" lon="2.244338">
        <ele>513.582</ele>
        <time>2018-01-09T13:50:54Z</time>
      </trkpt>
      <trkpt lat="42.039590" lon="2.244390">
        <ele>513.987</ele>
        <time>2018-01-09T13:50:58Z</time>
      </trkpt>
      <trkpt lat="42.039553" lon="2.244436">
        <ele>514.173</ele>
        <time>2018-01-09T13:51:02Z</time>
      </trkpt>
      <trkpt lat="42.039528" lon="2.244490">
        <ele>515.196</ele>
        <time>2018-01-09T13:51:06Z</time>
      </trkpt>
      <trkpt lat="42.039506" lon="2.244544">
        <ele>515.790</ele>
        <time>2018-01-09T13:51:09Z</time>
      </trkpt>
      <trkpt lat="42.039479" lon="2.244613">
        <ele>515.966</ele>
        <time>2018-01-09T13:51:13Z</time>
      </trkpt>
      <trkpt lat="42.039446" lon="2.244677">
        <ele>516.329</ele>
        <time>2018-01-09T13:51:17Z</time>
      </trkpt>
      <trkpt lat="42.039426" lon="2.244736">
        <ele>516.821</ele>
        <time>2018-01-09T13:51:20Z</time>
      </trkpt>
      <trkpt lat="42.039403" lon="2.244805">
        <ele>516.708</ele>
        <time>2018-01-09T13:51:24Z</time>
      </trkpt>
      <trkpt lat="42.039400" lon="2.244879">
        <ele>516.548</ele>
        <time>2018-01-09T13:51:29Z</time>
      </trkpt>
      <trkpt lat="42.039386" lon="2.244938">
        <ele>517.087</ele>
        <time>2018-01-09T13:51:32Z</time>
      </trkpt>
      <trkpt lat="42.039375" lon="2.245004">
        <ele>517.255</ele>
        <time>2018-01-09T13:51:36Z</time>
      </trkpt>
      <trkpt lat="42.039372" lon="2.245066">
        <ele>517.270</ele>
        <time>2018-01-09T13:51:40Z</time>
      </trkpt>
      <trkpt lat="42.039360" lon="2.245134">
        <ele>517.155</ele>
        <time>2018-01-09T13:51:44Z</time>
      </trkpt>
      <trkpt lat="42.039360" lon="2.245202">
        <ele>516.761</ele>
        <time>2018-01-09T13:51:48Z</time>
      </trkpt>
      <trkpt lat="42.039362" lon="2.245276">
        <ele>516.534</ele>
        <time>2018-01-09T13:51:52Z</time>
      </trkpt>
      <trkpt lat="42.039361" lon="2.245349">
        <ele>516.498</ele>
        <time>2018-01-09T13:51:56Z</time>
      </trkpt>
      <trkpt lat="42.039362" lon="2.245426">
        <ele>516.363</ele>
        <time>2018-01-09T13:52:00Z</time>
      </trkpt>
      <trkpt lat="42.039368" lon="2.245502">
        <ele>516.844</ele>
        <time>2018-01-09T13:52:04Z</time>
      </trkpt>
      <trkpt lat="42.039368" lon="2.245581">
        <ele>516.718</ele>
        <time>2018-01-09T13:52:08Z</time>
      </trkpt>
      <trkpt lat="42.039367" lon="2.245646">
        <ele>516.408</ele>
        <time>2018-01-09T13:52:12Z</time>
      </trkpt>
      <trkpt lat="42.039358" lon="2.245715">
        <ele>516.398</ele>
        <time>2018-01-09T13:52:16Z</time>
      </trkpt>
      <trkpt lat="42.039353" lon="2.245791">
        <ele>516.277</ele>
        <time>2018-01-09T13:52:20Z</time>
      </trkpt>
      <trkpt lat="42.039353" lon="2.245865">
        <ele>516.155</ele>
        <time>2018-01-09T13:52:24Z</time>
      </trkpt>
      <trkpt lat="42.039354" lon="2.245932">
        <ele>515.860</ele>
        <time>2018-01-09T13:52:28Z</time>
      </trkpt>
      <trkpt lat="42.039354" lon="2.245997">
        <ele>516.185</ele>
        <time>2018-01-09T13:52:32Z</time>
      </trkpt>
      <trkpt lat="42.039354" lon="2.246067">
        <ele>516.171</ele>
        <time>2018-01-09T13:52:36Z</time>
      </trkpt>
      <trkpt lat="42.039352" lon="2.246138">
        <ele>516.154</ele>
        <time>2018-01-09T13:52:40Z</time>
      </trkpt>
      <trkpt lat="42.039346" lon="2.246206">
        <ele>515.978</ele>
        <time>2018-01-09T13:52:45Z</time>
      </trkpt>
      <trkpt lat="42.039340" lon="2.246274">
        <ele>515.966</ele>
        <time>2018-01-09T13:52:49Z</time>
      </trkpt>
      <trkpt lat="42.039339" lon="2.246347">
        <ele>515.929</ele>
        <time>2018-01-09T13:52:53Z</time>
      </trkpt>
      <trkpt lat="42.039355" lon="2.246409">
        <ele>516.221</ele>
        <time>2018-01-09T13:53:19Z</time>
      </trkpt>
      <trkpt lat="42.039386" lon="2.246465">
        <ele>515.708</ele>
        <time>2018-01-09T13:53:25Z</time>
      </trkpt>
      <trkpt lat="42.039389" lon="2.246526">
        <ele>515.568</ele>
        <time>2018-01-09T13:53:29Z</time>
      </trkpt>
      <trkpt lat="42.039383" lon="2.246596">
        <ele>516.827</ele>
        <time>2018-01-09T13:53:34Z</time>
      </trkpt>
      <trkpt lat="42.039380" lon="2.246667">
        <ele>516.565</ele>
        <time>2018-01-09T13:53:38Z</time>
      </trkpt>
      <trkpt lat="42.039382" lon="2.246734">
        <ele>517.430</ele>
        <time>2018-01-09T13:53:42Z</time>
      </trkpt>
      <trkpt lat="42.039385" lon="2.246802">
        <ele>517.965</ele>
        <time>2018-01-09T13:53:46Z</time>
      </trkpt>
      <trkpt lat="42.039390" lon="2.246869">
        <ele>518.221</ele>
        <time>2018-01-09T13:53:50Z</time>
      </trkpt>
      <trkpt lat="42.039388" lon="2.246938">
        <ele>518.074</ele>
        <time>2018-01-09T13:53:54Z</time>
      </trkpt>
      <trkpt lat="42.039379" lon="2.247006">
        <ele>518.418</ele>
        <time>2018-01-09T13:53:58Z</time>
      </trkpt>
      <trkpt lat="42.039371" lon="2.247081">
        <ele>518.255</ele>
        <time>2018-01-09T13:54:03Z</time>
      </trkpt>
      <trkpt lat="42.039357" lon="2.247143">
        <ele>518.407</ele>
        <time>2018-01-09T13:54:07Z</time>
      </trkpt>
      <trkpt lat="42.039337" lon="2.247199">
        <ele>518.417</ele>
        <time>2018-01-09T13:54:11Z</time>
      </trkpt>
      <trkpt lat="42.039325" lon="2.247260">
        <ele>519.008</ele>
        <time>2018-01-09T13:54:14Z</time>
      </trkpt>
      <trkpt lat="42.039314" lon="2.247325">
        <ele>519.277</ele>
        <time>2018-01-09T13:54:18Z</time>
      </trkpt>
      <trkpt lat="42.039298" lon="2.247390">
        <ele>519.926</ele>
        <time>2018-01-09T13:54:22Z</time>
      </trkpt>
      <trkpt lat="42.039278" lon="2.247456">
        <ele>520.294</ele>
        <time>2018-01-09T13:54:27Z</time>
      </trkpt>
      <trkpt lat="42.039258" lon="2.247515">
        <ele>520.739</ele>
        <time>2018-01-09T13:54:31Z</time>
      </trkpt>
      <trkpt lat="42.039230" lon="2.247565">
        <ele>520.734</ele>
        <time>2018-01-09T13:54:35Z</time>
      </trkpt>
      <trkpt lat="42.039193" lon="2.247614">
        <ele>521.180</ele>
        <time>2018-01-09T13:54:39Z</time>
      </trkpt>
      <trkpt lat="42.039160" lon="2.247660">
        <ele>520.733</ele>
        <time>2018-01-09T13:54:43Z</time>
      </trkpt>
      <trkpt lat="42.039123" lon="2.247703">
        <ele>521.117</ele>
        <time>2018-01-09T13:54:47Z</time>
      </trkpt>
      <trkpt lat="42.039083" lon="2.247736">
        <ele>520.632</ele>
        <time>2018-01-09T13:54:51Z</time>
      </trkpt>
      <trkpt lat="42.039040" lon="2.247770">
        <ele>520.792</ele>
        <time>2018-01-09T13:54:55Z</time>
      </trkpt>
      <trkpt lat="42.039000" lon="2.247812">
        <ele>520.911</ele>
        <time>2018-01-09T13:54:59Z</time>
      </trkpt>
      <trkpt lat="42.038964" lon="2.247856">
        <ele>520.908</ele>
        <time>2018-01-09T13:55:03Z</time>
      </trkpt>
      <trkpt lat="42.038935" lon="2.247909">
        <ele>521.155</ele>
        <time>2018-01-09T13:55:07Z</time>
      </trkpt>
      <trkpt lat="42.038911" lon="2.247965">
        <ele>521.344</ele>
        <time>2018-01-09T13:55:11Z</time>
      </trkpt>
      <trkpt lat="42.038910" lon="2.248032">
        <ele>521.642</ele>
        <time>2018-01-09T13:55:15Z</time>
      </trkpt>
      <trkpt lat="42.038930" lon="2.248101">
        <ele>521.727</ele>
        <time>2018-01-09T13:55:19Z</time>
      </trkpt>
      <trkpt lat="42.038955" lon="2.248154">
        <ele>521.712</ele>
        <time>2018-01-09T13:55:22Z</time>
      </trkpt>
      <trkpt lat="42.038992" lon="2.248212">
        <ele>521.328</ele>
        <time>2018-01-09T13:55:26Z</time>
      </trkpt>
      <trkpt lat="42.039028" lon="2.248264">
        <ele>521.491</ele>
        <time>2018-01-09T13:55:30Z</time>
      </trkpt>
      <trkpt lat="42.039067" lon="2.248311">
        <ele>521.695</ele>
        <time>2018-01-09T13:55:34Z</time>
      </trkpt>
      <trkpt lat="42.039110" lon="2.248354">
        <ele>521.794</ele>
        <time>2018-01-09T13:55:38Z</time>
      </trkpt>
      <trkpt lat="42.039154" lon="2.248403">
        <ele>521.957</ele>
        <time>2018-01-09T13:55:42Z</time>
      </trkpt>
      <trkpt lat="42.039200" lon="2.248440">
        <ele>521.722</ele>
        <time>2018-01-09T13:55:46Z</time>
      </trkpt>
      <trkpt lat="42.039244" lon="2.248479">
        <ele>521.608</ele>
        <time>2018-01-09T13:55:50Z</time>
      </trkpt>
      <trkpt lat="42.039282" lon="2.248527">
        <ele>521.261</ele>
        <time>2018-01-09T13:55:54Z</time>
      </trkpt>
      <trkpt lat="42.039322" lon="2.248569">
        <ele>520.650</ele>
        <time>2018-01-09T13:55:58Z</time>
      </trkpt>
      <trkpt lat="42.039363" lon="2.248627">
        <ele>520.618</ele>
        <time>2018-01-09T13:56:02Z</time>
      </trkpt>
      <trkpt lat="42.039398" lon="2.248684">
        <ele>520.743</ele>
        <time>2018-01-09T13:56:06Z</time>
      </trkpt>
      <trkpt lat="42.039438" lon="2.248730">
        <ele>521.168</ele>
        <time>2018-01-09T13:56:10Z</time>
      </trkpt>
      <trkpt lat="42.039469" lon="2.248785">
        <ele>521.144</ele>
        <time>2018-01-09T13:56:14Z</time>
      </trkpt>
      <trkpt lat="42.039504" lon="2.248829">
        <ele>520.857</ele>
        <time>2018-01-09T13:56:18Z</time>
      </trkpt>
      <trkpt lat="42.039538" lon="2.248875">
        <ele>520.181</ele>
        <time>2018-01-09T13:56:38Z</time>
      </trkpt>
      <trkpt lat="42.039570" lon="2.248933">
        <ele>520.187</ele>
        <time>2018-01-09T13:56:42Z</time>
      </trkpt>
      <trkpt lat="42.039605" lon="2.248990">
        <ele>519.942</ele>
        <time>2018-01-09T13:56:46Z</time>
      </trkpt>
      <trkpt lat="42.039648" lon="2.249043">
        <ele>519.826</ele>
        <time>2018-01-09T13:56:50Z</time>
      </trkpt>
      <trkpt lat="42.039686" lon="2.249092">
        <ele>519.808</ele>
        <time>2018-01-09T13:56:54Z</time>
      </trkpt>
      <trkpt lat="42.039722" lon="2.249152">
        <ele>519.320</ele>
        <time>2018-01-09T13:56:58Z</time>
      </trkpt>
      <trkpt lat="42.039756" lon="2.249205">
        <ele>519.949</ele>
        <time>2018-01-09T13:57:02Z</time>
      </trkpt>
      <trkpt lat="42.039791" lon="2.249255">
        <ele>519.957</ele>
        <time>2018-01-09T13:57:06Z</time>
      </trkpt>
      <trkpt lat="42.039825" lon="2.249308">
        <ele>519.952</ele>
        <time>2018-01-09T13:57:10Z</time>
      </trkpt>
      <trkpt lat="42.039860" lon="2.249365">
        <ele>520.047</ele>
        <time>2018-01-09T13:57:14Z</time>
      </trkpt>
      <trkpt lat="42.039897" lon="2.249420">
        <ele>520.173</ele>
        <time>2018-01-09T13:57:18Z</time>
      </trkpt>
      <trkpt lat="42.039933" lon="2.249470">
        <ele>520.686</ele>
        <time>2018-01-09T13:57:22Z</time>
      </trkpt>
      <trkpt lat="42.039968" lon="2.249527">
        <ele>520.130</ele>
        <time>2018-01-09T13:57:26Z</time>
      </trkpt>
      <trkpt lat="42.040001" lon="2.249579">
        <ele>520.417</ele>
        <time>2018-01-09T13:57:30Z</time>
      </trkpt>
      <trkpt lat="42.040038" lon="2.249629">
        <ele>520.487</ele>
        <time>2018-01-09T13:57:34Z</time>
      </trkpt>
      <trkpt lat="42.040076" lon="2.249680">
        <ele>520.015</ele>
        <time>2018-01-09T13:57:38Z</time>
      </trkpt>
      <trkpt lat="42.040112" lon="2.249733">
        <ele>520.008</ele>
        <time>2018-01-09T13:57:42Z</time>
      </trkpt>
      <trkpt lat="42.040148" lon="2.249786">
        <ele>519.973</ele>
        <time>2018-01-09T13:57:46Z</time>
      </trkpt>
      <trkpt lat="42.040182" lon="2.249841">
        <ele>519.872</ele>
        <time>2018-01-09T13:57:50Z</time>
      </trkpt>
      <trkpt lat="42.040217" lon="2.249893">
        <ele>519.940</ele>
        <time>2018-01-09T13:57:54Z</time>
      </trkpt>
      <trkpt lat="42.040255" lon="2.249944">
        <ele>520.125</ele>
        <time>2018-01-09T13:57:58Z</time>
      </trkpt>
      <trkpt lat="42.040288" lon="2.250000">
        <ele>520.290</ele>
        <time>2018-01-09T13:58:02Z</time>
      </trkpt>
      <trkpt lat="42.040319" lon="2.250052">
        <ele>520.116</ele>
        <time>2018-01-09T13:58:06Z</time>
      </trkpt>
      <trkpt lat="42.040351" lon="2.250109">
        <ele>520.049</ele>
        <time>2018-01-09T13:58:10Z</time>
      </trkpt>
      <trkpt lat="42.040389" lon="2.250162">
        <ele>520.523</ele>
        <time>2018-01-09T13:58:14Z</time>
      </trkpt>
      <trkpt lat="42.040428" lon="2.250211">
        <ele>520.832</ele>
        <time>2018-01-09T13:58:18Z</time>
      </trkpt>
      <trkpt lat="42.040465" lon="2.250261">
        <ele>520.592</ele>
        <time>2018-01-09T13:58:22Z</time>
      </trkpt>
      <trkpt lat="42.040500" lon="2.250309">
        <ele>520.711</ele>
        <time>2018-01-09T13:58:26Z</time>
      </trkpt>
      <trkpt lat="42.040539" lon="2.250357">
        <ele>520.808</ele>
        <time>2018-01-09T13:58:30Z</time>
      </trkpt>
      <trkpt lat="42.040581" lon="2.250406">
        <ele>520.945</ele>
        <time>2018-01-09T13:58:34Z</time>
      </trkpt>
      <trkpt lat="42.040619" lon="2.250457">
        <ele>520.814</ele>
        <time>2018-01-09T13:58:38Z</time>
      </trkpt>
      <trkpt lat="42.040652" lon="2.250511">
        <ele>521.282</ele>
        <time>2018-01-09T13:58:42Z</time>
      </trkpt>
      <trkpt lat="42.040682" lon="2.250567">
        <ele>520.967</ele>
        <time>2018-01-09T13:58:46Z</time>
      </trkpt>
      <trkpt lat="42.040710" lon="2.250625">
        <ele>520.942</ele>
        <time>2018-01-09T13:58:50Z</time>
      </trkpt>
      <trkpt lat="42.040736" lon="2.250689">
        <ele>521.018</ele>
        <time>2018-01-09T13:58:54Z</time>
      </trkpt>
      <trkpt lat="42.040757" lon="2.250755">
        <ele>520.951</ele>
        <time>2018-01-09T13:58:58Z</time>
      </trkpt>
      <trkpt lat="42.040772" lon="2.250821">
        <ele>521.115</ele>
        <time>2018-01-09T13:59:02Z</time>
      </trkpt>
      <trkpt lat="42.040790" lon="2.250883">
        <ele>521.733</ele>
        <time>2018-01-09T13:59:06Z</time>
      </trkpt>
      <trkpt lat="42.040798" lon="2.250949">
        <ele>521.623</ele>
        <time>2018-01-09T13:59:10Z</time>
      </trkpt>
      <trkpt lat="42.040797" lon="2.251016">
        <ele>521.815</ele>
        <time>2018-01-09T13:59:14Z</time>
      </trkpt>
      <trkpt lat="42.040791" lon="2.251088">
        <ele>522.008</ele>
        <time>2018-01-09T13:59:18Z</time>
      </trkpt>
      <trkpt lat="42.040783" lon="2.251157">
        <ele>522.415</ele>
        <time>2018-01-09T13:59:22Z</time>
      </trkpt>
      <trkpt lat="42.040766" lon="2.251222">
        <ele>522.524</ele>
        <time>2018-01-09T13:59:26Z</time>
      </trkpt>
      <trkpt lat="42.040752" lon="2.251286">
        <ele>522.512</ele>
        <time>2018-01-09T13:59:30Z</time>
      </trkpt>
      <trkpt lat="42.040731" lon="2.251347">
        <ele>522.447</ele>
        <time>2018-01-09T13:59:34Z</time>
      </trkpt>
      <trkpt lat="42.040702" lon="2.251412">
        <ele>522.242</ele>
        <time>2018-01-09T13:59:38Z</time>
      </trkpt>
      <trkpt lat="42.040668" lon="2.251470">
        <ele>522.128</ele>
        <time>2018-01-09T13:59:42Z</time>
      </trkpt>
      <trkpt lat="42.040637" lon="2.251530">
        <ele>523.061</ele>
        <time>2018-01-09T13:59:46Z</time>
      </trkpt>
      <trkpt lat="42.040604" lon="2.251587">
        <ele>523.475</ele>
        <time>2018-01-09T13:59:50Z</time>
      </trkpt>
      <trkpt lat="42.040570" lon="2.251646">
        <ele>523.472</ele>
        <time>2018-01-09T13:59:54Z</time>
      </trkpt>
      <trkpt lat="42.040536" lon="2.251702">
        <ele>523.213</ele>
        <time>2018-01-09T13:59:58Z</time>
      </trkpt>
      <trkpt lat="42.040504" lon="2.251759">
        <ele>523.114</ele>
        <time>2018-01-09T14:00:02Z</time>
      </trkpt>
      <trkpt lat="42.040469" lon="2.251814">
        <ele>523.408</ele>
        <time>2018-01-09T14:00:06Z</time>
      </trkpt>
      <trkpt lat="42.040429" lon="2.251869">
        <ele>524.029</ele>
        <time>2018-01-09T14:00:10Z</time>
      </trkpt>
      <trkpt lat="42.040392" lon="2.251928">
        <ele>524.718</ele>
        <time>2018-01-09T14:00:14Z</time>
      </trkpt>
      <trkpt lat="42.040359" lon="2.251990">
        <ele>525.446</ele>
        <time>2018-01-09T14:00:18Z</time>
      </trkpt>
      <trkpt lat="42.040331" lon="2.252057">
        <ele>525.281</ele>
        <time>2018-01-09T14:00:22Z</time>
      </trkpt>
      <trkpt lat="42.040303" lon="2.252116">
        <ele>525.546</ele>
        <time>2018-01-09T14:00:26Z</time>
      </trkpt>
      <trkpt lat="42.040280" lon="2.252182">
        <ele>525.892</ele>
        <time>2018-01-09T14:00:30Z</time>
      </trkpt>
      <trkpt lat="42.040263" lon="2.252247">
        <ele>526.225</ele>
        <time>2018-01-09T14:00:34Z</time>
      </trkpt>
      <trkpt lat="42.040243" lon="2.252314">
        <ele>526.369</ele>
        <time>2018-01-09T14:00:38Z</time>
      </trkpt>
      <trkpt lat="42.040224" lon="2.252376">
        <ele>526.376</ele>
        <time>2018-01-09T14:00:42Z</time>
      </trkpt>
      <trkpt lat="42.040204" lon="2.252441">
        <ele>526.390</ele>
        <time>2018-01-09T14:00:46Z</time>
      </trkpt>
      <trkpt lat="42.040190" lon="2.252505">
        <ele>526.219</ele>
        <time>2018-01-09T14:00:50Z</time>
      </trkpt>
      <trkpt lat="42.040176" lon="2.252574">
        <ele>526.308</ele>
        <time>2018-01-09T14:00:54Z</time>
      </trkpt>
      <trkpt lat="42.040159" lon="2.252638">
        <ele>526.379</ele>
        <time>2018-01-09T14:00:58Z</time>
      </trkpt>
      <trkpt lat="42.040147" lon="2.252707">
        <ele>526.738</ele>
        <time>2018-01-09T14:01:02Z</time>
      </trkpt>
      <trkpt lat="42.040138" lon="2.252775">
        <ele>527.336</ele>
        <time>2018-01-09T14:01:06Z</time>
      </trkpt>
      <trkpt lat="42.040130" lon="2.252850">
        <ele>527.391</ele>
        <time>2018-01-09T14:01:10Z</time>
      </trkpt>
      <trkpt lat="42.040131" lon="2.252917">
        <ele>527.766</ele>
        <time>2018-01-09T14:01:14Z</time>
      </trkpt>
      <trkpt lat="42.040122" lon="2.252983">
        <ele>527.442</ele>
        <time>2018-01-09T14:01:19Z</time>
      </trkpt>
      <trkpt lat="42.040119" lon="2.253055">
        <ele>527.875</ele>
        <time>2018-01-09T14:01:24Z</time>
      </trkpt>
      <trkpt lat="42.040115" lon="2.253124">
        <ele>527.979</ele>
        <time>2018-01-09T14:01:28Z</time>
      </trkpt>
      <trkpt lat="42.040127" lon="2.253187">
        <ele>527.944</ele>
        <time>2018-01-09T14:01:31Z</time>
      </trkpt>
      <trkpt lat="42.040125" lon="2.253261">
        <ele>527.905</ele>
        <time>2018-01-09T14:01:35Z</time>
      </trkpt>
      <trkpt lat="42.040115" lon="2.253332">
        <ele>528.315</ele>
        <time>2018-01-09T14:01:39Z</time>
      </trkpt>
      <trkpt lat="42.040104" lon="2.253393">
        <ele>528.508</ele>
        <time>2018-01-09T14:01:43Z</time>
      </trkpt>
      <trkpt lat="42.040110" lon="2.253464">
        <ele>528.356</ele>
        <time>2018-01-09T14:01:47Z</time>
      </trkpt>
      <trkpt lat="42.040102" lon="2.253525">
        <ele>528.415</ele>
        <time>2018-01-09T14:01:51Z</time>
      </trkpt>
      <trkpt lat="42.040071" lon="2.253582">
        <ele>528.323</ele>
        <time>2018-01-09T14:01:55Z</time>
      </trkpt>
      <trkpt lat="42.040054" lon="2.253648">
        <ele>528.398</ele>
        <time>2018-01-09T14:01:59Z</time>
      </trkpt>
      <trkpt lat="42.040043" lon="2.253715">
        <ele>528.373</ele>
        <time>2018-01-09T14:02:03Z</time>
      </trkpt>
      <trkpt lat="42.040028" lon="2.253778">
        <ele>528.429</ele>
        <time>2018-01-09T14:02:07Z</time>
      </trkpt>
      <trkpt lat="42.040002" lon="2.253844">
        <ele>528.962</ele>
        <time>2018-01-09T14:02:11Z</time>
      </trkpt>
      <trkpt lat="42.039976" lon="2.253909">
        <ele>528.966</ele>
        <time>2018-01-09T14:02:15Z</time>
      </trkpt>
      <trkpt lat="42.039938" lon="2.253944">
        <ele>529.616</ele>
        <time>2018-01-09T14:02:23Z</time>
      </trkpt>
      <trkpt lat="42.039926" lon="2.254002">
        <ele>529.876</ele>
        <time>2018-01-09T14:02:38Z</time>
      </trkpt>
      <trkpt lat="42.039898" lon="2.254052">
        <ele>529.413</ele>
        <time>2018-01-09T14:02:46Z</time>
      </trkpt>
      <trkpt lat="42.039875" lon="2.254109">
        <ele>528.608</ele>
        <time>2018-01-09T14:02:50Z</time>
      </trkpt>
      <trkpt lat="42.039851" lon="2.254169">
        <ele>528.723</ele>
        <time>2018-01-09T14:02:54Z</time>
      </trkpt>
      <trkpt lat="42.039832" lon="2.254238">
        <ele>528.282</ele>
        <time>2018-01-09T14:02:58Z</time>
      </trkpt>
      <trkpt lat="42.039813" lon="2.254303">
        <ele>528.040</ele>
        <time>2018-01-09T14:03:02Z</time>
      </trkpt>
      <trkpt lat="42.039794" lon="2.254368">
        <ele>528.545</ele>
        <time>2018-01-09T14:03:07Z</time>
      </trkpt>
      <trkpt lat="42.039814" lon="2.254701">
        <ele>532.130</ele>
        <time>2018-01-09T14:11:48Z</time>
      </trkpt>
      <trkpt lat="42.039801" lon="2.254767">
        <ele>531.096</ele>
        <time>2018-01-09T14:11:52Z</time>
      </trkpt>
      <trkpt lat="42.039795" lon="2.254838">
        <ele>530.979</ele>
        <time>2018-01-09T14:11:56Z</time>
      </trkpt>
      <trkpt lat="42.039795" lon="2.254905">
        <ele>531.333</ele>
        <time>2018-01-09T14:12:00Z</time>
      </trkpt>
      <trkpt lat="42.039795" lon="2.254970">
        <ele>531.392</ele>
        <time>2018-01-09T14:12:04Z</time>
      </trkpt>
      <trkpt lat="42.039781" lon="2.255037">
        <ele>531.373</ele>
        <time>2018-01-09T14:12:08Z</time>
      </trkpt>
      <trkpt lat="42.039769" lon="2.255104">
        <ele>531.120</ele>
        <time>2018-01-09T14:12:12Z</time>
      </trkpt>
      <trkpt lat="42.039762" lon="2.255173">
        <ele>531.108</ele>
        <time>2018-01-09T14:12:16Z</time>
      </trkpt>
      <trkpt lat="42.039747" lon="2.255245">
        <ele>530.911</ele>
        <time>2018-01-09T14:12:20Z</time>
      </trkpt>
      <trkpt lat="42.039744" lon="2.255316">
        <ele>530.690</ele>
        <time>2018-01-09T14:12:24Z</time>
      </trkpt>
      <trkpt lat="42.039748" lon="2.255387">
        <ele>530.618</ele>
        <time>2018-01-09T14:12:28Z</time>
      </trkpt>
      <trkpt lat="42.039752" lon="2.255457">
        <ele>530.773</ele>
        <time>2018-01-09T14:12:32Z</time>
      </trkpt>
      <trkpt lat="42.039748" lon="2.255520">
        <ele>530.618</ele>
        <time>2018-01-09T14:12:36Z</time>
      </trkpt>
      <trkpt lat="42.039751" lon="2.255591">
        <ele>530.314</ele>
        <time>2018-01-09T14:12:41Z</time>
      </trkpt>
      <trkpt lat="42.039739" lon="2.255650">
        <ele>530.757</ele>
        <time>2018-01-09T14:12:48Z</time>
      </trkpt>
      <trkpt lat="42.039686" lon="2.255668">
        <ele>530.881</ele>
        <time>2018-01-09T14:12:52Z</time>
      </trkpt>
      <trkpt lat="42.039634" lon="2.255687">
        <ele>531.299</ele>
        <time>2018-01-09T14:12:56Z</time>
      </trkpt>
      <trkpt lat="42.039582" lon="2.255709">
        <ele>530.607</ele>
        <time>2018-01-09T14:13:00Z</time>
      </trkpt>
      <trkpt lat="42.039536" lon="2.255727">
        <ele>530.727</ele>
        <time>2018-01-09T14:13:04Z</time>
      </trkpt>
      <trkpt lat="42.039484" lon="2.255747">
        <ele>530.408</ele>
        <time>2018-01-09T14:13:08Z</time>
      </trkpt>
      <trkpt lat="42.039441" lon="2.255767">
        <ele>530.681</ele>
        <time>2018-01-09T14:13:11Z</time>
      </trkpt>
      <trkpt lat="42.039384" lon="2.255789">
        <ele>530.850</ele>
        <time>2018-01-09T14:13:15Z</time>
      </trkpt>
      <trkpt lat="42.039340" lon="2.255802">
        <ele>530.698</ele>
        <time>2018-01-09T14:13:18Z</time>
      </trkpt>
      <trkpt lat="42.039283" lon="2.255811">
        <ele>530.683</ele>
        <time>2018-01-09T14:13:22Z</time>
      </trkpt>
      <trkpt lat="42.039230" lon="2.255818">
        <ele>530.538</ele>
        <time>2018-01-09T14:13:28Z</time>
      </trkpt>
      <trkpt lat="42.039178" lon="2.255823">
        <ele>530.834</ele>
        <time>2018-01-09T14:13:32Z</time>
      </trkpt>
      <trkpt lat="42.039128" lon="2.255833">
        <ele>530.587</ele>
        <time>2018-01-09T14:13:36Z</time>
      </trkpt>
      <trkpt lat="42.039078" lon="2.255845">
        <ele>530.531</ele>
        <time>2018-01-09T14:13:40Z</time>
      </trkpt>
      <trkpt lat="42.039026" lon="2.255859">
        <ele>530.591</ele>
        <time>2018-01-09T14:13:44Z</time>
      </trkpt>
      <trkpt lat="42.038973" lon="2.255874">
        <ele>530.381</ele>
        <time>2018-01-09T14:13:48Z</time>
      </trkpt>
      <trkpt lat="42.038925" lon="2.255892">
        <ele>530.019</ele>
        <time>2018-01-09T14:13:53Z</time>
      </trkpt>
      <trkpt lat="42.038876" lon="2.255915">
        <ele>529.208</ele>
        <time>2018-01-09T14:13:57Z</time>
      </trkpt>
      <trkpt lat="42.038825" lon="2.255929">
        <ele>529.331</ele>
        <time>2018-01-09T14:14:01Z</time>
      </trkpt>
      <trkpt lat="42.038771" lon="2.255943">
        <ele>529.070</ele>
        <time>2018-01-09T14:14:05Z</time>
      </trkpt>
      <trkpt lat="42.038726" lon="2.255957">
        <ele>528.668</ele>
        <time>2018-01-09T14:14:08Z</time>
      </trkpt>
      <trkpt lat="42.038678" lon="2.255970">
        <ele>528.583</ele>
        <time>2018-01-09T14:14:11Z</time>
      </trkpt>
      <trkpt lat="42.038624" lon="2.255980">
        <ele>528.598</ele>
        <time>2018-01-09T14:14:15Z</time>
      </trkpt>
      <trkpt lat="42.038570" lon="2.255993">
        <ele>528.114</ele>
        <time>2018-01-09T14:14:19Z</time>
      </trkpt>
      <trkpt lat="42.038513" lon="2.256000">
        <ele>527.927</ele>
        <time>2018-01-09T14:14:24Z</time>
      </trkpt>
      <trkpt lat="42.038469" lon="2.255986">
        <ele>527.751</ele>
        <time>2018-01-09T14:14:28Z</time>
      </trkpt>
      <trkpt lat="42.038431" lon="2.255948">
        <ele>527.424</ele>
        <time>2018-01-09T14:14:32Z</time>
      </trkpt>
      <trkpt lat="42.038399" lon="2.255894">
        <ele>526.804</ele>
        <time>2018-01-09T14:14:36Z</time>
      </trkpt>
      <trkpt lat="42.038363" lon="2.255850">
        <ele>525.914</ele>
        <time>2018-01-09T14:14:40Z</time>
      </trkpt>
      <trkpt lat="42.038327" lon="2.255806">
        <ele>525.108</ele>
        <time>2018-01-09T14:14:44Z</time>
      </trkpt>
      <trkpt lat="42.038284" lon="2.255768">
        <ele>525.074</ele>
        <time>2018-01-09T14:14:48Z</time>
      </trkpt>
      <trkpt lat="42.038237" lon="2.255733">
        <ele>525.053</ele>
        <time>2018-01-09T14:14:52Z</time>
      </trkpt>
      <trkpt lat="42.038190" lon="2.255694">
        <ele>524.551</ele>
        <time>2018-01-09T14:14:56Z</time>
      </trkpt>
      <trkpt lat="42.038148" lon="2.255648">
        <ele>524.016</ele>
        <time>2018-01-09T14:15:00Z</time>
      </trkpt>
      <trkpt lat="42.038110" lon="2.255610">
        <ele>523.481</ele>
        <time>2018-01-09T14:15:04Z</time>
      </trkpt>
      <trkpt lat="42.038066" lon="2.255565">
        <ele>522.837</ele>
        <time>2018-01-09T14:15:08Z</time>
      </trkpt>
      <trkpt lat="42.038014" lon="2.255546">
        <ele>522.080</ele>
        <time>2018-01-09T14:15:12Z</time>
      </trkpt>
      <trkpt lat="42.037957" lon="2.255551">
        <ele>521.624</ele>
        <time>2018-01-09T14:15:16Z</time>
      </trkpt>
      <trkpt lat="42.037911" lon="2.255561">
        <ele>521.366</ele>
        <time>2018-01-09T14:15:19Z</time>
      </trkpt>
      <trkpt lat="42.037855" lon="2.255570">
        <ele>521.129</ele>
        <time>2018-01-09T14:15:23Z</time>
      </trkpt>
      <trkpt lat="42.037807" lon="2.255573">
        <ele>520.921</ele>
        <time>2018-01-09T14:15:26Z</time>
      </trkpt>
      <trkpt lat="42.037750" lon="2.255575">
        <ele>520.908</ele>
        <time>2018-01-09T14:15:30Z</time>
      </trkpt>
      <trkpt lat="42.037703" lon="2.255574">
        <ele>520.848</ele>
        <time>2018-01-09T14:15:33Z</time>
      </trkpt>
      <trkpt lat="42.037647" lon="2.255568">
        <ele>520.887</ele>
        <time>2018-01-09T14:15:37Z</time>
      </trkpt>
      <trkpt lat="42.037602" lon="2.255558">
        <ele>520.775</ele>
        <time>2018-01-09T14:15:40Z</time>
      </trkpt>
      <trkpt lat="42.037548" lon="2.255540">
        <ele>520.060</ele>
        <time>2018-01-09T14:15:44Z</time>
      </trkpt>
      <trkpt lat="42.037497" lon="2.255523">
        <ele>519.925</ele>
        <time>2018-01-09T14:15:48Z</time>
      </trkpt>
      <trkpt lat="42.037452" lon="2.255516">
        <ele>519.961</ele>
        <time>2018-01-09T14:15:51Z</time>
      </trkpt>
      <trkpt lat="42.037407" lon="2.255512">
        <ele>519.844</ele>
        <time>2018-01-09T14:15:54Z</time>
      </trkpt>
      <trkpt lat="42.037359" lon="2.255506">
        <ele>520.048</ele>
        <time>2018-01-09T14:15:57Z</time>
      </trkpt>
      <trkpt lat="42.037313" lon="2.255503">
        <ele>520.067</ele>
        <time>2018-01-09T14:16:00Z</time>
      </trkpt>
      <trkpt lat="42.037253" lon="2.255510">
        <ele>519.981</ele>
        <time>2018-01-09T14:16:04Z</time>
      </trkpt>
      <trkpt lat="42.037206" lon="2.255536">
        <ele>519.219</ele>
        <time>2018-01-09T14:16:08Z</time>
      </trkpt>
      <trkpt lat="42.037167" lon="2.255570">
        <ele>518.508</ele>
        <time>2018-01-09T14:16:12Z</time>
      </trkpt>
      <trkpt lat="42.037123" lon="2.255602">
        <ele>518.458</ele>
        <time>2018-01-09T14:16:16Z</time>
      </trkpt>
      <trkpt lat="42.037083" lon="2.255638">
        <ele>517.637</ele>
        <time>2018-01-09T14:16:20Z</time>
      </trkpt>
      <trkpt lat="42.037043" lon="2.255676">
        <ele>517.625</ele>
        <time>2018-01-09T14:16:24Z</time>
      </trkpt>
      <trkpt lat="42.036995" lon="2.255714">
        <ele>516.970</ele>
        <time>2018-01-09T14:16:28Z</time>
      </trkpt>
      <trkpt lat="42.036948" lon="2.255737">
        <ele>517.095</ele>
        <time>2018-01-09T14:16:32Z</time>
      </trkpt>
      <trkpt lat="42.036891" lon="2.255748">
        <ele>516.811</ele>
        <time>2018-01-09T14:16:36Z</time>
      </trkpt>
      <trkpt lat="42.036838" lon="2.255743">
        <ele>516.884</ele>
        <time>2018-01-09T14:16:40Z</time>
      </trkpt>
      <trkpt lat="42.036782" lon="2.255751">
        <ele>516.778</ele>
        <time>2018-01-09T14:16:44Z</time>
      </trkpt>
      <trkpt lat="42.036737" lon="2.255758">
        <ele>516.732</ele>
        <time>2018-01-09T14:16:47Z</time>
      </trkpt>
      <trkpt lat="42.036679" lon="2.255766">
        <ele>516.692</ele>
        <time>2018-01-09T14:16:51Z</time>
      </trkpt>
      <trkpt lat="42.036628" lon="2.255769">
        <ele>516.411</ele>
        <time>2018-01-09T14:16:55Z</time>
      </trkpt>
      <trkpt lat="42.036578" lon="2.255765">
        <ele>516.108</ele>
        <time>2018-01-09T14:16:59Z</time>
      </trkpt>
      <trkpt lat="42.036525" lon="2.255739">
        <ele>515.955</ele>
        <time>2018-01-09T14:17:03Z</time>
      </trkpt>
      <trkpt lat="42.036484" lon="2.255701">
        <ele>515.384</ele>
        <time>2018-01-09T14:17:07Z</time>
      </trkpt>
      <trkpt lat="42.036455" lon="2.255645">
        <ele>514.622</ele>
        <time>2018-01-09T14:17:11Z</time>
      </trkpt>
      <trkpt lat="42.036423" lon="2.255591">
        <ele>514.137</ele>
        <time>2018-01-09T14:17:15Z</time>
      </trkpt>
      <trkpt lat="42.036384" lon="2.255554">
        <ele>513.612</ele>
        <time>2018-01-09T14:17:19Z</time>
      </trkpt>
      <trkpt lat="42.036344" lon="2.255524">
        <ele>513.178</ele>
        <time>2018-01-09T14:17:23Z</time>
      </trkpt>
      <trkpt lat="42.036300" lon="2.255497">
        <ele>512.441</ele>
        <time>2018-01-09T14:17:27Z</time>
      </trkpt>
      <trkpt lat="42.036246" lon="2.255476">
        <ele>511.865</ele>
        <time>2018-01-09T14:17:31Z</time>
      </trkpt>
      <trkpt lat="42.036191" lon="2.255458">
        <ele>511.673</ele>
        <time>2018-01-09T14:17:35Z</time>
      </trkpt>
      <trkpt lat="42.036138" lon="2.255443">
        <ele>511.085</ele>
        <time>2018-01-09T14:17:39Z</time>
      </trkpt>
      <trkpt lat="42.036081" lon="2.255437">
        <ele>510.813</ele>
        <time>2018-01-09T14:17:43Z</time>
      </trkpt>
      <trkpt lat="42.036025" lon="2.255430">
        <ele>510.808</ele>
        <time>2018-01-09T14:17:47Z</time>
      </trkpt>
      <trkpt lat="42.035969" lon="2.255414">
        <ele>510.949</ele>
        <time>2018-01-09T14:17:51Z</time>
      </trkpt>
      <trkpt lat="42.035922" lon="2.255414">
        <ele>510.848</ele>
        <time>2018-01-09T14:17:54Z</time>
      </trkpt>
      <trkpt lat="42.035873" lon="2.255424">
        <ele>510.936</ele>
        <time>2018-01-09T14:17:57Z</time>
      </trkpt>
      <trkpt lat="42.035819" lon="2.255413">
        <ele>511.321</ele>
        <time>2018-01-09T14:18:01Z</time>
      </trkpt>
      <trkpt lat="42.035773" lon="2.255410">
        <ele>511.286</ele>
        <time>2018-01-09T14:18:04Z</time>
      </trkpt>
      <trkpt lat="42.035728" lon="2.255408">
        <ele>511.342</ele>
        <time>2018-01-09T14:18:07Z</time>
      </trkpt>
      <trkpt lat="42.035682" lon="2.255413">
        <ele>511.345</ele>
        <time>2018-01-09T14:18:10Z</time>
      </trkpt>
      <trkpt lat="42.035624" lon="2.255423">
        <ele>511.039</ele>
        <time>2018-01-09T14:18:14Z</time>
      </trkpt>
      <trkpt lat="42.035566" lon="2.255437">
        <ele>510.995</ele>
        <time>2018-01-09T14:18:18Z</time>
      </trkpt>
      <trkpt lat="42.035518" lon="2.255448">
        <ele>510.949</ele>
        <time>2018-01-09T14:18:21Z</time>
      </trkpt>
      <trkpt lat="42.035472" lon="2.255460">
        <ele>511.023</ele>
        <time>2018-01-09T14:18:24Z</time>
      </trkpt>
      <trkpt lat="42.035414" lon="2.255475">
        <ele>511.008</ele>
        <time>2018-01-09T14:18:28Z</time>
      </trkpt>
      <trkpt lat="42.035367" lon="2.255480">
        <ele>511.261</ele>
        <time>2018-01-09T14:18:31Z</time>
      </trkpt>
      <trkpt lat="42.035311" lon="2.255488">
        <ele>510.930</ele>
        <time>2018-01-09T14:18:36Z</time>
      </trkpt>
      <trkpt lat="42.035256" lon="2.255503">
        <ele>511.168</ele>
        <time>2018-01-09T14:18:40Z</time>
      </trkpt>
      <trkpt lat="42.035208" lon="2.255509">
        <ele>510.483</ele>
        <time>2018-01-09T14:18:45Z</time>
      </trkpt>
      <trkpt lat="42.035162" lon="2.255520">
        <ele>510.458</ele>
        <time>2018-01-09T14:18:49Z</time>
      </trkpt>
      <trkpt lat="42.035108" lon="2.255515">
        <ele>510.924</ele>
        <time>2018-01-09T14:18:53Z</time>
      </trkpt>
      <trkpt lat="42.035059" lon="2.255499">
        <ele>510.577</ele>
        <time>2018-01-09T14:18:57Z</time>
      </trkpt>
      <trkpt lat="42.035006" lon="2.255511">
        <ele>510.561</ele>
        <time>2018-01-09T14:19:01Z</time>
      </trkpt>
      <trkpt lat="42.034954" lon="2.255511">
        <ele>510.433</ele>
        <time>2018-01-09T14:19:06Z</time>
      </trkpt>
      <trkpt lat="42.034900" lon="2.255511">
        <ele>510.023</ele>
        <time>2018-01-09T14:19:10Z</time>
      </trkpt>
      <trkpt lat="42.034854" lon="2.255518">
        <ele>509.715</ele>
        <time>2018-01-09T14:19:14Z</time>
      </trkpt>
      <trkpt lat="42.034797" lon="2.255531">
        <ele>509.408</ele>
        <time>2018-01-09T14:19:18Z</time>
      </trkpt>
      <trkpt lat="42.034740" lon="2.255543">
        <ele>509.195</ele>
        <time>2018-01-09T14:19:22Z</time>
      </trkpt>
      <trkpt lat="42.034684" lon="2.255542">
        <ele>508.774</ele>
        <time>2018-01-09T14:19:26Z</time>
      </trkpt>
      <trkpt lat="42.034634" lon="2.255538">
        <ele>508.322</ele>
        <time>2018-01-09T14:19:30Z</time>
      </trkpt>
      <trkpt lat="42.034578" lon="2.255543">
        <ele>508.877</ele>
        <time>2018-01-09T14:19:34Z</time>
      </trkpt>
      <trkpt lat="42.034523" lon="2.255559">
        <ele>508.452</ele>
        <time>2018-01-09T14:19:38Z</time>
      </trkpt>
      <trkpt lat="42.034466" lon="2.255578">
        <ele>508.038</ele>
        <time>2018-01-09T14:19:43Z</time>
      </trkpt>
      <trkpt lat="42.034415" lon="2.255597">
        <ele>507.641</ele>
        <time>2018-01-09T14:19:47Z</time>
      </trkpt>
      <trkpt lat="42.034371" lon="2.255617">
        <ele>507.425</ele>
        <time>2018-01-09T14:19:51Z</time>
      </trkpt>
      <trkpt lat="42.034326" lon="2.255632">
        <ele>506.982</ele>
        <time>2018-01-09T14:19:55Z</time>
      </trkpt>
      <trkpt lat="42.034273" lon="2.255653">
        <ele>505.943</ele>
        <time>2018-01-09T14:20:00Z</time>
      </trkpt>
      <trkpt lat="42.034227" lon="2.255669">
        <ele>505.517</ele>
        <time>2018-01-09T14:20:04Z</time>
      </trkpt>
      <trkpt lat="42.034170" lon="2.255687">
        <ele>504.908</ele>
        <time>2018-01-09T14:20:08Z</time>
      </trkpt>
      <trkpt lat="42.034116" lon="2.255702">
        <ele>504.780</ele>
        <time>2018-01-09T14:20:12Z</time>
      </trkpt>
      <trkpt lat="42.034068" lon="2.255710">
        <ele>504.089</ele>
        <time>2018-01-09T14:20:16Z</time>
      </trkpt>
      <trkpt lat="42.034012" lon="2.255714">
        <ele>503.577</ele>
        <time>2018-01-09T14:20:20Z</time>
      </trkpt>
      <trkpt lat="42.033958" lon="2.255712">
        <ele>503.042</ele>
        <time>2018-01-09T14:20:24Z</time>
      </trkpt>
      <trkpt lat="42.033898" lon="2.255706">
        <ele>504.337</ele>
        <time>2018-01-09T14:20:28Z</time>
      </trkpt>
      <trkpt lat="42.033844" lon="2.255714">
        <ele>504.533</ele>
        <time>2018-01-09T14:20:32Z</time>
      </trkpt>
      <trkpt lat="42.033792" lon="2.255716">
        <ele>504.356</ele>
        <time>2018-01-09T14:20:36Z</time>
      </trkpt>
      <trkpt lat="42.033746" lon="2.255712">
        <ele>503.460</ele>
        <time>2018-01-09T14:20:40Z</time>
      </trkpt>
      <trkpt lat="42.033692" lon="2.255706">
        <ele>502.033</ele>
        <time>2018-01-09T14:20:45Z</time>
      </trkpt>
      <trkpt lat="42.033640" lon="2.255688">
        <ele>501.323</ele>
        <time>2018-01-09T14:20:50Z</time>
      </trkpt>
      <trkpt lat="42.033594" lon="2.255673">
        <ele>500.815</ele>
        <time>2018-01-09T14:20:54Z</time>
      </trkpt>
      <trkpt lat="42.033546" lon="2.255650">
        <ele>500.508</ele>
        <time>2018-01-09T14:20:58Z</time>
      </trkpt>
      <trkpt lat="42.033496" lon="2.255633">
        <ele>501.275</ele>
        <time>2018-01-09T14:21:02Z</time>
      </trkpt>
      <trkpt lat="42.033442" lon="2.255620">
        <ele>500.684</ele>
        <time>2018-01-09T14:21:06Z</time>
      </trkpt>
      <trkpt lat="42.033390" lon="2.255613">
        <ele>499.632</ele>
        <time>2018-01-09T14:21:10Z</time>
      </trkpt>
      <trkpt lat="42.033336" lon="2.255615">
        <ele>498.987</ele>
        <time>2018-01-09T14:21:14Z</time>
      </trkpt>
      <trkpt lat="42.033289" lon="2.255615">
        <ele>498.532</ele>
        <time>2018-01-09T14:21:18Z</time>
      </trkpt>
      <trkpt lat="42.033233" lon="2.255626">
        <ele>497.558</ele>
        <time>2018-01-09T14:21:22Z</time>
      </trkpt>
      <trkpt lat="42.033184" lon="2.255634">
        <ele>496.581</ele>
        <time>2018-01-09T14:21:26Z</time>
      </trkpt>
      <trkpt lat="42.033131" lon="2.255648">
        <ele>495.525</ele>
        <time>2018-01-09T14:21:30Z</time>
      </trkpt>
      <trkpt lat="42.033075" lon="2.255654">
        <ele>495.674</ele>
        <time>2018-01-09T14:21:34Z</time>
      </trkpt>
      <trkpt lat="42.033025" lon="2.255659">
        <ele>495.056</ele>
        <time>2018-01-09T14:21:38Z</time>
      </trkpt>
      <trkpt lat="42.032976" lon="2.255676">
        <ele>494.821</ele>
        <time>2018-01-09T14:21:42Z</time>
      </trkpt>
      <trkpt lat="42.032927" lon="2.255687">
        <ele>493.708</ele>
        <time>2018-01-09T14:21:46Z</time>
      </trkpt>
      <trkpt lat="42.032881" lon="2.255703">
        <ele>493.599</ele>
        <time>2018-01-09T14:21:50Z</time>
      </trkpt>
      <trkpt lat="42.032832" lon="2.255715">
        <ele>493.298</ele>
        <time>2018-01-09T14:21:54Z</time>
      </trkpt>
      <trkpt lat="42.032777" lon="2.255721">
        <ele>493.116</ele>
        <time>2018-01-09T14:21:58Z</time>
      </trkpt>
      <trkpt lat="42.032723" lon="2.255727">
        <ele>493.031</ele>
        <time>2018-01-09T14:22:02Z</time>
      </trkpt>
      <trkpt lat="42.032666" lon="2.255733">
        <ele>492.896</ele>
        <time>2018-01-09T14:22:06Z</time>
      </trkpt>
      <trkpt lat="42.032611" lon="2.255729">
        <ele>492.872</ele>
        <time>2018-01-09T14:22:10Z</time>
      </trkpt>
      <trkpt lat="42.032558" lon="2.255741">
        <ele>492.985</ele>
        <time>2018-01-09T14:22:14Z</time>
      </trkpt>
      <trkpt lat="42.032508" lon="2.255747">
        <ele>492.679</ele>
        <time>2018-01-09T14:22:18Z</time>
      </trkpt>
      <trkpt lat="42.032458" lon="2.255751">
        <ele>491.864</ele>
        <time>2018-01-09T14:22:22Z</time>
      </trkpt>
      <trkpt lat="42.032410" lon="2.255756">
        <ele>491.106</ele>
        <time>2018-01-09T14:22:26Z</time>
      </trkpt>
      <trkpt lat="42.032358" lon="2.255754">
        <ele>491.016</ele>
        <time>2018-01-09T14:22:30Z</time>
      </trkpt>
      <trkpt lat="42.032313" lon="2.255755">
        <ele>490.608</ele>
        <time>2018-01-09T14:22:33Z</time>
      </trkpt>
      <trkpt lat="42.032267" lon="2.255760">
        <ele>490.468</ele>
        <time>2018-01-09T14:22:36Z</time>
      </trkpt>
      <trkpt lat="42.032212" lon="2.255761">
        <ele>490.027</ele>
        <time>2018-01-09T14:22:40Z</time>
      </trkpt>
      <trkpt lat="42.032162" lon="2.255758">
        <ele>489.855</ele>
        <time>2018-01-09T14:22:44Z</time>
      </trkpt>
      <trkpt lat="42.032113" lon="2.255752">
        <ele>489.080</ele>
        <time>2018-01-09T14:22:48Z</time>
      </trkpt>
      <trkpt lat="42.032061" lon="2.255753">
        <ele>488.435</ele>
        <time>2018-01-09T14:22:52Z</time>
      </trkpt>
      <trkpt lat="42.032008" lon="2.255758">
        <ele>488.661</ele>
        <time>2018-01-09T14:22:56Z</time>
      </trkpt>
      <trkpt lat="42.031962" lon="2.255759">
        <ele>487.994</ele>
        <time>2018-01-09T14:23:00Z</time>
      </trkpt>
      <trkpt lat="42.031952" lon="2.255684">
        <ele>486.538</ele>
        <time>2018-01-09T14:23:38Z</time>
      </trkpt>
      <trkpt lat="42.031947" lon="2.255622">
        <ele>486.796</ele>
        <time>2018-01-09T14:23:42Z</time>
      </trkpt>
      <trkpt lat="42.031949" lon="2.255553">
        <ele>487.331</ele>
        <time>2018-01-09T14:23:46Z</time>
      </trkpt>
      <trkpt lat="42.031954" lon="2.255482">
        <ele>486.424</ele>
        <time>2018-01-09T14:23:50Z</time>
      </trkpt>
      <trkpt lat="42.031955" lon="2.255404">
        <ele>486.408</ele>
        <time>2018-01-09T14:23:55Z</time>
      </trkpt>
      <trkpt lat="42.031952" lon="2.255327">
        <ele>486.381</ele>
        <time>2018-01-09T14:23:59Z</time>
      </trkpt>
      <trkpt lat="42.031949" lon="2.255262">
        <ele>486.760</ele>
        <time>2018-01-09T14:24:03Z</time>
      </trkpt>
      <trkpt lat="42.031945" lon="2.255184">
        <ele>487.318</ele>
        <time>2018-01-09T14:24:07Z</time>
      </trkpt>
      <trkpt lat="42.031938" lon="2.255113">
        <ele>488.083</ele>
        <time>2018-01-09T14:24:11Z</time>
      </trkpt>
      <trkpt lat="42.031933" lon="2.255045">
        <ele>486.688</ele>
        <time>2018-01-09T14:24:15Z</time>
      </trkpt>
      <trkpt lat="42.031920" lon="2.254976">
        <ele>486.114</ele>
        <time>2018-01-09T14:24:19Z</time>
      </trkpt>
      <trkpt lat="42.031901" lon="2.254915">
        <ele>485.937</ele>
        <time>2018-01-09T14:24:23Z</time>
      </trkpt>
      <trkpt lat="42.031869" lon="2.254858">
        <ele>485.681</ele>
        <time>2018-01-09T14:24:27Z</time>
      </trkpt>
      <trkpt lat="42.031830" lon="2.254812">
        <ele>484.996</ele>
        <time>2018-01-09T14:24:31Z</time>
      </trkpt>
      <trkpt lat="42.031787" lon="2.254771">
        <ele>484.731</ele>
        <time>2018-01-09T14:24:35Z</time>
      </trkpt>
      <trkpt lat="42.031743" lon="2.254738">
        <ele>484.724</ele>
        <time>2018-01-09T14:24:39Z</time>
      </trkpt>
      <trkpt lat="42.031692" lon="2.254711">
        <ele>484.008</ele>
        <time>2018-01-09T14:24:43Z</time>
      </trkpt>
      <trkpt lat="42.031636" lon="2.254705">
        <ele>484.551</ele>
        <time>2018-01-09T14:24:47Z</time>
      </trkpt>
      <trkpt lat="42.031580" lon="2.254705">
        <ele>484.380</ele>
        <time>2018-01-09T14:24:51Z</time>
      </trkpt>
      <trkpt lat="42.031535" lon="2.254703">
        <ele>483.928</ele>
        <time>2018-01-09T14:24:54Z</time>
      </trkpt>
      <trkpt lat="42.031478" lon="2.254703">
        <ele>484.693</ele>
        <time>2018-01-09T14:24:58Z</time>
      </trkpt>
      <trkpt lat="42.031424" lon="2.254694">
        <ele>484.278</ele>
        <time>2018-01-09T14:25:02Z</time>
      </trkpt>
      <trkpt lat="42.031374" lon="2.254685">
        <ele>484.074</ele>
        <time>2018-01-09T14:25:06Z</time>
      </trkpt>
      <trkpt lat="42.031326" lon="2.254666">
        <ele>483.977</ele>
        <time>2018-01-09T14:25:10Z</time>
      </trkpt>
      <trkpt lat="42.031280" lon="2.254633">
        <ele>483.751</ele>
        <time>2018-01-09T14:25:15Z</time>
      </trkpt>
      <trkpt lat="42.031226" lon="2.254617">
        <ele>483.411</ele>
        <time>2018-01-09T14:25:19Z</time>
      </trkpt>
      <trkpt lat="42.031172" lon="2.254598">
        <ele>482.621</ele>
        <time>2018-01-09T14:25:23Z</time>
      </trkpt>
      <trkpt lat="42.031132" lon="2.254549">
        <ele>482.403</ele>
        <time>2018-01-09T14:25:28Z</time>
      </trkpt>
      <trkpt lat="42.031106" lon="2.254480">
        <ele>482.808</ele>
        <time>2018-01-09T14:25:32Z</time>
      </trkpt>
      <trkpt lat="42.031088" lon="2.254416">
        <ele>482.533</ele>
        <time>2018-01-09T14:25:36Z</time>
      </trkpt>
      <trkpt lat="42.031087" lon="2.254349">
        <ele>482.882</ele>
        <time>2018-01-09T14:25:40Z</time>
      </trkpt>
      <trkpt lat="42.031100" lon="2.254276">
        <ele>482.890</ele>
        <time>2018-01-09T14:25:45Z</time>
      </trkpt>
      <trkpt lat="42.031114" lon="2.254210">
        <ele>483.755</ele>
        <time>2018-01-09T14:25:49Z</time>
      </trkpt>
      <trkpt lat="42.031122" lon="2.254149">
        <ele>485.050</ele>
        <time>2018-01-09T14:25:53Z</time>
      </trkpt>
      <trkpt lat="42.031116" lon="2.254077">
        <ele>486.766</ele>
        <time>2018-01-09T14:25:58Z</time>
      </trkpt>
      <trkpt lat="42.031100" lon="2.254013">
        <ele>486.779</ele>
        <time>2018-01-09T14:26:02Z</time>
      </trkpt>
      <trkpt lat="42.031057" lon="2.253981">
        <ele>486.983</ele>
        <time>2018-01-09T14:26:06Z</time>
      </trkpt>
      <trkpt lat="42.031001" lon="2.253977">
        <ele>486.752</ele>
        <time>2018-01-09T14:26:10Z</time>
      </trkpt>
      <trkpt lat="42.030949" lon="2.253965">
        <ele>487.153</ele>
        <time>2018-01-09T14:26:14Z</time>
      </trkpt>
      <trkpt lat="42.030901" lon="2.253956">
        <ele>486.808</ele>
        <time>2018-01-09T14:26:18Z</time>
      </trkpt>
      <trkpt lat="42.030849" lon="2.253955">
        <ele>486.808</ele>
        <time>2018-01-09T14:26:22Z</time>
      </trkpt>
      <trkpt lat="42.030800" lon="2.253950">
        <ele>486.877</ele>
        <time>2018-01-09T14:26:26Z</time>
      </trkpt>
      <trkpt lat="42.030753" lon="2.253939">
        <ele>486.146</ele>
        <time>2018-01-09T14:26:31Z</time>
      </trkpt>
      <trkpt lat="42.030714" lon="2.253908">
        <ele>486.324</ele>
        <time>2018-01-09T14:26:35Z</time>
      </trkpt>
      <trkpt lat="42.030669" lon="2.253888">
        <ele>486.379</ele>
        <time>2018-01-09T14:26:39Z</time>
      </trkpt>
      <trkpt lat="42.030622" lon="2.253849">
        <ele>486.634</ele>
        <time>2018-01-09T14:26:43Z</time>
      </trkpt>
      <trkpt lat="42.030581" lon="2.253804">
        <ele>486.290</ele>
        <time>2018-01-09T14:26:47Z</time>
      </trkpt>
      <trkpt lat="42.030550" lon="2.253746">
        <ele>485.793</ele>
        <time>2018-01-09T14:26:51Z</time>
      </trkpt>
      <trkpt lat="42.030536" lon="2.253689">
        <ele>485.987</ele>
        <time>2018-01-09T14:26:54Z</time>
      </trkpt>
      <trkpt lat="42.030513" lon="2.253627">
        <ele>485.462</ele>
        <time>2018-01-09T14:26:58Z</time>
      </trkpt>
      <trkpt lat="42.030495" lon="2.253562">
        <ele>485.083</ele>
        <time>2018-01-09T14:27:02Z</time>
      </trkpt>
      <trkpt lat="42.030484" lon="2.253493">
        <ele>485.311</ele>
        <time>2018-01-09T14:27:06Z</time>
      </trkpt>
      <trkpt lat="42.030477" lon="2.253419">
        <ele>485.408</ele>
        <time>2018-01-09T14:27:10Z</time>
      </trkpt>
      <trkpt lat="42.030471" lon="2.253342">
        <ele>485.318</ele>
        <time>2018-01-09T14:27:14Z</time>
      </trkpt>
      <trkpt lat="42.030474" lon="2.253268">
        <ele>485.357</ele>
        <time>2018-01-09T14:27:18Z</time>
      </trkpt>
      <trkpt lat="42.030480" lon="2.253198">
        <ele>484.815</ele>
        <time>2018-01-09T14:27:22Z</time>
      </trkpt>
      <trkpt lat="42.030484" lon="2.253126">
        <ele>485.750</ele>
        <time>2018-01-09T14:27:26Z</time>
      </trkpt>
      <trkpt lat="42.030485" lon="2.253053">
        <ele>486.245</ele>
        <time>2018-01-09T14:27:30Z</time>
      </trkpt>
      <trkpt lat="42.030489" lon="2.252979">
        <ele>487.291</ele>
        <time>2018-01-09T14:27:34Z</time>
      </trkpt>
      <trkpt lat="42.030497" lon="2.252908">
        <ele>487.764</ele>
        <time>2018-01-09T14:27:38Z</time>
      </trkpt>
      <trkpt lat="42.030505" lon="2.252842">
        <ele>486.998</ele>
        <time>2018-01-09T14:27:42Z</time>
      </trkpt>
      <trkpt lat="42.030509" lon="2.252764">
        <ele>487.291</ele>
        <time>2018-01-09T14:27:46Z</time>
      </trkpt>
      <trkpt lat="42.030504" lon="2.252695">
        <ele>487.381</ele>
        <time>2018-01-09T14:27:50Z</time>
      </trkpt>
      <trkpt lat="42.030501" lon="2.252623">
        <ele>487.219</ele>
        <time>2018-01-09T14:27:54Z</time>
      </trkpt>
      <trkpt lat="42.030501" lon="2.252552">
        <ele>487.308</ele>
        <time>2018-01-09T14:27:58Z</time>
      </trkpt>
      <trkpt lat="42.030504" lon="2.252484">
        <ele>487.581</ele>
        <time>2018-01-09T14:28:02Z</time>
      </trkpt>
      <trkpt lat="42.030508" lon="2.252414">
        <ele>487.350</ele>
        <time>2018-01-09T14:28:06Z</time>
      </trkpt>
      <trkpt lat="42.030516" lon="2.252348">
        <ele>487.798</ele>
        <time>2018-01-09T14:28:10Z</time>
      </trkpt>
      <trkpt lat="42.030529" lon="2.252276">
        <ele>487.843</ele>
        <time>2018-01-09T14:28:14Z</time>
      </trkpt>
      <trkpt lat="42.030534" lon="2.252201">
        <ele>488.328</ele>
        <time>2018-01-09T14:28:18Z</time>
      </trkpt>
      <trkpt lat="42.030538" lon="2.252121">
        <ele>489.194</ele>
        <time>2018-01-09T14:28:22Z</time>
      </trkpt>
      <trkpt lat="42.030536" lon="2.252050">
        <ele>489.577</ele>
        <time>2018-01-09T14:28:26Z</time>
      </trkpt>
      <trkpt lat="42.030527" lon="2.251985">
        <ele>490.011</ele>
        <time>2018-01-09T14:28:30Z</time>
      </trkpt>
      <trkpt lat="42.030526" lon="2.251917">
        <ele>490.913</ele>
        <time>2018-01-09T14:28:34Z</time>
      </trkpt>
      <trkpt lat="42.030528" lon="2.251846">
        <ele>491.543</ele>
        <time>2018-01-09T14:28:38Z</time>
      </trkpt>
      <trkpt lat="42.030528" lon="2.251776">
        <ele>491.407</ele>
        <time>2018-01-09T14:28:42Z</time>
      </trkpt>
      <trkpt lat="42.030536" lon="2.251712">
        <ele>491.308</ele>
        <time>2018-01-09T14:28:46Z</time>
      </trkpt>
      <trkpt lat="42.030547" lon="2.251643">
        <ele>491.853</ele>
        <time>2018-01-09T14:28:50Z</time>
      </trkpt>
      <trkpt lat="42.030571" lon="2.251584">
        <ele>491.322</ele>
        <time>2018-01-09T14:28:54Z</time>
      </trkpt>
      <trkpt lat="42.030599" lon="2.251531">
        <ele>491.460</ele>
        <time>2018-01-09T14:28:58Z</time>
      </trkpt>
      <trkpt lat="42.030623" lon="2.251467">
        <ele>491.235</ele>
        <time>2018-01-09T14:29:03Z</time>
      </trkpt>
      <trkpt lat="42.030669" lon="2.251430">
        <ele>490.940</ele>
        <time>2018-01-09T14:29:07Z</time>
      </trkpt>
      <trkpt lat="42.030704" lon="2.251381">
        <ele>491.476</ele>
        <time>2018-01-09T14:29:11Z</time>
      </trkpt>
      <trkpt lat="42.030752" lon="2.251348">
        <ele>492.089</ele>
        <time>2018-01-09T14:29:16Z</time>
      </trkpt>
      <trkpt lat="42.030805" lon="2.251329">
        <ele>492.053</ele>
        <time>2018-01-09T14:29:20Z</time>
      </trkpt>
      <trkpt lat="42.030859" lon="2.251323">
        <ele>491.469</ele>
        <time>2018-01-09T14:29:24Z</time>
      </trkpt>
      <trkpt lat="42.030912" lon="2.251338">
        <ele>491.804</ele>
        <time>2018-01-09T14:29:28Z</time>
      </trkpt>
      <trkpt lat="42.030949" lon="2.251298">
        <ele>492.024</ele>
        <time>2018-01-09T14:29:32Z</time>
      </trkpt>
      <trkpt lat="42.030934" lon="2.251233">
        <ele>491.908</ele>
        <time>2018-01-09T14:29:36Z</time>
      </trkpt>
      <trkpt lat="42.030896" lon="2.251196">
        <ele>491.618</ele>
        <time>2018-01-09T14:29:39Z</time>
      </trkpt>
      <trkpt lat="42.030840" lon="2.251186">
        <ele>491.667</ele>
        <time>2018-01-09T14:29:43Z</time>
      </trkpt>
      <trkpt lat="42.030787" lon="2.251193">
        <ele>491.515</ele>
        <time>2018-01-09T14:29:47Z</time>
      </trkpt>
      <trkpt lat="42.030740" lon="2.251200">
        <ele>491.130</ele>
        <time>2018-01-09T14:29:51Z</time>
      </trkpt>
      <trkpt lat="42.030689" lon="2.251214">
        <ele>490.845</ele>
        <time>2018-01-09T14:29:57Z</time>
      </trkpt>
      <trkpt lat="42.030639" lon="2.251227">
        <ele>490.371</ele>
        <time>2018-01-09T14:30:01Z</time>
      </trkpt>
      <trkpt lat="42.030588" lon="2.251247">
        <ele>490.054</ele>
        <time>2018-01-09T14:30:05Z</time>
      </trkpt>
      <trkpt lat="42.030535" lon="2.251273">
        <ele>490.268</ele>
        <time>2018-01-09T14:30:09Z</time>
      </trkpt>
      <trkpt lat="42.030487" lon="2.251296">
        <ele>488.546</ele>
        <time>2018-01-09T14:30:13Z</time>
      </trkpt>
      <trkpt lat="42.030434" lon="2.251327">
        <ele>487.688</ele>
        <time>2018-01-09T14:30:17Z</time>
      </trkpt>
      <trkpt lat="42.030392" lon="2.251359">
        <ele>487.316</ele>
        <time>2018-01-09T14:30:21Z</time>
      </trkpt>
      <trkpt lat="42.030354" lon="2.251399">
        <ele>486.608</ele>
        <time>2018-01-09T14:30:25Z</time>
      </trkpt>
      <trkpt lat="42.030321" lon="2.251454">
        <ele>485.746</ele>
        <time>2018-01-09T14:30:29Z</time>
      </trkpt>
      <trkpt lat="42.030297" lon="2.251516">
        <ele>484.625</ele>
        <time>2018-01-09T14:30:33Z</time>
      </trkpt>
      <trkpt lat="42.030281" lon="2.251578">
        <ele>483.323</ele>
        <time>2018-01-09T14:30:37Z</time>
      </trkpt>
      <trkpt lat="42.030283" lon="2.251641">
        <ele>482.958</ele>
        <time>2018-01-09T14:30:41Z</time>
      </trkpt>
      <trkpt lat="42.030283" lon="2.251712">
        <ele>481.783</ele>
        <time>2018-01-09T14:30:46Z</time>
      </trkpt>
      <trkpt lat="42.030283" lon="2.251780">
        <ele>481.199</ele>
        <time>2018-01-09T14:30:50Z</time>
      </trkpt>
      <trkpt lat="42.030280" lon="2.251849">
        <ele>480.172</ele>
        <time>2018-01-09T14:30:54Z</time>
      </trkpt>
      <trkpt lat="42.030276" lon="2.251917">
        <ele>480.426</ele>
        <time>2018-01-09T14:30:58Z</time>
      </trkpt>
      <trkpt lat="42.030275" lon="2.251993">
        <ele>479.958</ele>
        <time>2018-01-09T14:31:02Z</time>
      </trkpt>
      <trkpt lat="42.030274" lon="2.252068">
        <ele>479.152</ele>
        <time>2018-01-09T14:31:06Z</time>
      </trkpt>
      <trkpt lat="42.030268" lon="2.252139">
        <ele>478.417</ele>
        <time>2018-01-09T14:31:10Z</time>
      </trkpt>
      <trkpt lat="42.030261" lon="2.252205">
        <ele>477.408</ele>
        <time>2018-01-09T14:31:14Z</time>
      </trkpt>
      <trkpt lat="42.030252" lon="2.252269">
        <ele>476.857</ele>
        <time>2018-01-09T14:31:18Z</time>
      </trkpt>
      <trkpt lat="42.030242" lon="2.252336">
        <ele>476.596</ele>
        <time>2018-01-09T14:31:22Z</time>
      </trkpt>
      <trkpt lat="42.030232" lon="2.252406">
        <ele>476.164</ele>
        <time>2018-01-09T14:31:26Z</time>
      </trkpt>
      <trkpt lat="42.030214" lon="2.252468">
        <ele>474.769</ele>
        <time>2018-01-09T14:31:30Z</time>
      </trkpt>
      <trkpt lat="42.030207" lon="2.252537">
        <ele>474.394</ele>
        <time>2018-01-09T14:31:34Z</time>
      </trkpt>
      <trkpt lat="42.030188" lon="2.252606">
        <ele>473.030</ele>
        <time>2018-01-09T14:31:39Z</time>
      </trkpt>
      <trkpt lat="42.030164" lon="2.252669">
        <ele>473.013</ele>
        <time>2018-01-09T14:31:44Z</time>
      </trkpt>
      <trkpt lat="42.030132" lon="2.252713">
        <ele>472.947</ele>
        <time>2018-01-09T14:31:54Z</time>
      </trkpt>
      <trkpt lat="42.030089" lon="2.252741">
        <ele>473.698</ele>
        <time>2018-01-09T14:31:58Z</time>
      </trkpt>
      <trkpt lat="42.030041" lon="2.252772">
        <ele>474.715</ele>
        <time>2018-01-09T14:32:16Z</time>
      </trkpt>
      <trkpt lat="42.029998" lon="2.252826">
        <ele>475.026</ele>
        <time>2018-01-09T14:32:20Z</time>
      </trkpt>
      <trkpt lat="42.029957" lon="2.252879">
        <ele>474.808</ele>
        <time>2018-01-09T14:32:24Z</time>
      </trkpt>
      <trkpt lat="42.029923" lon="2.252930">
        <ele>474.931</ele>
        <time>2018-01-09T14:32:28Z</time>
      </trkpt>
      <trkpt lat="42.029888" lon="2.252988">
        <ele>474.910</ele>
        <time>2018-01-09T14:32:32Z</time>
      </trkpt>
      <trkpt lat="42.029828" lon="2.253008">
        <ele>474.448</ele>
        <time>2018-01-09T14:32:35Z</time>
      </trkpt>
      <trkpt lat="42.029784" lon="2.253034">
        <ele>474.173</ele>
        <time>2018-01-09T14:32:38Z</time>
      </trkpt>
      <trkpt lat="42.029743" lon="2.253064">
        <ele>474.138</ele>
        <time>2018-01-09T14:32:41Z</time>
      </trkpt>
      <trkpt lat="42.029714" lon="2.253128">
        <ele>475.274</ele>
        <time>2018-01-09T14:32:45Z</time>
      </trkpt>
      <trkpt lat="42.029674" lon="2.253171">
        <ele>474.947</ele>
        <time>2018-01-09T14:32:49Z</time>
      </trkpt>
      <trkpt lat="42.029634" lon="2.253208">
        <ele>475.231</ele>
        <time>2018-01-09T14:32:54Z</time>
      </trkpt>
      <trkpt lat="42.029600" lon="2.253249">
        <ele>474.714</ele>
        <time>2018-01-09T14:32:58Z</time>
      </trkpt>
      <trkpt lat="42.029575" lon="2.253305">
        <ele>474.454</ele>
        <time>2018-01-09T14:33:02Z</time>
      </trkpt>
      <trkpt lat="42.029541" lon="2.253351">
        <ele>474.809</ele>
        <time>2018-01-09T14:33:06Z</time>
      </trkpt>
      <trkpt lat="42.029501" lon="2.253394">
        <ele>474.808</ele>
        <time>2018-01-09T14:33:10Z</time>
      </trkpt>
      <trkpt lat="42.029466" lon="2.253436">
        <ele>475.133</ele>
        <time>2018-01-09T14:33:14Z</time>
      </trkpt>
      <trkpt lat="42.029426" lon="2.253474">
        <ele>475.562</ele>
        <time>2018-01-09T14:33:18Z</time>
      </trkpt>
      <trkpt lat="42.029378" lon="2.253524">
        <ele>475.420</ele>
        <time>2018-01-09T14:33:23Z</time>
      </trkpt>
      <trkpt lat="42.029332" lon="2.253571">
        <ele>475.645</ele>
        <time>2018-01-09T14:33:27Z</time>
      </trkpt>
      <trkpt lat="42.029296" lon="2.253611">
        <ele>475.680</ele>
        <time>2018-01-09T14:33:30Z</time>
      </trkpt>
      <trkpt lat="42.029250" lon="2.253642">
        <ele>476.186</ele>
        <time>2018-01-09T14:33:33Z</time>
      </trkpt>
      <trkpt lat="42.029207" lon="2.253672">
        <ele>475.879</ele>
        <time>2018-01-09T14:33:36Z</time>
      </trkpt>
      <trkpt lat="42.029176" lon="2.253721">
        <ele>476.633</ele>
        <time>2018-01-09T14:33:39Z</time>
      </trkpt>
      <trkpt lat="42.029146" lon="2.253768">
        <ele>477.586</ele>
        <time>2018-01-09T14:33:42Z</time>
      </trkpt>
      <trkpt lat="42.029118" lon="2.253816">
        <ele>478.160</ele>
        <time>2018-01-09T14:33:45Z</time>
      </trkpt>
      <trkpt lat="42.029087" lon="2.253870">
        <ele>477.026</ele>
        <time>2018-01-09T14:33:49Z</time>
      </trkpt>
      <trkpt lat="42.029065" lon="2.253928">
        <ele>476.808</ele>
        <time>2018-01-09T14:33:53Z</time>
      </trkpt>
      <trkpt lat="42.029043" lon="2.253990">
        <ele>477.260</ele>
        <time>2018-01-09T14:33:57Z</time>
      </trkpt>
      <trkpt lat="42.029021" lon="2.254058">
        <ele>477.139</ele>
        <time>2018-01-09T14:34:01Z</time>
      </trkpt>
      <trkpt lat="42.029001" lon="2.254117">
        <ele>476.577</ele>
        <time>2018-01-09T14:34:05Z</time>
      </trkpt>
      <trkpt lat="42.028986" lon="2.254185">
        <ele>476.322</ele>
        <time>2018-01-09T14:34:09Z</time>
      </trkpt>
      <trkpt lat="42.028966" lon="2.254244">
        <ele>476.077</ele>
        <time>2018-01-09T14:34:13Z</time>
      </trkpt>
      <trkpt lat="42.028927" lon="2.254302">
        <ele>474.453</ele>
        <time>2018-01-09T14:34:17Z</time>
      </trkpt>
      <trkpt lat="42.028890" lon="2.254350">
        <ele>475.136</ele>
        <time>2018-01-09T14:34:21Z</time>
      </trkpt>
      <trkpt lat="42.028860" lon="2.254407">
        <ele>475.250</ele>
        <time>2018-01-09T14:34:25Z</time>
      </trkpt>
      <trkpt lat="42.028818" lon="2.254431">
        <ele>476.314</ele>
        <time>2018-01-09T14:34:30Z</time>
      </trkpt>
      <trkpt lat="42.028857" lon="2.254468">
        <ele>475.954</ele>
        <time>2018-01-09T14:34:42Z</time>
      </trkpt>
      <trkpt lat="42.028895" lon="2.254517">
        <ele>474.709</ele>
        <time>2018-01-09T14:34:47Z</time>
      </trkpt>
      <trkpt lat="42.028919" lon="2.254581">
        <ele>473.708</ele>
        <time>2018-01-09T14:34:52Z</time>
      </trkpt>
      <trkpt lat="42.028943" lon="2.254646">
        <ele>474.793</ele>
        <time>2018-01-09T14:34:58Z</time>
      </trkpt>
      <trkpt lat="42.028974" lon="2.254699">
        <ele>474.012</ele>
        <time>2018-01-09T14:35:02Z</time>
      </trkpt>
      <trkpt lat="42.029008" lon="2.254741">
        <ele>474.380</ele>
        <time>2018-01-09T14:35:06Z</time>
      </trkpt>
      <trkpt lat="42.029041" lon="2.254786">
        <ele>472.435</ele>
        <time>2018-01-09T14:35:12Z</time>
      </trkpt>
      <trkpt lat="42.029076" lon="2.254842">
        <ele>473.710</ele>
        <time>2018-01-09T14:35:16Z</time>
      </trkpt>
      <trkpt lat="42.029103" lon="2.254900">
        <ele>472.856</ele>
        <time>2018-01-09T14:35:21Z</time>
      </trkpt>
      <trkpt lat="42.029129" lon="2.254958">
        <ele>471.829</ele>
        <time>2018-01-09T14:35:25Z</time>
      </trkpt>
      <trkpt lat="42.029159" lon="2.255027">
        <ele>471.313</ele>
        <time>2018-01-09T14:35:29Z</time>
      </trkpt>
      <trkpt lat="42.029177" lon="2.255093">
        <ele>471.844</ele>
        <time>2018-01-09T14:35:33Z</time>
      </trkpt>
      <trkpt lat="42.029187" lon="2.255155">
        <ele>472.205</ele>
        <time>2018-01-09T14:35:36Z</time>
      </trkpt>
      <trkpt lat="42.029205" lon="2.255222">
        <ele>472.315</ele>
        <time>2018-01-09T14:35:39Z</time>
      </trkpt>
      <trkpt lat="42.029209" lon="2.255303">
        <ele>472.408</ele>
        <time>2018-01-09T14:35:43Z</time>
      </trkpt>
      <trkpt lat="42.029211" lon="2.255367">
        <ele>473.336</ele>
        <time>2018-01-09T14:35:46Z</time>
      </trkpt>
      <trkpt lat="42.029218" lon="2.255428">
        <ele>473.235</ele>
        <time>2018-01-09T14:35:49Z</time>
      </trkpt>
      <trkpt lat="42.029230" lon="2.255499">
        <ele>472.363</ele>
        <time>2018-01-09T14:35:54Z</time>
      </trkpt>
      <trkpt lat="42.029219" lon="2.255566">
        <ele>471.658</ele>
        <time>2018-01-09T14:36:00Z</time>
      </trkpt>
      <trkpt lat="42.029211" lon="2.255646">
        <ele>471.343</ele>
        <time>2018-01-09T14:36:03Z</time>
      </trkpt>
      <trkpt lat="42.029210" lon="2.255711">
        <ele>471.259</ele>
        <time>2018-01-09T14:36:05Z</time>
      </trkpt>
      <trkpt lat="42.029208" lon="2.255800">
        <ele>471.582</ele>
        <time>2018-01-09T14:36:08Z</time>
      </trkpt>
      <trkpt lat="42.029203" lon="2.255883">
        <ele>473.186</ele>
        <time>2018-01-09T14:36:11Z</time>
      </trkpt>
      <trkpt lat="42.029198" lon="2.255945">
        <ele>473.415</ele>
        <time>2018-01-09T14:36:13Z</time>
      </trkpt>
      <trkpt lat="42.029193" lon="2.256012">
        <ele>472.665</ele>
        <time>2018-01-09T14:36:16Z</time>
      </trkpt>
      <trkpt lat="42.029187" lon="2.256078">
        <ele>473.711</ele>
        <time>2018-01-09T14:36:19Z</time>
      </trkpt>
      <trkpt lat="42.029180" lon="2.256155">
        <ele>472.908</ele>
        <time>2018-01-09T14:36:24Z</time>
      </trkpt>
      <trkpt lat="42.029188" lon="2.256220">
        <ele>473.613</ele>
        <time>2018-01-09T14:36:28Z</time>
      </trkpt>
      <trkpt lat="42.029190" lon="2.256286">
        <ele>473.142</ele>
        <time>2018-01-09T14:36:32Z</time>
      </trkpt>
      <trkpt lat="42.029187" lon="2.256347">
        <ele>473.990</ele>
        <time>2018-01-09T14:36:36Z</time>
      </trkpt>
      <trkpt lat="42.029166" lon="2.256421">
        <ele>474.135</ele>
        <time>2018-01-09T14:36:41Z</time>
      </trkpt>
      <trkpt lat="42.029155" lon="2.256492">
        <ele>474.580</ele>
        <time>2018-01-09T14:36:45Z</time>
      </trkpt>
      <trkpt lat="42.029145" lon="2.256566">
        <ele>475.526</ele>
        <time>2018-01-09T14:36:49Z</time>
      </trkpt>
      <trkpt lat="42.029123" lon="2.256626">
        <ele>475.379</ele>
        <time>2018-01-09T14:36:52Z</time>
      </trkpt>
      <trkpt lat="42.029105" lon="2.256686">
        <ele>474.973</ele>
        <time>2018-01-09T14:36:55Z</time>
      </trkpt>
      <trkpt lat="42.029078" lon="2.256747">
        <ele>475.444</ele>
        <time>2018-01-09T14:36:59Z</time>
      </trkpt>
      <trkpt lat="42.029034" lon="2.256798">
        <ele>475.805</ele>
        <time>2018-01-09T14:37:02Z</time>
      </trkpt>
      <trkpt lat="42.029001" lon="2.256855">
        <ele>476.115</ele>
        <time>2018-01-09T14:37:05Z</time>
      </trkpt>
      <trkpt lat="42.028978" lon="2.256910">
        <ele>476.308</ele>
        <time>2018-01-09T14:37:08Z</time>
      </trkpt>
      <trkpt lat="42.028947" lon="2.256970">
        <ele>476.816</ele>
        <time>2018-01-09T14:37:12Z</time>
      </trkpt>
      <trkpt lat="42.028908" lon="2.257022">
        <ele>476.745</ele>
        <time>2018-01-09T14:37:16Z</time>
      </trkpt>
      <trkpt lat="42.028874" lon="2.257061">
        <ele>477.683</ele>
        <time>2018-01-09T14:37:19Z</time>
      </trkpt>
      <trkpt lat="42.028838" lon="2.257109">
        <ele>478.828</ele>
        <time>2018-01-09T14:37:22Z</time>
      </trkpt>
      <trkpt lat="42.028802" lon="2.257148">
        <ele>478.683</ele>
        <time>2018-01-09T14:37:25Z</time>
      </trkpt>
      <trkpt lat="42.028767" lon="2.257205">
        <ele>479.119</ele>
        <time>2018-01-09T14:37:29Z</time>
      </trkpt>
      <trkpt lat="42.028726" lon="2.257245">
        <ele>479.542</ele>
        <time>2018-01-09T14:37:33Z</time>
      </trkpt>
      <trkpt lat="42.028691" lon="2.257294">
        <ele>479.876</ele>
        <time>2018-01-09T14:37:37Z</time>
      </trkpt>
      <trkpt lat="42.028655" lon="2.257343">
        <ele>478.568</ele>
        <time>2018-01-09T14:37:41Z</time>
      </trkpt>
      <trkpt lat="42.028615" lon="2.257399">
        <ele>478.242</ele>
        <time>2018-01-09T14:37:45Z</time>
      </trkpt>
      <trkpt lat="42.028572" lon="2.257448">
        <ele>477.226</ele>
        <time>2018-01-09T14:37:49Z</time>
      </trkpt>
      <trkpt lat="42.028525" lon="2.257480">
        <ele>477.008</ele>
        <time>2018-01-09T14:37:54Z</time>
      </trkpt>
      <trkpt lat="42.028488" lon="2.257517">
        <ele>476.358</ele>
        <time>2018-01-09T14:37:59Z</time>
      </trkpt>
      <trkpt lat="42.028437" lon="2.257539">
        <ele>476.037</ele>
        <time>2018-01-09T14:38:03Z</time>
      </trkpt>
      <trkpt lat="42.028397" lon="2.257571">
        <ele>476.135</ele>
        <time>2018-01-09T14:38:08Z</time>
      </trkpt>
      <trkpt lat="42.028344" lon="2.257574">
        <ele>476.970</ele>
        <time>2018-01-09T14:38:12Z</time>
      </trkpt>
      <trkpt lat="42.028293" lon="2.257555">
        <ele>476.195</ele>
        <time>2018-01-09T14:38:16Z</time>
      </trkpt>
      <trkpt lat="42.028236" lon="2.257549">
        <ele>476.211</ele>
        <time>2018-01-09T14:38:20Z</time>
      </trkpt>
      <trkpt lat="42.028181" lon="2.257550">
        <ele>476.914</ele>
        <time>2018-01-09T14:38:24Z</time>
      </trkpt>
      <trkpt lat="42.028131" lon="2.257542">
        <ele>477.418</ele>
        <time>2018-01-09T14:38:29Z</time>
      </trkpt>
      <trkpt lat="42.028083" lon="2.257539">
        <ele>477.872</ele>
        <time>2018-01-09T14:38:33Z</time>
      </trkpt>
      <trkpt lat="42.028031" lon="2.257541">
        <ele>477.813</ele>
        <time>2018-01-09T14:38:38Z</time>
      </trkpt>
      <trkpt lat="42.027986" lon="2.257556">
        <ele>479.514</ele>
        <time>2018-01-09T14:38:43Z</time>
      </trkpt>
      <trkpt lat="42.027930" lon="2.257559">
        <ele>480.008</ele>
        <time>2018-01-09T14:38:46Z</time>
      </trkpt>
      <trkpt lat="42.027874" lon="2.257549">
        <ele>480.769</ele>
        <time>2018-01-09T14:38:50Z</time>
      </trkpt>
      <trkpt lat="42.027829" lon="2.257542">
        <ele>481.958</ele>
        <time>2018-01-09T14:38:54Z</time>
      </trkpt>
      <trkpt lat="42.027777" lon="2.257534">
        <ele>481.636</ele>
        <time>2018-01-09T14:38:58Z</time>
      </trkpt>
      <trkpt lat="42.027724" lon="2.257525">
        <ele>480.571</ele>
        <time>2018-01-09T14:39:01Z</time>
      </trkpt>
      <trkpt lat="42.027667" lon="2.257506">
        <ele>480.356</ele>
        <time>2018-01-09T14:39:05Z</time>
      </trkpt>
      <trkpt lat="42.027625" lon="2.257480">
        <ele>481.082</ele>
        <time>2018-01-09T14:39:08Z</time>
      </trkpt>
      <trkpt lat="42.027582" lon="2.257452">
        <ele>482.385</ele>
        <time>2018-01-09T14:39:12Z</time>
      </trkpt>
      <trkpt lat="42.027532" lon="2.257436">
        <ele>481.899</ele>
        <time>2018-01-09T14:39:16Z</time>
      </trkpt>
      <trkpt lat="42.027480" lon="2.257431">
        <ele>482.537</ele>
        <time>2018-01-09T14:39:20Z</time>
      </trkpt>
      <trkpt lat="42.027428" lon="2.257400">
        <ele>482.549</ele>
        <time>2018-01-09T14:39:24Z</time>
      </trkpt>
      <trkpt lat="42.027380" lon="2.257393">
        <ele>483.913</ele>
        <time>2018-01-09T14:39:29Z</time>
      </trkpt>
      <trkpt lat="42.027333" lon="2.257386">
        <ele>484.408</ele>
        <time>2018-01-09T14:39:33Z</time>
      </trkpt>
      <trkpt lat="42.027277" lon="2.257373">
        <ele>484.495</ele>
        <time>2018-01-09T14:39:36Z</time>
      </trkpt>
      <trkpt lat="42.027230" lon="2.257361">
        <ele>485.484</ele>
        <time>2018-01-09T14:39:39Z</time>
      </trkpt>
      <trkpt lat="42.027177" lon="2.257353">
        <ele>484.832</ele>
        <time>2018-01-09T14:39:44Z</time>
      </trkpt>
      <trkpt lat="42.027117" lon="2.257341">
        <ele>484.217</ele>
        <time>2018-01-09T14:39:49Z</time>
      </trkpt>
      <trkpt lat="42.027062" lon="2.257343">
        <ele>484.052</ele>
        <time>2018-01-09T14:39:54Z</time>
      </trkpt>
      <trkpt lat="42.027005" lon="2.257319">
        <ele>482.728</ele>
        <time>2018-01-09T14:39:58Z</time>
      </trkpt>
      <trkpt lat="42.026957" lon="2.257311">
        <ele>482.831</ele>
        <time>2018-01-09T14:40:01Z</time>
      </trkpt>
      <trkpt lat="42.026897" lon="2.257300">
        <ele>483.125</ele>
        <time>2018-01-09T14:40:05Z</time>
      </trkpt>
      <trkpt lat="42.026852" lon="2.257281">
        <ele>482.166</ele>
        <time>2018-01-09T14:40:08Z</time>
      </trkpt>
      <trkpt lat="42.026805" lon="2.257264">
        <ele>480.329</ele>
        <time>2018-01-09T14:40:11Z</time>
      </trkpt>
      <trkpt lat="42.026753" lon="2.257251">
        <ele>479.721</ele>
        <time>2018-01-09T14:40:14Z</time>
      </trkpt>
      <trkpt lat="42.026701" lon="2.257235">
        <ele>479.708</ele>
        <time>2018-01-09T14:40:17Z</time>
      </trkpt>
      <trkpt lat="42.026651" lon="2.257220">
        <ele>479.998</ele>
        <time>2018-01-09T14:40:21Z</time>
      </trkpt>
      <trkpt lat="42.026592" lon="2.257214">
        <ele>480.317</ele>
        <time>2018-01-09T14:40:25Z</time>
      </trkpt>
      <trkpt lat="42.026538" lon="2.257201">
        <ele>480.185</ele>
        <time>2018-01-09T14:40:29Z</time>
      </trkpt>
      <trkpt lat="42.026491" lon="2.257193">
        <ele>480.740</ele>
        <time>2018-01-09T14:40:32Z</time>
      </trkpt>
      <trkpt lat="42.026442" lon="2.257164">
        <ele>481.055</ele>
        <time>2018-01-09T14:40:36Z</time>
      </trkpt>
      <trkpt lat="42.026389" lon="2.257144">
        <ele>481.471</ele>
        <time>2018-01-09T14:40:41Z</time>
      </trkpt>
      <trkpt lat="42.026331" lon="2.257133">
        <ele>481.884</ele>
        <time>2018-01-09T14:40:45Z</time>
      </trkpt>
      <trkpt lat="42.026286" lon="2.257116">
        <ele>481.318</ele>
        <time>2018-01-09T14:40:48Z</time>
      </trkpt>
      <trkpt lat="42.026233" lon="2.257095">
        <ele>481.349</ele>
        <time>2018-01-09T14:40:52Z</time>
      </trkpt>
      <trkpt lat="42.026183" lon="2.257064">
        <ele>482.202</ele>
        <time>2018-01-09T14:40:57Z</time>
      </trkpt>
      <trkpt lat="42.026141" lon="2.257034">
        <ele>481.022</ele>
        <time>2018-01-09T14:41:00Z</time>
      </trkpt>
      <trkpt lat="42.026098" lon="2.257007">
        <ele>480.208</ele>
        <time>2018-01-09T14:41:03Z</time>
      </trkpt>
      <trkpt lat="42.026055" lon="2.256981">
        <ele>479.086</ele>
        <time>2018-01-09T14:41:06Z</time>
      </trkpt>
      <trkpt lat="42.026002" lon="2.256947">
        <ele>478.695</ele>
        <time>2018-01-09T14:41:10Z</time>
      </trkpt>
      <trkpt lat="42.025956" lon="2.256911">
        <ele>478.073</ele>
        <time>2018-01-09T14:41:14Z</time>
      </trkpt>
      <trkpt lat="42.025912" lon="2.256897">
        <ele>477.338</ele>
        <time>2018-01-09T14:41:18Z</time>
      </trkpt>
      <trkpt lat="42.025868" lon="2.256864">
        <ele>476.563</ele>
        <time>2018-01-09T14:41:22Z</time>
      </trkpt>
      <trkpt lat="42.025831" lon="2.256821">
        <ele>476.229</ele>
        <time>2018-01-09T14:41:25Z</time>
      </trkpt>
      <trkpt lat="42.025791" lon="2.256784">
        <ele>476.252</ele>
        <time>2018-01-09T14:41:29Z</time>
      </trkpt>
      <trkpt lat="42.025750" lon="2.256753">
        <ele>476.076</ele>
        <time>2018-01-09T14:41:33Z</time>
      </trkpt>
      <trkpt lat="42.025704" lon="2.256703">
        <ele>475.595</ele>
        <time>2018-01-09T14:41:37Z</time>
      </trkpt>
      <trkpt lat="42.025666" lon="2.256669">
        <ele>475.749</ele>
        <time>2018-01-09T14:41:40Z</time>
      </trkpt>
      <trkpt lat="42.025621" lon="2.256629">
        <ele>475.823</ele>
        <time>2018-01-09T14:41:44Z</time>
      </trkpt>
      <trkpt lat="42.025578" lon="2.256609">
        <ele>475.308</ele>
        <time>2018-01-09T14:41:48Z</time>
      </trkpt>
      <trkpt lat="42.025536" lon="2.256580">
        <ele>475.731</ele>
        <time>2018-01-09T14:41:52Z</time>
      </trkpt>
      <trkpt lat="42.025484" lon="2.256548">
        <ele>475.580</ele>
        <time>2018-01-09T14:41:57Z</time>
      </trkpt>
      <trkpt lat="42.025439" lon="2.256516">
        <ele>475.548</ele>
        <time>2018-01-09T14:42:01Z</time>
      </trkpt>
      <trkpt lat="42.025394" lon="2.256476">
        <ele>475.483</ele>
        <time>2018-01-09T14:42:05Z</time>
      </trkpt>
      <trkpt lat="42.025348" lon="2.256430">
        <ele>475.768</ele>
        <time>2018-01-09T14:42:09Z</time>
      </trkpt>
      <trkpt lat="42.025300" lon="2.256389">
        <ele>474.874</ele>
        <time>2018-01-09T14:42:13Z</time>
      </trkpt>
      <trkpt lat="42.025254" lon="2.256351">
        <ele>475.767</ele>
        <time>2018-01-09T14:42:17Z</time>
      </trkpt>
      <trkpt lat="42.025216" lon="2.256316">
        <ele>476.341</ele>
        <time>2018-01-09T14:42:20Z</time>
      </trkpt>
      <trkpt lat="42.025170" lon="2.256267">
        <ele>476.321</ele>
        <time>2018-01-09T14:42:24Z</time>
      </trkpt>
      <trkpt lat="42.025130" lon="2.256232">
        <ele>474.841</ele>
        <time>2018-01-09T14:42:29Z</time>
      </trkpt>
      <trkpt lat="42.025088" lon="2.256195">
        <ele>474.405</ele>
        <time>2018-01-09T14:42:34Z</time>
      </trkpt>
      <trkpt lat="42.025044" lon="2.256167">
        <ele>473.408</ele>
        <time>2018-01-09T14:42:39Z</time>
      </trkpt>
      <trkpt lat="42.024997" lon="2.256118">
        <ele>473.314</ele>
        <time>2018-01-09T14:42:44Z</time>
      </trkpt>
      <trkpt lat="42.024959" lon="2.256078">
        <ele>473.233</ele>
        <time>2018-01-09T14:42:47Z</time>
      </trkpt>
      <trkpt lat="42.024920" lon="2.256035">
        <ele>473.351</ele>
        <time>2018-01-09T14:42:51Z</time>
      </trkpt>
      <trkpt lat="42.024879" lon="2.255999">
        <ele>473.126</ele>
        <time>2018-01-09T14:42:57Z</time>
      </trkpt>
      <trkpt lat="42.024837" lon="2.255958">
        <ele>473.531</ele>
        <time>2018-01-09T14:43:01Z</time>
      </trkpt>
      <trkpt lat="42.024788" lon="2.255916">
        <ele>474.027</ele>
        <time>2018-01-09T14:43:05Z</time>
      </trkpt>
      <trkpt lat="42.024742" lon="2.255862">
        <ele>474.130</ele>
        <time>2018-01-09T14:43:09Z</time>
      </trkpt>
      <trkpt lat="42.024694" lon="2.255820">
        <ele>473.464</ele>
        <time>2018-01-09T14:43:13Z</time>
      </trkpt>
      <trkpt lat="42.024647" lon="2.255794">
        <ele>473.746</ele>
        <time>2018-01-09T14:43:17Z</time>
      </trkpt>
      <trkpt lat="42.024595" lon="2.255766">
        <ele>473.088</ele>
        <time>2018-01-09T14:43:22Z</time>
      </trkpt>
      <trkpt lat="42.024547" lon="2.255729">
        <ele>473.216</ele>
        <time>2018-01-09T14:43:26Z</time>
      </trkpt>
      <trkpt lat="42.024504" lon="2.255686">
        <ele>472.408</ele>
        <time>2018-01-09T14:43:30Z</time>
      </trkpt>
      <trkpt lat="42.024456" lon="2.255643">
        <ele>472.316</ele>
        <time>2018-01-09T14:43:34Z</time>
      </trkpt>
      <trkpt lat="42.024418" lon="2.255604">
        <ele>472.755</ele>
        <time>2018-01-09T14:43:37Z</time>
      </trkpt>
      <trkpt lat="42.024370" lon="2.255563">
        <ele>472.663</ele>
        <time>2018-01-09T14:43:41Z</time>
      </trkpt>
      <trkpt lat="42.024321" lon="2.255529">
        <ele>472.728</ele>
        <time>2018-01-09T14:43:45Z</time>
      </trkpt>
      <trkpt lat="42.024277" lon="2.255496">
        <ele>472.793</ele>
        <time>2018-01-09T14:43:49Z</time>
      </trkpt>
      <trkpt lat="42.024235" lon="2.255469">
        <ele>472.489</ele>
        <time>2018-01-09T14:43:53Z</time>
      </trkpt>
      <trkpt lat="42.024183" lon="2.255432">
        <ele>472.352</ele>
        <time>2018-01-09T14:43:57Z</time>
      </trkpt>
      <trkpt lat="42.024134" lon="2.255392">
        <ele>471.636</ele>
        <time>2018-01-09T14:44:01Z</time>
      </trkpt>
      <trkpt lat="42.024091" lon="2.255356">
        <ele>471.166</ele>
        <time>2018-01-09T14:44:05Z</time>
      </trkpt>
      <trkpt lat="42.024048" lon="2.255312">
        <ele>471.729</ele>
        <time>2018-01-09T14:44:09Z</time>
      </trkpt>
      <trkpt lat="42.024009" lon="2.255278">
        <ele>472.321</ele>
        <time>2018-01-09T14:44:12Z</time>
      </trkpt>
      <trkpt lat="42.023967" lon="2.255251">
        <ele>471.808</ele>
        <time>2018-01-09T14:44:15Z</time>
      </trkpt>
      <trkpt lat="42.023919" lon="2.255228">
        <ele>471.268</ele>
        <time>2018-01-09T14:44:19Z</time>
      </trkpt>
      <trkpt lat="42.023866" lon="2.255200">
        <ele>470.377</ele>
        <time>2018-01-09T14:44:23Z</time>
      </trkpt>
      <trkpt lat="42.023814" lon="2.255165">
        <ele>469.495</ele>
        <time>2018-01-09T14:44:27Z</time>
      </trkpt>
      <trkpt lat="42.023779" lon="2.255125">
        <ele>469.510</ele>
        <time>2018-01-09T14:44:30Z</time>
      </trkpt>
      <trkpt lat="42.023740" lon="2.255076">
        <ele>470.345</ele>
        <time>2018-01-09T14:44:34Z</time>
      </trkpt>
      <trkpt lat="42.023708" lon="2.255020">
        <ele>470.111</ele>
        <time>2018-01-09T14:44:37Z</time>
      </trkpt>
      <trkpt lat="42.023673" lon="2.254963">
        <ele>471.234</ele>
        <time>2018-01-09T14:44:40Z</time>
      </trkpt>
      <trkpt lat="42.023631" lon="2.254911">
        <ele>470.488</ele>
        <time>2018-01-09T14:44:44Z</time>
      </trkpt>
      <trkpt lat="42.023597" lon="2.254853">
        <ele>470.989</ele>
        <time>2018-01-09T14:44:48Z</time>
      </trkpt>
      <trkpt lat="42.023560" lon="2.254797">
        <ele>470.906</ele>
        <time>2018-01-09T14:44:52Z</time>
      </trkpt>
      <trkpt lat="42.023528" lon="2.254747">
        <ele>470.426</ele>
        <time>2018-01-09T14:44:56Z</time>
      </trkpt>
      <trkpt lat="42.023491" lon="2.254690">
        <ele>470.608</ele>
        <time>2018-01-09T14:45:00Z</time>
      </trkpt>
      <trkpt lat="42.023458" lon="2.254632">
        <ele>470.520</ele>
        <time>2018-01-09T14:45:04Z</time>
      </trkpt>
      <trkpt lat="42.023422" lon="2.254577">
        <ele>470.469</ele>
        <time>2018-01-09T14:45:09Z</time>
      </trkpt>
      <trkpt lat="42.023382" lon="2.254547">
        <ele>472.257</ele>
        <time>2018-01-09T14:45:25Z</time>
      </trkpt>
      <trkpt lat="42.023358" lon="2.254495">
        <ele>472.932</ele>
        <time>2018-01-09T14:45:29Z</time>
      </trkpt>
      <trkpt lat="42.023334" lon="2.254440">
        <ele>472.797</ele>
        <time>2018-01-09T14:45:33Z</time>
      </trkpt>
      <trkpt lat="42.023304" lon="2.254389">
        <ele>472.863</ele>
        <time>2018-01-09T14:45:37Z</time>
      </trkpt>
      <trkpt lat="42.023271" lon="2.254337">
        <ele>474.036</ele>
        <time>2018-01-09T14:45:41Z</time>
      </trkpt>
      <trkpt lat="42.023248" lon="2.254273">
        <ele>473.780</ele>
        <time>2018-01-09T14:45:46Z</time>
      </trkpt>
      <trkpt lat="42.023218" lon="2.254209">
        <ele>473.029</ele>
        <time>2018-01-09T14:45:51Z</time>
      </trkpt>
      <trkpt lat="42.023192" lon="2.254157">
        <ele>472.500</ele>
        <time>2018-01-09T14:45:55Z</time>
      </trkpt>
      <trkpt lat="42.023162" lon="2.254107">
        <ele>472.520</ele>
        <time>2018-01-09T14:45:59Z</time>
      </trkpt>
      <trkpt lat="42.023134" lon="2.254056">
        <ele>472.308</ele>
        <time>2018-01-09T14:46:03Z</time>
      </trkpt>
      <trkpt lat="42.023098" lon="2.254010">
        <ele>471.844</ele>
        <time>2018-01-09T14:46:08Z</time>
      </trkpt>
      <trkpt lat="42.023062" lon="2.253965">
        <ele>470.993</ele>
        <time>2018-01-09T14:46:13Z</time>
      </trkpt>
      <trkpt lat="42.023056" lon="2.253898">
        <ele>470.971</ele>
        <time>2018-01-09T14:46:29Z</time>
      </trkpt>
      <trkpt lat="42.023019" lon="2.253839">
        <ele>470.886</ele>
        <time>2018-01-09T14:46:33Z</time>
      </trkpt>
      <trkpt lat="42.022975" lon="2.253795">
        <ele>471.081</ele>
        <time>2018-01-09T14:46:37Z</time>
      </trkpt>
      <trkpt lat="42.022924" lon="2.253757">
        <ele>470.777</ele>
        <time>2018-01-09T14:46:41Z</time>
      </trkpt>
      <trkpt lat="42.022880" lon="2.253726">
        <ele>470.260</ele>
        <time>2018-01-09T14:46:44Z</time>
      </trkpt>
      <trkpt lat="42.022838" lon="2.253687">
        <ele>468.644</ele>
        <time>2018-01-09T14:46:47Z</time>
      </trkpt>
      <trkpt lat="42.022800" lon="2.253649">
        <ele>468.073</ele>
        <time>2018-01-09T14:46:50Z</time>
      </trkpt>
      <trkpt lat="42.022762" lon="2.253608">
        <ele>467.685</ele>
        <time>2018-01-09T14:46:53Z</time>
      </trkpt>
      <trkpt lat="42.022728" lon="2.253565">
        <ele>467.613</ele>
        <time>2018-01-09T14:46:56Z</time>
      </trkpt>
      <trkpt lat="42.022691" lon="2.253521">
        <ele>467.208</ele>
        <time>2018-01-09T14:46:59Z</time>
      </trkpt>
      <trkpt lat="42.022655" lon="2.253474">
        <ele>467.019</ele>
        <time>2018-01-09T14:47:02Z</time>
      </trkpt>
      <trkpt lat="42.022614" lon="2.253420">
        <ele>466.668</ele>
        <time>2018-01-09T14:47:05Z</time>
      </trkpt>
      <trkpt lat="42.022575" lon="2.253367">
        <ele>466.476</ele>
        <time>2018-01-09T14:47:08Z</time>
      </trkpt>
      <trkpt lat="42.022537" lon="2.253314">
        <ele>465.931</ele>
        <time>2018-01-09T14:47:11Z</time>
      </trkpt>
      <trkpt lat="42.022505" lon="2.253268">
        <ele>465.546</ele>
        <time>2018-01-09T14:47:14Z</time>
      </trkpt>
      <trkpt lat="42.022470" lon="2.253228">
        <ele>464.662</ele>
        <time>2018-01-09T14:47:17Z</time>
      </trkpt>
      <trkpt lat="42.022434" lon="2.253184">
        <ele>464.475</ele>
        <time>2018-01-09T14:47:20Z</time>
      </trkpt>
      <trkpt lat="42.022400" lon="2.253135">
        <ele>463.659</ele>
        <time>2018-01-09T14:47:23Z</time>
      </trkpt>
      <trkpt lat="42.022361" lon="2.253080">
        <ele>463.482</ele>
        <time>2018-01-09T14:47:27Z</time>
      </trkpt>
      <trkpt lat="42.022320" lon="2.253028">
        <ele>463.743</ele>
        <time>2018-01-09T14:47:31Z</time>
      </trkpt>
      <trkpt lat="42.022291" lon="2.252979">
        <ele>464.017</ele>
        <time>2018-01-09T14:47:34Z</time>
      </trkpt>
      <trkpt lat="42.022261" lon="2.252923">
        <ele>463.808</ele>
        <time>2018-01-09T14:47:37Z</time>
      </trkpt>
      <trkpt lat="42.022228" lon="2.252866">
        <ele>463.320</ele>
        <time>2018-01-09T14:47:41Z</time>
      </trkpt>
      <trkpt lat="42.022186" lon="2.252817">
        <ele>462.819</ele>
        <time>2018-01-09T14:47:45Z</time>
      </trkpt>
      <trkpt lat="42.022142" lon="2.252766">
        <ele>463.197</ele>
        <time>2018-01-09T14:47:49Z</time>
      </trkpt>
      <trkpt lat="42.022099" lon="2.252717">
        <ele>463.682</ele>
        <time>2018-01-09T14:47:53Z</time>
      </trkpt>
      <trkpt lat="42.022055" lon="2.252666">
        <ele>464.017</ele>
        <time>2018-01-09T14:47:57Z</time>
      </trkpt>
      <trkpt lat="42.022016" lon="2.252625">
        <ele>464.623</ele>
        <time>2018-01-09T14:48:01Z</time>
      </trkpt>
      <trkpt lat="42.021984" lon="2.252577">
        <ele>464.596</ele>
        <time>2018-01-09T14:48:05Z</time>
      </trkpt>
      <trkpt lat="42.021945" lon="2.252527">
        <ele>463.790</ele>
        <time>2018-01-09T14:48:09Z</time>
      </trkpt>
      <trkpt lat="42.021921" lon="2.252473">
        <ele>463.618</ele>
        <time>2018-01-09T14:48:13Z</time>
      </trkpt>
      <trkpt lat="42.021886" lon="2.252407">
        <ele>463.398</ele>
        <time>2018-01-09T14:48:17Z</time>
      </trkpt>
      <trkpt lat="42.021854" lon="2.252356">
        <ele>462.217</ele>
        <time>2018-01-09T14:48:20Z</time>
      </trkpt>
      <trkpt lat="42.021825" lon="2.252305">
        <ele>462.508</ele>
        <time>2018-01-09T14:48:23Z</time>
      </trkpt>
      <trkpt lat="42.021798" lon="2.252252">
        <ele>462.763</ele>
        <time>2018-01-09T14:48:26Z</time>
      </trkpt>
      <trkpt lat="42.021765" lon="2.252187">
        <ele>462.972</ele>
        <time>2018-01-09T14:48:30Z</time>
      </trkpt>
      <trkpt lat="42.021738" lon="2.252137">
        <ele>463.190</ele>
        <time>2018-01-09T14:48:33Z</time>
      </trkpt>
      <trkpt lat="42.021708" lon="2.252080">
        <ele>462.615</ele>
        <time>2018-01-09T14:48:37Z</time>
      </trkpt>
      <trkpt lat="42.021677" lon="2.252016">
        <ele>463.690</ele>
        <time>2018-01-09T14:48:41Z</time>
      </trkpt>
      <trkpt lat="42.021652" lon="2.251951">
        <ele>463.716</ele>
        <time>2018-01-09T14:48:45Z</time>
      </trkpt>
      <trkpt lat="42.021634" lon="2.251894">
        <ele>465.569</ele>
        <time>2018-01-09T14:48:49Z</time>
      </trkpt>
      <trkpt lat="42.021621" lon="2.251830">
        <ele>467.743</ele>
        <time>2018-01-09T14:48:53Z</time>
      </trkpt>
      <trkpt lat="42.021601" lon="2.251768">
        <ele>467.587</ele>
        <time>2018-01-09T14:48:57Z</time>
      </trkpt>
      <trkpt lat="42.021569" lon="2.251702">
        <ele>467.142</ele>
        <time>2018-01-09T14:49:01Z</time>
      </trkpt>
      <trkpt lat="42.021545" lon="2.251637">
        <ele>468.426</ele>
        <time>2018-01-09T14:49:05Z</time>
      </trkpt>
      <trkpt lat="42.021514" lon="2.251579">
        <ele>468.308</ele>
        <time>2018-01-09T14:49:09Z</time>
      </trkpt>
      <trkpt lat="42.021482" lon="2.251519">
        <ele>468.130</ele>
        <time>2018-01-09T14:49:13Z</time>
      </trkpt>
      <trkpt lat="42.021444" lon="2.251469">
        <ele>468.269</ele>
        <time>2018-01-09T14:49:17Z</time>
      </trkpt>
      <trkpt lat="42.021408" lon="2.251424">
        <ele>468.877</ele>
        <time>2018-01-09T14:49:21Z</time>
      </trkpt>
      <trkpt lat="42.021367" lon="2.251374">
        <ele>468.962</ele>
        <time>2018-01-09T14:49:25Z</time>
      </trkpt>
      <trkpt lat="42.021334" lon="2.251330">
        <ele>469.727</ele>
        <time>2018-01-09T14:49:29Z</time>
      </trkpt>
      <trkpt lat="42.021292" lon="2.251295">
        <ele>472.533</ele>
        <time>2018-01-09T14:49:35Z</time>
      </trkpt>
      <trkpt lat="42.021274" lon="2.251240">
        <ele>473.556</ele>
        <time>2018-01-09T14:49:40Z</time>
      </trkpt>
      <trkpt lat="42.021262" lon="2.251176">
        <ele>473.820</ele>
        <time>2018-01-09T14:49:45Z</time>
      </trkpt>
      <trkpt lat="42.021267" lon="2.251112">
        <ele>473.912</ele>
        <time>2018-01-09T14:49:51Z</time>
      </trkpt>
      <trkpt lat="42.021301" lon="2.251057">
        <ele>476.132</ele>
        <time>2018-01-09T14:50:09Z</time>
      </trkpt>
      <trkpt lat="42.021288" lon="2.250988">
        <ele>477.505</ele>
        <time>2018-01-09T14:50:20Z</time>
      </trkpt>
      <trkpt lat="42.021252" lon="2.250951">
        <ele>477.708</ele>
        <time>2018-01-09T14:50:24Z</time>
      </trkpt>
      <trkpt lat="42.021207" lon="2.250933">
        <ele>478.313</ele>
        <time>2018-01-09T14:50:28Z</time>
      </trkpt>
      <trkpt lat="42.021164" lon="2.250912">
        <ele>479.512</ele>
        <time>2018-01-09T14:50:32Z</time>
      </trkpt>
      <trkpt lat="42.021123" lon="2.250884">
        <ele>480.470</ele>
        <time>2018-01-09T14:50:35Z</time>
      </trkpt>
      <trkpt lat="42.021072" lon="2.250857">
        <ele>479.415</ele>
        <time>2018-01-09T14:50:39Z</time>
      </trkpt>
      <trkpt lat="42.021027" lon="2.250821">
        <ele>480.310</ele>
        <time>2018-01-09T14:50:43Z</time>
      </trkpt>
      <trkpt lat="42.020981" lon="2.250776">
        <ele>480.676</ele>
        <time>2018-01-09T14:50:48Z</time>
      </trkpt>
      <trkpt lat="42.020939" lon="2.250752">
        <ele>480.919</ele>
        <time>2018-01-09T14:50:52Z</time>
      </trkpt>
      <trkpt lat="42.020894" lon="2.250729">
        <ele>483.293</ele>
        <time>2018-01-09T14:50:57Z</time>
      </trkpt>
      <trkpt lat="42.020844" lon="2.250721">
        <ele>484.913</ele>
        <time>2018-01-09T14:51:03Z</time>
      </trkpt>
      <trkpt lat="42.020803" lon="2.250692">
        <ele>485.143</ele>
        <time>2018-01-09T14:51:07Z</time>
      </trkpt>
      <trkpt lat="42.020768" lon="2.250643">
        <ele>486.507</ele>
        <time>2018-01-09T14:51:11Z</time>
      </trkpt>
      <trkpt lat="42.020746" lon="2.250573">
        <ele>486.508</ele>
        <time>2018-01-09T14:51:16Z</time>
      </trkpt>
      <trkpt lat="42.020713" lon="2.250527">
        <ele>487.493</ele>
        <time>2018-01-09T14:51:20Z</time>
      </trkpt>
      <trkpt lat="42.020662" lon="2.250514">
        <ele>487.972</ele>
        <time>2018-01-09T14:51:24Z</time>
      </trkpt>
      <trkpt lat="42.020608" lon="2.250510">
        <ele>487.930</ele>
        <time>2018-01-09T14:51:28Z</time>
      </trkpt>
      <trkpt lat="42.020558" lon="2.250501">
        <ele>488.465</ele>
        <time>2018-01-09T14:51:32Z</time>
      </trkpt>
      <trkpt lat="42.020508" lon="2.250495">
        <ele>488.880</ele>
        <time>2018-01-09T14:51:37Z</time>
      </trkpt>
      <trkpt lat="42.020453" lon="2.250481">
        <ele>488.446</ele>
        <time>2018-01-09T14:51:41Z</time>
      </trkpt>
      <trkpt lat="42.020400" lon="2.250471">
        <ele>488.539</ele>
        <time>2018-01-09T14:51:44Z</time>
      </trkpt>
      <trkpt lat="42.020355" lon="2.250462">
        <ele>488.553</ele>
        <time>2018-01-09T14:51:47Z</time>
      </trkpt>
      <trkpt lat="42.020305" lon="2.250461">
        <ele>488.947</ele>
        <time>2018-01-09T14:51:50Z</time>
      </trkpt>
      <trkpt lat="42.020254" lon="2.250467">
        <ele>489.129</ele>
        <time>2018-01-09T14:51:54Z</time>
      </trkpt>
      <trkpt lat="42.020202" lon="2.250460">
        <ele>489.421</ele>
        <time>2018-01-09T14:51:59Z</time>
      </trkpt>
      <trkpt lat="42.020157" lon="2.250423">
        <ele>488.708</ele>
        <time>2018-01-09T14:52:03Z</time>
      </trkpt>
      <trkpt lat="42.020110" lon="2.250387">
        <ele>488.646</ele>
        <time>2018-01-09T14:52:07Z</time>
      </trkpt>
      <trkpt lat="42.020062" lon="2.250351">
        <ele>488.845</ele>
        <time>2018-01-09T14:52:11Z</time>
      </trkpt>
      <trkpt lat="42.020022" lon="2.250322">
        <ele>489.253</ele>
        <time>2018-01-09T14:52:15Z</time>
      </trkpt>
      <trkpt lat="42.019978" lon="2.250300">
        <ele>489.188</ele>
        <time>2018-01-09T14:52:19Z</time>
      </trkpt>
      <trkpt lat="42.019924" lon="2.250291">
        <ele>489.233</ele>
        <time>2018-01-09T14:52:24Z</time>
      </trkpt>
      <trkpt lat="42.019874" lon="2.250285">
        <ele>488.619</ele>
        <time>2018-01-09T14:52:28Z</time>
      </trkpt>
      <trkpt lat="42.019820" lon="2.250309">
        <ele>487.412</ele>
        <time>2018-01-09T14:52:32Z</time>
      </trkpt>
      <trkpt lat="42.019778" lon="2.250361">
        <ele>487.856</ele>
        <time>2018-01-09T14:52:36Z</time>
      </trkpt>
      <trkpt lat="42.019734" lon="2.250401">
        <ele>487.783</ele>
        <time>2018-01-09T14:52:40Z</time>
      </trkpt>
      <trkpt lat="42.019695" lon="2.250433">
        <ele>487.525</ele>
        <time>2018-01-09T14:52:44Z</time>
      </trkpt>
      <trkpt lat="42.019673" lon="2.250493">
        <ele>486.617</ele>
        <time>2018-01-09T14:52:56Z</time>
      </trkpt>
      <trkpt lat="42.019643" lon="2.250550">
        <ele>486.308</ele>
        <time>2018-01-09T14:53:01Z</time>
      </trkpt>
      <trkpt lat="42.019602" lon="2.250589">
        <ele>486.160</ele>
        <time>2018-01-09T14:53:05Z</time>
      </trkpt>
      <trkpt lat="42.019563" lon="2.250628">
        <ele>485.439</ele>
        <time>2018-01-09T14:53:10Z</time>
      </trkpt>
      <trkpt lat="42.019516" lon="2.250653">
        <ele>485.087</ele>
        <time>2018-01-09T14:53:14Z</time>
      </trkpt>
      <trkpt lat="42.019467" lon="2.250672">
        <ele>484.832</ele>
        <time>2018-01-09T14:53:18Z</time>
      </trkpt>
      <trkpt lat="42.019428" lon="2.250723">
        <ele>485.257</ele>
        <time>2018-01-09T14:53:28Z</time>
      </trkpt>
      <trkpt lat="42.019372" lon="2.250749">
        <ele>484.883</ele>
        <time>2018-01-09T14:53:33Z</time>
      </trkpt>
      <trkpt lat="42.019318" lon="2.250758">
        <ele>484.796</ele>
        <time>2018-01-09T14:53:37Z</time>
      </trkpt>
      <trkpt lat="42.019260" lon="2.250769">
        <ele>484.730</ele>
        <time>2018-01-09T14:53:41Z</time>
      </trkpt>
      <trkpt lat="42.019212" lon="2.250774">
        <ele>484.888</ele>
        <time>2018-01-09T14:53:44Z</time>
      </trkpt>
      <trkpt lat="42.019179" lon="2.250818">
        <ele>484.824</ele>
        <time>2018-01-09T14:53:48Z</time>
      </trkpt>
      <trkpt lat="42.019136" lon="2.250851">
        <ele>484.126</ele>
        <time>2018-01-09T14:53:52Z</time>
      </trkpt>
      <trkpt lat="42.019085" lon="2.250881">
        <ele>483.508</ele>
        <time>2018-01-09T14:53:56Z</time>
      </trkpt>
      <trkpt lat="42.019032" lon="2.250907">
        <ele>483.130</ele>
        <time>2018-01-09T14:54:00Z</time>
      </trkpt>
      <trkpt lat="42.018989" lon="2.250938">
        <ele>482.729</ele>
        <time>2018-01-09T14:54:04Z</time>
      </trkpt>
      <trkpt lat="42.018941" lon="2.250964">
        <ele>482.427</ele>
        <time>2018-01-09T14:54:08Z</time>
      </trkpt>
      <trkpt lat="42.018892" lon="2.250986">
        <ele>482.842</ele>
        <time>2018-01-09T14:54:12Z</time>
      </trkpt>
      <trkpt lat="42.018838" lon="2.251003">
        <ele>483.687</ele>
        <time>2018-01-09T14:54:16Z</time>
      </trkpt>
      <trkpt lat="42.018789" lon="2.251022">
        <ele>483.963</ele>
        <time>2018-01-09T14:54:20Z</time>
      </trkpt>
      <trkpt lat="42.018741" lon="2.251037">
        <ele>484.596</ele>
        <time>2018-01-09T14:54:24Z</time>
      </trkpt>
      <trkpt lat="42.018691" lon="2.251056">
        <ele>484.830</ele>
        <time>2018-01-09T14:54:28Z</time>
      </trkpt>
      <trkpt lat="42.018642" lon="2.251069">
        <ele>483.852</ele>
        <time>2018-01-09T14:54:32Z</time>
      </trkpt>
      <trkpt lat="42.018592" lon="2.251091">
        <ele>484.553</ele>
        <time>2018-01-09T14:54:36Z</time>
      </trkpt>
      <trkpt lat="42.018533" lon="2.251109">
        <ele>483.808</ele>
        <time>2018-01-09T14:54:40Z</time>
      </trkpt>
      <trkpt lat="42.018472" lon="2.251117">
        <ele>483.408</ele>
        <time>2018-01-09T14:54:44Z</time>
      </trkpt>
      <trkpt lat="42.018415" lon="2.251124">
        <ele>482.617</ele>
        <time>2018-01-09T14:54:48Z</time>
      </trkpt>
      <trkpt lat="42.018370" lon="2.251152">
        <ele>482.896</ele>
        <time>2018-01-09T14:54:52Z</time>
      </trkpt>
      <trkpt lat="42.018323" lon="2.251187">
        <ele>481.594</ele>
        <time>2018-01-09T14:54:56Z</time>
      </trkpt>
      <trkpt lat="42.018271" lon="2.251208">
        <ele>481.449</ele>
        <time>2018-01-09T14:55:00Z</time>
      </trkpt>
      <trkpt lat="42.018223" lon="2.251232">
        <ele>481.844</ele>
        <time>2018-01-09T14:55:04Z</time>
      </trkpt>
      <trkpt lat="42.018173" lon="2.251253">
        <ele>481.970</ele>
        <time>2018-01-09T14:55:08Z</time>
      </trkpt>
      <trkpt lat="42.018128" lon="2.251288">
        <ele>482.693</ele>
        <time>2018-01-09T14:55:12Z</time>
      </trkpt>
      <trkpt lat="42.018086" lon="2.251330">
        <ele>482.777</ele>
        <time>2018-01-09T14:55:16Z</time>
      </trkpt>
      <trkpt lat="42.018032" lon="2.251358">
        <ele>481.717</ele>
        <time>2018-01-09T14:55:20Z</time>
      </trkpt>
      <trkpt lat="42.017990" lon="2.251389">
        <ele>481.187</ele>
        <time>2018-01-09T14:55:23Z</time>
      </trkpt>
      <trkpt lat="42.017951" lon="2.251446">
        <ele>481.215</ele>
        <time>2018-01-09T14:55:28Z</time>
      </trkpt>
      <trkpt lat="42.017914" lon="2.251507">
        <ele>481.208</ele>
        <time>2018-01-09T14:55:32Z</time>
      </trkpt>
      <trkpt lat="42.017878" lon="2.251568">
        <ele>479.963</ele>
        <time>2018-01-09T14:55:36Z</time>
      </trkpt>
      <trkpt lat="42.017841" lon="2.251623">
        <ele>479.832</ele>
        <time>2018-01-09T14:55:40Z</time>
      </trkpt>
      <trkpt lat="42.017807" lon="2.251682">
        <ele>480.010</ele>
        <time>2018-01-09T14:55:44Z</time>
      </trkpt>
      <trkpt lat="42.017763" lon="2.251715">
        <ele>480.735</ele>
        <time>2018-01-09T14:55:48Z</time>
      </trkpt>
      <trkpt lat="42.017710" lon="2.251695">
        <ele>480.730</ele>
        <time>2018-01-09T14:55:52Z</time>
      </trkpt>
      <trkpt lat="42.017669" lon="2.251659">
        <ele>480.936</ele>
        <time>2018-01-09T14:55:56Z</time>
      </trkpt>
      <trkpt lat="42.017619" lon="2.251613">
        <ele>480.729</ele>
        <time>2018-01-09T14:56:00Z</time>
      </trkpt>
      <trkpt lat="42.017578" lon="2.251583">
        <ele>480.213</ele>
        <time>2018-01-09T14:56:03Z</time>
      </trkpt>
      <trkpt lat="42.017526" lon="2.251545">
        <ele>480.267</ele>
        <time>2018-01-09T14:56:07Z</time>
      </trkpt>
      <trkpt lat="42.017484" lon="2.251522">
        <ele>480.981</ele>
        <time>2018-01-09T14:56:10Z</time>
      </trkpt>
      <trkpt lat="42.017440" lon="2.251501">
        <ele>481.419</ele>
        <time>2018-01-09T14:56:13Z</time>
      </trkpt>
      <trkpt lat="42.017385" lon="2.251483">
        <ele>481.908</ele>
        <time>2018-01-09T14:56:17Z</time>
      </trkpt>
      <trkpt lat="42.017332" lon="2.251462">
        <ele>482.058</ele>
        <time>2018-01-09T14:56:21Z</time>
      </trkpt>
      <trkpt lat="42.017278" lon="2.251458">
        <ele>480.727</ele>
        <time>2018-01-09T14:56:25Z</time>
      </trkpt>
      <trkpt lat="42.017217" lon="2.251458">
        <ele>479.915</ele>
        <time>2018-01-09T14:56:29Z</time>
      </trkpt>
      <trkpt lat="42.017164" lon="2.251446">
        <ele>480.320</ele>
        <time>2018-01-09T14:56:32Z</time>
      </trkpt>
      <trkpt lat="42.017103" lon="2.251436">
        <ele>480.025</ele>
        <time>2018-01-09T14:56:36Z</time>
      </trkpt>
      <trkpt lat="42.017055" lon="2.251440">
        <ele>479.631</ele>
        <time>2018-01-09T14:56:39Z</time>
      </trkpt>
      <trkpt lat="42.017008" lon="2.251442">
        <ele>479.854</ele>
        <time>2018-01-09T14:56:42Z</time>
      </trkpt>
      <trkpt lat="42.016950" lon="2.251437">
        <ele>479.258</ele>
        <time>2018-01-09T14:56:46Z</time>
      </trkpt>
      <trkpt lat="42.016891" lon="2.251428">
        <ele>479.216</ele>
        <time>2018-01-09T14:56:50Z</time>
      </trkpt>
      <trkpt lat="42.016844" lon="2.251416">
        <ele>479.576</ele>
        <time>2018-01-09T14:56:53Z</time>
      </trkpt>
      <trkpt lat="42.016786" lon="2.251420">
        <ele>479.713</ele>
        <time>2018-01-09T14:56:57Z</time>
      </trkpt>
      <trkpt lat="42.016737" lon="2.251428">
        <ele>479.308</ele>
        <time>2018-01-09T14:57:00Z</time>
      </trkpt>
      <trkpt lat="42.016690" lon="2.251436">
        <ele>479.463</ele>
        <time>2018-01-09T14:57:03Z</time>
      </trkpt>
      <trkpt lat="42.016631" lon="2.251449">
        <ele>479.112</ele>
        <time>2018-01-09T14:57:07Z</time>
      </trkpt>
      <trkpt lat="42.016580" lon="2.251475">
        <ele>478.880</ele>
        <time>2018-01-09T14:57:11Z</time>
      </trkpt>
      <trkpt lat="42.016532" lon="2.251502">
        <ele>478.435</ele>
        <time>2018-01-09T14:57:15Z</time>
      </trkpt>
      <trkpt lat="42.016485" lon="2.251532">
        <ele>478.120</ele>
        <time>2018-01-09T14:57:19Z</time>
      </trkpt>
      <trkpt lat="42.016430" lon="2.251554">
        <ele>477.286</ele>
        <time>2018-01-09T14:57:23Z</time>
      </trkpt>
      <trkpt lat="42.016379" lon="2.251579">
        <ele>476.229</ele>
        <time>2018-01-09T14:57:27Z</time>
      </trkpt>
      <trkpt lat="42.016330" lon="2.251604">
        <ele>476.443</ele>
        <time>2018-01-09T14:57:31Z</time>
      </trkpt>
      <trkpt lat="42.016276" lon="2.251624">
        <ele>476.439</ele>
        <time>2018-01-09T14:57:35Z</time>
      </trkpt>
      <trkpt lat="42.016220" lon="2.251642">
        <ele>476.001</ele>
        <time>2018-01-09T14:57:39Z</time>
      </trkpt>
      <trkpt lat="42.016165" lon="2.251659">
        <ele>476.321</ele>
        <time>2018-01-09T14:57:43Z</time>
      </trkpt>
      <trkpt lat="42.016108" lon="2.251679">
        <ele>475.008</ele>
        <time>2018-01-09T14:57:47Z</time>
      </trkpt>
      <trkpt lat="42.016052" lon="2.251701">
        <ele>475.485</ele>
        <time>2018-01-09T14:57:51Z</time>
      </trkpt>
      <trkpt lat="42.015999" lon="2.251723">
        <ele>475.294</ele>
        <time>2018-01-09T14:57:55Z</time>
      </trkpt>
      <trkpt lat="42.015949" lon="2.251756">
        <ele>474.892</ele>
        <time>2018-01-09T14:57:59Z</time>
      </trkpt>
      <trkpt lat="42.015902" lon="2.251793">
        <ele>474.937</ele>
        <time>2018-01-09T14:58:03Z</time>
      </trkpt>
      <trkpt lat="42.015855" lon="2.251838">
        <ele>474.652</ele>
        <time>2018-01-09T14:58:07Z</time>
      </trkpt>
      <trkpt lat="42.015807" lon="2.251869">
        <ele>475.398</ele>
        <time>2018-01-09T14:58:11Z</time>
      </trkpt>
      <trkpt lat="42.015771" lon="2.251921">
        <ele>476.991</ele>
        <time>2018-01-09T14:58:15Z</time>
      </trkpt>
      <trkpt lat="42.015731" lon="2.251968">
        <ele>477.175</ele>
        <time>2018-01-09T14:58:19Z</time>
      </trkpt>
      <trkpt lat="42.015686" lon="2.252006">
        <ele>477.469</ele>
        <time>2018-01-09T14:58:23Z</time>
      </trkpt>
      <trkpt lat="42.015640" lon="2.252046">
        <ele>477.604</ele>
        <time>2018-01-09T14:58:28Z</time>
      </trkpt>
      <trkpt lat="42.015587" lon="2.252080">
        <ele>477.424</ele>
        <time>2018-01-09T14:58:32Z</time>
      </trkpt>
      <trkpt lat="42.015547" lon="2.252113">
        <ele>477.208</ele>
        <time>2018-01-09T14:58:35Z</time>
      </trkpt>
      <trkpt lat="42.015500" lon="2.252150">
        <ele>476.648</ele>
        <time>2018-01-09T14:58:39Z</time>
      </trkpt>
      <trkpt lat="42.015450" lon="2.252184">
        <ele>476.697</ele>
        <time>2018-01-09T14:58:43Z</time>
      </trkpt>
      <trkpt lat="42.015400" lon="2.252217">
        <ele>476.425</ele>
        <time>2018-01-09T14:58:47Z</time>
      </trkpt>
      <trkpt lat="42.015357" lon="2.252259">
        <ele>476.670</ele>
        <time>2018-01-09T14:58:51Z</time>
      </trkpt>
      <trkpt lat="42.015306" lon="2.252290">
        <ele>476.255</ele>
        <time>2018-01-09T14:58:55Z</time>
      </trkpt>
      <trkpt lat="42.015259" lon="2.252328">
        <ele>476.881</ele>
        <time>2018-01-09T14:58:59Z</time>
      </trkpt>
      <trkpt lat="42.015217" lon="2.252366">
        <ele>477.184</ele>
        <time>2018-01-09T14:59:03Z</time>
      </trkpt>
      <trkpt lat="42.015173" lon="2.252398">
        <ele>477.038</ele>
        <time>2018-01-09T14:59:07Z</time>
      </trkpt>
      <trkpt lat="42.015127" lon="2.252433">
        <ele>476.281</ele>
        <time>2018-01-09T14:59:11Z</time>
      </trkpt>
      <trkpt lat="42.015078" lon="2.252458">
        <ele>476.061</ele>
        <time>2018-01-09T14:59:15Z</time>
      </trkpt>
      <trkpt lat="42.015033" lon="2.252496">
        <ele>476.817</ele>
        <time>2018-01-09T14:59:19Z</time>
      </trkpt>
      <trkpt lat="42.014995" lon="2.252542">
        <ele>477.208</ele>
        <time>2018-01-09T14:59:23Z</time>
      </trkpt>
      <trkpt lat="42.014956" lon="2.252600">
        <ele>477.680</ele>
        <time>2018-01-09T14:59:27Z</time>
      </trkpt>
      <trkpt lat="42.014929" lon="2.252664">
        <ele>477.039</ele>
        <time>2018-01-09T14:59:31Z</time>
      </trkpt>
      <trkpt lat="42.014907" lon="2.252735">
        <ele>477.267</ele>
        <time>2018-01-09T14:59:35Z</time>
      </trkpt>
      <trkpt lat="42.014875" lon="2.252794">
        <ele>477.142</ele>
        <time>2018-01-09T14:59:39Z</time>
      </trkpt>
      <trkpt lat="42.014851" lon="2.252849">
        <ele>477.537</ele>
        <time>2018-01-09T14:59:43Z</time>
      </trkpt>
      <trkpt lat="42.014820" lon="2.252915">
        <ele>477.043</ele>
        <time>2018-01-09T14:59:47Z</time>
      </trkpt>
      <trkpt lat="42.014796" lon="2.252975">
        <ele>477.466</ele>
        <time>2018-01-09T14:59:51Z</time>
      </trkpt>
      <trkpt lat="42.014767" lon="2.253039">
        <ele>476.550</ele>
        <time>2018-01-09T14:59:56Z</time>
      </trkpt>
      <trkpt lat="42.014737" lon="2.253101">
        <ele>475.547</ele>
        <time>2018-01-09T15:00:00Z</time>
      </trkpt>
      <trkpt lat="42.014701" lon="2.253156">
        <ele>474.829</ele>
        <time>2018-01-09T15:00:04Z</time>
      </trkpt>
      <trkpt lat="42.014671" lon="2.253209">
        <ele>474.521</ele>
        <time>2018-01-09T15:00:08Z</time>
      </trkpt>
      <trkpt lat="42.014631" lon="2.253257">
        <ele>474.508</ele>
        <time>2018-01-09T15:00:12Z</time>
      </trkpt>
      <trkpt lat="42.014595" lon="2.253308">
        <ele>474.926</ele>
        <time>2018-01-09T15:00:16Z</time>
      </trkpt>
      <trkpt lat="42.014559" lon="2.253350">
        <ele>474.685</ele>
        <time>2018-01-09T15:00:19Z</time>
      </trkpt>
      <trkpt lat="42.014521" lon="2.253401">
        <ele>474.293</ele>
        <time>2018-01-09T15:00:23Z</time>
      </trkpt>
      <trkpt lat="42.014484" lon="2.253447">
        <ele>472.868</ele>
        <time>2018-01-09T15:00:27Z</time>
      </trkpt>
      <trkpt lat="42.014454" lon="2.253510">
        <ele>472.293</ele>
        <time>2018-01-09T15:00:31Z</time>
      </trkpt>
      <trkpt lat="42.014419" lon="2.253574">
        <ele>471.249</ele>
        <time>2018-01-09T15:00:35Z</time>
      </trkpt>
      <trkpt lat="42.014382" lon="2.253633">
        <ele>470.932</ele>
        <time>2018-01-09T15:00:39Z</time>
      </trkpt>
      <trkpt lat="42.014344" lon="2.253678">
        <ele>470.496</ele>
        <time>2018-01-09T15:00:43Z</time>
      </trkpt>
      <trkpt lat="42.014316" lon="2.253730">
        <ele>470.241</ele>
        <time>2018-01-09T15:00:47Z</time>
      </trkpt>
      <trkpt lat="42.014284" lon="2.253788">
        <ele>469.881</ele>
        <time>2018-01-09T15:00:51Z</time>
      </trkpt>
      <trkpt lat="42.014244" lon="2.253841">
        <ele>468.909</ele>
        <time>2018-01-09T15:00:55Z</time>
      </trkpt>
      <trkpt lat="42.014193" lon="2.253872">
        <ele>468.508</ele>
        <time>2018-01-09T15:00:59Z</time>
      </trkpt>
      <trkpt lat="42.014144" lon="2.253893">
        <ele>467.846</ele>
        <time>2018-01-09T15:01:03Z</time>
      </trkpt>
      <trkpt lat="42.014100" lon="2.253910">
        <ele>467.385</ele>
        <time>2018-01-09T15:01:07Z</time>
      </trkpt>
      <trkpt lat="42.014052" lon="2.253911">
        <ele>467.023</ele>
        <time>2018-01-09T15:01:11Z</time>
      </trkpt>
      <trkpt lat="42.014002" lon="2.253873">
        <ele>468.458</ele>
        <time>2018-01-09T15:01:16Z</time>
      </trkpt>
      <trkpt lat="42.013962" lon="2.253825">
        <ele>468.133</ele>
        <time>2018-01-09T15:01:21Z</time>
      </trkpt>
      <trkpt lat="42.013935" lon="2.253769">
        <ele>468.519</ele>
        <time>2018-01-09T15:01:25Z</time>
      </trkpt>
      <trkpt lat="42.013914" lon="2.253713">
        <ele>468.212</ele>
        <time>2018-01-09T15:01:29Z</time>
      </trkpt>
      <trkpt lat="42.013887" lon="2.253659">
        <ele>468.176</ele>
        <time>2018-01-09T15:01:33Z</time>
      </trkpt>
      <trkpt lat="42.013847" lon="2.253610">
        <ele>468.093</ele>
        <time>2018-01-09T15:01:37Z</time>
      </trkpt>
      <trkpt lat="42.013794" lon="2.253600">
        <ele>468.965</ele>
        <time>2018-01-09T15:01:41Z</time>
      </trkpt>
      <trkpt lat="42.013745" lon="2.253623">
        <ele>469.021</ele>
        <time>2018-01-09T15:01:45Z</time>
      </trkpt>
      <trkpt lat="42.013692" lon="2.253645">
        <ele>469.308</ele>
        <time>2018-01-09T15:01:49Z</time>
      </trkpt>
      <trkpt lat="42.013637" lon="2.253669">
        <ele>469.551</ele>
        <time>2018-01-09T15:01:53Z</time>
      </trkpt>
      <trkpt lat="42.013585" lon="2.253694">
        <ele>469.620</ele>
        <time>2018-01-09T15:01:57Z</time>
      </trkpt>
      <trkpt lat="42.013536" lon="2.253736">
        <ele>469.988</ele>
        <time>2018-01-09T15:02:01Z</time>
      </trkpt>
      <trkpt lat="42.013491" lon="2.253765">
        <ele>470.273</ele>
        <time>2018-01-09T15:02:05Z</time>
      </trkpt>
      <trkpt lat="42.013438" lon="2.253790">
        <ele>469.758</ele>
        <time>2018-01-09T15:02:09Z</time>
      </trkpt>
      <trkpt lat="42.013393" lon="2.253827">
        <ele>469.534</ele>
        <time>2018-01-09T15:02:13Z</time>
      </trkpt>
      <trkpt lat="42.013338" lon="2.253858">
        <ele>469.347</ele>
        <time>2018-01-09T15:02:17Z</time>
      </trkpt>
      <trkpt lat="42.013283" lon="2.253885">
        <ele>469.191</ele>
        <time>2018-01-09T15:02:21Z</time>
      </trkpt>
      <trkpt lat="42.013229" lon="2.253917">
        <ele>470.122</ele>
        <time>2018-01-09T15:02:25Z</time>
      </trkpt>
      <trkpt lat="42.013181" lon="2.253951">
        <ele>470.162</ele>
        <time>2018-01-09T15:02:29Z</time>
      </trkpt>
      <trkpt lat="42.013145" lon="2.253993">
        <ele>470.908</ele>
        <time>2018-01-09T15:02:33Z</time>
      </trkpt>
      <trkpt lat="42.013089" lon="2.254031">
        <ele>470.108</ele>
        <time>2018-01-09T15:02:37Z</time>
      </trkpt>
      <trkpt lat="42.013038" lon="2.254060">
        <ele>469.624</ele>
        <time>2018-01-09T15:02:41Z</time>
      </trkpt>
      <trkpt lat="42.012997" lon="2.254096">
        <ele>468.763</ele>
        <time>2018-01-09T15:02:45Z</time>
      </trkpt>
      <trkpt lat="42.012951" lon="2.254137">
        <ele>468.861</ele>
        <time>2018-01-09T15:02:50Z</time>
      </trkpt>
      <trkpt lat="42.012911" lon="2.254167">
        <ele>468.996</ele>
        <time>2018-01-09T15:02:54Z</time>
      </trkpt>
      <trkpt lat="42.012867" lon="2.254186">
        <ele>468.741</ele>
        <time>2018-01-09T15:02:57Z</time>
      </trkpt>
      <trkpt lat="42.012813" lon="2.254199">
        <ele>468.597</ele>
        <time>2018-01-09T15:03:01Z</time>
      </trkpt>
      <trkpt lat="42.012760" lon="2.254220">
        <ele>468.210</ele>
        <time>2018-01-09T15:03:05Z</time>
      </trkpt>
      <trkpt lat="42.012712" lon="2.254231">
        <ele>467.364</ele>
        <time>2018-01-09T15:03:08Z</time>
      </trkpt>
      <trkpt lat="42.012669" lon="2.254270">
        <ele>467.184</ele>
        <time>2018-01-09T15:03:12Z</time>
      </trkpt>
      <trkpt lat="42.012619" lon="2.254277">
        <ele>467.907</ele>
        <time>2018-01-09T15:03:16Z</time>
      </trkpt>
      <trkpt lat="42.012560" lon="2.254293">
        <ele>468.617</ele>
        <time>2018-01-09T15:03:20Z</time>
      </trkpt>
      <trkpt lat="42.012507" lon="2.254312">
        <ele>468.408</ele>
        <time>2018-01-09T15:03:24Z</time>
      </trkpt>
      <trkpt lat="42.012454" lon="2.254323">
        <ele>467.790</ele>
        <time>2018-01-09T15:03:28Z</time>
      </trkpt>
      <trkpt lat="42.012397" lon="2.254322">
        <ele>468.469</ele>
        <time>2018-01-09T15:03:32Z</time>
      </trkpt>
      <trkpt lat="42.012352" lon="2.254290">
        <ele>468.117</ele>
        <time>2018-01-09T15:03:37Z</time>
      </trkpt>
      <trkpt lat="42.012327" lon="2.254222">
        <ele>467.042</ele>
        <time>2018-01-09T15:03:41Z</time>
      </trkpt>
      <trkpt lat="42.012304" lon="2.254147">
        <ele>466.267</ele>
        <time>2018-01-09T15:03:45Z</time>
      </trkpt>
      <trkpt lat="42.012280" lon="2.254080">
        <ele>466.283</ele>
        <time>2018-01-09T15:03:50Z</time>
      </trkpt>
      <trkpt lat="42.012254" lon="2.254020">
        <ele>465.366</ele>
        <time>2018-01-09T15:03:55Z</time>
      </trkpt>
      <trkpt lat="42.012238" lon="2.253963">
        <ele>464.530</ele>
        <time>2018-01-09T15:04:00Z</time>
      </trkpt>
      <trkpt lat="42.012246" lon="2.253895">
        <ele>463.766</ele>
        <time>2018-01-09T15:04:03Z</time>
      </trkpt>
      <trkpt lat="42.012248" lon="2.253828">
        <ele>463.829</ele>
        <time>2018-01-09T15:04:06Z</time>
      </trkpt>
      <trkpt lat="42.012240" lon="2.253762">
        <ele>463.721</ele>
        <time>2018-01-09T15:04:09Z</time>
      </trkpt>
      <trkpt lat="42.012231" lon="2.253688">
        <ele>464.508</ele>
        <time>2018-01-09T15:04:13Z</time>
      </trkpt>
      <trkpt lat="42.012219" lon="2.253618">
        <ele>465.038</ele>
        <time>2018-01-09T15:04:17Z</time>
      </trkpt>
      <trkpt lat="42.012201" lon="2.253552">
        <ele>464.457</ele>
        <time>2018-01-09T15:04:21Z</time>
      </trkpt>
      <trkpt lat="42.012179" lon="2.253497">
        <ele>464.245</ele>
        <time>2018-01-09T15:04:26Z</time>
      </trkpt>
      <trkpt lat="42.012158" lon="2.253443">
        <ele>464.060</ele>
        <time>2018-01-09T15:04:30Z</time>
      </trkpt>
      <trkpt lat="42.012140" lon="2.253383">
        <ele>463.765</ele>
        <time>2018-01-09T15:04:36Z</time>
      </trkpt>
      <trkpt lat="42.012119" lon="2.253320">
        <ele>464.121</ele>
        <time>2018-01-09T15:04:40Z</time>
      </trkpt>
      <trkpt lat="42.012100" lon="2.253254">
        <ele>464.414</ele>
        <time>2018-01-09T15:04:44Z</time>
      </trkpt>
      <trkpt lat="42.012075" lon="2.253187">
        <ele>464.498</ele>
        <time>2018-01-09T15:04:48Z</time>
      </trkpt>
      <trkpt lat="42.012054" lon="2.253125">
        <ele>465.129</ele>
        <time>2018-01-09T15:04:52Z</time>
      </trkpt>
      <trkpt lat="42.012037" lon="2.253064">
        <ele>465.300</ele>
        <time>2018-01-09T15:04:56Z</time>
      </trkpt>
      <trkpt lat="42.012013" lon="2.253000">
        <ele>464.720</ele>
        <time>2018-01-09T15:05:00Z</time>
      </trkpt>
      <trkpt lat="42.011990" lon="2.252947">
        <ele>464.408</ele>
        <time>2018-01-09T15:05:04Z</time>
      </trkpt>
      <trkpt lat="42.011966" lon="2.252886">
        <ele>464.054</ele>
        <time>2018-01-09T15:05:08Z</time>
      </trkpt>
      <trkpt lat="42.011943" lon="2.252823">
        <ele>463.923</ele>
        <time>2018-01-09T15:05:12Z</time>
      </trkpt>
      <trkpt lat="42.011923" lon="2.252760">
        <ele>463.071</ele>
        <time>2018-01-09T15:05:16Z</time>
      </trkpt>
      <trkpt lat="42.011899" lon="2.252700">
        <ele>462.326</ele>
        <time>2018-01-09T15:05:20Z</time>
      </trkpt>
      <trkpt lat="42.011878" lon="2.252635">
        <ele>462.351</ele>
        <time>2018-01-09T15:05:24Z</time>
      </trkpt>
      <trkpt lat="42.011860" lon="2.252578">
        <ele>462.697</ele>
        <time>2018-01-09T15:05:27Z</time>
      </trkpt>
      <trkpt lat="42.011831" lon="2.252509">
        <ele>461.920</ele>
        <time>2018-01-09T15:05:31Z</time>
      </trkpt>
      <trkpt lat="42.011807" lon="2.252444">
        <ele>462.844</ele>
        <time>2018-01-09T15:05:35Z</time>
      </trkpt>
      <trkpt lat="42.011784" lon="2.252382">
        <ele>462.312</ele>
        <time>2018-01-09T15:05:39Z</time>
      </trkpt>
      <trkpt lat="42.011761" lon="2.252322">
        <ele>462.632</ele>
        <time>2018-01-09T15:05:43Z</time>
      </trkpt>
      <trkpt lat="42.011731" lon="2.252263">
        <ele>463.105</ele>
        <time>2018-01-09T15:05:47Z</time>
      </trkpt>
      <trkpt lat="42.011702" lon="2.252199">
        <ele>463.508</ele>
        <time>2018-01-09T15:05:51Z</time>
      </trkpt>
      <trkpt lat="42.011673" lon="2.252137">
        <ele>463.033</ele>
        <time>2018-01-09T15:05:55Z</time>
      </trkpt>
      <trkpt lat="42.011639" lon="2.252072">
        <ele>463.212</ele>
        <time>2018-01-09T15:05:59Z</time>
      </trkpt>
      <trkpt lat="42.011610" lon="2.252013">
        <ele>463.240</ele>
        <time>2018-01-09T15:06:03Z</time>
      </trkpt>
      <trkpt lat="42.011580" lon="2.251951">
        <ele>463.185</ele>
        <time>2018-01-09T15:06:07Z</time>
      </trkpt>
      <trkpt lat="42.011553" lon="2.251895">
        <ele>463.210</ele>
        <time>2018-01-09T15:06:11Z</time>
      </trkpt>
      <trkpt lat="42.011526" lon="2.251835">
        <ele>462.466</ele>
        <time>2018-01-09T15:06:15Z</time>
      </trkpt>
      <trkpt lat="42.011492" lon="2.251770">
        <ele>462.849</ele>
        <time>2018-01-09T15:06:19Z</time>
      </trkpt>
      <trkpt lat="42.011461" lon="2.251707">
        <ele>463.653</ele>
        <time>2018-01-09T15:06:23Z</time>
      </trkpt>
      <trkpt lat="42.011430" lon="2.251645">
        <ele>463.676</ele>
        <time>2018-01-09T15:06:27Z</time>
      </trkpt>
      <trkpt lat="42.011403" lon="2.251580">
        <ele>462.990</ele>
        <time>2018-01-09T15:06:31Z</time>
      </trkpt>
      <trkpt lat="42.011381" lon="2.251516">
        <ele>463.519</ele>
        <time>2018-01-09T15:06:35Z</time>
      </trkpt>
      <trkpt lat="42.011350" lon="2.251466">
        <ele>463.708</ele>
        <time>2018-01-09T15:06:39Z</time>
      </trkpt>
      <trkpt lat="42.011319" lon="2.251406">
        <ele>463.979</ele>
        <time>2018-01-09T15:06:43Z</time>
      </trkpt>
      <trkpt lat="42.011294" lon="2.251353">
        <ele>463.538</ele>
        <time>2018-01-09T15:06:47Z</time>
      </trkpt>
      <trkpt lat="42.011269" lon="2.251296">
        <ele>463.346</ele>
        <time>2018-01-09T15:06:51Z</time>
      </trkpt>
      <trkpt lat="42.011240" lon="2.251236">
        <ele>464.071</ele>
        <time>2018-01-09T15:06:55Z</time>
      </trkpt>
      <trkpt lat="42.011216" lon="2.251172">
        <ele>464.036</ele>
        <time>2018-01-09T15:06:59Z</time>
      </trkpt>
      <trkpt lat="42.011187" lon="2.251109">
        <ele>463.592</ele>
        <time>2018-01-09T15:07:03Z</time>
      </trkpt>
      <trkpt lat="42.011159" lon="2.251053">
        <ele>462.265</ele>
        <time>2018-01-09T15:07:07Z</time>
      </trkpt>
      <trkpt lat="42.011133" lon="2.250988">
        <ele>461.979</ele>
        <time>2018-01-09T15:07:11Z</time>
      </trkpt>
      <trkpt lat="42.011098" lon="2.250929">
        <ele>461.849</ele>
        <time>2018-01-09T15:07:15Z</time>
      </trkpt>
      <trkpt lat="42.011070" lon="2.250872">
        <ele>461.702</ele>
        <time>2018-01-09T15:07:19Z</time>
      </trkpt>
      <trkpt lat="42.011043" lon="2.250807">
        <ele>461.822</ele>
        <time>2018-01-09T15:07:23Z</time>
      </trkpt>
      <trkpt lat="42.011016" lon="2.250738">
        <ele>462.108</ele>
        <time>2018-01-09T15:07:27Z</time>
      </trkpt>
      <trkpt lat="42.010983" lon="2.250686">
        <ele>461.966</ele>
        <time>2018-01-09T15:07:30Z</time>
      </trkpt>
      <trkpt lat="42.010950" lon="2.250642">
        <ele>461.375</ele>
        <time>2018-01-09T15:07:33Z</time>
      </trkpt>
      <trkpt lat="42.010918" lon="2.250580">
        <ele>461.843</ele>
        <time>2018-01-09T15:07:37Z</time>
      </trkpt>
      <trkpt lat="42.010892" lon="2.250530">
        <ele>462.118</ele>
        <time>2018-01-09T15:07:40Z</time>
      </trkpt>
      <trkpt lat="42.010863" lon="2.250469">
        <ele>461.763</ele>
        <time>2018-01-09T15:07:44Z</time>
      </trkpt>
      <trkpt lat="42.010836" lon="2.250412">
        <ele>461.579</ele>
        <time>2018-01-09T15:07:48Z</time>
      </trkpt>
      <trkpt lat="42.010810" lon="2.250357">
        <ele>461.352</ele>
        <time>2018-01-09T15:07:52Z</time>
      </trkpt>
      <trkpt lat="42.010784" lon="2.250302">
        <ele>461.336</ele>
        <time>2018-01-09T15:07:57Z</time>
      </trkpt>
      <trkpt lat="42.010778" lon="2.250242">
        <ele>460.974</ele>
        <time>2018-01-09T15:08:03Z</time>
      </trkpt>
      <trkpt lat="42.010740" lon="2.250203">
        <ele>461.356</ele>
        <time>2018-01-09T15:08:07Z</time>
      </trkpt>
      <trkpt lat="42.010696" lon="2.250172">
        <ele>460.721</ele>
        <time>2018-01-09T15:08:12Z</time>
      </trkpt>
      <trkpt lat="42.010666" lon="2.250119">
        <ele>460.708</ele>
        <time>2018-01-09T15:08:20Z</time>
      </trkpt>
      <trkpt lat="42.010641" lon="2.250048">
        <ele>461.249</ele>
        <time>2018-01-09T15:08:24Z</time>
      </trkpt>
      <trkpt lat="42.010616" lon="2.249998">
        <ele>461.128</ele>
        <time>2018-01-09T15:08:27Z</time>
      </trkpt>
      <trkpt lat="42.010588" lon="2.249936">
        <ele>461.366</ele>
        <time>2018-01-09T15:08:31Z</time>
      </trkpt>
      <trkpt lat="42.010560" lon="2.249869">
        <ele>460.831</ele>
        <time>2018-01-09T15:08:35Z</time>
      </trkpt>
      <trkpt lat="42.010532" lon="2.249806">
        <ele>460.696</ele>
        <time>2018-01-09T15:08:39Z</time>
      </trkpt>
      <trkpt lat="42.010506" lon="2.249745">
        <ele>461.562</ele>
        <time>2018-01-09T15:08:43Z</time>
      </trkpt>
      <trkpt lat="42.010473" lon="2.249686">
        <ele>461.765</ele>
        <time>2018-01-09T15:08:47Z</time>
      </trkpt>
      <trkpt lat="42.010443" lon="2.249627">
        <ele>461.899</ele>
        <time>2018-01-09T15:08:51Z</time>
      </trkpt>
      <trkpt lat="42.010415" lon="2.249571">
        <ele>462.082</ele>
        <time>2018-01-09T15:08:55Z</time>
      </trkpt>
      <trkpt lat="42.010399" lon="2.249511">
        <ele>462.443</ele>
        <time>2018-01-09T15:08:59Z</time>
      </trkpt>
      <trkpt lat="42.010397" lon="2.249449">
        <ele>463.417</ele>
        <time>2018-01-09T15:09:03Z</time>
      </trkpt>
      <trkpt lat="42.010407" lon="2.249389">
        <ele>463.408</ele>
        <time>2018-01-09T15:09:07Z</time>
      </trkpt>
      <trkpt lat="42.010422" lon="2.249316">
        <ele>462.640</ele>
        <time>2018-01-09T15:09:12Z</time>
      </trkpt>
      <trkpt lat="42.010452" lon="2.249259">
        <ele>462.299</ele>
        <time>2018-01-09T15:09:16Z</time>
      </trkpt>
      <trkpt lat="42.010483" lon="2.249194">
        <ele>462.427</ele>
        <time>2018-01-09T15:09:20Z</time>
      </trkpt>
      <trkpt lat="42.010506" lon="2.249142">
        <ele>463.052</ele>
        <time>2018-01-09T15:09:23Z</time>
      </trkpt>
      <trkpt lat="42.010536" lon="2.249074">
        <ele>463.737</ele>
        <time>2018-01-09T15:09:27Z</time>
      </trkpt>
      <trkpt lat="42.010566" lon="2.249026">
        <ele>464.693</ele>
        <time>2018-01-09T15:09:30Z</time>
      </trkpt>
      <trkpt lat="42.010610" lon="2.248986">
        <ele>464.656</ele>
        <time>2018-01-09T15:09:33Z</time>
      </trkpt>
      <trkpt lat="42.010651" lon="2.248954">
        <ele>465.260</ele>
        <time>2018-01-09T15:09:36Z</time>
      </trkpt>
      <trkpt lat="42.010700" lon="2.248923">
        <ele>466.051</ele>
        <time>2018-01-09T15:09:40Z</time>
      </trkpt>
      <trkpt lat="42.010748" lon="2.248898">
        <ele>466.201</ele>
        <time>2018-01-09T15:09:44Z</time>
      </trkpt>
      <trkpt lat="42.010799" lon="2.248863">
        <ele>467.011</ele>
        <time>2018-01-09T15:09:49Z</time>
      </trkpt>
      <trkpt lat="42.010839" lon="2.248834">
        <ele>466.608</ele>
        <time>2018-01-09T15:09:53Z</time>
      </trkpt>
      <trkpt lat="42.010890" lon="2.248797">
        <ele>467.097</ele>
        <time>2018-01-09T15:09:57Z</time>
      </trkpt>
      <trkpt lat="42.010940" lon="2.248757">
        <ele>467.036</ele>
        <time>2018-01-09T15:10:01Z</time>
      </trkpt>
      <trkpt lat="42.010987" lon="2.248721">
        <ele>467.254</ele>
        <time>2018-01-09T15:10:05Z</time>
      </trkpt>
      <trkpt lat="42.011036" lon="2.248688">
        <ele>467.449</ele>
        <time>2018-01-09T15:10:09Z</time>
      </trkpt>
      <trkpt lat="42.011085" lon="2.248653">
        <ele>467.454</ele>
        <time>2018-01-09T15:10:13Z</time>
      </trkpt>
      <trkpt lat="42.011125" lon="2.248619">
        <ele>467.650</ele>
        <time>2018-01-09T15:10:17Z</time>
      </trkpt>
      <trkpt lat="42.011168" lon="2.248586">
        <ele>467.743</ele>
        <time>2018-01-09T15:10:21Z</time>
      </trkpt>
      <trkpt lat="42.011212" lon="2.248560">
        <ele>467.947</ele>
        <time>2018-01-09T15:10:24Z</time>
      </trkpt>
      <trkpt lat="42.011252" lon="2.248527">
        <ele>468.293</ele>
        <time>2018-01-09T15:10:28Z</time>
      </trkpt>
      <trkpt lat="42.011291" lon="2.248492">
        <ele>468.865</ele>
        <time>2018-01-09T15:10:32Z</time>
      </trkpt>
      <trkpt lat="42.011335" lon="2.248451">
        <ele>469.121</ele>
        <time>2018-01-09T15:10:37Z</time>
      </trkpt>
      <trkpt lat="42.011379" lon="2.248412">
        <ele>469.608</ele>
        <time>2018-01-09T15:10:42Z</time>
      </trkpt>
      <trkpt lat="42.011381" lon="2.248342">
        <ele>469.531</ele>
        <time>2018-01-09T15:10:46Z</time>
      </trkpt>
      <trkpt lat="42.011348" lon="2.248290">
        <ele>469.390</ele>
        <time>2018-01-09T15:10:49Z</time>
      </trkpt>
      <trkpt lat="42.011314" lon="2.248246">
        <ele>469.158</ele>
        <time>2018-01-09T15:10:52Z</time>
      </trkpt>
      <trkpt lat="42.011266" lon="2.248201">
        <ele>469.023</ele>
        <time>2018-01-09T15:10:56Z</time>
      </trkpt>
      <trkpt lat="42.011220" lon="2.248165">
        <ele>468.678</ele>
        <time>2018-01-09T15:11:00Z</time>
      </trkpt>
      <trkpt lat="42.011177" lon="2.248126">
        <ele>468.374</ele>
        <time>2018-01-09T15:11:04Z</time>
      </trkpt>
      <trkpt lat="42.011132" lon="2.248084">
        <ele>468.417</ele>
        <time>2018-01-09T15:11:08Z</time>
      </trkpt>
      <trkpt lat="42.011086" lon="2.248038">
        <ele>468.231</ele>
        <time>2018-01-09T15:11:12Z</time>
      </trkpt>
      <trkpt lat="42.011045" lon="2.247999">
        <ele>468.119</ele>
        <time>2018-01-09T15:11:16Z</time>
      </trkpt>
      <trkpt lat="42.010999" lon="2.247961">
        <ele>468.109</ele>
        <time>2018-01-09T15:11:21Z</time>
      </trkpt>
      <trkpt lat="42.010960" lon="2.247905">
        <ele>468.319</ele>
        <time>2018-01-09T15:11:26Z</time>
      </trkpt>
      <trkpt lat="42.010923" lon="2.247850">
        <ele>468.608</ele>
        <time>2018-01-09T15:11:30Z</time>
      </trkpt>
      <trkpt lat="42.010890" lon="2.247797">
        <ele>468.993</ele>
        <time>2018-01-09T15:11:34Z</time>
      </trkpt>
      <trkpt lat="42.010849" lon="2.247750">
        <ele>469.632</ele>
        <time>2018-01-09T15:11:38Z</time>
      </trkpt>
      <trkpt lat="42.010806" lon="2.247704">
        <ele>470.080</ele>
        <time>2018-01-09T15:11:43Z</time>
      </trkpt>
      <trkpt lat="42.010759" lon="2.247681">
        <ele>469.895</ele>
        <time>2018-01-09T15:11:47Z</time>
      </trkpt>
      <trkpt lat="42.010709" lon="2.247645">
        <ele>470.080</ele>
        <time>2018-01-09T15:11:51Z</time>
      </trkpt>
      <trkpt lat="42.010670" lon="2.247613">
        <ele>470.256</ele>
        <time>2018-01-09T15:11:55Z</time>
      </trkpt>
      <trkpt lat="42.010620" lon="2.247580">
        <ele>470.749</ele>
        <time>2018-01-09T15:12:00Z</time>
      </trkpt>
      <trkpt lat="42.010581" lon="2.247532">
        <ele>470.933</ele>
        <time>2018-01-09T15:12:04Z</time>
      </trkpt>
      <trkpt lat="42.010537" lon="2.247493">
        <ele>471.417</ele>
        <time>2018-01-09T15:12:08Z</time>
      </trkpt>
      <trkpt lat="42.010511" lon="2.247438">
        <ele>472.087</ele>
        <time>2018-01-09T15:12:12Z</time>
      </trkpt>
      <trkpt lat="42.010473" lon="2.247387">
        <ele>471.815</ele>
        <time>2018-01-09T15:12:17Z</time>
      </trkpt>
      <trkpt lat="42.010434" lon="2.247333">
        <ele>470.908</ele>
        <time>2018-01-09T15:12:21Z</time>
      </trkpt>
      <trkpt lat="42.010398" lon="2.247278">
        <ele>470.743</ele>
        <time>2018-01-09T15:12:25Z</time>
      </trkpt>
      <trkpt lat="42.010375" lon="2.247208">
        <ele>471.172</ele>
        <time>2018-01-09T15:12:29Z</time>
      </trkpt>
      <trkpt lat="42.010356" lon="2.247143">
        <ele>471.150</ele>
        <time>2018-01-09T15:12:33Z</time>
      </trkpt>
      <trkpt lat="42.010341" lon="2.247077">
        <ele>470.815</ele>
        <time>2018-01-09T15:12:37Z</time>
      </trkpt>
      <trkpt lat="42.010331" lon="2.247010">
        <ele>471.370</ele>
        <time>2018-01-09T15:12:41Z</time>
      </trkpt>
      <trkpt lat="42.010316" lon="2.246945">
        <ele>471.156</ele>
        <time>2018-01-09T15:12:45Z</time>
      </trkpt>
      <trkpt lat="42.010307" lon="2.246874">
        <ele>471.019</ele>
        <time>2018-01-09T15:12:49Z</time>
      </trkpt>
      <trkpt lat="42.010312" lon="2.246804">
        <ele>471.413</ele>
        <time>2018-01-09T15:12:53Z</time>
      </trkpt>
      <trkpt lat="42.010319" lon="2.246740">
        <ele>471.443</ele>
        <time>2018-01-09T15:12:57Z</time>
      </trkpt>
      <trkpt lat="42.010314" lon="2.246669">
        <ele>471.664</ele>
        <time>2018-01-09T15:13:02Z</time>
      </trkpt>
      <trkpt lat="42.010330" lon="2.246603">
        <ele>471.510</ele>
        <time>2018-01-09T15:13:07Z</time>
      </trkpt>
      <trkpt lat="42.010351" lon="2.246545">
        <ele>471.708</ele>
        <time>2018-01-09T15:13:11Z</time>
      </trkpt>
      <trkpt lat="42.010370" lon="2.246481">
        <ele>472.046</ele>
        <time>2018-01-09T15:13:15Z</time>
      </trkpt>
      <trkpt lat="42.010378" lon="2.246409">
        <ele>472.615</ele>
        <time>2018-01-09T15:13:20Z</time>
      </trkpt>
      <trkpt lat="42.010386" lon="2.246349">
        <ele>472.753</ele>
        <time>2018-01-09T15:13:24Z</time>
      </trkpt>
      <trkpt lat="42.010378" lon="2.246289">
        <ele>473.298</ele>
        <time>2018-01-09T15:13:28Z</time>
      </trkpt>
      <trkpt lat="42.010354" lon="2.246230">
        <ele>473.053</ele>
        <time>2018-01-09T15:13:33Z</time>
      </trkpt>
      <trkpt lat="42.010335" lon="2.246172">
        <ele>473.379</ele>
        <time>2018-01-09T15:13:52Z</time>
      </trkpt>
      <trkpt lat="42.010290" lon="2.246155">
        <ele>473.572</ele>
        <time>2018-01-09T15:13:56Z</time>
      </trkpt>
      <trkpt lat="42.010239" lon="2.246135">
        <ele>472.996</ele>
        <time>2018-01-09T15:14:00Z</time>
      </trkpt>
      <trkpt lat="42.010195" lon="2.246120">
        <ele>472.756</ele>
        <time>2018-01-09T15:14:04Z</time>
      </trkpt>
      <trkpt lat="42.010144" lon="2.246099">
        <ele>472.959</ele>
        <time>2018-01-09T15:14:08Z</time>
      </trkpt>
      <trkpt lat="42.010090" lon="2.246084">
        <ele>472.714</ele>
        <time>2018-01-09T15:14:12Z</time>
      </trkpt>
      <trkpt lat="42.010041" lon="2.246061">
        <ele>472.608</ele>
        <time>2018-01-09T15:14:16Z</time>
      </trkpt>
      <trkpt lat="42.009990" lon="2.246048">
        <ele>472.937</ele>
        <time>2018-01-09T15:14:20Z</time>
      </trkpt>
      <trkpt lat="42.009943" lon="2.246033">
        <ele>472.726</ele>
        <time>2018-01-09T15:14:24Z</time>
      </trkpt>
      <trkpt lat="42.009899" lon="2.246014">
        <ele>472.594</ele>
        <time>2018-01-09T15:14:27Z</time>
      </trkpt>
      <trkpt lat="42.009847" lon="2.245985">
        <ele>471.979</ele>
        <time>2018-01-09T15:14:31Z</time>
      </trkpt>
      <trkpt lat="42.009802" lon="2.245960">
        <ele>471.754</ele>
        <time>2018-01-09T15:14:34Z</time>
      </trkpt>
      <trkpt lat="42.009752" lon="2.245927">
        <ele>471.340</ele>
        <time>2018-01-09T15:14:38Z</time>
      </trkpt>
      <trkpt lat="42.009700" lon="2.245895">
        <ele>470.853</ele>
        <time>2018-01-09T15:14:42Z</time>
      </trkpt>
      <trkpt lat="42.009651" lon="2.245878">
        <ele>470.697</ele>
        <time>2018-01-09T15:14:46Z</time>
      </trkpt>
      <trkpt lat="42.009598" lon="2.245854">
        <ele>470.078</ele>
        <time>2018-01-09T15:14:50Z</time>
      </trkpt>
      <trkpt lat="42.009547" lon="2.245827">
        <ele>469.733</ele>
        <time>2018-01-09T15:14:54Z</time>
      </trkpt>
      <trkpt lat="42.009498" lon="2.245807">
        <ele>469.426</ele>
        <time>2018-01-09T15:14:58Z</time>
      </trkpt>
      <trkpt lat="42.009450" lon="2.245780">
        <ele>469.008</ele>
        <time>2018-01-09T15:15:03Z</time>
      </trkpt>
      <trkpt lat="42.009413" lon="2.245739">
        <ele>468.899</ele>
        <time>2018-01-09T15:15:07Z</time>
      </trkpt>
      <trkpt lat="42.009371" lon="2.245705">
        <ele>468.898</ele>
        <time>2018-01-09T15:15:11Z</time>
      </trkpt>
      <trkpt lat="42.009320" lon="2.245679">
        <ele>468.686</ele>
        <time>2018-01-09T15:15:15Z</time>
      </trkpt>
      <trkpt lat="42.009274" lon="2.245671">
        <ele>468.331</ele>
        <time>2018-01-09T15:15:19Z</time>
      </trkpt>
      <trkpt lat="42.009216" lon="2.245655">
        <ele>468.186</ele>
        <time>2018-01-09T15:15:24Z</time>
      </trkpt>
      <trkpt lat="42.009168" lon="2.245628">
        <ele>467.592</ele>
        <time>2018-01-09T15:15:28Z</time>
      </trkpt>
      <trkpt lat="42.009122" lon="2.245613">
        <ele>467.115</ele>
        <time>2018-01-09T15:15:32Z</time>
      </trkpt>
      <trkpt lat="42.009075" lon="2.245608">
        <ele>466.469</ele>
        <time>2018-01-09T15:15:36Z</time>
      </trkpt>
      <trkpt lat="42.009020" lon="2.245596">
        <ele>465.835</ele>
        <time>2018-01-09T15:15:40Z</time>
      </trkpt>
      <trkpt lat="42.008969" lon="2.245579">
        <ele>465.786</ele>
        <time>2018-01-09T15:15:44Z</time>
      </trkpt>
      <trkpt lat="42.008918" lon="2.245560">
        <ele>466.414</ele>
        <time>2018-01-09T15:15:48Z</time>
      </trkpt>
      <trkpt lat="42.008867" lon="2.245546">
        <ele>466.308</ele>
        <time>2018-01-09T15:15:52Z</time>
      </trkpt>
      <trkpt lat="42.008814" lon="2.245530">
        <ele>466.545</ele>
        <time>2018-01-09T15:15:56Z</time>
      </trkpt>
      <trkpt lat="42.008770" lon="2.245510">
        <ele>466.524</ele>
        <time>2018-01-09T15:15:59Z</time>
      </trkpt>
      <trkpt lat="42.008715" lon="2.245476">
        <ele>466.872</ele>
        <time>2018-01-09T15:16:03Z</time>
      </trkpt>
      <trkpt lat="42.008673" lon="2.245454">
        <ele>466.847</ele>
        <time>2018-01-09T15:16:07Z</time>
      </trkpt>
      <trkpt lat="42.008621" lon="2.245428">
        <ele>466.812</ele>
        <time>2018-01-09T15:16:11Z</time>
      </trkpt>
      <trkpt lat="42.008564" lon="2.245413">
        <ele>466.698</ele>
        <time>2018-01-09T15:16:15Z</time>
      </trkpt>
      <trkpt lat="42.008511" lon="2.245390">
        <ele>466.441</ele>
        <time>2018-01-09T15:16:19Z</time>
      </trkpt>
      <trkpt lat="42.008463" lon="2.245368">
        <ele>466.295</ele>
        <time>2018-01-09T15:16:22Z</time>
      </trkpt>
      <trkpt lat="42.008409" lon="2.245352">
        <ele>466.476</ele>
        <time>2018-01-09T15:16:26Z</time>
      </trkpt>
      <trkpt lat="42.008356" lon="2.245323">
        <ele>466.590</ele>
        <time>2018-01-09T15:16:30Z</time>
      </trkpt>
      <trkpt lat="42.008308" lon="2.245303">
        <ele>466.419</ele>
        <time>2018-01-09T15:16:34Z</time>
      </trkpt>
      <trkpt lat="42.008256" lon="2.245282">
        <ele>466.508</ele>
        <time>2018-01-09T15:16:38Z</time>
      </trkpt>
      <trkpt lat="42.008202" lon="2.245257">
        <ele>466.749</ele>
        <time>2018-01-09T15:16:42Z</time>
      </trkpt>
      <trkpt lat="42.008148" lon="2.245232">
        <ele>466.798</ele>
        <time>2018-01-09T15:16:46Z</time>
      </trkpt>
      <trkpt lat="42.008093" lon="2.245213">
        <ele>466.226</ele>
        <time>2018-01-09T15:16:50Z</time>
      </trkpt>
      <trkpt lat="42.008035" lon="2.245188">
        <ele>466.041</ele>
        <time>2018-01-09T15:16:54Z</time>
      </trkpt>
      <trkpt lat="42.007981" lon="2.245162">
        <ele>465.836</ele>
        <time>2018-01-09T15:16:58Z</time>
      </trkpt>
      <trkpt lat="42.007929" lon="2.245142">
        <ele>465.582</ele>
        <time>2018-01-09T15:17:02Z</time>
      </trkpt>
      <trkpt lat="42.007880" lon="2.245126">
        <ele>465.365</ele>
        <time>2018-01-09T15:17:06Z</time>
      </trkpt>
      <trkpt lat="42.007827" lon="2.245109">
        <ele>464.689</ele>
        <time>2018-01-09T15:17:10Z</time>
      </trkpt>
      <trkpt lat="42.007776" lon="2.245091">
        <ele>464.315</ele>
        <time>2018-01-09T15:17:14Z</time>
      </trkpt>
      <trkpt lat="42.007723" lon="2.245071">
        <ele>464.365</ele>
        <time>2018-01-09T15:17:18Z</time>
      </trkpt>
      <trkpt lat="42.007673" lon="2.245055">
        <ele>464.311</ele>
        <time>2018-01-09T15:17:22Z</time>
      </trkpt>
      <trkpt lat="42.007616" lon="2.245035">
        <ele>464.408</ele>
        <time>2018-01-09T15:17:26Z</time>
      </trkpt>
      <trkpt lat="42.007566" lon="2.245014">
        <ele>464.263</ele>
        <time>2018-01-09T15:17:30Z</time>
      </trkpt>
      <trkpt lat="42.007513" lon="2.244991">
        <ele>464.212</ele>
        <time>2018-01-09T15:17:34Z</time>
      </trkpt>
      <trkpt lat="42.007462" lon="2.244974">
        <ele>463.940</ele>
        <time>2018-01-09T15:17:38Z</time>
      </trkpt>
      <trkpt lat="42.007410" lon="2.244953">
        <ele>463.515</ele>
        <time>2018-01-09T15:17:42Z</time>
      </trkpt>
      <trkpt lat="42.007359" lon="2.244934">
        <ele>463.570</ele>
        <time>2018-01-09T15:17:46Z</time>
      </trkpt>
      <trkpt lat="42.007309" lon="2.244913">
        <ele>463.146</ele>
        <time>2018-01-09T15:17:50Z</time>
      </trkpt>
      <trkpt lat="42.007258" lon="2.244889">
        <ele>463.169</ele>
        <time>2018-01-09T15:17:54Z</time>
      </trkpt>
      <trkpt lat="42.007214" lon="2.244867">
        <ele>462.643</ele>
        <time>2018-01-09T15:17:58Z</time>
      </trkpt>
      <trkpt lat="42.007163" lon="2.244840">
        <ele>462.396</ele>
        <time>2018-01-09T15:18:02Z</time>
      </trkpt>
      <trkpt lat="42.007107" lon="2.244818">
        <ele>462.331</ele>
        <time>2018-01-09T15:18:06Z</time>
      </trkpt>
      <trkpt lat="42.007062" lon="2.244802">
        <ele>461.824</ele>
        <time>2018-01-09T15:18:09Z</time>
      </trkpt>
      <trkpt lat="42.007006" lon="2.244783">
        <ele>461.908</ele>
        <time>2018-01-09T15:18:13Z</time>
      </trkpt>
      <trkpt lat="42.006954" lon="2.244767">
        <ele>461.691</ele>
        <time>2018-01-09T15:18:17Z</time>
      </trkpt>
      <trkpt lat="42.006910" lon="2.244747">
        <ele>461.710</ele>
        <time>2018-01-09T15:18:20Z</time>
      </trkpt>
      <trkpt lat="42.006856" lon="2.244717">
        <ele>461.998</ele>
        <time>2018-01-09T15:18:24Z</time>
      </trkpt>
      <trkpt lat="42.006804" lon="2.244690">
        <ele>461.853</ele>
        <time>2018-01-09T15:18:28Z</time>
      </trkpt>
      <trkpt lat="42.006750" lon="2.244658">
        <ele>461.958</ele>
        <time>2018-01-09T15:18:32Z</time>
      </trkpt>
      <trkpt lat="42.006701" lon="2.244624">
        <ele>462.114</ele>
        <time>2018-01-09T15:18:36Z</time>
      </trkpt>
      <trkpt lat="42.006656" lon="2.244596">
        <ele>462.437</ele>
        <time>2018-01-09T15:18:40Z</time>
      </trkpt>
      <trkpt lat="42.006610" lon="2.244563">
        <ele>462.431</ele>
        <time>2018-01-09T15:18:44Z</time>
      </trkpt>
      <trkpt lat="42.006570" lon="2.244530">
        <ele>461.957</ele>
        <time>2018-01-09T15:18:50Z</time>
      </trkpt>
      <trkpt lat="42.006526" lon="2.244499">
        <ele>461.900</ele>
        <time>2018-01-09T15:18:54Z</time>
      </trkpt>
      <trkpt lat="42.006476" lon="2.244465">
        <ele>461.720</ele>
        <time>2018-01-09T15:18:58Z</time>
      </trkpt>
      <trkpt lat="42.006432" lon="2.244438">
        <ele>461.608</ele>
        <time>2018-01-09T15:19:01Z</time>
      </trkpt>
      <trkpt lat="42.006377" lon="2.244404">
        <ele>461.127</ele>
        <time>2018-01-09T15:19:05Z</time>
      </trkpt>
      <trkpt lat="42.006328" lon="2.244363">
        <ele>460.966</ele>
        <time>2018-01-09T15:19:09Z</time>
      </trkpt>
      <trkpt lat="42.006279" lon="2.244318">
        <ele>460.424</ele>
        <time>2018-01-09T15:19:13Z</time>
      </trkpt>
      <trkpt lat="42.006229" lon="2.244281">
        <ele>460.169</ele>
        <time>2018-01-09T15:19:17Z</time>
      </trkpt>
      <trkpt lat="42.006175" lon="2.244246">
        <ele>460.084</ele>
        <time>2018-01-09T15:19:21Z</time>
      </trkpt>
      <trkpt lat="42.006133" lon="2.244219">
        <ele>459.720</ele>
        <time>2018-01-09T15:19:24Z</time>
      </trkpt>
      <trkpt lat="42.006083" lon="2.244182">
        <ele>459.143</ele>
        <time>2018-01-09T15:19:28Z</time>
      </trkpt>
      <trkpt lat="42.006029" lon="2.244149">
        <ele>458.797</ele>
        <time>2018-01-09T15:19:32Z</time>
      </trkpt>
      <trkpt lat="42.005981" lon="2.244112">
        <ele>458.586</ele>
        <time>2018-01-09T15:19:36Z</time>
      </trkpt>
      <trkpt lat="42.005936" lon="2.244077">
        <ele>458.460</ele>
        <time>2018-01-09T15:19:40Z</time>
      </trkpt>
      <trkpt lat="42.005884" lon="2.244049">
        <ele>458.126</ele>
        <time>2018-01-09T15:19:44Z</time>
      </trkpt>
      <trkpt lat="42.005834" lon="2.244006">
        <ele>458.708</ele>
        <time>2018-01-09T15:19:48Z</time>
      </trkpt>
      <trkpt lat="42.005795" lon="2.243975">
        <ele>459.010</ele>
        <time>2018-01-09T15:19:51Z</time>
      </trkpt>
      <trkpt lat="42.005747" lon="2.243940">
        <ele>459.219</ele>
        <time>2018-01-09T15:19:55Z</time>
      </trkpt>
      <trkpt lat="42.005708" lon="2.243908">
        <ele>459.247</ele>
        <time>2018-01-09T15:19:58Z</time>
      </trkpt>
      <trkpt lat="42.005669" lon="2.243876">
        <ele>459.052</ele>
        <time>2018-01-09T15:20:01Z</time>
      </trkpt>
      <trkpt lat="42.005619" lon="2.243842">
        <ele>459.547</ele>
        <time>2018-01-09T15:20:05Z</time>
      </trkpt>
      <trkpt lat="42.005571" lon="2.243814">
        <ele>459.763</ele>
        <time>2018-01-09T15:20:09Z</time>
      </trkpt>
      <trkpt lat="42.005523" lon="2.243781">
        <ele>459.516</ele>
        <time>2018-01-09T15:20:13Z</time>
      </trkpt>
      <trkpt lat="42.005476" lon="2.243749">
        <ele>459.230</ele>
        <time>2018-01-09T15:20:17Z</time>
      </trkpt>
      <trkpt lat="42.005428" lon="2.243719">
        <ele>459.346</ele>
        <time>2018-01-09T15:20:21Z</time>
      </trkpt>
      <trkpt lat="42.005378" lon="2.243681">
        <ele>459.388</ele>
        <time>2018-01-09T15:20:25Z</time>
      </trkpt>
      <trkpt lat="42.005328" lon="2.243643">
        <ele>459.216</ele>
        <time>2018-01-09T15:20:29Z</time>
      </trkpt>
      <trkpt lat="42.005287" lon="2.243617">
        <ele>458.908</ele>
        <time>2018-01-09T15:20:33Z</time>
      </trkpt>
      <trkpt lat="42.005239" lon="2.243581">
        <ele>459.436</ele>
        <time>2018-01-09T15:20:37Z</time>
      </trkpt>
      <trkpt lat="42.005191" lon="2.243546">
        <ele>459.465</ele>
        <time>2018-01-09T15:20:41Z</time>
      </trkpt>
      <trkpt lat="42.005150" lon="2.243519">
        <ele>459.443</ele>
        <time>2018-01-09T15:20:44Z</time>
      </trkpt>
      <trkpt lat="42.005104" lon="2.243485">
        <ele>459.718</ele>
        <time>2018-01-09T15:20:48Z</time>
      </trkpt>
      <trkpt lat="42.005054" lon="2.243451">
        <ele>460.193</ele>
        <time>2018-01-09T15:20:52Z</time>
      </trkpt>
      <trkpt lat="42.004997" lon="2.243425">
        <ele>460.269</ele>
        <time>2018-01-09T15:20:56Z</time>
      </trkpt>
      <trkpt lat="42.004954" lon="2.243394">
        <ele>460.652</ele>
        <time>2018-01-09T15:20:59Z</time>
      </trkpt>
      <trkpt lat="42.004914" lon="2.243360">
        <ele>459.396</ele>
        <time>2018-01-09T15:21:02Z</time>
      </trkpt>
      <trkpt lat="42.004865" lon="2.243319">
        <ele>459.731</ele>
        <time>2018-01-09T15:21:06Z</time>
      </trkpt>
      <trkpt lat="42.004817" lon="2.243278">
        <ele>460.261</ele>
        <time>2018-01-09T15:21:10Z</time>
      </trkpt>
      <trkpt lat="42.004770" lon="2.243236">
        <ele>460.507</ele>
        <time>2018-01-09T15:21:14Z</time>
      </trkpt>
      <trkpt lat="42.004731" lon="2.243204">
        <ele>461.408</ele>
        <time>2018-01-09T15:21:17Z</time>
      </trkpt>
      <trkpt lat="42.004685" lon="2.243166">
        <ele>461.615</ele>
        <time>2018-01-09T15:21:21Z</time>
      </trkpt>
      <trkpt lat="42.004638" lon="2.243134">
        <ele>461.394</ele>
        <time>2018-01-09T15:21:25Z</time>
      </trkpt>
      <trkpt lat="42.004588" lon="2.243102">
        <ele>461.152</ele>
        <time>2018-01-09T15:21:30Z</time>
      </trkpt>
      <trkpt lat="42.004537" lon="2.243065">
        <ele>461.777</ele>
        <time>2018-01-09T15:21:34Z</time>
      </trkpt>
      <trkpt lat="42.004485" lon="2.243040">
        <ele>461.452</ele>
        <time>2018-01-09T15:21:38Z</time>
      </trkpt>
      <trkpt lat="42.004427" lon="2.243014">
        <ele>461.388</ele>
        <time>2018-01-09T15:21:42Z</time>
      </trkpt>
      <trkpt lat="42.004380" lon="2.243000">
        <ele>461.291</ele>
        <time>2018-01-09T15:21:45Z</time>
      </trkpt>
      <trkpt lat="42.004325" lon="2.242987">
        <ele>460.555</ele>
        <time>2018-01-09T15:21:49Z</time>
      </trkpt>
      <trkpt lat="42.004273" lon="2.242977">
        <ele>461.257</ele>
        <time>2018-01-09T15:21:53Z</time>
      </trkpt>
      <trkpt lat="42.004222" lon="2.242986">
        <ele>460.500</ele>
        <time>2018-01-09T15:21:58Z</time>
      </trkpt>
      <trkpt lat="42.004174" lon="2.242971">
        <ele>460.620</ele>
        <time>2018-01-09T15:22:02Z</time>
      </trkpt>
      <trkpt lat="42.004126" lon="2.242958">
        <ele>460.508</ele>
        <time>2018-01-09T15:22:06Z</time>
      </trkpt>
      <trkpt lat="42.004078" lon="2.242960">
        <ele>460.747</ele>
        <time>2018-01-09T15:22:10Z</time>
      </trkpt>
      <trkpt lat="42.004025" lon="2.242958">
        <ele>461.026</ele>
        <time>2018-01-09T15:22:14Z</time>
      </trkpt>
      <trkpt lat="42.003969" lon="2.242950">
        <ele>460.934</ele>
        <time>2018-01-09T15:22:18Z</time>
      </trkpt>
      <trkpt lat="42.003918" lon="2.242948">
        <ele>460.429</ele>
        <time>2018-01-09T15:22:22Z</time>
      </trkpt>
      <trkpt lat="42.003861" lon="2.242941">
        <ele>460.584</ele>
        <time>2018-01-09T15:22:26Z</time>
      </trkpt>
      <trkpt lat="42.003804" lon="2.242949">
        <ele>460.150</ele>
        <time>2018-01-09T15:22:30Z</time>
      </trkpt>
      <trkpt lat="42.003755" lon="2.242955">
        <ele>460.023</ele>
        <time>2018-01-09T15:22:34Z</time>
      </trkpt>
      <trkpt lat="42.003708" lon="2.242949">
        <ele>459.977</ele>
        <time>2018-01-09T15:22:38Z</time>
      </trkpt>
      <trkpt lat="42.003655" lon="2.242942">
        <ele>458.628</ele>
        <time>2018-01-09T15:22:42Z</time>
      </trkpt>
      <trkpt lat="42.003611" lon="2.242931">
        <ele>458.589</ele>
        <time>2018-01-09T15:22:45Z</time>
      </trkpt>
      <trkpt lat="42.003566" lon="2.242926">
        <ele>458.417</ele>
        <time>2018-01-09T15:22:49Z</time>
      </trkpt>
      <trkpt lat="42.003515" lon="2.242929">
        <ele>458.308</ele>
        <time>2018-01-09T15:22:55Z</time>
      </trkpt>
      <trkpt lat="42.003470" lon="2.242901">
        <ele>459.114</ele>
        <time>2018-01-09T15:23:15Z</time>
      </trkpt>
      <trkpt lat="42.003417" lon="2.242892">
        <ele>459.873</ele>
        <time>2018-01-09T15:23:19Z</time>
      </trkpt>
      <trkpt lat="42.003366" lon="2.242901">
        <ele>460.321</ele>
        <time>2018-01-09T15:23:24Z</time>
      </trkpt>
      <trkpt lat="42.003314" lon="2.242877">
        <ele>460.316</ele>
        <time>2018-01-09T15:23:28Z</time>
      </trkpt>
      <trkpt lat="42.003264" lon="2.242862">
        <ele>460.991</ele>
        <time>2018-01-09T15:23:32Z</time>
      </trkpt>
      <trkpt lat="42.003221" lon="2.242823">
        <ele>460.127</ele>
        <time>2018-01-09T15:23:35Z</time>
      </trkpt>
      <trkpt lat="42.003177" lon="2.242784">
        <ele>460.130</ele>
        <time>2018-01-09T15:23:39Z</time>
      </trkpt>
      <trkpt lat="42.003122" lon="2.242789">
        <ele>460.944</ele>
        <time>2018-01-09T15:23:43Z</time>
      </trkpt>
      <trkpt lat="42.003065" lon="2.242792">
        <ele>461.921</ele>
        <time>2018-01-09T15:23:47Z</time>
      </trkpt>
      <trkpt lat="42.003018" lon="2.242792">
        <ele>461.641</ele>
        <time>2018-01-09T15:24:11Z</time>
      </trkpt>
      <trkpt lat="42.002974" lon="2.242807">
        <ele>462.305</ele>
        <time>2018-01-09T15:24:15Z</time>
      </trkpt>
      <trkpt lat="42.002926" lon="2.242801">
        <ele>463.808</ele>
        <time>2018-01-09T15:24:19Z</time>
      </trkpt>
      <trkpt lat="42.002872" lon="2.242793">
        <ele>464.064</ele>
        <time>2018-01-09T15:24:23Z</time>
      </trkpt>
      <trkpt lat="42.002822" lon="2.242796">
        <ele>464.983</ele>
        <time>2018-01-09T15:24:28Z</time>
      </trkpt>
      <trkpt lat="42.002770" lon="2.242792">
        <ele>465.071</ele>
        <time>2018-01-09T15:24:32Z</time>
      </trkpt>
      <trkpt lat="42.002736" lon="2.242843">
        <ele>465.186</ele>
        <time>2018-01-09T15:24:56Z</time>
      </trkpt>
      <trkpt lat="42.002719" lon="2.242906">
        <ele>464.411</ele>
        <time>2018-01-09T15:25:00Z</time>
      </trkpt>
      <trkpt lat="42.002718" lon="2.242979">
        <ele>464.447</ele>
        <time>2018-01-09T15:25:04Z</time>
      </trkpt>
      <trkpt lat="42.002728" lon="2.243052">
        <ele>463.840</ele>
        <time>2018-01-09T15:25:09Z</time>
      </trkpt>
      <trkpt lat="42.002713" lon="2.243118">
        <ele>461.994</ele>
        <time>2018-01-09T15:25:21Z</time>
      </trkpt>
      <trkpt lat="42.002708" lon="2.243188">
        <ele>460.977</ele>
        <time>2018-01-09T15:25:25Z</time>
      </trkpt>
      <trkpt lat="42.002705" lon="2.243265">
        <ele>460.861</ele>
        <time>2018-01-09T15:25:29Z</time>
      </trkpt>
      <trkpt lat="42.002703" lon="2.243344">
        <ele>460.727</ele>
        <time>2018-01-09T15:25:33Z</time>
      </trkpt>
      <trkpt lat="42.002700" lon="2.243405">
        <ele>460.708</ele>
        <time>2018-01-09T15:25:36Z</time>
      </trkpt>
      <trkpt lat="42.002690" lon="2.243485">
        <ele>460.999</ele>
        <time>2018-01-09T15:25:40Z</time>
      </trkpt>
      <trkpt lat="42.002686" lon="2.243547">
        <ele>460.838</ele>
        <time>2018-01-09T15:25:43Z</time>
      </trkpt>
      <trkpt lat="42.002683" lon="2.243623">
        <ele>461.126</ele>
        <time>2018-01-09T15:25:47Z</time>
      </trkpt>
      <trkpt lat="42.002678" lon="2.243697">
        <ele>461.731</ele>
        <time>2018-01-09T15:25:51Z</time>
      </trkpt>
      <trkpt lat="42.002672" lon="2.243772">
        <ele>462.026</ele>
        <time>2018-01-09T15:25:55Z</time>
      </trkpt>
      <trkpt lat="42.002666" lon="2.243846">
        <ele>461.752</ele>
        <time>2018-01-09T15:25:59Z</time>
      </trkpt>
      <trkpt lat="42.002656" lon="2.243906">
        <ele>461.745</ele>
        <time>2018-01-09T15:26:02Z</time>
      </trkpt>
      <trkpt lat="42.002649" lon="2.243983">
        <ele>461.929</ele>
        <time>2018-01-09T15:26:06Z</time>
      </trkpt>
      <trkpt lat="42.002645" lon="2.244050">
        <ele>461.539</ele>
        <time>2018-01-09T15:26:10Z</time>
      </trkpt>
      <trkpt lat="42.002631" lon="2.244128">
        <ele>460.601</ele>
        <time>2018-01-09T15:26:14Z</time>
      </trkpt>
      <trkpt lat="42.002608" lon="2.244202">
        <ele>460.221</ele>
        <time>2018-01-09T15:26:18Z</time>
      </trkpt>
      <trkpt lat="42.002583" lon="2.244267">
        <ele>461.008</ele>
        <time>2018-01-09T15:26:21Z</time>
      </trkpt>
      <trkpt lat="42.002559" lon="2.244338">
        <ele>460.675</ele>
        <time>2018-01-09T15:26:25Z</time>
      </trkpt>
      <trkpt lat="42.002534" lon="2.244394">
        <ele>461.194</ele>
        <time>2018-01-09T15:26:28Z</time>
      </trkpt>
      <trkpt lat="42.002504" lon="2.244450">
        <ele>461.012</ele>
        <time>2018-01-09T15:26:31Z</time>
      </trkpt>
      <trkpt lat="42.002468" lon="2.244502">
        <ele>461.427</ele>
        <time>2018-01-09T15:26:34Z</time>
      </trkpt>
      <trkpt lat="42.002435" lon="2.244554">
        <ele>461.572</ele>
        <time>2018-01-09T15:26:37Z</time>
      </trkpt>
      <trkpt lat="42.002405" lon="2.244602">
        <ele>460.218</ele>
        <time>2018-01-09T15:26:40Z</time>
      </trkpt>
      <trkpt lat="42.002402" lon="2.244670">
        <ele>459.371</ele>
        <time>2018-01-09T15:26:44Z</time>
      </trkpt>
      <trkpt lat="42.002425" lon="2.244724">
        <ele>458.195</ele>
        <time>2018-01-09T15:26:52Z</time>
      </trkpt>
      <trkpt lat="42.002474" lon="2.244691">
        <ele>458.213</ele>
        <time>2018-01-09T15:26:56Z</time>
      </trkpt>
      <trkpt lat="42.002498" lon="2.244639">
        <ele>457.843</ele>
        <time>2018-01-09T15:26:59Z</time>
      </trkpt>
      <trkpt lat="42.002528" lon="2.244577">
        <ele>458.107</ele>
        <time>2018-01-09T15:27:03Z</time>
      </trkpt>
      <trkpt lat="42.002557" lon="2.244514">
        <ele>458.508</ele>
        <time>2018-01-09T15:27:07Z</time>
      </trkpt>
      <trkpt lat="42.002582" lon="2.244453">
        <ele>458.633</ele>
        <time>2018-01-09T15:27:11Z</time>
      </trkpt>
      <trkpt lat="42.002603" lon="2.244382">
        <ele>458.512</ele>
        <time>2018-01-09T15:27:15Z</time>
      </trkpt>
      <trkpt lat="42.002618" lon="2.244314">
        <ele>458.710</ele>
        <time>2018-01-09T15:27:19Z</time>
      </trkpt>
      <trkpt lat="42.002642" lon="2.244242">
        <ele>458.545</ele>
        <time>2018-01-09T15:27:23Z</time>
      </trkpt>
      <trkpt lat="42.002652" lon="2.244172">
        <ele>458.410</ele>
        <time>2018-01-09T15:27:27Z</time>
      </trkpt>
      <trkpt lat="42.002651" lon="2.244105">
        <ele>457.836</ele>
        <time>2018-01-09T15:27:31Z</time>
      </trkpt>
      <trkpt lat="42.002634" lon="2.244038">
        <ele>457.029</ele>
        <time>2018-01-09T15:27:35Z</time>
      </trkpt>
      <trkpt lat="42.002593" lon="2.243999">
        <ele>456.563</ele>
        <time>2018-01-09T15:27:39Z</time>
      </trkpt>
      <trkpt lat="42.002545" lon="2.243960">
        <ele>454.436</ele>
        <time>2018-01-09T15:27:44Z</time>
      </trkpt>
      <trkpt lat="42.002491" lon="2.243916">
        <ele>453.417</ele>
        <time>2018-01-09T15:27:47Z</time>
      </trkpt>
      <trkpt lat="42.002436" lon="2.243901">
        <ele>453.018</ele>
        <time>2018-01-09T15:27:50Z</time>
      </trkpt>
      <trkpt lat="42.002384" lon="2.243905">
        <ele>452.408</ele>
        <time>2018-01-09T15:27:53Z</time>
      </trkpt>
      <trkpt lat="42.002338" lon="2.243903">
        <ele>452.355</ele>
        <time>2018-01-09T15:27:56Z</time>
      </trkpt>
      <trkpt lat="42.002292" lon="2.243903">
        <ele>452.224</ele>
        <time>2018-01-09T15:27:59Z</time>
      </trkpt>
      <trkpt lat="42.002238" lon="2.243917">
        <ele>450.582</ele>
        <time>2018-01-09T15:28:03Z</time>
      </trkpt>
      <trkpt lat="42.002187" lon="2.243924">
        <ele>450.767</ele>
        <time>2018-01-09T15:28:07Z</time>
      </trkpt>
      <trkpt lat="42.002139" lon="2.243933">
        <ele>450.562</ele>
        <time>2018-01-09T15:28:11Z</time>
      </trkpt>
      <trkpt lat="42.002086" lon="2.243931">
        <ele>449.938</ele>
        <time>2018-01-09T15:28:15Z</time>
      </trkpt>
      <trkpt lat="42.002036" lon="2.243932">
        <ele>450.251</ele>
        <time>2018-01-09T15:28:19Z</time>
      </trkpt>
      <trkpt lat="42.001979" lon="2.243947">
        <ele>450.155</ele>
        <time>2018-01-09T15:28:23Z</time>
      </trkpt>
      <trkpt lat="42.001924" lon="2.243954">
        <ele>450.522</ele>
        <time>2018-01-09T15:28:27Z</time>
      </trkpt>
      <trkpt lat="42.001876" lon="2.243967">
        <ele>450.862</ele>
        <time>2018-01-09T15:28:31Z</time>
      </trkpt>
      <trkpt lat="42.001824" lon="2.243982">
        <ele>451.208</ele>
        <time>2018-01-09T15:28:35Z</time>
      </trkpt>
      <trkpt lat="42.001775" lon="2.243984">
        <ele>452.808</ele>
        <time>2018-01-09T15:28:39Z</time>
      </trkpt>
      <trkpt lat="42.001724" lon="2.243977">
        <ele>453.644</ele>
        <time>2018-01-09T15:28:43Z</time>
      </trkpt>
      <trkpt lat="42.001674" lon="2.243979">
        <ele>453.513</ele>
        <time>2018-01-09T15:28:47Z</time>
      </trkpt>
      <trkpt lat="42.001620" lon="2.243986">
        <ele>453.031</ele>
        <time>2018-01-09T15:28:51Z</time>
      </trkpt>
      <trkpt lat="42.001568" lon="2.243992">
        <ele>452.556</ele>
        <time>2018-01-09T15:28:55Z</time>
      </trkpt>
      <trkpt lat="42.001519" lon="2.243997">
        <ele>452.871</ele>
        <time>2018-01-09T15:28:59Z</time>
      </trkpt>
      <trkpt lat="42.001473" lon="2.243996">
        <ele>452.747</ele>
        <time>2018-01-09T15:29:03Z</time>
      </trkpt>
      <trkpt lat="42.001421" lon="2.243991">
        <ele>451.120</ele>
        <time>2018-01-09T15:29:07Z</time>
      </trkpt>
      <trkpt lat="42.001373" lon="2.243990">
        <ele>450.954</ele>
        <time>2018-01-09T15:29:11Z</time>
      </trkpt>
      <trkpt lat="42.001316" lon="2.243984">
        <ele>450.237</ele>
        <time>2018-01-09T15:29:15Z</time>
      </trkpt>
      <trkpt lat="42.001260" lon="2.243992">
        <ele>449.149</ele>
        <time>2018-01-09T15:29:19Z</time>
      </trkpt>
      <trkpt lat="42.001203" lon="2.243995">
        <ele>449.213</ele>
        <time>2018-01-09T15:29:23Z</time>
      </trkpt>
      <trkpt lat="42.001154" lon="2.244006">
        <ele>449.308</ele>
        <time>2018-01-09T15:29:26Z</time>
      </trkpt>
      <trkpt lat="42.001103" lon="2.244017">
        <ele>449.065</ele>
        <time>2018-01-09T15:29:29Z</time>
      </trkpt>
      <trkpt lat="42.001049" lon="2.244023">
        <ele>449.764</ele>
        <time>2018-01-09T15:29:33Z</time>
      </trkpt>
      <trkpt lat="42.001002" lon="2.244019">
        <ele>450.362</ele>
        <time>2018-01-09T15:29:36Z</time>
      </trkpt>
      <trkpt lat="42.000955" lon="2.244024">
        <ele>450.447</ele>
        <time>2018-01-09T15:29:39Z</time>
      </trkpt>
      <trkpt lat="42.000898" lon="2.244032">
        <ele>450.622</ele>
        <time>2018-01-09T15:29:43Z</time>
      </trkpt>
      <trkpt lat="42.000852" lon="2.244041">
        <ele>451.478</ele>
        <time>2018-01-09T15:29:46Z</time>
      </trkpt>
      <trkpt lat="42.000797" lon="2.244065">
        <ele>451.741</ele>
        <time>2018-01-09T15:29:50Z</time>
      </trkpt>
      <trkpt lat="42.000751" lon="2.244072">
        <ele>452.155</ele>
        <time>2018-01-09T15:29:53Z</time>
      </trkpt>
      <trkpt lat="42.000696" lon="2.244082">
        <ele>452.261</ele>
        <time>2018-01-09T15:29:57Z</time>
      </trkpt>
      <trkpt lat="42.000640" lon="2.244098">
        <ele>451.221</ele>
        <time>2018-01-09T15:30:01Z</time>
      </trkpt>
      <trkpt lat="42.000587" lon="2.244093">
        <ele>452.013</ele>
        <time>2018-01-09T15:30:05Z</time>
      </trkpt>
      <trkpt lat="42.000541" lon="2.244099">
        <ele>452.208</ele>
        <time>2018-01-09T15:30:09Z</time>
      </trkpt>
      <trkpt lat="42.000490" lon="2.244103">
        <ele>452.628</ele>
        <time>2018-01-09T15:30:13Z</time>
      </trkpt>
      <trkpt lat="42.000438" lon="2.244112">
        <ele>452.737</ele>
        <time>2018-01-09T15:30:17Z</time>
      </trkpt>
      <trkpt lat="42.000382" lon="2.244114">
        <ele>452.395</ele>
        <time>2018-01-09T15:30:21Z</time>
      </trkpt>
      <trkpt lat="42.000323" lon="2.244110">
        <ele>452.330</ele>
        <time>2018-01-09T15:30:25Z</time>
      </trkpt>
      <trkpt lat="42.000267" lon="2.244126">
        <ele>451.695</ele>
        <time>2018-01-09T15:30:29Z</time>
      </trkpt>
      <trkpt lat="42.000222" lon="2.244137">
        <ele>451.861</ele>
        <time>2018-01-09T15:30:32Z</time>
      </trkpt>
      <trkpt lat="42.000177" lon="2.244151">
        <ele>451.594</ele>
        <time>2018-01-09T15:30:35Z</time>
      </trkpt>
      <trkpt lat="42.000123" lon="2.244166">
        <ele>450.938</ele>
        <time>2018-01-09T15:30:39Z</time>
      </trkpt>
      <trkpt lat="42.000068" lon="2.244177">
        <ele>450.725</ele>
        <time>2018-01-09T15:30:43Z</time>
      </trkpt>
      <trkpt lat="42.000012" lon="2.244182">
        <ele>450.626</ele>
        <time>2018-01-09T15:30:47Z</time>
      </trkpt>
      <trkpt lat="41.999956" lon="2.244173">
        <ele>449.508</ele>
        <time>2018-01-09T15:30:51Z</time>
      </trkpt>
      <trkpt lat="41.999901" lon="2.244152">
        <ele>449.308</ele>
        <time>2018-01-09T15:30:55Z</time>
      </trkpt>
      <trkpt lat="41.999855" lon="2.244137">
        <ele>449.354</ele>
        <time>2018-01-09T15:30:58Z</time>
      </trkpt>
      <trkpt lat="41.999811" lon="2.244125">
        <ele>449.353</ele>
        <time>2018-01-09T15:31:01Z</time>
      </trkpt>
      <trkpt lat="41.999755" lon="2.244112">
        <ele>448.271</ele>
        <time>2018-01-09T15:31:05Z</time>
      </trkpt>
      <trkpt lat="41.999710" lon="2.244099">
        <ele>447.726</ele>
        <time>2018-01-09T15:31:08Z</time>
      </trkpt>
      <trkpt lat="41.999656" lon="2.244076">
        <ele>448.271</ele>
        <time>2018-01-09T15:31:12Z</time>
      </trkpt>
      <trkpt lat="41.999603" lon="2.244063">
        <ele>448.337</ele>
        <time>2018-01-09T15:31:16Z</time>
      </trkpt>
      <trkpt lat="41.999552" lon="2.244049">
        <ele>448.790</ele>
        <time>2018-01-09T15:31:20Z</time>
      </trkpt>
      <trkpt lat="41.999497" lon="2.244032">
        <ele>449.244</ele>
        <time>2018-01-09T15:31:24Z</time>
      </trkpt>
      <trkpt lat="41.999448" lon="2.244021">
        <ele>449.073</ele>
        <time>2018-01-09T15:31:28Z</time>
      </trkpt>
      <trkpt lat="41.999398" lon="2.244008">
        <ele>449.485</ele>
        <time>2018-01-09T15:31:32Z</time>
      </trkpt>
      <trkpt lat="41.999348" lon="2.244003">
        <ele>450.313</ele>
        <time>2018-01-09T15:31:36Z</time>
      </trkpt>
      <trkpt lat="41.999295" lon="2.243994">
        <ele>451.408</ele>
        <time>2018-01-09T15:31:41Z</time>
      </trkpt>
      <trkpt lat="41.999244" lon="2.243964">
        <ele>451.879</ele>
        <time>2018-01-09T15:31:45Z</time>
      </trkpt>
      <trkpt lat="41.999191" lon="2.243948">
        <ele>453.428</ele>
        <time>2018-01-09T15:31:49Z</time>
      </trkpt>
      <trkpt lat="41.999144" lon="2.243931">
        <ele>454.096</ele>
        <time>2018-01-09T15:31:52Z</time>
      </trkpt>
      <trkpt lat="41.999091" lon="2.243915">
        <ele>455.591</ele>
        <time>2018-01-09T15:31:56Z</time>
      </trkpt>
      <trkpt lat="41.999034" lon="2.243910">
        <ele>456.256</ele>
        <time>2018-01-09T15:32:00Z</time>
      </trkpt>
      <trkpt lat="41.998985" lon="2.243908">
        <ele>455.392</ele>
        <time>2018-01-09T15:32:03Z</time>
      </trkpt>
      <trkpt lat="41.998933" lon="2.243902">
        <ele>454.525</ele>
        <time>2018-01-09T15:32:07Z</time>
      </trkpt>
      <trkpt lat="41.998884" lon="2.243895">
        <ele>455.469</ele>
        <time>2018-01-09T15:32:11Z</time>
      </trkpt>
      <trkpt lat="41.998829" lon="2.243907">
        <ele>454.832</ele>
        <time>2018-01-09T15:32:15Z</time>
      </trkpt>
      <trkpt lat="41.998781" lon="2.243908">
        <ele>453.992</ele>
        <time>2018-01-09T15:32:19Z</time>
      </trkpt>
      <trkpt lat="41.998728" lon="2.243915">
        <ele>454.211</ele>
        <time>2018-01-09T15:32:23Z</time>
      </trkpt>
      <trkpt lat="41.998675" lon="2.243930">
        <ele>454.408</ele>
        <time>2018-01-09T15:32:27Z</time>
      </trkpt>
      <trkpt lat="41.998619" lon="2.243944">
        <ele>455.345</ele>
        <time>2018-01-09T15:32:31Z</time>
      </trkpt>
      <trkpt lat="41.998568" lon="2.243959">
        <ele>455.694</ele>
        <time>2018-01-09T15:32:35Z</time>
      </trkpt>
      <trkpt lat="41.998521" lon="2.243977">
        <ele>455.062</ele>
        <time>2018-01-09T15:32:38Z</time>
      </trkpt>
      <trkpt lat="41.998469" lon="2.243995">
        <ele>454.627</ele>
        <time>2018-01-09T15:32:42Z</time>
      </trkpt>
      <trkpt lat="41.998420" lon="2.244016">
        <ele>454.192</ele>
        <time>2018-01-09T15:32:46Z</time>
      </trkpt>
      <trkpt lat="41.998374" lon="2.244028">
        <ele>454.078</ele>
        <time>2018-01-09T15:32:50Z</time>
      </trkpt>
      <trkpt lat="41.998315" lon="2.244029">
        <ele>454.711</ele>
        <time>2018-01-09T15:32:54Z</time>
      </trkpt>
      <trkpt lat="41.998254" lon="2.244037">
        <ele>455.675</ele>
        <time>2018-01-09T15:32:58Z</time>
      </trkpt>
      <trkpt lat="41.998206" lon="2.244045">
        <ele>455.695</ele>
        <time>2018-01-09T15:33:01Z</time>
      </trkpt>
      <trkpt lat="41.998149" lon="2.244057">
        <ele>454.649</ele>
        <time>2018-01-09T15:33:05Z</time>
      </trkpt>
      <trkpt lat="41.998094" lon="2.244080">
        <ele>453.823</ele>
        <time>2018-01-09T15:33:09Z</time>
      </trkpt>
      <trkpt lat="41.998047" lon="2.244107">
        <ele>453.808</ele>
        <time>2018-01-09T15:33:13Z</time>
      </trkpt>
      <trkpt lat="41.997992" lon="2.244127">
        <ele>454.321</ele>
        <time>2018-01-09T15:33:17Z</time>
      </trkpt>
      <trkpt lat="41.997943" lon="2.244141">
        <ele>453.980</ele>
        <time>2018-01-09T15:33:21Z</time>
      </trkpt>
      <trkpt lat="41.997893" lon="2.244164">
        <ele>454.688</ele>
        <time>2018-01-09T15:33:25Z</time>
      </trkpt>
      <trkpt lat="41.997844" lon="2.244175">
        <ele>454.943</ele>
        <time>2018-01-09T15:33:29Z</time>
      </trkpt>
      <trkpt lat="41.997800" lon="2.244206">
        <ele>454.668</ele>
        <time>2018-01-09T15:33:33Z</time>
      </trkpt>
      <trkpt lat="41.997748" lon="2.244235">
        <ele>454.124</ele>
        <time>2018-01-09T15:33:37Z</time>
      </trkpt>
      <trkpt lat="41.997709" lon="2.244269">
        <ele>453.657</ele>
        <time>2018-01-09T15:33:41Z</time>
      </trkpt>
      <trkpt lat="41.997661" lon="2.244303">
        <ele>452.441</ele>
        <time>2018-01-09T15:33:45Z</time>
      </trkpt>
      <trkpt lat="41.997608" lon="2.244334">
        <ele>453.168</ele>
        <time>2018-01-09T15:33:50Z</time>
      </trkpt>
      <trkpt lat="41.997564" lon="2.244359">
        <ele>454.242</ele>
        <time>2018-01-09T15:33:54Z</time>
      </trkpt>
      <trkpt lat="41.997513" lon="2.244382">
        <ele>455.626</ele>
        <time>2018-01-09T15:33:59Z</time>
      </trkpt>
      <trkpt lat="41.997465" lon="2.244418">
        <ele>455.208</ele>
        <time>2018-01-09T15:34:03Z</time>
      </trkpt>
      <trkpt lat="41.997420" lon="2.244462">
        <ele>454.378</ele>
        <time>2018-01-09T15:34:07Z</time>
      </trkpt>
      <trkpt lat="41.997380" lon="2.244492">
        <ele>454.177</ele>
        <time>2018-01-09T15:34:10Z</time>
      </trkpt>
      <trkpt lat="41.997344" lon="2.244529">
        <ele>453.945</ele>
        <time>2018-01-09T15:34:13Z</time>
      </trkpt>
      <trkpt lat="41.997303" lon="2.244578">
        <ele>453.610</ele>
        <time>2018-01-09T15:34:17Z</time>
      </trkpt>
      <trkpt lat="41.997272" lon="2.244628">
        <ele>453.945</ele>
        <time>2018-01-09T15:34:21Z</time>
      </trkpt>
      <trkpt lat="41.997242" lon="2.244676">
        <ele>453.821</ele>
        <time>2018-01-09T15:34:25Z</time>
      </trkpt>
      <trkpt lat="41.997212" lon="2.244725">
        <ele>455.094</ele>
        <time>2018-01-09T15:34:28Z</time>
      </trkpt>
      <trkpt lat="41.997179" lon="2.244776">
        <ele>455.358</ele>
        <time>2018-01-09T15:34:31Z</time>
      </trkpt>
      <trkpt lat="41.997148" lon="2.244821">
        <ele>454.756</ele>
        <time>2018-01-09T15:34:34Z</time>
      </trkpt>
      <trkpt lat="41.997112" lon="2.244863">
        <ele>454.859</ele>
        <time>2018-01-09T15:34:38Z</time>
      </trkpt>
      <trkpt lat="41.997078" lon="2.244903">
        <ele>455.714</ele>
        <time>2018-01-09T15:34:42Z</time>
      </trkpt>
      <trkpt lat="41.997036" lon="2.244952">
        <ele>455.308</ele>
        <time>2018-01-09T15:34:46Z</time>
      </trkpt>
      <trkpt lat="41.996995" lon="2.244996">
        <ele>456.587</ele>
        <time>2018-01-09T15:34:50Z</time>
      </trkpt>
      <trkpt lat="41.996964" lon="2.245051">
        <ele>457.596</ele>
        <time>2018-01-09T15:34:54Z</time>
      </trkpt>
      <trkpt lat="41.996930" lon="2.245118">
        <ele>456.724</ele>
        <time>2018-01-09T15:34:59Z</time>
      </trkpt>
      <trkpt lat="41.996895" lon="2.245167">
        <ele>456.539</ele>
        <time>2018-01-09T15:35:02Z</time>
      </trkpt>
      <trkpt lat="41.996856" lon="2.245198">
        <ele>455.914</ele>
        <time>2018-01-09T15:35:05Z</time>
      </trkpt>
      <trkpt lat="41.996816" lon="2.245234">
        <ele>455.560</ele>
        <time>2018-01-09T15:35:08Z</time>
      </trkpt>
      <trkpt lat="41.996774" lon="2.245275">
        <ele>455.723</ele>
        <time>2018-01-09T15:35:11Z</time>
      </trkpt>
      <trkpt lat="41.996733" lon="2.245331">
        <ele>455.537</ele>
        <time>2018-01-09T15:35:16Z</time>
      </trkpt>
      <trkpt lat="41.996692" lon="2.245388">
        <ele>455.734</ele>
        <time>2018-01-09T15:35:20Z</time>
      </trkpt>
      <trkpt lat="41.996656" lon="2.245446">
        <ele>456.655</ele>
        <time>2018-01-09T15:35:24Z</time>
      </trkpt>
      <trkpt lat="41.996627" lon="2.245493">
        <ele>456.810</ele>
        <time>2018-01-09T15:35:28Z</time>
      </trkpt>
      <trkpt lat="41.996603" lon="2.245546">
        <ele>457.408</ele>
        <time>2018-01-09T15:35:32Z</time>
      </trkpt>
      <trkpt lat="41.996572" lon="2.245591">
        <ele>458.285</ele>
        <time>2018-01-09T15:35:36Z</time>
      </trkpt>
      <trkpt lat="41.996537" lon="2.245644">
        <ele>458.574</ele>
        <time>2018-01-09T15:35:40Z</time>
      </trkpt>
      <trkpt lat="41.996505" lon="2.245693">
        <ele>458.292</ele>
        <time>2018-01-09T15:35:43Z</time>
      </trkpt>
      <trkpt lat="41.996471" lon="2.245746">
        <ele>458.887</ele>
        <time>2018-01-09T15:35:47Z</time>
      </trkpt>
      <trkpt lat="41.996446" lon="2.245802">
        <ele>458.412</ele>
        <time>2018-01-09T15:35:51Z</time>
      </trkpt>
      <trkpt lat="41.996423" lon="2.245870">
        <ele>457.798</ele>
        <time>2018-01-09T15:35:55Z</time>
      </trkpt>
      <trkpt lat="41.996398" lon="2.245933">
        <ele>459.071</ele>
        <time>2018-01-09T15:35:59Z</time>
      </trkpt>
      <trkpt lat="41.996366" lon="2.245996">
        <ele>458.935</ele>
        <time>2018-01-09T15:36:03Z</time>
      </trkpt>
      <trkpt lat="41.996341" lon="2.246047">
        <ele>458.478</ele>
        <time>2018-01-09T15:36:06Z</time>
      </trkpt>
      <trkpt lat="41.996315" lon="2.246110">
        <ele>457.933</ele>
        <time>2018-01-09T15:36:10Z</time>
      </trkpt>
      <trkpt lat="41.996295" lon="2.246165">
        <ele>458.026</ele>
        <time>2018-01-09T15:36:13Z</time>
      </trkpt>
      <trkpt lat="41.996270" lon="2.246220">
        <ele>457.608</ele>
        <time>2018-01-09T15:36:16Z</time>
      </trkpt>
      <trkpt lat="41.996237" lon="2.246285">
        <ele>456.289</ele>
        <time>2018-01-09T15:36:20Z</time>
      </trkpt>
      <trkpt lat="41.996215" lon="2.246357">
        <ele>456.178</ele>
        <time>2018-01-09T15:36:24Z</time>
      </trkpt>
      <trkpt lat="41.996197" lon="2.246430">
        <ele>456.046</ele>
        <time>2018-01-09T15:36:28Z</time>
      </trkpt>
      <trkpt lat="41.996172" lon="2.246481">
        <ele>456.221</ele>
        <time>2018-01-09T15:36:31Z</time>
      </trkpt>
      <trkpt lat="41.996147" lon="2.246535">
        <ele>456.196</ele>
        <time>2018-01-09T15:36:34Z</time>
      </trkpt>
      <trkpt lat="41.996117" lon="2.246588">
        <ele>455.322</ele>
        <time>2018-01-09T15:36:37Z</time>
      </trkpt>
      <trkpt lat="41.996091" lon="2.246648">
        <ele>454.895</ele>
        <time>2018-01-09T15:36:40Z</time>
      </trkpt>
      <trkpt lat="41.996068" lon="2.246712">
        <ele>454.799</ele>
        <time>2018-01-09T15:36:44Z</time>
      </trkpt>
      <trkpt lat="41.996061" lon="2.246786">
        <ele>454.622</ele>
        <time>2018-01-09T15:36:49Z</time>
      </trkpt>
      <trkpt lat="41.996053" lon="2.246847">
        <ele>454.462</ele>
        <time>2018-01-09T15:36:53Z</time>
      </trkpt>
      <trkpt lat="41.996028" lon="2.246903">
        <ele>454.108</ele>
        <time>2018-01-09T15:36:57Z</time>
      </trkpt>
      <trkpt lat="41.996014" lon="2.246964">
        <ele>454.008</ele>
        <time>2018-01-09T15:37:01Z</time>
      </trkpt>
      <trkpt lat="41.995998" lon="2.247036">
        <ele>454.254</ele>
        <time>2018-01-09T15:37:05Z</time>
      </trkpt>
      <trkpt lat="41.995985" lon="2.247109">
        <ele>454.273</ele>
        <time>2018-01-09T15:37:09Z</time>
      </trkpt>
      <trkpt lat="41.995974" lon="2.247172">
        <ele>453.911</ele>
        <time>2018-01-09T15:37:13Z</time>
      </trkpt>
      <trkpt lat="41.995959" lon="2.247235">
        <ele>453.416</ele>
        <time>2018-01-09T15:37:17Z</time>
      </trkpt>
      <trkpt lat="41.995946" lon="2.247300">
        <ele>453.421</ele>
        <time>2018-01-09T15:37:21Z</time>
      </trkpt>
      <trkpt lat="41.995934" lon="2.247366">
        <ele>453.947</ele>
        <time>2018-01-09T15:37:25Z</time>
      </trkpt>
      <trkpt lat="41.995916" lon="2.247433">
        <ele>454.060</ele>
        <time>2018-01-09T15:37:29Z</time>
      </trkpt>
      <trkpt lat="41.995888" lon="2.247487">
        <ele>454.064</ele>
        <time>2018-01-09T15:37:33Z</time>
      </trkpt>
      <trkpt lat="41.995856" lon="2.247541">
        <ele>454.184</ele>
        <time>2018-01-09T15:37:37Z</time>
      </trkpt>
      <trkpt lat="41.995817" lon="2.247576">
        <ele>453.907</ele>
        <time>2018-01-09T15:37:41Z</time>
      </trkpt>
      <trkpt lat="41.995768" lon="2.247572">
        <ele>453.317</ele>
        <time>2018-01-09T15:37:46Z</time>
      </trkpt>
      <trkpt lat="41.995721" lon="2.247551">
        <ele>453.608</ele>
        <time>2018-01-09T15:37:51Z</time>
      </trkpt>
      <trkpt lat="41.995704" lon="2.247476">
        <ele>453.440</ele>
        <time>2018-01-09T15:39:38Z</time>
      </trkpt>
      <trkpt lat="41.995667" lon="2.247515">
        <ele>451.899</ele>
        <time>2018-01-09T15:39:43Z</time>
      </trkpt>
      <trkpt lat="41.995644" lon="2.247586">
        <ele>452.147</ele>
        <time>2018-01-09T15:39:52Z</time>
      </trkpt>
      <trkpt lat="41.995619" lon="2.247640">
        <ele>452.682</ele>
        <time>2018-01-09T15:39:55Z</time>
      </trkpt>
      <trkpt lat="41.995596" lon="2.247699">
        <ele>452.987</ele>
        <time>2018-01-09T15:39:58Z</time>
      </trkpt>
      <trkpt lat="41.995574" lon="2.247758">
        <ele>453.193</ele>
        <time>2018-01-09T15:40:01Z</time>
      </trkpt>
      <trkpt lat="41.995549" lon="2.247823">
        <ele>453.526</ele>
        <time>2018-01-09T15:40:05Z</time>
      </trkpt>
      <trkpt lat="41.995524" lon="2.247886">
        <ele>453.960</ele>
        <time>2018-01-09T15:40:09Z</time>
      </trkpt>
      <trkpt lat="41.995507" lon="2.247947">
        <ele>453.828</ele>
        <time>2018-01-09T15:40:13Z</time>
      </trkpt>
      <trkpt lat="41.995477" lon="2.248007">
        <ele>454.689</ele>
        <time>2018-01-09T15:40:16Z</time>
      </trkpt>
      <trkpt lat="41.995448" lon="2.248064">
        <ele>454.617</ele>
        <time>2018-01-09T15:40:19Z</time>
      </trkpt>
      <trkpt lat="41.995414" lon="2.248128">
        <ele>454.708</ele>
        <time>2018-01-09T15:40:23Z</time>
      </trkpt>
      <trkpt lat="41.995387" lon="2.248190">
        <ele>455.924</ele>
        <time>2018-01-09T15:40:28Z</time>
      </trkpt>
      <trkpt lat="41.995362" lon="2.248256">
        <ele>455.993</ele>
        <time>2018-01-09T15:40:33Z</time>
      </trkpt>
      <trkpt lat="41.995341" lon="2.248312">
        <ele>455.981</ele>
        <time>2018-01-09T15:40:37Z</time>
      </trkpt>
      <trkpt lat="41.995299" lon="2.248363">
        <ele>455.496</ele>
        <time>2018-01-09T15:40:41Z</time>
      </trkpt>
      <trkpt lat="41.995271" lon="2.248412">
        <ele>455.471</ele>
        <time>2018-01-09T15:40:45Z</time>
      </trkpt>
      <trkpt lat="41.995246" lon="2.248475">
        <ele>455.867</ele>
        <time>2018-01-09T15:40:50Z</time>
      </trkpt>
      <trkpt lat="41.995226" lon="2.248537">
        <ele>455.560</ele>
        <time>2018-01-09T15:40:55Z</time>
      </trkpt>
      <trkpt lat="41.995183" lon="2.248586">
        <ele>455.744</ele>
        <time>2018-01-09T15:40:58Z</time>
      </trkpt>
      <trkpt lat="41.995157" lon="2.248646">
        <ele>455.577</ele>
        <time>2018-01-09T15:41:01Z</time>
      </trkpt>
      <trkpt lat="41.995138" lon="2.248716">
        <ele>455.861</ele>
        <time>2018-01-09T15:41:06Z</time>
      </trkpt>
      <trkpt lat="41.995111" lon="2.248766">
        <ele>455.327</ele>
        <time>2018-01-09T15:41:09Z</time>
      </trkpt>
      <trkpt lat="41.995102" lon="2.248837">
        <ele>455.108</ele>
        <time>2018-01-09T15:41:14Z</time>
      </trkpt>
      <trkpt lat="41.995088" lon="2.248903">
        <ele>455.359</ele>
        <time>2018-01-09T15:41:19Z</time>
      </trkpt>
      <trkpt lat="41.995071" lon="2.248976">
        <ele>454.998</ele>
        <time>2018-01-09T15:41:25Z</time>
      </trkpt>
      <trkpt lat="41.995053" lon="2.249042">
        <ele>454.496</ele>
        <time>2018-01-09T15:41:28Z</time>
      </trkpt>
      <trkpt lat="41.995038" lon="2.249103">
        <ele>453.931</ele>
        <time>2018-01-09T15:41:32Z</time>
      </trkpt>
      <trkpt lat="41.995009" lon="2.249154">
        <ele>453.996</ele>
        <time>2018-01-09T15:41:40Z</time>
      </trkpt>
      <trkpt lat="41.995054" lon="2.249148">
        <ele>453.732</ele>
        <time>2018-01-09T15:41:46Z</time>
      </trkpt>
      <trkpt lat="41.995094" lon="2.249176">
        <ele>453.875</ele>
        <time>2018-01-09T15:41:52Z</time>
      </trkpt>
      <trkpt lat="41.995042" lon="2.249257">
        <ele>453.519</ele>
        <time>2018-01-09T15:42:07Z</time>
      </trkpt>
      <trkpt lat="41.995067" lon="2.249315">
        <ele>454.129</ele>
        <time>2018-01-09T15:42:10Z</time>
      </trkpt>
      <trkpt lat="41.995062" lon="2.249383">
        <ele>454.600</ele>
        <time>2018-01-09T15:42:13Z</time>
      </trkpt>
      <trkpt lat="41.995048" lon="2.249449">
        <ele>455.420</ele>
        <time>2018-01-09T15:42:16Z</time>
      </trkpt>
      <trkpt lat="41.995027" lon="2.249503">
        <ele>455.608</ele>
        <time>2018-01-09T15:42:18Z</time>
      </trkpt>
      <trkpt lat="41.994995" lon="2.249555">
        <ele>455.144</ele>
        <time>2018-01-09T15:42:20Z</time>
      </trkpt>
      <trkpt lat="41.994974" lon="2.249612">
        <ele>455.253</ele>
        <time>2018-01-09T15:42:23Z</time>
      </trkpt>
      <trkpt lat="41.994964" lon="2.249674">
        <ele>455.921</ele>
        <time>2018-01-09T15:42:27Z</time>
      </trkpt>
      <trkpt lat="41.994961" lon="2.249748">
        <ele>456.566</ele>
        <time>2018-01-09T15:42:32Z</time>
      </trkpt>
      <trkpt lat="41.994943" lon="2.249804">
        <ele>456.081</ele>
        <time>2018-01-09T15:42:36Z</time>
      </trkpt>
      <trkpt lat="41.994922" lon="2.249875">
        <ele>456.277</ele>
        <time>2018-01-09T15:42:40Z</time>
      </trkpt>
      <trkpt lat="41.994910" lon="2.249937">
        <ele>456.420</ele>
        <time>2018-01-09T15:42:44Z</time>
      </trkpt>
      <trkpt lat="41.994893" lon="2.250007">
        <ele>457.084</ele>
        <time>2018-01-09T15:42:49Z</time>
      </trkpt>
      <trkpt lat="41.994870" lon="2.250073">
        <ele>457.178</ele>
        <time>2018-01-09T15:42:53Z</time>
      </trkpt>
      <trkpt lat="41.994858" lon="2.250133">
        <ele>457.233</ele>
        <time>2018-01-09T15:42:57Z</time>
      </trkpt>
      <trkpt lat="41.994848" lon="2.250194">
        <ele>456.726</ele>
        <time>2018-01-09T15:43:01Z</time>
      </trkpt>
      <trkpt lat="41.994837" lon="2.250255">
        <ele>456.308</ele>
        <time>2018-01-09T15:43:05Z</time>
      </trkpt>
      <trkpt lat="41.994814" lon="2.250317">
        <ele>455.029</ele>
        <time>2018-01-09T15:43:09Z</time>
      </trkpt>
      <trkpt lat="41.994792" lon="2.250377">
        <ele>456.118</ele>
        <time>2018-01-09T15:43:13Z</time>
      </trkpt>
      <trkpt lat="41.994767" lon="2.250436">
        <ele>455.936</ele>
        <time>2018-01-09T15:43:17Z</time>
      </trkpt>
      <trkpt lat="41.994751" lon="2.250494">
        <ele>456.131</ele>
        <time>2018-01-09T15:43:21Z</time>
      </trkpt>
      <trkpt lat="41.994743" lon="2.250569">
        <ele>456.276</ele>
        <time>2018-01-09T15:43:25Z</time>
      </trkpt>
      <trkpt lat="41.994735" lon="2.250633">
        <ele>455.872</ele>
        <time>2018-01-09T15:43:29Z</time>
      </trkpt>
      <trkpt lat="41.994716" lon="2.250703">
        <ele>455.545</ele>
        <time>2018-01-09T15:43:33Z</time>
      </trkpt>
      <trkpt lat="41.994700" lon="2.250768">
        <ele>455.779</ele>
        <time>2018-01-09T15:43:38Z</time>
      </trkpt>
      <trkpt lat="41.994686" lon="2.250844">
        <ele>455.255</ele>
        <time>2018-01-09T15:43:42Z</time>
      </trkpt>
      <trkpt lat="41.994674" lon="2.250907">
        <ele>455.407</ele>
        <time>2018-01-09T15:43:45Z</time>
      </trkpt>
      <trkpt lat="41.994663" lon="2.250977">
        <ele>455.117</ele>
        <time>2018-01-09T15:43:50Z</time>
      </trkpt>
      <trkpt lat="41.994659" lon="2.251038">
        <ele>455.408</ele>
        <time>2018-01-09T15:43:53Z</time>
      </trkpt>
      <trkpt lat="41.994652" lon="2.251100">
        <ele>455.857</ele>
        <time>2018-01-09T15:43:56Z</time>
      </trkpt>
      <trkpt lat="41.994642" lon="2.251174">
        <ele>456.786</ele>
        <time>2018-01-09T15:44:00Z</time>
      </trkpt>
      <trkpt lat="41.994632" lon="2.251237">
        <ele>457.164</ele>
        <time>2018-01-09T15:44:03Z</time>
      </trkpt>
      <trkpt lat="41.994612" lon="2.251309">
        <ele>456.119</ele>
        <time>2018-01-09T15:44:07Z</time>
      </trkpt>
      <trkpt lat="41.994589" lon="2.251369">
        <ele>455.774</ele>
        <time>2018-01-09T15:44:10Z</time>
      </trkpt>
      <trkpt lat="41.994575" lon="2.251436">
        <ele>455.640</ele>
        <time>2018-01-09T15:44:14Z</time>
      </trkpt>
      <trkpt lat="41.994569" lon="2.251503">
        <ele>456.433</ele>
        <time>2018-01-09T15:44:18Z</time>
      </trkpt>
      <trkpt lat="41.994549" lon="2.251576">
        <ele>456.977</ele>
        <time>2018-01-09T15:44:22Z</time>
      </trkpt>
      <trkpt lat="41.994533" lon="2.251634">
        <ele>456.019</ele>
        <time>2018-01-09T15:44:25Z</time>
      </trkpt>
      <trkpt lat="41.994526" lon="2.251718">
        <ele>456.009</ele>
        <time>2018-01-09T15:44:29Z</time>
      </trkpt>
      <trkpt lat="41.994523" lon="2.251784">
        <ele>455.819</ele>
        <time>2018-01-09T15:44:32Z</time>
      </trkpt>
      <trkpt lat="41.994511" lon="2.251854">
        <ele>456.408</ele>
        <time>2018-01-09T15:44:36Z</time>
      </trkpt>
      <trkpt lat="41.994506" lon="2.251918">
        <ele>457.513</ele>
        <time>2018-01-09T15:44:39Z</time>
      </trkpt>
      <trkpt lat="41.994515" lon="2.251980">
        <ele>457.962</ele>
        <time>2018-01-09T15:44:42Z</time>
      </trkpt>
      <trkpt lat="41.994528" lon="2.252042">
        <ele>458.290</ele>
        <time>2018-01-09T15:44:45Z</time>
      </trkpt>
      <trkpt lat="41.994545" lon="2.252108">
        <ele>458.275</ele>
        <time>2018-01-09T15:44:49Z</time>
      </trkpt>
      <trkpt lat="41.994570" lon="2.252158">
        <ele>458.380</ele>
        <time>2018-01-09T15:44:52Z</time>
      </trkpt>
      <trkpt lat="41.994593" lon="2.252230">
        <ele>457.986</ele>
        <time>2018-01-09T15:44:56Z</time>
      </trkpt>
      <trkpt lat="41.994591" lon="2.252291">
        <ele>458.159</ele>
        <time>2018-01-09T15:44:59Z</time>
      </trkpt>
      <trkpt lat="41.994590" lon="2.252373">
        <ele>458.123</ele>
        <time>2018-01-09T15:45:03Z</time>
      </trkpt>
      <trkpt lat="41.994597" lon="2.252444">
        <ele>458.353</ele>
        <time>2018-01-09T15:45:07Z</time>
      </trkpt>
      <trkpt lat="41.994595" lon="2.252508">
        <ele>458.104</ele>
        <time>2018-01-09T15:45:11Z</time>
      </trkpt>
      <trkpt lat="41.994600" lon="2.252582">
        <ele>459.214</ele>
        <time>2018-01-09T15:45:16Z</time>
      </trkpt>
      <trkpt lat="41.994602" lon="2.252643">
        <ele>459.108</ele>
        <time>2018-01-09T15:45:20Z</time>
      </trkpt>
      <trkpt lat="41.994607" lon="2.252719">
        <ele>457.987</ele>
        <time>2018-01-09T15:45:24Z</time>
      </trkpt>
      <trkpt lat="41.994593" lon="2.252792">
        <ele>457.136</ele>
        <time>2018-01-09T15:45:28Z</time>
      </trkpt>
      <trkpt lat="41.994601" lon="2.252859">
        <ele>457.524</ele>
        <time>2018-01-09T15:45:32Z</time>
      </trkpt>
      <trkpt lat="41.994596" lon="2.252932">
        <ele>458.939</ele>
        <time>2018-01-09T15:45:36Z</time>
      </trkpt>
      <trkpt lat="41.994614" lon="2.252998">
        <ele>459.644</ele>
        <time>2018-01-09T15:45:40Z</time>
      </trkpt>
      <trkpt lat="41.994630" lon="2.253061">
        <ele>459.750</ele>
        <time>2018-01-09T15:45:44Z</time>
      </trkpt>
      <trkpt lat="41.994633" lon="2.253125">
        <ele>458.923</ele>
        <time>2018-01-09T15:45:47Z</time>
      </trkpt>
      <trkpt lat="41.994639" lon="2.253192">
        <ele>458.587</ele>
        <time>2018-01-09T15:45:51Z</time>
      </trkpt>
      <trkpt lat="41.994647" lon="2.253258">
        <ele>458.419</ele>
        <time>2018-01-09T15:45:55Z</time>
      </trkpt>
      <trkpt lat="41.994648" lon="2.253340">
        <ele>458.609</ele>
        <time>2018-01-09T15:45:59Z</time>
      </trkpt>
      <trkpt lat="41.994627" lon="2.253415">
        <ele>457.419</ele>
        <time>2018-01-09T15:46:02Z</time>
      </trkpt>
      <trkpt lat="41.994613" lon="2.253474">
        <ele>457.408</ele>
        <time>2018-01-09T15:46:05Z</time>
      </trkpt>
      <trkpt lat="41.994611" lon="2.253544">
        <ele>457.443</ele>
        <time>2018-01-09T15:46:09Z</time>
      </trkpt>
      <trkpt lat="41.994604" lon="2.253611">
        <ele>456.892</ele>
        <time>2018-01-09T15:46:12Z</time>
      </trkpt>
      <trkpt lat="41.994593" lon="2.253681">
        <ele>456.930</ele>
        <time>2018-01-09T15:46:16Z</time>
      </trkpt>
      <trkpt lat="41.994598" lon="2.253754">
        <ele>456.665</ele>
        <time>2018-01-09T15:46:20Z</time>
      </trkpt>
      <trkpt lat="41.994604" lon="2.253829">
        <ele>456.430</ele>
        <time>2018-01-09T15:46:24Z</time>
      </trkpt>
      <trkpt lat="41.994624" lon="2.253899">
        <ele>457.546</ele>
        <time>2018-01-09T15:46:28Z</time>
      </trkpt>
      <trkpt lat="41.994641" lon="2.253961">
        <ele>456.929</ele>
        <time>2018-01-09T15:46:32Z</time>
      </trkpt>
      <trkpt lat="41.994657" lon="2.254035">
        <ele>457.283</ele>
        <time>2018-01-09T15:46:36Z</time>
      </trkpt>
      <trkpt lat="41.994681" lon="2.254096">
        <ele>456.982</ele>
        <time>2018-01-09T15:46:40Z</time>
      </trkpt>
      <trkpt lat="41.994698" lon="2.254168">
        <ele>457.843</ele>
        <time>2018-01-09T15:46:44Z</time>
      </trkpt>
      <trkpt lat="41.994683" lon="2.254244">
        <ele>458.617</ele>
        <time>2018-01-09T15:46:48Z</time>
      </trkpt>
      <trkpt lat="41.994674" lon="2.254309">
        <ele>457.908</ele>
        <time>2018-01-09T15:46:51Z</time>
      </trkpt>
      <trkpt lat="41.994670" lon="2.254378">
        <ele>458.210</ele>
        <time>2018-01-09T15:46:55Z</time>
      </trkpt>
      <trkpt lat="41.994671" lon="2.254450">
        <ele>458.059</ele>
        <time>2018-01-09T15:46:59Z</time>
      </trkpt>
      <trkpt lat="41.994681" lon="2.254527">
        <ele>458.317</ele>
        <time>2018-01-09T15:47:03Z</time>
      </trkpt>
      <trkpt lat="41.994690" lon="2.254604">
        <ele>458.892</ele>
        <time>2018-01-09T15:47:07Z</time>
      </trkpt>
      <trkpt lat="41.994700" lon="2.254663">
        <ele>459.197</ele>
        <time>2018-01-09T15:47:10Z</time>
      </trkpt>
      <trkpt lat="41.994714" lon="2.254724">
        <ele>459.253</ele>
        <time>2018-01-09T15:47:13Z</time>
      </trkpt>
      <trkpt lat="41.994719" lon="2.254797">
        <ele>459.716</ele>
        <time>2018-01-09T15:47:17Z</time>
      </trkpt>
      <trkpt lat="41.994729" lon="2.254866">
        <ele>459.830</ele>
        <time>2018-01-09T15:47:21Z</time>
      </trkpt>
      <trkpt lat="41.994745" lon="2.254941">
        <ele>461.288</ele>
        <time>2018-01-09T15:47:25Z</time>
      </trkpt>
      <trkpt lat="41.994750" lon="2.255005">
        <ele>461.224</ele>
        <time>2018-01-09T15:47:28Z</time>
      </trkpt>
      <trkpt lat="41.994752" lon="2.255065">
        <ele>461.826</ele>
        <time>2018-01-09T15:47:31Z</time>
      </trkpt>
      <trkpt lat="41.994748" lon="2.255141">
        <ele>462.208</ele>
        <time>2018-01-09T15:47:35Z</time>
      </trkpt>
      <trkpt lat="41.994745" lon="2.255221">
        <ele>462.590</ele>
        <time>2018-01-09T15:47:39Z</time>
      </trkpt>
      <trkpt lat="41.994747" lon="2.255295">
        <ele>463.249</ele>
        <time>2018-01-09T15:47:43Z</time>
      </trkpt>
      <trkpt lat="41.994761" lon="2.255374">
        <ele>463.477</ele>
        <time>2018-01-09T15:47:47Z</time>
      </trkpt>
      <trkpt lat="41.994773" lon="2.255448">
        <ele>462.912</ele>
        <time>2018-01-09T15:47:51Z</time>
      </trkpt>
      <trkpt lat="41.994774" lon="2.255511">
        <ele>462.647</ele>
        <time>2018-01-09T15:47:55Z</time>
      </trkpt>
      <trkpt lat="41.994758" lon="2.255572">
        <ele>462.273</ele>
        <time>2018-01-09T15:47:58Z</time>
      </trkpt>
      <trkpt lat="41.994737" lon="2.255631">
        <ele>462.176</ele>
        <time>2018-01-09T15:48:01Z</time>
      </trkpt>
      <trkpt lat="41.994739" lon="2.255708">
        <ele>462.260</ele>
        <time>2018-01-09T15:48:05Z</time>
      </trkpt>
      <trkpt lat="41.994735" lon="2.255788">
        <ele>461.645</ele>
        <time>2018-01-09T15:48:09Z</time>
      </trkpt>
      <trkpt lat="41.994742" lon="2.255851">
        <ele>461.847</ele>
        <time>2018-01-09T15:48:12Z</time>
      </trkpt>
      <trkpt lat="41.994752" lon="2.255927">
        <ele>462.211</ele>
        <time>2018-01-09T15:48:16Z</time>
      </trkpt>
      <trkpt lat="41.994761" lon="2.255998">
        <ele>462.408</ele>
        <time>2018-01-09T15:48:20Z</time>
      </trkpt>
      <trkpt lat="41.994783" lon="2.256068">
        <ele>462.116</ele>
        <time>2018-01-09T15:48:24Z</time>
      </trkpt>
      <trkpt lat="41.994806" lon="2.256142">
        <ele>462.515</ele>
        <time>2018-01-09T15:48:28Z</time>
      </trkpt>
      <trkpt lat="41.994825" lon="2.256204">
        <ele>462.583</ele>
        <time>2018-01-09T15:48:31Z</time>
      </trkpt>
      <trkpt lat="41.994846" lon="2.256262">
        <ele>461.728</ele>
        <time>2018-01-09T15:48:34Z</time>
      </trkpt>
      <trkpt lat="41.994842" lon="2.256324">
        <ele>459.683</ele>
        <time>2018-01-09T15:48:38Z</time>
      </trkpt>
      <trkpt lat="41.994836" lon="2.256394">
        <ele>458.889</ele>
        <time>2018-01-09T15:48:42Z</time>
      </trkpt>
      <trkpt lat="41.994826" lon="2.256467">
        <ele>457.652</ele>
        <time>2018-01-09T15:48:46Z</time>
      </trkpt>
      <trkpt lat="41.994827" lon="2.256530">
        <ele>457.566</ele>
        <time>2018-01-09T15:48:50Z</time>
      </trkpt>
      <trkpt lat="41.994824" lon="2.256605">
        <ele>457.098</ele>
        <time>2018-01-09T15:48:54Z</time>
      </trkpt>
      <trkpt lat="41.994836" lon="2.256668">
        <ele>456.315</ele>
        <time>2018-01-09T15:48:58Z</time>
      </trkpt>
      <trkpt lat="41.994853" lon="2.256731">
        <ele>455.426</ele>
        <time>2018-01-09T15:49:02Z</time>
      </trkpt>
      <trkpt lat="41.994867" lon="2.256799">
        <ele>454.808</ele>
        <time>2018-01-09T15:49:06Z</time>
      </trkpt>
      <trkpt lat="41.994878" lon="2.256870">
        <ele>454.181</ele>
        <time>2018-01-09T15:49:10Z</time>
      </trkpt>
      <trkpt lat="41.994895" lon="2.256937">
        <ele>454.110</ele>
        <time>2018-01-09T15:49:14Z</time>
      </trkpt>
      <trkpt lat="41.994912" lon="2.257003">
        <ele>453.628</ele>
        <time>2018-01-09T15:49:18Z</time>
      </trkpt>
      <trkpt lat="41.994920" lon="2.257074">
        <ele>453.073</ele>
        <time>2018-01-09T15:49:22Z</time>
      </trkpt>
      <trkpt lat="41.994922" lon="2.257148">
        <ele>452.948</ele>
        <time>2018-01-09T15:49:26Z</time>
      </trkpt>
      <trkpt lat="41.994907" lon="2.257225">
        <ele>452.634</ele>
        <time>2018-01-09T15:49:30Z</time>
      </trkpt>
      <trkpt lat="41.994900" lon="2.257298">
        <ele>451.877</ele>
        <time>2018-01-09T15:49:34Z</time>
      </trkpt>
      <trkpt lat="41.994918" lon="2.257364">
        <ele>451.341</ele>
        <time>2018-01-09T15:49:38Z</time>
      </trkpt>
      <trkpt lat="41.994945" lon="2.257417">
        <ele>451.523</ele>
        <time>2018-01-09T15:49:42Z</time>
      </trkpt>
      <trkpt lat="41.994951" lon="2.257477">
        <ele>450.883</ele>
        <time>2018-01-09T15:49:46Z</time>
      </trkpt>
      <trkpt lat="41.994972" lon="2.257536">
        <ele>450.111</ele>
        <time>2018-01-09T15:49:52Z</time>
      </trkpt>
      <trkpt lat="41.994994" lon="2.257599">
        <ele>451.808</ele>
        <time>2018-01-09T15:50:00Z</time>
      </trkpt>
      <trkpt lat="41.994981" lon="2.257661">
        <ele>450.464</ele>
        <time>2018-01-09T15:50:14Z</time>
      </trkpt>
      <trkpt lat="41.994995" lon="2.257728">
        <ele>450.413</ele>
        <time>2018-01-09T15:50:19Z</time>
      </trkpt>
      <trkpt lat="41.995028" lon="2.257778">
        <ele>450.891</ele>
        <time>2018-01-09T15:50:25Z</time>
      </trkpt>
      <trkpt lat="41.995066" lon="2.257817">
        <ele>449.266</ele>
        <time>2018-01-09T15:50:30Z</time>
      </trkpt>
      <trkpt lat="41.995073" lon="2.257888">
        <ele>449.341</ele>
        <time>2018-01-09T15:50:34Z</time>
      </trkpt>
      <trkpt lat="41.995078" lon="2.257957">
        <ele>448.247</ele>
        <time>2018-01-09T15:50:38Z</time>
      </trkpt>
      <trkpt lat="41.995099" lon="2.258025">
        <ele>447.740</ele>
        <time>2018-01-09T15:50:43Z</time>
      </trkpt>
      <trkpt lat="41.995125" lon="2.258093">
        <ele>446.714</ele>
        <time>2018-01-09T15:50:48Z</time>
      </trkpt>
      <trkpt lat="41.995149" lon="2.258158">
        <ele>446.498</ele>
        <time>2018-01-09T15:50:53Z</time>
      </trkpt>
      <trkpt lat="41.995165" lon="2.258225">
        <ele>446.615</ele>
        <time>2018-01-09T15:50:58Z</time>
      </trkpt>
      <trkpt lat="41.995180" lon="2.258288">
        <ele>447.526</ele>
        <time>2018-01-09T15:51:03Z</time>
      </trkpt>
      <trkpt lat="41.995226" lon="2.258288">
        <ele>446.908</ele>
        <time>2018-01-09T15:51:25Z</time>
      </trkpt>
      <trkpt lat="41.995250" lon="2.258340">
        <ele>448.541</ele>
        <time>2018-01-09T15:51:29Z</time>
      </trkpt>
      <trkpt lat="41.995262" lon="2.258408">
        <ele>448.920</ele>
        <time>2018-01-09T15:51:33Z</time>
      </trkpt>
      <trkpt lat="41.995280" lon="2.258470">
        <ele>448.858</ele>
        <time>2018-01-09T15:51:37Z</time>
      </trkpt>
      <trkpt lat="41.995296" lon="2.258537">
        <ele>449.173</ele>
        <time>2018-01-09T15:51:41Z</time>
      </trkpt>
      <trkpt lat="41.995310" lon="2.258604">
        <ele>449.178</ele>
        <time>2018-01-09T15:51:45Z</time>
      </trkpt>
      <trkpt lat="41.995331" lon="2.258666">
        <ele>449.174</ele>
        <time>2018-01-09T15:51:49Z</time>
      </trkpt>
      <trkpt lat="41.995342" lon="2.258734">
        <ele>448.997</ele>
        <time>2018-01-09T15:51:53Z</time>
      </trkpt>
      <trkpt lat="41.995347" lon="2.258800">
        <ele>448.611</ele>
        <time>2018-01-09T15:51:57Z</time>
      </trkpt>
      <trkpt lat="41.995353" lon="2.258864">
        <ele>447.053</ele>
        <time>2018-01-09T15:52:02Z</time>
      </trkpt>
      <trkpt lat="41.995372" lon="2.258929">
        <ele>447.004</ele>
        <time>2018-01-09T15:52:07Z</time>
      </trkpt>
      <trkpt lat="41.995376" lon="2.258995">
        <ele>446.314</ele>
        <time>2018-01-09T15:52:23Z</time>
      </trkpt>
      <trkpt lat="41.995396" lon="2.259053">
        <ele>446.008</ele>
        <time>2018-01-09T15:52:28Z</time>
      </trkpt>
      <trkpt lat="41.995415" lon="2.259121">
        <ele>445.117</ele>
        <time>2018-01-09T15:52:37Z</time>
      </trkpt>
      <trkpt lat="41.995416" lon="2.259194">
        <ele>444.586</ele>
        <time>2018-01-09T15:52:41Z</time>
      </trkpt>
      <trkpt lat="41.995447" lon="2.259252">
        <ele>444.344</ele>
        <time>2018-01-09T15:52:46Z</time>
      </trkpt>
      <trkpt lat="41.995473" lon="2.259305">
        <ele>444.999</ele>
        <time>2018-01-09T15:52:49Z</time>
      </trkpt>
      <trkpt lat="41.995499" lon="2.259356">
        <ele>445.294</ele>
        <time>2018-01-09T15:52:52Z</time>
      </trkpt>
      <trkpt lat="41.995525" lon="2.259424">
        <ele>445.860</ele>
        <time>2018-01-09T15:52:56Z</time>
      </trkpt>
      <trkpt lat="41.995546" lon="2.259495">
        <ele>445.793</ele>
        <time>2018-01-09T15:53:00Z</time>
      </trkpt>
      <trkpt lat="41.995561" lon="2.259569">
        <ele>445.177</ele>
        <time>2018-01-09T15:53:04Z</time>
      </trkpt>
      <trkpt lat="41.995574" lon="2.259640">
        <ele>445.276</ele>
        <time>2018-01-09T15:53:08Z</time>
      </trkpt>
      <trkpt lat="41.995589" lon="2.259708">
        <ele>446.090</ele>
        <time>2018-01-09T15:53:12Z</time>
      </trkpt>
      <trkpt lat="41.995619" lon="2.259756">
        <ele>446.119</ele>
        <time>2018-01-09T15:53:15Z</time>
      </trkpt>
      <trkpt lat="41.995644" lon="2.259809">
        <ele>446.008</ele>
        <time>2018-01-09T15:53:18Z</time>
      </trkpt>
      <trkpt lat="41.995644" lon="2.259871">
        <ele>445.739</ele>
        <time>2018-01-09T15:53:21Z</time>
      </trkpt>
      <trkpt lat="41.995638" lon="2.259933">
        <ele>445.778</ele>
        <time>2018-01-09T15:53:24Z</time>
      </trkpt>
      <trkpt lat="41.995644" lon="2.259996">
        <ele>445.296</ele>
        <time>2018-01-09T15:53:28Z</time>
      </trkpt>
      <trkpt lat="41.995652" lon="2.260072">
        <ele>444.811</ele>
        <time>2018-01-09T15:53:32Z</time>
      </trkpt>
      <trkpt lat="41.995656" lon="2.260151">
        <ele>443.796</ele>
        <time>2018-01-09T15:53:36Z</time>
      </trkpt>
      <trkpt lat="41.995668" lon="2.260213">
        <ele>442.992</ele>
        <time>2018-01-09T15:53:40Z</time>
      </trkpt>
      <trkpt lat="41.995689" lon="2.260277">
        <ele>442.585</ele>
        <time>2018-01-09T15:53:44Z</time>
      </trkpt>
      <trkpt lat="41.995715" lon="2.260347">
        <ele>442.949</ele>
        <time>2018-01-09T15:53:48Z</time>
      </trkpt>
      <trkpt lat="41.995743" lon="2.260415">
        <ele>442.171</ele>
        <time>2018-01-09T15:53:52Z</time>
      </trkpt>
      <trkpt lat="41.995759" lon="2.260489">
        <ele>442.441</ele>
        <time>2018-01-09T15:53:56Z</time>
      </trkpt>
      <trkpt lat="41.995774" lon="2.260562">
        <ele>442.915</ele>
        <time>2018-01-09T15:54:00Z</time>
      </trkpt>
      <trkpt lat="41.995793" lon="2.260618">
        <ele>444.008</ele>
        <time>2018-01-09T15:54:03Z</time>
      </trkpt>
      <trkpt lat="41.995817" lon="2.260682">
        <ele>444.629</ele>
        <time>2018-01-09T15:54:07Z</time>
      </trkpt>
      <trkpt lat="41.995839" lon="2.260747">
        <ele>444.488</ele>
        <time>2018-01-09T15:54:11Z</time>
      </trkpt>
      <trkpt lat="41.995867" lon="2.260813">
        <ele>445.446</ele>
        <time>2018-01-09T15:54:15Z</time>
      </trkpt>
      <trkpt lat="41.995890" lon="2.260884">
        <ele>445.681</ele>
        <time>2018-01-09T15:54:19Z</time>
      </trkpt>
      <trkpt lat="41.995904" lon="2.260961">
        <ele>444.836</ele>
        <time>2018-01-09T15:54:23Z</time>
      </trkpt>
      <trkpt lat="41.995907" lon="2.261030">
        <ele>444.562</ele>
        <time>2018-01-09T15:54:27Z</time>
      </trkpt>
      <trkpt lat="41.995920" lon="2.261102">
        <ele>444.385</ele>
        <time>2018-01-09T15:54:31Z</time>
      </trkpt>
      <trkpt lat="41.995948" lon="2.261168">
        <ele>443.539</ele>
        <time>2018-01-09T15:54:35Z</time>
      </trkpt>
      <trkpt lat="41.995961" lon="2.261238">
        <ele>443.038</ele>
        <time>2018-01-09T15:54:39Z</time>
      </trkpt>
      <trkpt lat="41.995976" lon="2.261314">
        <ele>442.070</ele>
        <time>2018-01-09T15:54:43Z</time>
      </trkpt>
      <trkpt lat="41.995994" lon="2.261384">
        <ele>442.717</ele>
        <time>2018-01-09T15:54:47Z</time>
      </trkpt>
      <trkpt lat="41.996016" lon="2.261442">
        <ele>442.908</ele>
        <time>2018-01-09T15:54:51Z</time>
      </trkpt>
      <trkpt lat="41.996019" lon="2.261516">
        <ele>443.085</ele>
        <time>2018-01-09T15:54:55Z</time>
      </trkpt>
      <trkpt lat="41.996048" lon="2.261570">
        <ele>443.174</ele>
        <time>2018-01-09T15:54:59Z</time>
      </trkpt>
      <trkpt lat="41.996075" lon="2.261632">
        <ele>443.512</ele>
        <time>2018-01-09T15:55:03Z</time>
      </trkpt>
      <trkpt lat="41.996096" lon="2.261701">
        <ele>443.287</ele>
        <time>2018-01-09T15:55:07Z</time>
      </trkpt>
      <trkpt lat="41.996115" lon="2.261767">
        <ele>442.392</ele>
        <time>2018-01-09T15:55:11Z</time>
      </trkpt>
      <trkpt lat="41.996158" lon="2.261805">
        <ele>442.668</ele>
        <time>2018-01-09T15:55:14Z</time>
      </trkpt>
      <trkpt lat="41.996182" lon="2.261871">
        <ele>443.221</ele>
        <time>2018-01-09T15:55:18Z</time>
      </trkpt>
      <trkpt lat="41.996192" lon="2.261943">
        <ele>442.835</ele>
        <time>2018-01-09T15:55:22Z</time>
      </trkpt>
      <trkpt lat="41.996202" lon="2.262007">
        <ele>442.743</ele>
        <time>2018-01-09T15:55:26Z</time>
      </trkpt>
      <trkpt lat="41.996204" lon="2.262083">
        <ele>442.464</ele>
        <time>2018-01-09T15:55:30Z</time>
      </trkpt>
      <trkpt lat="41.996218" lon="2.262155">
        <ele>441.510</ele>
        <time>2018-01-09T15:55:34Z</time>
      </trkpt>
      <trkpt lat="41.996230" lon="2.262233">
        <ele>442.008</ele>
        <time>2018-01-09T15:55:38Z</time>
      </trkpt>
      <trkpt lat="41.996236" lon="2.262295">
        <ele>441.876</ele>
        <time>2018-01-09T15:55:41Z</time>
      </trkpt>
      <trkpt lat="41.996248" lon="2.262365">
        <ele>441.665</ele>
        <time>2018-01-09T15:55:45Z</time>
      </trkpt>
      <trkpt lat="41.996257" lon="2.262438">
        <ele>441.313</ele>
        <time>2018-01-09T15:55:49Z</time>
      </trkpt>
      <trkpt lat="41.996263" lon="2.262501">
        <ele>441.288</ele>
        <time>2018-01-09T15:55:52Z</time>
      </trkpt>
      <trkpt lat="41.996272" lon="2.262562">
        <ele>442.673</ele>
        <time>2018-01-09T15:55:55Z</time>
      </trkpt>
      <trkpt lat="41.996296" lon="2.262627">
        <ele>442.479</ele>
        <time>2018-01-09T15:55:59Z</time>
      </trkpt>
      <trkpt lat="41.996319" lon="2.262685">
        <ele>443.452</ele>
        <time>2018-01-09T15:56:03Z</time>
      </trkpt>
      <trkpt lat="41.996345" lon="2.262747">
        <ele>443.276</ele>
        <time>2018-01-09T15:56:07Z</time>
      </trkpt>
      <trkpt lat="41.996364" lon="2.262805">
        <ele>443.456</ele>
        <time>2018-01-09T15:56:11Z</time>
      </trkpt>
      <trkpt lat="41.996378" lon="2.262870">
        <ele>444.059</ele>
        <time>2018-01-09T15:56:15Z</time>
      </trkpt>
      <trkpt lat="41.996400" lon="2.262932">
        <ele>444.414</ele>
        <time>2018-01-09T15:56:19Z</time>
      </trkpt>
      <trkpt lat="41.996428" lon="2.262981">
        <ele>444.408</ele>
        <time>2018-01-09T15:56:22Z</time>
      </trkpt>
      <trkpt lat="41.996452" lon="2.263047">
        <ele>445.037</ele>
        <time>2018-01-09T15:56:26Z</time>
      </trkpt>
      <trkpt lat="41.996471" lon="2.263117">
        <ele>446.226</ele>
        <time>2018-01-09T15:56:30Z</time>
      </trkpt>
      <trkpt lat="41.996488" lon="2.263194">
        <ele>447.654</ele>
        <time>2018-01-09T15:56:34Z</time>
      </trkpt>
      <trkpt lat="41.996509" lon="2.263266">
        <ele>448.279</ele>
        <time>2018-01-09T15:56:38Z</time>
      </trkpt>
      <trkpt lat="41.996530" lon="2.263333">
        <ele>448.154</ele>
        <time>2018-01-09T15:56:42Z</time>
      </trkpt>
      <trkpt lat="41.996549" lon="2.263401">
        <ele>448.370</ele>
        <time>2018-01-09T15:56:46Z</time>
      </trkpt>
      <trkpt lat="41.996549" lon="2.263475">
        <ele>449.053</ele>
        <time>2018-01-09T15:57:00Z</time>
      </trkpt>
      <trkpt lat="41.996567" lon="2.263543">
        <ele>449.027</ele>
        <time>2018-01-09T15:57:04Z</time>
      </trkpt>
      <trkpt lat="41.996602" lon="2.263604">
        <ele>449.828</ele>
        <time>2018-01-09T15:57:08Z</time>
      </trkpt>
      <trkpt lat="41.996629" lon="2.263665">
        <ele>450.589</ele>
        <time>2018-01-09T15:57:11Z</time>
      </trkpt>
      <trkpt lat="41.996650" lon="2.263725">
        <ele>450.017</ele>
        <time>2018-01-09T15:57:14Z</time>
      </trkpt>
      <trkpt lat="41.996667" lon="2.263787">
        <ele>449.808</ele>
        <time>2018-01-09T15:57:17Z</time>
      </trkpt>
      <trkpt lat="41.996685" lon="2.263847">
        <ele>449.064</ele>
        <time>2018-01-09T15:57:20Z</time>
      </trkpt>
      <trkpt lat="41.996708" lon="2.263909">
        <ele>449.173</ele>
        <time>2018-01-09T15:57:23Z</time>
      </trkpt>
      <trkpt lat="41.996727" lon="2.263967">
        <ele>449.981</ele>
        <time>2018-01-09T15:57:26Z</time>
      </trkpt>
      <trkpt lat="41.996755" lon="2.264016">
        <ele>449.786</ele>
        <time>2018-01-09T15:57:29Z</time>
      </trkpt>
      <trkpt lat="41.996794" lon="2.264050">
        <ele>450.211</ele>
        <time>2018-01-09T15:57:33Z</time>
      </trkpt>
      <trkpt lat="41.996847" lon="2.264074">
        <ele>449.777</ele>
        <time>2018-01-09T15:57:37Z</time>
      </trkpt>
      <trkpt lat="41.996895" lon="2.264074">
        <ele>450.170</ele>
        <time>2018-01-09T15:57:41Z</time>
      </trkpt>
      <trkpt lat="41.996942" lon="2.264078">
        <ele>449.444</ele>
        <time>2018-01-09T15:57:44Z</time>
      </trkpt>
      <trkpt lat="41.996995" lon="2.264087">
        <ele>449.553</ele>
        <time>2018-01-09T15:57:47Z</time>
      </trkpt>
      <trkpt lat="41.997047" lon="2.264095">
        <ele>448.804</ele>
        <time>2018-01-09T15:57:50Z</time>
      </trkpt>
      <trkpt lat="41.997103" lon="2.264096">
        <ele>448.614</ele>
        <time>2018-01-09T15:57:53Z</time>
      </trkpt>
      <trkpt lat="41.997158" lon="2.264080">
        <ele>449.408</ele>
        <time>2018-01-09T15:57:57Z</time>
      </trkpt>
      <trkpt lat="41.997205" lon="2.264070">
        <ele>449.097</ele>
        <time>2018-01-09T15:58:00Z</time>
      </trkpt>
      <trkpt lat="41.997264" lon="2.264045">
        <ele>449.826</ele>
        <time>2018-01-09T15:58:04Z</time>
      </trkpt>
      <trkpt lat="41.997316" lon="2.264025">
        <ele>450.424</ele>
        <time>2018-01-09T15:58:07Z</time>
      </trkpt>
      <trkpt lat="41.997375" lon="2.264017">
        <ele>450.619</ele>
        <time>2018-01-09T15:58:11Z</time>
      </trkpt>
      <trkpt lat="41.997426" lon="2.264009">
        <ele>450.814</ele>
        <time>2018-01-09T15:58:14Z</time>
      </trkpt>
      <trkpt lat="41.997484" lon="2.264000">
        <ele>449.640</ele>
        <time>2018-01-09T15:58:18Z</time>
      </trkpt>
      <trkpt lat="41.997543" lon="2.263987">
        <ele>449.473</ele>
        <time>2018-01-09T15:58:22Z</time>
      </trkpt>
      <trkpt lat="41.997588" lon="2.263976">
        <ele>449.577</ele>
        <time>2018-01-09T15:58:25Z</time>
      </trkpt>
      <trkpt lat="41.997643" lon="2.263950">
        <ele>449.311</ele>
        <time>2018-01-09T15:58:29Z</time>
      </trkpt>
      <trkpt lat="41.997692" lon="2.263924">
        <ele>448.721</ele>
        <time>2018-01-09T15:58:33Z</time>
      </trkpt>
      <trkpt lat="41.997743" lon="2.263912">
        <ele>448.003</ele>
        <time>2018-01-09T15:58:37Z</time>
      </trkpt>
      <trkpt lat="41.997793" lon="2.263899">
        <ele>448.208</ele>
        <time>2018-01-09T15:58:41Z</time>
      </trkpt>
      <trkpt lat="41.997839" lon="2.263891">
        <ele>448.313</ele>
        <time>2018-01-09T15:58:45Z</time>
      </trkpt>
      <trkpt lat="41.997885" lon="2.263879">
        <ele>448.632</ele>
        <time>2018-01-09T15:58:49Z</time>
      </trkpt>
      <trkpt lat="41.997932" lon="2.263878">
        <ele>448.850</ele>
        <time>2018-01-09T15:58:53Z</time>
      </trkpt>
      <trkpt lat="41.997974" lon="2.263913">
        <ele>449.315</ele>
        <time>2018-01-09T15:58:58Z</time>
      </trkpt>
      <trkpt lat="41.998001" lon="2.263969">
        <ele>449.580</ele>
        <time>2018-01-09T15:59:03Z</time>
      </trkpt>
      <trkpt lat="41.998030" lon="2.264037">
        <ele>449.866</ele>
        <time>2018-01-09T15:59:07Z</time>
      </trkpt>
      <trkpt lat="41.998065" lon="2.264086">
        <ele>450.589</ele>
        <time>2018-01-09T15:59:11Z</time>
      </trkpt>
      <trkpt lat="41.998093" lon="2.264143">
        <ele>451.443</ele>
        <time>2018-01-09T15:59:15Z</time>
      </trkpt>
      <trkpt lat="41.998108" lon="2.264212">
        <ele>451.332</ele>
        <time>2018-01-09T15:59:19Z</time>
      </trkpt>
      <trkpt lat="41.998134" lon="2.264281">
        <ele>452.892</ele>
        <time>2018-01-09T15:59:23Z</time>
      </trkpt>
      <trkpt lat="41.998158" lon="2.264340">
        <ele>454.311</ele>
        <time>2018-01-09T15:59:27Z</time>
      </trkpt>
      <trkpt lat="41.998206" lon="2.264363">
        <ele>454.608</ele>
        <time>2018-01-09T15:59:31Z</time>
      </trkpt>
      <trkpt lat="41.998255" lon="2.264361">
        <ele>455.245</ele>
        <time>2018-01-09T15:59:35Z</time>
      </trkpt>
      <trkpt lat="41.998306" lon="2.264373">
        <ele>455.764</ele>
        <time>2018-01-09T15:59:40Z</time>
      </trkpt>
      <trkpt lat="41.998343" lon="2.264422">
        <ele>456.052</ele>
        <time>2018-01-09T15:59:45Z</time>
      </trkpt>
      <trkpt lat="41.998356" lon="2.264485">
        <ele>456.597</ele>
        <time>2018-01-09T15:59:49Z</time>
      </trkpt>
      <trkpt lat="41.998354" lon="2.264546">
        <ele>456.442</ele>
        <time>2018-01-09T15:59:52Z</time>
      </trkpt>
      <trkpt lat="41.998353" lon="2.264624">
        <ele>457.088</ele>
        <time>2018-01-09T15:59:56Z</time>
      </trkpt>
      <trkpt lat="41.998340" lon="2.264693">
        <ele>456.911</ele>
        <time>2018-01-09T16:00:00Z</time>
      </trkpt>
      <trkpt lat="41.998343" lon="2.264762">
        <ele>457.355</ele>
        <time>2018-01-09T16:00:04Z</time>
      </trkpt>
      <trkpt lat="41.998329" lon="2.264839">
        <ele>457.051</ele>
        <time>2018-01-09T16:00:08Z</time>
      </trkpt>
      <trkpt lat="41.998314" lon="2.264914">
        <ele>456.901</ele>
        <time>2018-01-09T16:00:12Z</time>
      </trkpt>
      <trkpt lat="41.998317" lon="2.264983">
        <ele>457.211</ele>
        <time>2018-01-09T16:00:16Z</time>
      </trkpt>
      <trkpt lat="41.998308" lon="2.265049">
        <ele>456.908</ele>
        <time>2018-01-09T16:00:20Z</time>
      </trkpt>
      <trkpt lat="41.998309" lon="2.265114">
        <ele>456.087</ele>
        <time>2018-01-09T16:00:24Z</time>
      </trkpt>
      <trkpt lat="41.998285" lon="2.265183">
        <ele>456.256</ele>
        <time>2018-01-09T16:00:28Z</time>
      </trkpt>
      <trkpt lat="41.998267" lon="2.265254">
        <ele>456.874</ele>
        <time>2018-01-09T16:00:32Z</time>
      </trkpt>
      <trkpt lat="41.998240" lon="2.265317">
        <ele>456.879</ele>
        <time>2018-01-09T16:00:36Z</time>
      </trkpt>
      <trkpt lat="41.998214" lon="2.265378">
        <ele>455.274</ele>
        <time>2018-01-09T16:00:40Z</time>
      </trkpt>
      <trkpt lat="41.998181" lon="2.265440">
        <ele>454.450</ele>
        <time>2018-01-09T16:00:45Z</time>
      </trkpt>
      <trkpt lat="41.998148" lon="2.265489">
        <ele>453.133</ele>
        <time>2018-01-09T16:00:49Z</time>
      </trkpt>
      <trkpt lat="41.998106" lon="2.265535">
        <ele>453.127</ele>
        <time>2018-01-09T16:00:53Z</time>
      </trkpt>
      <trkpt lat="41.998067" lon="2.265585">
        <ele>452.048</ele>
        <time>2018-01-09T16:00:57Z</time>
      </trkpt>
      <trkpt lat="41.998030" lon="2.265631">
        <ele>451.761</ele>
        <time>2018-01-09T16:01:01Z</time>
      </trkpt>
      <trkpt lat="41.997992" lon="2.265679">
        <ele>451.917</ele>
        <time>2018-01-09T16:01:05Z</time>
      </trkpt>
      <trkpt lat="41.997957" lon="2.265730">
        <ele>451.108</ele>
        <time>2018-01-09T16:01:09Z</time>
      </trkpt>
      <trkpt lat="41.997921" lon="2.265788">
        <ele>451.816</ele>
        <time>2018-01-09T16:01:13Z</time>
      </trkpt>
      <trkpt lat="41.997886" lon="2.265840">
        <ele>451.815</ele>
        <time>2018-01-09T16:01:17Z</time>
      </trkpt>
      <trkpt lat="41.997852" lon="2.265894">
        <ele>452.183</ele>
        <time>2018-01-09T16:01:21Z</time>
      </trkpt>
      <trkpt lat="41.997817" lon="2.265952">
        <ele>452.058</ele>
        <time>2018-01-09T16:01:25Z</time>
      </trkpt>
      <trkpt lat="41.997786" lon="2.266013">
        <ele>452.353</ele>
        <time>2018-01-09T16:01:29Z</time>
      </trkpt>
      <trkpt lat="41.997759" lon="2.266073">
        <ele>452.379</ele>
        <time>2018-01-09T16:01:33Z</time>
      </trkpt>
      <trkpt lat="41.997734" lon="2.266130">
        <ele>453.452</ele>
        <time>2018-01-09T16:01:37Z</time>
      </trkpt>
      <trkpt lat="41.997705" lon="2.266189">
        <ele>454.386</ele>
        <time>2018-01-09T16:01:42Z</time>
      </trkpt>
      <trkpt lat="41.997678" lon="2.266238">
        <ele>454.739</ele>
        <time>2018-01-09T16:01:46Z</time>
      </trkpt>
      <trkpt lat="41.997645" lon="2.266282">
        <ele>455.901</ele>
        <time>2018-01-09T16:01:50Z</time>
      </trkpt>
      <trkpt lat="41.997603" lon="2.266332">
        <ele>455.521</ele>
        <time>2018-01-09T16:01:54Z</time>
      </trkpt>
      <trkpt lat="41.997558" lon="2.266376">
        <ele>454.808</ele>
        <time>2018-01-09T16:01:58Z</time>
      </trkpt>
      <trkpt lat="41.997522" lon="2.266415">
        <ele>454.015</ele>
        <time>2018-01-09T16:02:01Z</time>
      </trkpt>
      <trkpt lat="41.997480" lon="2.266463">
        <ele>453.454</ele>
        <time>2018-01-09T16:02:05Z</time>
      </trkpt>
      <trkpt lat="41.997442" lon="2.266523">
        <ele>452.812</ele>
        <time>2018-01-09T16:02:09Z</time>
      </trkpt>
      <trkpt lat="41.997413" lon="2.266589">
        <ele>453.547</ele>
        <time>2018-01-09T16:02:13Z</time>
      </trkpt>
      <trkpt lat="41.997404" lon="2.266651">
        <ele>453.822</ele>
        <time>2018-01-09T16:02:17Z</time>
      </trkpt>
      <trkpt lat="41.997404" lon="2.266716">
        <ele>454.638</ele>
        <time>2018-01-09T16:02:20Z</time>
      </trkpt>
      <trkpt lat="41.997400" lon="2.266783">
        <ele>454.341</ele>
        <time>2018-01-09T16:02:23Z</time>
      </trkpt>
      <trkpt lat="41.997386" lon="2.266843">
        <ele>454.435</ele>
        <time>2018-01-09T16:02:26Z</time>
      </trkpt>
      <trkpt lat="41.997390" lon="2.266910">
        <ele>454.537</ele>
        <time>2018-01-09T16:02:30Z</time>
      </trkpt>
      <trkpt lat="41.997387" lon="2.266976">
        <ele>454.249</ele>
        <time>2018-01-09T16:02:34Z</time>
      </trkpt>
      <trkpt lat="41.997371" lon="2.267041">
        <ele>453.513</ele>
        <time>2018-01-09T16:02:39Z</time>
      </trkpt>
      <trkpt lat="41.997329" lon="2.267066">
        <ele>452.808</ele>
        <time>2018-01-09T16:02:43Z</time>
      </trkpt>
      <trkpt lat="41.997276" lon="2.267095">
        <ele>452.395</ele>
        <time>2018-01-09T16:02:52Z</time>
      </trkpt>
      <trkpt lat="41.997277" lon="2.267168">
        <ele>451.634</ele>
        <time>2018-01-09T16:02:56Z</time>
      </trkpt>
      <trkpt lat="41.997299" lon="2.267227">
        <ele>450.892</ele>
        <time>2018-01-09T16:02:59Z</time>
      </trkpt>
      <trkpt lat="41.997324" lon="2.267297">
        <ele>450.797</ele>
        <time>2018-01-09T16:03:03Z</time>
      </trkpt>
      <trkpt lat="41.997343" lon="2.267354">
        <ele>451.082</ele>
        <time>2018-01-09T16:03:06Z</time>
      </trkpt>
      <trkpt lat="41.997364" lon="2.267414">
        <ele>450.938</ele>
        <time>2018-01-09T16:03:09Z</time>
      </trkpt>
      <trkpt lat="41.997379" lon="2.267473">
        <ele>450.871</ele>
        <time>2018-01-09T16:03:12Z</time>
      </trkpt>
      <trkpt lat="41.997374" lon="2.267551">
        <ele>451.055</ele>
        <time>2018-01-09T16:03:16Z</time>
      </trkpt>
      <trkpt lat="41.997376" lon="2.267612">
        <ele>451.546</ele>
        <time>2018-01-09T16:03:19Z</time>
      </trkpt>
      <trkpt lat="41.997392" lon="2.267675">
        <ele>451.888</ele>
        <time>2018-01-09T16:03:22Z</time>
      </trkpt>
      <trkpt lat="41.997402" lon="2.267753">
        <ele>452.316</ele>
        <time>2018-01-09T16:03:26Z</time>
      </trkpt>
      <trkpt lat="41.997393" lon="2.267821">
        <ele>452.308</ele>
        <time>2018-01-09T16:03:29Z</time>
      </trkpt>
      <trkpt lat="41.997391" lon="2.267892">
        <ele>453.016</ele>
        <time>2018-01-09T16:03:32Z</time>
      </trkpt>
      <trkpt lat="41.997378" lon="2.267957">
        <ele>453.555</ele>
        <time>2018-01-09T16:03:35Z</time>
      </trkpt>
      <trkpt lat="41.997373" lon="2.268026">
        <ele>453.193</ele>
        <time>2018-01-09T16:03:39Z</time>
      </trkpt>
      <trkpt lat="41.997371" lon="2.268087">
        <ele>453.188</ele>
        <time>2018-01-09T16:03:43Z</time>
      </trkpt>
      <trkpt lat="41.997357" lon="2.268154">
        <ele>453.593</ele>
        <time>2018-01-09T16:03:47Z</time>
      </trkpt>
      <trkpt lat="41.997350" lon="2.268215">
        <ele>454.179</ele>
        <time>2018-01-09T16:03:50Z</time>
      </trkpt>
      <trkpt lat="41.997341" lon="2.268288">
        <ele>453.872</ele>
        <time>2018-01-09T16:03:53Z</time>
      </trkpt>
      <trkpt lat="41.997334" lon="2.268354">
        <ele>453.946</ele>
        <time>2018-01-09T16:03:56Z</time>
      </trkpt>
      <trkpt lat="41.997326" lon="2.268417">
        <ele>453.382</ele>
        <time>2018-01-09T16:03:59Z</time>
      </trkpt>
      <trkpt lat="41.997314" lon="2.268486">
        <ele>452.243</ele>
        <time>2018-01-09T16:04:02Z</time>
      </trkpt>
      <trkpt lat="41.997304" lon="2.268554">
        <ele>452.417</ele>
        <time>2018-01-09T16:04:05Z</time>
      </trkpt>
      <trkpt lat="41.997303" lon="2.268624">
        <ele>453.308</ele>
        <time>2018-01-09T16:04:09Z</time>
      </trkpt>
      <trkpt lat="41.997303" lon="2.268696">
        <ele>451.950</ele>
        <time>2018-01-09T16:04:13Z</time>
      </trkpt>
      <trkpt lat="41.997293" lon="2.268758">
        <ele>451.579</ele>
        <time>2018-01-09T16:04:16Z</time>
      </trkpt>
      <trkpt lat="41.997293" lon="2.268822">
        <ele>451.517</ele>
        <time>2018-01-09T16:04:20Z</time>
      </trkpt>
      <trkpt lat="41.997298" lon="2.268888">
        <ele>449.422</ele>
        <time>2018-01-09T16:04:25Z</time>
      </trkpt>
      <trkpt lat="41.997311" lon="2.268949">
        <ele>448.717</ele>
        <time>2018-01-09T16:04:29Z</time>
      </trkpt>
      <trkpt lat="41.997309" lon="2.269010">
        <ele>448.133</ele>
        <time>2018-01-09T16:04:33Z</time>
      </trkpt>
      <trkpt lat="41.997301" lon="2.269078">
        <ele>449.886</ele>
        <time>2018-01-09T16:04:53Z</time>
      </trkpt>
      <trkpt lat="41.997310" lon="2.269154">
        <ele>449.710</ele>
        <time>2018-01-09T16:04:57Z</time>
      </trkpt>
      <trkpt lat="41.997310" lon="2.269231">
        <ele>450.098</ele>
        <time>2018-01-09T16:05:01Z</time>
      </trkpt>
      <trkpt lat="41.997315" lon="2.269311">
        <ele>450.115</ele>
        <time>2018-01-09T16:05:05Z</time>
      </trkpt>
      <trkpt lat="41.997317" lon="2.269372">
        <ele>449.926</ele>
        <time>2018-01-09T16:05:08Z</time>
      </trkpt>
      <trkpt lat="41.997317" lon="2.269443">
        <ele>449.608</ele>
        <time>2018-01-09T16:05:12Z</time>
      </trkpt>
      <trkpt lat="41.997322" lon="2.269506">
        <ele>449.791</ele>
        <time>2018-01-09T16:05:17Z</time>
      </trkpt>
      <trkpt lat="41.997318" lon="2.269577">
        <ele>450.360</ele>
        <time>2018-01-09T16:05:22Z</time>
      </trkpt>
      <trkpt lat="41.997315" lon="2.269649">
        <ele>450.858</ele>
        <time>2018-01-09T16:05:26Z</time>
      </trkpt>
      <trkpt lat="41.997313" lon="2.269722">
        <ele>450.663</ele>
        <time>2018-01-09T16:05:30Z</time>
      </trkpt>
      <trkpt lat="41.997322" lon="2.269783">
        <ele>450.948</ele>
        <time>2018-01-09T16:05:34Z</time>
      </trkpt>
      <trkpt lat="41.997337" lon="2.269841">
        <ele>450.794</ele>
        <time>2018-01-09T16:05:38Z</time>
      </trkpt>
      <trkpt lat="41.997332" lon="2.269902">
        <ele>449.737</ele>
        <time>2018-01-09T16:05:43Z</time>
      </trkpt>
      <trkpt lat="41.997320" lon="2.269972">
        <ele>449.491</ele>
        <time>2018-01-09T16:05:47Z</time>
      </trkpt>
      <trkpt lat="41.997310" lon="2.270032">
        <ele>449.051</ele>
        <time>2018-01-09T16:05:50Z</time>
      </trkpt>
      <trkpt lat="41.997308" lon="2.270105">
        <ele>448.901</ele>
        <time>2018-01-09T16:05:54Z</time>
      </trkpt>
      <trkpt lat="41.997322" lon="2.270164">
        <ele>448.411</ele>
        <time>2018-01-09T16:05:58Z</time>
      </trkpt>
      <trkpt lat="41.997332" lon="2.270223">
        <ele>447.408</ele>
        <time>2018-01-09T16:06:02Z</time>
      </trkpt>
      <trkpt lat="41.997336" lon="2.270286">
        <ele>447.537</ele>
        <time>2018-01-09T16:06:07Z</time>
      </trkpt>
      <trkpt lat="41.997329" lon="2.270356">
        <ele>448.916</ele>
        <time>2018-01-09T16:06:11Z</time>
      </trkpt>
      <trkpt lat="41.997338" lon="2.270420">
        <ele>448.654</ele>
        <time>2018-01-09T16:06:15Z</time>
      </trkpt>
      <trkpt lat="41.997345" lon="2.270497">
        <ele>449.029</ele>
        <time>2018-01-09T16:06:19Z</time>
      </trkpt>
      <trkpt lat="41.997363" lon="2.270558">
        <ele>449.484</ele>
        <time>2018-01-09T16:06:23Z</time>
      </trkpt>
      <trkpt lat="41.997390" lon="2.270606">
        <ele>449.730</ele>
        <time>2018-01-09T16:06:27Z</time>
      </trkpt>
      <trkpt lat="41.997395" lon="2.270674">
        <ele>448.723</ele>
        <time>2018-01-09T16:06:39Z</time>
      </trkpt>
      <trkpt lat="41.997429" lon="2.270719">
        <ele>449.697</ele>
        <time>2018-01-09T16:06:46Z</time>
      </trkpt>
      <trkpt lat="41.997460" lon="2.270675">
        <ele>449.488</ele>
        <time>2018-01-09T16:07:08Z</time>
      </trkpt>
      <trkpt lat="41.997483" lon="2.270621">
        <ele>451.824</ele>
        <time>2018-01-09T16:07:13Z</time>
      </trkpt>
      <trkpt lat="41.997512" lon="2.270574">
        <ele>451.126</ele>
        <time>2018-01-09T16:07:18Z</time>
      </trkpt>
      <trkpt lat="41.997552" lon="2.270534">
        <ele>450.108</ele>
        <time>2018-01-09T16:07:24Z</time>
      </trkpt>
      <trkpt lat="41.997589" lon="2.270485">
        <ele>450.120</ele>
        <time>2018-01-09T16:07:29Z</time>
      </trkpt>
      <trkpt lat="41.997621" lon="2.270434">
        <ele>449.179</ele>
        <time>2018-01-09T16:07:34Z</time>
      </trkpt>
      <trkpt lat="41.997653" lon="2.270388">
        <ele>449.747</ele>
        <time>2018-01-09T16:07:39Z</time>
      </trkpt>
      <trkpt lat="41.997688" lon="2.270337">
        <ele>450.692</ele>
        <time>2018-01-09T16:07:44Z</time>
      </trkpt>
      <trkpt lat="41.997723" lon="2.270298">
        <ele>450.887</ele>
        <time>2018-01-09T16:07:48Z</time>
      </trkpt>
      <trkpt lat="41.997763" lon="2.270255">
        <ele>451.553</ele>
        <time>2018-01-09T16:07:52Z</time>
      </trkpt>
      <trkpt lat="41.997783" lon="2.270188">
        <ele>453.296</ele>
        <time>2018-01-09T16:07:57Z</time>
      </trkpt>
      <trkpt lat="41.997795" lon="2.270127">
        <ele>453.620</ele>
        <time>2018-01-09T16:08:01Z</time>
      </trkpt>
      <trkpt lat="41.997827" lon="2.270078">
        <ele>453.237</ele>
        <time>2018-01-09T16:08:06Z</time>
      </trkpt>
      <trkpt lat="41.997873" lon="2.270062">
        <ele>453.749</ele>
        <time>2018-01-09T16:08:10Z</time>
      </trkpt>
      <trkpt lat="41.997917" lon="2.270041">
        <ele>454.613</ele>
        <time>2018-01-09T16:08:14Z</time>
      </trkpt>
      <trkpt lat="41.997967" lon="2.270020">
        <ele>454.408</ele>
        <time>2018-01-09T16:08:19Z</time>
      </trkpt>
      <trkpt lat="41.998020" lon="2.270002">
        <ele>454.215</ele>
        <time>2018-01-09T16:08:25Z</time>
      </trkpt>
      <trkpt lat="41.998085" lon="2.269995">
        <ele>453.974</ele>
        <time>2018-01-09T16:08:46Z</time>
      </trkpt>
      <trkpt lat="41.998130" lon="2.269968">
        <ele>452.772</ele>
        <time>2018-01-09T16:08:51Z</time>
      </trkpt>
      <trkpt lat="41.998182" lon="2.269955">
        <ele>453.197</ele>
        <time>2018-01-09T16:08:56Z</time>
      </trkpt>
      <trkpt lat="41.998233" lon="2.269931">
        <ele>452.832</ele>
        <time>2018-01-09T16:09:01Z</time>
      </trkpt>
      <trkpt lat="41.998286" lon="2.269904">
        <ele>454.618</ele>
        <time>2018-01-09T16:09:06Z</time>
      </trkpt>
      <trkpt lat="41.998321" lon="2.269861">
        <ele>454.851</ele>
        <time>2018-01-09T16:09:10Z</time>
      </trkpt>
      <trkpt lat="41.998369" lon="2.269846">
        <ele>455.675</ele>
        <time>2018-01-09T16:09:14Z</time>
      </trkpt>
      <trkpt lat="41.998419" lon="2.269824">
        <ele>455.811</ele>
        <time>2018-01-09T16:09:19Z</time>
      </trkpt>
      <trkpt lat="41.998464" lon="2.269797">
        <ele>456.321</ele>
        <time>2018-01-09T16:09:24Z</time>
      </trkpt>
      <trkpt lat="41.998508" lon="2.269775">
        <ele>456.503</ele>
        <time>2018-01-09T16:09:28Z</time>
      </trkpt>
      <trkpt lat="41.998555" lon="2.269755">
        <ele>456.008</ele>
        <time>2018-01-09T16:09:32Z</time>
      </trkpt>
      <trkpt lat="41.998606" lon="2.269739">
        <ele>455.053</ele>
        <time>2018-01-09T16:09:37Z</time>
      </trkpt>
      <trkpt lat="41.998653" lon="2.269719">
        <ele>455.162</ele>
        <time>2018-01-09T16:09:42Z</time>
      </trkpt>
      <trkpt lat="41.998700" lon="2.269698">
        <ele>454.570</ele>
        <time>2018-01-09T16:09:47Z</time>
      </trkpt>
      <trkpt lat="41.998750" lon="2.269685">
        <ele>455.365</ele>
        <time>2018-01-09T16:09:52Z</time>
      </trkpt>
      <trkpt lat="41.998800" lon="2.269662">
        <ele>455.290</ele>
        <time>2018-01-09T16:09:56Z</time>
      </trkpt>
      <trkpt lat="41.998848" lon="2.269634">
        <ele>455.666</ele>
        <time>2018-01-09T16:10:00Z</time>
      </trkpt>
      <trkpt lat="41.998896" lon="2.269609">
        <ele>455.899</ele>
        <time>2018-01-09T16:10:04Z</time>
      </trkpt>
      <trkpt lat="41.998944" lon="2.269599">
        <ele>455.813</ele>
        <time>2018-01-09T16:10:07Z</time>
      </trkpt>
      <trkpt lat="41.998988" lon="2.269578">
        <ele>455.617</ele>
        <time>2018-01-09T16:10:13Z</time>
      </trkpt>
      <trkpt lat="41.999027" lon="2.269547">
        <ele>455.387</ele>
        <time>2018-01-09T16:10:18Z</time>
      </trkpt>
      <trkpt lat="41.999078" lon="2.269515">
        <ele>455.015</ele>
        <time>2018-01-09T16:10:23Z</time>
      </trkpt>
      <trkpt lat="41.999123" lon="2.269501">
        <ele>454.908</ele>
        <time>2018-01-09T16:10:27Z</time>
      </trkpt>
      <trkpt lat="41.999173" lon="2.269481">
        <ele>454.763</ele>
        <time>2018-01-09T16:10:31Z</time>
      </trkpt>
      <trkpt lat="41.999219" lon="2.269468">
        <ele>454.592</ele>
        <time>2018-01-09T16:10:34Z</time>
      </trkpt>
      <trkpt lat="41.999269" lon="2.269464">
        <ele>454.650</ele>
        <time>2018-01-09T16:10:37Z</time>
      </trkpt>
      <trkpt lat="41.999317" lon="2.269457">
        <ele>454.385</ele>
        <time>2018-01-09T16:10:42Z</time>
      </trkpt>
      <trkpt lat="41.999366" lon="2.269452">
        <ele>453.750</ele>
        <time>2018-01-09T16:10:47Z</time>
      </trkpt>
      <trkpt lat="41.999411" lon="2.269437">
        <ele>453.416</ele>
        <time>2018-01-09T16:10:51Z</time>
      </trkpt>
      <trkpt lat="41.999464" lon="2.269423">
        <ele>453.529</ele>
        <time>2018-01-09T16:10:55Z</time>
      </trkpt>
      <trkpt lat="41.999510" lon="2.269403">
        <ele>453.773</ele>
        <time>2018-01-09T16:10:59Z</time>
      </trkpt>
      <trkpt lat="41.999558" lon="2.269373">
        <ele>453.498</ele>
        <time>2018-01-09T16:11:04Z</time>
      </trkpt>
      <trkpt lat="41.999603" lon="2.269347">
        <ele>452.915</ele>
        <time>2018-01-09T16:11:10Z</time>
      </trkpt>
      <trkpt lat="41.999641" lon="2.269314">
        <ele>453.926</ele>
        <time>2018-01-09T16:11:18Z</time>
      </trkpt>
      <trkpt lat="41.999690" lon="2.269303">
        <ele>455.208</ele>
        <time>2018-01-09T16:12:09Z</time>
      </trkpt>
      <trkpt lat="41.999741" lon="2.269295">
        <ele>455.751</ele>
        <time>2018-01-09T16:12:15Z</time>
      </trkpt>
      <trkpt lat="41.999788" lon="2.269277">
        <ele>455.160</ele>
        <time>2018-01-09T16:12:20Z</time>
      </trkpt>
      <trkpt lat="41.999835" lon="2.269270">
        <ele>454.858</ele>
        <time>2018-01-09T16:12:28Z</time>
      </trkpt>
    </trkseg>
  </trk>
</gpx>
